<?xml version="1.0" encoding="UTF-8" standalone="no" ?>
<gpx xmlns="http://www.topografix.com/GPX/1/1" xmlns:xsi="http://www.w3.org/2001/XMLSchema-instance" xsi:schemaLocation="http://www.topografix.com/GPX/1/1 http://www.topografix.com/GPX/1/1/gpx.xsd" version="1.1" creator="VisuGPX - https://www.visugpx.com">
  <metadata>
    <name>Projet étang Bertrand 10km</name>
    <desc><![CDATA[Randonnée du mardi 23 avril 2019, dans le cadre de l'UIA]]></desc>
  </metadata>
  <trk>
    <name><![CDATA[Freestyle]]></name>
    <trkseg>
      <trkpt lat="49.46458" lon="-1.56288">
        <ele>27.6</ele>
        <time>2019-04-23T12:07:13.000Z</time>
      </trkpt>
      <trkpt lat="49.46459" lon="-1.56288">
        <ele>27.6</ele>
        <time>2019-04-23T12:07:14.000Z</time>
      </trkpt>
      <trkpt lat="49.4646" lon="-1.56288">
        <ele>27.7</ele>
        <time>2019-04-23T12:07:15.000Z</time>
      </trkpt>
      <trkpt lat="49.46461" lon="-1.56288">
        <ele>27.7</ele>
        <time>2019-04-23T12:07:16.000Z</time>
      </trkpt>
      <trkpt lat="49.46462" lon="-1.56289">
        <ele>27.7</ele>
        <time>2019-04-23T12:07:17.000Z</time>
      </trkpt>
      <trkpt lat="49.46463" lon="-1.56289">
        <ele>27.7</ele>
        <time>2019-04-23T12:07:18.000Z</time>
      </trkpt>
      <trkpt lat="49.46464" lon="-1.56289">
        <ele>27.8</ele>
        <time>2019-04-23T12:07:19.000Z</time>
      </trkpt>
      <trkpt lat="49.46465" lon="-1.56289">
        <ele>27.8</ele>
        <time>2019-04-23T12:07:20.000Z</time>
      </trkpt>
      <trkpt lat="49.46466" lon="-1.56289">
        <ele>27.8</ele>
        <time>2019-04-23T12:07:21.000Z</time>
      </trkpt>
      <trkpt lat="49.46467" lon="-1.5629">
        <ele>27.8</ele>
        <time>2019-04-23T12:07:22.000Z</time>
      </trkpt>
      <trkpt lat="49.46468" lon="-1.5629">
        <ele>27.9</ele>
        <time>2019-04-23T12:07:23.000Z</time>
      </trkpt>
      <trkpt lat="49.46469" lon="-1.5629">
        <ele>27.9</ele>
        <time>2019-04-23T12:07:24.000Z</time>
      </trkpt>
      <trkpt lat="49.4647" lon="-1.5629">
        <ele>27.9</ele>
        <time>2019-04-23T12:07:25.000Z</time>
      </trkpt>
      <trkpt lat="49.46471" lon="-1.5629">
        <ele>27.9</ele>
        <time>2019-04-23T12:07:26.000Z</time>
      </trkpt>
      <trkpt lat="49.46472" lon="-1.56291">
        <ele>28</ele>
        <time>2019-04-23T12:07:27.000Z</time>
      </trkpt>
      <trkpt lat="49.46473" lon="-1.56291">
        <ele>28</ele>
        <time>2019-04-23T12:07:28.000Z</time>
      </trkpt>
      <trkpt lat="49.46474" lon="-1.56291">
        <ele>28</ele>
        <time>2019-04-23T12:07:29.000Z</time>
      </trkpt>
      <trkpt lat="49.46475" lon="-1.56291">
        <ele>28</ele>
        <time>2019-04-23T12:07:30.000Z</time>
      </trkpt>
      <trkpt lat="49.46476" lon="-1.56292">
        <ele>28.1</ele>
        <time>2019-04-23T12:07:31.000Z</time>
      </trkpt>
      <trkpt lat="49.46477" lon="-1.56292">
        <ele>28.1</ele>
        <time>2019-04-23T12:07:32.000Z</time>
      </trkpt>
      <trkpt lat="49.46478" lon="-1.56292">
        <ele>28.1</ele>
        <time>2019-04-23T12:07:33.000Z</time>
      </trkpt>
      <trkpt lat="49.46479" lon="-1.56293">
        <ele>28.1</ele>
        <time>2019-04-23T12:07:34.000Z</time>
      </trkpt>
      <trkpt lat="49.46479" lon="-1.56293">
        <ele>28.2</ele>
        <time>2019-04-23T12:07:35.000Z</time>
      </trkpt>
      <trkpt lat="49.4648" lon="-1.56293">
        <ele>28.2</ele>
        <time>2019-04-23T12:07:36.000Z</time>
      </trkpt>
      <trkpt lat="49.46481" lon="-1.56294">
        <ele>28.2</ele>
        <time>2019-04-23T12:07:37.000Z</time>
      </trkpt>
      <trkpt lat="49.46482" lon="-1.56294">
        <ele>28.3</ele>
        <time>2019-04-23T12:07:38.000Z</time>
      </trkpt>
      <trkpt lat="49.46483" lon="-1.56294">
        <ele>28.3</ele>
        <time>2019-04-23T12:07:39.000Z</time>
      </trkpt>
      <trkpt lat="49.46484" lon="-1.56295">
        <ele>28.3</ele>
        <time>2019-04-23T12:07:40.000Z</time>
      </trkpt>
      <trkpt lat="49.46485" lon="-1.56295">
        <ele>28.3</ele>
        <time>2019-04-23T12:07:41.000Z</time>
      </trkpt>
      <trkpt lat="49.46486" lon="-1.56296">
        <ele>28.4</ele>
        <time>2019-04-23T12:07:42.000Z</time>
      </trkpt>
      <trkpt lat="49.46487" lon="-1.56296">
        <ele>28.4</ele>
        <time>2019-04-23T12:07:43.000Z</time>
      </trkpt>
      <trkpt lat="49.46487" lon="-1.56296">
        <ele>28.4</ele>
        <time>2019-04-23T12:07:44.000Z</time>
      </trkpt>
      <trkpt lat="49.46487" lon="-1.56296">
        <ele>28.4</ele>
        <time>2019-04-23T12:07:45.000Z</time>
      </trkpt>
      <trkpt lat="49.46487" lon="-1.56297">
        <ele>28.4</ele>
        <time>2019-04-23T12:07:46.000Z</time>
      </trkpt>
      <trkpt lat="49.46487" lon="-1.56297">
        <ele>28.4</ele>
        <time>2019-04-23T12:07:47.000Z</time>
      </trkpt>
      <trkpt lat="49.46487" lon="-1.56297">
        <ele>28.4</ele>
        <time>2019-04-23T12:07:48.000Z</time>
      </trkpt>
      <trkpt lat="49.46488" lon="-1.56297">
        <ele>28.5</ele>
        <time>2019-04-23T12:07:49.000Z</time>
      </trkpt>
      <trkpt lat="49.46488" lon="-1.56297">
        <ele>28.5</ele>
        <time>2019-04-23T12:07:50.000Z</time>
      </trkpt>
      <trkpt lat="49.46489" lon="-1.56297">
        <ele>28.5</ele>
        <time>2019-04-23T12:07:51.000Z</time>
      </trkpt>
      <trkpt lat="49.46489" lon="-1.56297">
        <ele>28.5</ele>
        <time>2019-04-23T12:07:52.000Z</time>
      </trkpt>
      <trkpt lat="49.4649" lon="-1.56297">
        <ele>28.5</ele>
        <time>2019-04-23T12:07:53.000Z</time>
      </trkpt>
      <trkpt lat="49.46491" lon="-1.56297">
        <ele>28.5</ele>
        <time>2019-04-23T12:07:54.000Z</time>
      </trkpt>
      <trkpt lat="49.46492" lon="-1.56297">
        <ele>28.5</ele>
        <time>2019-04-23T12:07:55.000Z</time>
      </trkpt>
      <trkpt lat="49.46492" lon="-1.56297">
        <ele>28.5</ele>
        <time>2019-04-23T12:07:56.000Z</time>
      </trkpt>
      <trkpt lat="49.46493" lon="-1.56297">
        <ele>28.5</ele>
        <time>2019-04-23T12:07:57.000Z</time>
      </trkpt>
      <trkpt lat="49.46494" lon="-1.56296">
        <ele>28.5</ele>
        <time>2019-04-23T12:07:58.000Z</time>
      </trkpt>
      <trkpt lat="49.46495" lon="-1.56295">
        <ele>28.5</ele>
        <time>2019-04-23T12:07:59.000Z</time>
      </trkpt>
      <trkpt lat="49.46496" lon="-1.56294">
        <ele>28.5</ele>
        <time>2019-04-23T12:08:00.000Z</time>
      </trkpt>
      <trkpt lat="49.46496" lon="-1.56294">
        <ele>28.5</ele>
        <time>2019-04-23T12:08:01.000Z</time>
      </trkpt>
      <trkpt lat="49.46497" lon="-1.56293">
        <ele>28.5</ele>
        <time>2019-04-23T12:08:02.000Z</time>
      </trkpt>
      <trkpt lat="49.46498" lon="-1.56291">
        <ele>28.4</ele>
        <time>2019-04-23T12:08:03.000Z</time>
      </trkpt>
      <trkpt lat="49.46498" lon="-1.5629">
        <ele>28.4</ele>
        <time>2019-04-23T12:08:04.000Z</time>
      </trkpt>
      <trkpt lat="49.46499" lon="-1.56289">
        <ele>28.4</ele>
        <time>2019-04-23T12:08:05.000Z</time>
      </trkpt>
      <trkpt lat="49.46499" lon="-1.56288">
        <ele>28.3</ele>
        <time>2019-04-23T12:08:06.000Z</time>
      </trkpt>
      <trkpt lat="49.465" lon="-1.56286">
        <ele>28.3</ele>
        <time>2019-04-23T12:08:07.000Z</time>
      </trkpt>
      <trkpt lat="49.465" lon="-1.56285">
        <ele>28.2</ele>
        <time>2019-04-23T12:08:08.000Z</time>
      </trkpt>
      <trkpt lat="49.46501" lon="-1.56283">
        <ele>28.2</ele>
        <time>2019-04-23T12:08:09.000Z</time>
      </trkpt>
      <trkpt lat="49.46501" lon="-1.56282">
        <ele>28.1</ele>
        <time>2019-04-23T12:08:10.000Z</time>
      </trkpt>
      <trkpt lat="49.46501" lon="-1.5628">
        <ele>28.1</ele>
        <time>2019-04-23T12:08:11.000Z</time>
      </trkpt>
      <trkpt lat="49.46501" lon="-1.56279">
        <ele>28</ele>
        <time>2019-04-23T12:08:12.000Z</time>
      </trkpt>
      <trkpt lat="49.46501" lon="-1.56277">
        <ele>28</ele>
        <time>2019-04-23T12:08:13.000Z</time>
      </trkpt>
      <trkpt lat="49.46502" lon="-1.56275">
        <ele>27.9</ele>
        <time>2019-04-23T12:08:14.000Z</time>
      </trkpt>
      <trkpt lat="49.46502" lon="-1.56274">
        <ele>27.8</ele>
        <time>2019-04-23T12:08:15.000Z</time>
      </trkpt>
      <trkpt lat="49.46502" lon="-1.56272">
        <ele>27.8</ele>
        <time>2019-04-23T12:08:16.000Z</time>
      </trkpt>
      <trkpt lat="49.46502" lon="-1.5627">
        <ele>27.7</ele>
        <time>2019-04-23T12:08:17.000Z</time>
      </trkpt>
      <trkpt lat="49.46502" lon="-1.56269">
        <ele>27.6</ele>
        <time>2019-04-23T12:08:18.000Z</time>
      </trkpt>
      <trkpt lat="49.46502" lon="-1.56267">
        <ele>27.6</ele>
        <time>2019-04-23T12:08:19.000Z</time>
      </trkpt>
      <trkpt lat="49.46502" lon="-1.56265">
        <ele>27.5</ele>
        <time>2019-04-23T12:08:20.000Z</time>
      </trkpt>
      <trkpt lat="49.46502" lon="-1.56263">
        <ele>27.5</ele>
        <time>2019-04-23T12:08:21.000Z</time>
      </trkpt>
      <trkpt lat="49.46502" lon="-1.56262">
        <ele>27.4</ele>
        <time>2019-04-23T12:08:22.000Z</time>
      </trkpt>
      <trkpt lat="49.46502" lon="-1.5626">
        <ele>27.3</ele>
        <time>2019-04-23T12:08:23.000Z</time>
      </trkpt>
      <trkpt lat="49.46503" lon="-1.56258">
        <ele>27.3</ele>
        <time>2019-04-23T12:08:24.000Z</time>
      </trkpt>
      <trkpt lat="49.46503" lon="-1.56257">
        <ele>27.2</ele>
        <time>2019-04-23T12:08:25.000Z</time>
      </trkpt>
      <trkpt lat="49.46503" lon="-1.56255">
        <ele>27.1</ele>
        <time>2019-04-23T12:08:26.000Z</time>
      </trkpt>
      <trkpt lat="49.46503" lon="-1.56253">
        <ele>27.1</ele>
        <time>2019-04-23T12:08:27.000Z</time>
      </trkpt>
      <trkpt lat="49.46503" lon="-1.56252">
        <ele>27</ele>
        <time>2019-04-23T12:08:28.000Z</time>
      </trkpt>
      <trkpt lat="49.46503" lon="-1.5625">
        <ele>27</ele>
        <time>2019-04-23T12:08:29.000Z</time>
      </trkpt>
      <trkpt lat="49.46503" lon="-1.56248">
        <ele>26.9</ele>
        <time>2019-04-23T12:08:30.000Z</time>
      </trkpt>
      <trkpt lat="49.46504" lon="-1.56247">
        <ele>26.9</ele>
        <time>2019-04-23T12:08:31.000Z</time>
      </trkpt>
      <trkpt lat="49.46504" lon="-1.56245">
        <ele>26.8</ele>
        <time>2019-04-23T12:08:32.000Z</time>
      </trkpt>
      <trkpt lat="49.46504" lon="-1.56244">
        <ele>26.8</ele>
        <time>2019-04-23T12:08:33.000Z</time>
      </trkpt>
      <trkpt lat="49.46504" lon="-1.56242">
        <ele>26.8</ele>
        <time>2019-04-23T12:08:34.000Z</time>
      </trkpt>
      <trkpt lat="49.46504" lon="-1.5624">
        <ele>26.7</ele>
        <time>2019-04-23T12:08:35.000Z</time>
      </trkpt>
      <trkpt lat="49.46505" lon="-1.56239">
        <ele>26.7</ele>
        <time>2019-04-23T12:08:36.000Z</time>
      </trkpt>
      <trkpt lat="49.46505" lon="-1.56237">
        <ele>26.6</ele>
        <time>2019-04-23T12:08:37.000Z</time>
      </trkpt>
      <trkpt lat="49.46505" lon="-1.56235">
        <ele>26.6</ele>
        <time>2019-04-23T12:08:38.000Z</time>
      </trkpt>
      <trkpt lat="49.46505" lon="-1.56234">
        <ele>26.5</ele>
        <time>2019-04-23T12:08:39.000Z</time>
      </trkpt>
      <trkpt lat="49.46505" lon="-1.56232">
        <ele>26.5</ele>
        <time>2019-04-23T12:08:40.000Z</time>
      </trkpt>
      <trkpt lat="49.46506" lon="-1.5623">
        <ele>26.4</ele>
        <time>2019-04-23T12:08:41.000Z</time>
      </trkpt>
      <trkpt lat="49.46506" lon="-1.56229">
        <ele>26.4</ele>
        <time>2019-04-23T12:08:42.000Z</time>
      </trkpt>
      <trkpt lat="49.46506" lon="-1.56227">
        <ele>26.4</ele>
        <time>2019-04-23T12:08:43.000Z</time>
      </trkpt>
      <trkpt lat="49.46506" lon="-1.56225">
        <ele>26.3</ele>
        <time>2019-04-23T12:08:44.000Z</time>
      </trkpt>
      <trkpt lat="49.46506" lon="-1.56223">
        <ele>26.3</ele>
        <time>2019-04-23T12:08:45.000Z</time>
      </trkpt>
      <trkpt lat="49.46507" lon="-1.56222">
        <ele>26.2</ele>
        <time>2019-04-23T12:08:46.000Z</time>
      </trkpt>
      <trkpt lat="49.46507" lon="-1.5622">
        <ele>26.2</ele>
        <time>2019-04-23T12:08:47.000Z</time>
      </trkpt>
      <trkpt lat="49.46507" lon="-1.56218">
        <ele>26.1</ele>
        <time>2019-04-23T12:08:48.000Z</time>
      </trkpt>
      <trkpt lat="49.46507" lon="-1.56216">
        <ele>26.1</ele>
        <time>2019-04-23T12:08:49.000Z</time>
      </trkpt>
      <trkpt lat="49.46507" lon="-1.56215">
        <ele>26</ele>
        <time>2019-04-23T12:08:50.000Z</time>
      </trkpt>
      <trkpt lat="49.46508" lon="-1.56213">
        <ele>26</ele>
        <time>2019-04-23T12:08:51.000Z</time>
      </trkpt>
      <trkpt lat="49.46508" lon="-1.56211">
        <ele>25.9</ele>
        <time>2019-04-23T12:08:52.000Z</time>
      </trkpt>
      <trkpt lat="49.46508" lon="-1.56209">
        <ele>25.9</ele>
        <time>2019-04-23T12:08:53.000Z</time>
      </trkpt>
      <trkpt lat="49.46508" lon="-1.56207">
        <ele>25.8</ele>
        <time>2019-04-23T12:08:54.000Z</time>
      </trkpt>
      <trkpt lat="49.46508" lon="-1.56206">
        <ele>25.8</ele>
        <time>2019-04-23T12:08:55.000Z</time>
      </trkpt>
      <trkpt lat="49.46509" lon="-1.56204">
        <ele>25.7</ele>
        <time>2019-04-23T12:08:56.000Z</time>
      </trkpt>
      <trkpt lat="49.46509" lon="-1.56202">
        <ele>25.7</ele>
        <time>2019-04-23T12:08:57.000Z</time>
      </trkpt>
      <trkpt lat="49.46509" lon="-1.562">
        <ele>25.6</ele>
        <time>2019-04-23T12:08:58.000Z</time>
      </trkpt>
      <trkpt lat="49.46509" lon="-1.56199">
        <ele>25.6</ele>
        <time>2019-04-23T12:08:59.000Z</time>
      </trkpt>
      <trkpt lat="49.46509" lon="-1.56197">
        <ele>25.5</ele>
        <time>2019-04-23T12:09:00.000Z</time>
      </trkpt>
      <trkpt lat="49.46509" lon="-1.56195">
        <ele>25.5</ele>
        <time>2019-04-23T12:09:01.000Z</time>
      </trkpt>
      <trkpt lat="49.46509" lon="-1.56194">
        <ele>25.5</ele>
        <time>2019-04-23T12:09:02.000Z</time>
      </trkpt>
      <trkpt lat="49.4651" lon="-1.56192">
        <ele>25.4</ele>
        <time>2019-04-23T12:09:03.000Z</time>
      </trkpt>
      <trkpt lat="49.4651" lon="-1.5619">
        <ele>25.4</ele>
        <time>2019-04-23T12:09:04.000Z</time>
      </trkpt>
      <trkpt lat="49.4651" lon="-1.56188">
        <ele>25.3</ele>
        <time>2019-04-23T12:09:05.000Z</time>
      </trkpt>
      <trkpt lat="49.4651" lon="-1.56187">
        <ele>25.3</ele>
        <time>2019-04-23T12:09:06.000Z</time>
      </trkpt>
      <trkpt lat="49.4651" lon="-1.56185">
        <ele>25.2</ele>
        <time>2019-04-23T12:09:07.000Z</time>
      </trkpt>
      <trkpt lat="49.4651" lon="-1.56183">
        <ele>25.2</ele>
        <time>2019-04-23T12:09:08.000Z</time>
      </trkpt>
      <trkpt lat="49.4651" lon="-1.56182">
        <ele>25.1</ele>
        <time>2019-04-23T12:09:09.000Z</time>
      </trkpt>
      <trkpt lat="49.4651" lon="-1.5618">
        <ele>25.1</ele>
        <time>2019-04-23T12:09:10.000Z</time>
      </trkpt>
      <trkpt lat="49.4651" lon="-1.56178">
        <ele>25.1</ele>
        <time>2019-04-23T12:09:11.000Z</time>
      </trkpt>
      <trkpt lat="49.4651" lon="-1.56176">
        <ele>25</ele>
        <time>2019-04-23T12:09:12.000Z</time>
      </trkpt>
      <trkpt lat="49.4651" lon="-1.56175">
        <ele>25</ele>
        <time>2019-04-23T12:09:13.000Z</time>
      </trkpt>
      <trkpt lat="49.4651" lon="-1.56173">
        <ele>24.9</ele>
        <time>2019-04-23T12:09:14.000Z</time>
      </trkpt>
      <trkpt lat="49.46511" lon="-1.56171">
        <ele>24.9</ele>
        <time>2019-04-23T12:09:15.000Z</time>
      </trkpt>
      <trkpt lat="49.46511" lon="-1.5617">
        <ele>24.8</ele>
        <time>2019-04-23T12:09:16.000Z</time>
      </trkpt>
      <trkpt lat="49.46511" lon="-1.56168">
        <ele>24.8</ele>
        <time>2019-04-23T12:09:17.000Z</time>
      </trkpt>
      <trkpt lat="49.46511" lon="-1.56166">
        <ele>24.7</ele>
        <time>2019-04-23T12:09:18.000Z</time>
      </trkpt>
      <trkpt lat="49.46511" lon="-1.56165">
        <ele>24.7</ele>
        <time>2019-04-23T12:09:19.000Z</time>
      </trkpt>
      <trkpt lat="49.46511" lon="-1.56163">
        <ele>24.6</ele>
        <time>2019-04-23T12:09:20.000Z</time>
      </trkpt>
      <trkpt lat="49.46512" lon="-1.56161">
        <ele>24.5</ele>
        <time>2019-04-23T12:09:21.000Z</time>
      </trkpt>
      <trkpt lat="49.46512" lon="-1.5616">
        <ele>24.5</ele>
        <time>2019-04-23T12:09:22.000Z</time>
      </trkpt>
      <trkpt lat="49.46512" lon="-1.56158">
        <ele>24.4</ele>
        <time>2019-04-23T12:09:23.000Z</time>
      </trkpt>
      <trkpt lat="49.46512" lon="-1.56156">
        <ele>24.3</ele>
        <time>2019-04-23T12:09:24.000Z</time>
      </trkpt>
      <trkpt lat="49.46512" lon="-1.56154">
        <ele>24.2</ele>
        <time>2019-04-23T12:09:25.000Z</time>
      </trkpt>
      <trkpt lat="49.46513" lon="-1.56153">
        <ele>24.2</ele>
        <time>2019-04-23T12:09:26.000Z</time>
      </trkpt>
      <trkpt lat="49.46513" lon="-1.56151">
        <ele>24.1</ele>
        <time>2019-04-23T12:09:27.000Z</time>
      </trkpt>
      <trkpt lat="49.46513" lon="-1.56149">
        <ele>24</ele>
        <time>2019-04-23T12:09:28.000Z</time>
      </trkpt>
      <trkpt lat="49.46513" lon="-1.56147">
        <ele>23.9</ele>
        <time>2019-04-23T12:09:29.000Z</time>
      </trkpt>
      <trkpt lat="49.46513" lon="-1.56145">
        <ele>23.9</ele>
        <time>2019-04-23T12:09:30.000Z</time>
      </trkpt>
      <trkpt lat="49.46513" lon="-1.56144">
        <ele>23.8</ele>
        <time>2019-04-23T12:09:31.000Z</time>
      </trkpt>
      <trkpt lat="49.46513" lon="-1.56142">
        <ele>23.7</ele>
        <time>2019-04-23T12:09:32.000Z</time>
      </trkpt>
      <trkpt lat="49.46513" lon="-1.5614">
        <ele>23.7</ele>
        <time>2019-04-23T12:09:33.000Z</time>
      </trkpt>
      <trkpt lat="49.46513" lon="-1.56138">
        <ele>23.6</ele>
        <time>2019-04-23T12:09:34.000Z</time>
      </trkpt>
      <trkpt lat="49.46514" lon="-1.56136">
        <ele>23.5</ele>
        <time>2019-04-23T12:09:35.000Z</time>
      </trkpt>
      <trkpt lat="49.46514" lon="-1.56134">
        <ele>23.4</ele>
        <time>2019-04-23T12:09:36.000Z</time>
      </trkpt>
      <trkpt lat="49.46514" lon="-1.56132">
        <ele>23.4</ele>
        <time>2019-04-23T12:09:37.000Z</time>
      </trkpt>
      <trkpt lat="49.46514" lon="-1.5613">
        <ele>23.3</ele>
        <time>2019-04-23T12:09:38.000Z</time>
      </trkpt>
      <trkpt lat="49.46514" lon="-1.56129">
        <ele>23.2</ele>
        <time>2019-04-23T12:09:39.000Z</time>
      </trkpt>
      <trkpt lat="49.46514" lon="-1.56127">
        <ele>23.1</ele>
        <time>2019-04-23T12:09:40.000Z</time>
      </trkpt>
      <trkpt lat="49.46514" lon="-1.56125">
        <ele>23.1</ele>
        <time>2019-04-23T12:09:41.000Z</time>
      </trkpt>
      <trkpt lat="49.46514" lon="-1.56123">
        <ele>23</ele>
        <time>2019-04-23T12:09:42.000Z</time>
      </trkpt>
      <trkpt lat="49.46515" lon="-1.56121">
        <ele>22.9</ele>
        <time>2019-04-23T12:09:43.000Z</time>
      </trkpt>
      <trkpt lat="49.46515" lon="-1.56119">
        <ele>22.8</ele>
        <time>2019-04-23T12:09:44.000Z</time>
      </trkpt>
      <trkpt lat="49.46515" lon="-1.56118">
        <ele>22.8</ele>
        <time>2019-04-23T12:09:45.000Z</time>
      </trkpt>
      <trkpt lat="49.46515" lon="-1.56116">
        <ele>22.7</ele>
        <time>2019-04-23T12:09:46.000Z</time>
      </trkpt>
      <trkpt lat="49.46515" lon="-1.56114">
        <ele>22.6</ele>
        <time>2019-04-23T12:09:47.000Z</time>
      </trkpt>
      <trkpt lat="49.46515" lon="-1.56112">
        <ele>22.5</ele>
        <time>2019-04-23T12:09:48.000Z</time>
      </trkpt>
      <trkpt lat="49.46515" lon="-1.5611">
        <ele>22.5</ele>
        <time>2019-04-23T12:09:49.000Z</time>
      </trkpt>
      <trkpt lat="49.46516" lon="-1.56109">
        <ele>22.4</ele>
        <time>2019-04-23T12:09:50.000Z</time>
      </trkpt>
      <trkpt lat="49.46516" lon="-1.56107">
        <ele>22.3</ele>
        <time>2019-04-23T12:09:51.000Z</time>
      </trkpt>
      <trkpt lat="49.46516" lon="-1.56105">
        <ele>22.3</ele>
        <time>2019-04-23T12:09:52.000Z</time>
      </trkpt>
      <trkpt lat="49.46516" lon="-1.56103">
        <ele>22.2</ele>
        <time>2019-04-23T12:09:53.000Z</time>
      </trkpt>
      <trkpt lat="49.46516" lon="-1.56102">
        <ele>22.1</ele>
        <time>2019-04-23T12:09:54.000Z</time>
      </trkpt>
      <trkpt lat="49.46516" lon="-1.561">
        <ele>22.1</ele>
        <time>2019-04-23T12:09:55.000Z</time>
      </trkpt>
      <trkpt lat="49.46516" lon="-1.56098">
        <ele>22</ele>
        <time>2019-04-23T12:09:56.000Z</time>
      </trkpt>
      <trkpt lat="49.46516" lon="-1.56097">
        <ele>21.9</ele>
        <time>2019-04-23T12:09:57.000Z</time>
      </trkpt>
      <trkpt lat="49.46517" lon="-1.56095">
        <ele>21.8</ele>
        <time>2019-04-23T12:09:58.000Z</time>
      </trkpt>
      <trkpt lat="49.46517" lon="-1.56093">
        <ele>21.8</ele>
        <time>2019-04-23T12:09:59.000Z</time>
      </trkpt>
      <trkpt lat="49.46517" lon="-1.56091">
        <ele>21.7</ele>
        <time>2019-04-23T12:10:00.000Z</time>
      </trkpt>
      <trkpt lat="49.46517" lon="-1.5609">
        <ele>21.6</ele>
        <time>2019-04-23T12:10:01.000Z</time>
      </trkpt>
      <trkpt lat="49.46517" lon="-1.56088">
        <ele>21.6</ele>
        <time>2019-04-23T12:10:02.000Z</time>
      </trkpt>
      <trkpt lat="49.46517" lon="-1.56086">
        <ele>21.5</ele>
        <time>2019-04-23T12:10:03.000Z</time>
      </trkpt>
      <trkpt lat="49.46517" lon="-1.56085">
        <ele>21.4</ele>
        <time>2019-04-23T12:10:04.000Z</time>
      </trkpt>
      <trkpt lat="49.46517" lon="-1.56083">
        <ele>21.4</ele>
        <time>2019-04-23T12:10:05.000Z</time>
      </trkpt>
      <trkpt lat="49.46517" lon="-1.56081">
        <ele>21.3</ele>
        <time>2019-04-23T12:10:06.000Z</time>
      </trkpt>
      <trkpt lat="49.46517" lon="-1.5608">
        <ele>21.2</ele>
        <time>2019-04-23T12:10:07.000Z</time>
      </trkpt>
      <trkpt lat="49.46517" lon="-1.56078">
        <ele>21.1</ele>
        <time>2019-04-23T12:10:08.000Z</time>
      </trkpt>
      <trkpt lat="49.46517" lon="-1.56076">
        <ele>21.1</ele>
        <time>2019-04-23T12:10:09.000Z</time>
      </trkpt>
      <trkpt lat="49.46517" lon="-1.56074">
        <ele>21</ele>
        <time>2019-04-23T12:10:10.000Z</time>
      </trkpt>
      <trkpt lat="49.46517" lon="-1.56073">
        <ele>20.9</ele>
        <time>2019-04-23T12:10:11.000Z</time>
      </trkpt>
      <trkpt lat="49.46517" lon="-1.56071">
        <ele>20.8</ele>
        <time>2019-04-23T12:10:12.000Z</time>
      </trkpt>
      <trkpt lat="49.46517" lon="-1.56069">
        <ele>20.7</ele>
        <time>2019-04-23T12:10:13.000Z</time>
      </trkpt>
      <trkpt lat="49.46517" lon="-1.56067">
        <ele>20.7</ele>
        <time>2019-04-23T12:10:14.000Z</time>
      </trkpt>
      <trkpt lat="49.46517" lon="-1.56066">
        <ele>20.6</ele>
        <time>2019-04-23T12:10:15.000Z</time>
      </trkpt>
      <trkpt lat="49.46517" lon="-1.56064">
        <ele>20.5</ele>
        <time>2019-04-23T12:10:16.000Z</time>
      </trkpt>
      <trkpt lat="49.46517" lon="-1.56062">
        <ele>20.4</ele>
        <time>2019-04-23T12:10:17.000Z</time>
      </trkpt>
      <trkpt lat="49.46517" lon="-1.5606">
        <ele>20.3</ele>
        <time>2019-04-23T12:10:18.000Z</time>
      </trkpt>
      <trkpt lat="49.46517" lon="-1.56058">
        <ele>20.3</ele>
        <time>2019-04-23T12:10:19.000Z</time>
      </trkpt>
      <trkpt lat="49.46516" lon="-1.56057">
        <ele>20.2</ele>
        <time>2019-04-23T12:10:20.000Z</time>
      </trkpt>
      <trkpt lat="49.46516" lon="-1.56055">
        <ele>20.1</ele>
        <time>2019-04-23T12:10:21.000Z</time>
      </trkpt>
      <trkpt lat="49.46516" lon="-1.56053">
        <ele>20</ele>
        <time>2019-04-23T12:10:22.000Z</time>
      </trkpt>
      <trkpt lat="49.46516" lon="-1.56051">
        <ele>20</ele>
        <time>2019-04-23T12:10:23.000Z</time>
      </trkpt>
      <trkpt lat="49.46516" lon="-1.5605">
        <ele>19.9</ele>
        <time>2019-04-23T12:10:24.000Z</time>
      </trkpt>
      <trkpt lat="49.46516" lon="-1.56048">
        <ele>19.8</ele>
        <time>2019-04-23T12:10:25.000Z</time>
      </trkpt>
      <trkpt lat="49.46516" lon="-1.56046">
        <ele>19.7</ele>
        <time>2019-04-23T12:10:26.000Z</time>
      </trkpt>
      <trkpt lat="49.46516" lon="-1.56044">
        <ele>19.6</ele>
        <time>2019-04-23T12:10:27.000Z</time>
      </trkpt>
      <trkpt lat="49.46516" lon="-1.56043">
        <ele>19.6</ele>
        <time>2019-04-23T12:10:28.000Z</time>
      </trkpt>
      <trkpt lat="49.46516" lon="-1.56041">
        <ele>19.5</ele>
        <time>2019-04-23T12:10:29.000Z</time>
      </trkpt>
      <trkpt lat="49.46516" lon="-1.56039">
        <ele>19.4</ele>
        <time>2019-04-23T12:10:30.000Z</time>
      </trkpt>
      <trkpt lat="49.46516" lon="-1.56037">
        <ele>19.3</ele>
        <time>2019-04-23T12:10:31.000Z</time>
      </trkpt>
      <trkpt lat="49.46517" lon="-1.56036">
        <ele>19.2</ele>
        <time>2019-04-23T12:10:32.000Z</time>
      </trkpt>
      <trkpt lat="49.46517" lon="-1.56034">
        <ele>19.1</ele>
        <time>2019-04-23T12:10:33.000Z</time>
      </trkpt>
      <trkpt lat="49.46517" lon="-1.56032">
        <ele>19.1</ele>
        <time>2019-04-23T12:10:34.000Z</time>
      </trkpt>
      <trkpt lat="49.46517" lon="-1.5603">
        <ele>19</ele>
        <time>2019-04-23T12:10:35.000Z</time>
      </trkpt>
      <trkpt lat="49.46517" lon="-1.56029">
        <ele>18.9</ele>
        <time>2019-04-23T12:10:36.000Z</time>
      </trkpt>
      <trkpt lat="49.46518" lon="-1.56027">
        <ele>18.8</ele>
        <time>2019-04-23T12:10:37.000Z</time>
      </trkpt>
      <trkpt lat="49.46518" lon="-1.56026">
        <ele>18.7</ele>
        <time>2019-04-23T12:10:38.000Z</time>
      </trkpt>
      <trkpt lat="49.46519" lon="-1.56024">
        <ele>18.7</ele>
        <time>2019-04-23T12:10:39.000Z</time>
      </trkpt>
      <trkpt lat="49.46519" lon="-1.56023">
        <ele>18.6</ele>
        <time>2019-04-23T12:10:40.000Z</time>
      </trkpt>
      <trkpt lat="49.4652" lon="-1.56022">
        <ele>18.5</ele>
        <time>2019-04-23T12:10:41.000Z</time>
      </trkpt>
      <trkpt lat="49.46521" lon="-1.56022">
        <ele>18.5</ele>
        <time>2019-04-23T12:10:42.000Z</time>
      </trkpt>
      <trkpt lat="49.46522" lon="-1.56022">
        <ele>18.4</ele>
        <time>2019-04-23T12:10:43.000Z</time>
      </trkpt>
      <trkpt lat="49.46523" lon="-1.56022">
        <ele>18.4</ele>
        <time>2019-04-23T12:10:44.000Z</time>
      </trkpt>
      <trkpt lat="49.46524" lon="-1.56022">
        <ele>18.4</ele>
        <time>2019-04-23T12:10:45.000Z</time>
      </trkpt>
      <trkpt lat="49.46526" lon="-1.56022">
        <ele>18.4</ele>
        <time>2019-04-23T12:10:46.000Z</time>
      </trkpt>
      <trkpt lat="49.46527" lon="-1.56022">
        <ele>18.3</ele>
        <time>2019-04-23T12:10:47.000Z</time>
      </trkpt>
      <trkpt lat="49.46529" lon="-1.56023">
        <ele>18.3</ele>
        <time>2019-04-23T12:10:48.000Z</time>
      </trkpt>
      <trkpt lat="49.4653" lon="-1.56023">
        <ele>18.3</ele>
        <time>2019-04-23T12:10:49.000Z</time>
      </trkpt>
      <trkpt lat="49.46531" lon="-1.56023">
        <ele>18.3</ele>
        <time>2019-04-23T12:10:50.000Z</time>
      </trkpt>
      <trkpt lat="49.46532" lon="-1.56023">
        <ele>18.2</ele>
        <time>2019-04-23T12:10:51.000Z</time>
      </trkpt>
      <trkpt lat="49.46534" lon="-1.56023">
        <ele>18.2</ele>
        <time>2019-04-23T12:10:52.000Z</time>
      </trkpt>
      <trkpt lat="49.46535" lon="-1.56023">
        <ele>18.2</ele>
        <time>2019-04-23T12:10:53.000Z</time>
      </trkpt>
      <trkpt lat="49.46536" lon="-1.56023">
        <ele>18.1</ele>
        <time>2019-04-23T12:10:54.000Z</time>
      </trkpt>
      <trkpt lat="49.46537" lon="-1.56023">
        <ele>18.1</ele>
        <time>2019-04-23T12:10:55.000Z</time>
      </trkpt>
      <trkpt lat="49.46538" lon="-1.56023">
        <ele>18.1</ele>
        <time>2019-04-23T12:10:56.000Z</time>
      </trkpt>
      <trkpt lat="49.46539" lon="-1.56023">
        <ele>18</ele>
        <time>2019-04-23T12:10:57.000Z</time>
      </trkpt>
      <trkpt lat="49.4654" lon="-1.56023">
        <ele>18</ele>
        <time>2019-04-23T12:10:58.000Z</time>
      </trkpt>
      <trkpt lat="49.46542" lon="-1.56023">
        <ele>18</ele>
        <time>2019-04-23T12:10:59.000Z</time>
      </trkpt>
      <trkpt lat="49.46543" lon="-1.56023">
        <ele>17.9</ele>
        <time>2019-04-23T12:11:00.000Z</time>
      </trkpt>
      <trkpt lat="49.46544" lon="-1.56023">
        <ele>17.9</ele>
        <time>2019-04-23T12:11:01.000Z</time>
      </trkpt>
      <trkpt lat="49.46545" lon="-1.56023">
        <ele>17.9</ele>
        <time>2019-04-23T12:11:02.000Z</time>
      </trkpt>
      <trkpt lat="49.46546" lon="-1.56023">
        <ele>17.9</ele>
        <time>2019-04-23T12:11:03.000Z</time>
      </trkpt>
      <trkpt lat="49.46547" lon="-1.56024">
        <ele>17.8</ele>
        <time>2019-04-23T12:11:04.000Z</time>
      </trkpt>
      <trkpt lat="49.46549" lon="-1.56024">
        <ele>17.8</ele>
        <time>2019-04-23T12:11:05.000Z</time>
      </trkpt>
      <trkpt lat="49.4655" lon="-1.56024">
        <ele>17.8</ele>
        <time>2019-04-23T12:11:06.000Z</time>
      </trkpt>
      <trkpt lat="49.46551" lon="-1.56024">
        <ele>17.8</ele>
        <time>2019-04-23T12:11:07.000Z</time>
      </trkpt>
      <trkpt lat="49.46552" lon="-1.56025">
        <ele>17.7</ele>
        <time>2019-04-23T12:11:08.000Z</time>
      </trkpt>
      <trkpt lat="49.46553" lon="-1.56025">
        <ele>17.7</ele>
        <time>2019-04-23T12:11:09.000Z</time>
      </trkpt>
      <trkpt lat="49.46555" lon="-1.56025">
        <ele>17.7</ele>
        <time>2019-04-23T12:11:10.000Z</time>
      </trkpt>
      <trkpt lat="49.46556" lon="-1.56026">
        <ele>17.7</ele>
        <time>2019-04-23T12:11:11.000Z</time>
      </trkpt>
      <trkpt lat="49.46557" lon="-1.56026">
        <ele>17.7</ele>
        <time>2019-04-23T12:11:12.000Z</time>
      </trkpt>
      <trkpt lat="49.46558" lon="-1.56026">
        <ele>17.6</ele>
        <time>2019-04-23T12:11:13.000Z</time>
      </trkpt>
      <trkpt lat="49.4656" lon="-1.56027">
        <ele>17.6</ele>
        <time>2019-04-23T12:11:14.000Z</time>
      </trkpt>
      <trkpt lat="49.46561" lon="-1.56027">
        <ele>17.6</ele>
        <time>2019-04-23T12:11:15.000Z</time>
      </trkpt>
      <trkpt lat="49.46562" lon="-1.56027">
        <ele>17.6</ele>
        <time>2019-04-23T12:11:16.000Z</time>
      </trkpt>
      <trkpt lat="49.46564" lon="-1.56027">
        <ele>17.5</ele>
        <time>2019-04-23T12:11:17.000Z</time>
      </trkpt>
      <trkpt lat="49.46565" lon="-1.56027">
        <ele>17.5</ele>
        <time>2019-04-23T12:11:18.000Z</time>
      </trkpt>
      <trkpt lat="49.46566" lon="-1.56027">
        <ele>17.5</ele>
        <time>2019-04-23T12:11:19.000Z</time>
      </trkpt>
      <trkpt lat="49.46567" lon="-1.56028">
        <ele>17.4</ele>
        <time>2019-04-23T12:11:20.000Z</time>
      </trkpt>
      <trkpt lat="49.46569" lon="-1.56028">
        <ele>17.4</ele>
        <time>2019-04-23T12:11:21.000Z</time>
      </trkpt>
      <trkpt lat="49.4657" lon="-1.56028">
        <ele>17.4</ele>
        <time>2019-04-23T12:11:22.000Z</time>
      </trkpt>
      <trkpt lat="49.46571" lon="-1.56028">
        <ele>17.3</ele>
        <time>2019-04-23T12:11:23.000Z</time>
      </trkpt>
      <trkpt lat="49.46572" lon="-1.56028">
        <ele>17.3</ele>
        <time>2019-04-23T12:11:24.000Z</time>
      </trkpt>
      <trkpt lat="49.46574" lon="-1.56027">
        <ele>17.3</ele>
        <time>2019-04-23T12:11:25.000Z</time>
      </trkpt>
      <trkpt lat="49.46575" lon="-1.56027">
        <ele>17.2</ele>
        <time>2019-04-23T12:11:26.000Z</time>
      </trkpt>
      <trkpt lat="49.46576" lon="-1.56027">
        <ele>17.2</ele>
        <time>2019-04-23T12:11:27.000Z</time>
      </trkpt>
      <trkpt lat="49.46577" lon="-1.56027">
        <ele>17.1</ele>
        <time>2019-04-23T12:11:28.000Z</time>
      </trkpt>
      <trkpt lat="49.46579" lon="-1.56027">
        <ele>17.1</ele>
        <time>2019-04-23T12:11:29.000Z</time>
      </trkpt>
      <trkpt lat="49.4658" lon="-1.56027">
        <ele>17.1</ele>
        <time>2019-04-23T12:11:30.000Z</time>
      </trkpt>
      <trkpt lat="49.46581" lon="-1.56026">
        <ele>17</ele>
        <time>2019-04-23T12:11:31.000Z</time>
      </trkpt>
      <trkpt lat="49.46582" lon="-1.56026">
        <ele>17</ele>
        <time>2019-04-23T12:11:32.000Z</time>
      </trkpt>
      <trkpt lat="49.46584" lon="-1.56026">
        <ele>16.9</ele>
        <time>2019-04-23T12:11:33.000Z</time>
      </trkpt>
      <trkpt lat="49.46585" lon="-1.56026">
        <ele>17</ele>
        <time>2019-04-23T12:11:34.000Z</time>
      </trkpt>
      <trkpt lat="49.46586" lon="-1.56025">
        <ele>17</ele>
        <time>2019-04-23T12:11:35.000Z</time>
      </trkpt>
      <trkpt lat="49.46587" lon="-1.56025">
        <ele>17.1</ele>
        <time>2019-04-23T12:11:36.000Z</time>
      </trkpt>
      <trkpt lat="49.46589" lon="-1.56025">
        <ele>17.1</ele>
        <time>2019-04-23T12:11:37.000Z</time>
      </trkpt>
      <trkpt lat="49.4659" lon="-1.56024">
        <ele>17.1</ele>
        <time>2019-04-23T12:11:38.000Z</time>
      </trkpt>
      <trkpt lat="49.46591" lon="-1.56024">
        <ele>17.2</ele>
        <time>2019-04-23T12:11:39.000Z</time>
      </trkpt>
      <trkpt lat="49.46592" lon="-1.56024">
        <ele>17.2</ele>
        <time>2019-04-23T12:11:40.000Z</time>
      </trkpt>
      <trkpt lat="49.46594" lon="-1.56023">
        <ele>17.2</ele>
        <time>2019-04-23T12:11:41.000Z</time>
      </trkpt>
      <trkpt lat="49.46595" lon="-1.56023">
        <ele>17.3</ele>
        <time>2019-04-23T12:11:42.000Z</time>
      </trkpt>
      <trkpt lat="49.46596" lon="-1.56022">
        <ele>17.3</ele>
        <time>2019-04-23T12:11:43.000Z</time>
      </trkpt>
      <trkpt lat="49.46597" lon="-1.56022">
        <ele>17.3</ele>
        <time>2019-04-23T12:11:44.000Z</time>
      </trkpt>
      <trkpt lat="49.46598" lon="-1.56022">
        <ele>17.4</ele>
        <time>2019-04-23T12:11:45.000Z</time>
      </trkpt>
      <trkpt lat="49.466" lon="-1.56021">
        <ele>17.4</ele>
        <time>2019-04-23T12:11:46.000Z</time>
      </trkpt>
      <trkpt lat="49.46601" lon="-1.56021">
        <ele>17.4</ele>
        <time>2019-04-23T12:11:47.000Z</time>
      </trkpt>
      <trkpt lat="49.46602" lon="-1.5602">
        <ele>17.5</ele>
        <time>2019-04-23T12:11:48.000Z</time>
      </trkpt>
      <trkpt lat="49.46603" lon="-1.5602">
        <ele>17.5</ele>
        <time>2019-04-23T12:11:49.000Z</time>
      </trkpt>
      <trkpt lat="49.46604" lon="-1.5602">
        <ele>17.5</ele>
        <time>2019-04-23T12:11:50.000Z</time>
      </trkpt>
      <trkpt lat="49.46606" lon="-1.56019">
        <ele>17.6</ele>
        <time>2019-04-23T12:11:51.000Z</time>
      </trkpt>
      <trkpt lat="49.46607" lon="-1.56019">
        <ele>17.6</ele>
        <time>2019-04-23T12:11:52.000Z</time>
      </trkpt>
      <trkpt lat="49.46608" lon="-1.56018">
        <ele>17.6</ele>
        <time>2019-04-23T12:11:53.000Z</time>
      </trkpt>
      <trkpt lat="49.46609" lon="-1.56018">
        <ele>17.7</ele>
        <time>2019-04-23T12:11:54.000Z</time>
      </trkpt>
      <trkpt lat="49.4661" lon="-1.56017">
        <ele>17.7</ele>
        <time>2019-04-23T12:11:55.000Z</time>
      </trkpt>
      <trkpt lat="49.46611" lon="-1.56017">
        <ele>17.7</ele>
        <time>2019-04-23T12:11:56.000Z</time>
      </trkpt>
      <trkpt lat="49.46612" lon="-1.56017">
        <ele>17.8</ele>
        <time>2019-04-23T12:11:57.000Z</time>
      </trkpt>
      <trkpt lat="49.46614" lon="-1.56016">
        <ele>17.8</ele>
        <time>2019-04-23T12:11:58.000Z</time>
      </trkpt>
      <trkpt lat="49.46615" lon="-1.56016">
        <ele>17.9</ele>
        <time>2019-04-23T12:11:59.000Z</time>
      </trkpt>
      <trkpt lat="49.46616" lon="-1.56015">
        <ele>17.9</ele>
        <time>2019-04-23T12:12:00.000Z</time>
      </trkpt>
      <trkpt lat="49.46617" lon="-1.56015">
        <ele>17.9</ele>
        <time>2019-04-23T12:12:01.000Z</time>
      </trkpt>
      <trkpt lat="49.46618" lon="-1.56014">
        <ele>18</ele>
        <time>2019-04-23T12:12:02.000Z</time>
      </trkpt>
      <trkpt lat="49.46619" lon="-1.56014">
        <ele>18</ele>
        <time>2019-04-23T12:12:03.000Z</time>
      </trkpt>
      <trkpt lat="49.4662" lon="-1.56013">
        <ele>18</ele>
        <time>2019-04-23T12:12:04.000Z</time>
      </trkpt>
      <trkpt lat="49.46622" lon="-1.56012">
        <ele>18.1</ele>
        <time>2019-04-23T12:12:05.000Z</time>
      </trkpt>
      <trkpt lat="49.46623" lon="-1.56012">
        <ele>18.1</ele>
        <time>2019-04-23T12:12:06.000Z</time>
      </trkpt>
      <trkpt lat="49.46624" lon="-1.56011">
        <ele>18.1</ele>
        <time>2019-04-23T12:12:07.000Z</time>
      </trkpt>
      <trkpt lat="49.46625" lon="-1.56011">
        <ele>18.2</ele>
        <time>2019-04-23T12:12:08.000Z</time>
      </trkpt>
      <trkpt lat="49.46626" lon="-1.5601">
        <ele>18.2</ele>
        <time>2019-04-23T12:12:09.000Z</time>
      </trkpt>
      <trkpt lat="49.46627" lon="-1.56009">
        <ele>18.3</ele>
        <time>2019-04-23T12:12:10.000Z</time>
      </trkpt>
      <trkpt lat="49.46628" lon="-1.56009">
        <ele>18.3</ele>
        <time>2019-04-23T12:12:11.000Z</time>
      </trkpt>
      <trkpt lat="49.46629" lon="-1.56008">
        <ele>18.3</ele>
        <time>2019-04-23T12:12:12.000Z</time>
      </trkpt>
      <trkpt lat="49.4663" lon="-1.56007">
        <ele>18.4</ele>
        <time>2019-04-23T12:12:13.000Z</time>
      </trkpt>
      <trkpt lat="49.46632" lon="-1.56006">
        <ele>18.4</ele>
        <time>2019-04-23T12:12:14.000Z</time>
      </trkpt>
      <trkpt lat="49.46633" lon="-1.56005">
        <ele>18.4</ele>
        <time>2019-04-23T12:12:15.000Z</time>
      </trkpt>
      <trkpt lat="49.46634" lon="-1.56005">
        <ele>18.5</ele>
        <time>2019-04-23T12:12:16.000Z</time>
      </trkpt>
      <trkpt lat="49.46635" lon="-1.56004">
        <ele>18.5</ele>
        <time>2019-04-23T12:12:17.000Z</time>
      </trkpt>
      <trkpt lat="49.46636" lon="-1.56003">
        <ele>18.6</ele>
        <time>2019-04-23T12:12:18.000Z</time>
      </trkpt>
      <trkpt lat="49.46637" lon="-1.56002">
        <ele>18.6</ele>
        <time>2019-04-23T12:12:19.000Z</time>
      </trkpt>
      <trkpt lat="49.46638" lon="-1.56001">
        <ele>18.6</ele>
        <time>2019-04-23T12:12:20.000Z</time>
      </trkpt>
      <trkpt lat="49.46639" lon="-1.56">
        <ele>18.7</ele>
        <time>2019-04-23T12:12:21.000Z</time>
      </trkpt>
      <trkpt lat="49.4664" lon="-1.56">
        <ele>18.7</ele>
        <time>2019-04-23T12:12:22.000Z</time>
      </trkpt>
      <trkpt lat="49.46642" lon="-1.55999">
        <ele>18.8</ele>
        <time>2019-04-23T12:12:23.000Z</time>
      </trkpt>
      <trkpt lat="49.46643" lon="-1.55998">
        <ele>18.8</ele>
        <time>2019-04-23T12:12:24.000Z</time>
      </trkpt>
      <trkpt lat="49.46644" lon="-1.55997">
        <ele>18.9</ele>
        <time>2019-04-23T12:12:25.000Z</time>
      </trkpt>
      <trkpt lat="49.46645" lon="-1.55996">
        <ele>18.9</ele>
        <time>2019-04-23T12:12:26.000Z</time>
      </trkpt>
      <trkpt lat="49.46646" lon="-1.55995">
        <ele>18.9</ele>
        <time>2019-04-23T12:12:27.000Z</time>
      </trkpt>
      <trkpt lat="49.46647" lon="-1.55995">
        <ele>19</ele>
        <time>2019-04-23T12:12:28.000Z</time>
      </trkpt>
      <trkpt lat="49.46648" lon="-1.55994">
        <ele>19</ele>
        <time>2019-04-23T12:12:29.000Z</time>
      </trkpt>
      <trkpt lat="49.46649" lon="-1.55993">
        <ele>19.1</ele>
        <time>2019-04-23T12:12:30.000Z</time>
      </trkpt>
      <trkpt lat="49.4665" lon="-1.55992">
        <ele>19.1</ele>
        <time>2019-04-23T12:12:31.000Z</time>
      </trkpt>
      <trkpt lat="49.46651" lon="-1.55991">
        <ele>19.2</ele>
        <time>2019-04-23T12:12:32.000Z</time>
      </trkpt>
      <trkpt lat="49.46652" lon="-1.5599">
        <ele>19.2</ele>
        <time>2019-04-23T12:12:33.000Z</time>
      </trkpt>
      <trkpt lat="49.46653" lon="-1.55989">
        <ele>19.2</ele>
        <time>2019-04-23T12:12:34.000Z</time>
      </trkpt>
      <trkpt lat="49.46654" lon="-1.55989">
        <ele>19.3</ele>
        <time>2019-04-23T12:12:35.000Z</time>
      </trkpt>
      <trkpt lat="49.46656" lon="-1.55988">
        <ele>19.3</ele>
        <time>2019-04-23T12:12:36.000Z</time>
      </trkpt>
      <trkpt lat="49.46657" lon="-1.55987">
        <ele>19.4</ele>
        <time>2019-04-23T12:12:37.000Z</time>
      </trkpt>
      <trkpt lat="49.46658" lon="-1.55986">
        <ele>19.4</ele>
        <time>2019-04-23T12:12:38.000Z</time>
      </trkpt>
      <trkpt lat="49.46659" lon="-1.55985">
        <ele>19.4</ele>
        <time>2019-04-23T12:12:39.000Z</time>
      </trkpt>
      <trkpt lat="49.4666" lon="-1.55984">
        <ele>19.5</ele>
        <time>2019-04-23T12:12:40.000Z</time>
      </trkpt>
      <trkpt lat="49.46661" lon="-1.55984">
        <ele>19.5</ele>
        <time>2019-04-23T12:12:41.000Z</time>
      </trkpt>
      <trkpt lat="49.46662" lon="-1.55983">
        <ele>19.6</ele>
        <time>2019-04-23T12:12:42.000Z</time>
      </trkpt>
      <trkpt lat="49.46663" lon="-1.55982">
        <ele>19.6</ele>
        <time>2019-04-23T12:12:43.000Z</time>
      </trkpt>
      <trkpt lat="49.46664" lon="-1.55981">
        <ele>19.7</ele>
        <time>2019-04-23T12:12:44.000Z</time>
      </trkpt>
      <trkpt lat="49.46665" lon="-1.5598">
        <ele>19.7</ele>
        <time>2019-04-23T12:12:45.000Z</time>
      </trkpt>
      <trkpt lat="49.46667" lon="-1.55979">
        <ele>19.7</ele>
        <time>2019-04-23T12:12:46.000Z</time>
      </trkpt>
      <trkpt lat="49.46668" lon="-1.55978">
        <ele>19.8</ele>
        <time>2019-04-23T12:12:47.000Z</time>
      </trkpt>
      <trkpt lat="49.46669" lon="-1.55977">
        <ele>19.8</ele>
        <time>2019-04-23T12:12:48.000Z</time>
      </trkpt>
      <trkpt lat="49.4667" lon="-1.55977">
        <ele>19.8</ele>
        <time>2019-04-23T12:12:49.000Z</time>
      </trkpt>
      <trkpt lat="49.46671" lon="-1.55976">
        <ele>19.8</ele>
        <time>2019-04-23T12:12:50.000Z</time>
      </trkpt>
      <trkpt lat="49.46672" lon="-1.55975">
        <ele>19.9</ele>
        <time>2019-04-23T12:12:51.000Z</time>
      </trkpt>
      <trkpt lat="49.46673" lon="-1.55974">
        <ele>19.9</ele>
        <time>2019-04-23T12:12:52.000Z</time>
      </trkpt>
      <trkpt lat="49.46674" lon="-1.55973">
        <ele>19.9</ele>
        <time>2019-04-23T12:12:53.000Z</time>
      </trkpt>
      <trkpt lat="49.46675" lon="-1.55972">
        <ele>19.9</ele>
        <time>2019-04-23T12:12:54.000Z</time>
      </trkpt>
      <trkpt lat="49.46677" lon="-1.55971">
        <ele>20</ele>
        <time>2019-04-23T12:12:55.000Z</time>
      </trkpt>
      <trkpt lat="49.46678" lon="-1.5597">
        <ele>20</ele>
        <time>2019-04-23T12:12:56.000Z</time>
      </trkpt>
      <trkpt lat="49.46679" lon="-1.5597">
        <ele>20</ele>
        <time>2019-04-23T12:12:57.000Z</time>
      </trkpt>
      <trkpt lat="49.4668" lon="-1.55969">
        <ele>20</ele>
        <time>2019-04-23T12:12:58.000Z</time>
      </trkpt>
      <trkpt lat="49.46681" lon="-1.55968">
        <ele>20.1</ele>
        <time>2019-04-23T12:12:59.000Z</time>
      </trkpt>
      <trkpt lat="49.46682" lon="-1.55967">
        <ele>20.1</ele>
        <time>2019-04-23T12:13:00.000Z</time>
      </trkpt>
      <trkpt lat="49.46683" lon="-1.55966">
        <ele>20.1</ele>
        <time>2019-04-23T12:13:01.000Z</time>
      </trkpt>
      <trkpt lat="49.46684" lon="-1.55966">
        <ele>20.1</ele>
        <time>2019-04-23T12:13:02.000Z</time>
      </trkpt>
      <trkpt lat="49.46685" lon="-1.55965">
        <ele>20.1</ele>
        <time>2019-04-23T12:13:03.000Z</time>
      </trkpt>
      <trkpt lat="49.46686" lon="-1.55964">
        <ele>20.2</ele>
        <time>2019-04-23T12:13:04.000Z</time>
      </trkpt>
      <trkpt lat="49.46687" lon="-1.55963">
        <ele>20.2</ele>
        <time>2019-04-23T12:13:05.000Z</time>
      </trkpt>
      <trkpt lat="49.46688" lon="-1.55963">
        <ele>20.2</ele>
        <time>2019-04-23T12:13:06.000Z</time>
      </trkpt>
      <trkpt lat="49.46689" lon="-1.55962">
        <ele>20.2</ele>
        <time>2019-04-23T12:13:07.000Z</time>
      </trkpt>
      <trkpt lat="49.4669" lon="-1.55962">
        <ele>20.2</ele>
        <time>2019-04-23T12:13:08.000Z</time>
      </trkpt>
      <trkpt lat="49.46691" lon="-1.55962">
        <ele>20.3</ele>
        <time>2019-04-23T12:13:09.000Z</time>
      </trkpt>
      <trkpt lat="49.46692" lon="-1.55961">
        <ele>20.3</ele>
        <time>2019-04-23T12:13:10.000Z</time>
      </trkpt>
      <trkpt lat="49.46693" lon="-1.55961">
        <ele>20.3</ele>
        <time>2019-04-23T12:13:11.000Z</time>
      </trkpt>
      <trkpt lat="49.46694" lon="-1.55961">
        <ele>20.4</ele>
        <time>2019-04-23T12:13:12.000Z</time>
      </trkpt>
      <trkpt lat="49.46696" lon="-1.55961">
        <ele>20.4</ele>
        <time>2019-04-23T12:13:13.000Z</time>
      </trkpt>
      <trkpt lat="49.46697" lon="-1.55961">
        <ele>20.4</ele>
        <time>2019-04-23T12:13:14.000Z</time>
      </trkpt>
      <trkpt lat="49.46698" lon="-1.55962">
        <ele>20.5</ele>
        <time>2019-04-23T12:13:15.000Z</time>
      </trkpt>
      <trkpt lat="49.46699" lon="-1.55962">
        <ele>20.5</ele>
        <time>2019-04-23T12:13:16.000Z</time>
      </trkpt>
      <trkpt lat="49.467" lon="-1.55962">
        <ele>20.6</ele>
        <time>2019-04-23T12:13:17.000Z</time>
      </trkpt>
      <trkpt lat="49.46702" lon="-1.55963">
        <ele>20.6</ele>
        <time>2019-04-23T12:13:18.000Z</time>
      </trkpt>
      <trkpt lat="49.46703" lon="-1.55963">
        <ele>20.7</ele>
        <time>2019-04-23T12:13:19.000Z</time>
      </trkpt>
      <trkpt lat="49.46704" lon="-1.55964">
        <ele>20.7</ele>
        <time>2019-04-23T12:13:20.000Z</time>
      </trkpt>
      <trkpt lat="49.46705" lon="-1.55965">
        <ele>20.8</ele>
        <time>2019-04-23T12:13:21.000Z</time>
      </trkpt>
      <trkpt lat="49.46706" lon="-1.55965">
        <ele>20.8</ele>
        <time>2019-04-23T12:13:22.000Z</time>
      </trkpt>
      <trkpt lat="49.46708" lon="-1.55966">
        <ele>20.9</ele>
        <time>2019-04-23T12:13:23.000Z</time>
      </trkpt>
      <trkpt lat="49.46709" lon="-1.55967">
        <ele>20.9</ele>
        <time>2019-04-23T12:13:24.000Z</time>
      </trkpt>
      <trkpt lat="49.4671" lon="-1.55968">
        <ele>21</ele>
        <time>2019-04-23T12:13:25.000Z</time>
      </trkpt>
      <trkpt lat="49.46711" lon="-1.55969">
        <ele>21</ele>
        <time>2019-04-23T12:13:26.000Z</time>
      </trkpt>
      <trkpt lat="49.46712" lon="-1.5597">
        <ele>21.1</ele>
        <time>2019-04-23T12:13:27.000Z</time>
      </trkpt>
      <trkpt lat="49.46713" lon="-1.55971">
        <ele>21.1</ele>
        <time>2019-04-23T12:13:28.000Z</time>
      </trkpt>
      <trkpt lat="49.46714" lon="-1.55972">
        <ele>21.2</ele>
        <time>2019-04-23T12:13:29.000Z</time>
      </trkpt>
      <trkpt lat="49.46715" lon="-1.55973">
        <ele>21.2</ele>
        <time>2019-04-23T12:13:30.000Z</time>
      </trkpt>
      <trkpt lat="49.46716" lon="-1.55974">
        <ele>21.3</ele>
        <time>2019-04-23T12:13:31.000Z</time>
      </trkpt>
      <trkpt lat="49.46717" lon="-1.55975">
        <ele>21.3</ele>
        <time>2019-04-23T12:13:32.000Z</time>
      </trkpt>
      <trkpt lat="49.46719" lon="-1.55976">
        <ele>21.4</ele>
        <time>2019-04-23T12:13:33.000Z</time>
      </trkpt>
      <trkpt lat="49.4672" lon="-1.55977">
        <ele>21.4</ele>
        <time>2019-04-23T12:13:34.000Z</time>
      </trkpt>
      <trkpt lat="49.46721" lon="-1.55978">
        <ele>21.5</ele>
        <time>2019-04-23T12:13:35.000Z</time>
      </trkpt>
      <trkpt lat="49.46722" lon="-1.55979">
        <ele>21.5</ele>
        <time>2019-04-23T12:13:36.000Z</time>
      </trkpt>
      <trkpt lat="49.46723" lon="-1.5598">
        <ele>21.6</ele>
        <time>2019-04-23T12:13:37.000Z</time>
      </trkpt>
      <trkpt lat="49.46724" lon="-1.55981">
        <ele>21.7</ele>
        <time>2019-04-23T12:13:38.000Z</time>
      </trkpt>
      <trkpt lat="49.46724" lon="-1.55982">
        <ele>21.7</ele>
        <time>2019-04-23T12:13:39.000Z</time>
      </trkpt>
      <trkpt lat="49.46725" lon="-1.55983">
        <ele>21.8</ele>
        <time>2019-04-23T12:13:40.000Z</time>
      </trkpt>
      <trkpt lat="49.46726" lon="-1.55984">
        <ele>21.8</ele>
        <time>2019-04-23T12:13:41.000Z</time>
      </trkpt>
      <trkpt lat="49.46727" lon="-1.55984">
        <ele>21.9</ele>
        <time>2019-04-23T12:13:42.000Z</time>
      </trkpt>
      <trkpt lat="49.46728" lon="-1.55985">
        <ele>21.9</ele>
        <time>2019-04-23T12:13:43.000Z</time>
      </trkpt>
      <trkpt lat="49.46729" lon="-1.55986">
        <ele>22</ele>
        <time>2019-04-23T12:13:44.000Z</time>
      </trkpt>
      <trkpt lat="49.4673" lon="-1.55987">
        <ele>22</ele>
        <time>2019-04-23T12:13:45.000Z</time>
      </trkpt>
      <trkpt lat="49.46731" lon="-1.55988">
        <ele>22.1</ele>
        <time>2019-04-23T12:13:46.000Z</time>
      </trkpt>
      <trkpt lat="49.46732" lon="-1.55989">
        <ele>22.1</ele>
        <time>2019-04-23T12:13:47.000Z</time>
      </trkpt>
      <trkpt lat="49.46733" lon="-1.5599">
        <ele>22.2</ele>
        <time>2019-04-23T12:13:48.000Z</time>
      </trkpt>
      <trkpt lat="49.46734" lon="-1.55991">
        <ele>22.2</ele>
        <time>2019-04-23T12:13:49.000Z</time>
      </trkpt>
      <trkpt lat="49.46735" lon="-1.55992">
        <ele>22.3</ele>
        <time>2019-04-23T12:13:50.000Z</time>
      </trkpt>
      <trkpt lat="49.46736" lon="-1.55993">
        <ele>22.3</ele>
        <time>2019-04-23T12:13:51.000Z</time>
      </trkpt>
      <trkpt lat="49.46737" lon="-1.55994">
        <ele>22.4</ele>
        <time>2019-04-23T12:13:52.000Z</time>
      </trkpt>
      <trkpt lat="49.46738" lon="-1.55994">
        <ele>22.4</ele>
        <time>2019-04-23T12:13:53.000Z</time>
      </trkpt>
      <trkpt lat="49.46739" lon="-1.55995">
        <ele>22.5</ele>
        <time>2019-04-23T12:13:54.000Z</time>
      </trkpt>
      <trkpt lat="49.46739" lon="-1.55996">
        <ele>22.5</ele>
        <time>2019-04-23T12:13:55.000Z</time>
      </trkpt>
      <trkpt lat="49.4674" lon="-1.55997">
        <ele>22.6</ele>
        <time>2019-04-23T12:13:56.000Z</time>
      </trkpt>
      <trkpt lat="49.46741" lon="-1.55998">
        <ele>22.6</ele>
        <time>2019-04-23T12:13:57.000Z</time>
      </trkpt>
      <trkpt lat="49.46742" lon="-1.55999">
        <ele>22.7</ele>
        <time>2019-04-23T12:13:58.000Z</time>
      </trkpt>
      <trkpt lat="49.46743" lon="-1.56">
        <ele>22.7</ele>
        <time>2019-04-23T12:13:59.000Z</time>
      </trkpt>
      <trkpt lat="49.46744" lon="-1.56">
        <ele>22.8</ele>
        <time>2019-04-23T12:14:00.000Z</time>
      </trkpt>
      <trkpt lat="49.46745" lon="-1.56001">
        <ele>22.9</ele>
        <time>2019-04-23T12:14:01.000Z</time>
      </trkpt>
      <trkpt lat="49.46746" lon="-1.56002">
        <ele>22.9</ele>
        <time>2019-04-23T12:14:02.000Z</time>
      </trkpt>
      <trkpt lat="49.46747" lon="-1.56003">
        <ele>23</ele>
        <time>2019-04-23T12:14:03.000Z</time>
      </trkpt>
      <trkpt lat="49.46748" lon="-1.56004">
        <ele>23.1</ele>
        <time>2019-04-23T12:14:04.000Z</time>
      </trkpt>
      <trkpt lat="49.46749" lon="-1.56005">
        <ele>23.1</ele>
        <time>2019-04-23T12:14:05.000Z</time>
      </trkpt>
      <trkpt lat="49.4675" lon="-1.56006">
        <ele>23.2</ele>
        <time>2019-04-23T12:14:06.000Z</time>
      </trkpt>
      <trkpt lat="49.46751" lon="-1.56007">
        <ele>23.3</ele>
        <time>2019-04-23T12:14:07.000Z</time>
      </trkpt>
      <trkpt lat="49.46752" lon="-1.56008">
        <ele>23.4</ele>
        <time>2019-04-23T12:14:08.000Z</time>
      </trkpt>
      <trkpt lat="49.46753" lon="-1.56009">
        <ele>23.4</ele>
        <time>2019-04-23T12:14:09.000Z</time>
      </trkpt>
      <trkpt lat="49.46754" lon="-1.56011">
        <ele>23.5</ele>
        <time>2019-04-23T12:14:10.000Z</time>
      </trkpt>
      <trkpt lat="49.46755" lon="-1.56012">
        <ele>23.6</ele>
        <time>2019-04-23T12:14:11.000Z</time>
      </trkpt>
      <trkpt lat="49.46755" lon="-1.56013">
        <ele>23.7</ele>
        <time>2019-04-23T12:14:12.000Z</time>
      </trkpt>
      <trkpt lat="49.46756" lon="-1.56014">
        <ele>23.7</ele>
        <time>2019-04-23T12:14:13.000Z</time>
      </trkpt>
      <trkpt lat="49.46757" lon="-1.56015">
        <ele>23.8</ele>
        <time>2019-04-23T12:14:14.000Z</time>
      </trkpt>
      <trkpt lat="49.46758" lon="-1.56017">
        <ele>23.9</ele>
        <time>2019-04-23T12:14:15.000Z</time>
      </trkpt>
      <trkpt lat="49.46759" lon="-1.56018">
        <ele>24</ele>
        <time>2019-04-23T12:14:16.000Z</time>
      </trkpt>
      <trkpt lat="49.4676" lon="-1.56019">
        <ele>24.1</ele>
        <time>2019-04-23T12:14:17.000Z</time>
      </trkpt>
      <trkpt lat="49.4676" lon="-1.56021">
        <ele>24.2</ele>
        <time>2019-04-23T12:14:18.000Z</time>
      </trkpt>
      <trkpt lat="49.46761" lon="-1.56022">
        <ele>24.2</ele>
        <time>2019-04-23T12:14:19.000Z</time>
      </trkpt>
      <trkpt lat="49.46762" lon="-1.56024">
        <ele>24.3</ele>
        <time>2019-04-23T12:14:20.000Z</time>
      </trkpt>
      <trkpt lat="49.46762" lon="-1.56025">
        <ele>24.4</ele>
        <time>2019-04-23T12:14:21.000Z</time>
      </trkpt>
      <trkpt lat="49.46763" lon="-1.56026">
        <ele>24.4</ele>
        <time>2019-04-23T12:14:22.000Z</time>
      </trkpt>
      <trkpt lat="49.46763" lon="-1.56028">
        <ele>24.5</ele>
        <time>2019-04-23T12:14:23.000Z</time>
      </trkpt>
      <trkpt lat="49.46763" lon="-1.56029">
        <ele>24.6</ele>
        <time>2019-04-23T12:14:24.000Z</time>
      </trkpt>
      <trkpt lat="49.46763" lon="-1.56031">
        <ele>24.6</ele>
        <time>2019-04-23T12:14:25.000Z</time>
      </trkpt>
      <trkpt lat="49.46764" lon="-1.56032">
        <ele>24.7</ele>
        <time>2019-04-23T12:14:26.000Z</time>
      </trkpt>
      <trkpt lat="49.46764" lon="-1.56034">
        <ele>24.8</ele>
        <time>2019-04-23T12:14:27.000Z</time>
      </trkpt>
      <trkpt lat="49.46763" lon="-1.56035">
        <ele>24.8</ele>
        <time>2019-04-23T12:14:28.000Z</time>
      </trkpt>
      <trkpt lat="49.46763" lon="-1.56037">
        <ele>24.9</ele>
        <time>2019-04-23T12:14:29.000Z</time>
      </trkpt>
      <trkpt lat="49.46763" lon="-1.56038">
        <ele>24.9</ele>
        <time>2019-04-23T12:14:30.000Z</time>
      </trkpt>
      <trkpt lat="49.46763" lon="-1.56039">
        <ele>24.9</ele>
        <time>2019-04-23T12:14:31.000Z</time>
      </trkpt>
      <trkpt lat="49.46762" lon="-1.56041">
        <ele>25</ele>
        <time>2019-04-23T12:14:32.000Z</time>
      </trkpt>
      <trkpt lat="49.46762" lon="-1.56042">
        <ele>25</ele>
        <time>2019-04-23T12:14:33.000Z</time>
      </trkpt>
      <trkpt lat="49.46762" lon="-1.56044">
        <ele>25.1</ele>
        <time>2019-04-23T12:14:34.000Z</time>
      </trkpt>
      <trkpt lat="49.46762" lon="-1.56045">
        <ele>25.1</ele>
        <time>2019-04-23T12:14:35.000Z</time>
      </trkpt>
      <trkpt lat="49.46762" lon="-1.56047">
        <ele>25.2</ele>
        <time>2019-04-23T12:14:36.000Z</time>
      </trkpt>
      <trkpt lat="49.46763" lon="-1.56048">
        <ele>25.3</ele>
        <time>2019-04-23T12:14:37.000Z</time>
      </trkpt>
      <trkpt lat="49.46763" lon="-1.56049">
        <ele>25.3</ele>
        <time>2019-04-23T12:14:38.000Z</time>
      </trkpt>
      <trkpt lat="49.46764" lon="-1.56051">
        <ele>25.4</ele>
        <time>2019-04-23T12:14:39.000Z</time>
      </trkpt>
      <trkpt lat="49.46764" lon="-1.56052">
        <ele>25.5</ele>
        <time>2019-04-23T12:14:40.000Z</time>
      </trkpt>
      <trkpt lat="49.46764" lon="-1.56054">
        <ele>25.6</ele>
        <time>2019-04-23T12:14:41.000Z</time>
      </trkpt>
      <trkpt lat="49.46764" lon="-1.56056">
        <ele>25.6</ele>
        <time>2019-04-23T12:14:42.000Z</time>
      </trkpt>
      <trkpt lat="49.46763" lon="-1.56058">
        <ele>25.7</ele>
        <time>2019-04-23T12:14:43.000Z</time>
      </trkpt>
      <trkpt lat="49.46763" lon="-1.5606">
        <ele>25.7</ele>
        <time>2019-04-23T12:14:44.000Z</time>
      </trkpt>
      <trkpt lat="49.46763" lon="-1.56062">
        <ele>25.8</ele>
        <time>2019-04-23T12:14:45.000Z</time>
      </trkpt>
      <trkpt lat="49.46762" lon="-1.56064">
        <ele>25.9</ele>
        <time>2019-04-23T12:14:46.000Z</time>
      </trkpt>
      <trkpt lat="49.46762" lon="-1.56066">
        <ele>25.9</ele>
        <time>2019-04-23T12:14:47.000Z</time>
      </trkpt>
      <trkpt lat="49.46762" lon="-1.56068">
        <ele>26</ele>
        <time>2019-04-23T12:14:48.000Z</time>
      </trkpt>
      <trkpt lat="49.46762" lon="-1.5607">
        <ele>26.1</ele>
        <time>2019-04-23T12:14:49.000Z</time>
      </trkpt>
      <trkpt lat="49.46762" lon="-1.56072">
        <ele>26.1</ele>
        <time>2019-04-23T12:14:50.000Z</time>
      </trkpt>
      <trkpt lat="49.46762" lon="-1.56073">
        <ele>26.2</ele>
        <time>2019-04-23T12:14:51.000Z</time>
      </trkpt>
      <trkpt lat="49.46762" lon="-1.56075">
        <ele>26.3</ele>
        <time>2019-04-23T12:14:52.000Z</time>
      </trkpt>
      <trkpt lat="49.46762" lon="-1.56077">
        <ele>26.3</ele>
        <time>2019-04-23T12:14:53.000Z</time>
      </trkpt>
      <trkpt lat="49.46762" lon="-1.56079">
        <ele>26.4</ele>
        <time>2019-04-23T12:14:54.000Z</time>
      </trkpt>
      <trkpt lat="49.46762" lon="-1.5608">
        <ele>26.5</ele>
        <time>2019-04-23T12:14:55.000Z</time>
      </trkpt>
      <trkpt lat="49.46763" lon="-1.56082">
        <ele>26.6</ele>
        <time>2019-04-23T12:14:56.000Z</time>
      </trkpt>
      <trkpt lat="49.46763" lon="-1.56084">
        <ele>26.6</ele>
        <time>2019-04-23T12:14:57.000Z</time>
      </trkpt>
      <trkpt lat="49.46763" lon="-1.56085">
        <ele>26.7</ele>
        <time>2019-04-23T12:14:58.000Z</time>
      </trkpt>
      <trkpt lat="49.46764" lon="-1.56087">
        <ele>26.8</ele>
        <time>2019-04-23T12:14:59.000Z</time>
      </trkpt>
      <trkpt lat="49.46764" lon="-1.56089">
        <ele>26.8</ele>
        <time>2019-04-23T12:15:00.000Z</time>
      </trkpt>
      <trkpt lat="49.46765" lon="-1.5609">
        <ele>26.9</ele>
        <time>2019-04-23T12:15:01.000Z</time>
      </trkpt>
      <trkpt lat="49.46765" lon="-1.56092">
        <ele>27</ele>
        <time>2019-04-23T12:15:02.000Z</time>
      </trkpt>
      <trkpt lat="49.46766" lon="-1.56094">
        <ele>27.1</ele>
        <time>2019-04-23T12:15:03.000Z</time>
      </trkpt>
      <trkpt lat="49.46767" lon="-1.56095">
        <ele>27.1</ele>
        <time>2019-04-23T12:15:04.000Z</time>
      </trkpt>
      <trkpt lat="49.46767" lon="-1.56097">
        <ele>27.2</ele>
        <time>2019-04-23T12:15:05.000Z</time>
      </trkpt>
      <trkpt lat="49.46768" lon="-1.56098">
        <ele>27.3</ele>
        <time>2019-04-23T12:15:06.000Z</time>
      </trkpt>
      <trkpt lat="49.46768" lon="-1.561">
        <ele>27.3</ele>
        <time>2019-04-23T12:15:07.000Z</time>
      </trkpt>
      <trkpt lat="49.46769" lon="-1.56101">
        <ele>27.4</ele>
        <time>2019-04-23T12:15:08.000Z</time>
      </trkpt>
      <trkpt lat="49.46769" lon="-1.56102">
        <ele>27.4</ele>
        <time>2019-04-23T12:15:09.000Z</time>
      </trkpt>
      <trkpt lat="49.46769" lon="-1.56102">
        <ele>27.5</ele>
        <time>2019-04-23T12:15:10.000Z</time>
      </trkpt>
      <trkpt lat="49.46769" lon="-1.56103">
        <ele>27.5</ele>
        <time>2019-04-23T12:15:11.000Z</time>
      </trkpt>
      <trkpt lat="49.4677" lon="-1.56103">
        <ele>27.5</ele>
        <time>2019-04-23T12:15:12.000Z</time>
      </trkpt>
      <trkpt lat="49.4677" lon="-1.56103">
        <ele>27.5</ele>
        <time>2019-04-23T12:15:13.000Z</time>
      </trkpt>
      <trkpt lat="49.4677" lon="-1.56103">
        <ele>27.5</ele>
        <time>2019-04-23T12:15:14.000Z</time>
      </trkpt>
      <trkpt lat="49.4677" lon="-1.56103">
        <ele>27.5</ele>
        <time>2019-04-23T12:15:15.000Z</time>
      </trkpt>
      <trkpt lat="49.4677" lon="-1.56103">
        <ele>27.5</ele>
        <time>2019-04-23T12:15:16.000Z</time>
      </trkpt>
      <trkpt lat="49.4677" lon="-1.56103">
        <ele>27.5</ele>
        <time>2019-04-23T12:15:17.000Z</time>
      </trkpt>
      <trkpt lat="49.4677" lon="-1.56103">
        <ele>27.5</ele>
        <time>2019-04-23T12:15:18.000Z</time>
      </trkpt>
      <trkpt lat="49.4677" lon="-1.56103">
        <ele>27.5</ele>
        <time>2019-04-23T12:15:19.000Z</time>
      </trkpt>
      <trkpt lat="49.4677" lon="-1.56103">
        <ele>27.6</ele>
        <time>2019-04-23T12:15:20.000Z</time>
      </trkpt>
      <trkpt lat="49.4677" lon="-1.56103">
        <ele>27.6</ele>
        <time>2019-04-23T12:15:21.000Z</time>
      </trkpt>
      <trkpt lat="49.46771" lon="-1.56103">
        <ele>27.6</ele>
        <time>2019-04-23T12:15:22.000Z</time>
      </trkpt>
      <trkpt lat="49.46771" lon="-1.56103">
        <ele>27.6</ele>
        <time>2019-04-23T12:15:23.000Z</time>
      </trkpt>
      <trkpt lat="49.46771" lon="-1.56103">
        <ele>27.6</ele>
        <time>2019-04-23T12:15:24.000Z</time>
      </trkpt>
      <trkpt lat="49.46771" lon="-1.56103">
        <ele>27.6</ele>
        <time>2019-04-23T12:15:25.000Z</time>
      </trkpt>
      <trkpt lat="49.46771" lon="-1.56103">
        <ele>27.6</ele>
        <time>2019-04-23T12:15:26.000Z</time>
      </trkpt>
      <trkpt lat="49.46771" lon="-1.56103">
        <ele>27.6</ele>
        <time>2019-04-23T12:15:27.000Z</time>
      </trkpt>
      <trkpt lat="49.46771" lon="-1.56103">
        <ele>27.6</ele>
        <time>2019-04-23T12:15:28.000Z</time>
      </trkpt>
      <trkpt lat="49.46771" lon="-1.56103">
        <ele>27.6</ele>
        <time>2019-04-23T12:15:29.000Z</time>
      </trkpt>
      <trkpt lat="49.46771" lon="-1.56103">
        <ele>27.6</ele>
        <time>2019-04-23T12:15:30.000Z</time>
      </trkpt>
      <trkpt lat="49.46771" lon="-1.56103">
        <ele>27.6</ele>
        <time>2019-04-23T12:15:31.000Z</time>
      </trkpt>
      <trkpt lat="49.46771" lon="-1.56103">
        <ele>27.6</ele>
        <time>2019-04-23T12:15:32.000Z</time>
      </trkpt>
      <trkpt lat="49.46771" lon="-1.56103">
        <ele>27.6</ele>
        <time>2019-04-23T12:15:33.000Z</time>
      </trkpt>
      <trkpt lat="49.46771" lon="-1.56103">
        <ele>27.6</ele>
        <time>2019-04-23T12:15:34.000Z</time>
      </trkpt>
      <trkpt lat="49.46771" lon="-1.56103">
        <ele>27.6</ele>
        <time>2019-04-23T12:15:35.000Z</time>
      </trkpt>
      <trkpt lat="49.46771" lon="-1.56103">
        <ele>27.6</ele>
        <time>2019-04-23T12:15:36.000Z</time>
      </trkpt>
      <trkpt lat="49.46771" lon="-1.56103">
        <ele>27.6</ele>
        <time>2019-04-23T12:15:37.000Z</time>
      </trkpt>
      <trkpt lat="49.46771" lon="-1.56103">
        <ele>27.6</ele>
        <time>2019-04-23T12:15:38.000Z</time>
      </trkpt>
      <trkpt lat="49.46771" lon="-1.56103">
        <ele>27.6</ele>
        <time>2019-04-23T12:15:39.000Z</time>
      </trkpt>
      <trkpt lat="49.46771" lon="-1.56103">
        <ele>27.6</ele>
        <time>2019-04-23T12:15:40.000Z</time>
      </trkpt>
      <trkpt lat="49.46771" lon="-1.56103">
        <ele>27.6</ele>
        <time>2019-04-23T12:15:41.000Z</time>
      </trkpt>
      <trkpt lat="49.46771" lon="-1.56103">
        <ele>27.6</ele>
        <time>2019-04-23T12:15:42.000Z</time>
      </trkpt>
      <trkpt lat="49.46771" lon="-1.56103">
        <ele>27.6</ele>
        <time>2019-04-23T12:15:43.000Z</time>
      </trkpt>
      <trkpt lat="49.46771" lon="-1.56103">
        <ele>27.6</ele>
        <time>2019-04-23T12:15:44.000Z</time>
      </trkpt>
      <trkpt lat="49.46771" lon="-1.56102">
        <ele>27.6</ele>
        <time>2019-04-23T12:15:45.000Z</time>
      </trkpt>
      <trkpt lat="49.46771" lon="-1.56102">
        <ele>27.6</ele>
        <time>2019-04-23T12:15:46.000Z</time>
      </trkpt>
      <trkpt lat="49.46771" lon="-1.56102">
        <ele>27.6</ele>
        <time>2019-04-23T12:15:47.000Z</time>
      </trkpt>
      <trkpt lat="49.46771" lon="-1.56101">
        <ele>27.6</ele>
        <time>2019-04-23T12:15:48.000Z</time>
      </trkpt>
      <trkpt lat="49.46771" lon="-1.56101">
        <ele>27.5</ele>
        <time>2019-04-23T12:15:49.000Z</time>
      </trkpt>
      <trkpt lat="49.46771" lon="-1.561">
        <ele>27.5</ele>
        <time>2019-04-23T12:15:50.000Z</time>
      </trkpt>
      <trkpt lat="49.46771" lon="-1.561">
        <ele>27.5</ele>
        <time>2019-04-23T12:15:51.000Z</time>
      </trkpt>
      <trkpt lat="49.46771" lon="-1.56099">
        <ele>27.5</ele>
        <time>2019-04-23T12:15:52.000Z</time>
      </trkpt>
      <trkpt lat="49.46771" lon="-1.56099">
        <ele>27.5</ele>
        <time>2019-04-23T12:15:53.000Z</time>
      </trkpt>
      <trkpt lat="49.46771" lon="-1.56098">
        <ele>27.5</ele>
        <time>2019-04-23T12:15:54.000Z</time>
      </trkpt>
      <trkpt lat="49.46771" lon="-1.56098">
        <ele>27.4</ele>
        <time>2019-04-23T12:15:55.000Z</time>
      </trkpt>
      <trkpt lat="49.46771" lon="-1.56098">
        <ele>27.4</ele>
        <time>2019-04-23T12:15:56.000Z</time>
      </trkpt>
      <trkpt lat="49.46771" lon="-1.56097">
        <ele>27.4</ele>
        <time>2019-04-23T12:15:57.000Z</time>
      </trkpt>
      <trkpt lat="49.46771" lon="-1.56097">
        <ele>27.4</ele>
        <time>2019-04-23T12:15:58.000Z</time>
      </trkpt>
      <trkpt lat="49.46771" lon="-1.56097">
        <ele>27.4</ele>
        <time>2019-04-23T12:15:59.000Z</time>
      </trkpt>
      <trkpt lat="49.46771" lon="-1.56097">
        <ele>27.4</ele>
        <time>2019-04-23T12:16:00.000Z</time>
      </trkpt>
      <trkpt lat="49.46771" lon="-1.56097">
        <ele>27.4</ele>
        <time>2019-04-23T12:16:01.000Z</time>
      </trkpt>
      <trkpt lat="49.46771" lon="-1.56097">
        <ele>27.4</ele>
        <time>2019-04-23T12:16:02.000Z</time>
      </trkpt>
      <trkpt lat="49.46771" lon="-1.56097">
        <ele>27.4</ele>
        <time>2019-04-23T12:16:03.000Z</time>
      </trkpt>
      <trkpt lat="49.46771" lon="-1.56097">
        <ele>27.4</ele>
        <time>2019-04-23T12:16:04.000Z</time>
      </trkpt>
      <trkpt lat="49.46771" lon="-1.56097">
        <ele>27.4</ele>
        <time>2019-04-23T12:16:05.000Z</time>
      </trkpt>
      <trkpt lat="49.46771" lon="-1.56097">
        <ele>27.4</ele>
        <time>2019-04-23T12:16:06.000Z</time>
      </trkpt>
      <trkpt lat="49.46771" lon="-1.56097">
        <ele>27.4</ele>
        <time>2019-04-23T12:16:07.000Z</time>
      </trkpt>
      <trkpt lat="49.46771" lon="-1.56097">
        <ele>27.4</ele>
        <time>2019-04-23T12:16:08.000Z</time>
      </trkpt>
      <trkpt lat="49.46771" lon="-1.56097">
        <ele>27.4</ele>
        <time>2019-04-23T12:16:09.000Z</time>
      </trkpt>
      <trkpt lat="49.46771" lon="-1.56097">
        <ele>27.4</ele>
        <time>2019-04-23T12:16:10.000Z</time>
      </trkpt>
      <trkpt lat="49.46771" lon="-1.56097">
        <ele>27.4</ele>
        <time>2019-04-23T12:16:11.000Z</time>
      </trkpt>
      <trkpt lat="49.46771" lon="-1.56097">
        <ele>27.4</ele>
        <time>2019-04-23T12:16:12.000Z</time>
      </trkpt>
      <trkpt lat="49.46771" lon="-1.56097">
        <ele>27.4</ele>
        <time>2019-04-23T12:16:13.000Z</time>
      </trkpt>
      <trkpt lat="49.46771" lon="-1.56097">
        <ele>27.4</ele>
        <time>2019-04-23T12:16:14.000Z</time>
      </trkpt>
      <trkpt lat="49.46771" lon="-1.56097">
        <ele>27.4</ele>
        <time>2019-04-23T12:16:15.000Z</time>
      </trkpt>
      <trkpt lat="49.46771" lon="-1.56097">
        <ele>27.4</ele>
        <time>2019-04-23T12:16:16.000Z</time>
      </trkpt>
      <trkpt lat="49.46771" lon="-1.56097">
        <ele>27.4</ele>
        <time>2019-04-23T12:16:17.000Z</time>
      </trkpt>
      <trkpt lat="49.46771" lon="-1.56097">
        <ele>27.4</ele>
        <time>2019-04-23T12:16:18.000Z</time>
      </trkpt>
      <trkpt lat="49.46771" lon="-1.56097">
        <ele>27.4</ele>
        <time>2019-04-23T12:16:19.000Z</time>
      </trkpt>
      <trkpt lat="49.46771" lon="-1.56097">
        <ele>27.4</ele>
        <time>2019-04-23T12:16:20.000Z</time>
      </trkpt>
      <trkpt lat="49.46771" lon="-1.56097">
        <ele>27.4</ele>
        <time>2019-04-23T12:16:21.000Z</time>
      </trkpt>
      <trkpt lat="49.46771" lon="-1.56097">
        <ele>27.4</ele>
        <time>2019-04-23T12:16:22.000Z</time>
      </trkpt>
      <trkpt lat="49.46771" lon="-1.56097">
        <ele>27.4</ele>
        <time>2019-04-23T12:16:23.000Z</time>
      </trkpt>
      <trkpt lat="49.46771" lon="-1.56097">
        <ele>27.4</ele>
        <time>2019-04-23T12:16:24.000Z</time>
      </trkpt>
      <trkpt lat="49.46771" lon="-1.56097">
        <ele>27.4</ele>
        <time>2019-04-23T12:16:25.000Z</time>
      </trkpt>
      <trkpt lat="49.46771" lon="-1.56097">
        <ele>27.4</ele>
        <time>2019-04-23T12:16:26.000Z</time>
      </trkpt>
      <trkpt lat="49.46771" lon="-1.56097">
        <ele>27.4</ele>
        <time>2019-04-23T12:16:27.000Z</time>
      </trkpt>
      <trkpt lat="49.46771" lon="-1.56097">
        <ele>27.4</ele>
        <time>2019-04-23T12:16:28.000Z</time>
      </trkpt>
      <trkpt lat="49.46771" lon="-1.56097">
        <ele>27.4</ele>
        <time>2019-04-23T12:16:29.000Z</time>
      </trkpt>
      <trkpt lat="49.46771" lon="-1.56097">
        <ele>27.4</ele>
        <time>2019-04-23T12:16:30.000Z</time>
      </trkpt>
      <trkpt lat="49.46771" lon="-1.56097">
        <ele>27.4</ele>
        <time>2019-04-23T12:16:31.000Z</time>
      </trkpt>
      <trkpt lat="49.46771" lon="-1.56097">
        <ele>27.4</ele>
        <time>2019-04-23T12:16:32.000Z</time>
      </trkpt>
      <trkpt lat="49.46771" lon="-1.56097">
        <ele>27.4</ele>
        <time>2019-04-23T12:16:33.000Z</time>
      </trkpt>
      <trkpt lat="49.46771" lon="-1.56097">
        <ele>27.4</ele>
        <time>2019-04-23T12:16:34.000Z</time>
      </trkpt>
      <trkpt lat="49.46771" lon="-1.56097">
        <ele>27.4</ele>
        <time>2019-04-23T12:16:35.000Z</time>
      </trkpt>
      <trkpt lat="49.46771" lon="-1.56097">
        <ele>27.4</ele>
        <time>2019-04-23T12:16:36.000Z</time>
      </trkpt>
      <trkpt lat="49.46771" lon="-1.56097">
        <ele>27.4</ele>
        <time>2019-04-23T12:16:37.000Z</time>
      </trkpt>
      <trkpt lat="49.46771" lon="-1.56097">
        <ele>27.4</ele>
        <time>2019-04-23T12:16:38.000Z</time>
      </trkpt>
      <trkpt lat="49.46771" lon="-1.56097">
        <ele>27.4</ele>
        <time>2019-04-23T12:16:39.000Z</time>
      </trkpt>
      <trkpt lat="49.46771" lon="-1.56097">
        <ele>27.4</ele>
        <time>2019-04-23T12:16:40.000Z</time>
      </trkpt>
      <trkpt lat="49.46771" lon="-1.56097">
        <ele>27.4</ele>
        <time>2019-04-23T12:16:41.000Z</time>
      </trkpt>
      <trkpt lat="49.46771" lon="-1.56097">
        <ele>27.4</ele>
        <time>2019-04-23T12:16:42.000Z</time>
      </trkpt>
      <trkpt lat="49.46771" lon="-1.56097">
        <ele>27.4</ele>
        <time>2019-04-23T12:16:43.000Z</time>
      </trkpt>
      <trkpt lat="49.46771" lon="-1.56097">
        <ele>27.4</ele>
        <time>2019-04-23T12:16:44.000Z</time>
      </trkpt>
      <trkpt lat="49.46771" lon="-1.56097">
        <ele>27.4</ele>
        <time>2019-04-23T12:16:45.000Z</time>
      </trkpt>
      <trkpt lat="49.46771" lon="-1.56097">
        <ele>27.4</ele>
        <time>2019-04-23T12:16:46.000Z</time>
      </trkpt>
      <trkpt lat="49.46771" lon="-1.56097">
        <ele>27.4</ele>
        <time>2019-04-23T12:16:47.000Z</time>
      </trkpt>
      <trkpt lat="49.46771" lon="-1.56097">
        <ele>27.4</ele>
        <time>2019-04-23T12:16:48.000Z</time>
      </trkpt>
      <trkpt lat="49.4677" lon="-1.56097">
        <ele>27.4</ele>
        <time>2019-04-23T12:16:49.000Z</time>
      </trkpt>
      <trkpt lat="49.4677" lon="-1.56098">
        <ele>27.4</ele>
        <time>2019-04-23T12:16:50.000Z</time>
      </trkpt>
      <trkpt lat="49.4677" lon="-1.56098">
        <ele>27.4</ele>
        <time>2019-04-23T12:16:51.000Z</time>
      </trkpt>
      <trkpt lat="49.4677" lon="-1.56098">
        <ele>27.4</ele>
        <time>2019-04-23T12:16:52.000Z</time>
      </trkpt>
      <trkpt lat="49.46769" lon="-1.56098">
        <ele>27.4</ele>
        <time>2019-04-23T12:16:53.000Z</time>
      </trkpt>
      <trkpt lat="49.4677" lon="-1.56098">
        <ele>27.4</ele>
        <time>2019-04-23T12:16:54.000Z</time>
      </trkpt>
      <trkpt lat="49.4677" lon="-1.56098">
        <ele>27.4</ele>
        <time>2019-04-23T12:16:55.000Z</time>
      </trkpt>
      <trkpt lat="49.4677" lon="-1.56098">
        <ele>27.4</ele>
        <time>2019-04-23T12:16:56.000Z</time>
      </trkpt>
      <trkpt lat="49.4677" lon="-1.56098">
        <ele>27.4</ele>
        <time>2019-04-23T12:16:57.000Z</time>
      </trkpt>
      <trkpt lat="49.4677" lon="-1.56098">
        <ele>27.4</ele>
        <time>2019-04-23T12:16:58.000Z</time>
      </trkpt>
      <trkpt lat="49.4677" lon="-1.56098">
        <ele>27.4</ele>
        <time>2019-04-23T12:16:59.000Z</time>
      </trkpt>
      <trkpt lat="49.4677" lon="-1.56098">
        <ele>27.4</ele>
        <time>2019-04-23T12:17:00.000Z</time>
      </trkpt>
      <trkpt lat="49.4677" lon="-1.56098">
        <ele>27.4</ele>
        <time>2019-04-23T12:17:01.000Z</time>
      </trkpt>
      <trkpt lat="49.4677" lon="-1.56098">
        <ele>27.4</ele>
        <time>2019-04-23T12:17:02.000Z</time>
      </trkpt>
      <trkpt lat="49.4677" lon="-1.56098">
        <ele>27.4</ele>
        <time>2019-04-23T12:17:03.000Z</time>
      </trkpt>
      <trkpt lat="49.4677" lon="-1.56098">
        <ele>27.4</ele>
        <time>2019-04-23T12:17:04.000Z</time>
      </trkpt>
      <trkpt lat="49.4677" lon="-1.56098">
        <ele>27.4</ele>
        <time>2019-04-23T12:17:05.000Z</time>
      </trkpt>
      <trkpt lat="49.4677" lon="-1.56098">
        <ele>27.4</ele>
        <time>2019-04-23T12:17:06.000Z</time>
      </trkpt>
      <trkpt lat="49.4677" lon="-1.56098">
        <ele>27.4</ele>
        <time>2019-04-23T12:17:07.000Z</time>
      </trkpt>
      <trkpt lat="49.4677" lon="-1.56098">
        <ele>27.4</ele>
        <time>2019-04-23T12:17:08.000Z</time>
      </trkpt>
      <trkpt lat="49.4677" lon="-1.56098">
        <ele>27.4</ele>
        <time>2019-04-23T12:17:09.000Z</time>
      </trkpt>
      <trkpt lat="49.4677" lon="-1.56098">
        <ele>27.4</ele>
        <time>2019-04-23T12:17:10.000Z</time>
      </trkpt>
      <trkpt lat="49.4677" lon="-1.56098">
        <ele>27.4</ele>
        <time>2019-04-23T12:17:11.000Z</time>
      </trkpt>
      <trkpt lat="49.4677" lon="-1.56098">
        <ele>27.4</ele>
        <time>2019-04-23T12:17:12.000Z</time>
      </trkpt>
      <trkpt lat="49.4677" lon="-1.56098">
        <ele>27.4</ele>
        <time>2019-04-23T12:17:13.000Z</time>
      </trkpt>
      <trkpt lat="49.4677" lon="-1.56098">
        <ele>27.4</ele>
        <time>2019-04-23T12:17:14.000Z</time>
      </trkpt>
      <trkpt lat="49.4677" lon="-1.56098">
        <ele>27.4</ele>
        <time>2019-04-23T12:17:15.000Z</time>
      </trkpt>
      <trkpt lat="49.4677" lon="-1.56098">
        <ele>27.4</ele>
        <time>2019-04-23T12:17:16.000Z</time>
      </trkpt>
      <trkpt lat="49.4677" lon="-1.56098">
        <ele>27.4</ele>
        <time>2019-04-23T12:17:17.000Z</time>
      </trkpt>
      <trkpt lat="49.4677" lon="-1.56098">
        <ele>27.4</ele>
        <time>2019-04-23T12:17:18.000Z</time>
      </trkpt>
      <trkpt lat="49.4677" lon="-1.56098">
        <ele>27.4</ele>
        <time>2019-04-23T12:17:19.000Z</time>
      </trkpt>
      <trkpt lat="49.4677" lon="-1.56098">
        <ele>27.4</ele>
        <time>2019-04-23T12:17:20.000Z</time>
      </trkpt>
      <trkpt lat="49.4677" lon="-1.56098">
        <ele>27.4</ele>
        <time>2019-04-23T12:17:21.000Z</time>
      </trkpt>
      <trkpt lat="49.4677" lon="-1.56098">
        <ele>27.4</ele>
        <time>2019-04-23T12:17:22.000Z</time>
      </trkpt>
      <trkpt lat="49.4677" lon="-1.56098">
        <ele>27.4</ele>
        <time>2019-04-23T12:17:23.000Z</time>
      </trkpt>
      <trkpt lat="49.4677" lon="-1.56098">
        <ele>27.4</ele>
        <time>2019-04-23T12:17:24.000Z</time>
      </trkpt>
      <trkpt lat="49.4677" lon="-1.56098">
        <ele>27.4</ele>
        <time>2019-04-23T12:17:25.000Z</time>
      </trkpt>
      <trkpt lat="49.4677" lon="-1.56098">
        <ele>27.4</ele>
        <time>2019-04-23T12:17:26.000Z</time>
      </trkpt>
      <trkpt lat="49.4677" lon="-1.56098">
        <ele>27.4</ele>
        <time>2019-04-23T12:17:27.000Z</time>
      </trkpt>
      <trkpt lat="49.4677" lon="-1.56098">
        <ele>27.4</ele>
        <time>2019-04-23T12:17:28.000Z</time>
      </trkpt>
      <trkpt lat="49.4677" lon="-1.56098">
        <ele>27.4</ele>
        <time>2019-04-23T12:17:29.000Z</time>
      </trkpt>
      <trkpt lat="49.4677" lon="-1.56098">
        <ele>27.4</ele>
        <time>2019-04-23T12:17:30.000Z</time>
      </trkpt>
      <trkpt lat="49.4677" lon="-1.56098">
        <ele>27.4</ele>
        <time>2019-04-23T12:17:31.000Z</time>
      </trkpt>
      <trkpt lat="49.4677" lon="-1.56098">
        <ele>27.4</ele>
        <time>2019-04-23T12:17:32.000Z</time>
      </trkpt>
      <trkpt lat="49.4677" lon="-1.56098">
        <ele>27.4</ele>
        <time>2019-04-23T12:17:33.000Z</time>
      </trkpt>
      <trkpt lat="49.4677" lon="-1.56098">
        <ele>27.4</ele>
        <time>2019-04-23T12:17:34.000Z</time>
      </trkpt>
      <trkpt lat="49.4677" lon="-1.56098">
        <ele>27.4</ele>
        <time>2019-04-23T12:17:35.000Z</time>
      </trkpt>
      <trkpt lat="49.4677" lon="-1.56098">
        <ele>27.4</ele>
        <time>2019-04-23T12:17:36.000Z</time>
      </trkpt>
      <trkpt lat="49.4677" lon="-1.56098">
        <ele>27.4</ele>
        <time>2019-04-23T12:17:37.000Z</time>
      </trkpt>
      <trkpt lat="49.4677" lon="-1.56098">
        <ele>27.4</ele>
        <time>2019-04-23T12:17:38.000Z</time>
      </trkpt>
      <trkpt lat="49.4677" lon="-1.56098">
        <ele>27.4</ele>
        <time>2019-04-23T12:17:39.000Z</time>
      </trkpt>
      <trkpt lat="49.4677" lon="-1.56098">
        <ele>27.4</ele>
        <time>2019-04-23T12:17:40.000Z</time>
      </trkpt>
      <trkpt lat="49.4677" lon="-1.56098">
        <ele>27.4</ele>
        <time>2019-04-23T12:17:41.000Z</time>
      </trkpt>
      <trkpt lat="49.4677" lon="-1.56098">
        <ele>27.4</ele>
        <time>2019-04-23T12:17:42.000Z</time>
      </trkpt>
      <trkpt lat="49.4677" lon="-1.56098">
        <ele>27.4</ele>
        <time>2019-04-23T12:17:43.000Z</time>
      </trkpt>
      <trkpt lat="49.4677" lon="-1.56098">
        <ele>27.4</ele>
        <time>2019-04-23T12:17:44.000Z</time>
      </trkpt>
      <trkpt lat="49.4677" lon="-1.56098">
        <ele>27.4</ele>
        <time>2019-04-23T12:17:45.000Z</time>
      </trkpt>
      <trkpt lat="49.4677" lon="-1.56098">
        <ele>27.4</ele>
        <time>2019-04-23T12:17:46.000Z</time>
      </trkpt>
      <trkpt lat="49.4677" lon="-1.56098">
        <ele>27.4</ele>
        <time>2019-04-23T12:17:47.000Z</time>
      </trkpt>
      <trkpt lat="49.4677" lon="-1.56098">
        <ele>27.4</ele>
        <time>2019-04-23T12:17:48.000Z</time>
      </trkpt>
      <trkpt lat="49.4677" lon="-1.56098">
        <ele>27.4</ele>
        <time>2019-04-23T12:17:49.000Z</time>
      </trkpt>
      <trkpt lat="49.4677" lon="-1.56098">
        <ele>27.4</ele>
        <time>2019-04-23T12:17:50.000Z</time>
      </trkpt>
      <trkpt lat="49.4677" lon="-1.56098">
        <ele>27.4</ele>
        <time>2019-04-23T12:17:51.000Z</time>
      </trkpt>
      <trkpt lat="49.4677" lon="-1.56098">
        <ele>27.4</ele>
        <time>2019-04-23T12:17:52.000Z</time>
      </trkpt>
      <trkpt lat="49.4677" lon="-1.56098">
        <ele>27.4</ele>
        <time>2019-04-23T12:17:53.000Z</time>
      </trkpt>
      <trkpt lat="49.4677" lon="-1.56098">
        <ele>27.4</ele>
        <time>2019-04-23T12:17:54.000Z</time>
      </trkpt>
      <trkpt lat="49.4677" lon="-1.56098">
        <ele>27.4</ele>
        <time>2019-04-23T12:17:55.000Z</time>
      </trkpt>
      <trkpt lat="49.4677" lon="-1.56098">
        <ele>27.4</ele>
        <time>2019-04-23T12:17:56.000Z</time>
      </trkpt>
      <trkpt lat="49.4677" lon="-1.56098">
        <ele>27.4</ele>
        <time>2019-04-23T12:17:57.000Z</time>
      </trkpt>
      <trkpt lat="49.4677" lon="-1.56098">
        <ele>27.4</ele>
        <time>2019-04-23T12:17:58.000Z</time>
      </trkpt>
      <trkpt lat="49.4677" lon="-1.56098">
        <ele>27.4</ele>
        <time>2019-04-23T12:17:59.000Z</time>
      </trkpt>
      <trkpt lat="49.4677" lon="-1.56098">
        <ele>27.4</ele>
        <time>2019-04-23T12:18:00.000Z</time>
      </trkpt>
      <trkpt lat="49.4677" lon="-1.56098">
        <ele>27.4</ele>
        <time>2019-04-23T12:18:01.000Z</time>
      </trkpt>
      <trkpt lat="49.4677" lon="-1.56098">
        <ele>27.4</ele>
        <time>2019-04-23T12:18:02.000Z</time>
      </trkpt>
      <trkpt lat="49.4677" lon="-1.56098">
        <ele>27.4</ele>
        <time>2019-04-23T12:18:03.000Z</time>
      </trkpt>
      <trkpt lat="49.4677" lon="-1.56098">
        <ele>27.4</ele>
        <time>2019-04-23T12:18:04.000Z</time>
      </trkpt>
      <trkpt lat="49.4677" lon="-1.56098">
        <ele>27.4</ele>
        <time>2019-04-23T12:18:05.000Z</time>
      </trkpt>
      <trkpt lat="49.4677" lon="-1.56098">
        <ele>27.4</ele>
        <time>2019-04-23T12:18:06.000Z</time>
      </trkpt>
      <trkpt lat="49.4677" lon="-1.56098">
        <ele>27.4</ele>
        <time>2019-04-23T12:18:07.000Z</time>
      </trkpt>
      <trkpt lat="49.4677" lon="-1.56098">
        <ele>27.4</ele>
        <time>2019-04-23T12:18:08.000Z</time>
      </trkpt>
      <trkpt lat="49.4677" lon="-1.56098">
        <ele>27.4</ele>
        <time>2019-04-23T12:18:09.000Z</time>
      </trkpt>
      <trkpt lat="49.4677" lon="-1.56098">
        <ele>27.4</ele>
        <time>2019-04-23T12:18:10.000Z</time>
      </trkpt>
      <trkpt lat="49.4677" lon="-1.56098">
        <ele>27.4</ele>
        <time>2019-04-23T12:18:11.000Z</time>
      </trkpt>
      <trkpt lat="49.4677" lon="-1.56098">
        <ele>27.4</ele>
        <time>2019-04-23T12:18:12.000Z</time>
      </trkpt>
      <trkpt lat="49.4677" lon="-1.56098">
        <ele>27.4</ele>
        <time>2019-04-23T12:18:13.000Z</time>
      </trkpt>
      <trkpt lat="49.4677" lon="-1.56098">
        <ele>27.4</ele>
        <time>2019-04-23T12:18:14.000Z</time>
      </trkpt>
      <trkpt lat="49.4677" lon="-1.56098">
        <ele>27.4</ele>
        <time>2019-04-23T12:18:15.000Z</time>
      </trkpt>
      <trkpt lat="49.4677" lon="-1.56098">
        <ele>27.4</ele>
        <time>2019-04-23T12:18:16.000Z</time>
      </trkpt>
      <trkpt lat="49.4677" lon="-1.56098">
        <ele>27.4</ele>
        <time>2019-04-23T12:18:17.000Z</time>
      </trkpt>
      <trkpt lat="49.4677" lon="-1.56098">
        <ele>27.4</ele>
        <time>2019-04-23T12:18:18.000Z</time>
      </trkpt>
      <trkpt lat="49.4677" lon="-1.56098">
        <ele>27.4</ele>
        <time>2019-04-23T12:18:19.000Z</time>
      </trkpt>
      <trkpt lat="49.4677" lon="-1.56098">
        <ele>27.4</ele>
        <time>2019-04-23T12:18:20.000Z</time>
      </trkpt>
      <trkpt lat="49.4677" lon="-1.56098">
        <ele>27.4</ele>
        <time>2019-04-23T12:18:21.000Z</time>
      </trkpt>
      <trkpt lat="49.4677" lon="-1.56098">
        <ele>27.4</ele>
        <time>2019-04-23T12:18:22.000Z</time>
      </trkpt>
      <trkpt lat="49.4677" lon="-1.56098">
        <ele>27.4</ele>
        <time>2019-04-23T12:18:23.000Z</time>
      </trkpt>
      <trkpt lat="49.4677" lon="-1.56099">
        <ele>27.4</ele>
        <time>2019-04-23T12:18:24.000Z</time>
      </trkpt>
      <trkpt lat="49.4677" lon="-1.56099">
        <ele>27.4</ele>
        <time>2019-04-23T12:18:25.000Z</time>
      </trkpt>
      <trkpt lat="49.4677" lon="-1.561">
        <ele>27.5</ele>
        <time>2019-04-23T12:18:26.000Z</time>
      </trkpt>
      <trkpt lat="49.46771" lon="-1.56102">
        <ele>27.5</ele>
        <time>2019-04-23T12:18:27.000Z</time>
      </trkpt>
      <trkpt lat="49.46771" lon="-1.56103">
        <ele>27.6</ele>
        <time>2019-04-23T12:18:28.000Z</time>
      </trkpt>
      <trkpt lat="49.46772" lon="-1.56104">
        <ele>27.7</ele>
        <time>2019-04-23T12:18:29.000Z</time>
      </trkpt>
      <trkpt lat="49.46772" lon="-1.56105">
        <ele>27.7</ele>
        <time>2019-04-23T12:18:30.000Z</time>
      </trkpt>
      <trkpt lat="49.46772" lon="-1.56106">
        <ele>27.8</ele>
        <time>2019-04-23T12:18:31.000Z</time>
      </trkpt>
      <trkpt lat="49.46772" lon="-1.56107">
        <ele>27.8</ele>
        <time>2019-04-23T12:18:32.000Z</time>
      </trkpt>
      <trkpt lat="49.46773" lon="-1.56108">
        <ele>27.8</ele>
        <time>2019-04-23T12:18:33.000Z</time>
      </trkpt>
      <trkpt lat="49.46773" lon="-1.56109">
        <ele>27.9</ele>
        <time>2019-04-23T12:18:34.000Z</time>
      </trkpt>
      <trkpt lat="49.46773" lon="-1.56111">
        <ele>27.9</ele>
        <time>2019-04-23T12:18:35.000Z</time>
      </trkpt>
      <trkpt lat="49.46773" lon="-1.56112">
        <ele>28</ele>
        <time>2019-04-23T12:18:36.000Z</time>
      </trkpt>
      <trkpt lat="49.46773" lon="-1.56114">
        <ele>28</ele>
        <time>2019-04-23T12:18:37.000Z</time>
      </trkpt>
      <trkpt lat="49.46773" lon="-1.56115">
        <ele>28.1</ele>
        <time>2019-04-23T12:18:38.000Z</time>
      </trkpt>
      <trkpt lat="49.46774" lon="-1.56116">
        <ele>28.2</ele>
        <time>2019-04-23T12:18:39.000Z</time>
      </trkpt>
      <trkpt lat="49.46774" lon="-1.56118">
        <ele>28.2</ele>
        <time>2019-04-23T12:18:40.000Z</time>
      </trkpt>
      <trkpt lat="49.46774" lon="-1.56119">
        <ele>28.2</ele>
        <time>2019-04-23T12:18:41.000Z</time>
      </trkpt>
      <trkpt lat="49.46774" lon="-1.5612">
        <ele>28.3</ele>
        <time>2019-04-23T12:18:42.000Z</time>
      </trkpt>
      <trkpt lat="49.46775" lon="-1.56121">
        <ele>28.3</ele>
        <time>2019-04-23T12:18:43.000Z</time>
      </trkpt>
      <trkpt lat="49.46775" lon="-1.56122">
        <ele>28.4</ele>
        <time>2019-04-23T12:18:44.000Z</time>
      </trkpt>
      <trkpt lat="49.46775" lon="-1.56123">
        <ele>28.4</ele>
        <time>2019-04-23T12:18:45.000Z</time>
      </trkpt>
      <trkpt lat="49.46775" lon="-1.56124">
        <ele>28.5</ele>
        <time>2019-04-23T12:18:46.000Z</time>
      </trkpt>
      <trkpt lat="49.46776" lon="-1.56125">
        <ele>28.6</ele>
        <time>2019-04-23T12:18:47.000Z</time>
      </trkpt>
      <trkpt lat="49.46776" lon="-1.56127">
        <ele>28.6</ele>
        <time>2019-04-23T12:18:48.000Z</time>
      </trkpt>
      <trkpt lat="49.46776" lon="-1.56128">
        <ele>28.7</ele>
        <time>2019-04-23T12:18:49.000Z</time>
      </trkpt>
      <trkpt lat="49.46777" lon="-1.56129">
        <ele>28.7</ele>
        <time>2019-04-23T12:18:50.000Z</time>
      </trkpt>
      <trkpt lat="49.46777" lon="-1.5613">
        <ele>28.8</ele>
        <time>2019-04-23T12:18:51.000Z</time>
      </trkpt>
      <trkpt lat="49.46778" lon="-1.56132">
        <ele>28.9</ele>
        <time>2019-04-23T12:18:52.000Z</time>
      </trkpt>
      <trkpt lat="49.46778" lon="-1.56133">
        <ele>28.9</ele>
        <time>2019-04-23T12:18:53.000Z</time>
      </trkpt>
      <trkpt lat="49.46778" lon="-1.56135">
        <ele>29</ele>
        <time>2019-04-23T12:18:54.000Z</time>
      </trkpt>
      <trkpt lat="49.46779" lon="-1.56136">
        <ele>29.1</ele>
        <time>2019-04-23T12:18:55.000Z</time>
      </trkpt>
      <trkpt lat="49.46779" lon="-1.56138">
        <ele>29.2</ele>
        <time>2019-04-23T12:18:56.000Z</time>
      </trkpt>
      <trkpt lat="49.4678" lon="-1.56139">
        <ele>29.2</ele>
        <time>2019-04-23T12:18:57.000Z</time>
      </trkpt>
      <trkpt lat="49.4678" lon="-1.56141">
        <ele>29.3</ele>
        <time>2019-04-23T12:18:58.000Z</time>
      </trkpt>
      <trkpt lat="49.4678" lon="-1.56142">
        <ele>29.4</ele>
        <time>2019-04-23T12:18:59.000Z</time>
      </trkpt>
      <trkpt lat="49.46781" lon="-1.56144">
        <ele>29.5</ele>
        <time>2019-04-23T12:19:00.000Z</time>
      </trkpt>
      <trkpt lat="49.46781" lon="-1.56145">
        <ele>29.5</ele>
        <time>2019-04-23T12:19:01.000Z</time>
      </trkpt>
      <trkpt lat="49.46782" lon="-1.56147">
        <ele>29.6</ele>
        <time>2019-04-23T12:19:02.000Z</time>
      </trkpt>
      <trkpt lat="49.46782" lon="-1.56148">
        <ele>29.7</ele>
        <time>2019-04-23T12:19:03.000Z</time>
      </trkpt>
      <trkpt lat="49.46782" lon="-1.5615">
        <ele>29.8</ele>
        <time>2019-04-23T12:19:04.000Z</time>
      </trkpt>
      <trkpt lat="49.46783" lon="-1.56151">
        <ele>29.8</ele>
        <time>2019-04-23T12:19:05.000Z</time>
      </trkpt>
      <trkpt lat="49.46783" lon="-1.56153">
        <ele>29.9</ele>
        <time>2019-04-23T12:19:06.000Z</time>
      </trkpt>
      <trkpt lat="49.46783" lon="-1.56154">
        <ele>30</ele>
        <time>2019-04-23T12:19:07.000Z</time>
      </trkpt>
      <trkpt lat="49.46784" lon="-1.56155">
        <ele>30.1</ele>
        <time>2019-04-23T12:19:08.000Z</time>
      </trkpt>
      <trkpt lat="49.46784" lon="-1.56157">
        <ele>30.1</ele>
        <time>2019-04-23T12:19:09.000Z</time>
      </trkpt>
      <trkpt lat="49.46785" lon="-1.56158">
        <ele>30.2</ele>
        <time>2019-04-23T12:19:10.000Z</time>
      </trkpt>
      <trkpt lat="49.46785" lon="-1.56159">
        <ele>30.3</ele>
        <time>2019-04-23T12:19:11.000Z</time>
      </trkpt>
      <trkpt lat="49.46785" lon="-1.56161">
        <ele>30.3</ele>
        <time>2019-04-23T12:19:12.000Z</time>
      </trkpt>
      <trkpt lat="49.46786" lon="-1.56162">
        <ele>30.4</ele>
        <time>2019-04-23T12:19:13.000Z</time>
      </trkpt>
      <trkpt lat="49.46786" lon="-1.56163">
        <ele>30.5</ele>
        <time>2019-04-23T12:19:14.000Z</time>
      </trkpt>
      <trkpt lat="49.46787" lon="-1.56165">
        <ele>30.6</ele>
        <time>2019-04-23T12:19:15.000Z</time>
      </trkpt>
      <trkpt lat="49.46787" lon="-1.56166">
        <ele>30.6</ele>
        <time>2019-04-23T12:19:16.000Z</time>
      </trkpt>
      <trkpt lat="49.46787" lon="-1.56167">
        <ele>30.7</ele>
        <time>2019-04-23T12:19:17.000Z</time>
      </trkpt>
      <trkpt lat="49.46788" lon="-1.56169">
        <ele>30.7</ele>
        <time>2019-04-23T12:19:18.000Z</time>
      </trkpt>
      <trkpt lat="49.46788" lon="-1.5617">
        <ele>30.8</ele>
        <time>2019-04-23T12:19:19.000Z</time>
      </trkpt>
      <trkpt lat="49.46789" lon="-1.56171">
        <ele>30.8</ele>
        <time>2019-04-23T12:19:20.000Z</time>
      </trkpt>
      <trkpt lat="49.46789" lon="-1.56173">
        <ele>30.9</ele>
        <time>2019-04-23T12:19:21.000Z</time>
      </trkpt>
      <trkpt lat="49.4679" lon="-1.56174">
        <ele>31</ele>
        <time>2019-04-23T12:19:22.000Z</time>
      </trkpt>
      <trkpt lat="49.4679" lon="-1.56176">
        <ele>31</ele>
        <time>2019-04-23T12:19:23.000Z</time>
      </trkpt>
      <trkpt lat="49.46791" lon="-1.56177">
        <ele>31.1</ele>
        <time>2019-04-23T12:19:24.000Z</time>
      </trkpt>
      <trkpt lat="49.46791" lon="-1.56179">
        <ele>31.1</ele>
        <time>2019-04-23T12:19:25.000Z</time>
      </trkpt>
      <trkpt lat="49.46792" lon="-1.56181">
        <ele>31.2</ele>
        <time>2019-04-23T12:19:26.000Z</time>
      </trkpt>
      <trkpt lat="49.46793" lon="-1.56182">
        <ele>31.3</ele>
        <time>2019-04-23T12:19:27.000Z</time>
      </trkpt>
      <trkpt lat="49.46793" lon="-1.56184">
        <ele>31.3</ele>
        <time>2019-04-23T12:19:28.000Z</time>
      </trkpt>
      <trkpt lat="49.46794" lon="-1.56185">
        <ele>31.4</ele>
        <time>2019-04-23T12:19:29.000Z</time>
      </trkpt>
      <trkpt lat="49.46795" lon="-1.56187">
        <ele>31.5</ele>
        <time>2019-04-23T12:19:30.000Z</time>
      </trkpt>
      <trkpt lat="49.46795" lon="-1.56188">
        <ele>31.5</ele>
        <time>2019-04-23T12:19:31.000Z</time>
      </trkpt>
      <trkpt lat="49.46796" lon="-1.5619">
        <ele>31.6</ele>
        <time>2019-04-23T12:19:32.000Z</time>
      </trkpt>
      <trkpt lat="49.46797" lon="-1.56191">
        <ele>31.7</ele>
        <time>2019-04-23T12:19:33.000Z</time>
      </trkpt>
      <trkpt lat="49.46797" lon="-1.56193">
        <ele>31.8</ele>
        <time>2019-04-23T12:19:34.000Z</time>
      </trkpt>
      <trkpt lat="49.46798" lon="-1.56194">
        <ele>31.8</ele>
        <time>2019-04-23T12:19:35.000Z</time>
      </trkpt>
      <trkpt lat="49.46799" lon="-1.56196">
        <ele>31.9</ele>
        <time>2019-04-23T12:19:36.000Z</time>
      </trkpt>
      <trkpt lat="49.46799" lon="-1.56197">
        <ele>32</ele>
        <time>2019-04-23T12:19:37.000Z</time>
      </trkpt>
      <trkpt lat="49.468" lon="-1.56199">
        <ele>32.1</ele>
        <time>2019-04-23T12:19:38.000Z</time>
      </trkpt>
      <trkpt lat="49.46801" lon="-1.562">
        <ele>32.1</ele>
        <time>2019-04-23T12:19:39.000Z</time>
      </trkpt>
      <trkpt lat="49.46801" lon="-1.56202">
        <ele>32.2</ele>
        <time>2019-04-23T12:19:40.000Z</time>
      </trkpt>
      <trkpt lat="49.46802" lon="-1.56203">
        <ele>32.3</ele>
        <time>2019-04-23T12:19:41.000Z</time>
      </trkpt>
      <trkpt lat="49.46802" lon="-1.56205">
        <ele>32.3</ele>
        <time>2019-04-23T12:19:42.000Z</time>
      </trkpt>
      <trkpt lat="49.46803" lon="-1.56207">
        <ele>32.4</ele>
        <time>2019-04-23T12:19:43.000Z</time>
      </trkpt>
      <trkpt lat="49.46803" lon="-1.56208">
        <ele>32.5</ele>
        <time>2019-04-23T12:19:44.000Z</time>
      </trkpt>
      <trkpt lat="49.46804" lon="-1.5621">
        <ele>32.5</ele>
        <time>2019-04-23T12:19:45.000Z</time>
      </trkpt>
      <trkpt lat="49.46804" lon="-1.56211">
        <ele>32.6</ele>
        <time>2019-04-23T12:19:46.000Z</time>
      </trkpt>
      <trkpt lat="49.46805" lon="-1.56213">
        <ele>32.7</ele>
        <time>2019-04-23T12:19:47.000Z</time>
      </trkpt>
      <trkpt lat="49.46805" lon="-1.56215">
        <ele>32.7</ele>
        <time>2019-04-23T12:19:48.000Z</time>
      </trkpt>
      <trkpt lat="49.46806" lon="-1.56216">
        <ele>32.8</ele>
        <time>2019-04-23T12:19:49.000Z</time>
      </trkpt>
      <trkpt lat="49.46806" lon="-1.56218">
        <ele>32.9</ele>
        <time>2019-04-23T12:19:50.000Z</time>
      </trkpt>
      <trkpt lat="49.46807" lon="-1.56219">
        <ele>32.9</ele>
        <time>2019-04-23T12:19:51.000Z</time>
      </trkpt>
      <trkpt lat="49.46807" lon="-1.56221">
        <ele>33</ele>
        <time>2019-04-23T12:19:52.000Z</time>
      </trkpt>
      <trkpt lat="49.46808" lon="-1.56222">
        <ele>33.1</ele>
        <time>2019-04-23T12:19:53.000Z</time>
      </trkpt>
      <trkpt lat="49.46808" lon="-1.56224">
        <ele>33.1</ele>
        <time>2019-04-23T12:19:54.000Z</time>
      </trkpt>
      <trkpt lat="49.46809" lon="-1.56225">
        <ele>33.2</ele>
        <time>2019-04-23T12:19:55.000Z</time>
      </trkpt>
      <trkpt lat="49.46809" lon="-1.56227">
        <ele>33.3</ele>
        <time>2019-04-23T12:19:56.000Z</time>
      </trkpt>
      <trkpt lat="49.4681" lon="-1.56228">
        <ele>33.3</ele>
        <time>2019-04-23T12:19:57.000Z</time>
      </trkpt>
      <trkpt lat="49.4681" lon="-1.5623">
        <ele>33.4</ele>
        <time>2019-04-23T12:19:58.000Z</time>
      </trkpt>
      <trkpt lat="49.46811" lon="-1.56231">
        <ele>33.5</ele>
        <time>2019-04-23T12:19:59.000Z</time>
      </trkpt>
      <trkpt lat="49.46811" lon="-1.56232">
        <ele>33.6</ele>
        <time>2019-04-23T12:20:00.000Z</time>
      </trkpt>
      <trkpt lat="49.46812" lon="-1.56233">
        <ele>33.6</ele>
        <time>2019-04-23T12:20:01.000Z</time>
      </trkpt>
      <trkpt lat="49.46813" lon="-1.56235">
        <ele>33.7</ele>
        <time>2019-04-23T12:20:02.000Z</time>
      </trkpt>
      <trkpt lat="49.46813" lon="-1.56236">
        <ele>33.8</ele>
        <time>2019-04-23T12:20:03.000Z</time>
      </trkpt>
      <trkpt lat="49.46814" lon="-1.56237">
        <ele>33.9</ele>
        <time>2019-04-23T12:20:04.000Z</time>
      </trkpt>
      <trkpt lat="49.46814" lon="-1.56239">
        <ele>34</ele>
        <time>2019-04-23T12:20:05.000Z</time>
      </trkpt>
      <trkpt lat="49.46815" lon="-1.5624">
        <ele>34.1</ele>
        <time>2019-04-23T12:20:06.000Z</time>
      </trkpt>
      <trkpt lat="49.46816" lon="-1.56241">
        <ele>34.1</ele>
        <time>2019-04-23T12:20:07.000Z</time>
      </trkpt>
      <trkpt lat="49.46816" lon="-1.56243">
        <ele>34.2</ele>
        <time>2019-04-23T12:20:08.000Z</time>
      </trkpt>
      <trkpt lat="49.46817" lon="-1.56244">
        <ele>34.3</ele>
        <time>2019-04-23T12:20:09.000Z</time>
      </trkpt>
      <trkpt lat="49.46817" lon="-1.56245">
        <ele>34.4</ele>
        <time>2019-04-23T12:20:10.000Z</time>
      </trkpt>
      <trkpt lat="49.46818" lon="-1.56247">
        <ele>34.5</ele>
        <time>2019-04-23T12:20:11.000Z</time>
      </trkpt>
      <trkpt lat="49.46819" lon="-1.56248">
        <ele>34.5</ele>
        <time>2019-04-23T12:20:12.000Z</time>
      </trkpt>
      <trkpt lat="49.46819" lon="-1.5625">
        <ele>34.6</ele>
        <time>2019-04-23T12:20:13.000Z</time>
      </trkpt>
      <trkpt lat="49.4682" lon="-1.56251">
        <ele>34.7</ele>
        <time>2019-04-23T12:20:14.000Z</time>
      </trkpt>
      <trkpt lat="49.4682" lon="-1.56253">
        <ele>34.8</ele>
        <time>2019-04-23T12:20:15.000Z</time>
      </trkpt>
      <trkpt lat="49.46821" lon="-1.56255">
        <ele>34.9</ele>
        <time>2019-04-23T12:20:16.000Z</time>
      </trkpt>
      <trkpt lat="49.46821" lon="-1.56256">
        <ele>35</ele>
        <time>2019-04-23T12:20:17.000Z</time>
      </trkpt>
      <trkpt lat="49.46822" lon="-1.56258">
        <ele>35</ele>
        <time>2019-04-23T12:20:18.000Z</time>
      </trkpt>
      <trkpt lat="49.46822" lon="-1.5626">
        <ele>35.1</ele>
        <time>2019-04-23T12:20:19.000Z</time>
      </trkpt>
      <trkpt lat="49.46823" lon="-1.56261">
        <ele>35.2</ele>
        <time>2019-04-23T12:20:20.000Z</time>
      </trkpt>
      <trkpt lat="49.46823" lon="-1.56263">
        <ele>35.3</ele>
        <time>2019-04-23T12:20:21.000Z</time>
      </trkpt>
      <trkpt lat="49.46824" lon="-1.56265">
        <ele>35.4</ele>
        <time>2019-04-23T12:20:22.000Z</time>
      </trkpt>
      <trkpt lat="49.46824" lon="-1.56266">
        <ele>35.5</ele>
        <time>2019-04-23T12:20:23.000Z</time>
      </trkpt>
      <trkpt lat="49.46825" lon="-1.56268">
        <ele>35.6</ele>
        <time>2019-04-23T12:20:24.000Z</time>
      </trkpt>
      <trkpt lat="49.46825" lon="-1.56269">
        <ele>35.6</ele>
        <time>2019-04-23T12:20:25.000Z</time>
      </trkpt>
      <trkpt lat="49.46826" lon="-1.56271">
        <ele>35.7</ele>
        <time>2019-04-23T12:20:26.000Z</time>
      </trkpt>
      <trkpt lat="49.46826" lon="-1.56272">
        <ele>35.8</ele>
        <time>2019-04-23T12:20:27.000Z</time>
      </trkpt>
      <trkpt lat="49.46827" lon="-1.56274">
        <ele>35.9</ele>
        <time>2019-04-23T12:20:28.000Z</time>
      </trkpt>
      <trkpt lat="49.46828" lon="-1.56275">
        <ele>36</ele>
        <time>2019-04-23T12:20:29.000Z</time>
      </trkpt>
      <trkpt lat="49.46828" lon="-1.56276">
        <ele>36.1</ele>
        <time>2019-04-23T12:20:30.000Z</time>
      </trkpt>
      <trkpt lat="49.46829" lon="-1.56278">
        <ele>36.2</ele>
        <time>2019-04-23T12:20:31.000Z</time>
      </trkpt>
      <trkpt lat="49.4683" lon="-1.56279">
        <ele>36.3</ele>
        <time>2019-04-23T12:20:32.000Z</time>
      </trkpt>
      <trkpt lat="49.4683" lon="-1.5628">
        <ele>36.4</ele>
        <time>2019-04-23T12:20:33.000Z</time>
      </trkpt>
      <trkpt lat="49.46831" lon="-1.56282">
        <ele>36.5</ele>
        <time>2019-04-23T12:20:34.000Z</time>
      </trkpt>
      <trkpt lat="49.46832" lon="-1.56283">
        <ele>36.6</ele>
        <time>2019-04-23T12:20:35.000Z</time>
      </trkpt>
      <trkpt lat="49.46833" lon="-1.56284">
        <ele>36.8</ele>
        <time>2019-04-23T12:20:36.000Z</time>
      </trkpt>
      <trkpt lat="49.46834" lon="-1.56285">
        <ele>36.9</ele>
        <time>2019-04-23T12:20:37.000Z</time>
      </trkpt>
      <trkpt lat="49.46835" lon="-1.56287">
        <ele>36.9</ele>
        <time>2019-04-23T12:20:38.000Z</time>
      </trkpt>
      <trkpt lat="49.46835" lon="-1.56288">
        <ele>37</ele>
        <time>2019-04-23T12:20:39.000Z</time>
      </trkpt>
      <trkpt lat="49.46836" lon="-1.56289">
        <ele>37</ele>
        <time>2019-04-23T12:20:40.000Z</time>
      </trkpt>
      <trkpt lat="49.46837" lon="-1.5629">
        <ele>37.1</ele>
        <time>2019-04-23T12:20:41.000Z</time>
      </trkpt>
      <trkpt lat="49.46838" lon="-1.56292">
        <ele>37.2</ele>
        <time>2019-04-23T12:20:42.000Z</time>
      </trkpt>
      <trkpt lat="49.46839" lon="-1.56293">
        <ele>37.2</ele>
        <time>2019-04-23T12:20:43.000Z</time>
      </trkpt>
      <trkpt lat="49.4684" lon="-1.56294">
        <ele>37.3</ele>
        <time>2019-04-23T12:20:44.000Z</time>
      </trkpt>
      <trkpt lat="49.46841" lon="-1.56295">
        <ele>37.4</ele>
        <time>2019-04-23T12:20:45.000Z</time>
      </trkpt>
      <trkpt lat="49.46842" lon="-1.56296">
        <ele>37.4</ele>
        <time>2019-04-23T12:20:46.000Z</time>
      </trkpt>
      <trkpt lat="49.46843" lon="-1.56298">
        <ele>37.5</ele>
        <time>2019-04-23T12:20:47.000Z</time>
      </trkpt>
      <trkpt lat="49.46844" lon="-1.56299">
        <ele>37.5</ele>
        <time>2019-04-23T12:20:48.000Z</time>
      </trkpt>
      <trkpt lat="49.46845" lon="-1.563">
        <ele>37.6</ele>
        <time>2019-04-23T12:20:49.000Z</time>
      </trkpt>
      <trkpt lat="49.46846" lon="-1.56301">
        <ele>37.7</ele>
        <time>2019-04-23T12:20:50.000Z</time>
      </trkpt>
      <trkpt lat="49.46846" lon="-1.56303">
        <ele>37.7</ele>
        <time>2019-04-23T12:20:51.000Z</time>
      </trkpt>
      <trkpt lat="49.46847" lon="-1.56304">
        <ele>37.8</ele>
        <time>2019-04-23T12:20:52.000Z</time>
      </trkpt>
      <trkpt lat="49.46848" lon="-1.56305">
        <ele>37.9</ele>
        <time>2019-04-23T12:20:53.000Z</time>
      </trkpt>
      <trkpt lat="49.46849" lon="-1.56306">
        <ele>37.9</ele>
        <time>2019-04-23T12:20:54.000Z</time>
      </trkpt>
      <trkpt lat="49.4685" lon="-1.56308">
        <ele>38</ele>
        <time>2019-04-23T12:20:55.000Z</time>
      </trkpt>
      <trkpt lat="49.46851" lon="-1.56309">
        <ele>38</ele>
        <time>2019-04-23T12:20:56.000Z</time>
      </trkpt>
      <trkpt lat="49.46852" lon="-1.5631">
        <ele>38.1</ele>
        <time>2019-04-23T12:20:57.000Z</time>
      </trkpt>
      <trkpt lat="49.46853" lon="-1.56312">
        <ele>38.2</ele>
        <time>2019-04-23T12:20:58.000Z</time>
      </trkpt>
      <trkpt lat="49.46854" lon="-1.56313">
        <ele>38.2</ele>
        <time>2019-04-23T12:20:59.000Z</time>
      </trkpt>
      <trkpt lat="49.46854" lon="-1.56314">
        <ele>38.3</ele>
        <time>2019-04-23T12:21:00.000Z</time>
      </trkpt>
      <trkpt lat="49.46855" lon="-1.56315">
        <ele>38.4</ele>
        <time>2019-04-23T12:21:01.000Z</time>
      </trkpt>
      <trkpt lat="49.46856" lon="-1.56317">
        <ele>38.4</ele>
        <time>2019-04-23T12:21:02.000Z</time>
      </trkpt>
      <trkpt lat="49.46857" lon="-1.56318">
        <ele>38.5</ele>
        <time>2019-04-23T12:21:03.000Z</time>
      </trkpt>
      <trkpt lat="49.46858" lon="-1.56319">
        <ele>38.5</ele>
        <time>2019-04-23T12:21:04.000Z</time>
      </trkpt>
      <trkpt lat="49.46859" lon="-1.5632">
        <ele>38.6</ele>
        <time>2019-04-23T12:21:05.000Z</time>
      </trkpt>
      <trkpt lat="49.46859" lon="-1.56322">
        <ele>38.7</ele>
        <time>2019-04-23T12:21:06.000Z</time>
      </trkpt>
      <trkpt lat="49.4686" lon="-1.56323">
        <ele>38.7</ele>
        <time>2019-04-23T12:21:07.000Z</time>
      </trkpt>
      <trkpt lat="49.46861" lon="-1.56324">
        <ele>38.8</ele>
        <time>2019-04-23T12:21:08.000Z</time>
      </trkpt>
      <trkpt lat="49.46862" lon="-1.56325">
        <ele>38.8</ele>
        <time>2019-04-23T12:21:09.000Z</time>
      </trkpt>
      <trkpt lat="49.46863" lon="-1.56327">
        <ele>38.9</ele>
        <time>2019-04-23T12:21:10.000Z</time>
      </trkpt>
      <trkpt lat="49.46864" lon="-1.56328">
        <ele>39</ele>
        <time>2019-04-23T12:21:11.000Z</time>
      </trkpt>
      <trkpt lat="49.46864" lon="-1.56329">
        <ele>39</ele>
        <time>2019-04-23T12:21:12.000Z</time>
      </trkpt>
      <trkpt lat="49.46865" lon="-1.5633">
        <ele>39.1</ele>
        <time>2019-04-23T12:21:13.000Z</time>
      </trkpt>
      <trkpt lat="49.46866" lon="-1.56332">
        <ele>39.1</ele>
        <time>2019-04-23T12:21:14.000Z</time>
      </trkpt>
      <trkpt lat="49.46867" lon="-1.56333">
        <ele>39.2</ele>
        <time>2019-04-23T12:21:15.000Z</time>
      </trkpt>
      <trkpt lat="49.46868" lon="-1.56334">
        <ele>39.2</ele>
        <time>2019-04-23T12:21:16.000Z</time>
      </trkpt>
      <trkpt lat="49.46869" lon="-1.56335">
        <ele>39.3</ele>
        <time>2019-04-23T12:21:17.000Z</time>
      </trkpt>
      <trkpt lat="49.4687" lon="-1.56336">
        <ele>39.3</ele>
        <time>2019-04-23T12:21:18.000Z</time>
      </trkpt>
      <trkpt lat="49.46871" lon="-1.56337">
        <ele>39.3</ele>
        <time>2019-04-23T12:21:19.000Z</time>
      </trkpt>
      <trkpt lat="49.46871" lon="-1.56338">
        <ele>39.3</ele>
        <time>2019-04-23T12:21:20.000Z</time>
      </trkpt>
      <trkpt lat="49.46872" lon="-1.56339">
        <ele>39.4</ele>
        <time>2019-04-23T12:21:21.000Z</time>
      </trkpt>
      <trkpt lat="49.46873" lon="-1.5634">
        <ele>39.4</ele>
        <time>2019-04-23T12:21:22.000Z</time>
      </trkpt>
      <trkpt lat="49.46874" lon="-1.56341">
        <ele>39.4</ele>
        <time>2019-04-23T12:21:23.000Z</time>
      </trkpt>
      <trkpt lat="49.46875" lon="-1.56342">
        <ele>39.5</ele>
        <time>2019-04-23T12:21:24.000Z</time>
      </trkpt>
      <trkpt lat="49.46876" lon="-1.56343">
        <ele>39.5</ele>
        <time>2019-04-23T12:21:25.000Z</time>
      </trkpt>
      <trkpt lat="49.46877" lon="-1.56344">
        <ele>39.5</ele>
        <time>2019-04-23T12:21:26.000Z</time>
      </trkpt>
      <trkpt lat="49.46878" lon="-1.56345">
        <ele>39.6</ele>
        <time>2019-04-23T12:21:27.000Z</time>
      </trkpt>
      <trkpt lat="49.4688" lon="-1.56345">
        <ele>39.6</ele>
        <time>2019-04-23T12:21:28.000Z</time>
      </trkpt>
      <trkpt lat="49.46881" lon="-1.56346">
        <ele>39.6</ele>
        <time>2019-04-23T12:21:29.000Z</time>
      </trkpt>
      <trkpt lat="49.46882" lon="-1.56347">
        <ele>39.7</ele>
        <time>2019-04-23T12:21:30.000Z</time>
      </trkpt>
      <trkpt lat="49.46883" lon="-1.56347">
        <ele>39.7</ele>
        <time>2019-04-23T12:21:31.000Z</time>
      </trkpt>
      <trkpt lat="49.46884" lon="-1.56348">
        <ele>39.8</ele>
        <time>2019-04-23T12:21:32.000Z</time>
      </trkpt>
      <trkpt lat="49.46885" lon="-1.56348">
        <ele>39.8</ele>
        <time>2019-04-23T12:21:33.000Z</time>
      </trkpt>
      <trkpt lat="49.46886" lon="-1.56349">
        <ele>39.8</ele>
        <time>2019-04-23T12:21:34.000Z</time>
      </trkpt>
      <trkpt lat="49.46887" lon="-1.56349">
        <ele>39.9</ele>
        <time>2019-04-23T12:21:35.000Z</time>
      </trkpt>
      <trkpt lat="49.46888" lon="-1.56349">
        <ele>39.9</ele>
        <time>2019-04-23T12:21:36.000Z</time>
      </trkpt>
      <trkpt lat="49.4689" lon="-1.56349">
        <ele>40</ele>
        <time>2019-04-23T12:21:37.000Z</time>
      </trkpt>
      <trkpt lat="49.46891" lon="-1.56349">
        <ele>40</ele>
        <time>2019-04-23T12:21:38.000Z</time>
      </trkpt>
      <trkpt lat="49.46892" lon="-1.56349">
        <ele>40.1</ele>
        <time>2019-04-23T12:21:39.000Z</time>
      </trkpt>
      <trkpt lat="49.46893" lon="-1.56348">
        <ele>40.1</ele>
        <time>2019-04-23T12:21:40.000Z</time>
      </trkpt>
      <trkpt lat="49.46894" lon="-1.56348">
        <ele>40.1</ele>
        <time>2019-04-23T12:21:41.000Z</time>
      </trkpt>
      <trkpt lat="49.46895" lon="-1.56347">
        <ele>40.2</ele>
        <time>2019-04-23T12:21:42.000Z</time>
      </trkpt>
      <trkpt lat="49.46896" lon="-1.56347">
        <ele>40.2</ele>
        <time>2019-04-23T12:21:43.000Z</time>
      </trkpt>
      <trkpt lat="49.46897" lon="-1.56346">
        <ele>40.3</ele>
        <time>2019-04-23T12:21:44.000Z</time>
      </trkpt>
      <trkpt lat="49.46899" lon="-1.56345">
        <ele>40.3</ele>
        <time>2019-04-23T12:21:45.000Z</time>
      </trkpt>
      <trkpt lat="49.469" lon="-1.56345">
        <ele>40.4</ele>
        <time>2019-04-23T12:21:46.000Z</time>
      </trkpt>
      <trkpt lat="49.46901" lon="-1.56344">
        <ele>40.4</ele>
        <time>2019-04-23T12:21:47.000Z</time>
      </trkpt>
      <trkpt lat="49.46902" lon="-1.56343">
        <ele>40.4</ele>
        <time>2019-04-23T12:21:48.000Z</time>
      </trkpt>
      <trkpt lat="49.46903" lon="-1.56342">
        <ele>40.5</ele>
        <time>2019-04-23T12:21:49.000Z</time>
      </trkpt>
      <trkpt lat="49.46904" lon="-1.56341">
        <ele>40.5</ele>
        <time>2019-04-23T12:21:50.000Z</time>
      </trkpt>
      <trkpt lat="49.46905" lon="-1.5634">
        <ele>40.6</ele>
        <time>2019-04-23T12:21:51.000Z</time>
      </trkpt>
      <trkpt lat="49.46906" lon="-1.5634">
        <ele>40.6</ele>
        <time>2019-04-23T12:21:52.000Z</time>
      </trkpt>
      <trkpt lat="49.46907" lon="-1.56339">
        <ele>40.7</ele>
        <time>2019-04-23T12:21:53.000Z</time>
      </trkpt>
      <trkpt lat="49.46909" lon="-1.56338">
        <ele>40.7</ele>
        <time>2019-04-23T12:21:54.000Z</time>
      </trkpt>
      <trkpt lat="49.4691" lon="-1.56337">
        <ele>40.7</ele>
        <time>2019-04-23T12:21:55.000Z</time>
      </trkpt>
      <trkpt lat="49.46911" lon="-1.56337">
        <ele>40.8</ele>
        <time>2019-04-23T12:21:56.000Z</time>
      </trkpt>
      <trkpt lat="49.46912" lon="-1.56336">
        <ele>40.8</ele>
        <time>2019-04-23T12:21:57.000Z</time>
      </trkpt>
      <trkpt lat="49.46913" lon="-1.56336">
        <ele>40.9</ele>
        <time>2019-04-23T12:21:58.000Z</time>
      </trkpt>
      <trkpt lat="49.46914" lon="-1.56335">
        <ele>40.9</ele>
        <time>2019-04-23T12:21:59.000Z</time>
      </trkpt>
      <trkpt lat="49.46915" lon="-1.56335">
        <ele>41</ele>
        <time>2019-04-23T12:22:00.000Z</time>
      </trkpt>
      <trkpt lat="49.46916" lon="-1.56335">
        <ele>41</ele>
        <time>2019-04-23T12:22:01.000Z</time>
      </trkpt>
      <trkpt lat="49.46918" lon="-1.56335">
        <ele>41</ele>
        <time>2019-04-23T12:22:02.000Z</time>
      </trkpt>
      <trkpt lat="49.46919" lon="-1.56335">
        <ele>41</ele>
        <time>2019-04-23T12:22:03.000Z</time>
      </trkpt>
      <trkpt lat="49.4692" lon="-1.56334">
        <ele>41.1</ele>
        <time>2019-04-23T12:22:04.000Z</time>
      </trkpt>
      <trkpt lat="49.46921" lon="-1.56334">
        <ele>41.1</ele>
        <time>2019-04-23T12:22:05.000Z</time>
      </trkpt>
      <trkpt lat="49.46922" lon="-1.56334">
        <ele>41.1</ele>
        <time>2019-04-23T12:22:06.000Z</time>
      </trkpt>
      <trkpt lat="49.46923" lon="-1.56334">
        <ele>41.2</ele>
        <time>2019-04-23T12:22:07.000Z</time>
      </trkpt>
      <trkpt lat="49.46924" lon="-1.56334">
        <ele>41.2</ele>
        <time>2019-04-23T12:22:08.000Z</time>
      </trkpt>
      <trkpt lat="49.46926" lon="-1.56334">
        <ele>41.2</ele>
        <time>2019-04-23T12:22:09.000Z</time>
      </trkpt>
      <trkpt lat="49.46927" lon="-1.56334">
        <ele>41.2</ele>
        <time>2019-04-23T12:22:10.000Z</time>
      </trkpt>
      <trkpt lat="49.46928" lon="-1.56334">
        <ele>41.3</ele>
        <time>2019-04-23T12:22:11.000Z</time>
      </trkpt>
      <trkpt lat="49.46929" lon="-1.56334">
        <ele>41.3</ele>
        <time>2019-04-23T12:22:12.000Z</time>
      </trkpt>
      <trkpt lat="49.4693" lon="-1.56334">
        <ele>41.3</ele>
        <time>2019-04-23T12:22:13.000Z</time>
      </trkpt>
      <trkpt lat="49.46931" lon="-1.56333">
        <ele>41.4</ele>
        <time>2019-04-23T12:22:14.000Z</time>
      </trkpt>
      <trkpt lat="49.46933" lon="-1.56333">
        <ele>41.4</ele>
        <time>2019-04-23T12:22:15.000Z</time>
      </trkpt>
      <trkpt lat="49.46934" lon="-1.56333">
        <ele>41.4</ele>
        <time>2019-04-23T12:22:16.000Z</time>
      </trkpt>
      <trkpt lat="49.46935" lon="-1.56333">
        <ele>41.4</ele>
        <time>2019-04-23T12:22:17.000Z</time>
      </trkpt>
      <trkpt lat="49.46936" lon="-1.56332">
        <ele>41.4</ele>
        <time>2019-04-23T12:22:18.000Z</time>
      </trkpt>
      <trkpt lat="49.46937" lon="-1.56332">
        <ele>41.5</ele>
        <time>2019-04-23T12:22:19.000Z</time>
      </trkpt>
      <trkpt lat="49.46939" lon="-1.56332">
        <ele>41.5</ele>
        <time>2019-04-23T12:22:20.000Z</time>
      </trkpt>
      <trkpt lat="49.4694" lon="-1.56332">
        <ele>41.5</ele>
        <time>2019-04-23T12:22:21.000Z</time>
      </trkpt>
      <trkpt lat="49.46941" lon="-1.56331">
        <ele>41.5</ele>
        <time>2019-04-23T12:22:22.000Z</time>
      </trkpt>
      <trkpt lat="49.46942" lon="-1.56331">
        <ele>41.5</ele>
        <time>2019-04-23T12:22:23.000Z</time>
      </trkpt>
      <trkpt lat="49.46944" lon="-1.56331">
        <ele>41.6</ele>
        <time>2019-04-23T12:22:24.000Z</time>
      </trkpt>
      <trkpt lat="49.46945" lon="-1.5633">
        <ele>41.6</ele>
        <time>2019-04-23T12:22:25.000Z</time>
      </trkpt>
      <trkpt lat="49.46946" lon="-1.5633">
        <ele>41.6</ele>
        <time>2019-04-23T12:22:26.000Z</time>
      </trkpt>
      <trkpt lat="49.46948" lon="-1.5633">
        <ele>41.6</ele>
        <time>2019-04-23T12:22:27.000Z</time>
      </trkpt>
      <trkpt lat="49.46949" lon="-1.56329">
        <ele>41.6</ele>
        <time>2019-04-23T12:22:28.000Z</time>
      </trkpt>
      <trkpt lat="49.4695" lon="-1.56329">
        <ele>41.7</ele>
        <time>2019-04-23T12:22:29.000Z</time>
      </trkpt>
      <trkpt lat="49.46952" lon="-1.56329">
        <ele>41.7</ele>
        <time>2019-04-23T12:22:30.000Z</time>
      </trkpt>
      <trkpt lat="49.46953" lon="-1.56328">
        <ele>41.7</ele>
        <time>2019-04-23T12:22:31.000Z</time>
      </trkpt>
      <trkpt lat="49.46954" lon="-1.56328">
        <ele>41.7</ele>
        <time>2019-04-23T12:22:32.000Z</time>
      </trkpt>
      <trkpt lat="49.46956" lon="-1.56328">
        <ele>41.7</ele>
        <time>2019-04-23T12:22:33.000Z</time>
      </trkpt>
      <trkpt lat="49.46957" lon="-1.56328">
        <ele>41.8</ele>
        <time>2019-04-23T12:22:34.000Z</time>
      </trkpt>
      <trkpt lat="49.46959" lon="-1.56328">
        <ele>41.8</ele>
        <time>2019-04-23T12:22:35.000Z</time>
      </trkpt>
      <trkpt lat="49.4696" lon="-1.56327">
        <ele>41.8</ele>
        <time>2019-04-23T12:22:36.000Z</time>
      </trkpt>
      <trkpt lat="49.46961" lon="-1.56327">
        <ele>41.8</ele>
        <time>2019-04-23T12:22:37.000Z</time>
      </trkpt>
      <trkpt lat="49.46963" lon="-1.56327">
        <ele>41.9</ele>
        <time>2019-04-23T12:22:38.000Z</time>
      </trkpt>
      <trkpt lat="49.46964" lon="-1.56327">
        <ele>41.9</ele>
        <time>2019-04-23T12:22:39.000Z</time>
      </trkpt>
      <trkpt lat="49.46965" lon="-1.56327">
        <ele>41.9</ele>
        <time>2019-04-23T12:22:40.000Z</time>
      </trkpt>
      <trkpt lat="49.46967" lon="-1.56326">
        <ele>41.9</ele>
        <time>2019-04-23T12:22:41.000Z</time>
      </trkpt>
      <trkpt lat="49.46968" lon="-1.56326">
        <ele>41.9</ele>
        <time>2019-04-23T12:22:42.000Z</time>
      </trkpt>
      <trkpt lat="49.46969" lon="-1.56326">
        <ele>42</ele>
        <time>2019-04-23T12:22:43.000Z</time>
      </trkpt>
      <trkpt lat="49.4697" lon="-1.56325">
        <ele>42</ele>
        <time>2019-04-23T12:22:44.000Z</time>
      </trkpt>
      <trkpt lat="49.46971" lon="-1.56325">
        <ele>42</ele>
        <time>2019-04-23T12:22:45.000Z</time>
      </trkpt>
      <trkpt lat="49.46973" lon="-1.56325">
        <ele>42</ele>
        <time>2019-04-23T12:22:46.000Z</time>
      </trkpt>
      <trkpt lat="49.46974" lon="-1.56325">
        <ele>42</ele>
        <time>2019-04-23T12:22:47.000Z</time>
      </trkpt>
      <trkpt lat="49.46975" lon="-1.56324">
        <ele>42</ele>
        <time>2019-04-23T12:22:48.000Z</time>
      </trkpt>
      <trkpt lat="49.46976" lon="-1.56324">
        <ele>42</ele>
        <time>2019-04-23T12:22:49.000Z</time>
      </trkpt>
      <trkpt lat="49.46977" lon="-1.56324">
        <ele>42</ele>
        <time>2019-04-23T12:22:50.000Z</time>
      </trkpt>
      <trkpt lat="49.46978" lon="-1.56323">
        <ele>42.1</ele>
        <time>2019-04-23T12:22:51.000Z</time>
      </trkpt>
      <trkpt lat="49.46979" lon="-1.56323">
        <ele>42.1</ele>
        <time>2019-04-23T12:22:52.000Z</time>
      </trkpt>
      <trkpt lat="49.4698" lon="-1.56323">
        <ele>42.1</ele>
        <time>2019-04-23T12:22:53.000Z</time>
      </trkpt>
      <trkpt lat="49.46981" lon="-1.56323">
        <ele>42.1</ele>
        <time>2019-04-23T12:22:54.000Z</time>
      </trkpt>
      <trkpt lat="49.46982" lon="-1.56323">
        <ele>42.1</ele>
        <time>2019-04-23T12:22:55.000Z</time>
      </trkpt>
      <trkpt lat="49.46983" lon="-1.56322">
        <ele>42.1</ele>
        <time>2019-04-23T12:22:56.000Z</time>
      </trkpt>
      <trkpt lat="49.46985" lon="-1.56322">
        <ele>42.1</ele>
        <time>2019-04-23T12:22:57.000Z</time>
      </trkpt>
      <trkpt lat="49.46986" lon="-1.56322">
        <ele>42.1</ele>
        <time>2019-04-23T12:22:58.000Z</time>
      </trkpt>
      <trkpt lat="49.46987" lon="-1.56321">
        <ele>42.2</ele>
        <time>2019-04-23T12:22:59.000Z</time>
      </trkpt>
      <trkpt lat="49.46989" lon="-1.56321">
        <ele>42.2</ele>
        <time>2019-04-23T12:23:00.000Z</time>
      </trkpt>
      <trkpt lat="49.4699" lon="-1.56321">
        <ele>42.2</ele>
        <time>2019-04-23T12:23:01.000Z</time>
      </trkpt>
      <trkpt lat="49.46991" lon="-1.56321">
        <ele>42.2</ele>
        <time>2019-04-23T12:23:02.000Z</time>
      </trkpt>
      <trkpt lat="49.46993" lon="-1.5632">
        <ele>42.2</ele>
        <time>2019-04-23T12:23:03.000Z</time>
      </trkpt>
      <trkpt lat="49.46994" lon="-1.5632">
        <ele>42.2</ele>
        <time>2019-04-23T12:23:04.000Z</time>
      </trkpt>
      <trkpt lat="49.46995" lon="-1.5632">
        <ele>42.3</ele>
        <time>2019-04-23T12:23:05.000Z</time>
      </trkpt>
      <trkpt lat="49.46997" lon="-1.56319">
        <ele>42.3</ele>
        <time>2019-04-23T12:23:06.000Z</time>
      </trkpt>
      <trkpt lat="49.46998" lon="-1.56319">
        <ele>42.3</ele>
        <time>2019-04-23T12:23:07.000Z</time>
      </trkpt>
      <trkpt lat="49.46999" lon="-1.56319">
        <ele>42.3</ele>
        <time>2019-04-23T12:23:08.000Z</time>
      </trkpt>
      <trkpt lat="49.47001" lon="-1.56319">
        <ele>42.3</ele>
        <time>2019-04-23T12:23:09.000Z</time>
      </trkpt>
      <trkpt lat="49.47002" lon="-1.56318">
        <ele>42.3</ele>
        <time>2019-04-23T12:23:10.000Z</time>
      </trkpt>
      <trkpt lat="49.47003" lon="-1.56318">
        <ele>42.3</ele>
        <time>2019-04-23T12:23:11.000Z</time>
      </trkpt>
      <trkpt lat="49.47005" lon="-1.56318">
        <ele>42.3</ele>
        <time>2019-04-23T12:23:12.000Z</time>
      </trkpt>
      <trkpt lat="49.47006" lon="-1.56318">
        <ele>42.2</ele>
        <time>2019-04-23T12:23:13.000Z</time>
      </trkpt>
      <trkpt lat="49.47007" lon="-1.56318">
        <ele>42.2</ele>
        <time>2019-04-23T12:23:14.000Z</time>
      </trkpt>
      <trkpt lat="49.47008" lon="-1.56317">
        <ele>42.2</ele>
        <time>2019-04-23T12:23:15.000Z</time>
      </trkpt>
      <trkpt lat="49.47009" lon="-1.56317">
        <ele>42.2</ele>
        <time>2019-04-23T12:23:16.000Z</time>
      </trkpt>
      <trkpt lat="49.47011" lon="-1.56317">
        <ele>42.2</ele>
        <time>2019-04-23T12:23:17.000Z</time>
      </trkpt>
      <trkpt lat="49.47012" lon="-1.56317">
        <ele>42.2</ele>
        <time>2019-04-23T12:23:18.000Z</time>
      </trkpt>
      <trkpt lat="49.47013" lon="-1.56317">
        <ele>42.2</ele>
        <time>2019-04-23T12:23:19.000Z</time>
      </trkpt>
      <trkpt lat="49.47014" lon="-1.56316">
        <ele>42.2</ele>
        <time>2019-04-23T12:23:20.000Z</time>
      </trkpt>
      <trkpt lat="49.47015" lon="-1.56316">
        <ele>42.2</ele>
        <time>2019-04-23T12:23:21.000Z</time>
      </trkpt>
      <trkpt lat="49.47017" lon="-1.56316">
        <ele>42.2</ele>
        <time>2019-04-23T12:23:22.000Z</time>
      </trkpt>
      <trkpt lat="49.47018" lon="-1.56316">
        <ele>42.1</ele>
        <time>2019-04-23T12:23:23.000Z</time>
      </trkpt>
      <trkpt lat="49.47019" lon="-1.56315">
        <ele>42.1</ele>
        <time>2019-04-23T12:23:24.000Z</time>
      </trkpt>
      <trkpt lat="49.4702" lon="-1.56315">
        <ele>42.1</ele>
        <time>2019-04-23T12:23:25.000Z</time>
      </trkpt>
      <trkpt lat="49.47022" lon="-1.56315">
        <ele>42.1</ele>
        <time>2019-04-23T12:23:26.000Z</time>
      </trkpt>
      <trkpt lat="49.47023" lon="-1.56315">
        <ele>42.1</ele>
        <time>2019-04-23T12:23:27.000Z</time>
      </trkpt>
      <trkpt lat="49.47024" lon="-1.56314">
        <ele>42.1</ele>
        <time>2019-04-23T12:23:28.000Z</time>
      </trkpt>
      <trkpt lat="49.47025" lon="-1.56314">
        <ele>42.1</ele>
        <time>2019-04-23T12:23:29.000Z</time>
      </trkpt>
      <trkpt lat="49.47027" lon="-1.56314">
        <ele>42.1</ele>
        <time>2019-04-23T12:23:30.000Z</time>
      </trkpt>
      <trkpt lat="49.47028" lon="-1.56314">
        <ele>42.1</ele>
        <time>2019-04-23T12:23:31.000Z</time>
      </trkpt>
      <trkpt lat="49.47029" lon="-1.56313">
        <ele>42</ele>
        <time>2019-04-23T12:23:32.000Z</time>
      </trkpt>
      <trkpt lat="49.4703" lon="-1.56313">
        <ele>42</ele>
        <time>2019-04-23T12:23:33.000Z</time>
      </trkpt>
      <trkpt lat="49.47032" lon="-1.56313">
        <ele>42</ele>
        <time>2019-04-23T12:23:34.000Z</time>
      </trkpt>
      <trkpt lat="49.47033" lon="-1.56313">
        <ele>42</ele>
        <time>2019-04-23T12:23:35.000Z</time>
      </trkpt>
      <trkpt lat="49.47034" lon="-1.56312">
        <ele>42</ele>
        <time>2019-04-23T12:23:36.000Z</time>
      </trkpt>
      <trkpt lat="49.47035" lon="-1.56312">
        <ele>42</ele>
        <time>2019-04-23T12:23:37.000Z</time>
      </trkpt>
      <trkpt lat="49.47037" lon="-1.56312">
        <ele>42</ele>
        <time>2019-04-23T12:23:38.000Z</time>
      </trkpt>
      <trkpt lat="49.47038" lon="-1.56311">
        <ele>41.9</ele>
        <time>2019-04-23T12:23:39.000Z</time>
      </trkpt>
      <trkpt lat="49.47039" lon="-1.56311">
        <ele>41.9</ele>
        <time>2019-04-23T12:23:40.000Z</time>
      </trkpt>
      <trkpt lat="49.4704" lon="-1.56311">
        <ele>41.9</ele>
        <time>2019-04-23T12:23:41.000Z</time>
      </trkpt>
      <trkpt lat="49.47042" lon="-1.5631">
        <ele>41.9</ele>
        <time>2019-04-23T12:23:42.000Z</time>
      </trkpt>
      <trkpt lat="49.47043" lon="-1.5631">
        <ele>41.9</ele>
        <time>2019-04-23T12:23:43.000Z</time>
      </trkpt>
      <trkpt lat="49.47044" lon="-1.5631">
        <ele>41.9</ele>
        <time>2019-04-23T12:23:44.000Z</time>
      </trkpt>
      <trkpt lat="49.47045" lon="-1.56309">
        <ele>41.9</ele>
        <time>2019-04-23T12:23:45.000Z</time>
      </trkpt>
      <trkpt lat="49.47046" lon="-1.56309">
        <ele>41.8</ele>
        <time>2019-04-23T12:23:46.000Z</time>
      </trkpt>
      <trkpt lat="49.47048" lon="-1.56309">
        <ele>41.8</ele>
        <time>2019-04-23T12:23:47.000Z</time>
      </trkpt>
      <trkpt lat="49.47049" lon="-1.56308">
        <ele>41.8</ele>
        <time>2019-04-23T12:23:48.000Z</time>
      </trkpt>
      <trkpt lat="49.4705" lon="-1.56308">
        <ele>41.8</ele>
        <time>2019-04-23T12:23:49.000Z</time>
      </trkpt>
      <trkpt lat="49.47051" lon="-1.56308">
        <ele>41.8</ele>
        <time>2019-04-23T12:23:50.000Z</time>
      </trkpt>
      <trkpt lat="49.47052" lon="-1.56307">
        <ele>41.8</ele>
        <time>2019-04-23T12:23:51.000Z</time>
      </trkpt>
      <trkpt lat="49.47053" lon="-1.56307">
        <ele>41.7</ele>
        <time>2019-04-23T12:23:52.000Z</time>
      </trkpt>
      <trkpt lat="49.47055" lon="-1.56307">
        <ele>41.7</ele>
        <time>2019-04-23T12:23:53.000Z</time>
      </trkpt>
      <trkpt lat="49.47056" lon="-1.56306">
        <ele>41.7</ele>
        <time>2019-04-23T12:23:54.000Z</time>
      </trkpt>
      <trkpt lat="49.47057" lon="-1.56306">
        <ele>41.7</ele>
        <time>2019-04-23T12:23:55.000Z</time>
      </trkpt>
      <trkpt lat="49.47058" lon="-1.56306">
        <ele>41.7</ele>
        <time>2019-04-23T12:23:56.000Z</time>
      </trkpt>
      <trkpt lat="49.47059" lon="-1.56305">
        <ele>41.6</ele>
        <time>2019-04-23T12:23:57.000Z</time>
      </trkpt>
      <trkpt lat="49.4706" lon="-1.56305">
        <ele>41.6</ele>
        <time>2019-04-23T12:23:58.000Z</time>
      </trkpt>
      <trkpt lat="49.47061" lon="-1.56305">
        <ele>41.6</ele>
        <time>2019-04-23T12:23:59.000Z</time>
      </trkpt>
      <trkpt lat="49.47062" lon="-1.56304">
        <ele>41.6</ele>
        <time>2019-04-23T12:24:00.000Z</time>
      </trkpt>
      <trkpt lat="49.47063" lon="-1.56304">
        <ele>41.6</ele>
        <time>2019-04-23T12:24:01.000Z</time>
      </trkpt>
      <trkpt lat="49.47064" lon="-1.56303">
        <ele>41.6</ele>
        <time>2019-04-23T12:24:02.000Z</time>
      </trkpt>
      <trkpt lat="49.47066" lon="-1.56303">
        <ele>41.5</ele>
        <time>2019-04-23T12:24:03.000Z</time>
      </trkpt>
      <trkpt lat="49.47067" lon="-1.56303">
        <ele>41.5</ele>
        <time>2019-04-23T12:24:04.000Z</time>
      </trkpt>
      <trkpt lat="49.47068" lon="-1.56303">
        <ele>41.5</ele>
        <time>2019-04-23T12:24:05.000Z</time>
      </trkpt>
      <trkpt lat="49.47069" lon="-1.56302">
        <ele>41.5</ele>
        <time>2019-04-23T12:24:06.000Z</time>
      </trkpt>
      <trkpt lat="49.4707" lon="-1.56302">
        <ele>41.5</ele>
        <time>2019-04-23T12:24:07.000Z</time>
      </trkpt>
      <trkpt lat="49.47072" lon="-1.56302">
        <ele>41.5</ele>
        <time>2019-04-23T12:24:08.000Z</time>
      </trkpt>
      <trkpt lat="49.47073" lon="-1.56302">
        <ele>41.5</ele>
        <time>2019-04-23T12:24:09.000Z</time>
      </trkpt>
      <trkpt lat="49.47074" lon="-1.56302">
        <ele>41.5</ele>
        <time>2019-04-23T12:24:10.000Z</time>
      </trkpt>
      <trkpt lat="49.47076" lon="-1.56302">
        <ele>41.5</ele>
        <time>2019-04-23T12:24:11.000Z</time>
      </trkpt>
      <trkpt lat="49.47077" lon="-1.56301">
        <ele>41.5</ele>
        <time>2019-04-23T12:24:12.000Z</time>
      </trkpt>
      <trkpt lat="49.47078" lon="-1.56301">
        <ele>41.5</ele>
        <time>2019-04-23T12:24:13.000Z</time>
      </trkpt>
      <trkpt lat="49.47079" lon="-1.56301">
        <ele>41.4</ele>
        <time>2019-04-23T12:24:14.000Z</time>
      </trkpt>
      <trkpt lat="49.47081" lon="-1.56301">
        <ele>41.4</ele>
        <time>2019-04-23T12:24:15.000Z</time>
      </trkpt>
      <trkpt lat="49.47082" lon="-1.56301">
        <ele>41.4</ele>
        <time>2019-04-23T12:24:16.000Z</time>
      </trkpt>
      <trkpt lat="49.47083" lon="-1.56301">
        <ele>41.4</ele>
        <time>2019-04-23T12:24:17.000Z</time>
      </trkpt>
      <trkpt lat="49.47084" lon="-1.563">
        <ele>41.4</ele>
        <time>2019-04-23T12:24:18.000Z</time>
      </trkpt>
      <trkpt lat="49.47085" lon="-1.563">
        <ele>41.4</ele>
        <time>2019-04-23T12:24:19.000Z</time>
      </trkpt>
      <trkpt lat="49.47087" lon="-1.563">
        <ele>41.4</ele>
        <time>2019-04-23T12:24:20.000Z</time>
      </trkpt>
      <trkpt lat="49.47088" lon="-1.563">
        <ele>41.3</ele>
        <time>2019-04-23T12:24:21.000Z</time>
      </trkpt>
      <trkpt lat="49.47089" lon="-1.56299">
        <ele>41.3</ele>
        <time>2019-04-23T12:24:22.000Z</time>
      </trkpt>
      <trkpt lat="49.4709" lon="-1.56299">
        <ele>41.3</ele>
        <time>2019-04-23T12:24:23.000Z</time>
      </trkpt>
      <trkpt lat="49.47091" lon="-1.56299">
        <ele>41.3</ele>
        <time>2019-04-23T12:24:24.000Z</time>
      </trkpt>
      <trkpt lat="49.47092" lon="-1.56298">
        <ele>41.3</ele>
        <time>2019-04-23T12:24:25.000Z</time>
      </trkpt>
      <trkpt lat="49.47093" lon="-1.56298">
        <ele>41.2</ele>
        <time>2019-04-23T12:24:26.000Z</time>
      </trkpt>
      <trkpt lat="49.47094" lon="-1.56298">
        <ele>41.2</ele>
        <time>2019-04-23T12:24:27.000Z</time>
      </trkpt>
      <trkpt lat="49.47095" lon="-1.56297">
        <ele>41.2</ele>
        <time>2019-04-23T12:24:28.000Z</time>
      </trkpt>
      <trkpt lat="49.47096" lon="-1.56297">
        <ele>41.2</ele>
        <time>2019-04-23T12:24:29.000Z</time>
      </trkpt>
      <trkpt lat="49.47097" lon="-1.56297">
        <ele>41.1</ele>
        <time>2019-04-23T12:24:30.000Z</time>
      </trkpt>
      <trkpt lat="49.47098" lon="-1.56297">
        <ele>41.1</ele>
        <time>2019-04-23T12:24:31.000Z</time>
      </trkpt>
      <trkpt lat="49.47099" lon="-1.56296">
        <ele>41.1</ele>
        <time>2019-04-23T12:24:32.000Z</time>
      </trkpt>
      <trkpt lat="49.47101" lon="-1.56296">
        <ele>41.1</ele>
        <time>2019-04-23T12:24:33.000Z</time>
      </trkpt>
      <trkpt lat="49.47102" lon="-1.56296">
        <ele>41.1</ele>
        <time>2019-04-23T12:24:34.000Z</time>
      </trkpt>
      <trkpt lat="49.47103" lon="-1.56295">
        <ele>41</ele>
        <time>2019-04-23T12:24:35.000Z</time>
      </trkpt>
      <trkpt lat="49.47105" lon="-1.56295">
        <ele>41</ele>
        <time>2019-04-23T12:24:36.000Z</time>
      </trkpt>
      <trkpt lat="49.47106" lon="-1.56295">
        <ele>41</ele>
        <time>2019-04-23T12:24:37.000Z</time>
      </trkpt>
      <trkpt lat="49.47108" lon="-1.56295">
        <ele>41</ele>
        <time>2019-04-23T12:24:38.000Z</time>
      </trkpt>
      <trkpt lat="49.47109" lon="-1.56294">
        <ele>41</ele>
        <time>2019-04-23T12:24:39.000Z</time>
      </trkpt>
      <trkpt lat="49.4711" lon="-1.56294">
        <ele>40.9</ele>
        <time>2019-04-23T12:24:40.000Z</time>
      </trkpt>
      <trkpt lat="49.47112" lon="-1.56293">
        <ele>40.9</ele>
        <time>2019-04-23T12:24:41.000Z</time>
      </trkpt>
      <trkpt lat="49.47113" lon="-1.56293">
        <ele>40.9</ele>
        <time>2019-04-23T12:24:42.000Z</time>
      </trkpt>
      <trkpt lat="49.47114" lon="-1.56292">
        <ele>40.8</ele>
        <time>2019-04-23T12:24:43.000Z</time>
      </trkpt>
      <trkpt lat="49.47115" lon="-1.56292">
        <ele>40.8</ele>
        <time>2019-04-23T12:24:44.000Z</time>
      </trkpt>
      <trkpt lat="49.47116" lon="-1.56291">
        <ele>40.8</ele>
        <time>2019-04-23T12:24:45.000Z</time>
      </trkpt>
      <trkpt lat="49.47117" lon="-1.5629">
        <ele>40.7</ele>
        <time>2019-04-23T12:24:46.000Z</time>
      </trkpt>
      <trkpt lat="49.47119" lon="-1.5629">
        <ele>40.7</ele>
        <time>2019-04-23T12:24:47.000Z</time>
      </trkpt>
      <trkpt lat="49.4712" lon="-1.56289">
        <ele>40.7</ele>
        <time>2019-04-23T12:24:48.000Z</time>
      </trkpt>
      <trkpt lat="49.47121" lon="-1.56289">
        <ele>40.6</ele>
        <time>2019-04-23T12:24:49.000Z</time>
      </trkpt>
      <trkpt lat="49.47122" lon="-1.56288">
        <ele>40.6</ele>
        <time>2019-04-23T12:24:50.000Z</time>
      </trkpt>
      <trkpt lat="49.47123" lon="-1.56288">
        <ele>40.6</ele>
        <time>2019-04-23T12:24:51.000Z</time>
      </trkpt>
      <trkpt lat="49.47124" lon="-1.56287">
        <ele>40.6</ele>
        <time>2019-04-23T12:24:52.000Z</time>
      </trkpt>
      <trkpt lat="49.47126" lon="-1.56287">
        <ele>40.5</ele>
        <time>2019-04-23T12:24:53.000Z</time>
      </trkpt>
      <trkpt lat="49.47127" lon="-1.56286">
        <ele>40.5</ele>
        <time>2019-04-23T12:24:54.000Z</time>
      </trkpt>
      <trkpt lat="49.47128" lon="-1.56286">
        <ele>40.5</ele>
        <time>2019-04-23T12:24:55.000Z</time>
      </trkpt>
      <trkpt lat="49.47129" lon="-1.56285">
        <ele>40.5</ele>
        <time>2019-04-23T12:24:56.000Z</time>
      </trkpt>
      <trkpt lat="49.47131" lon="-1.56285">
        <ele>40.4</ele>
        <time>2019-04-23T12:24:57.000Z</time>
      </trkpt>
      <trkpt lat="49.47132" lon="-1.56285">
        <ele>40.4</ele>
        <time>2019-04-23T12:24:58.000Z</time>
      </trkpt>
      <trkpt lat="49.47133" lon="-1.56284">
        <ele>40.4</ele>
        <time>2019-04-23T12:24:59.000Z</time>
      </trkpt>
      <trkpt lat="49.47134" lon="-1.56284">
        <ele>40.4</ele>
        <time>2019-04-23T12:25:00.000Z</time>
      </trkpt>
      <trkpt lat="49.47136" lon="-1.56283">
        <ele>40.3</ele>
        <time>2019-04-23T12:25:01.000Z</time>
      </trkpt>
      <trkpt lat="49.47137" lon="-1.56283">
        <ele>40.3</ele>
        <time>2019-04-23T12:25:02.000Z</time>
      </trkpt>
      <trkpt lat="49.47138" lon="-1.56282">
        <ele>40.3</ele>
        <time>2019-04-23T12:25:03.000Z</time>
      </trkpt>
      <trkpt lat="49.47139" lon="-1.56282">
        <ele>40.3</ele>
        <time>2019-04-23T12:25:04.000Z</time>
      </trkpt>
      <trkpt lat="49.4714" lon="-1.56282">
        <ele>40.3</ele>
        <time>2019-04-23T12:25:05.000Z</time>
      </trkpt>
      <trkpt lat="49.47141" lon="-1.56281">
        <ele>40.2</ele>
        <time>2019-04-23T12:25:06.000Z</time>
      </trkpt>
      <trkpt lat="49.47143" lon="-1.56281">
        <ele>40.2</ele>
        <time>2019-04-23T12:25:07.000Z</time>
      </trkpt>
      <trkpt lat="49.47144" lon="-1.5628">
        <ele>40.2</ele>
        <time>2019-04-23T12:25:08.000Z</time>
      </trkpt>
      <trkpt lat="49.47145" lon="-1.56279">
        <ele>40.2</ele>
        <time>2019-04-23T12:25:09.000Z</time>
      </trkpt>
      <trkpt lat="49.47146" lon="-1.56279">
        <ele>40.1</ele>
        <time>2019-04-23T12:25:10.000Z</time>
      </trkpt>
      <trkpt lat="49.47147" lon="-1.56278">
        <ele>40.1</ele>
        <time>2019-04-23T12:25:11.000Z</time>
      </trkpt>
      <trkpt lat="49.47148" lon="-1.56278">
        <ele>40.1</ele>
        <time>2019-04-23T12:25:12.000Z</time>
      </trkpt>
      <trkpt lat="49.47149" lon="-1.56277">
        <ele>40</ele>
        <time>2019-04-23T12:25:13.000Z</time>
      </trkpt>
      <trkpt lat="49.4715" lon="-1.56277">
        <ele>40</ele>
        <time>2019-04-23T12:25:14.000Z</time>
      </trkpt>
      <trkpt lat="49.47151" lon="-1.56276">
        <ele>40</ele>
        <time>2019-04-23T12:25:15.000Z</time>
      </trkpt>
      <trkpt lat="49.47152" lon="-1.56276">
        <ele>40</ele>
        <time>2019-04-23T12:25:16.000Z</time>
      </trkpt>
      <trkpt lat="49.47153" lon="-1.56275">
        <ele>40</ele>
        <time>2019-04-23T12:25:17.000Z</time>
      </trkpt>
      <trkpt lat="49.47154" lon="-1.56275">
        <ele>39.9</ele>
        <time>2019-04-23T12:25:18.000Z</time>
      </trkpt>
      <trkpt lat="49.47155" lon="-1.56274">
        <ele>39.9</ele>
        <time>2019-04-23T12:25:19.000Z</time>
      </trkpt>
      <trkpt lat="49.47157" lon="-1.56273">
        <ele>39.9</ele>
        <time>2019-04-23T12:25:20.000Z</time>
      </trkpt>
      <trkpt lat="49.47158" lon="-1.56272">
        <ele>39.8</ele>
        <time>2019-04-23T12:25:21.000Z</time>
      </trkpt>
      <trkpt lat="49.47159" lon="-1.5627">
        <ele>39.8</ele>
        <time>2019-04-23T12:25:22.000Z</time>
      </trkpt>
      <trkpt lat="49.4716" lon="-1.56269">
        <ele>39.7</ele>
        <time>2019-04-23T12:25:23.000Z</time>
      </trkpt>
      <trkpt lat="49.47161" lon="-1.56267">
        <ele>39.6</ele>
        <time>2019-04-23T12:25:24.000Z</time>
      </trkpt>
      <trkpt lat="49.47161" lon="-1.56265">
        <ele>39.6</ele>
        <time>2019-04-23T12:25:25.000Z</time>
      </trkpt>
      <trkpt lat="49.47161" lon="-1.56263">
        <ele>39.5</ele>
        <time>2019-04-23T12:25:26.000Z</time>
      </trkpt>
      <trkpt lat="49.47162" lon="-1.56261">
        <ele>39.4</ele>
        <time>2019-04-23T12:25:27.000Z</time>
      </trkpt>
      <trkpt lat="49.47161" lon="-1.56259">
        <ele>39.3</ele>
        <time>2019-04-23T12:25:28.000Z</time>
      </trkpt>
      <trkpt lat="49.47161" lon="-1.56257">
        <ele>39.3</ele>
        <time>2019-04-23T12:25:29.000Z</time>
      </trkpt>
      <trkpt lat="49.47161" lon="-1.56256">
        <ele>39.2</ele>
        <time>2019-04-23T12:25:30.000Z</time>
      </trkpt>
      <trkpt lat="49.47161" lon="-1.56254">
        <ele>39.1</ele>
        <time>2019-04-23T12:25:31.000Z</time>
      </trkpt>
      <trkpt lat="49.4716" lon="-1.56252">
        <ele>39.1</ele>
        <time>2019-04-23T12:25:32.000Z</time>
      </trkpt>
      <trkpt lat="49.4716" lon="-1.5625">
        <ele>39</ele>
        <time>2019-04-23T12:25:33.000Z</time>
      </trkpt>
      <trkpt lat="49.4716" lon="-1.56248">
        <ele>38.9</ele>
        <time>2019-04-23T12:25:34.000Z</time>
      </trkpt>
      <trkpt lat="49.4716" lon="-1.56246">
        <ele>38.8</ele>
        <time>2019-04-23T12:25:35.000Z</time>
      </trkpt>
      <trkpt lat="49.4716" lon="-1.56244">
        <ele>38.7</ele>
        <time>2019-04-23T12:25:36.000Z</time>
      </trkpt>
      <trkpt lat="49.4716" lon="-1.56242">
        <ele>38.6</ele>
        <time>2019-04-23T12:25:37.000Z</time>
      </trkpt>
      <trkpt lat="49.4716" lon="-1.5624">
        <ele>38.5</ele>
        <time>2019-04-23T12:25:38.000Z</time>
      </trkpt>
      <trkpt lat="49.4716" lon="-1.56239">
        <ele>38.4</ele>
        <time>2019-04-23T12:25:39.000Z</time>
      </trkpt>
      <trkpt lat="49.4716" lon="-1.56237">
        <ele>38.3</ele>
        <time>2019-04-23T12:25:40.000Z</time>
      </trkpt>
      <trkpt lat="49.4716" lon="-1.56235">
        <ele>38.2</ele>
        <time>2019-04-23T12:25:41.000Z</time>
      </trkpt>
      <trkpt lat="49.47159" lon="-1.56233">
        <ele>38.1</ele>
        <time>2019-04-23T12:25:42.000Z</time>
      </trkpt>
      <trkpt lat="49.47159" lon="-1.56231">
        <ele>38.1</ele>
        <time>2019-04-23T12:25:43.000Z</time>
      </trkpt>
      <trkpt lat="49.47159" lon="-1.56229">
        <ele>38</ele>
        <time>2019-04-23T12:25:44.000Z</time>
      </trkpt>
      <trkpt lat="49.47159" lon="-1.56227">
        <ele>37.9</ele>
        <time>2019-04-23T12:25:45.000Z</time>
      </trkpt>
      <trkpt lat="49.47159" lon="-1.56225">
        <ele>37.8</ele>
        <time>2019-04-23T12:25:46.000Z</time>
      </trkpt>
      <trkpt lat="49.47158" lon="-1.56223">
        <ele>37.7</ele>
        <time>2019-04-23T12:25:47.000Z</time>
      </trkpt>
      <trkpt lat="49.47158" lon="-1.56221">
        <ele>37.6</ele>
        <time>2019-04-23T12:25:48.000Z</time>
      </trkpt>
      <trkpt lat="49.47158" lon="-1.56219">
        <ele>37.5</ele>
        <time>2019-04-23T12:25:49.000Z</time>
      </trkpt>
      <trkpt lat="49.47158" lon="-1.56217">
        <ele>37.4</ele>
        <time>2019-04-23T12:25:50.000Z</time>
      </trkpt>
      <trkpt lat="49.47157" lon="-1.56216">
        <ele>37.3</ele>
        <time>2019-04-23T12:25:51.000Z</time>
      </trkpt>
      <trkpt lat="49.47157" lon="-1.56214">
        <ele>37.2</ele>
        <time>2019-04-23T12:25:52.000Z</time>
      </trkpt>
      <trkpt lat="49.47157" lon="-1.56212">
        <ele>37.1</ele>
        <time>2019-04-23T12:25:53.000Z</time>
      </trkpt>
      <trkpt lat="49.47157" lon="-1.5621">
        <ele>37</ele>
        <time>2019-04-23T12:25:54.000Z</time>
      </trkpt>
      <trkpt lat="49.47157" lon="-1.56208">
        <ele>36.9</ele>
        <time>2019-04-23T12:25:55.000Z</time>
      </trkpt>
      <trkpt lat="49.47157" lon="-1.56206">
        <ele>36.8</ele>
        <time>2019-04-23T12:25:56.000Z</time>
      </trkpt>
      <trkpt lat="49.47156" lon="-1.56205">
        <ele>36.7</ele>
        <time>2019-04-23T12:25:57.000Z</time>
      </trkpt>
      <trkpt lat="49.47156" lon="-1.56203">
        <ele>36.7</ele>
        <time>2019-04-23T12:25:58.000Z</time>
      </trkpt>
      <trkpt lat="49.47156" lon="-1.56201">
        <ele>36.6</ele>
        <time>2019-04-23T12:25:59.000Z</time>
      </trkpt>
      <trkpt lat="49.47156" lon="-1.56199">
        <ele>36.5</ele>
        <time>2019-04-23T12:26:00.000Z</time>
      </trkpt>
      <trkpt lat="49.47156" lon="-1.56197">
        <ele>36.4</ele>
        <time>2019-04-23T12:26:01.000Z</time>
      </trkpt>
      <trkpt lat="49.47157" lon="-1.56196">
        <ele>36.3</ele>
        <time>2019-04-23T12:26:02.000Z</time>
      </trkpt>
      <trkpt lat="49.47157" lon="-1.56194">
        <ele>36.2</ele>
        <time>2019-04-23T12:26:03.000Z</time>
      </trkpt>
      <trkpt lat="49.47157" lon="-1.56192">
        <ele>36.1</ele>
        <time>2019-04-23T12:26:04.000Z</time>
      </trkpt>
      <trkpt lat="49.47157" lon="-1.5619">
        <ele>36</ele>
        <time>2019-04-23T12:26:05.000Z</time>
      </trkpt>
      <trkpt lat="49.47157" lon="-1.56188">
        <ele>36</ele>
        <time>2019-04-23T12:26:06.000Z</time>
      </trkpt>
      <trkpt lat="49.47157" lon="-1.56186">
        <ele>35.9</ele>
        <time>2019-04-23T12:26:07.000Z</time>
      </trkpt>
      <trkpt lat="49.47157" lon="-1.56185">
        <ele>35.8</ele>
        <time>2019-04-23T12:26:08.000Z</time>
      </trkpt>
      <trkpt lat="49.47157" lon="-1.56183">
        <ele>35.7</ele>
        <time>2019-04-23T12:26:09.000Z</time>
      </trkpt>
      <trkpt lat="49.47157" lon="-1.56181">
        <ele>35.6</ele>
        <time>2019-04-23T12:26:10.000Z</time>
      </trkpt>
      <trkpt lat="49.47156" lon="-1.56179">
        <ele>35.5</ele>
        <time>2019-04-23T12:26:11.000Z</time>
      </trkpt>
      <trkpt lat="49.47156" lon="-1.56177">
        <ele>35.4</ele>
        <time>2019-04-23T12:26:12.000Z</time>
      </trkpt>
      <trkpt lat="49.47156" lon="-1.56175">
        <ele>35.3</ele>
        <time>2019-04-23T12:26:13.000Z</time>
      </trkpt>
      <trkpt lat="49.47156" lon="-1.56173">
        <ele>35.2</ele>
        <time>2019-04-23T12:26:14.000Z</time>
      </trkpt>
      <trkpt lat="49.47156" lon="-1.56171">
        <ele>35.1</ele>
        <time>2019-04-23T12:26:15.000Z</time>
      </trkpt>
      <trkpt lat="49.47156" lon="-1.56169">
        <ele>35</ele>
        <time>2019-04-23T12:26:16.000Z</time>
      </trkpt>
      <trkpt lat="49.47155" lon="-1.56167">
        <ele>34.9</ele>
        <time>2019-04-23T12:26:17.000Z</time>
      </trkpt>
      <trkpt lat="49.47155" lon="-1.56165">
        <ele>34.8</ele>
        <time>2019-04-23T12:26:18.000Z</time>
      </trkpt>
      <trkpt lat="49.47155" lon="-1.56163">
        <ele>34.8</ele>
        <time>2019-04-23T12:26:19.000Z</time>
      </trkpt>
      <trkpt lat="49.47155" lon="-1.56161">
        <ele>34.8</ele>
        <time>2019-04-23T12:26:20.000Z</time>
      </trkpt>
      <trkpt lat="49.47155" lon="-1.56159">
        <ele>34.7</ele>
        <time>2019-04-23T12:26:21.000Z</time>
      </trkpt>
      <trkpt lat="49.47155" lon="-1.56157">
        <ele>34.7</ele>
        <time>2019-04-23T12:26:22.000Z</time>
      </trkpt>
      <trkpt lat="49.47155" lon="-1.56156">
        <ele>34.7</ele>
        <time>2019-04-23T12:26:23.000Z</time>
      </trkpt>
      <trkpt lat="49.47155" lon="-1.56154">
        <ele>34.7</ele>
        <time>2019-04-23T12:26:24.000Z</time>
      </trkpt>
      <trkpt lat="49.47155" lon="-1.56152">
        <ele>34.6</ele>
        <time>2019-04-23T12:26:25.000Z</time>
      </trkpt>
      <trkpt lat="49.47155" lon="-1.5615">
        <ele>34.6</ele>
        <time>2019-04-23T12:26:26.000Z</time>
      </trkpt>
      <trkpt lat="49.47155" lon="-1.56148">
        <ele>34.6</ele>
        <time>2019-04-23T12:26:27.000Z</time>
      </trkpt>
      <trkpt lat="49.47155" lon="-1.56146">
        <ele>34.5</ele>
        <time>2019-04-23T12:26:28.000Z</time>
      </trkpt>
      <trkpt lat="49.47154" lon="-1.56144">
        <ele>34.5</ele>
        <time>2019-04-23T12:26:29.000Z</time>
      </trkpt>
      <trkpt lat="49.47154" lon="-1.56142">
        <ele>34.5</ele>
        <time>2019-04-23T12:26:30.000Z</time>
      </trkpt>
      <trkpt lat="49.47154" lon="-1.5614">
        <ele>34.4</ele>
        <time>2019-04-23T12:26:31.000Z</time>
      </trkpt>
      <trkpt lat="49.47154" lon="-1.56139">
        <ele>34.4</ele>
        <time>2019-04-23T12:26:32.000Z</time>
      </trkpt>
      <trkpt lat="49.47154" lon="-1.56137">
        <ele>34.4</ele>
        <time>2019-04-23T12:26:33.000Z</time>
      </trkpt>
      <trkpt lat="49.47154" lon="-1.56135">
        <ele>34.3</ele>
        <time>2019-04-23T12:26:34.000Z</time>
      </trkpt>
      <trkpt lat="49.47154" lon="-1.56133">
        <ele>34.3</ele>
        <time>2019-04-23T12:26:35.000Z</time>
      </trkpt>
      <trkpt lat="49.47153" lon="-1.56131">
        <ele>34.3</ele>
        <time>2019-04-23T12:26:36.000Z</time>
      </trkpt>
      <trkpt lat="49.47153" lon="-1.56129">
        <ele>34.2</ele>
        <time>2019-04-23T12:26:37.000Z</time>
      </trkpt>
      <trkpt lat="49.47153" lon="-1.56127">
        <ele>34.2</ele>
        <time>2019-04-23T12:26:38.000Z</time>
      </trkpt>
      <trkpt lat="49.47153" lon="-1.56125">
        <ele>34.2</ele>
        <time>2019-04-23T12:26:39.000Z</time>
      </trkpt>
      <trkpt lat="49.47152" lon="-1.56123">
        <ele>34.1</ele>
        <time>2019-04-23T12:26:40.000Z</time>
      </trkpt>
      <trkpt lat="49.47152" lon="-1.56121">
        <ele>34.1</ele>
        <time>2019-04-23T12:26:41.000Z</time>
      </trkpt>
      <trkpt lat="49.47152" lon="-1.56119">
        <ele>34</ele>
        <time>2019-04-23T12:26:42.000Z</time>
      </trkpt>
      <trkpt lat="49.47152" lon="-1.56117">
        <ele>34</ele>
        <time>2019-04-23T12:26:43.000Z</time>
      </trkpt>
      <trkpt lat="49.47151" lon="-1.56115">
        <ele>34</ele>
        <time>2019-04-23T12:26:44.000Z</time>
      </trkpt>
      <trkpt lat="49.47151" lon="-1.56113">
        <ele>33.9</ele>
        <time>2019-04-23T12:26:45.000Z</time>
      </trkpt>
      <trkpt lat="49.47151" lon="-1.56111">
        <ele>33.9</ele>
        <time>2019-04-23T12:26:46.000Z</time>
      </trkpt>
      <trkpt lat="49.47151" lon="-1.56109">
        <ele>33.8</ele>
        <time>2019-04-23T12:26:47.000Z</time>
      </trkpt>
      <trkpt lat="49.4715" lon="-1.56107">
        <ele>33.8</ele>
        <time>2019-04-23T12:26:48.000Z</time>
      </trkpt>
      <trkpt lat="49.4715" lon="-1.56105">
        <ele>33.8</ele>
        <time>2019-04-23T12:26:49.000Z</time>
      </trkpt>
      <trkpt lat="49.4715" lon="-1.56103">
        <ele>33.7</ele>
        <time>2019-04-23T12:26:50.000Z</time>
      </trkpt>
      <trkpt lat="49.4715" lon="-1.56101">
        <ele>33.7</ele>
        <time>2019-04-23T12:26:51.000Z</time>
      </trkpt>
      <trkpt lat="49.47149" lon="-1.561">
        <ele>33.7</ele>
        <time>2019-04-23T12:26:52.000Z</time>
      </trkpt>
      <trkpt lat="49.47149" lon="-1.56098">
        <ele>33.6</ele>
        <time>2019-04-23T12:26:53.000Z</time>
      </trkpt>
      <trkpt lat="49.47149" lon="-1.56096">
        <ele>33.6</ele>
        <time>2019-04-23T12:26:54.000Z</time>
      </trkpt>
      <trkpt lat="49.47149" lon="-1.56094">
        <ele>33.5</ele>
        <time>2019-04-23T12:26:55.000Z</time>
      </trkpt>
      <trkpt lat="49.47149" lon="-1.56092">
        <ele>33.5</ele>
        <time>2019-04-23T12:26:56.000Z</time>
      </trkpt>
      <trkpt lat="49.47148" lon="-1.5609">
        <ele>33.5</ele>
        <time>2019-04-23T12:26:57.000Z</time>
      </trkpt>
      <trkpt lat="49.47148" lon="-1.56088">
        <ele>33.4</ele>
        <time>2019-04-23T12:26:58.000Z</time>
      </trkpt>
      <trkpt lat="49.47148" lon="-1.56086">
        <ele>33.4</ele>
        <time>2019-04-23T12:26:59.000Z</time>
      </trkpt>
      <trkpt lat="49.47148" lon="-1.56084">
        <ele>33.3</ele>
        <time>2019-04-23T12:27:00.000Z</time>
      </trkpt>
      <trkpt lat="49.47148" lon="-1.56083">
        <ele>33.3</ele>
        <time>2019-04-23T12:27:01.000Z</time>
      </trkpt>
      <trkpt lat="49.47147" lon="-1.56081">
        <ele>33.2</ele>
        <time>2019-04-23T12:27:02.000Z</time>
      </trkpt>
      <trkpt lat="49.47147" lon="-1.56079">
        <ele>33.1</ele>
        <time>2019-04-23T12:27:03.000Z</time>
      </trkpt>
      <trkpt lat="49.47147" lon="-1.56077">
        <ele>33.1</ele>
        <time>2019-04-23T12:27:04.000Z</time>
      </trkpt>
      <trkpt lat="49.47147" lon="-1.56075">
        <ele>33</ele>
        <time>2019-04-23T12:27:05.000Z</time>
      </trkpt>
      <trkpt lat="49.47147" lon="-1.56074">
        <ele>32.9</ele>
        <time>2019-04-23T12:27:06.000Z</time>
      </trkpt>
      <trkpt lat="49.47147" lon="-1.56072">
        <ele>32.9</ele>
        <time>2019-04-23T12:27:07.000Z</time>
      </trkpt>
      <trkpt lat="49.47147" lon="-1.56071">
        <ele>32.8</ele>
        <time>2019-04-23T12:27:08.000Z</time>
      </trkpt>
      <trkpt lat="49.47147" lon="-1.56071">
        <ele>32.8</ele>
        <time>2019-04-23T12:27:09.000Z</time>
      </trkpt>
      <trkpt lat="49.47147" lon="-1.5607">
        <ele>32.8</ele>
        <time>2019-04-23T12:27:10.000Z</time>
      </trkpt>
      <trkpt lat="49.47147" lon="-1.5607">
        <ele>32.8</ele>
        <time>2019-04-23T12:27:11.000Z</time>
      </trkpt>
      <trkpt lat="49.47147" lon="-1.56069">
        <ele>32.8</ele>
        <time>2019-04-23T12:27:12.000Z</time>
      </trkpt>
      <trkpt lat="49.47147" lon="-1.56069">
        <ele>32.8</ele>
        <time>2019-04-23T12:27:13.000Z</time>
      </trkpt>
      <trkpt lat="49.47147" lon="-1.56069">
        <ele>32.8</ele>
        <time>2019-04-23T12:27:14.000Z</time>
      </trkpt>
      <trkpt lat="49.47147" lon="-1.56069">
        <ele>32.8</ele>
        <time>2019-04-23T12:27:15.000Z</time>
      </trkpt>
      <trkpt lat="49.47147" lon="-1.56069">
        <ele>32.8</ele>
        <time>2019-04-23T12:27:16.000Z</time>
      </trkpt>
      <trkpt lat="49.47147" lon="-1.56069">
        <ele>32.8</ele>
        <time>2019-04-23T12:27:17.000Z</time>
      </trkpt>
      <trkpt lat="49.47147" lon="-1.56069">
        <ele>32.8</ele>
        <time>2019-04-23T12:27:18.000Z</time>
      </trkpt>
      <trkpt lat="49.47147" lon="-1.5607">
        <ele>32.8</ele>
        <time>2019-04-23T12:27:19.000Z</time>
      </trkpt>
      <trkpt lat="49.47147" lon="-1.5607">
        <ele>32.8</ele>
        <time>2019-04-23T12:27:20.000Z</time>
      </trkpt>
      <trkpt lat="49.47147" lon="-1.5607">
        <ele>32.8</ele>
        <time>2019-04-23T12:27:21.000Z</time>
      </trkpt>
      <trkpt lat="49.47147" lon="-1.5607">
        <ele>32.8</ele>
        <time>2019-04-23T12:27:22.000Z</time>
      </trkpt>
      <trkpt lat="49.47147" lon="-1.5607">
        <ele>32.8</ele>
        <time>2019-04-23T12:27:23.000Z</time>
      </trkpt>
      <trkpt lat="49.47147" lon="-1.5607">
        <ele>32.8</ele>
        <time>2019-04-23T12:27:24.000Z</time>
      </trkpt>
      <trkpt lat="49.47147" lon="-1.5607">
        <ele>32.8</ele>
        <time>2019-04-23T12:27:25.000Z</time>
      </trkpt>
      <trkpt lat="49.47147" lon="-1.5607">
        <ele>32.8</ele>
        <time>2019-04-23T12:27:26.000Z</time>
      </trkpt>
      <trkpt lat="49.47147" lon="-1.5607">
        <ele>32.8</ele>
        <time>2019-04-23T12:27:27.000Z</time>
      </trkpt>
      <trkpt lat="49.47147" lon="-1.5607">
        <ele>32.8</ele>
        <time>2019-04-23T12:27:28.000Z</time>
      </trkpt>
      <trkpt lat="49.47147" lon="-1.5607">
        <ele>32.8</ele>
        <time>2019-04-23T12:27:29.000Z</time>
      </trkpt>
      <trkpt lat="49.47147" lon="-1.5607">
        <ele>32.8</ele>
        <time>2019-04-23T12:27:30.000Z</time>
      </trkpt>
      <trkpt lat="49.47147" lon="-1.5607">
        <ele>32.8</ele>
        <time>2019-04-23T12:27:31.000Z</time>
      </trkpt>
      <trkpt lat="49.47147" lon="-1.5607">
        <ele>32.8</ele>
        <time>2019-04-23T12:27:32.000Z</time>
      </trkpt>
      <trkpt lat="49.47147" lon="-1.5607">
        <ele>32.8</ele>
        <time>2019-04-23T12:27:33.000Z</time>
      </trkpt>
      <trkpt lat="49.47147" lon="-1.5607">
        <ele>32.8</ele>
        <time>2019-04-23T12:27:34.000Z</time>
      </trkpt>
      <trkpt lat="49.47147" lon="-1.5607">
        <ele>32.8</ele>
        <time>2019-04-23T12:27:35.000Z</time>
      </trkpt>
      <trkpt lat="49.47147" lon="-1.5607">
        <ele>32.8</ele>
        <time>2019-04-23T12:27:36.000Z</time>
      </trkpt>
      <trkpt lat="49.47147" lon="-1.5607">
        <ele>32.8</ele>
        <time>2019-04-23T12:27:37.000Z</time>
      </trkpt>
      <trkpt lat="49.47147" lon="-1.5607">
        <ele>32.8</ele>
        <time>2019-04-23T12:27:38.000Z</time>
      </trkpt>
      <trkpt lat="49.47147" lon="-1.5607">
        <ele>32.8</ele>
        <time>2019-04-23T12:27:39.000Z</time>
      </trkpt>
      <trkpt lat="49.47147" lon="-1.5607">
        <ele>32.8</ele>
        <time>2019-04-23T12:27:40.000Z</time>
      </trkpt>
      <trkpt lat="49.47147" lon="-1.5607">
        <ele>32.8</ele>
        <time>2019-04-23T12:27:41.000Z</time>
      </trkpt>
      <trkpt lat="49.47147" lon="-1.5607">
        <ele>32.8</ele>
        <time>2019-04-23T12:27:42.000Z</time>
      </trkpt>
      <trkpt lat="49.47147" lon="-1.5607">
        <ele>32.8</ele>
        <time>2019-04-23T12:27:43.000Z</time>
      </trkpt>
      <trkpt lat="49.47147" lon="-1.5607">
        <ele>32.8</ele>
        <time>2019-04-23T12:27:44.000Z</time>
      </trkpt>
      <trkpt lat="49.47147" lon="-1.5607">
        <ele>32.8</ele>
        <time>2019-04-23T12:27:45.000Z</time>
      </trkpt>
      <trkpt lat="49.47147" lon="-1.5607">
        <ele>32.8</ele>
        <time>2019-04-23T12:27:46.000Z</time>
      </trkpt>
      <trkpt lat="49.47147" lon="-1.5607">
        <ele>32.8</ele>
        <time>2019-04-23T12:27:47.000Z</time>
      </trkpt>
      <trkpt lat="49.47147" lon="-1.5607">
        <ele>32.8</ele>
        <time>2019-04-23T12:27:48.000Z</time>
      </trkpt>
      <trkpt lat="49.47147" lon="-1.5607">
        <ele>32.8</ele>
        <time>2019-04-23T12:27:49.000Z</time>
      </trkpt>
      <trkpt lat="49.47147" lon="-1.5607">
        <ele>32.8</ele>
        <time>2019-04-23T12:27:50.000Z</time>
      </trkpt>
      <trkpt lat="49.47147" lon="-1.5607">
        <ele>32.8</ele>
        <time>2019-04-23T12:27:51.000Z</time>
      </trkpt>
      <trkpt lat="49.47147" lon="-1.5607">
        <ele>32.8</ele>
        <time>2019-04-23T12:27:52.000Z</time>
      </trkpt>
      <trkpt lat="49.47147" lon="-1.5607">
        <ele>32.8</ele>
        <time>2019-04-23T12:27:53.000Z</time>
      </trkpt>
      <trkpt lat="49.47147" lon="-1.5607">
        <ele>32.8</ele>
        <time>2019-04-23T12:27:54.000Z</time>
      </trkpt>
      <trkpt lat="49.47147" lon="-1.5607">
        <ele>32.8</ele>
        <time>2019-04-23T12:27:55.000Z</time>
      </trkpt>
      <trkpt lat="49.47147" lon="-1.5607">
        <ele>32.8</ele>
        <time>2019-04-23T12:27:56.000Z</time>
      </trkpt>
      <trkpt lat="49.47147" lon="-1.5607">
        <ele>32.8</ele>
        <time>2019-04-23T12:27:57.000Z</time>
      </trkpt>
      <trkpt lat="49.47147" lon="-1.5607">
        <ele>32.8</ele>
        <time>2019-04-23T12:27:58.000Z</time>
      </trkpt>
      <trkpt lat="49.47147" lon="-1.5607">
        <ele>32.8</ele>
        <time>2019-04-23T12:27:59.000Z</time>
      </trkpt>
      <trkpt lat="49.47147" lon="-1.5607">
        <ele>32.8</ele>
        <time>2019-04-23T12:28:00.000Z</time>
      </trkpt>
      <trkpt lat="49.47147" lon="-1.5607">
        <ele>32.8</ele>
        <time>2019-04-23T12:28:01.000Z</time>
      </trkpt>
      <trkpt lat="49.47147" lon="-1.5607">
        <ele>32.8</ele>
        <time>2019-04-23T12:28:02.000Z</time>
      </trkpt>
      <trkpt lat="49.47147" lon="-1.5607">
        <ele>32.8</ele>
        <time>2019-04-23T12:28:03.000Z</time>
      </trkpt>
      <trkpt lat="49.47147" lon="-1.5607">
        <ele>32.8</ele>
        <time>2019-04-23T12:28:04.000Z</time>
      </trkpt>
      <trkpt lat="49.47147" lon="-1.5607">
        <ele>32.8</ele>
        <time>2019-04-23T12:28:05.000Z</time>
      </trkpt>
      <trkpt lat="49.47147" lon="-1.5607">
        <ele>32.8</ele>
        <time>2019-04-23T12:28:06.000Z</time>
      </trkpt>
      <trkpt lat="49.47147" lon="-1.5607">
        <ele>32.8</ele>
        <time>2019-04-23T12:28:07.000Z</time>
      </trkpt>
      <trkpt lat="49.47147" lon="-1.5607">
        <ele>32.8</ele>
        <time>2019-04-23T12:28:08.000Z</time>
      </trkpt>
      <trkpt lat="49.47147" lon="-1.5607">
        <ele>32.8</ele>
        <time>2019-04-23T12:28:09.000Z</time>
      </trkpt>
      <trkpt lat="49.47147" lon="-1.5607">
        <ele>32.8</ele>
        <time>2019-04-23T12:28:10.000Z</time>
      </trkpt>
      <trkpt lat="49.47147" lon="-1.5607">
        <ele>32.8</ele>
        <time>2019-04-23T12:28:11.000Z</time>
      </trkpt>
      <trkpt lat="49.47147" lon="-1.5607">
        <ele>32.8</ele>
        <time>2019-04-23T12:28:12.000Z</time>
      </trkpt>
      <trkpt lat="49.47147" lon="-1.5607">
        <ele>32.8</ele>
        <time>2019-04-23T12:28:13.000Z</time>
      </trkpt>
      <trkpt lat="49.47147" lon="-1.5607">
        <ele>32.8</ele>
        <time>2019-04-23T12:28:14.000Z</time>
      </trkpt>
      <trkpt lat="49.47147" lon="-1.5607">
        <ele>32.8</ele>
        <time>2019-04-23T12:28:15.000Z</time>
      </trkpt>
      <trkpt lat="49.47147" lon="-1.5607">
        <ele>32.8</ele>
        <time>2019-04-23T12:28:16.000Z</time>
      </trkpt>
      <trkpt lat="49.47147" lon="-1.5607">
        <ele>32.8</ele>
        <time>2019-04-23T12:28:17.000Z</time>
      </trkpt>
      <trkpt lat="49.47147" lon="-1.5607">
        <ele>32.8</ele>
        <time>2019-04-23T12:28:18.000Z</time>
      </trkpt>
      <trkpt lat="49.47147" lon="-1.5607">
        <ele>32.8</ele>
        <time>2019-04-23T12:28:19.000Z</time>
      </trkpt>
      <trkpt lat="49.47147" lon="-1.5607">
        <ele>32.8</ele>
        <time>2019-04-23T12:28:20.000Z</time>
      </trkpt>
      <trkpt lat="49.47147" lon="-1.5607">
        <ele>32.8</ele>
        <time>2019-04-23T12:28:21.000Z</time>
      </trkpt>
      <trkpt lat="49.47147" lon="-1.5607">
        <ele>32.8</ele>
        <time>2019-04-23T12:28:22.000Z</time>
      </trkpt>
      <trkpt lat="49.47147" lon="-1.5607">
        <ele>32.8</ele>
        <time>2019-04-23T12:28:23.000Z</time>
      </trkpt>
      <trkpt lat="49.47147" lon="-1.5607">
        <ele>32.8</ele>
        <time>2019-04-23T12:28:24.000Z</time>
      </trkpt>
      <trkpt lat="49.47147" lon="-1.5607">
        <ele>32.8</ele>
        <time>2019-04-23T12:28:25.000Z</time>
      </trkpt>
      <trkpt lat="49.47147" lon="-1.5607">
        <ele>32.8</ele>
        <time>2019-04-23T12:28:26.000Z</time>
      </trkpt>
      <trkpt lat="49.47147" lon="-1.5607">
        <ele>32.8</ele>
        <time>2019-04-23T12:28:27.000Z</time>
      </trkpt>
      <trkpt lat="49.47147" lon="-1.5607">
        <ele>32.8</ele>
        <time>2019-04-23T12:28:28.000Z</time>
      </trkpt>
      <trkpt lat="49.47147" lon="-1.5607">
        <ele>32.8</ele>
        <time>2019-04-23T12:28:29.000Z</time>
      </trkpt>
      <trkpt lat="49.47147" lon="-1.5607">
        <ele>32.8</ele>
        <time>2019-04-23T12:28:30.000Z</time>
      </trkpt>
      <trkpt lat="49.47147" lon="-1.5607">
        <ele>32.8</ele>
        <time>2019-04-23T12:28:31.000Z</time>
      </trkpt>
      <trkpt lat="49.47147" lon="-1.5607">
        <ele>32.8</ele>
        <time>2019-04-23T12:28:32.000Z</time>
      </trkpt>
      <trkpt lat="49.47147" lon="-1.5607">
        <ele>32.8</ele>
        <time>2019-04-23T12:28:33.000Z</time>
      </trkpt>
      <trkpt lat="49.47147" lon="-1.5607">
        <ele>32.8</ele>
        <time>2019-04-23T12:28:34.000Z</time>
      </trkpt>
      <trkpt lat="49.47147" lon="-1.5607">
        <ele>32.8</ele>
        <time>2019-04-23T12:28:35.000Z</time>
      </trkpt>
      <trkpt lat="49.47147" lon="-1.5607">
        <ele>32.8</ele>
        <time>2019-04-23T12:28:36.000Z</time>
      </trkpt>
      <trkpt lat="49.47147" lon="-1.56069">
        <ele>32.8</ele>
        <time>2019-04-23T12:28:37.000Z</time>
      </trkpt>
      <trkpt lat="49.47147" lon="-1.56069">
        <ele>32.8</ele>
        <time>2019-04-23T12:28:38.000Z</time>
      </trkpt>
      <trkpt lat="49.47147" lon="-1.56068">
        <ele>32.8</ele>
        <time>2019-04-23T12:28:39.000Z</time>
      </trkpt>
      <trkpt lat="49.47148" lon="-1.56067">
        <ele>32.7</ele>
        <time>2019-04-23T12:28:40.000Z</time>
      </trkpt>
      <trkpt lat="49.47148" lon="-1.56066">
        <ele>32.7</ele>
        <time>2019-04-23T12:28:41.000Z</time>
      </trkpt>
      <trkpt lat="49.47149" lon="-1.56065">
        <ele>32.7</ele>
        <time>2019-04-23T12:28:42.000Z</time>
      </trkpt>
      <trkpt lat="49.4715" lon="-1.56064">
        <ele>32.7</ele>
        <time>2019-04-23T12:28:43.000Z</time>
      </trkpt>
      <trkpt lat="49.4715" lon="-1.56063">
        <ele>32.7</ele>
        <time>2019-04-23T12:28:44.000Z</time>
      </trkpt>
      <trkpt lat="49.47151" lon="-1.56062">
        <ele>32.7</ele>
        <time>2019-04-23T12:28:45.000Z</time>
      </trkpt>
      <trkpt lat="49.47151" lon="-1.56061">
        <ele>32.7</ele>
        <time>2019-04-23T12:28:46.000Z</time>
      </trkpt>
      <trkpt lat="49.47152" lon="-1.56061">
        <ele>32.7</ele>
        <time>2019-04-23T12:28:47.000Z</time>
      </trkpt>
      <trkpt lat="49.47153" lon="-1.5606">
        <ele>32.7</ele>
        <time>2019-04-23T12:28:48.000Z</time>
      </trkpt>
      <trkpt lat="49.47154" lon="-1.5606">
        <ele>32.7</ele>
        <time>2019-04-23T12:28:49.000Z</time>
      </trkpt>
      <trkpt lat="49.47155" lon="-1.56059">
        <ele>32.7</ele>
        <time>2019-04-23T12:28:50.000Z</time>
      </trkpt>
      <trkpt lat="49.47156" lon="-1.56059">
        <ele>32.7</ele>
        <time>2019-04-23T12:28:51.000Z</time>
      </trkpt>
      <trkpt lat="49.47157" lon="-1.56058">
        <ele>32.8</ele>
        <time>2019-04-23T12:28:52.000Z</time>
      </trkpt>
      <trkpt lat="49.47158" lon="-1.56058">
        <ele>32.8</ele>
        <time>2019-04-23T12:28:53.000Z</time>
      </trkpt>
      <trkpt lat="49.47159" lon="-1.56058">
        <ele>32.8</ele>
        <time>2019-04-23T12:28:54.000Z</time>
      </trkpt>
      <trkpt lat="49.47159" lon="-1.56058">
        <ele>32.8</ele>
        <time>2019-04-23T12:28:55.000Z</time>
      </trkpt>
      <trkpt lat="49.4716" lon="-1.56057">
        <ele>32.8</ele>
        <time>2019-04-23T12:28:56.000Z</time>
      </trkpt>
      <trkpt lat="49.4716" lon="-1.56057">
        <ele>32.8</ele>
        <time>2019-04-23T12:28:57.000Z</time>
      </trkpt>
      <trkpt lat="49.47161" lon="-1.56057">
        <ele>32.8</ele>
        <time>2019-04-23T12:28:58.000Z</time>
      </trkpt>
      <trkpt lat="49.47161" lon="-1.56057">
        <ele>32.8</ele>
        <time>2019-04-23T12:28:59.000Z</time>
      </trkpt>
      <trkpt lat="49.47161" lon="-1.56057">
        <ele>32.9</ele>
        <time>2019-04-23T12:29:00.000Z</time>
      </trkpt>
      <trkpt lat="49.47161" lon="-1.56057">
        <ele>32.9</ele>
        <time>2019-04-23T12:29:01.000Z</time>
      </trkpt>
      <trkpt lat="49.47161" lon="-1.56057">
        <ele>32.9</ele>
        <time>2019-04-23T12:29:02.000Z</time>
      </trkpt>
      <trkpt lat="49.47161" lon="-1.56057">
        <ele>32.9</ele>
        <time>2019-04-23T12:29:03.000Z</time>
      </trkpt>
      <trkpt lat="49.47161" lon="-1.56057">
        <ele>32.9</ele>
        <time>2019-04-23T12:29:04.000Z</time>
      </trkpt>
      <trkpt lat="49.47161" lon="-1.56057">
        <ele>32.9</ele>
        <time>2019-04-23T12:29:05.000Z</time>
      </trkpt>
      <trkpt lat="49.47161" lon="-1.56057">
        <ele>32.9</ele>
        <time>2019-04-23T12:29:06.000Z</time>
      </trkpt>
      <trkpt lat="49.47161" lon="-1.56057">
        <ele>32.9</ele>
        <time>2019-04-23T12:29:07.000Z</time>
      </trkpt>
      <trkpt lat="49.47161" lon="-1.56057">
        <ele>32.9</ele>
        <time>2019-04-23T12:29:08.000Z</time>
      </trkpt>
      <trkpt lat="49.47161" lon="-1.56057">
        <ele>32.9</ele>
        <time>2019-04-23T12:29:09.000Z</time>
      </trkpt>
      <trkpt lat="49.47161" lon="-1.56057">
        <ele>32.9</ele>
        <time>2019-04-23T12:29:10.000Z</time>
      </trkpt>
      <trkpt lat="49.47161" lon="-1.56057">
        <ele>32.9</ele>
        <time>2019-04-23T12:29:11.000Z</time>
      </trkpt>
      <trkpt lat="49.47161" lon="-1.56057">
        <ele>32.9</ele>
        <time>2019-04-23T12:29:12.000Z</time>
      </trkpt>
      <trkpt lat="49.47161" lon="-1.56057">
        <ele>32.9</ele>
        <time>2019-04-23T12:29:13.000Z</time>
      </trkpt>
      <trkpt lat="49.47161" lon="-1.56057">
        <ele>32.9</ele>
        <time>2019-04-23T12:29:14.000Z</time>
      </trkpt>
      <trkpt lat="49.47162" lon="-1.56057">
        <ele>32.9</ele>
        <time>2019-04-23T12:29:15.000Z</time>
      </trkpt>
      <trkpt lat="49.47162" lon="-1.56057">
        <ele>32.9</ele>
        <time>2019-04-23T12:29:16.000Z</time>
      </trkpt>
      <trkpt lat="49.47162" lon="-1.56058">
        <ele>32.9</ele>
        <time>2019-04-23T12:29:17.000Z</time>
      </trkpt>
      <trkpt lat="49.47162" lon="-1.56058">
        <ele>32.9</ele>
        <time>2019-04-23T12:29:18.000Z</time>
      </trkpt>
      <trkpt lat="49.47163" lon="-1.56058">
        <ele>32.9</ele>
        <time>2019-04-23T12:29:19.000Z</time>
      </trkpt>
      <trkpt lat="49.47163" lon="-1.56058">
        <ele>32.9</ele>
        <time>2019-04-23T12:29:20.000Z</time>
      </trkpt>
      <trkpt lat="49.47164" lon="-1.56057">
        <ele>32.9</ele>
        <time>2019-04-23T12:29:21.000Z</time>
      </trkpt>
      <trkpt lat="49.47164" lon="-1.56056">
        <ele>32.9</ele>
        <time>2019-04-23T12:29:22.000Z</time>
      </trkpt>
      <trkpt lat="49.47165" lon="-1.56055">
        <ele>32.9</ele>
        <time>2019-04-23T12:29:23.000Z</time>
      </trkpt>
      <trkpt lat="49.47166" lon="-1.56053">
        <ele>32.9</ele>
        <time>2019-04-23T12:29:24.000Z</time>
      </trkpt>
      <trkpt lat="49.47167" lon="-1.56052">
        <ele>32.9</ele>
        <time>2019-04-23T12:29:25.000Z</time>
      </trkpt>
      <trkpt lat="49.47168" lon="-1.5605">
        <ele>32.8</ele>
        <time>2019-04-23T12:29:26.000Z</time>
      </trkpt>
      <trkpt lat="49.47169" lon="-1.56048">
        <ele>32.8</ele>
        <time>2019-04-23T12:29:27.000Z</time>
      </trkpt>
      <trkpt lat="49.4717" lon="-1.56047">
        <ele>32.8</ele>
        <time>2019-04-23T12:29:28.000Z</time>
      </trkpt>
      <trkpt lat="49.47171" lon="-1.56046">
        <ele>32.8</ele>
        <time>2019-04-23T12:29:29.000Z</time>
      </trkpt>
      <trkpt lat="49.47172" lon="-1.56044">
        <ele>32.7</ele>
        <time>2019-04-23T12:29:30.000Z</time>
      </trkpt>
      <trkpt lat="49.47173" lon="-1.56043">
        <ele>32.7</ele>
        <time>2019-04-23T12:29:31.000Z</time>
      </trkpt>
      <trkpt lat="49.47174" lon="-1.56042">
        <ele>32.7</ele>
        <time>2019-04-23T12:29:32.000Z</time>
      </trkpt>
      <trkpt lat="49.47174" lon="-1.56041">
        <ele>32.7</ele>
        <time>2019-04-23T12:29:33.000Z</time>
      </trkpt>
      <trkpt lat="49.47175" lon="-1.5604">
        <ele>32.7</ele>
        <time>2019-04-23T12:29:34.000Z</time>
      </trkpt>
      <trkpt lat="49.47176" lon="-1.56039">
        <ele>32.7</ele>
        <time>2019-04-23T12:29:35.000Z</time>
      </trkpt>
      <trkpt lat="49.47178" lon="-1.56039">
        <ele>32.7</ele>
        <time>2019-04-23T12:29:36.000Z</time>
      </trkpt>
      <trkpt lat="49.47179" lon="-1.56038">
        <ele>32.7</ele>
        <time>2019-04-23T12:29:37.000Z</time>
      </trkpt>
      <trkpt lat="49.4718" lon="-1.56037">
        <ele>32.7</ele>
        <time>2019-04-23T12:29:38.000Z</time>
      </trkpt>
      <trkpt lat="49.47181" lon="-1.56037">
        <ele>32.8</ele>
        <time>2019-04-23T12:29:39.000Z</time>
      </trkpt>
      <trkpt lat="49.47182" lon="-1.56036">
        <ele>32.8</ele>
        <time>2019-04-23T12:29:40.000Z</time>
      </trkpt>
      <trkpt lat="49.47183" lon="-1.56035">
        <ele>32.8</ele>
        <time>2019-04-23T12:29:41.000Z</time>
      </trkpt>
      <trkpt lat="49.47185" lon="-1.56035">
        <ele>32.8</ele>
        <time>2019-04-23T12:29:42.000Z</time>
      </trkpt>
      <trkpt lat="49.47186" lon="-1.56034">
        <ele>32.8</ele>
        <time>2019-04-23T12:29:43.000Z</time>
      </trkpt>
      <trkpt lat="49.47187" lon="-1.56033">
        <ele>32.8</ele>
        <time>2019-04-23T12:29:44.000Z</time>
      </trkpt>
      <trkpt lat="49.47188" lon="-1.56032">
        <ele>32.8</ele>
        <time>2019-04-23T12:29:45.000Z</time>
      </trkpt>
      <trkpt lat="49.47189" lon="-1.56031">
        <ele>32.8</ele>
        <time>2019-04-23T12:29:46.000Z</time>
      </trkpt>
      <trkpt lat="49.4719" lon="-1.5603">
        <ele>32.8</ele>
        <time>2019-04-23T12:29:47.000Z</time>
      </trkpt>
      <trkpt lat="49.47191" lon="-1.56029">
        <ele>32.8</ele>
        <time>2019-04-23T12:29:48.000Z</time>
      </trkpt>
      <trkpt lat="49.47192" lon="-1.56028">
        <ele>32.8</ele>
        <time>2019-04-23T12:29:49.000Z</time>
      </trkpt>
      <trkpt lat="49.47193" lon="-1.56028">
        <ele>32.8</ele>
        <time>2019-04-23T12:29:50.000Z</time>
      </trkpt>
      <trkpt lat="49.47195" lon="-1.56027">
        <ele>32.9</ele>
        <time>2019-04-23T12:29:51.000Z</time>
      </trkpt>
      <trkpt lat="49.47196" lon="-1.56026">
        <ele>32.9</ele>
        <time>2019-04-23T12:29:52.000Z</time>
      </trkpt>
      <trkpt lat="49.47197" lon="-1.56025">
        <ele>32.9</ele>
        <time>2019-04-23T12:29:53.000Z</time>
      </trkpt>
      <trkpt lat="49.47198" lon="-1.56024">
        <ele>32.9</ele>
        <time>2019-04-23T12:29:54.000Z</time>
      </trkpt>
      <trkpt lat="49.47199" lon="-1.56023">
        <ele>32.9</ele>
        <time>2019-04-23T12:29:55.000Z</time>
      </trkpt>
      <trkpt lat="49.472" lon="-1.56022">
        <ele>32.9</ele>
        <time>2019-04-23T12:29:56.000Z</time>
      </trkpt>
      <trkpt lat="49.47201" lon="-1.56021">
        <ele>32.9</ele>
        <time>2019-04-23T12:29:57.000Z</time>
      </trkpt>
      <trkpt lat="49.47202" lon="-1.56021">
        <ele>32.9</ele>
        <time>2019-04-23T12:29:58.000Z</time>
      </trkpt>
      <trkpt lat="49.47203" lon="-1.5602">
        <ele>32.9</ele>
        <time>2019-04-23T12:29:59.000Z</time>
      </trkpt>
      <trkpt lat="49.47204" lon="-1.56019">
        <ele>32.9</ele>
        <time>2019-04-23T12:30:00.000Z</time>
      </trkpt>
      <trkpt lat="49.47205" lon="-1.56018">
        <ele>32.9</ele>
        <time>2019-04-23T12:30:01.000Z</time>
      </trkpt>
      <trkpt lat="49.47206" lon="-1.56018">
        <ele>33</ele>
        <time>2019-04-23T12:30:02.000Z</time>
      </trkpt>
      <trkpt lat="49.47207" lon="-1.56017">
        <ele>33</ele>
        <time>2019-04-23T12:30:03.000Z</time>
      </trkpt>
      <trkpt lat="49.47208" lon="-1.56016">
        <ele>33</ele>
        <time>2019-04-23T12:30:04.000Z</time>
      </trkpt>
      <trkpt lat="49.47209" lon="-1.56015">
        <ele>33</ele>
        <time>2019-04-23T12:30:05.000Z</time>
      </trkpt>
      <trkpt lat="49.47211" lon="-1.56014">
        <ele>33</ele>
        <time>2019-04-23T12:30:06.000Z</time>
      </trkpt>
      <trkpt lat="49.47212" lon="-1.56014">
        <ele>33</ele>
        <time>2019-04-23T12:30:07.000Z</time>
      </trkpt>
      <trkpt lat="49.47213" lon="-1.56013">
        <ele>33</ele>
        <time>2019-04-23T12:30:08.000Z</time>
      </trkpt>
      <trkpt lat="49.47214" lon="-1.56012">
        <ele>33.1</ele>
        <time>2019-04-23T12:30:09.000Z</time>
      </trkpt>
      <trkpt lat="49.47215" lon="-1.56011">
        <ele>33.1</ele>
        <time>2019-04-23T12:30:10.000Z</time>
      </trkpt>
      <trkpt lat="49.47216" lon="-1.56011">
        <ele>33.1</ele>
        <time>2019-04-23T12:30:11.000Z</time>
      </trkpt>
      <trkpt lat="49.47218" lon="-1.5601">
        <ele>33.1</ele>
        <time>2019-04-23T12:30:12.000Z</time>
      </trkpt>
      <trkpt lat="49.47219" lon="-1.56009">
        <ele>33.1</ele>
        <time>2019-04-23T12:30:13.000Z</time>
      </trkpt>
      <trkpt lat="49.4722" lon="-1.56008">
        <ele>33.2</ele>
        <time>2019-04-23T12:30:14.000Z</time>
      </trkpt>
      <trkpt lat="49.47221" lon="-1.56008">
        <ele>33.2</ele>
        <time>2019-04-23T12:30:15.000Z</time>
      </trkpt>
      <trkpt lat="49.47222" lon="-1.56007">
        <ele>33.2</ele>
        <time>2019-04-23T12:30:16.000Z</time>
      </trkpt>
      <trkpt lat="49.47223" lon="-1.56006">
        <ele>33.2</ele>
        <time>2019-04-23T12:30:17.000Z</time>
      </trkpt>
      <trkpt lat="49.47224" lon="-1.56006">
        <ele>33.2</ele>
        <time>2019-04-23T12:30:18.000Z</time>
      </trkpt>
      <trkpt lat="49.47225" lon="-1.56005">
        <ele>33.3</ele>
        <time>2019-04-23T12:30:19.000Z</time>
      </trkpt>
      <trkpt lat="49.47227" lon="-1.56004">
        <ele>33.3</ele>
        <time>2019-04-23T12:30:20.000Z</time>
      </trkpt>
      <trkpt lat="49.47228" lon="-1.56004">
        <ele>33.3</ele>
        <time>2019-04-23T12:30:21.000Z</time>
      </trkpt>
      <trkpt lat="49.47229" lon="-1.56003">
        <ele>33.3</ele>
        <time>2019-04-23T12:30:22.000Z</time>
      </trkpt>
      <trkpt lat="49.4723" lon="-1.56003">
        <ele>33.3</ele>
        <time>2019-04-23T12:30:23.000Z</time>
      </trkpt>
      <trkpt lat="49.4723" lon="-1.56003">
        <ele>33.4</ele>
        <time>2019-04-23T12:30:24.000Z</time>
      </trkpt>
      <trkpt lat="49.47231" lon="-1.56002">
        <ele>33.4</ele>
        <time>2019-04-23T12:30:25.000Z</time>
      </trkpt>
      <trkpt lat="49.47232" lon="-1.56002">
        <ele>33.4</ele>
        <time>2019-04-23T12:30:26.000Z</time>
      </trkpt>
      <trkpt lat="49.47233" lon="-1.56002">
        <ele>33.4</ele>
        <time>2019-04-23T12:30:27.000Z</time>
      </trkpt>
      <trkpt lat="49.47234" lon="-1.56002">
        <ele>33.5</ele>
        <time>2019-04-23T12:30:28.000Z</time>
      </trkpt>
      <trkpt lat="49.47234" lon="-1.56002">
        <ele>33.5</ele>
        <time>2019-04-23T12:30:29.000Z</time>
      </trkpt>
      <trkpt lat="49.47235" lon="-1.56002">
        <ele>33.5</ele>
        <time>2019-04-23T12:30:30.000Z</time>
      </trkpt>
      <trkpt lat="49.47236" lon="-1.56001">
        <ele>33.5</ele>
        <time>2019-04-23T12:30:31.000Z</time>
      </trkpt>
      <trkpt lat="49.47237" lon="-1.56001">
        <ele>33.6</ele>
        <time>2019-04-23T12:30:32.000Z</time>
      </trkpt>
      <trkpt lat="49.47239" lon="-1.56">
        <ele>33.6</ele>
        <time>2019-04-23T12:30:33.000Z</time>
      </trkpt>
      <trkpt lat="49.4724" lon="-1.55999">
        <ele>33.6</ele>
        <time>2019-04-23T12:30:34.000Z</time>
      </trkpt>
      <trkpt lat="49.47241" lon="-1.55998">
        <ele>33.6</ele>
        <time>2019-04-23T12:30:35.000Z</time>
      </trkpt>
      <trkpt lat="49.47242" lon="-1.55997">
        <ele>33.6</ele>
        <time>2019-04-23T12:30:36.000Z</time>
      </trkpt>
      <trkpt lat="49.47244" lon="-1.55997">
        <ele>33.6</ele>
        <time>2019-04-23T12:30:37.000Z</time>
      </trkpt>
      <trkpt lat="49.47245" lon="-1.55996">
        <ele>33.7</ele>
        <time>2019-04-23T12:30:38.000Z</time>
      </trkpt>
      <trkpt lat="49.47246" lon="-1.55995">
        <ele>33.7</ele>
        <time>2019-04-23T12:30:39.000Z</time>
      </trkpt>
      <trkpt lat="49.47247" lon="-1.55993">
        <ele>33.7</ele>
        <time>2019-04-23T12:30:40.000Z</time>
      </trkpt>
      <trkpt lat="49.47248" lon="-1.55992">
        <ele>33.7</ele>
        <time>2019-04-23T12:30:41.000Z</time>
      </trkpt>
      <trkpt lat="49.47249" lon="-1.55991">
        <ele>33.7</ele>
        <time>2019-04-23T12:30:42.000Z</time>
      </trkpt>
      <trkpt lat="49.4725" lon="-1.5599">
        <ele>33.7</ele>
        <time>2019-04-23T12:30:43.000Z</time>
      </trkpt>
      <trkpt lat="49.47251" lon="-1.55989">
        <ele>33.6</ele>
        <time>2019-04-23T12:30:44.000Z</time>
      </trkpt>
      <trkpt lat="49.47252" lon="-1.55988">
        <ele>33.6</ele>
        <time>2019-04-23T12:30:45.000Z</time>
      </trkpt>
      <trkpt lat="49.47253" lon="-1.55987">
        <ele>33.5</ele>
        <time>2019-04-23T12:30:46.000Z</time>
      </trkpt>
      <trkpt lat="49.47254" lon="-1.55986">
        <ele>33.5</ele>
        <time>2019-04-23T12:30:47.000Z</time>
      </trkpt>
      <trkpt lat="49.47255" lon="-1.55985">
        <ele>33.5</ele>
        <time>2019-04-23T12:30:48.000Z</time>
      </trkpt>
      <trkpt lat="49.47256" lon="-1.55984">
        <ele>33.4</ele>
        <time>2019-04-23T12:30:49.000Z</time>
      </trkpt>
      <trkpt lat="49.47257" lon="-1.55983">
        <ele>33.4</ele>
        <time>2019-04-23T12:30:50.000Z</time>
      </trkpt>
      <trkpt lat="49.47258" lon="-1.55981">
        <ele>33.4</ele>
        <time>2019-04-23T12:30:51.000Z</time>
      </trkpt>
      <trkpt lat="49.47259" lon="-1.5598">
        <ele>33.3</ele>
        <time>2019-04-23T12:30:52.000Z</time>
      </trkpt>
      <trkpt lat="49.4726" lon="-1.55979">
        <ele>33.3</ele>
        <time>2019-04-23T12:30:53.000Z</time>
      </trkpt>
      <trkpt lat="49.47261" lon="-1.55978">
        <ele>33.3</ele>
        <time>2019-04-23T12:30:54.000Z</time>
      </trkpt>
      <trkpt lat="49.47262" lon="-1.55977">
        <ele>33.3</ele>
        <time>2019-04-23T12:30:55.000Z</time>
      </trkpt>
      <trkpt lat="49.47263" lon="-1.55976">
        <ele>33.2</ele>
        <time>2019-04-23T12:30:56.000Z</time>
      </trkpt>
      <trkpt lat="49.47264" lon="-1.55975">
        <ele>33.2</ele>
        <time>2019-04-23T12:30:57.000Z</time>
      </trkpt>
      <trkpt lat="49.47265" lon="-1.55974">
        <ele>33.2</ele>
        <time>2019-04-23T12:30:58.000Z</time>
      </trkpt>
      <trkpt lat="49.47266" lon="-1.55973">
        <ele>33.1</ele>
        <time>2019-04-23T12:30:59.000Z</time>
      </trkpt>
      <trkpt lat="49.47267" lon="-1.55972">
        <ele>33.1</ele>
        <time>2019-04-23T12:31:00.000Z</time>
      </trkpt>
      <trkpt lat="49.47268" lon="-1.55971">
        <ele>33.1</ele>
        <time>2019-04-23T12:31:01.000Z</time>
      </trkpt>
      <trkpt lat="49.47269" lon="-1.55969">
        <ele>33.1</ele>
        <time>2019-04-23T12:31:02.000Z</time>
      </trkpt>
      <trkpt lat="49.4727" lon="-1.55968">
        <ele>33</ele>
        <time>2019-04-23T12:31:03.000Z</time>
      </trkpt>
      <trkpt lat="49.47271" lon="-1.55967">
        <ele>33</ele>
        <time>2019-04-23T12:31:04.000Z</time>
      </trkpt>
      <trkpt lat="49.47272" lon="-1.55966">
        <ele>33</ele>
        <time>2019-04-23T12:31:05.000Z</time>
      </trkpt>
      <trkpt lat="49.47273" lon="-1.55965">
        <ele>33</ele>
        <time>2019-04-23T12:31:06.000Z</time>
      </trkpt>
      <trkpt lat="49.47274" lon="-1.55964">
        <ele>33</ele>
        <time>2019-04-23T12:31:07.000Z</time>
      </trkpt>
      <trkpt lat="49.47275" lon="-1.55963">
        <ele>32.9</ele>
        <time>2019-04-23T12:31:08.000Z</time>
      </trkpt>
      <trkpt lat="49.47276" lon="-1.55962">
        <ele>32.9</ele>
        <time>2019-04-23T12:31:09.000Z</time>
      </trkpt>
      <trkpt lat="49.47277" lon="-1.55961">
        <ele>32.9</ele>
        <time>2019-04-23T12:31:10.000Z</time>
      </trkpt>
      <trkpt lat="49.47278" lon="-1.5596">
        <ele>32.9</ele>
        <time>2019-04-23T12:31:11.000Z</time>
      </trkpt>
      <trkpt lat="49.47279" lon="-1.55959">
        <ele>32.9</ele>
        <time>2019-04-23T12:31:12.000Z</time>
      </trkpt>
      <trkpt lat="49.47281" lon="-1.55957">
        <ele>32.8</ele>
        <time>2019-04-23T12:31:13.000Z</time>
      </trkpt>
      <trkpt lat="49.47282" lon="-1.55956">
        <ele>32.8</ele>
        <time>2019-04-23T12:31:14.000Z</time>
      </trkpt>
      <trkpt lat="49.47283" lon="-1.55955">
        <ele>32.8</ele>
        <time>2019-04-23T12:31:15.000Z</time>
      </trkpt>
      <trkpt lat="49.47284" lon="-1.55954">
        <ele>32.8</ele>
        <time>2019-04-23T12:31:16.000Z</time>
      </trkpt>
      <trkpt lat="49.47285" lon="-1.55953">
        <ele>32.8</ele>
        <time>2019-04-23T12:31:17.000Z</time>
      </trkpt>
      <trkpt lat="49.47286" lon="-1.55952">
        <ele>32.8</ele>
        <time>2019-04-23T12:31:18.000Z</time>
      </trkpt>
      <trkpt lat="49.47287" lon="-1.55951">
        <ele>32.8</ele>
        <time>2019-04-23T12:31:19.000Z</time>
      </trkpt>
      <trkpt lat="49.47288" lon="-1.5595">
        <ele>32.7</ele>
        <time>2019-04-23T12:31:20.000Z</time>
      </trkpt>
      <trkpt lat="49.47289" lon="-1.55949">
        <ele>32.7</ele>
        <time>2019-04-23T12:31:21.000Z</time>
      </trkpt>
      <trkpt lat="49.4729" lon="-1.55947">
        <ele>32.7</ele>
        <time>2019-04-23T12:31:22.000Z</time>
      </trkpt>
      <trkpt lat="49.47291" lon="-1.55946">
        <ele>32.7</ele>
        <time>2019-04-23T12:31:23.000Z</time>
      </trkpt>
      <trkpt lat="49.47292" lon="-1.55945">
        <ele>32.7</ele>
        <time>2019-04-23T12:31:24.000Z</time>
      </trkpt>
      <trkpt lat="49.47293" lon="-1.55944">
        <ele>32.7</ele>
        <time>2019-04-23T12:31:25.000Z</time>
      </trkpt>
      <trkpt lat="49.47294" lon="-1.55943">
        <ele>32.7</ele>
        <time>2019-04-23T12:31:26.000Z</time>
      </trkpt>
      <trkpt lat="49.47295" lon="-1.55942">
        <ele>32.7</ele>
        <time>2019-04-23T12:31:27.000Z</time>
      </trkpt>
      <trkpt lat="49.47296" lon="-1.55941">
        <ele>32.7</ele>
        <time>2019-04-23T12:31:28.000Z</time>
      </trkpt>
      <trkpt lat="49.47297" lon="-1.55939">
        <ele>32.6</ele>
        <time>2019-04-23T12:31:29.000Z</time>
      </trkpt>
      <trkpt lat="49.47298" lon="-1.55938">
        <ele>32.6</ele>
        <time>2019-04-23T12:31:30.000Z</time>
      </trkpt>
      <trkpt lat="49.473" lon="-1.55937">
        <ele>32.6</ele>
        <time>2019-04-23T12:31:31.000Z</time>
      </trkpt>
      <trkpt lat="49.47301" lon="-1.55936">
        <ele>32.6</ele>
        <time>2019-04-23T12:31:32.000Z</time>
      </trkpt>
      <trkpt lat="49.47302" lon="-1.55935">
        <ele>32.6</ele>
        <time>2019-04-23T12:31:33.000Z</time>
      </trkpt>
      <trkpt lat="49.47303" lon="-1.55933">
        <ele>32.6</ele>
        <time>2019-04-23T12:31:34.000Z</time>
      </trkpt>
      <trkpt lat="49.47304" lon="-1.55932">
        <ele>32.6</ele>
        <time>2019-04-23T12:31:35.000Z</time>
      </trkpt>
      <trkpt lat="49.47305" lon="-1.55931">
        <ele>32.6</ele>
        <time>2019-04-23T12:31:36.000Z</time>
      </trkpt>
      <trkpt lat="49.47306" lon="-1.5593">
        <ele>32.6</ele>
        <time>2019-04-23T12:31:37.000Z</time>
      </trkpt>
      <trkpt lat="49.47306" lon="-1.55928">
        <ele>32.6</ele>
        <time>2019-04-23T12:31:38.000Z</time>
      </trkpt>
      <trkpt lat="49.47307" lon="-1.55927">
        <ele>32.6</ele>
        <time>2019-04-23T12:31:39.000Z</time>
      </trkpt>
      <trkpt lat="49.47308" lon="-1.55926">
        <ele>32.6</ele>
        <time>2019-04-23T12:31:40.000Z</time>
      </trkpt>
      <trkpt lat="49.47309" lon="-1.55924">
        <ele>32.6</ele>
        <time>2019-04-23T12:31:41.000Z</time>
      </trkpt>
      <trkpt lat="49.4731" lon="-1.55923">
        <ele>32.6</ele>
        <time>2019-04-23T12:31:42.000Z</time>
      </trkpt>
      <trkpt lat="49.47311" lon="-1.55922">
        <ele>32.6</ele>
        <time>2019-04-23T12:31:43.000Z</time>
      </trkpt>
      <trkpt lat="49.47312" lon="-1.55921">
        <ele>32.6</ele>
        <time>2019-04-23T12:31:44.000Z</time>
      </trkpt>
      <trkpt lat="49.47313" lon="-1.55919">
        <ele>32.6</ele>
        <time>2019-04-23T12:31:45.000Z</time>
      </trkpt>
      <trkpt lat="49.47314" lon="-1.55918">
        <ele>32.6</ele>
        <time>2019-04-23T12:31:46.000Z</time>
      </trkpt>
      <trkpt lat="49.47314" lon="-1.55917">
        <ele>32.6</ele>
        <time>2019-04-23T12:31:47.000Z</time>
      </trkpt>
      <trkpt lat="49.47315" lon="-1.55916">
        <ele>32.6</ele>
        <time>2019-04-23T12:31:48.000Z</time>
      </trkpt>
      <trkpt lat="49.47316" lon="-1.55915">
        <ele>32.6</ele>
        <time>2019-04-23T12:31:49.000Z</time>
      </trkpt>
      <trkpt lat="49.47317" lon="-1.55914">
        <ele>32.6</ele>
        <time>2019-04-23T12:31:50.000Z</time>
      </trkpt>
      <trkpt lat="49.47318" lon="-1.55913">
        <ele>32.6</ele>
        <time>2019-04-23T12:31:51.000Z</time>
      </trkpt>
      <trkpt lat="49.47319" lon="-1.55913">
        <ele>32.6</ele>
        <time>2019-04-23T12:31:52.000Z</time>
      </trkpt>
      <trkpt lat="49.4732" lon="-1.55912">
        <ele>32.6</ele>
        <time>2019-04-23T12:31:53.000Z</time>
      </trkpt>
      <trkpt lat="49.47321" lon="-1.55911">
        <ele>32.6</ele>
        <time>2019-04-23T12:31:54.000Z</time>
      </trkpt>
      <trkpt lat="49.47322" lon="-1.5591">
        <ele>32.7</ele>
        <time>2019-04-23T12:31:55.000Z</time>
      </trkpt>
      <trkpt lat="49.47323" lon="-1.5591">
        <ele>32.7</ele>
        <time>2019-04-23T12:31:56.000Z</time>
      </trkpt>
      <trkpt lat="49.47324" lon="-1.55909">
        <ele>32.7</ele>
        <time>2019-04-23T12:31:57.000Z</time>
      </trkpt>
      <trkpt lat="49.47326" lon="-1.55909">
        <ele>32.7</ele>
        <time>2019-04-23T12:31:58.000Z</time>
      </trkpt>
      <trkpt lat="49.47327" lon="-1.55908">
        <ele>32.7</ele>
        <time>2019-04-23T12:31:59.000Z</time>
      </trkpt>
      <trkpt lat="49.47328" lon="-1.55907">
        <ele>32.8</ele>
        <time>2019-04-23T12:32:00.000Z</time>
      </trkpt>
      <trkpt lat="49.47329" lon="-1.55907">
        <ele>32.8</ele>
        <time>2019-04-23T12:32:01.000Z</time>
      </trkpt>
      <trkpt lat="49.4733" lon="-1.55906">
        <ele>32.8</ele>
        <time>2019-04-23T12:32:02.000Z</time>
      </trkpt>
      <trkpt lat="49.47331" lon="-1.55906">
        <ele>32.8</ele>
        <time>2019-04-23T12:32:03.000Z</time>
      </trkpt>
      <trkpt lat="49.47332" lon="-1.55905">
        <ele>32.8</ele>
        <time>2019-04-23T12:32:04.000Z</time>
      </trkpt>
      <trkpt lat="49.47334" lon="-1.55904">
        <ele>32.8</ele>
        <time>2019-04-23T12:32:05.000Z</time>
      </trkpt>
      <trkpt lat="49.47335" lon="-1.55904">
        <ele>32.8</ele>
        <time>2019-04-23T12:32:06.000Z</time>
      </trkpt>
      <trkpt lat="49.47336" lon="-1.55903">
        <ele>32.7</ele>
        <time>2019-04-23T12:32:07.000Z</time>
      </trkpt>
      <trkpt lat="49.47337" lon="-1.55903">
        <ele>32.7</ele>
        <time>2019-04-23T12:32:08.000Z</time>
      </trkpt>
      <trkpt lat="49.47338" lon="-1.55902">
        <ele>32.6</ele>
        <time>2019-04-23T12:32:09.000Z</time>
      </trkpt>
      <trkpt lat="49.47339" lon="-1.55901">
        <ele>32.6</ele>
        <time>2019-04-23T12:32:10.000Z</time>
      </trkpt>
      <trkpt lat="49.4734" lon="-1.55901">
        <ele>32.5</ele>
        <time>2019-04-23T12:32:11.000Z</time>
      </trkpt>
      <trkpt lat="49.47341" lon="-1.559">
        <ele>32.5</ele>
        <time>2019-04-23T12:32:12.000Z</time>
      </trkpt>
      <trkpt lat="49.47342" lon="-1.559">
        <ele>32.4</ele>
        <time>2019-04-23T12:32:13.000Z</time>
      </trkpt>
      <trkpt lat="49.47343" lon="-1.55899">
        <ele>32.4</ele>
        <time>2019-04-23T12:32:14.000Z</time>
      </trkpt>
      <trkpt lat="49.47344" lon="-1.55899">
        <ele>32.3</ele>
        <time>2019-04-23T12:32:15.000Z</time>
      </trkpt>
      <trkpt lat="49.47346" lon="-1.55898">
        <ele>32.3</ele>
        <time>2019-04-23T12:32:16.000Z</time>
      </trkpt>
      <trkpt lat="49.47347" lon="-1.55897">
        <ele>32.2</ele>
        <time>2019-04-23T12:32:17.000Z</time>
      </trkpt>
      <trkpt lat="49.47348" lon="-1.55897">
        <ele>32.2</ele>
        <time>2019-04-23T12:32:18.000Z</time>
      </trkpt>
      <trkpt lat="49.47349" lon="-1.55896">
        <ele>32.2</ele>
        <time>2019-04-23T12:32:19.000Z</time>
      </trkpt>
      <trkpt lat="49.4735" lon="-1.55896">
        <ele>32.1</ele>
        <time>2019-04-23T12:32:20.000Z</time>
      </trkpt>
      <trkpt lat="49.47351" lon="-1.55895">
        <ele>32.1</ele>
        <time>2019-04-23T12:32:21.000Z</time>
      </trkpt>
      <trkpt lat="49.47352" lon="-1.55895">
        <ele>32</ele>
        <time>2019-04-23T12:32:22.000Z</time>
      </trkpt>
      <trkpt lat="49.47353" lon="-1.55894">
        <ele>32</ele>
        <time>2019-04-23T12:32:23.000Z</time>
      </trkpt>
      <trkpt lat="49.47354" lon="-1.55894">
        <ele>31.9</ele>
        <time>2019-04-23T12:32:24.000Z</time>
      </trkpt>
      <trkpt lat="49.47355" lon="-1.55893">
        <ele>31.9</ele>
        <time>2019-04-23T12:32:25.000Z</time>
      </trkpt>
      <trkpt lat="49.47357" lon="-1.55893">
        <ele>31.8</ele>
        <time>2019-04-23T12:32:26.000Z</time>
      </trkpt>
      <trkpt lat="49.47358" lon="-1.55892">
        <ele>31.8</ele>
        <time>2019-04-23T12:32:27.000Z</time>
      </trkpt>
      <trkpt lat="49.47359" lon="-1.55892">
        <ele>31.8</ele>
        <time>2019-04-23T12:32:28.000Z</time>
      </trkpt>
      <trkpt lat="49.4736" lon="-1.55891">
        <ele>31.7</ele>
        <time>2019-04-23T12:32:29.000Z</time>
      </trkpt>
      <trkpt lat="49.47361" lon="-1.55891">
        <ele>31.7</ele>
        <time>2019-04-23T12:32:30.000Z</time>
      </trkpt>
      <trkpt lat="49.47362" lon="-1.5589">
        <ele>31.6</ele>
        <time>2019-04-23T12:32:31.000Z</time>
      </trkpt>
      <trkpt lat="49.47363" lon="-1.55889">
        <ele>31.6</ele>
        <time>2019-04-23T12:32:32.000Z</time>
      </trkpt>
      <trkpt lat="49.47365" lon="-1.55889">
        <ele>31.5</ele>
        <time>2019-04-23T12:32:33.000Z</time>
      </trkpt>
      <trkpt lat="49.47366" lon="-1.55888">
        <ele>31.5</ele>
        <time>2019-04-23T12:32:34.000Z</time>
      </trkpt>
      <trkpt lat="49.47367" lon="-1.55888">
        <ele>31.5</ele>
        <time>2019-04-23T12:32:35.000Z</time>
      </trkpt>
      <trkpt lat="49.47368" lon="-1.55887">
        <ele>31.4</ele>
        <time>2019-04-23T12:32:36.000Z</time>
      </trkpt>
      <trkpt lat="49.47369" lon="-1.55886">
        <ele>31.4</ele>
        <time>2019-04-23T12:32:37.000Z</time>
      </trkpt>
      <trkpt lat="49.4737" lon="-1.55885">
        <ele>31.4</ele>
        <time>2019-04-23T12:32:38.000Z</time>
      </trkpt>
      <trkpt lat="49.47371" lon="-1.55885">
        <ele>31.3</ele>
        <time>2019-04-23T12:32:39.000Z</time>
      </trkpt>
      <trkpt lat="49.47373" lon="-1.55884">
        <ele>31.3</ele>
        <time>2019-04-23T12:32:40.000Z</time>
      </trkpt>
      <trkpt lat="49.47374" lon="-1.55883">
        <ele>31.2</ele>
        <time>2019-04-23T12:32:41.000Z</time>
      </trkpt>
      <trkpt lat="49.47375" lon="-1.55882">
        <ele>31.2</ele>
        <time>2019-04-23T12:32:42.000Z</time>
      </trkpt>
      <trkpt lat="49.47376" lon="-1.55881">
        <ele>31.2</ele>
        <time>2019-04-23T12:32:43.000Z</time>
      </trkpt>
      <trkpt lat="49.47377" lon="-1.55881">
        <ele>31.2</ele>
        <time>2019-04-23T12:32:44.000Z</time>
      </trkpt>
      <trkpt lat="49.47378" lon="-1.5588">
        <ele>31.1</ele>
        <time>2019-04-23T12:32:45.000Z</time>
      </trkpt>
      <trkpt lat="49.47379" lon="-1.55879">
        <ele>31.1</ele>
        <time>2019-04-23T12:32:46.000Z</time>
      </trkpt>
      <trkpt lat="49.4738" lon="-1.55878">
        <ele>31.1</ele>
        <time>2019-04-23T12:32:47.000Z</time>
      </trkpt>
      <trkpt lat="49.47381" lon="-1.55878">
        <ele>31</ele>
        <time>2019-04-23T12:32:48.000Z</time>
      </trkpt>
      <trkpt lat="49.47383" lon="-1.55877">
        <ele>31</ele>
        <time>2019-04-23T12:32:49.000Z</time>
      </trkpt>
      <trkpt lat="49.47384" lon="-1.55876">
        <ele>31</ele>
        <time>2019-04-23T12:32:50.000Z</time>
      </trkpt>
      <trkpt lat="49.47385" lon="-1.55875">
        <ele>31</ele>
        <time>2019-04-23T12:32:51.000Z</time>
      </trkpt>
      <trkpt lat="49.47386" lon="-1.55874">
        <ele>30.9</ele>
        <time>2019-04-23T12:32:52.000Z</time>
      </trkpt>
      <trkpt lat="49.47387" lon="-1.55874">
        <ele>30.9</ele>
        <time>2019-04-23T12:32:53.000Z</time>
      </trkpt>
      <trkpt lat="49.47388" lon="-1.55873">
        <ele>30.9</ele>
        <time>2019-04-23T12:32:54.000Z</time>
      </trkpt>
      <trkpt lat="49.47389" lon="-1.55872">
        <ele>30.9</ele>
        <time>2019-04-23T12:32:55.000Z</time>
      </trkpt>
      <trkpt lat="49.4739" lon="-1.55871">
        <ele>30.9</ele>
        <time>2019-04-23T12:32:56.000Z</time>
      </trkpt>
      <trkpt lat="49.47391" lon="-1.5587">
        <ele>30.8</ele>
        <time>2019-04-23T12:32:57.000Z</time>
      </trkpt>
      <trkpt lat="49.47392" lon="-1.55869">
        <ele>30.8</ele>
        <time>2019-04-23T12:32:58.000Z</time>
      </trkpt>
      <trkpt lat="49.47393" lon="-1.55868">
        <ele>30.8</ele>
        <time>2019-04-23T12:32:59.000Z</time>
      </trkpt>
      <trkpt lat="49.47394" lon="-1.55868">
        <ele>30.8</ele>
        <time>2019-04-23T12:33:00.000Z</time>
      </trkpt>
      <trkpt lat="49.47394" lon="-1.55867">
        <ele>30.8</ele>
        <time>2019-04-23T12:33:01.000Z</time>
      </trkpt>
      <trkpt lat="49.47395" lon="-1.55866">
        <ele>30.8</ele>
        <time>2019-04-23T12:33:02.000Z</time>
      </trkpt>
      <trkpt lat="49.47396" lon="-1.55865">
        <ele>30.8</ele>
        <time>2019-04-23T12:33:03.000Z</time>
      </trkpt>
      <trkpt lat="49.47397" lon="-1.55864">
        <ele>30.8</ele>
        <time>2019-04-23T12:33:04.000Z</time>
      </trkpt>
      <trkpt lat="49.47398" lon="-1.55863">
        <ele>30.7</ele>
        <time>2019-04-23T12:33:05.000Z</time>
      </trkpt>
      <trkpt lat="49.47399" lon="-1.55862">
        <ele>30.7</ele>
        <time>2019-04-23T12:33:06.000Z</time>
      </trkpt>
      <trkpt lat="49.474" lon="-1.55861">
        <ele>30.7</ele>
        <time>2019-04-23T12:33:07.000Z</time>
      </trkpt>
      <trkpt lat="49.47401" lon="-1.55861">
        <ele>30.7</ele>
        <time>2019-04-23T12:33:08.000Z</time>
      </trkpt>
      <trkpt lat="49.47402" lon="-1.5586">
        <ele>30.7</ele>
        <time>2019-04-23T12:33:09.000Z</time>
      </trkpt>
      <trkpt lat="49.47403" lon="-1.55859">
        <ele>30.7</ele>
        <time>2019-04-23T12:33:10.000Z</time>
      </trkpt>
      <trkpt lat="49.47404" lon="-1.55858">
        <ele>30.7</ele>
        <time>2019-04-23T12:33:11.000Z</time>
      </trkpt>
      <trkpt lat="49.47405" lon="-1.55857">
        <ele>30.7</ele>
        <time>2019-04-23T12:33:12.000Z</time>
      </trkpt>
      <trkpt lat="49.47406" lon="-1.55857">
        <ele>30.7</ele>
        <time>2019-04-23T12:33:13.000Z</time>
      </trkpt>
      <trkpt lat="49.47407" lon="-1.55856">
        <ele>30.7</ele>
        <time>2019-04-23T12:33:14.000Z</time>
      </trkpt>
      <trkpt lat="49.47408" lon="-1.55855">
        <ele>30.7</ele>
        <time>2019-04-23T12:33:15.000Z</time>
      </trkpt>
      <trkpt lat="49.47409" lon="-1.55854">
        <ele>30.7</ele>
        <time>2019-04-23T12:33:16.000Z</time>
      </trkpt>
      <trkpt lat="49.4741" lon="-1.55854">
        <ele>30.6</ele>
        <time>2019-04-23T12:33:17.000Z</time>
      </trkpt>
      <trkpt lat="49.47411" lon="-1.55853">
        <ele>30.6</ele>
        <time>2019-04-23T12:33:18.000Z</time>
      </trkpt>
      <trkpt lat="49.47412" lon="-1.55852">
        <ele>30.6</ele>
        <time>2019-04-23T12:33:19.000Z</time>
      </trkpt>
      <trkpt lat="49.47414" lon="-1.55851">
        <ele>30.6</ele>
        <time>2019-04-23T12:33:20.000Z</time>
      </trkpt>
      <trkpt lat="49.47415" lon="-1.55851">
        <ele>30.6</ele>
        <time>2019-04-23T12:33:21.000Z</time>
      </trkpt>
      <trkpt lat="49.47416" lon="-1.5585">
        <ele>30.6</ele>
        <time>2019-04-23T12:33:22.000Z</time>
      </trkpt>
      <trkpt lat="49.47417" lon="-1.55849">
        <ele>30.6</ele>
        <time>2019-04-23T12:33:23.000Z</time>
      </trkpt>
      <trkpt lat="49.47418" lon="-1.55848">
        <ele>30.5</ele>
        <time>2019-04-23T12:33:24.000Z</time>
      </trkpt>
      <trkpt lat="49.4742" lon="-1.55848">
        <ele>30.5</ele>
        <time>2019-04-23T12:33:25.000Z</time>
      </trkpt>
      <trkpt lat="49.47421" lon="-1.55847">
        <ele>30.4</ele>
        <time>2019-04-23T12:33:26.000Z</time>
      </trkpt>
      <trkpt lat="49.47422" lon="-1.55846">
        <ele>30.4</ele>
        <time>2019-04-23T12:33:27.000Z</time>
      </trkpt>
      <trkpt lat="49.47423" lon="-1.55845">
        <ele>30.3</ele>
        <time>2019-04-23T12:33:28.000Z</time>
      </trkpt>
      <trkpt lat="49.47425" lon="-1.55844">
        <ele>30.3</ele>
        <time>2019-04-23T12:33:29.000Z</time>
      </trkpt>
      <trkpt lat="49.47426" lon="-1.55844">
        <ele>30.2</ele>
        <time>2019-04-23T12:33:30.000Z</time>
      </trkpt>
      <trkpt lat="49.47427" lon="-1.55843">
        <ele>30.2</ele>
        <time>2019-04-23T12:33:31.000Z</time>
      </trkpt>
      <trkpt lat="49.47429" lon="-1.55842">
        <ele>30.1</ele>
        <time>2019-04-23T12:33:32.000Z</time>
      </trkpt>
      <trkpt lat="49.4743" lon="-1.55841">
        <ele>30</ele>
        <time>2019-04-23T12:33:33.000Z</time>
      </trkpt>
      <trkpt lat="49.47431" lon="-1.5584">
        <ele>30</ele>
        <time>2019-04-23T12:33:34.000Z</time>
      </trkpt>
      <trkpt lat="49.47433" lon="-1.5584">
        <ele>29.9</ele>
        <time>2019-04-23T12:33:35.000Z</time>
      </trkpt>
      <trkpt lat="49.47434" lon="-1.55839">
        <ele>29.9</ele>
        <time>2019-04-23T12:33:36.000Z</time>
      </trkpt>
      <trkpt lat="49.47435" lon="-1.55838">
        <ele>29.8</ele>
        <time>2019-04-23T12:33:37.000Z</time>
      </trkpt>
      <trkpt lat="49.47436" lon="-1.55837">
        <ele>29.8</ele>
        <time>2019-04-23T12:33:38.000Z</time>
      </trkpt>
      <trkpt lat="49.47437" lon="-1.55836">
        <ele>29.7</ele>
        <time>2019-04-23T12:33:39.000Z</time>
      </trkpt>
      <trkpt lat="49.47438" lon="-1.55836">
        <ele>29.7</ele>
        <time>2019-04-23T12:33:40.000Z</time>
      </trkpt>
      <trkpt lat="49.47438" lon="-1.55835">
        <ele>29.7</ele>
        <time>2019-04-23T12:33:41.000Z</time>
      </trkpt>
      <trkpt lat="49.47439" lon="-1.55834">
        <ele>29.6</ele>
        <time>2019-04-23T12:33:42.000Z</time>
      </trkpt>
      <trkpt lat="49.4744" lon="-1.55833">
        <ele>29.6</ele>
        <time>2019-04-23T12:33:43.000Z</time>
      </trkpt>
      <trkpt lat="49.47441" lon="-1.55832">
        <ele>29.5</ele>
        <time>2019-04-23T12:33:44.000Z</time>
      </trkpt>
      <trkpt lat="49.47442" lon="-1.55831">
        <ele>29.4</ele>
        <time>2019-04-23T12:33:45.000Z</time>
      </trkpt>
      <trkpt lat="49.47443" lon="-1.55829">
        <ele>29.3</ele>
        <time>2019-04-23T12:33:46.000Z</time>
      </trkpt>
      <trkpt lat="49.47444" lon="-1.55828">
        <ele>29.2</ele>
        <time>2019-04-23T12:33:47.000Z</time>
      </trkpt>
      <trkpt lat="49.47445" lon="-1.55826">
        <ele>29.1</ele>
        <time>2019-04-23T12:33:48.000Z</time>
      </trkpt>
      <trkpt lat="49.47446" lon="-1.55825">
        <ele>29</ele>
        <time>2019-04-23T12:33:49.000Z</time>
      </trkpt>
      <trkpt lat="49.47446" lon="-1.55823">
        <ele>28.8</ele>
        <time>2019-04-23T12:33:50.000Z</time>
      </trkpt>
      <trkpt lat="49.47447" lon="-1.55821">
        <ele>28.7</ele>
        <time>2019-04-23T12:33:51.000Z</time>
      </trkpt>
      <trkpt lat="49.47448" lon="-1.55819">
        <ele>28.6</ele>
        <time>2019-04-23T12:33:52.000Z</time>
      </trkpt>
      <trkpt lat="49.47449" lon="-1.55817">
        <ele>28.5</ele>
        <time>2019-04-23T12:33:53.000Z</time>
      </trkpt>
      <trkpt lat="49.47449" lon="-1.55815">
        <ele>28.4</ele>
        <time>2019-04-23T12:33:54.000Z</time>
      </trkpt>
      <trkpt lat="49.4745" lon="-1.55813">
        <ele>28.3</ele>
        <time>2019-04-23T12:33:55.000Z</time>
      </trkpt>
      <trkpt lat="49.4745" lon="-1.55811">
        <ele>28.3</ele>
        <time>2019-04-23T12:33:56.000Z</time>
      </trkpt>
      <trkpt lat="49.4745" lon="-1.55809">
        <ele>28.2</ele>
        <time>2019-04-23T12:33:57.000Z</time>
      </trkpt>
      <trkpt lat="49.4745" lon="-1.55807">
        <ele>28.1</ele>
        <time>2019-04-23T12:33:58.000Z</time>
      </trkpt>
      <trkpt lat="49.4745" lon="-1.55806">
        <ele>28.1</ele>
        <time>2019-04-23T12:33:59.000Z</time>
      </trkpt>
      <trkpt lat="49.4745" lon="-1.55804">
        <ele>28</ele>
        <time>2019-04-23T12:34:00.000Z</time>
      </trkpt>
      <trkpt lat="49.4745" lon="-1.55803">
        <ele>28</ele>
        <time>2019-04-23T12:34:01.000Z</time>
      </trkpt>
      <trkpt lat="49.47449" lon="-1.55801">
        <ele>27.9</ele>
        <time>2019-04-23T12:34:02.000Z</time>
      </trkpt>
      <trkpt lat="49.47449" lon="-1.558">
        <ele>27.9</ele>
        <time>2019-04-23T12:34:03.000Z</time>
      </trkpt>
      <trkpt lat="49.47448" lon="-1.55798">
        <ele>27.9</ele>
        <time>2019-04-23T12:34:04.000Z</time>
      </trkpt>
      <trkpt lat="49.47448" lon="-1.55797">
        <ele>27.9</ele>
        <time>2019-04-23T12:34:05.000Z</time>
      </trkpt>
      <trkpt lat="49.47447" lon="-1.55796">
        <ele>27.8</ele>
        <time>2019-04-23T12:34:06.000Z</time>
      </trkpt>
      <trkpt lat="49.47447" lon="-1.55794">
        <ele>27.8</ele>
        <time>2019-04-23T12:34:07.000Z</time>
      </trkpt>
      <trkpt lat="49.47447" lon="-1.55793">
        <ele>27.8</ele>
        <time>2019-04-23T12:34:08.000Z</time>
      </trkpt>
      <trkpt lat="49.47446" lon="-1.55791">
        <ele>27.7</ele>
        <time>2019-04-23T12:34:09.000Z</time>
      </trkpt>
      <trkpt lat="49.47446" lon="-1.5579">
        <ele>27.7</ele>
        <time>2019-04-23T12:34:10.000Z</time>
      </trkpt>
      <trkpt lat="49.47445" lon="-1.55788">
        <ele>27.7</ele>
        <time>2019-04-23T12:34:11.000Z</time>
      </trkpt>
      <trkpt lat="49.47445" lon="-1.55787">
        <ele>27.6</ele>
        <time>2019-04-23T12:34:12.000Z</time>
      </trkpt>
      <trkpt lat="49.47445" lon="-1.55785">
        <ele>27.6</ele>
        <time>2019-04-23T12:34:13.000Z</time>
      </trkpt>
      <trkpt lat="49.47445" lon="-1.55784">
        <ele>27.5</ele>
        <time>2019-04-23T12:34:14.000Z</time>
      </trkpt>
      <trkpt lat="49.47444" lon="-1.55782">
        <ele>27.5</ele>
        <time>2019-04-23T12:34:15.000Z</time>
      </trkpt>
      <trkpt lat="49.47444" lon="-1.55781">
        <ele>27.4</ele>
        <time>2019-04-23T12:34:16.000Z</time>
      </trkpt>
      <trkpt lat="49.47444" lon="-1.55779">
        <ele>27.4</ele>
        <time>2019-04-23T12:34:17.000Z</time>
      </trkpt>
      <trkpt lat="49.47444" lon="-1.55777">
        <ele>27.3</ele>
        <time>2019-04-23T12:34:18.000Z</time>
      </trkpt>
      <trkpt lat="49.47445" lon="-1.55776">
        <ele>27.3</ele>
        <time>2019-04-23T12:34:19.000Z</time>
      </trkpt>
      <trkpt lat="49.47445" lon="-1.55774">
        <ele>27.2</ele>
        <time>2019-04-23T12:34:20.000Z</time>
      </trkpt>
      <trkpt lat="49.47445" lon="-1.55772">
        <ele>27.1</ele>
        <time>2019-04-23T12:34:21.000Z</time>
      </trkpt>
      <trkpt lat="49.47446" lon="-1.55771">
        <ele>27</ele>
        <time>2019-04-23T12:34:22.000Z</time>
      </trkpt>
      <trkpt lat="49.47446" lon="-1.55769">
        <ele>27</ele>
        <time>2019-04-23T12:34:23.000Z</time>
      </trkpt>
      <trkpt lat="49.47447" lon="-1.55767">
        <ele>26.9</ele>
        <time>2019-04-23T12:34:24.000Z</time>
      </trkpt>
      <trkpt lat="49.47447" lon="-1.55765">
        <ele>26.8</ele>
        <time>2019-04-23T12:34:25.000Z</time>
      </trkpt>
      <trkpt lat="49.47448" lon="-1.55764">
        <ele>26.7</ele>
        <time>2019-04-23T12:34:26.000Z</time>
      </trkpt>
      <trkpt lat="49.47449" lon="-1.55762">
        <ele>26.6</ele>
        <time>2019-04-23T12:34:27.000Z</time>
      </trkpt>
      <trkpt lat="49.47449" lon="-1.5576">
        <ele>26.5</ele>
        <time>2019-04-23T12:34:28.000Z</time>
      </trkpt>
      <trkpt lat="49.4745" lon="-1.55758">
        <ele>26.5</ele>
        <time>2019-04-23T12:34:29.000Z</time>
      </trkpt>
      <trkpt lat="49.47451" lon="-1.55756">
        <ele>26.4</ele>
        <time>2019-04-23T12:34:30.000Z</time>
      </trkpt>
      <trkpt lat="49.47452" lon="-1.55755">
        <ele>26.3</ele>
        <time>2019-04-23T12:34:31.000Z</time>
      </trkpt>
      <trkpt lat="49.47453" lon="-1.55753">
        <ele>26.2</ele>
        <time>2019-04-23T12:34:32.000Z</time>
      </trkpt>
      <trkpt lat="49.47454" lon="-1.55751">
        <ele>26.1</ele>
        <time>2019-04-23T12:34:33.000Z</time>
      </trkpt>
      <trkpt lat="49.47455" lon="-1.55749">
        <ele>26.1</ele>
        <time>2019-04-23T12:34:34.000Z</time>
      </trkpt>
      <trkpt lat="49.47456" lon="-1.55747">
        <ele>26</ele>
        <time>2019-04-23T12:34:35.000Z</time>
      </trkpt>
      <trkpt lat="49.47457" lon="-1.55746">
        <ele>26</ele>
        <time>2019-04-23T12:34:36.000Z</time>
      </trkpt>
      <trkpt lat="49.47458" lon="-1.55744">
        <ele>25.9</ele>
        <time>2019-04-23T12:34:37.000Z</time>
      </trkpt>
      <trkpt lat="49.47459" lon="-1.55742">
        <ele>25.9</ele>
        <time>2019-04-23T12:34:38.000Z</time>
      </trkpt>
      <trkpt lat="49.4746" lon="-1.55741">
        <ele>25.9</ele>
        <time>2019-04-23T12:34:39.000Z</time>
      </trkpt>
      <trkpt lat="49.47461" lon="-1.55739">
        <ele>25.8</ele>
        <time>2019-04-23T12:34:40.000Z</time>
      </trkpt>
      <trkpt lat="49.47461" lon="-1.55737">
        <ele>25.8</ele>
        <time>2019-04-23T12:34:41.000Z</time>
      </trkpt>
      <trkpt lat="49.47462" lon="-1.55736">
        <ele>25.7</ele>
        <time>2019-04-23T12:34:42.000Z</time>
      </trkpt>
      <trkpt lat="49.47463" lon="-1.55734">
        <ele>25.7</ele>
        <time>2019-04-23T12:34:43.000Z</time>
      </trkpt>
      <trkpt lat="49.47464" lon="-1.55732">
        <ele>25.7</ele>
        <time>2019-04-23T12:34:44.000Z</time>
      </trkpt>
      <trkpt lat="49.47465" lon="-1.55731">
        <ele>25.6</ele>
        <time>2019-04-23T12:34:45.000Z</time>
      </trkpt>
      <trkpt lat="49.47466" lon="-1.55729">
        <ele>25.6</ele>
        <time>2019-04-23T12:34:46.000Z</time>
      </trkpt>
      <trkpt lat="49.47467" lon="-1.55728">
        <ele>25.6</ele>
        <time>2019-04-23T12:34:47.000Z</time>
      </trkpt>
      <trkpt lat="49.47468" lon="-1.55726">
        <ele>25.6</ele>
        <time>2019-04-23T12:34:48.000Z</time>
      </trkpt>
      <trkpt lat="49.47469" lon="-1.55725">
        <ele>25.5</ele>
        <time>2019-04-23T12:34:49.000Z</time>
      </trkpt>
      <trkpt lat="49.47469" lon="-1.55723">
        <ele>25.5</ele>
        <time>2019-04-23T12:34:50.000Z</time>
      </trkpt>
      <trkpt lat="49.4747" lon="-1.55722">
        <ele>25.5</ele>
        <time>2019-04-23T12:34:51.000Z</time>
      </trkpt>
      <trkpt lat="49.47471" lon="-1.5572">
        <ele>25.4</ele>
        <time>2019-04-23T12:34:52.000Z</time>
      </trkpt>
      <trkpt lat="49.47472" lon="-1.55719">
        <ele>25.4</ele>
        <time>2019-04-23T12:34:53.000Z</time>
      </trkpt>
      <trkpt lat="49.47473" lon="-1.55717">
        <ele>25.4</ele>
        <time>2019-04-23T12:34:54.000Z</time>
      </trkpt>
      <trkpt lat="49.47474" lon="-1.55715">
        <ele>25.4</ele>
        <time>2019-04-23T12:34:55.000Z</time>
      </trkpt>
      <trkpt lat="49.47475" lon="-1.55713">
        <ele>25.3</ele>
        <time>2019-04-23T12:34:56.000Z</time>
      </trkpt>
      <trkpt lat="49.47476" lon="-1.55711">
        <ele>25.3</ele>
        <time>2019-04-23T12:34:57.000Z</time>
      </trkpt>
      <trkpt lat="49.47477" lon="-1.5571">
        <ele>25.3</ele>
        <time>2019-04-23T12:34:58.000Z</time>
      </trkpt>
      <trkpt lat="49.47478" lon="-1.55708">
        <ele>25.3</ele>
        <time>2019-04-23T12:34:59.000Z</time>
      </trkpt>
      <trkpt lat="49.47479" lon="-1.55706">
        <ele>25.2</ele>
        <time>2019-04-23T12:35:00.000Z</time>
      </trkpt>
      <trkpt lat="49.4748" lon="-1.55703">
        <ele>25.2</ele>
        <time>2019-04-23T12:35:01.000Z</time>
      </trkpt>
      <trkpt lat="49.47481" lon="-1.55701">
        <ele>25.2</ele>
        <time>2019-04-23T12:35:02.000Z</time>
      </trkpt>
      <trkpt lat="49.47482" lon="-1.55699">
        <ele>25.2</ele>
        <time>2019-04-23T12:35:03.000Z</time>
      </trkpt>
      <trkpt lat="49.47483" lon="-1.55697">
        <ele>25.2</ele>
        <time>2019-04-23T12:35:04.000Z</time>
      </trkpt>
      <trkpt lat="49.47484" lon="-1.55695">
        <ele>25.1</ele>
        <time>2019-04-23T12:35:05.000Z</time>
      </trkpt>
      <trkpt lat="49.47484" lon="-1.55693">
        <ele>25.1</ele>
        <time>2019-04-23T12:35:06.000Z</time>
      </trkpt>
      <trkpt lat="49.47485" lon="-1.55691">
        <ele>25.1</ele>
        <time>2019-04-23T12:35:07.000Z</time>
      </trkpt>
      <trkpt lat="49.47485" lon="-1.55688">
        <ele>25.1</ele>
        <time>2019-04-23T12:35:08.000Z</time>
      </trkpt>
      <trkpt lat="49.47486" lon="-1.55686">
        <ele>25.1</ele>
        <time>2019-04-23T12:35:09.000Z</time>
      </trkpt>
      <trkpt lat="49.47486" lon="-1.55684">
        <ele>25.1</ele>
        <time>2019-04-23T12:35:10.000Z</time>
      </trkpt>
      <trkpt lat="49.47486" lon="-1.55682">
        <ele>25.1</ele>
        <time>2019-04-23T12:35:11.000Z</time>
      </trkpt>
      <trkpt lat="49.47486" lon="-1.5568">
        <ele>25.1</ele>
        <time>2019-04-23T12:35:12.000Z</time>
      </trkpt>
      <trkpt lat="49.47486" lon="-1.55677">
        <ele>25</ele>
        <time>2019-04-23T12:35:13.000Z</time>
      </trkpt>
      <trkpt lat="49.47486" lon="-1.55675">
        <ele>25</ele>
        <time>2019-04-23T12:35:14.000Z</time>
      </trkpt>
      <trkpt lat="49.47485" lon="-1.55673">
        <ele>25</ele>
        <time>2019-04-23T12:35:15.000Z</time>
      </trkpt>
      <trkpt lat="49.47485" lon="-1.55671">
        <ele>25</ele>
        <time>2019-04-23T12:35:16.000Z</time>
      </trkpt>
      <trkpt lat="49.47484" lon="-1.55669">
        <ele>25</ele>
        <time>2019-04-23T12:35:17.000Z</time>
      </trkpt>
      <trkpt lat="49.47484" lon="-1.55667">
        <ele>25</ele>
        <time>2019-04-23T12:35:18.000Z</time>
      </trkpt>
      <trkpt lat="49.47483" lon="-1.55665">
        <ele>25</ele>
        <time>2019-04-23T12:35:19.000Z</time>
      </trkpt>
      <trkpt lat="49.47483" lon="-1.55663">
        <ele>25</ele>
        <time>2019-04-23T12:35:20.000Z</time>
      </trkpt>
      <trkpt lat="49.47482" lon="-1.55661">
        <ele>24.9</ele>
        <time>2019-04-23T12:35:21.000Z</time>
      </trkpt>
      <trkpt lat="49.47481" lon="-1.5566">
        <ele>24.9</ele>
        <time>2019-04-23T12:35:22.000Z</time>
      </trkpt>
      <trkpt lat="49.47481" lon="-1.55658">
        <ele>24.9</ele>
        <time>2019-04-23T12:35:23.000Z</time>
      </trkpt>
      <trkpt lat="49.4748" lon="-1.55656">
        <ele>24.8</ele>
        <time>2019-04-23T12:35:24.000Z</time>
      </trkpt>
      <trkpt lat="49.4748" lon="-1.55655">
        <ele>24.8</ele>
        <time>2019-04-23T12:35:25.000Z</time>
      </trkpt>
      <trkpt lat="49.47479" lon="-1.55653">
        <ele>24.8</ele>
        <time>2019-04-23T12:35:26.000Z</time>
      </trkpt>
      <trkpt lat="49.47479" lon="-1.55651">
        <ele>24.8</ele>
        <time>2019-04-23T12:35:27.000Z</time>
      </trkpt>
      <trkpt lat="49.47479" lon="-1.5565">
        <ele>24.7</ele>
        <time>2019-04-23T12:35:28.000Z</time>
      </trkpt>
      <trkpt lat="49.47478" lon="-1.55648">
        <ele>24.7</ele>
        <time>2019-04-23T12:35:29.000Z</time>
      </trkpt>
      <trkpt lat="49.47478" lon="-1.55647">
        <ele>24.7</ele>
        <time>2019-04-23T12:35:30.000Z</time>
      </trkpt>
      <trkpt lat="49.47478" lon="-1.55646">
        <ele>24.7</ele>
        <time>2019-04-23T12:35:31.000Z</time>
      </trkpt>
      <trkpt lat="49.47478" lon="-1.55644">
        <ele>24.7</ele>
        <time>2019-04-23T12:35:32.000Z</time>
      </trkpt>
      <trkpt lat="49.47478" lon="-1.55643">
        <ele>24.6</ele>
        <time>2019-04-23T12:35:33.000Z</time>
      </trkpt>
      <trkpt lat="49.47477" lon="-1.55642">
        <ele>24.6</ele>
        <time>2019-04-23T12:35:34.000Z</time>
      </trkpt>
      <trkpt lat="49.47477" lon="-1.5564">
        <ele>24.6</ele>
        <time>2019-04-23T12:35:35.000Z</time>
      </trkpt>
      <trkpt lat="49.47477" lon="-1.55639">
        <ele>24.6</ele>
        <time>2019-04-23T12:35:36.000Z</time>
      </trkpt>
      <trkpt lat="49.47477" lon="-1.55637">
        <ele>24.5</ele>
        <time>2019-04-23T12:35:37.000Z</time>
      </trkpt>
      <trkpt lat="49.47476" lon="-1.55636">
        <ele>24.5</ele>
        <time>2019-04-23T12:35:38.000Z</time>
      </trkpt>
      <trkpt lat="49.47476" lon="-1.55634">
        <ele>24.5</ele>
        <time>2019-04-23T12:35:39.000Z</time>
      </trkpt>
      <trkpt lat="49.47475" lon="-1.55632">
        <ele>24.5</ele>
        <time>2019-04-23T12:35:40.000Z</time>
      </trkpt>
      <trkpt lat="49.47475" lon="-1.55631">
        <ele>24.4</ele>
        <time>2019-04-23T12:35:41.000Z</time>
      </trkpt>
      <trkpt lat="49.47474" lon="-1.55629">
        <ele>24.4</ele>
        <time>2019-04-23T12:35:42.000Z</time>
      </trkpt>
      <trkpt lat="49.47474" lon="-1.55627">
        <ele>24.4</ele>
        <time>2019-04-23T12:35:43.000Z</time>
      </trkpt>
      <trkpt lat="49.47473" lon="-1.55625">
        <ele>24.3</ele>
        <time>2019-04-23T12:35:44.000Z</time>
      </trkpt>
      <trkpt lat="49.47473" lon="-1.55623">
        <ele>24.3</ele>
        <time>2019-04-23T12:35:45.000Z</time>
      </trkpt>
      <trkpt lat="49.47472" lon="-1.55621">
        <ele>24.3</ele>
        <time>2019-04-23T12:35:46.000Z</time>
      </trkpt>
      <trkpt lat="49.47471" lon="-1.55619">
        <ele>24.2</ele>
        <time>2019-04-23T12:35:47.000Z</time>
      </trkpt>
      <trkpt lat="49.47471" lon="-1.55618">
        <ele>24.2</ele>
        <time>2019-04-23T12:35:48.000Z</time>
      </trkpt>
      <trkpt lat="49.4747" lon="-1.55616">
        <ele>24.2</ele>
        <time>2019-04-23T12:35:49.000Z</time>
      </trkpt>
      <trkpt lat="49.47469" lon="-1.55614">
        <ele>24.1</ele>
        <time>2019-04-23T12:35:50.000Z</time>
      </trkpt>
      <trkpt lat="49.47469" lon="-1.55612">
        <ele>24.1</ele>
        <time>2019-04-23T12:35:51.000Z</time>
      </trkpt>
      <trkpt lat="49.47468" lon="-1.55611">
        <ele>24.1</ele>
        <time>2019-04-23T12:35:52.000Z</time>
      </trkpt>
      <trkpt lat="49.47467" lon="-1.55609">
        <ele>24</ele>
        <time>2019-04-23T12:35:53.000Z</time>
      </trkpt>
      <trkpt lat="49.47467" lon="-1.55607">
        <ele>24</ele>
        <time>2019-04-23T12:35:54.000Z</time>
      </trkpt>
      <trkpt lat="49.47466" lon="-1.55606">
        <ele>24</ele>
        <time>2019-04-23T12:35:55.000Z</time>
      </trkpt>
      <trkpt lat="49.47466" lon="-1.55604">
        <ele>23.9</ele>
        <time>2019-04-23T12:35:56.000Z</time>
      </trkpt>
      <trkpt lat="49.47465" lon="-1.55602">
        <ele>23.9</ele>
        <time>2019-04-23T12:35:57.000Z</time>
      </trkpt>
      <trkpt lat="49.47464" lon="-1.55601">
        <ele>23.9</ele>
        <time>2019-04-23T12:35:58.000Z</time>
      </trkpt>
      <trkpt lat="49.47464" lon="-1.55599">
        <ele>23.8</ele>
        <time>2019-04-23T12:35:59.000Z</time>
      </trkpt>
      <trkpt lat="49.47463" lon="-1.55597">
        <ele>23.8</ele>
        <time>2019-04-23T12:36:00.000Z</time>
      </trkpt>
      <trkpt lat="49.47462" lon="-1.55596">
        <ele>23.8</ele>
        <time>2019-04-23T12:36:01.000Z</time>
      </trkpt>
      <trkpt lat="49.47462" lon="-1.55594">
        <ele>23.7</ele>
        <time>2019-04-23T12:36:02.000Z</time>
      </trkpt>
      <trkpt lat="49.47461" lon="-1.55592">
        <ele>23.7</ele>
        <time>2019-04-23T12:36:03.000Z</time>
      </trkpt>
      <trkpt lat="49.47461" lon="-1.5559">
        <ele>23.7</ele>
        <time>2019-04-23T12:36:04.000Z</time>
      </trkpt>
      <trkpt lat="49.4746" lon="-1.55589">
        <ele>23.6</ele>
        <time>2019-04-23T12:36:05.000Z</time>
      </trkpt>
      <trkpt lat="49.4746" lon="-1.55587">
        <ele>23.6</ele>
        <time>2019-04-23T12:36:06.000Z</time>
      </trkpt>
      <trkpt lat="49.47459" lon="-1.55585">
        <ele>23.5</ele>
        <time>2019-04-23T12:36:07.000Z</time>
      </trkpt>
      <trkpt lat="49.47459" lon="-1.55583">
        <ele>23.5</ele>
        <time>2019-04-23T12:36:08.000Z</time>
      </trkpt>
      <trkpt lat="49.47458" lon="-1.55581">
        <ele>23.4</ele>
        <time>2019-04-23T12:36:09.000Z</time>
      </trkpt>
      <trkpt lat="49.47458" lon="-1.55579">
        <ele>23.4</ele>
        <time>2019-04-23T12:36:10.000Z</time>
      </trkpt>
      <trkpt lat="49.47457" lon="-1.55578">
        <ele>23.3</ele>
        <time>2019-04-23T12:36:11.000Z</time>
      </trkpt>
      <trkpt lat="49.47457" lon="-1.55576">
        <ele>23.3</ele>
        <time>2019-04-23T12:36:12.000Z</time>
      </trkpt>
      <trkpt lat="49.47456" lon="-1.55574">
        <ele>23.2</ele>
        <time>2019-04-23T12:36:13.000Z</time>
      </trkpt>
      <trkpt lat="49.47456" lon="-1.55573">
        <ele>23.2</ele>
        <time>2019-04-23T12:36:14.000Z</time>
      </trkpt>
      <trkpt lat="49.47456" lon="-1.55572">
        <ele>23.1</ele>
        <time>2019-04-23T12:36:15.000Z</time>
      </trkpt>
      <trkpt lat="49.47456" lon="-1.5557">
        <ele>23.1</ele>
        <time>2019-04-23T12:36:16.000Z</time>
      </trkpt>
      <trkpt lat="49.47456" lon="-1.55569">
        <ele>23</ele>
        <time>2019-04-23T12:36:17.000Z</time>
      </trkpt>
      <trkpt lat="49.47456" lon="-1.55567">
        <ele>23</ele>
        <time>2019-04-23T12:36:18.000Z</time>
      </trkpt>
      <trkpt lat="49.47456" lon="-1.55566">
        <ele>22.9</ele>
        <time>2019-04-23T12:36:19.000Z</time>
      </trkpt>
      <trkpt lat="49.47456" lon="-1.55564">
        <ele>22.9</ele>
        <time>2019-04-23T12:36:20.000Z</time>
      </trkpt>
      <trkpt lat="49.47455" lon="-1.55562">
        <ele>22.8</ele>
        <time>2019-04-23T12:36:21.000Z</time>
      </trkpt>
      <trkpt lat="49.47455" lon="-1.5556">
        <ele>22.7</ele>
        <time>2019-04-23T12:36:22.000Z</time>
      </trkpt>
      <trkpt lat="49.47455" lon="-1.55558">
        <ele>22.7</ele>
        <time>2019-04-23T12:36:23.000Z</time>
      </trkpt>
      <trkpt lat="49.47454" lon="-1.55556">
        <ele>22.6</ele>
        <time>2019-04-23T12:36:24.000Z</time>
      </trkpt>
      <trkpt lat="49.47454" lon="-1.55554">
        <ele>22.5</ele>
        <time>2019-04-23T12:36:25.000Z</time>
      </trkpt>
      <trkpt lat="49.47454" lon="-1.55552">
        <ele>22.5</ele>
        <time>2019-04-23T12:36:26.000Z</time>
      </trkpt>
      <trkpt lat="49.47453" lon="-1.5555">
        <ele>22.4</ele>
        <time>2019-04-23T12:36:27.000Z</time>
      </trkpt>
      <trkpt lat="49.47453" lon="-1.55549">
        <ele>22.4</ele>
        <time>2019-04-23T12:36:28.000Z</time>
      </trkpt>
      <trkpt lat="49.47453" lon="-1.55547">
        <ele>22.3</ele>
        <time>2019-04-23T12:36:29.000Z</time>
      </trkpt>
      <trkpt lat="49.47453" lon="-1.55546">
        <ele>22.3</ele>
        <time>2019-04-23T12:36:30.000Z</time>
      </trkpt>
      <trkpt lat="49.47453" lon="-1.55545">
        <ele>22.2</ele>
        <time>2019-04-23T12:36:31.000Z</time>
      </trkpt>
      <trkpt lat="49.47453" lon="-1.55543">
        <ele>22.2</ele>
        <time>2019-04-23T12:36:32.000Z</time>
      </trkpt>
      <trkpt lat="49.47452" lon="-1.55542">
        <ele>22.1</ele>
        <time>2019-04-23T12:36:33.000Z</time>
      </trkpt>
      <trkpt lat="49.47452" lon="-1.5554">
        <ele>22.1</ele>
        <time>2019-04-23T12:36:34.000Z</time>
      </trkpt>
      <trkpt lat="49.47452" lon="-1.55538">
        <ele>22</ele>
        <time>2019-04-23T12:36:35.000Z</time>
      </trkpt>
      <trkpt lat="49.47452" lon="-1.55537">
        <ele>22</ele>
        <time>2019-04-23T12:36:36.000Z</time>
      </trkpt>
      <trkpt lat="49.47452" lon="-1.55535">
        <ele>21.9</ele>
        <time>2019-04-23T12:36:37.000Z</time>
      </trkpt>
      <trkpt lat="49.47452" lon="-1.55533">
        <ele>21.9</ele>
        <time>2019-04-23T12:36:38.000Z</time>
      </trkpt>
      <trkpt lat="49.47452" lon="-1.55531">
        <ele>21.8</ele>
        <time>2019-04-23T12:36:39.000Z</time>
      </trkpt>
      <trkpt lat="49.47452" lon="-1.55529">
        <ele>21.7</ele>
        <time>2019-04-23T12:36:40.000Z</time>
      </trkpt>
      <trkpt lat="49.47452" lon="-1.55527">
        <ele>21.7</ele>
        <time>2019-04-23T12:36:41.000Z</time>
      </trkpt>
      <trkpt lat="49.47452" lon="-1.55525">
        <ele>21.6</ele>
        <time>2019-04-23T12:36:42.000Z</time>
      </trkpt>
      <trkpt lat="49.47452" lon="-1.55523">
        <ele>21.6</ele>
        <time>2019-04-23T12:36:43.000Z</time>
      </trkpt>
      <trkpt lat="49.47452" lon="-1.55521">
        <ele>21.5</ele>
        <time>2019-04-23T12:36:44.000Z</time>
      </trkpt>
      <trkpt lat="49.47452" lon="-1.55519">
        <ele>21.4</ele>
        <time>2019-04-23T12:36:45.000Z</time>
      </trkpt>
      <trkpt lat="49.47453" lon="-1.55517">
        <ele>21.4</ele>
        <time>2019-04-23T12:36:46.000Z</time>
      </trkpt>
      <trkpt lat="49.47453" lon="-1.55515">
        <ele>21.3</ele>
        <time>2019-04-23T12:36:47.000Z</time>
      </trkpt>
      <trkpt lat="49.47453" lon="-1.55513">
        <ele>21.3</ele>
        <time>2019-04-23T12:36:48.000Z</time>
      </trkpt>
      <trkpt lat="49.47454" lon="-1.55511">
        <ele>21.2</ele>
        <time>2019-04-23T12:36:49.000Z</time>
      </trkpt>
      <trkpt lat="49.47454" lon="-1.55509">
        <ele>21.2</ele>
        <time>2019-04-23T12:36:50.000Z</time>
      </trkpt>
      <trkpt lat="49.47455" lon="-1.55507">
        <ele>21.1</ele>
        <time>2019-04-23T12:36:51.000Z</time>
      </trkpt>
      <trkpt lat="49.47456" lon="-1.55506">
        <ele>21.1</ele>
        <time>2019-04-23T12:36:52.000Z</time>
      </trkpt>
      <trkpt lat="49.47456" lon="-1.55504">
        <ele>21.1</ele>
        <time>2019-04-23T12:36:53.000Z</time>
      </trkpt>
      <trkpt lat="49.47457" lon="-1.55502">
        <ele>21</ele>
        <time>2019-04-23T12:36:54.000Z</time>
      </trkpt>
      <trkpt lat="49.47458" lon="-1.555">
        <ele>21</ele>
        <time>2019-04-23T12:36:55.000Z</time>
      </trkpt>
      <trkpt lat="49.47458" lon="-1.55499">
        <ele>21</ele>
        <time>2019-04-23T12:36:56.000Z</time>
      </trkpt>
      <trkpt lat="49.47459" lon="-1.55497">
        <ele>21</ele>
        <time>2019-04-23T12:36:57.000Z</time>
      </trkpt>
      <trkpt lat="49.4746" lon="-1.55496">
        <ele>21</ele>
        <time>2019-04-23T12:36:58.000Z</time>
      </trkpt>
      <trkpt lat="49.47461" lon="-1.55494">
        <ele>21</ele>
        <time>2019-04-23T12:36:59.000Z</time>
      </trkpt>
      <trkpt lat="49.47462" lon="-1.55493">
        <ele>20.9</ele>
        <time>2019-04-23T12:37:00.000Z</time>
      </trkpt>
      <trkpt lat="49.47463" lon="-1.55491">
        <ele>20.9</ele>
        <time>2019-04-23T12:37:01.000Z</time>
      </trkpt>
      <trkpt lat="49.47464" lon="-1.5549">
        <ele>20.9</ele>
        <time>2019-04-23T12:37:02.000Z</time>
      </trkpt>
      <trkpt lat="49.47465" lon="-1.55489">
        <ele>20.9</ele>
        <time>2019-04-23T12:37:03.000Z</time>
      </trkpt>
      <trkpt lat="49.47466" lon="-1.55488">
        <ele>20.9</ele>
        <time>2019-04-23T12:37:04.000Z</time>
      </trkpt>
      <trkpt lat="49.47467" lon="-1.55487">
        <ele>20.9</ele>
        <time>2019-04-23T12:37:05.000Z</time>
      </trkpt>
      <trkpt lat="49.47468" lon="-1.55485">
        <ele>20.9</ele>
        <time>2019-04-23T12:37:06.000Z</time>
      </trkpt>
      <trkpt lat="49.47469" lon="-1.55484">
        <ele>20.9</ele>
        <time>2019-04-23T12:37:07.000Z</time>
      </trkpt>
      <trkpt lat="49.4747" lon="-1.55483">
        <ele>20.9</ele>
        <time>2019-04-23T12:37:08.000Z</time>
      </trkpt>
      <trkpt lat="49.47471" lon="-1.55482">
        <ele>20.9</ele>
        <time>2019-04-23T12:37:09.000Z</time>
      </trkpt>
      <trkpt lat="49.47472" lon="-1.55481">
        <ele>20.9</ele>
        <time>2019-04-23T12:37:10.000Z</time>
      </trkpt>
      <trkpt lat="49.47473" lon="-1.5548">
        <ele>20.9</ele>
        <time>2019-04-23T12:37:11.000Z</time>
      </trkpt>
      <trkpt lat="49.47474" lon="-1.55479">
        <ele>20.9</ele>
        <time>2019-04-23T12:37:12.000Z</time>
      </trkpt>
      <trkpt lat="49.47475" lon="-1.55478">
        <ele>20.9</ele>
        <time>2019-04-23T12:37:13.000Z</time>
      </trkpt>
      <trkpt lat="49.47476" lon="-1.55477">
        <ele>20.9</ele>
        <time>2019-04-23T12:37:14.000Z</time>
      </trkpt>
      <trkpt lat="49.47477" lon="-1.55475">
        <ele>20.9</ele>
        <time>2019-04-23T12:37:15.000Z</time>
      </trkpt>
      <trkpt lat="49.47478" lon="-1.55474">
        <ele>20.9</ele>
        <time>2019-04-23T12:37:16.000Z</time>
      </trkpt>
      <trkpt lat="49.4748" lon="-1.55473">
        <ele>20.9</ele>
        <time>2019-04-23T12:37:17.000Z</time>
      </trkpt>
      <trkpt lat="49.47481" lon="-1.55472">
        <ele>20.9</ele>
        <time>2019-04-23T12:37:18.000Z</time>
      </trkpt>
      <trkpt lat="49.47482" lon="-1.55471">
        <ele>20.9</ele>
        <time>2019-04-23T12:37:19.000Z</time>
      </trkpt>
      <trkpt lat="49.47483" lon="-1.5547">
        <ele>20.9</ele>
        <time>2019-04-23T12:37:20.000Z</time>
      </trkpt>
      <trkpt lat="49.47484" lon="-1.55468">
        <ele>20.9</ele>
        <time>2019-04-23T12:37:21.000Z</time>
      </trkpt>
      <trkpt lat="49.47485" lon="-1.55467">
        <ele>20.9</ele>
        <time>2019-04-23T12:37:22.000Z</time>
      </trkpt>
      <trkpt lat="49.47486" lon="-1.55466">
        <ele>20.9</ele>
        <time>2019-04-23T12:37:23.000Z</time>
      </trkpt>
      <trkpt lat="49.47487" lon="-1.55465">
        <ele>20.9</ele>
        <time>2019-04-23T12:37:24.000Z</time>
      </trkpt>
      <trkpt lat="49.47488" lon="-1.55464">
        <ele>20.9</ele>
        <time>2019-04-23T12:37:25.000Z</time>
      </trkpt>
      <trkpt lat="49.47489" lon="-1.55463">
        <ele>20.9</ele>
        <time>2019-04-23T12:37:26.000Z</time>
      </trkpt>
      <trkpt lat="49.4749" lon="-1.55461">
        <ele>20.9</ele>
        <time>2019-04-23T12:37:27.000Z</time>
      </trkpt>
      <trkpt lat="49.47491" lon="-1.5546">
        <ele>20.9</ele>
        <time>2019-04-23T12:37:28.000Z</time>
      </trkpt>
      <trkpt lat="49.47492" lon="-1.55459">
        <ele>20.9</ele>
        <time>2019-04-23T12:37:29.000Z</time>
      </trkpt>
      <trkpt lat="49.47493" lon="-1.55458">
        <ele>20.9</ele>
        <time>2019-04-23T12:37:30.000Z</time>
      </trkpt>
      <trkpt lat="49.47494" lon="-1.55457">
        <ele>20.9</ele>
        <time>2019-04-23T12:37:31.000Z</time>
      </trkpt>
      <trkpt lat="49.47495" lon="-1.55456">
        <ele>20.9</ele>
        <time>2019-04-23T12:37:32.000Z</time>
      </trkpt>
      <trkpt lat="49.47496" lon="-1.55456">
        <ele>20.9</ele>
        <time>2019-04-23T12:37:33.000Z</time>
      </trkpt>
      <trkpt lat="49.47497" lon="-1.55455">
        <ele>20.9</ele>
        <time>2019-04-23T12:37:34.000Z</time>
      </trkpt>
      <trkpt lat="49.47498" lon="-1.55454">
        <ele>20.9</ele>
        <time>2019-04-23T12:37:35.000Z</time>
      </trkpt>
      <trkpt lat="49.47499" lon="-1.55453">
        <ele>20.9</ele>
        <time>2019-04-23T12:37:36.000Z</time>
      </trkpt>
      <trkpt lat="49.475" lon="-1.55452">
        <ele>20.9</ele>
        <time>2019-04-23T12:37:37.000Z</time>
      </trkpt>
      <trkpt lat="49.47501" lon="-1.55452">
        <ele>20.9</ele>
        <time>2019-04-23T12:37:38.000Z</time>
      </trkpt>
      <trkpt lat="49.47502" lon="-1.55451">
        <ele>20.9</ele>
        <time>2019-04-23T12:37:39.000Z</time>
      </trkpt>
      <trkpt lat="49.47503" lon="-1.5545">
        <ele>20.9</ele>
        <time>2019-04-23T12:37:40.000Z</time>
      </trkpt>
      <trkpt lat="49.47504" lon="-1.55449">
        <ele>20.9</ele>
        <time>2019-04-23T12:37:41.000Z</time>
      </trkpt>
      <trkpt lat="49.47505" lon="-1.55448">
        <ele>20.9</ele>
        <time>2019-04-23T12:37:42.000Z</time>
      </trkpt>
      <trkpt lat="49.47506" lon="-1.55447">
        <ele>20.9</ele>
        <time>2019-04-23T12:37:43.000Z</time>
      </trkpt>
      <trkpt lat="49.47507" lon="-1.55446">
        <ele>20.9</ele>
        <time>2019-04-23T12:37:44.000Z</time>
      </trkpt>
      <trkpt lat="49.47508" lon="-1.55445">
        <ele>20.9</ele>
        <time>2019-04-23T12:37:45.000Z</time>
      </trkpt>
      <trkpt lat="49.47509" lon="-1.55444">
        <ele>20.9</ele>
        <time>2019-04-23T12:37:46.000Z</time>
      </trkpt>
      <trkpt lat="49.4751" lon="-1.55443">
        <ele>20.8</ele>
        <time>2019-04-23T12:37:47.000Z</time>
      </trkpt>
      <trkpt lat="49.47511" lon="-1.55442">
        <ele>20.8</ele>
        <time>2019-04-23T12:37:48.000Z</time>
      </trkpt>
      <trkpt lat="49.47512" lon="-1.55441">
        <ele>20.8</ele>
        <time>2019-04-23T12:37:49.000Z</time>
      </trkpt>
      <trkpt lat="49.47513" lon="-1.5544">
        <ele>20.8</ele>
        <time>2019-04-23T12:37:50.000Z</time>
      </trkpt>
      <trkpt lat="49.47514" lon="-1.55438">
        <ele>20.8</ele>
        <time>2019-04-23T12:37:51.000Z</time>
      </trkpt>
      <trkpt lat="49.47515" lon="-1.55437">
        <ele>20.8</ele>
        <time>2019-04-23T12:37:52.000Z</time>
      </trkpt>
      <trkpt lat="49.47516" lon="-1.55436">
        <ele>20.8</ele>
        <time>2019-04-23T12:37:53.000Z</time>
      </trkpt>
      <trkpt lat="49.47517" lon="-1.55434">
        <ele>20.8</ele>
        <time>2019-04-23T12:37:54.000Z</time>
      </trkpt>
      <trkpt lat="49.47518" lon="-1.55433">
        <ele>20.8</ele>
        <time>2019-04-23T12:37:55.000Z</time>
      </trkpt>
      <trkpt lat="49.47518" lon="-1.55431">
        <ele>20.7</ele>
        <time>2019-04-23T12:37:56.000Z</time>
      </trkpt>
      <trkpt lat="49.47519" lon="-1.55429">
        <ele>20.7</ele>
        <time>2019-04-23T12:37:57.000Z</time>
      </trkpt>
      <trkpt lat="49.4752" lon="-1.55428">
        <ele>20.7</ele>
        <time>2019-04-23T12:37:58.000Z</time>
      </trkpt>
      <trkpt lat="49.47521" lon="-1.55426">
        <ele>20.7</ele>
        <time>2019-04-23T12:37:59.000Z</time>
      </trkpt>
      <trkpt lat="49.47521" lon="-1.55424">
        <ele>20.7</ele>
        <time>2019-04-23T12:38:00.000Z</time>
      </trkpt>
      <trkpt lat="49.47522" lon="-1.55423">
        <ele>20.7</ele>
        <time>2019-04-23T12:38:01.000Z</time>
      </trkpt>
      <trkpt lat="49.47523" lon="-1.55421">
        <ele>20.6</ele>
        <time>2019-04-23T12:38:02.000Z</time>
      </trkpt>
      <trkpt lat="49.47523" lon="-1.55419">
        <ele>20.6</ele>
        <time>2019-04-23T12:38:03.000Z</time>
      </trkpt>
      <trkpt lat="49.47524" lon="-1.55418">
        <ele>20.6</ele>
        <time>2019-04-23T12:38:04.000Z</time>
      </trkpt>
      <trkpt lat="49.47524" lon="-1.55416">
        <ele>20.6</ele>
        <time>2019-04-23T12:38:05.000Z</time>
      </trkpt>
      <trkpt lat="49.47525" lon="-1.55414">
        <ele>20.6</ele>
        <time>2019-04-23T12:38:06.000Z</time>
      </trkpt>
      <trkpt lat="49.47525" lon="-1.55413">
        <ele>20.6</ele>
        <time>2019-04-23T12:38:07.000Z</time>
      </trkpt>
      <trkpt lat="49.47526" lon="-1.55411">
        <ele>20.6</ele>
        <time>2019-04-23T12:38:08.000Z</time>
      </trkpt>
      <trkpt lat="49.47526" lon="-1.55409">
        <ele>20.6</ele>
        <time>2019-04-23T12:38:09.000Z</time>
      </trkpt>
      <trkpt lat="49.47526" lon="-1.55408">
        <ele>20.7</ele>
        <time>2019-04-23T12:38:10.000Z</time>
      </trkpt>
      <trkpt lat="49.47527" lon="-1.55406">
        <ele>20.7</ele>
        <time>2019-04-23T12:38:11.000Z</time>
      </trkpt>
      <trkpt lat="49.47527" lon="-1.55405">
        <ele>20.7</ele>
        <time>2019-04-23T12:38:12.000Z</time>
      </trkpt>
      <trkpt lat="49.47528" lon="-1.55403">
        <ele>20.7</ele>
        <time>2019-04-23T12:38:13.000Z</time>
      </trkpt>
      <trkpt lat="49.47528" lon="-1.55401">
        <ele>20.7</ele>
        <time>2019-04-23T12:38:14.000Z</time>
      </trkpt>
      <trkpt lat="49.47529" lon="-1.554">
        <ele>20.8</ele>
        <time>2019-04-23T12:38:15.000Z</time>
      </trkpt>
      <trkpt lat="49.47529" lon="-1.55398">
        <ele>20.8</ele>
        <time>2019-04-23T12:38:16.000Z</time>
      </trkpt>
      <trkpt lat="49.4753" lon="-1.55397">
        <ele>20.8</ele>
        <time>2019-04-23T12:38:17.000Z</time>
      </trkpt>
      <trkpt lat="49.47531" lon="-1.55395">
        <ele>20.8</ele>
        <time>2019-04-23T12:38:18.000Z</time>
      </trkpt>
      <trkpt lat="49.47532" lon="-1.55394">
        <ele>20.9</ele>
        <time>2019-04-23T12:38:19.000Z</time>
      </trkpt>
      <trkpt lat="49.47532" lon="-1.55393">
        <ele>20.9</ele>
        <time>2019-04-23T12:38:20.000Z</time>
      </trkpt>
      <trkpt lat="49.47533" lon="-1.55391">
        <ele>20.9</ele>
        <time>2019-04-23T12:38:21.000Z</time>
      </trkpt>
      <trkpt lat="49.47534" lon="-1.5539">
        <ele>20.9</ele>
        <time>2019-04-23T12:38:22.000Z</time>
      </trkpt>
      <trkpt lat="49.47535" lon="-1.55389">
        <ele>21</ele>
        <time>2019-04-23T12:38:23.000Z</time>
      </trkpt>
      <trkpt lat="49.47536" lon="-1.55388">
        <ele>21</ele>
        <time>2019-04-23T12:38:24.000Z</time>
      </trkpt>
      <trkpt lat="49.47536" lon="-1.55387">
        <ele>21</ele>
        <time>2019-04-23T12:38:25.000Z</time>
      </trkpt>
      <trkpt lat="49.47537" lon="-1.55386">
        <ele>21.1</ele>
        <time>2019-04-23T12:38:26.000Z</time>
      </trkpt>
      <trkpt lat="49.47538" lon="-1.55385">
        <ele>21.1</ele>
        <time>2019-04-23T12:38:27.000Z</time>
      </trkpt>
      <trkpt lat="49.47539" lon="-1.55384">
        <ele>21.1</ele>
        <time>2019-04-23T12:38:28.000Z</time>
      </trkpt>
      <trkpt lat="49.4754" lon="-1.55383">
        <ele>21.1</ele>
        <time>2019-04-23T12:38:29.000Z</time>
      </trkpt>
      <trkpt lat="49.4754" lon="-1.55382">
        <ele>21.2</ele>
        <time>2019-04-23T12:38:30.000Z</time>
      </trkpt>
      <trkpt lat="49.47541" lon="-1.55381">
        <ele>21.2</ele>
        <time>2019-04-23T12:38:31.000Z</time>
      </trkpt>
      <trkpt lat="49.47542" lon="-1.5538">
        <ele>21.2</ele>
        <time>2019-04-23T12:38:32.000Z</time>
      </trkpt>
      <trkpt lat="49.47543" lon="-1.5538">
        <ele>21.3</ele>
        <time>2019-04-23T12:38:33.000Z</time>
      </trkpt>
      <trkpt lat="49.47544" lon="-1.55379">
        <ele>21.3</ele>
        <time>2019-04-23T12:38:34.000Z</time>
      </trkpt>
      <trkpt lat="49.47545" lon="-1.55378">
        <ele>21.3</ele>
        <time>2019-04-23T12:38:35.000Z</time>
      </trkpt>
      <trkpt lat="49.47546" lon="-1.55378">
        <ele>21.4</ele>
        <time>2019-04-23T12:38:36.000Z</time>
      </trkpt>
      <trkpt lat="49.47547" lon="-1.55377">
        <ele>21.4</ele>
        <time>2019-04-23T12:38:37.000Z</time>
      </trkpt>
      <trkpt lat="49.47548" lon="-1.55376">
        <ele>21.4</ele>
        <time>2019-04-23T12:38:38.000Z</time>
      </trkpt>
      <trkpt lat="49.47549" lon="-1.55376">
        <ele>21.5</ele>
        <time>2019-04-23T12:38:39.000Z</time>
      </trkpt>
      <trkpt lat="49.4755" lon="-1.55375">
        <ele>21.5</ele>
        <time>2019-04-23T12:38:40.000Z</time>
      </trkpt>
      <trkpt lat="49.47551" lon="-1.55374">
        <ele>21.5</ele>
        <time>2019-04-23T12:38:41.000Z</time>
      </trkpt>
      <trkpt lat="49.47552" lon="-1.55374">
        <ele>21.6</ele>
        <time>2019-04-23T12:38:42.000Z</time>
      </trkpt>
      <trkpt lat="49.47553" lon="-1.55373">
        <ele>21.6</ele>
        <time>2019-04-23T12:38:43.000Z</time>
      </trkpt>
      <trkpt lat="49.47554" lon="-1.55372">
        <ele>21.6</ele>
        <time>2019-04-23T12:38:44.000Z</time>
      </trkpt>
      <trkpt lat="49.47555" lon="-1.55372">
        <ele>21.7</ele>
        <time>2019-04-23T12:38:45.000Z</time>
      </trkpt>
      <trkpt lat="49.47556" lon="-1.55371">
        <ele>21.7</ele>
        <time>2019-04-23T12:38:46.000Z</time>
      </trkpt>
      <trkpt lat="49.47557" lon="-1.55371">
        <ele>21.7</ele>
        <time>2019-04-23T12:38:47.000Z</time>
      </trkpt>
      <trkpt lat="49.47558" lon="-1.5537">
        <ele>21.8</ele>
        <time>2019-04-23T12:38:48.000Z</time>
      </trkpt>
      <trkpt lat="49.47559" lon="-1.55369">
        <ele>21.8</ele>
        <time>2019-04-23T12:38:49.000Z</time>
      </trkpt>
      <trkpt lat="49.4756" lon="-1.55369">
        <ele>21.9</ele>
        <time>2019-04-23T12:38:50.000Z</time>
      </trkpt>
      <trkpt lat="49.47561" lon="-1.55368">
        <ele>21.9</ele>
        <time>2019-04-23T12:38:51.000Z</time>
      </trkpt>
      <trkpt lat="49.47562" lon="-1.55368">
        <ele>21.9</ele>
        <time>2019-04-23T12:38:52.000Z</time>
      </trkpt>
      <trkpt lat="49.47564" lon="-1.55367">
        <ele>22</ele>
        <time>2019-04-23T12:38:53.000Z</time>
      </trkpt>
      <trkpt lat="49.47565" lon="-1.55367">
        <ele>22</ele>
        <time>2019-04-23T12:38:54.000Z</time>
      </trkpt>
      <trkpt lat="49.47566" lon="-1.55366">
        <ele>22.1</ele>
        <time>2019-04-23T12:38:55.000Z</time>
      </trkpt>
      <trkpt lat="49.47567" lon="-1.55366">
        <ele>22.1</ele>
        <time>2019-04-23T12:38:56.000Z</time>
      </trkpt>
      <trkpt lat="49.47568" lon="-1.55365">
        <ele>22.1</ele>
        <time>2019-04-23T12:38:57.000Z</time>
      </trkpt>
      <trkpt lat="49.47569" lon="-1.55365">
        <ele>22.2</ele>
        <time>2019-04-23T12:38:58.000Z</time>
      </trkpt>
      <trkpt lat="49.4757" lon="-1.55364">
        <ele>22.2</ele>
        <time>2019-04-23T12:38:59.000Z</time>
      </trkpt>
      <trkpt lat="49.47571" lon="-1.55364">
        <ele>22.3</ele>
        <time>2019-04-23T12:39:00.000Z</time>
      </trkpt>
      <trkpt lat="49.47573" lon="-1.55363">
        <ele>22.3</ele>
        <time>2019-04-23T12:39:01.000Z</time>
      </trkpt>
      <trkpt lat="49.47574" lon="-1.55363">
        <ele>22.3</ele>
        <time>2019-04-23T12:39:02.000Z</time>
      </trkpt>
      <trkpt lat="49.47575" lon="-1.55362">
        <ele>22.4</ele>
        <time>2019-04-23T12:39:03.000Z</time>
      </trkpt>
      <trkpt lat="49.47576" lon="-1.55362">
        <ele>22.4</ele>
        <time>2019-04-23T12:39:04.000Z</time>
      </trkpt>
      <trkpt lat="49.47577" lon="-1.55361">
        <ele>22.5</ele>
        <time>2019-04-23T12:39:05.000Z</time>
      </trkpt>
      <trkpt lat="49.47578" lon="-1.5536">
        <ele>22.5</ele>
        <time>2019-04-23T12:39:06.000Z</time>
      </trkpt>
      <trkpt lat="49.47579" lon="-1.5536">
        <ele>22.5</ele>
        <time>2019-04-23T12:39:07.000Z</time>
      </trkpt>
      <trkpt lat="49.4758" lon="-1.55359">
        <ele>22.6</ele>
        <time>2019-04-23T12:39:08.000Z</time>
      </trkpt>
      <trkpt lat="49.47581" lon="-1.55359">
        <ele>22.6</ele>
        <time>2019-04-23T12:39:09.000Z</time>
      </trkpt>
      <trkpt lat="49.47582" lon="-1.55358">
        <ele>22.7</ele>
        <time>2019-04-23T12:39:10.000Z</time>
      </trkpt>
      <trkpt lat="49.47583" lon="-1.55357">
        <ele>22.7</ele>
        <time>2019-04-23T12:39:11.000Z</time>
      </trkpt>
      <trkpt lat="49.47584" lon="-1.55357">
        <ele>22.7</ele>
        <time>2019-04-23T12:39:12.000Z</time>
      </trkpt>
      <trkpt lat="49.47585" lon="-1.55356">
        <ele>22.7</ele>
        <time>2019-04-23T12:39:13.000Z</time>
      </trkpt>
      <trkpt lat="49.47586" lon="-1.55355">
        <ele>22.7</ele>
        <time>2019-04-23T12:39:14.000Z</time>
      </trkpt>
      <trkpt lat="49.47587" lon="-1.55354">
        <ele>22.7</ele>
        <time>2019-04-23T12:39:15.000Z</time>
      </trkpt>
      <trkpt lat="49.47588" lon="-1.55353">
        <ele>22.7</ele>
        <time>2019-04-23T12:39:16.000Z</time>
      </trkpt>
      <trkpt lat="49.47589" lon="-1.55352">
        <ele>22.7</ele>
        <time>2019-04-23T12:39:17.000Z</time>
      </trkpt>
      <trkpt lat="49.4759" lon="-1.55352">
        <ele>22.7</ele>
        <time>2019-04-23T12:39:18.000Z</time>
      </trkpt>
      <trkpt lat="49.4759" lon="-1.55351">
        <ele>22.7</ele>
        <time>2019-04-23T12:39:19.000Z</time>
      </trkpt>
      <trkpt lat="49.47591" lon="-1.5535">
        <ele>22.6</ele>
        <time>2019-04-23T12:39:20.000Z</time>
      </trkpt>
      <trkpt lat="49.47592" lon="-1.5535">
        <ele>22.6</ele>
        <time>2019-04-23T12:39:21.000Z</time>
      </trkpt>
      <trkpt lat="49.47592" lon="-1.55349">
        <ele>22.6</ele>
        <time>2019-04-23T12:39:22.000Z</time>
      </trkpt>
      <trkpt lat="49.47593" lon="-1.55348">
        <ele>22.6</ele>
        <time>2019-04-23T12:39:23.000Z</time>
      </trkpt>
      <trkpt lat="49.47593" lon="-1.55348">
        <ele>22.6</ele>
        <time>2019-04-23T12:39:24.000Z</time>
      </trkpt>
      <trkpt lat="49.47593" lon="-1.55348">
        <ele>22.6</ele>
        <time>2019-04-23T12:39:25.000Z</time>
      </trkpt>
      <trkpt lat="49.47594" lon="-1.55348">
        <ele>22.6</ele>
        <time>2019-04-23T12:39:26.000Z</time>
      </trkpt>
      <trkpt lat="49.47594" lon="-1.55347">
        <ele>22.6</ele>
        <time>2019-04-23T12:39:27.000Z</time>
      </trkpt>
      <trkpt lat="49.47594" lon="-1.55347">
        <ele>22.6</ele>
        <time>2019-04-23T12:39:28.000Z</time>
      </trkpt>
      <trkpt lat="49.47594" lon="-1.55347">
        <ele>22.6</ele>
        <time>2019-04-23T12:39:29.000Z</time>
      </trkpt>
      <trkpt lat="49.47594" lon="-1.55347">
        <ele>22.6</ele>
        <time>2019-04-23T12:39:30.000Z</time>
      </trkpt>
      <trkpt lat="49.47594" lon="-1.55347">
        <ele>22.6</ele>
        <time>2019-04-23T12:39:31.000Z</time>
      </trkpt>
      <trkpt lat="49.47594" lon="-1.55347">
        <ele>22.6</ele>
        <time>2019-04-23T12:39:32.000Z</time>
      </trkpt>
      <trkpt lat="49.47594" lon="-1.55347">
        <ele>22.6</ele>
        <time>2019-04-23T12:39:33.000Z</time>
      </trkpt>
      <trkpt lat="49.47594" lon="-1.55347">
        <ele>22.6</ele>
        <time>2019-04-23T12:39:34.000Z</time>
      </trkpt>
      <trkpt lat="49.47594" lon="-1.55347">
        <ele>22.6</ele>
        <time>2019-04-23T12:39:35.000Z</time>
      </trkpt>
      <trkpt lat="49.47594" lon="-1.55347">
        <ele>22.6</ele>
        <time>2019-04-23T12:39:36.000Z</time>
      </trkpt>
      <trkpt lat="49.47594" lon="-1.55347">
        <ele>22.6</ele>
        <time>2019-04-23T12:39:37.000Z</time>
      </trkpt>
      <trkpt lat="49.47594" lon="-1.55347">
        <ele>22.6</ele>
        <time>2019-04-23T12:39:38.000Z</time>
      </trkpt>
      <trkpt lat="49.47594" lon="-1.55347">
        <ele>22.6</ele>
        <time>2019-04-23T12:39:39.000Z</time>
      </trkpt>
      <trkpt lat="49.47594" lon="-1.55347">
        <ele>22.6</ele>
        <time>2019-04-23T12:39:40.000Z</time>
      </trkpt>
      <trkpt lat="49.47594" lon="-1.55347">
        <ele>22.6</ele>
        <time>2019-04-23T12:39:41.000Z</time>
      </trkpt>
      <trkpt lat="49.47594" lon="-1.55347">
        <ele>22.6</ele>
        <time>2019-04-23T12:39:42.000Z</time>
      </trkpt>
      <trkpt lat="49.47594" lon="-1.55347">
        <ele>22.6</ele>
        <time>2019-04-23T12:39:43.000Z</time>
      </trkpt>
      <trkpt lat="49.47594" lon="-1.55347">
        <ele>22.6</ele>
        <time>2019-04-23T12:39:44.000Z</time>
      </trkpt>
      <trkpt lat="49.47594" lon="-1.55347">
        <ele>22.6</ele>
        <time>2019-04-23T12:39:45.000Z</time>
      </trkpt>
      <trkpt lat="49.47594" lon="-1.55347">
        <ele>22.6</ele>
        <time>2019-04-23T12:39:46.000Z</time>
      </trkpt>
      <trkpt lat="49.47594" lon="-1.55347">
        <ele>22.6</ele>
        <time>2019-04-23T12:39:47.000Z</time>
      </trkpt>
      <trkpt lat="49.47594" lon="-1.55347">
        <ele>22.6</ele>
        <time>2019-04-23T12:39:48.000Z</time>
      </trkpt>
      <trkpt lat="49.47594" lon="-1.55347">
        <ele>22.6</ele>
        <time>2019-04-23T12:39:49.000Z</time>
      </trkpt>
      <trkpt lat="49.47594" lon="-1.55347">
        <ele>22.6</ele>
        <time>2019-04-23T12:39:50.000Z</time>
      </trkpt>
      <trkpt lat="49.47594" lon="-1.55347">
        <ele>22.6</ele>
        <time>2019-04-23T12:39:51.000Z</time>
      </trkpt>
      <trkpt lat="49.47594" lon="-1.55347">
        <ele>22.6</ele>
        <time>2019-04-23T12:39:52.000Z</time>
      </trkpt>
      <trkpt lat="49.47594" lon="-1.55347">
        <ele>22.6</ele>
        <time>2019-04-23T12:39:53.000Z</time>
      </trkpt>
      <trkpt lat="49.47594" lon="-1.55347">
        <ele>22.6</ele>
        <time>2019-04-23T12:39:54.000Z</time>
      </trkpt>
      <trkpt lat="49.47594" lon="-1.55347">
        <ele>22.6</ele>
        <time>2019-04-23T12:39:55.000Z</time>
      </trkpt>
      <trkpt lat="49.47594" lon="-1.55347">
        <ele>22.6</ele>
        <time>2019-04-23T12:39:56.000Z</time>
      </trkpt>
      <trkpt lat="49.47594" lon="-1.55347">
        <ele>22.6</ele>
        <time>2019-04-23T12:39:57.000Z</time>
      </trkpt>
      <trkpt lat="49.47594" lon="-1.55347">
        <ele>22.6</ele>
        <time>2019-04-23T12:39:58.000Z</time>
      </trkpt>
      <trkpt lat="49.47594" lon="-1.55347">
        <ele>22.6</ele>
        <time>2019-04-23T12:39:59.000Z</time>
      </trkpt>
      <trkpt lat="49.47594" lon="-1.55347">
        <ele>22.6</ele>
        <time>2019-04-23T12:40:00.000Z</time>
      </trkpt>
      <trkpt lat="49.47594" lon="-1.55347">
        <ele>22.6</ele>
        <time>2019-04-23T12:40:01.000Z</time>
      </trkpt>
      <trkpt lat="49.47594" lon="-1.55347">
        <ele>22.6</ele>
        <time>2019-04-23T12:40:02.000Z</time>
      </trkpt>
      <trkpt lat="49.47594" lon="-1.55347">
        <ele>22.6</ele>
        <time>2019-04-23T12:40:03.000Z</time>
      </trkpt>
      <trkpt lat="49.47594" lon="-1.55348">
        <ele>22.6</ele>
        <time>2019-04-23T12:40:04.000Z</time>
      </trkpt>
      <trkpt lat="49.47594" lon="-1.55348">
        <ele>22.6</ele>
        <time>2019-04-23T12:40:05.000Z</time>
      </trkpt>
      <trkpt lat="49.47594" lon="-1.55348">
        <ele>22.6</ele>
        <time>2019-04-23T12:40:06.000Z</time>
      </trkpt>
      <trkpt lat="49.47594" lon="-1.55348">
        <ele>22.6</ele>
        <time>2019-04-23T12:40:07.000Z</time>
      </trkpt>
      <trkpt lat="49.47594" lon="-1.55348">
        <ele>22.6</ele>
        <time>2019-04-23T12:40:08.000Z</time>
      </trkpt>
      <trkpt lat="49.47594" lon="-1.55348">
        <ele>22.6</ele>
        <time>2019-04-23T12:40:09.000Z</time>
      </trkpt>
      <trkpt lat="49.47594" lon="-1.55348">
        <ele>22.6</ele>
        <time>2019-04-23T12:40:10.000Z</time>
      </trkpt>
      <trkpt lat="49.47594" lon="-1.55348">
        <ele>22.6</ele>
        <time>2019-04-23T12:40:11.000Z</time>
      </trkpt>
      <trkpt lat="49.47594" lon="-1.55348">
        <ele>22.6</ele>
        <time>2019-04-23T12:40:12.000Z</time>
      </trkpt>
      <trkpt lat="49.47594" lon="-1.55348">
        <ele>22.6</ele>
        <time>2019-04-23T12:40:13.000Z</time>
      </trkpt>
      <trkpt lat="49.47594" lon="-1.55348">
        <ele>22.6</ele>
        <time>2019-04-23T12:40:14.000Z</time>
      </trkpt>
      <trkpt lat="49.47594" lon="-1.55348">
        <ele>22.6</ele>
        <time>2019-04-23T12:40:15.000Z</time>
      </trkpt>
      <trkpt lat="49.47594" lon="-1.55348">
        <ele>22.6</ele>
        <time>2019-04-23T12:40:16.000Z</time>
      </trkpt>
      <trkpt lat="49.47594" lon="-1.55349">
        <ele>22.6</ele>
        <time>2019-04-23T12:40:17.000Z</time>
      </trkpt>
      <trkpt lat="49.47594" lon="-1.55349">
        <ele>22.6</ele>
        <time>2019-04-23T12:40:18.000Z</time>
      </trkpt>
      <trkpt lat="49.47594" lon="-1.55349">
        <ele>22.6</ele>
        <time>2019-04-23T12:40:19.000Z</time>
      </trkpt>
      <trkpt lat="49.47594" lon="-1.55349">
        <ele>22.6</ele>
        <time>2019-04-23T12:40:20.000Z</time>
      </trkpt>
      <trkpt lat="49.47594" lon="-1.55349">
        <ele>22.6</ele>
        <time>2019-04-23T12:40:21.000Z</time>
      </trkpt>
      <trkpt lat="49.47594" lon="-1.55349">
        <ele>22.6</ele>
        <time>2019-04-23T12:40:22.000Z</time>
      </trkpt>
      <trkpt lat="49.47594" lon="-1.55349">
        <ele>22.6</ele>
        <time>2019-04-23T12:40:23.000Z</time>
      </trkpt>
      <trkpt lat="49.47594" lon="-1.55349">
        <ele>22.6</ele>
        <time>2019-04-23T12:40:24.000Z</time>
      </trkpt>
      <trkpt lat="49.47594" lon="-1.55349">
        <ele>22.6</ele>
        <time>2019-04-23T12:40:25.000Z</time>
      </trkpt>
      <trkpt lat="49.47594" lon="-1.55349">
        <ele>22.6</ele>
        <time>2019-04-23T12:40:26.000Z</time>
      </trkpt>
      <trkpt lat="49.47594" lon="-1.55349">
        <ele>22.6</ele>
        <time>2019-04-23T12:40:27.000Z</time>
      </trkpt>
      <trkpt lat="49.47594" lon="-1.55349">
        <ele>22.6</ele>
        <time>2019-04-23T12:40:28.000Z</time>
      </trkpt>
      <trkpt lat="49.47594" lon="-1.55349">
        <ele>22.6</ele>
        <time>2019-04-23T12:40:29.000Z</time>
      </trkpt>
      <trkpt lat="49.47594" lon="-1.55349">
        <ele>22.6</ele>
        <time>2019-04-23T12:40:30.000Z</time>
      </trkpt>
      <trkpt lat="49.47594" lon="-1.55349">
        <ele>22.6</ele>
        <time>2019-04-23T12:40:31.000Z</time>
      </trkpt>
      <trkpt lat="49.47594" lon="-1.55349">
        <ele>22.6</ele>
        <time>2019-04-23T12:40:32.000Z</time>
      </trkpt>
      <trkpt lat="49.47594" lon="-1.55349">
        <ele>22.6</ele>
        <time>2019-04-23T12:40:33.000Z</time>
      </trkpt>
      <trkpt lat="49.47594" lon="-1.55349">
        <ele>22.6</ele>
        <time>2019-04-23T12:40:34.000Z</time>
      </trkpt>
      <trkpt lat="49.47594" lon="-1.55349">
        <ele>22.6</ele>
        <time>2019-04-23T12:40:35.000Z</time>
      </trkpt>
      <trkpt lat="49.47594" lon="-1.55349">
        <ele>22.6</ele>
        <time>2019-04-23T12:40:36.000Z</time>
      </trkpt>
      <trkpt lat="49.47594" lon="-1.55349">
        <ele>22.6</ele>
        <time>2019-04-23T12:40:37.000Z</time>
      </trkpt>
      <trkpt lat="49.47594" lon="-1.55349">
        <ele>22.6</ele>
        <time>2019-04-23T12:40:38.000Z</time>
      </trkpt>
      <trkpt lat="49.47594" lon="-1.55349">
        <ele>22.6</ele>
        <time>2019-04-23T12:40:39.000Z</time>
      </trkpt>
      <trkpt lat="49.47594" lon="-1.55349">
        <ele>22.6</ele>
        <time>2019-04-23T12:40:40.000Z</time>
      </trkpt>
      <trkpt lat="49.47594" lon="-1.55349">
        <ele>22.6</ele>
        <time>2019-04-23T12:40:41.000Z</time>
      </trkpt>
      <trkpt lat="49.47594" lon="-1.55349">
        <ele>22.6</ele>
        <time>2019-04-23T12:40:42.000Z</time>
      </trkpt>
      <trkpt lat="49.47594" lon="-1.55349">
        <ele>22.6</ele>
        <time>2019-04-23T12:40:43.000Z</time>
      </trkpt>
      <trkpt lat="49.47594" lon="-1.55349">
        <ele>22.6</ele>
        <time>2019-04-23T12:40:44.000Z</time>
      </trkpt>
      <trkpt lat="49.47594" lon="-1.55349">
        <ele>22.6</ele>
        <time>2019-04-23T12:40:45.000Z</time>
      </trkpt>
      <trkpt lat="49.47594" lon="-1.55349">
        <ele>22.6</ele>
        <time>2019-04-23T12:40:46.000Z</time>
      </trkpt>
      <trkpt lat="49.47594" lon="-1.55349">
        <ele>22.6</ele>
        <time>2019-04-23T12:40:47.000Z</time>
      </trkpt>
      <trkpt lat="49.47594" lon="-1.55349">
        <ele>22.6</ele>
        <time>2019-04-23T12:40:48.000Z</time>
      </trkpt>
      <trkpt lat="49.47594" lon="-1.55349">
        <ele>22.6</ele>
        <time>2019-04-23T12:40:49.000Z</time>
      </trkpt>
      <trkpt lat="49.47594" lon="-1.55349">
        <ele>22.6</ele>
        <time>2019-04-23T12:40:50.000Z</time>
      </trkpt>
      <trkpt lat="49.47594" lon="-1.55349">
        <ele>22.6</ele>
        <time>2019-04-23T12:40:51.000Z</time>
      </trkpt>
      <trkpt lat="49.47594" lon="-1.55349">
        <ele>22.6</ele>
        <time>2019-04-23T12:40:52.000Z</time>
      </trkpt>
      <trkpt lat="49.47594" lon="-1.55349">
        <ele>22.6</ele>
        <time>2019-04-23T12:40:53.000Z</time>
      </trkpt>
      <trkpt lat="49.47594" lon="-1.55349">
        <ele>22.6</ele>
        <time>2019-04-23T12:40:54.000Z</time>
      </trkpt>
      <trkpt lat="49.47594" lon="-1.55349">
        <ele>22.6</ele>
        <time>2019-04-23T12:40:55.000Z</time>
      </trkpt>
      <trkpt lat="49.47594" lon="-1.55349">
        <ele>22.6</ele>
        <time>2019-04-23T12:40:56.000Z</time>
      </trkpt>
      <trkpt lat="49.47594" lon="-1.55349">
        <ele>22.6</ele>
        <time>2019-04-23T12:40:57.000Z</time>
      </trkpt>
      <trkpt lat="49.47594" lon="-1.55349">
        <ele>22.6</ele>
        <time>2019-04-23T12:40:58.000Z</time>
      </trkpt>
      <trkpt lat="49.47594" lon="-1.55349">
        <ele>22.6</ele>
        <time>2019-04-23T12:40:59.000Z</time>
      </trkpt>
      <trkpt lat="49.47594" lon="-1.55349">
        <ele>22.6</ele>
        <time>2019-04-23T12:41:00.000Z</time>
      </trkpt>
      <trkpt lat="49.47594" lon="-1.55349">
        <ele>22.6</ele>
        <time>2019-04-23T12:41:01.000Z</time>
      </trkpt>
      <trkpt lat="49.47594" lon="-1.55349">
        <ele>22.6</ele>
        <time>2019-04-23T12:41:02.000Z</time>
      </trkpt>
      <trkpt lat="49.47594" lon="-1.55349">
        <ele>22.6</ele>
        <time>2019-04-23T12:41:03.000Z</time>
      </trkpt>
      <trkpt lat="49.47594" lon="-1.55349">
        <ele>22.6</ele>
        <time>2019-04-23T12:41:04.000Z</time>
      </trkpt>
      <trkpt lat="49.47594" lon="-1.55349">
        <ele>22.6</ele>
        <time>2019-04-23T12:41:05.000Z</time>
      </trkpt>
      <trkpt lat="49.47594" lon="-1.55349">
        <ele>22.6</ele>
        <time>2019-04-23T12:41:06.000Z</time>
      </trkpt>
      <trkpt lat="49.47594" lon="-1.55349">
        <ele>22.6</ele>
        <time>2019-04-23T12:41:07.000Z</time>
      </trkpt>
      <trkpt lat="49.47594" lon="-1.55349">
        <ele>22.6</ele>
        <time>2019-04-23T12:41:08.000Z</time>
      </trkpt>
      <trkpt lat="49.47594" lon="-1.55349">
        <ele>22.6</ele>
        <time>2019-04-23T12:41:09.000Z</time>
      </trkpt>
      <trkpt lat="49.47594" lon="-1.55349">
        <ele>22.6</ele>
        <time>2019-04-23T12:41:10.000Z</time>
      </trkpt>
      <trkpt lat="49.47594" lon="-1.5535">
        <ele>22.6</ele>
        <time>2019-04-23T12:41:11.000Z</time>
      </trkpt>
      <trkpt lat="49.47595" lon="-1.5535">
        <ele>22.6</ele>
        <time>2019-04-23T12:41:12.000Z</time>
      </trkpt>
      <trkpt lat="49.47596" lon="-1.5535">
        <ele>22.6</ele>
        <time>2019-04-23T12:41:13.000Z</time>
      </trkpt>
      <trkpt lat="49.47596" lon="-1.5535">
        <ele>22.5</ele>
        <time>2019-04-23T12:41:14.000Z</time>
      </trkpt>
      <trkpt lat="49.47597" lon="-1.5535">
        <ele>22.5</ele>
        <time>2019-04-23T12:41:15.000Z</time>
      </trkpt>
      <trkpt lat="49.47598" lon="-1.5535">
        <ele>22.5</ele>
        <time>2019-04-23T12:41:16.000Z</time>
      </trkpt>
      <trkpt lat="49.47598" lon="-1.55351">
        <ele>22.5</ele>
        <time>2019-04-23T12:41:17.000Z</time>
      </trkpt>
      <trkpt lat="49.47598" lon="-1.55351">
        <ele>22.5</ele>
        <time>2019-04-23T12:41:18.000Z</time>
      </trkpt>
      <trkpt lat="49.47599" lon="-1.55351">
        <ele>22.5</ele>
        <time>2019-04-23T12:41:19.000Z</time>
      </trkpt>
      <trkpt lat="49.47599" lon="-1.55351">
        <ele>22.5</ele>
        <time>2019-04-23T12:41:20.000Z</time>
      </trkpt>
      <trkpt lat="49.47599" lon="-1.55351">
        <ele>22.5</ele>
        <time>2019-04-23T12:41:21.000Z</time>
      </trkpt>
      <trkpt lat="49.47599" lon="-1.55351">
        <ele>22.5</ele>
        <time>2019-04-23T12:41:22.000Z</time>
      </trkpt>
      <trkpt lat="49.47599" lon="-1.55351">
        <ele>22.5</ele>
        <time>2019-04-23T12:41:23.000Z</time>
      </trkpt>
      <trkpt lat="49.47599" lon="-1.55351">
        <ele>22.5</ele>
        <time>2019-04-23T12:41:24.000Z</time>
      </trkpt>
      <trkpt lat="49.47599" lon="-1.55351">
        <ele>22.5</ele>
        <time>2019-04-23T12:41:25.000Z</time>
      </trkpt>
      <trkpt lat="49.47599" lon="-1.55351">
        <ele>22.5</ele>
        <time>2019-04-23T12:41:26.000Z</time>
      </trkpt>
      <trkpt lat="49.47599" lon="-1.55351">
        <ele>22.5</ele>
        <time>2019-04-23T12:41:27.000Z</time>
      </trkpt>
      <trkpt lat="49.47599" lon="-1.55351">
        <ele>22.5</ele>
        <time>2019-04-23T12:41:28.000Z</time>
      </trkpt>
      <trkpt lat="49.47599" lon="-1.55351">
        <ele>22.5</ele>
        <time>2019-04-23T12:41:29.000Z</time>
      </trkpt>
      <trkpt lat="49.47599" lon="-1.55351">
        <ele>22.5</ele>
        <time>2019-04-23T12:41:30.000Z</time>
      </trkpt>
      <trkpt lat="49.47599" lon="-1.55351">
        <ele>22.5</ele>
        <time>2019-04-23T12:41:31.000Z</time>
      </trkpt>
      <trkpt lat="49.47599" lon="-1.55351">
        <ele>22.5</ele>
        <time>2019-04-23T12:41:32.000Z</time>
      </trkpt>
      <trkpt lat="49.47599" lon="-1.55351">
        <ele>22.5</ele>
        <time>2019-04-23T12:41:33.000Z</time>
      </trkpt>
      <trkpt lat="49.47599" lon="-1.55351">
        <ele>22.5</ele>
        <time>2019-04-23T12:41:34.000Z</time>
      </trkpt>
      <trkpt lat="49.47599" lon="-1.55351">
        <ele>22.5</ele>
        <time>2019-04-23T12:41:35.000Z</time>
      </trkpt>
      <trkpt lat="49.47599" lon="-1.55351">
        <ele>22.5</ele>
        <time>2019-04-23T12:41:36.000Z</time>
      </trkpt>
      <trkpt lat="49.47599" lon="-1.55351">
        <ele>22.5</ele>
        <time>2019-04-23T12:41:37.000Z</time>
      </trkpt>
      <trkpt lat="49.47599" lon="-1.55351">
        <ele>22.5</ele>
        <time>2019-04-23T12:41:38.000Z</time>
      </trkpt>
      <trkpt lat="49.47599" lon="-1.55351">
        <ele>22.5</ele>
        <time>2019-04-23T12:41:39.000Z</time>
      </trkpt>
      <trkpt lat="49.47599" lon="-1.55351">
        <ele>22.5</ele>
        <time>2019-04-23T12:41:40.000Z</time>
      </trkpt>
      <trkpt lat="49.47599" lon="-1.55351">
        <ele>22.5</ele>
        <time>2019-04-23T12:41:41.000Z</time>
      </trkpt>
      <trkpt lat="49.47599" lon="-1.55351">
        <ele>22.5</ele>
        <time>2019-04-23T12:41:42.000Z</time>
      </trkpt>
      <trkpt lat="49.47599" lon="-1.55351">
        <ele>22.5</ele>
        <time>2019-04-23T12:41:43.000Z</time>
      </trkpt>
      <trkpt lat="49.47599" lon="-1.55351">
        <ele>22.5</ele>
        <time>2019-04-23T12:41:44.000Z</time>
      </trkpt>
      <trkpt lat="49.47598" lon="-1.55351">
        <ele>22.5</ele>
        <time>2019-04-23T12:41:45.000Z</time>
      </trkpt>
      <trkpt lat="49.47598" lon="-1.55351">
        <ele>22.5</ele>
        <time>2019-04-23T12:41:46.000Z</time>
      </trkpt>
      <trkpt lat="49.47598" lon="-1.55351">
        <ele>22.5</ele>
        <time>2019-04-23T12:41:47.000Z</time>
      </trkpt>
      <trkpt lat="49.47598" lon="-1.55351">
        <ele>22.5</ele>
        <time>2019-04-23T12:41:48.000Z</time>
      </trkpt>
      <trkpt lat="49.47598" lon="-1.55351">
        <ele>22.5</ele>
        <time>2019-04-23T12:41:49.000Z</time>
      </trkpt>
      <trkpt lat="49.47598" lon="-1.55351">
        <ele>22.5</ele>
        <time>2019-04-23T12:41:50.000Z</time>
      </trkpt>
      <trkpt lat="49.47598" lon="-1.55351">
        <ele>22.5</ele>
        <time>2019-04-23T12:41:51.000Z</time>
      </trkpt>
      <trkpt lat="49.47598" lon="-1.5535">
        <ele>22.5</ele>
        <time>2019-04-23T12:41:52.000Z</time>
      </trkpt>
      <trkpt lat="49.47598" lon="-1.5535">
        <ele>22.5</ele>
        <time>2019-04-23T12:41:53.000Z</time>
      </trkpt>
      <trkpt lat="49.47598" lon="-1.5535">
        <ele>22.5</ele>
        <time>2019-04-23T12:41:54.000Z</time>
      </trkpt>
      <trkpt lat="49.47598" lon="-1.5535">
        <ele>22.5</ele>
        <time>2019-04-23T12:41:55.000Z</time>
      </trkpt>
      <trkpt lat="49.47597" lon="-1.5535">
        <ele>22.5</ele>
        <time>2019-04-23T12:41:56.000Z</time>
      </trkpt>
      <trkpt lat="49.47597" lon="-1.5535">
        <ele>22.5</ele>
        <time>2019-04-23T12:41:57.000Z</time>
      </trkpt>
      <trkpt lat="49.47597" lon="-1.5535">
        <ele>22.5</ele>
        <time>2019-04-23T12:41:58.000Z</time>
      </trkpt>
      <trkpt lat="49.47597" lon="-1.5535">
        <ele>22.5</ele>
        <time>2019-04-23T12:41:59.000Z</time>
      </trkpt>
      <trkpt lat="49.47597" lon="-1.5535">
        <ele>22.5</ele>
        <time>2019-04-23T12:42:00.000Z</time>
      </trkpt>
      <trkpt lat="49.47597" lon="-1.5535">
        <ele>22.5</ele>
        <time>2019-04-23T12:42:01.000Z</time>
      </trkpt>
      <trkpt lat="49.47597" lon="-1.5535">
        <ele>22.5</ele>
        <time>2019-04-23T12:42:02.000Z</time>
      </trkpt>
      <trkpt lat="49.47597" lon="-1.5535">
        <ele>22.5</ele>
        <time>2019-04-23T12:42:03.000Z</time>
      </trkpt>
      <trkpt lat="49.47597" lon="-1.5535">
        <ele>22.5</ele>
        <time>2019-04-23T12:42:04.000Z</time>
      </trkpt>
      <trkpt lat="49.47597" lon="-1.5535">
        <ele>22.5</ele>
        <time>2019-04-23T12:42:05.000Z</time>
      </trkpt>
      <trkpt lat="49.47597" lon="-1.5535">
        <ele>22.5</ele>
        <time>2019-04-23T12:42:06.000Z</time>
      </trkpt>
      <trkpt lat="49.47597" lon="-1.5535">
        <ele>22.5</ele>
        <time>2019-04-23T12:42:07.000Z</time>
      </trkpt>
      <trkpt lat="49.47597" lon="-1.5535">
        <ele>22.5</ele>
        <time>2019-04-23T12:42:08.000Z</time>
      </trkpt>
      <trkpt lat="49.47597" lon="-1.5535">
        <ele>22.5</ele>
        <time>2019-04-23T12:42:09.000Z</time>
      </trkpt>
      <trkpt lat="49.47597" lon="-1.5535">
        <ele>22.5</ele>
        <time>2019-04-23T12:42:10.000Z</time>
      </trkpt>
      <trkpt lat="49.47597" lon="-1.5535">
        <ele>22.5</ele>
        <time>2019-04-23T12:42:11.000Z</time>
      </trkpt>
      <trkpt lat="49.47597" lon="-1.5535">
        <ele>22.5</ele>
        <time>2019-04-23T12:42:12.000Z</time>
      </trkpt>
      <trkpt lat="49.47597" lon="-1.5535">
        <ele>22.5</ele>
        <time>2019-04-23T12:42:13.000Z</time>
      </trkpt>
      <trkpt lat="49.47597" lon="-1.5535">
        <ele>22.5</ele>
        <time>2019-04-23T12:42:14.000Z</time>
      </trkpt>
      <trkpt lat="49.47597" lon="-1.5535">
        <ele>22.5</ele>
        <time>2019-04-23T12:42:15.000Z</time>
      </trkpt>
      <trkpt lat="49.47597" lon="-1.5535">
        <ele>22.5</ele>
        <time>2019-04-23T12:42:16.000Z</time>
      </trkpt>
      <trkpt lat="49.47597" lon="-1.5535">
        <ele>22.5</ele>
        <time>2019-04-23T12:42:17.000Z</time>
      </trkpt>
      <trkpt lat="49.47597" lon="-1.5535">
        <ele>22.5</ele>
        <time>2019-04-23T12:42:18.000Z</time>
      </trkpt>
      <trkpt lat="49.47597" lon="-1.5535">
        <ele>22.5</ele>
        <time>2019-04-23T12:42:19.000Z</time>
      </trkpt>
      <trkpt lat="49.47597" lon="-1.5535">
        <ele>22.5</ele>
        <time>2019-04-23T12:42:20.000Z</time>
      </trkpt>
      <trkpt lat="49.47597" lon="-1.5535">
        <ele>22.5</ele>
        <time>2019-04-23T12:42:21.000Z</time>
      </trkpt>
      <trkpt lat="49.47597" lon="-1.5535">
        <ele>22.5</ele>
        <time>2019-04-23T12:42:22.000Z</time>
      </trkpt>
      <trkpt lat="49.47597" lon="-1.5535">
        <ele>22.5</ele>
        <time>2019-04-23T12:42:23.000Z</time>
      </trkpt>
      <trkpt lat="49.47597" lon="-1.5535">
        <ele>22.5</ele>
        <time>2019-04-23T12:42:24.000Z</time>
      </trkpt>
      <trkpt lat="49.47597" lon="-1.5535">
        <ele>22.5</ele>
        <time>2019-04-23T12:42:25.000Z</time>
      </trkpt>
      <trkpt lat="49.47597" lon="-1.5535">
        <ele>22.5</ele>
        <time>2019-04-23T12:42:26.000Z</time>
      </trkpt>
      <trkpt lat="49.47597" lon="-1.5535">
        <ele>22.5</ele>
        <time>2019-04-23T12:42:27.000Z</time>
      </trkpt>
      <trkpt lat="49.47597" lon="-1.5535">
        <ele>22.5</ele>
        <time>2019-04-23T12:42:28.000Z</time>
      </trkpt>
      <trkpt lat="49.47597" lon="-1.5535">
        <ele>22.5</ele>
        <time>2019-04-23T12:42:29.000Z</time>
      </trkpt>
      <trkpt lat="49.47597" lon="-1.5535">
        <ele>22.5</ele>
        <time>2019-04-23T12:42:30.000Z</time>
      </trkpt>
      <trkpt lat="49.47597" lon="-1.5535">
        <ele>22.5</ele>
        <time>2019-04-23T12:42:31.000Z</time>
      </trkpt>
      <trkpt lat="49.47597" lon="-1.5535">
        <ele>22.5</ele>
        <time>2019-04-23T12:42:32.000Z</time>
      </trkpt>
      <trkpt lat="49.47597" lon="-1.5535">
        <ele>22.5</ele>
        <time>2019-04-23T12:42:33.000Z</time>
      </trkpt>
      <trkpt lat="49.47597" lon="-1.5535">
        <ele>22.5</ele>
        <time>2019-04-23T12:42:34.000Z</time>
      </trkpt>
      <trkpt lat="49.47597" lon="-1.5535">
        <ele>22.5</ele>
        <time>2019-04-23T12:42:35.000Z</time>
      </trkpt>
      <trkpt lat="49.47597" lon="-1.5535">
        <ele>22.5</ele>
        <time>2019-04-23T12:42:36.000Z</time>
      </trkpt>
      <trkpt lat="49.47597" lon="-1.5535">
        <ele>22.5</ele>
        <time>2019-04-23T12:42:37.000Z</time>
      </trkpt>
      <trkpt lat="49.47597" lon="-1.5535">
        <ele>22.5</ele>
        <time>2019-04-23T12:42:38.000Z</time>
      </trkpt>
      <trkpt lat="49.47597" lon="-1.5535">
        <ele>22.5</ele>
        <time>2019-04-23T12:42:39.000Z</time>
      </trkpt>
      <trkpt lat="49.47597" lon="-1.5535">
        <ele>22.5</ele>
        <time>2019-04-23T12:42:40.000Z</time>
      </trkpt>
      <trkpt lat="49.47597" lon="-1.5535">
        <ele>22.5</ele>
        <time>2019-04-23T12:42:41.000Z</time>
      </trkpt>
      <trkpt lat="49.47597" lon="-1.5535">
        <ele>22.5</ele>
        <time>2019-04-23T12:42:42.000Z</time>
      </trkpt>
      <trkpt lat="49.47597" lon="-1.5535">
        <ele>22.5</ele>
        <time>2019-04-23T12:42:43.000Z</time>
      </trkpt>
      <trkpt lat="49.47597" lon="-1.5535">
        <ele>22.5</ele>
        <time>2019-04-23T12:42:44.000Z</time>
      </trkpt>
      <trkpt lat="49.47597" lon="-1.5535">
        <ele>22.5</ele>
        <time>2019-04-23T12:42:45.000Z</time>
      </trkpt>
      <trkpt lat="49.47597" lon="-1.5535">
        <ele>22.5</ele>
        <time>2019-04-23T12:42:46.000Z</time>
      </trkpt>
      <trkpt lat="49.47597" lon="-1.5535">
        <ele>22.5</ele>
        <time>2019-04-23T12:42:47.000Z</time>
      </trkpt>
      <trkpt lat="49.47597" lon="-1.5535">
        <ele>22.5</ele>
        <time>2019-04-23T12:42:48.000Z</time>
      </trkpt>
      <trkpt lat="49.47597" lon="-1.5535">
        <ele>22.5</ele>
        <time>2019-04-23T12:42:49.000Z</time>
      </trkpt>
      <trkpt lat="49.47597" lon="-1.5535">
        <ele>22.5</ele>
        <time>2019-04-23T12:42:50.000Z</time>
      </trkpt>
      <trkpt lat="49.47597" lon="-1.5535">
        <ele>22.5</ele>
        <time>2019-04-23T12:42:51.000Z</time>
      </trkpt>
      <trkpt lat="49.47597" lon="-1.5535">
        <ele>22.5</ele>
        <time>2019-04-23T12:42:52.000Z</time>
      </trkpt>
      <trkpt lat="49.47597" lon="-1.5535">
        <ele>22.5</ele>
        <time>2019-04-23T12:42:53.000Z</time>
      </trkpt>
      <trkpt lat="49.47597" lon="-1.5535">
        <ele>22.5</ele>
        <time>2019-04-23T12:42:54.000Z</time>
      </trkpt>
      <trkpt lat="49.47597" lon="-1.5535">
        <ele>22.5</ele>
        <time>2019-04-23T12:42:55.000Z</time>
      </trkpt>
      <trkpt lat="49.47597" lon="-1.5535">
        <ele>22.5</ele>
        <time>2019-04-23T12:42:56.000Z</time>
      </trkpt>
      <trkpt lat="49.47597" lon="-1.5535">
        <ele>22.5</ele>
        <time>2019-04-23T12:42:57.000Z</time>
      </trkpt>
      <trkpt lat="49.47597" lon="-1.5535">
        <ele>22.5</ele>
        <time>2019-04-23T12:42:58.000Z</time>
      </trkpt>
      <trkpt lat="49.47597" lon="-1.5535">
        <ele>22.5</ele>
        <time>2019-04-23T12:42:59.000Z</time>
      </trkpt>
      <trkpt lat="49.47597" lon="-1.5535">
        <ele>22.5</ele>
        <time>2019-04-23T12:43:00.000Z</time>
      </trkpt>
      <trkpt lat="49.47597" lon="-1.5535">
        <ele>22.5</ele>
        <time>2019-04-23T12:43:01.000Z</time>
      </trkpt>
      <trkpt lat="49.47597" lon="-1.5535">
        <ele>22.5</ele>
        <time>2019-04-23T12:43:02.000Z</time>
      </trkpt>
      <trkpt lat="49.47597" lon="-1.5535">
        <ele>22.5</ele>
        <time>2019-04-23T12:43:03.000Z</time>
      </trkpt>
      <trkpt lat="49.47597" lon="-1.5535">
        <ele>22.5</ele>
        <time>2019-04-23T12:43:04.000Z</time>
      </trkpt>
      <trkpt lat="49.47597" lon="-1.5535">
        <ele>22.5</ele>
        <time>2019-04-23T12:43:05.000Z</time>
      </trkpt>
      <trkpt lat="49.47597" lon="-1.5535">
        <ele>22.5</ele>
        <time>2019-04-23T12:43:06.000Z</time>
      </trkpt>
      <trkpt lat="49.47597" lon="-1.5535">
        <ele>22.5</ele>
        <time>2019-04-23T12:43:07.000Z</time>
      </trkpt>
      <trkpt lat="49.47597" lon="-1.5535">
        <ele>22.5</ele>
        <time>2019-04-23T12:43:08.000Z</time>
      </trkpt>
      <trkpt lat="49.47597" lon="-1.5535">
        <ele>22.5</ele>
        <time>2019-04-23T12:43:09.000Z</time>
      </trkpt>
      <trkpt lat="49.47597" lon="-1.5535">
        <ele>22.5</ele>
        <time>2019-04-23T12:43:10.000Z</time>
      </trkpt>
      <trkpt lat="49.47597" lon="-1.5535">
        <ele>22.5</ele>
        <time>2019-04-23T12:43:11.000Z</time>
      </trkpt>
      <trkpt lat="49.47597" lon="-1.5535">
        <ele>22.5</ele>
        <time>2019-04-23T12:43:12.000Z</time>
      </trkpt>
      <trkpt lat="49.47597" lon="-1.5535">
        <ele>22.5</ele>
        <time>2019-04-23T12:43:13.000Z</time>
      </trkpt>
      <trkpt lat="49.47597" lon="-1.5535">
        <ele>22.5</ele>
        <time>2019-04-23T12:43:14.000Z</time>
      </trkpt>
      <trkpt lat="49.47597" lon="-1.5535">
        <ele>22.5</ele>
        <time>2019-04-23T12:43:15.000Z</time>
      </trkpt>
      <trkpt lat="49.47597" lon="-1.5535">
        <ele>22.5</ele>
        <time>2019-04-23T12:43:16.000Z</time>
      </trkpt>
      <trkpt lat="49.47597" lon="-1.5535">
        <ele>22.5</ele>
        <time>2019-04-23T12:43:17.000Z</time>
      </trkpt>
      <trkpt lat="49.47597" lon="-1.5535">
        <ele>22.5</ele>
        <time>2019-04-23T12:43:18.000Z</time>
      </trkpt>
      <trkpt lat="49.47597" lon="-1.5535">
        <ele>22.5</ele>
        <time>2019-04-23T12:43:19.000Z</time>
      </trkpt>
      <trkpt lat="49.47597" lon="-1.5535">
        <ele>22.5</ele>
        <time>2019-04-23T12:43:20.000Z</time>
      </trkpt>
      <trkpt lat="49.47597" lon="-1.5535">
        <ele>22.5</ele>
        <time>2019-04-23T12:43:21.000Z</time>
      </trkpt>
      <trkpt lat="49.47597" lon="-1.5535">
        <ele>22.5</ele>
        <time>2019-04-23T12:43:22.000Z</time>
      </trkpt>
      <trkpt lat="49.47597" lon="-1.5535">
        <ele>22.5</ele>
        <time>2019-04-23T12:43:23.000Z</time>
      </trkpt>
      <trkpt lat="49.47597" lon="-1.5535">
        <ele>22.5</ele>
        <time>2019-04-23T12:43:24.000Z</time>
      </trkpt>
      <trkpt lat="49.47597" lon="-1.5535">
        <ele>22.5</ele>
        <time>2019-04-23T12:43:25.000Z</time>
      </trkpt>
      <trkpt lat="49.47597" lon="-1.5535">
        <ele>22.5</ele>
        <time>2019-04-23T12:43:26.000Z</time>
      </trkpt>
      <trkpt lat="49.47597" lon="-1.5535">
        <ele>22.5</ele>
        <time>2019-04-23T12:43:27.000Z</time>
      </trkpt>
      <trkpt lat="49.47597" lon="-1.5535">
        <ele>22.5</ele>
        <time>2019-04-23T12:43:28.000Z</time>
      </trkpt>
      <trkpt lat="49.47597" lon="-1.5535">
        <ele>22.5</ele>
        <time>2019-04-23T12:43:29.000Z</time>
      </trkpt>
      <trkpt lat="49.47597" lon="-1.5535">
        <ele>22.5</ele>
        <time>2019-04-23T12:43:30.000Z</time>
      </trkpt>
      <trkpt lat="49.47597" lon="-1.5535">
        <ele>22.5</ele>
        <time>2019-04-23T12:43:31.000Z</time>
      </trkpt>
      <trkpt lat="49.47597" lon="-1.5535">
        <ele>22.5</ele>
        <time>2019-04-23T12:43:32.000Z</time>
      </trkpt>
      <trkpt lat="49.47597" lon="-1.5535">
        <ele>22.5</ele>
        <time>2019-04-23T12:43:33.000Z</time>
      </trkpt>
      <trkpt lat="49.47597" lon="-1.5535">
        <ele>22.5</ele>
        <time>2019-04-23T12:43:34.000Z</time>
      </trkpt>
      <trkpt lat="49.47597" lon="-1.5535">
        <ele>22.5</ele>
        <time>2019-04-23T12:43:35.000Z</time>
      </trkpt>
      <trkpt lat="49.47597" lon="-1.5535">
        <ele>22.5</ele>
        <time>2019-04-23T12:43:36.000Z</time>
      </trkpt>
      <trkpt lat="49.47597" lon="-1.5535">
        <ele>22.5</ele>
        <time>2019-04-23T12:43:37.000Z</time>
      </trkpt>
      <trkpt lat="49.47597" lon="-1.5535">
        <ele>22.5</ele>
        <time>2019-04-23T12:43:38.000Z</time>
      </trkpt>
      <trkpt lat="49.47597" lon="-1.5535">
        <ele>22.5</ele>
        <time>2019-04-23T12:43:39.000Z</time>
      </trkpt>
      <trkpt lat="49.47597" lon="-1.5535">
        <ele>22.5</ele>
        <time>2019-04-23T12:43:40.000Z</time>
      </trkpt>
      <trkpt lat="49.47597" lon="-1.5535">
        <ele>22.5</ele>
        <time>2019-04-23T12:43:41.000Z</time>
      </trkpt>
      <trkpt lat="49.47597" lon="-1.5535">
        <ele>22.5</ele>
        <time>2019-04-23T12:43:42.000Z</time>
      </trkpt>
      <trkpt lat="49.47597" lon="-1.5535">
        <ele>22.5</ele>
        <time>2019-04-23T12:43:43.000Z</time>
      </trkpt>
      <trkpt lat="49.47597" lon="-1.5535">
        <ele>22.5</ele>
        <time>2019-04-23T12:43:44.000Z</time>
      </trkpt>
      <trkpt lat="49.47597" lon="-1.5535">
        <ele>22.5</ele>
        <time>2019-04-23T12:43:45.000Z</time>
      </trkpt>
      <trkpt lat="49.47597" lon="-1.5535">
        <ele>22.5</ele>
        <time>2019-04-23T12:43:46.000Z</time>
      </trkpt>
      <trkpt lat="49.47597" lon="-1.5535">
        <ele>22.5</ele>
        <time>2019-04-23T12:43:47.000Z</time>
      </trkpt>
      <trkpt lat="49.47597" lon="-1.5535">
        <ele>22.5</ele>
        <time>2019-04-23T12:43:48.000Z</time>
      </trkpt>
      <trkpt lat="49.47597" lon="-1.5535">
        <ele>22.5</ele>
        <time>2019-04-23T12:43:49.000Z</time>
      </trkpt>
      <trkpt lat="49.47597" lon="-1.5535">
        <ele>22.5</ele>
        <time>2019-04-23T12:43:50.000Z</time>
      </trkpt>
      <trkpt lat="49.47597" lon="-1.5535">
        <ele>22.5</ele>
        <time>2019-04-23T12:43:51.000Z</time>
      </trkpt>
      <trkpt lat="49.47597" lon="-1.5535">
        <ele>22.5</ele>
        <time>2019-04-23T12:43:52.000Z</time>
      </trkpt>
      <trkpt lat="49.47597" lon="-1.5535">
        <ele>22.5</ele>
        <time>2019-04-23T12:43:53.000Z</time>
      </trkpt>
      <trkpt lat="49.47597" lon="-1.5535">
        <ele>22.5</ele>
        <time>2019-04-23T12:43:54.000Z</time>
      </trkpt>
      <trkpt lat="49.47597" lon="-1.5535">
        <ele>22.5</ele>
        <time>2019-04-23T12:43:55.000Z</time>
      </trkpt>
      <trkpt lat="49.47597" lon="-1.5535">
        <ele>22.5</ele>
        <time>2019-04-23T12:43:56.000Z</time>
      </trkpt>
      <trkpt lat="49.47598" lon="-1.5535">
        <ele>22.5</ele>
        <time>2019-04-23T12:43:57.000Z</time>
      </trkpt>
      <trkpt lat="49.47598" lon="-1.55351">
        <ele>22.5</ele>
        <time>2019-04-23T12:43:58.000Z</time>
      </trkpt>
      <trkpt lat="49.47598" lon="-1.55351">
        <ele>22.5</ele>
        <time>2019-04-23T12:43:59.000Z</time>
      </trkpt>
      <trkpt lat="49.47599" lon="-1.55352">
        <ele>22.5</ele>
        <time>2019-04-23T12:44:00.000Z</time>
      </trkpt>
      <trkpt lat="49.476" lon="-1.55353">
        <ele>22.5</ele>
        <time>2019-04-23T12:44:01.000Z</time>
      </trkpt>
      <trkpt lat="49.47601" lon="-1.55354">
        <ele>22.4</ele>
        <time>2019-04-23T12:44:02.000Z</time>
      </trkpt>
      <trkpt lat="49.47602" lon="-1.55354">
        <ele>22.4</ele>
        <time>2019-04-23T12:44:03.000Z</time>
      </trkpt>
      <trkpt lat="49.47602" lon="-1.55355">
        <ele>22.4</ele>
        <time>2019-04-23T12:44:04.000Z</time>
      </trkpt>
      <trkpt lat="49.47603" lon="-1.55356">
        <ele>22.4</ele>
        <time>2019-04-23T12:44:05.000Z</time>
      </trkpt>
      <trkpt lat="49.47603" lon="-1.55357">
        <ele>22.4</ele>
        <time>2019-04-23T12:44:06.000Z</time>
      </trkpt>
      <trkpt lat="49.47603" lon="-1.55358">
        <ele>22.4</ele>
        <time>2019-04-23T12:44:07.000Z</time>
      </trkpt>
      <trkpt lat="49.47604" lon="-1.55359">
        <ele>22.4</ele>
        <time>2019-04-23T12:44:08.000Z</time>
      </trkpt>
      <trkpt lat="49.47604" lon="-1.5536">
        <ele>22.3</ele>
        <time>2019-04-23T12:44:09.000Z</time>
      </trkpt>
      <trkpt lat="49.47604" lon="-1.55361">
        <ele>22.3</ele>
        <time>2019-04-23T12:44:10.000Z</time>
      </trkpt>
      <trkpt lat="49.47605" lon="-1.55363">
        <ele>22.3</ele>
        <time>2019-04-23T12:44:11.000Z</time>
      </trkpt>
      <trkpt lat="49.47605" lon="-1.55364">
        <ele>22.3</ele>
        <time>2019-04-23T12:44:12.000Z</time>
      </trkpt>
      <trkpt lat="49.47605" lon="-1.55365">
        <ele>22.3</ele>
        <time>2019-04-23T12:44:13.000Z</time>
      </trkpt>
      <trkpt lat="49.47606" lon="-1.55367">
        <ele>22.3</ele>
        <time>2019-04-23T12:44:14.000Z</time>
      </trkpt>
      <trkpt lat="49.47606" lon="-1.55368">
        <ele>22.3</ele>
        <time>2019-04-23T12:44:15.000Z</time>
      </trkpt>
      <trkpt lat="49.47607" lon="-1.5537">
        <ele>22.2</ele>
        <time>2019-04-23T12:44:16.000Z</time>
      </trkpt>
      <trkpt lat="49.47607" lon="-1.55372">
        <ele>22.2</ele>
        <time>2019-04-23T12:44:17.000Z</time>
      </trkpt>
      <trkpt lat="49.47607" lon="-1.55373">
        <ele>22.2</ele>
        <time>2019-04-23T12:44:18.000Z</time>
      </trkpt>
      <trkpt lat="49.47608" lon="-1.55375">
        <ele>22.2</ele>
        <time>2019-04-23T12:44:19.000Z</time>
      </trkpt>
      <trkpt lat="49.47608" lon="-1.55377">
        <ele>22.2</ele>
        <time>2019-04-23T12:44:20.000Z</time>
      </trkpt>
      <trkpt lat="49.47609" lon="-1.55378">
        <ele>22.2</ele>
        <time>2019-04-23T12:44:21.000Z</time>
      </trkpt>
      <trkpt lat="49.47609" lon="-1.5538">
        <ele>22.2</ele>
        <time>2019-04-23T12:44:22.000Z</time>
      </trkpt>
      <trkpt lat="49.4761" lon="-1.55382">
        <ele>22.2</ele>
        <time>2019-04-23T12:44:23.000Z</time>
      </trkpt>
      <trkpt lat="49.4761" lon="-1.55383">
        <ele>22.1</ele>
        <time>2019-04-23T12:44:24.000Z</time>
      </trkpt>
      <trkpt lat="49.47611" lon="-1.55385">
        <ele>22.1</ele>
        <time>2019-04-23T12:44:25.000Z</time>
      </trkpt>
      <trkpt lat="49.47611" lon="-1.55387">
        <ele>22.1</ele>
        <time>2019-04-23T12:44:26.000Z</time>
      </trkpt>
      <trkpt lat="49.47611" lon="-1.55388">
        <ele>22.1</ele>
        <time>2019-04-23T12:44:27.000Z</time>
      </trkpt>
      <trkpt lat="49.47612" lon="-1.5539">
        <ele>22.1</ele>
        <time>2019-04-23T12:44:28.000Z</time>
      </trkpt>
      <trkpt lat="49.47612" lon="-1.55391">
        <ele>22.1</ele>
        <time>2019-04-23T12:44:29.000Z</time>
      </trkpt>
      <trkpt lat="49.47613" lon="-1.55393">
        <ele>22.1</ele>
        <time>2019-04-23T12:44:30.000Z</time>
      </trkpt>
      <trkpt lat="49.47613" lon="-1.55395">
        <ele>22.1</ele>
        <time>2019-04-23T12:44:31.000Z</time>
      </trkpt>
      <trkpt lat="49.47614" lon="-1.55396">
        <ele>22.1</ele>
        <time>2019-04-23T12:44:32.000Z</time>
      </trkpt>
      <trkpt lat="49.47614" lon="-1.55398">
        <ele>22.1</ele>
        <time>2019-04-23T12:44:33.000Z</time>
      </trkpt>
      <trkpt lat="49.47615" lon="-1.55399">
        <ele>22.1</ele>
        <time>2019-04-23T12:44:34.000Z</time>
      </trkpt>
      <trkpt lat="49.47615" lon="-1.55401">
        <ele>22</ele>
        <time>2019-04-23T12:44:35.000Z</time>
      </trkpt>
      <trkpt lat="49.47616" lon="-1.55402">
        <ele>22</ele>
        <time>2019-04-23T12:44:36.000Z</time>
      </trkpt>
      <trkpt lat="49.47616" lon="-1.55404">
        <ele>22</ele>
        <time>2019-04-23T12:44:37.000Z</time>
      </trkpt>
      <trkpt lat="49.47616" lon="-1.55405">
        <ele>22</ele>
        <time>2019-04-23T12:44:38.000Z</time>
      </trkpt>
      <trkpt lat="49.47617" lon="-1.55407">
        <ele>22</ele>
        <time>2019-04-23T12:44:39.000Z</time>
      </trkpt>
      <trkpt lat="49.47617" lon="-1.55408">
        <ele>22</ele>
        <time>2019-04-23T12:44:40.000Z</time>
      </trkpt>
      <trkpt lat="49.47618" lon="-1.5541">
        <ele>22</ele>
        <time>2019-04-23T12:44:41.000Z</time>
      </trkpt>
      <trkpt lat="49.47618" lon="-1.55412">
        <ele>22</ele>
        <time>2019-04-23T12:44:42.000Z</time>
      </trkpt>
      <trkpt lat="49.47619" lon="-1.55413">
        <ele>22</ele>
        <time>2019-04-23T12:44:43.000Z</time>
      </trkpt>
      <trkpt lat="49.47619" lon="-1.55415">
        <ele>22</ele>
        <time>2019-04-23T12:44:44.000Z</time>
      </trkpt>
      <trkpt lat="49.4762" lon="-1.55416">
        <ele>22</ele>
        <time>2019-04-23T12:44:45.000Z</time>
      </trkpt>
      <trkpt lat="49.4762" lon="-1.55418">
        <ele>22</ele>
        <time>2019-04-23T12:44:46.000Z</time>
      </trkpt>
      <trkpt lat="49.47621" lon="-1.5542">
        <ele>22</ele>
        <time>2019-04-23T12:44:47.000Z</time>
      </trkpt>
      <trkpt lat="49.47621" lon="-1.55421">
        <ele>22.1</ele>
        <time>2019-04-23T12:44:48.000Z</time>
      </trkpt>
      <trkpt lat="49.47621" lon="-1.55423">
        <ele>22.1</ele>
        <time>2019-04-23T12:44:49.000Z</time>
      </trkpt>
      <trkpt lat="49.47622" lon="-1.55425">
        <ele>22.1</ele>
        <time>2019-04-23T12:44:50.000Z</time>
      </trkpt>
      <trkpt lat="49.47622" lon="-1.55426">
        <ele>22.1</ele>
        <time>2019-04-23T12:44:51.000Z</time>
      </trkpt>
      <trkpt lat="49.47623" lon="-1.55428">
        <ele>22.1</ele>
        <time>2019-04-23T12:44:52.000Z</time>
      </trkpt>
      <trkpt lat="49.47623" lon="-1.5543">
        <ele>22.2</ele>
        <time>2019-04-23T12:44:53.000Z</time>
      </trkpt>
      <trkpt lat="49.47624" lon="-1.55431">
        <ele>22.2</ele>
        <time>2019-04-23T12:44:54.000Z</time>
      </trkpt>
      <trkpt lat="49.47624" lon="-1.55433">
        <ele>22.2</ele>
        <time>2019-04-23T12:44:55.000Z</time>
      </trkpt>
      <trkpt lat="49.47625" lon="-1.55435">
        <ele>22.2</ele>
        <time>2019-04-23T12:44:56.000Z</time>
      </trkpt>
      <trkpt lat="49.47625" lon="-1.55437">
        <ele>22.2</ele>
        <time>2019-04-23T12:44:57.000Z</time>
      </trkpt>
      <trkpt lat="49.47625" lon="-1.55438">
        <ele>22.3</ele>
        <time>2019-04-23T12:44:58.000Z</time>
      </trkpt>
      <trkpt lat="49.47626" lon="-1.5544">
        <ele>22.3</ele>
        <time>2019-04-23T12:44:59.000Z</time>
      </trkpt>
      <trkpt lat="49.47626" lon="-1.55442">
        <ele>22.3</ele>
        <time>2019-04-23T12:45:00.000Z</time>
      </trkpt>
      <trkpt lat="49.47627" lon="-1.55444">
        <ele>22.3</ele>
        <time>2019-04-23T12:45:01.000Z</time>
      </trkpt>
      <trkpt lat="49.47627" lon="-1.55445">
        <ele>22.3</ele>
        <time>2019-04-23T12:45:02.000Z</time>
      </trkpt>
      <trkpt lat="49.47628" lon="-1.55447">
        <ele>22.4</ele>
        <time>2019-04-23T12:45:03.000Z</time>
      </trkpt>
      <trkpt lat="49.47628" lon="-1.55449">
        <ele>22.4</ele>
        <time>2019-04-23T12:45:04.000Z</time>
      </trkpt>
      <trkpt lat="49.47628" lon="-1.55451">
        <ele>22.4</ele>
        <time>2019-04-23T12:45:05.000Z</time>
      </trkpt>
      <trkpt lat="49.47629" lon="-1.55453">
        <ele>22.4</ele>
        <time>2019-04-23T12:45:06.000Z</time>
      </trkpt>
      <trkpt lat="49.47629" lon="-1.55454">
        <ele>22.5</ele>
        <time>2019-04-23T12:45:07.000Z</time>
      </trkpt>
      <trkpt lat="49.4763" lon="-1.55456">
        <ele>22.5</ele>
        <time>2019-04-23T12:45:08.000Z</time>
      </trkpt>
      <trkpt lat="49.4763" lon="-1.55458">
        <ele>22.5</ele>
        <time>2019-04-23T12:45:09.000Z</time>
      </trkpt>
      <trkpt lat="49.47631" lon="-1.5546">
        <ele>22.5</ele>
        <time>2019-04-23T12:45:10.000Z</time>
      </trkpt>
      <trkpt lat="49.47631" lon="-1.55461">
        <ele>22.5</ele>
        <time>2019-04-23T12:45:11.000Z</time>
      </trkpt>
      <trkpt lat="49.47631" lon="-1.55463">
        <ele>22.6</ele>
        <time>2019-04-23T12:45:12.000Z</time>
      </trkpt>
      <trkpt lat="49.47632" lon="-1.55465">
        <ele>22.6</ele>
        <time>2019-04-23T12:45:13.000Z</time>
      </trkpt>
      <trkpt lat="49.47632" lon="-1.55467">
        <ele>22.6</ele>
        <time>2019-04-23T12:45:14.000Z</time>
      </trkpt>
      <trkpt lat="49.47632" lon="-1.55468">
        <ele>22.6</ele>
        <time>2019-04-23T12:45:15.000Z</time>
      </trkpt>
      <trkpt lat="49.47633" lon="-1.5547">
        <ele>22.6</ele>
        <time>2019-04-23T12:45:16.000Z</time>
      </trkpt>
      <trkpt lat="49.47633" lon="-1.55472">
        <ele>22.7</ele>
        <time>2019-04-23T12:45:17.000Z</time>
      </trkpt>
      <trkpt lat="49.47634" lon="-1.55474">
        <ele>22.7</ele>
        <time>2019-04-23T12:45:18.000Z</time>
      </trkpt>
      <trkpt lat="49.47634" lon="-1.55475">
        <ele>22.7</ele>
        <time>2019-04-23T12:45:19.000Z</time>
      </trkpt>
      <trkpt lat="49.47634" lon="-1.55477">
        <ele>22.7</ele>
        <time>2019-04-23T12:45:20.000Z</time>
      </trkpt>
      <trkpt lat="49.47635" lon="-1.55479">
        <ele>22.7</ele>
        <time>2019-04-23T12:45:21.000Z</time>
      </trkpt>
      <trkpt lat="49.47635" lon="-1.5548">
        <ele>22.8</ele>
        <time>2019-04-23T12:45:22.000Z</time>
      </trkpt>
      <trkpt lat="49.47635" lon="-1.55482">
        <ele>22.8</ele>
        <time>2019-04-23T12:45:23.000Z</time>
      </trkpt>
      <trkpt lat="49.47636" lon="-1.55484">
        <ele>22.8</ele>
        <time>2019-04-23T12:45:24.000Z</time>
      </trkpt>
      <trkpt lat="49.47636" lon="-1.55486">
        <ele>22.8</ele>
        <time>2019-04-23T12:45:25.000Z</time>
      </trkpt>
      <trkpt lat="49.47636" lon="-1.55487">
        <ele>22.8</ele>
        <time>2019-04-23T12:45:26.000Z</time>
      </trkpt>
      <trkpt lat="49.47637" lon="-1.55489">
        <ele>22.9</ele>
        <time>2019-04-23T12:45:27.000Z</time>
      </trkpt>
      <trkpt lat="49.47637" lon="-1.55491">
        <ele>22.9</ele>
        <time>2019-04-23T12:45:28.000Z</time>
      </trkpt>
      <trkpt lat="49.47638" lon="-1.55492">
        <ele>22.9</ele>
        <time>2019-04-23T12:45:29.000Z</time>
      </trkpt>
      <trkpt lat="49.47638" lon="-1.55494">
        <ele>22.9</ele>
        <time>2019-04-23T12:45:30.000Z</time>
      </trkpt>
      <trkpt lat="49.47638" lon="-1.55496">
        <ele>22.9</ele>
        <time>2019-04-23T12:45:31.000Z</time>
      </trkpt>
      <trkpt lat="49.47639" lon="-1.55498">
        <ele>23</ele>
        <time>2019-04-23T12:45:32.000Z</time>
      </trkpt>
      <trkpt lat="49.47639" lon="-1.55499">
        <ele>23</ele>
        <time>2019-04-23T12:45:33.000Z</time>
      </trkpt>
      <trkpt lat="49.4764" lon="-1.55501">
        <ele>23</ele>
        <time>2019-04-23T12:45:34.000Z</time>
      </trkpt>
      <trkpt lat="49.4764" lon="-1.55503">
        <ele>23.1</ele>
        <time>2019-04-23T12:45:35.000Z</time>
      </trkpt>
      <trkpt lat="49.47641" lon="-1.55505">
        <ele>23.1</ele>
        <time>2019-04-23T12:45:36.000Z</time>
      </trkpt>
      <trkpt lat="49.47642" lon="-1.55506">
        <ele>23.1</ele>
        <time>2019-04-23T12:45:37.000Z</time>
      </trkpt>
      <trkpt lat="49.47642" lon="-1.55508">
        <ele>23.2</ele>
        <time>2019-04-23T12:45:38.000Z</time>
      </trkpt>
      <trkpt lat="49.47643" lon="-1.5551">
        <ele>23.2</ele>
        <time>2019-04-23T12:45:39.000Z</time>
      </trkpt>
      <trkpt lat="49.47643" lon="-1.55512">
        <ele>23.2</ele>
        <time>2019-04-23T12:45:40.000Z</time>
      </trkpt>
      <trkpt lat="49.47644" lon="-1.55514">
        <ele>23.3</ele>
        <time>2019-04-23T12:45:41.000Z</time>
      </trkpt>
      <trkpt lat="49.47644" lon="-1.55515">
        <ele>23.3</ele>
        <time>2019-04-23T12:45:42.000Z</time>
      </trkpt>
      <trkpt lat="49.47645" lon="-1.55517">
        <ele>23.4</ele>
        <time>2019-04-23T12:45:43.000Z</time>
      </trkpt>
      <trkpt lat="49.47645" lon="-1.55519">
        <ele>23.4</ele>
        <time>2019-04-23T12:45:44.000Z</time>
      </trkpt>
      <trkpt lat="49.47646" lon="-1.55521">
        <ele>23.4</ele>
        <time>2019-04-23T12:45:45.000Z</time>
      </trkpt>
      <trkpt lat="49.47646" lon="-1.55523">
        <ele>23.5</ele>
        <time>2019-04-23T12:45:46.000Z</time>
      </trkpt>
      <trkpt lat="49.47647" lon="-1.55524">
        <ele>23.5</ele>
        <time>2019-04-23T12:45:47.000Z</time>
      </trkpt>
      <trkpt lat="49.47647" lon="-1.55526">
        <ele>23.6</ele>
        <time>2019-04-23T12:45:48.000Z</time>
      </trkpt>
      <trkpt lat="49.47648" lon="-1.55528">
        <ele>23.6</ele>
        <time>2019-04-23T12:45:49.000Z</time>
      </trkpt>
      <trkpt lat="49.47648" lon="-1.5553">
        <ele>23.6</ele>
        <time>2019-04-23T12:45:50.000Z</time>
      </trkpt>
      <trkpt lat="49.47648" lon="-1.55531">
        <ele>23.7</ele>
        <time>2019-04-23T12:45:51.000Z</time>
      </trkpt>
      <trkpt lat="49.47649" lon="-1.55533">
        <ele>23.7</ele>
        <time>2019-04-23T12:45:52.000Z</time>
      </trkpt>
      <trkpt lat="49.47649" lon="-1.55535">
        <ele>23.7</ele>
        <time>2019-04-23T12:45:53.000Z</time>
      </trkpt>
      <trkpt lat="49.4765" lon="-1.55537">
        <ele>23.8</ele>
        <time>2019-04-23T12:45:54.000Z</time>
      </trkpt>
      <trkpt lat="49.4765" lon="-1.55538">
        <ele>23.8</ele>
        <time>2019-04-23T12:45:55.000Z</time>
      </trkpt>
      <trkpt lat="49.47651" lon="-1.5554">
        <ele>23.9</ele>
        <time>2019-04-23T12:45:56.000Z</time>
      </trkpt>
      <trkpt lat="49.47651" lon="-1.55542">
        <ele>23.9</ele>
        <time>2019-04-23T12:45:57.000Z</time>
      </trkpt>
      <trkpt lat="49.47652" lon="-1.55544">
        <ele>24</ele>
        <time>2019-04-23T12:45:58.000Z</time>
      </trkpt>
      <trkpt lat="49.47653" lon="-1.55545">
        <ele>24</ele>
        <time>2019-04-23T12:45:59.000Z</time>
      </trkpt>
      <trkpt lat="49.47653" lon="-1.55547">
        <ele>24</ele>
        <time>2019-04-23T12:46:00.000Z</time>
      </trkpt>
      <trkpt lat="49.47654" lon="-1.55549">
        <ele>24.1</ele>
        <time>2019-04-23T12:46:01.000Z</time>
      </trkpt>
      <trkpt lat="49.47655" lon="-1.55551">
        <ele>24.1</ele>
        <time>2019-04-23T12:46:02.000Z</time>
      </trkpt>
      <trkpt lat="49.47655" lon="-1.55552">
        <ele>24.2</ele>
        <time>2019-04-23T12:46:03.000Z</time>
      </trkpt>
      <trkpt lat="49.47656" lon="-1.55554">
        <ele>24.2</ele>
        <time>2019-04-23T12:46:04.000Z</time>
      </trkpt>
      <trkpt lat="49.47656" lon="-1.55556">
        <ele>24.3</ele>
        <time>2019-04-23T12:46:05.000Z</time>
      </trkpt>
      <trkpt lat="49.47657" lon="-1.55558">
        <ele>24.3</ele>
        <time>2019-04-23T12:46:06.000Z</time>
      </trkpt>
      <trkpt lat="49.47658" lon="-1.55559">
        <ele>24.3</ele>
        <time>2019-04-23T12:46:07.000Z</time>
      </trkpt>
      <trkpt lat="49.47658" lon="-1.55561">
        <ele>24.4</ele>
        <time>2019-04-23T12:46:08.000Z</time>
      </trkpt>
      <trkpt lat="49.47659" lon="-1.55563">
        <ele>24.4</ele>
        <time>2019-04-23T12:46:09.000Z</time>
      </trkpt>
      <trkpt lat="49.47659" lon="-1.55565">
        <ele>24.5</ele>
        <time>2019-04-23T12:46:10.000Z</time>
      </trkpt>
      <trkpt lat="49.4766" lon="-1.55566">
        <ele>24.5</ele>
        <time>2019-04-23T12:46:11.000Z</time>
      </trkpt>
      <trkpt lat="49.4766" lon="-1.55568">
        <ele>24.6</ele>
        <time>2019-04-23T12:46:12.000Z</time>
      </trkpt>
      <trkpt lat="49.47661" lon="-1.5557">
        <ele>24.6</ele>
        <time>2019-04-23T12:46:13.000Z</time>
      </trkpt>
      <trkpt lat="49.47661" lon="-1.55571">
        <ele>24.7</ele>
        <time>2019-04-23T12:46:14.000Z</time>
      </trkpt>
      <trkpt lat="49.47662" lon="-1.55573">
        <ele>24.7</ele>
        <time>2019-04-23T12:46:15.000Z</time>
      </trkpt>
      <trkpt lat="49.47662" lon="-1.55575">
        <ele>24.7</ele>
        <time>2019-04-23T12:46:16.000Z</time>
      </trkpt>
      <trkpt lat="49.47662" lon="-1.55576">
        <ele>24.8</ele>
        <time>2019-04-23T12:46:17.000Z</time>
      </trkpt>
      <trkpt lat="49.47663" lon="-1.55578">
        <ele>24.8</ele>
        <time>2019-04-23T12:46:18.000Z</time>
      </trkpt>
      <trkpt lat="49.47663" lon="-1.5558">
        <ele>24.9</ele>
        <time>2019-04-23T12:46:19.000Z</time>
      </trkpt>
      <trkpt lat="49.47664" lon="-1.55582">
        <ele>24.9</ele>
        <time>2019-04-23T12:46:20.000Z</time>
      </trkpt>
      <trkpt lat="49.47664" lon="-1.55583">
        <ele>25</ele>
        <time>2019-04-23T12:46:21.000Z</time>
      </trkpt>
      <trkpt lat="49.47664" lon="-1.55585">
        <ele>25</ele>
        <time>2019-04-23T12:46:22.000Z</time>
      </trkpt>
      <trkpt lat="49.47665" lon="-1.55587">
        <ele>25</ele>
        <time>2019-04-23T12:46:23.000Z</time>
      </trkpt>
      <trkpt lat="49.47665" lon="-1.55589">
        <ele>25</ele>
        <time>2019-04-23T12:46:24.000Z</time>
      </trkpt>
      <trkpt lat="49.47665" lon="-1.5559">
        <ele>25</ele>
        <time>2019-04-23T12:46:25.000Z</time>
      </trkpt>
      <trkpt lat="49.47666" lon="-1.55592">
        <ele>25</ele>
        <time>2019-04-23T12:46:26.000Z</time>
      </trkpt>
      <trkpt lat="49.47666" lon="-1.55594">
        <ele>25</ele>
        <time>2019-04-23T12:46:27.000Z</time>
      </trkpt>
      <trkpt lat="49.47666" lon="-1.55596">
        <ele>25</ele>
        <time>2019-04-23T12:46:28.000Z</time>
      </trkpt>
      <trkpt lat="49.47667" lon="-1.55597">
        <ele>25</ele>
        <time>2019-04-23T12:46:29.000Z</time>
      </trkpt>
      <trkpt lat="49.47667" lon="-1.55599">
        <ele>25</ele>
        <time>2019-04-23T12:46:30.000Z</time>
      </trkpt>
      <trkpt lat="49.47667" lon="-1.55601">
        <ele>25</ele>
        <time>2019-04-23T12:46:31.000Z</time>
      </trkpt>
      <trkpt lat="49.47668" lon="-1.55603">
        <ele>25</ele>
        <time>2019-04-23T12:46:32.000Z</time>
      </trkpt>
      <trkpt lat="49.47668" lon="-1.55605">
        <ele>25</ele>
        <time>2019-04-23T12:46:33.000Z</time>
      </trkpt>
      <trkpt lat="49.47668" lon="-1.55607">
        <ele>25</ele>
        <time>2019-04-23T12:46:34.000Z</time>
      </trkpt>
      <trkpt lat="49.47668" lon="-1.55608">
        <ele>25</ele>
        <time>2019-04-23T12:46:35.000Z</time>
      </trkpt>
      <trkpt lat="49.47669" lon="-1.5561">
        <ele>25</ele>
        <time>2019-04-23T12:46:36.000Z</time>
      </trkpt>
      <trkpt lat="49.47669" lon="-1.55612">
        <ele>25.1</ele>
        <time>2019-04-23T12:46:37.000Z</time>
      </trkpt>
      <trkpt lat="49.47669" lon="-1.55614">
        <ele>25.1</ele>
        <time>2019-04-23T12:46:38.000Z</time>
      </trkpt>
      <trkpt lat="49.4767" lon="-1.55616">
        <ele>25.1</ele>
        <time>2019-04-23T12:46:39.000Z</time>
      </trkpt>
      <trkpt lat="49.4767" lon="-1.55618">
        <ele>25.1</ele>
        <time>2019-04-23T12:46:40.000Z</time>
      </trkpt>
      <trkpt lat="49.4767" lon="-1.5562">
        <ele>25.1</ele>
        <time>2019-04-23T12:46:41.000Z</time>
      </trkpt>
      <trkpt lat="49.4767" lon="-1.55622">
        <ele>25.1</ele>
        <time>2019-04-23T12:46:42.000Z</time>
      </trkpt>
      <trkpt lat="49.4767" lon="-1.55624">
        <ele>25.1</ele>
        <time>2019-04-23T12:46:43.000Z</time>
      </trkpt>
      <trkpt lat="49.47671" lon="-1.55626">
        <ele>25.1</ele>
        <time>2019-04-23T12:46:44.000Z</time>
      </trkpt>
      <trkpt lat="49.47671" lon="-1.55628">
        <ele>25.1</ele>
        <time>2019-04-23T12:46:45.000Z</time>
      </trkpt>
      <trkpt lat="49.47671" lon="-1.5563">
        <ele>25.1</ele>
        <time>2019-04-23T12:46:46.000Z</time>
      </trkpt>
      <trkpt lat="49.47672" lon="-1.55631">
        <ele>25.1</ele>
        <time>2019-04-23T12:46:47.000Z</time>
      </trkpt>
      <trkpt lat="49.47672" lon="-1.55633">
        <ele>25.1</ele>
        <time>2019-04-23T12:46:48.000Z</time>
      </trkpt>
      <trkpt lat="49.47672" lon="-1.55635">
        <ele>25.1</ele>
        <time>2019-04-23T12:46:49.000Z</time>
      </trkpt>
      <trkpt lat="49.47673" lon="-1.55637">
        <ele>25.1</ele>
        <time>2019-04-23T12:46:50.000Z</time>
      </trkpt>
      <trkpt lat="49.47673" lon="-1.55639">
        <ele>25.1</ele>
        <time>2019-04-23T12:46:51.000Z</time>
      </trkpt>
      <trkpt lat="49.47673" lon="-1.55641">
        <ele>25.2</ele>
        <time>2019-04-23T12:46:52.000Z</time>
      </trkpt>
      <trkpt lat="49.47674" lon="-1.55643">
        <ele>25.2</ele>
        <time>2019-04-23T12:46:53.000Z</time>
      </trkpt>
      <trkpt lat="49.47674" lon="-1.55645">
        <ele>25.2</ele>
        <time>2019-04-23T12:46:54.000Z</time>
      </trkpt>
      <trkpt lat="49.47674" lon="-1.55647">
        <ele>25.2</ele>
        <time>2019-04-23T12:46:55.000Z</time>
      </trkpt>
      <trkpt lat="49.47675" lon="-1.55649">
        <ele>25.2</ele>
        <time>2019-04-23T12:46:56.000Z</time>
      </trkpt>
      <trkpt lat="49.47675" lon="-1.55651">
        <ele>25.2</ele>
        <time>2019-04-23T12:46:57.000Z</time>
      </trkpt>
      <trkpt lat="49.47676" lon="-1.55653">
        <ele>25.2</ele>
        <time>2019-04-23T12:46:58.000Z</time>
      </trkpt>
      <trkpt lat="49.47676" lon="-1.55655">
        <ele>25.2</ele>
        <time>2019-04-23T12:46:59.000Z</time>
      </trkpt>
      <trkpt lat="49.47677" lon="-1.55657">
        <ele>25.2</ele>
        <time>2019-04-23T12:47:00.000Z</time>
      </trkpt>
      <trkpt lat="49.47677" lon="-1.55659">
        <ele>25.2</ele>
        <time>2019-04-23T12:47:01.000Z</time>
      </trkpt>
      <trkpt lat="49.47677" lon="-1.55661">
        <ele>25.3</ele>
        <time>2019-04-23T12:47:02.000Z</time>
      </trkpt>
      <trkpt lat="49.47678" lon="-1.55663">
        <ele>25.3</ele>
        <time>2019-04-23T12:47:03.000Z</time>
      </trkpt>
      <trkpt lat="49.47678" lon="-1.55665">
        <ele>25.3</ele>
        <time>2019-04-23T12:47:04.000Z</time>
      </trkpt>
      <trkpt lat="49.47679" lon="-1.55667">
        <ele>25.3</ele>
        <time>2019-04-23T12:47:05.000Z</time>
      </trkpt>
      <trkpt lat="49.47679" lon="-1.55668">
        <ele>25.3</ele>
        <time>2019-04-23T12:47:06.000Z</time>
      </trkpt>
      <trkpt lat="49.4768" lon="-1.5567">
        <ele>25.3</ele>
        <time>2019-04-23T12:47:07.000Z</time>
      </trkpt>
      <trkpt lat="49.4768" lon="-1.55672">
        <ele>25.3</ele>
        <time>2019-04-23T12:47:08.000Z</time>
      </trkpt>
      <trkpt lat="49.47681" lon="-1.55674">
        <ele>25.3</ele>
        <time>2019-04-23T12:47:09.000Z</time>
      </trkpt>
      <trkpt lat="49.47681" lon="-1.55676">
        <ele>25.2</ele>
        <time>2019-04-23T12:47:10.000Z</time>
      </trkpt>
      <trkpt lat="49.47682" lon="-1.55677">
        <ele>25.2</ele>
        <time>2019-04-23T12:47:11.000Z</time>
      </trkpt>
      <trkpt lat="49.47683" lon="-1.55679">
        <ele>25.2</ele>
        <time>2019-04-23T12:47:12.000Z</time>
      </trkpt>
      <trkpt lat="49.47683" lon="-1.5568">
        <ele>25.2</ele>
        <time>2019-04-23T12:47:13.000Z</time>
      </trkpt>
      <trkpt lat="49.47684" lon="-1.55682">
        <ele>25.2</ele>
        <time>2019-04-23T12:47:14.000Z</time>
      </trkpt>
      <trkpt lat="49.47685" lon="-1.55683">
        <ele>25.2</ele>
        <time>2019-04-23T12:47:15.000Z</time>
      </trkpt>
      <trkpt lat="49.47686" lon="-1.55684">
        <ele>25.2</ele>
        <time>2019-04-23T12:47:16.000Z</time>
      </trkpt>
      <trkpt lat="49.47686" lon="-1.55686">
        <ele>25.2</ele>
        <time>2019-04-23T12:47:17.000Z</time>
      </trkpt>
      <trkpt lat="49.47687" lon="-1.55687">
        <ele>25.2</ele>
        <time>2019-04-23T12:47:18.000Z</time>
      </trkpt>
      <trkpt lat="49.47688" lon="-1.55688">
        <ele>25.3</ele>
        <time>2019-04-23T12:47:19.000Z</time>
      </trkpt>
      <trkpt lat="49.47689" lon="-1.5569">
        <ele>25.3</ele>
        <time>2019-04-23T12:47:20.000Z</time>
      </trkpt>
      <trkpt lat="49.4769" lon="-1.55691">
        <ele>25.3</ele>
        <time>2019-04-23T12:47:21.000Z</time>
      </trkpt>
      <trkpt lat="49.47691" lon="-1.55693">
        <ele>25.3</ele>
        <time>2019-04-23T12:47:22.000Z</time>
      </trkpt>
      <trkpt lat="49.47692" lon="-1.55694">
        <ele>25.3</ele>
        <time>2019-04-23T12:47:23.000Z</time>
      </trkpt>
      <trkpt lat="49.47692" lon="-1.55695">
        <ele>25.3</ele>
        <time>2019-04-23T12:47:24.000Z</time>
      </trkpt>
      <trkpt lat="49.47693" lon="-1.55697">
        <ele>25.3</ele>
        <time>2019-04-23T12:47:25.000Z</time>
      </trkpt>
      <trkpt lat="49.47694" lon="-1.55698">
        <ele>25.3</ele>
        <time>2019-04-23T12:47:26.000Z</time>
      </trkpt>
      <trkpt lat="49.47695" lon="-1.557">
        <ele>25.3</ele>
        <time>2019-04-23T12:47:27.000Z</time>
      </trkpt>
      <trkpt lat="49.47696" lon="-1.55701">
        <ele>25.3</ele>
        <time>2019-04-23T12:47:28.000Z</time>
      </trkpt>
      <trkpt lat="49.47697" lon="-1.55703">
        <ele>25.3</ele>
        <time>2019-04-23T12:47:29.000Z</time>
      </trkpt>
      <trkpt lat="49.47697" lon="-1.55704">
        <ele>25.3</ele>
        <time>2019-04-23T12:47:30.000Z</time>
      </trkpt>
      <trkpt lat="49.47698" lon="-1.55706">
        <ele>25.3</ele>
        <time>2019-04-23T12:47:31.000Z</time>
      </trkpt>
      <trkpt lat="49.47699" lon="-1.55708">
        <ele>25.3</ele>
        <time>2019-04-23T12:47:32.000Z</time>
      </trkpt>
      <trkpt lat="49.477" lon="-1.55709">
        <ele>25.3</ele>
        <time>2019-04-23T12:47:33.000Z</time>
      </trkpt>
      <trkpt lat="49.477" lon="-1.55711">
        <ele>25.3</ele>
        <time>2019-04-23T12:47:34.000Z</time>
      </trkpt>
      <trkpt lat="49.47701" lon="-1.55713">
        <ele>25.3</ele>
        <time>2019-04-23T12:47:35.000Z</time>
      </trkpt>
      <trkpt lat="49.47701" lon="-1.55714">
        <ele>25.3</ele>
        <time>2019-04-23T12:47:36.000Z</time>
      </trkpt>
      <trkpt lat="49.47702" lon="-1.55716">
        <ele>25.3</ele>
        <time>2019-04-23T12:47:37.000Z</time>
      </trkpt>
      <trkpt lat="49.47702" lon="-1.55718">
        <ele>25.2</ele>
        <time>2019-04-23T12:47:38.000Z</time>
      </trkpt>
      <trkpt lat="49.47703" lon="-1.5572">
        <ele>25.2</ele>
        <time>2019-04-23T12:47:39.000Z</time>
      </trkpt>
      <trkpt lat="49.47703" lon="-1.55722">
        <ele>25.2</ele>
        <time>2019-04-23T12:47:40.000Z</time>
      </trkpt>
      <trkpt lat="49.47704" lon="-1.55723">
        <ele>25.2</ele>
        <time>2019-04-23T12:47:41.000Z</time>
      </trkpt>
      <trkpt lat="49.47704" lon="-1.55725">
        <ele>25.2</ele>
        <time>2019-04-23T12:47:42.000Z</time>
      </trkpt>
      <trkpt lat="49.47704" lon="-1.55727">
        <ele>25.2</ele>
        <time>2019-04-23T12:47:43.000Z</time>
      </trkpt>
      <trkpt lat="49.47704" lon="-1.55729">
        <ele>25.2</ele>
        <time>2019-04-23T12:47:44.000Z</time>
      </trkpt>
      <trkpt lat="49.47705" lon="-1.55731">
        <ele>25.1</ele>
        <time>2019-04-23T12:47:45.000Z</time>
      </trkpt>
      <trkpt lat="49.47705" lon="-1.55733">
        <ele>25.1</ele>
        <time>2019-04-23T12:47:46.000Z</time>
      </trkpt>
      <trkpt lat="49.47705" lon="-1.55735">
        <ele>25.1</ele>
        <time>2019-04-23T12:47:47.000Z</time>
      </trkpt>
      <trkpt lat="49.47705" lon="-1.55736">
        <ele>25.1</ele>
        <time>2019-04-23T12:47:48.000Z</time>
      </trkpt>
      <trkpt lat="49.47705" lon="-1.55738">
        <ele>25.1</ele>
        <time>2019-04-23T12:47:49.000Z</time>
      </trkpt>
      <trkpt lat="49.47706" lon="-1.5574">
        <ele>25.1</ele>
        <time>2019-04-23T12:47:50.000Z</time>
      </trkpt>
      <trkpt lat="49.47706" lon="-1.55742">
        <ele>25</ele>
        <time>2019-04-23T12:47:51.000Z</time>
      </trkpt>
      <trkpt lat="49.47706" lon="-1.55744">
        <ele>25</ele>
        <time>2019-04-23T12:47:52.000Z</time>
      </trkpt>
      <trkpt lat="49.47706" lon="-1.55746">
        <ele>25</ele>
        <time>2019-04-23T12:47:53.000Z</time>
      </trkpt>
      <trkpt lat="49.47706" lon="-1.55748">
        <ele>25</ele>
        <time>2019-04-23T12:47:54.000Z</time>
      </trkpt>
      <trkpt lat="49.47706" lon="-1.55749">
        <ele>25</ele>
        <time>2019-04-23T12:47:55.000Z</time>
      </trkpt>
      <trkpt lat="49.47706" lon="-1.55751">
        <ele>25</ele>
        <time>2019-04-23T12:47:56.000Z</time>
      </trkpt>
      <trkpt lat="49.47707" lon="-1.55753">
        <ele>25.1</ele>
        <time>2019-04-23T12:47:57.000Z</time>
      </trkpt>
      <trkpt lat="49.47707" lon="-1.55755">
        <ele>25.1</ele>
        <time>2019-04-23T12:47:58.000Z</time>
      </trkpt>
      <trkpt lat="49.47707" lon="-1.55757">
        <ele>25.2</ele>
        <time>2019-04-23T12:47:59.000Z</time>
      </trkpt>
      <trkpt lat="49.47707" lon="-1.55759">
        <ele>25.3</ele>
        <time>2019-04-23T12:48:00.000Z</time>
      </trkpt>
      <trkpt lat="49.47707" lon="-1.55761">
        <ele>25.3</ele>
        <time>2019-04-23T12:48:01.000Z</time>
      </trkpt>
      <trkpt lat="49.47707" lon="-1.55762">
        <ele>25.4</ele>
        <time>2019-04-23T12:48:02.000Z</time>
      </trkpt>
      <trkpt lat="49.47707" lon="-1.55764">
        <ele>25.5</ele>
        <time>2019-04-23T12:48:03.000Z</time>
      </trkpt>
      <trkpt lat="49.47707" lon="-1.55766">
        <ele>25.6</ele>
        <time>2019-04-23T12:48:04.000Z</time>
      </trkpt>
      <trkpt lat="49.47708" lon="-1.55768">
        <ele>25.6</ele>
        <time>2019-04-23T12:48:05.000Z</time>
      </trkpt>
      <trkpt lat="49.47708" lon="-1.5577">
        <ele>25.7</ele>
        <time>2019-04-23T12:48:06.000Z</time>
      </trkpt>
      <trkpt lat="49.47708" lon="-1.55772">
        <ele>25.8</ele>
        <time>2019-04-23T12:48:07.000Z</time>
      </trkpt>
      <trkpt lat="49.47708" lon="-1.55773">
        <ele>25.8</ele>
        <time>2019-04-23T12:48:08.000Z</time>
      </trkpt>
      <trkpt lat="49.47708" lon="-1.55775">
        <ele>25.9</ele>
        <time>2019-04-23T12:48:09.000Z</time>
      </trkpt>
      <trkpt lat="49.47709" lon="-1.55777">
        <ele>26</ele>
        <time>2019-04-23T12:48:10.000Z</time>
      </trkpt>
      <trkpt lat="49.47709" lon="-1.55779">
        <ele>26.1</ele>
        <time>2019-04-23T12:48:11.000Z</time>
      </trkpt>
      <trkpt lat="49.47709" lon="-1.55781">
        <ele>26.1</ele>
        <time>2019-04-23T12:48:12.000Z</time>
      </trkpt>
      <trkpt lat="49.47709" lon="-1.55783">
        <ele>26.2</ele>
        <time>2019-04-23T12:48:13.000Z</time>
      </trkpt>
      <trkpt lat="49.4771" lon="-1.55784">
        <ele>26.3</ele>
        <time>2019-04-23T12:48:14.000Z</time>
      </trkpt>
      <trkpt lat="49.4771" lon="-1.55786">
        <ele>26.4</ele>
        <time>2019-04-23T12:48:15.000Z</time>
      </trkpt>
      <trkpt lat="49.4771" lon="-1.55788">
        <ele>26.4</ele>
        <time>2019-04-23T12:48:16.000Z</time>
      </trkpt>
      <trkpt lat="49.4771" lon="-1.5579">
        <ele>26.5</ele>
        <time>2019-04-23T12:48:17.000Z</time>
      </trkpt>
      <trkpt lat="49.47711" lon="-1.55792">
        <ele>26.6</ele>
        <time>2019-04-23T12:48:18.000Z</time>
      </trkpt>
      <trkpt lat="49.47711" lon="-1.55793">
        <ele>26.7</ele>
        <time>2019-04-23T12:48:19.000Z</time>
      </trkpt>
      <trkpt lat="49.47711" lon="-1.55795">
        <ele>26.7</ele>
        <time>2019-04-23T12:48:20.000Z</time>
      </trkpt>
      <trkpt lat="49.47711" lon="-1.55797">
        <ele>26.8</ele>
        <time>2019-04-23T12:48:21.000Z</time>
      </trkpt>
      <trkpt lat="49.47712" lon="-1.55799">
        <ele>26.9</ele>
        <time>2019-04-23T12:48:22.000Z</time>
      </trkpt>
      <trkpt lat="49.47712" lon="-1.55801">
        <ele>27</ele>
        <time>2019-04-23T12:48:23.000Z</time>
      </trkpt>
      <trkpt lat="49.47712" lon="-1.55802">
        <ele>27</ele>
        <time>2019-04-23T12:48:24.000Z</time>
      </trkpt>
      <trkpt lat="49.47712" lon="-1.55804">
        <ele>27.1</ele>
        <time>2019-04-23T12:48:25.000Z</time>
      </trkpt>
      <trkpt lat="49.47713" lon="-1.55806">
        <ele>27.2</ele>
        <time>2019-04-23T12:48:26.000Z</time>
      </trkpt>
      <trkpt lat="49.47713" lon="-1.55808">
        <ele>27.3</ele>
        <time>2019-04-23T12:48:27.000Z</time>
      </trkpt>
      <trkpt lat="49.47713" lon="-1.55809">
        <ele>27.3</ele>
        <time>2019-04-23T12:48:28.000Z</time>
      </trkpt>
      <trkpt lat="49.47713" lon="-1.55811">
        <ele>27.4</ele>
        <time>2019-04-23T12:48:29.000Z</time>
      </trkpt>
      <trkpt lat="49.47713" lon="-1.55813">
        <ele>27.5</ele>
        <time>2019-04-23T12:48:30.000Z</time>
      </trkpt>
      <trkpt lat="49.47713" lon="-1.55815">
        <ele>27.5</ele>
        <time>2019-04-23T12:48:31.000Z</time>
      </trkpt>
      <trkpt lat="49.47713" lon="-1.55817">
        <ele>27.6</ele>
        <time>2019-04-23T12:48:32.000Z</time>
      </trkpt>
      <trkpt lat="49.47713" lon="-1.55818">
        <ele>27.7</ele>
        <time>2019-04-23T12:48:33.000Z</time>
      </trkpt>
      <trkpt lat="49.47713" lon="-1.5582">
        <ele>27.8</ele>
        <time>2019-04-23T12:48:34.000Z</time>
      </trkpt>
      <trkpt lat="49.47713" lon="-1.55822">
        <ele>27.8</ele>
        <time>2019-04-23T12:48:35.000Z</time>
      </trkpt>
      <trkpt lat="49.47713" lon="-1.55824">
        <ele>27.9</ele>
        <time>2019-04-23T12:48:36.000Z</time>
      </trkpt>
      <trkpt lat="49.47713" lon="-1.55826">
        <ele>28</ele>
        <time>2019-04-23T12:48:37.000Z</time>
      </trkpt>
      <trkpt lat="49.47713" lon="-1.55828">
        <ele>28</ele>
        <time>2019-04-23T12:48:38.000Z</time>
      </trkpt>
      <trkpt lat="49.47713" lon="-1.55829">
        <ele>28.1</ele>
        <time>2019-04-23T12:48:39.000Z</time>
      </trkpt>
      <trkpt lat="49.47713" lon="-1.55831">
        <ele>28.2</ele>
        <time>2019-04-23T12:48:40.000Z</time>
      </trkpt>
      <trkpt lat="49.47713" lon="-1.55833">
        <ele>28.2</ele>
        <time>2019-04-23T12:48:41.000Z</time>
      </trkpt>
      <trkpt lat="49.47713" lon="-1.55835">
        <ele>28.3</ele>
        <time>2019-04-23T12:48:42.000Z</time>
      </trkpt>
      <trkpt lat="49.47713" lon="-1.55837">
        <ele>28.4</ele>
        <time>2019-04-23T12:48:43.000Z</time>
      </trkpt>
      <trkpt lat="49.47713" lon="-1.55839">
        <ele>28.4</ele>
        <time>2019-04-23T12:48:44.000Z</time>
      </trkpt>
      <trkpt lat="49.47713" lon="-1.5584">
        <ele>28.5</ele>
        <time>2019-04-23T12:48:45.000Z</time>
      </trkpt>
      <trkpt lat="49.47713" lon="-1.55842">
        <ele>28.6</ele>
        <time>2019-04-23T12:48:46.000Z</time>
      </trkpt>
      <trkpt lat="49.47713" lon="-1.55844">
        <ele>28.6</ele>
        <time>2019-04-23T12:48:47.000Z</time>
      </trkpt>
      <trkpt lat="49.47713" lon="-1.55846">
        <ele>28.7</ele>
        <time>2019-04-23T12:48:48.000Z</time>
      </trkpt>
      <trkpt lat="49.47713" lon="-1.55848">
        <ele>28.7</ele>
        <time>2019-04-23T12:48:49.000Z</time>
      </trkpt>
      <trkpt lat="49.47713" lon="-1.5585">
        <ele>28.8</ele>
        <time>2019-04-23T12:48:50.000Z</time>
      </trkpt>
      <trkpt lat="49.47713" lon="-1.55852">
        <ele>28.9</ele>
        <time>2019-04-23T12:48:51.000Z</time>
      </trkpt>
      <trkpt lat="49.47713" lon="-1.55853">
        <ele>28.9</ele>
        <time>2019-04-23T12:48:52.000Z</time>
      </trkpt>
      <trkpt lat="49.47713" lon="-1.55855">
        <ele>29</ele>
        <time>2019-04-23T12:48:53.000Z</time>
      </trkpt>
      <trkpt lat="49.47713" lon="-1.55857">
        <ele>29.1</ele>
        <time>2019-04-23T12:48:54.000Z</time>
      </trkpt>
      <trkpt lat="49.47713" lon="-1.55859">
        <ele>29.1</ele>
        <time>2019-04-23T12:48:55.000Z</time>
      </trkpt>
      <trkpt lat="49.47713" lon="-1.55861">
        <ele>29.2</ele>
        <time>2019-04-23T12:48:56.000Z</time>
      </trkpt>
      <trkpt lat="49.47713" lon="-1.55863">
        <ele>29.3</ele>
        <time>2019-04-23T12:48:57.000Z</time>
      </trkpt>
      <trkpt lat="49.47713" lon="-1.55865">
        <ele>29.3</ele>
        <time>2019-04-23T12:48:58.000Z</time>
      </trkpt>
      <trkpt lat="49.47713" lon="-1.55867">
        <ele>29.4</ele>
        <time>2019-04-23T12:48:59.000Z</time>
      </trkpt>
      <trkpt lat="49.47713" lon="-1.55868">
        <ele>29.5</ele>
        <time>2019-04-23T12:49:00.000Z</time>
      </trkpt>
      <trkpt lat="49.47713" lon="-1.5587">
        <ele>29.5</ele>
        <time>2019-04-23T12:49:01.000Z</time>
      </trkpt>
      <trkpt lat="49.47713" lon="-1.55872">
        <ele>29.6</ele>
        <time>2019-04-23T12:49:02.000Z</time>
      </trkpt>
      <trkpt lat="49.47713" lon="-1.55874">
        <ele>29.7</ele>
        <time>2019-04-23T12:49:03.000Z</time>
      </trkpt>
      <trkpt lat="49.47713" lon="-1.55876">
        <ele>29.7</ele>
        <time>2019-04-23T12:49:04.000Z</time>
      </trkpt>
      <trkpt lat="49.47713" lon="-1.55878">
        <ele>29.8</ele>
        <time>2019-04-23T12:49:05.000Z</time>
      </trkpt>
      <trkpt lat="49.47713" lon="-1.5588">
        <ele>29.9</ele>
        <time>2019-04-23T12:49:06.000Z</time>
      </trkpt>
      <trkpt lat="49.47713" lon="-1.55881">
        <ele>29.9</ele>
        <time>2019-04-23T12:49:07.000Z</time>
      </trkpt>
      <trkpt lat="49.47713" lon="-1.55883">
        <ele>30</ele>
        <time>2019-04-23T12:49:08.000Z</time>
      </trkpt>
      <trkpt lat="49.47713" lon="-1.55885">
        <ele>30.1</ele>
        <time>2019-04-23T12:49:09.000Z</time>
      </trkpt>
      <trkpt lat="49.47713" lon="-1.55887">
        <ele>30.1</ele>
        <time>2019-04-23T12:49:10.000Z</time>
      </trkpt>
      <trkpt lat="49.47713" lon="-1.55889">
        <ele>30.2</ele>
        <time>2019-04-23T12:49:11.000Z</time>
      </trkpt>
      <trkpt lat="49.47713" lon="-1.55891">
        <ele>30.3</ele>
        <time>2019-04-23T12:49:12.000Z</time>
      </trkpt>
      <trkpt lat="49.47713" lon="-1.55892">
        <ele>30.3</ele>
        <time>2019-04-23T12:49:13.000Z</time>
      </trkpt>
      <trkpt lat="49.47713" lon="-1.55894">
        <ele>30.4</ele>
        <time>2019-04-23T12:49:14.000Z</time>
      </trkpt>
      <trkpt lat="49.47713" lon="-1.55896">
        <ele>30.5</ele>
        <time>2019-04-23T12:49:15.000Z</time>
      </trkpt>
      <trkpt lat="49.47713" lon="-1.55898">
        <ele>30.5</ele>
        <time>2019-04-23T12:49:16.000Z</time>
      </trkpt>
      <trkpt lat="49.47713" lon="-1.559">
        <ele>30.6</ele>
        <time>2019-04-23T12:49:17.000Z</time>
      </trkpt>
      <trkpt lat="49.47713" lon="-1.55901">
        <ele>30.7</ele>
        <time>2019-04-23T12:49:18.000Z</time>
      </trkpt>
      <trkpt lat="49.47713" lon="-1.55903">
        <ele>30.7</ele>
        <time>2019-04-23T12:49:19.000Z</time>
      </trkpt>
      <trkpt lat="49.47713" lon="-1.55905">
        <ele>30.8</ele>
        <time>2019-04-23T12:49:20.000Z</time>
      </trkpt>
      <trkpt lat="49.47713" lon="-1.55907">
        <ele>30.9</ele>
        <time>2019-04-23T12:49:21.000Z</time>
      </trkpt>
      <trkpt lat="49.47713" lon="-1.55908">
        <ele>30.9</ele>
        <time>2019-04-23T12:49:22.000Z</time>
      </trkpt>
      <trkpt lat="49.47713" lon="-1.5591">
        <ele>31</ele>
        <time>2019-04-23T12:49:23.000Z</time>
      </trkpt>
      <trkpt lat="49.47713" lon="-1.55912">
        <ele>31.1</ele>
        <time>2019-04-23T12:49:24.000Z</time>
      </trkpt>
      <trkpt lat="49.47713" lon="-1.55914">
        <ele>31.1</ele>
        <time>2019-04-23T12:49:25.000Z</time>
      </trkpt>
      <trkpt lat="49.47713" lon="-1.55915">
        <ele>31.2</ele>
        <time>2019-04-23T12:49:26.000Z</time>
      </trkpt>
      <trkpt lat="49.47713" lon="-1.55917">
        <ele>31.3</ele>
        <time>2019-04-23T12:49:27.000Z</time>
      </trkpt>
      <trkpt lat="49.47714" lon="-1.55919">
        <ele>31.3</ele>
        <time>2019-04-23T12:49:28.000Z</time>
      </trkpt>
      <trkpt lat="49.47714" lon="-1.55921">
        <ele>31.4</ele>
        <time>2019-04-23T12:49:29.000Z</time>
      </trkpt>
      <trkpt lat="49.47714" lon="-1.55923">
        <ele>31.4</ele>
        <time>2019-04-23T12:49:30.000Z</time>
      </trkpt>
      <trkpt lat="49.47714" lon="-1.55925">
        <ele>31.4</ele>
        <time>2019-04-23T12:49:31.000Z</time>
      </trkpt>
      <trkpt lat="49.47714" lon="-1.55927">
        <ele>31.5</ele>
        <time>2019-04-23T12:49:32.000Z</time>
      </trkpt>
      <trkpt lat="49.47714" lon="-1.55928">
        <ele>31.5</ele>
        <time>2019-04-23T12:49:33.000Z</time>
      </trkpt>
      <trkpt lat="49.47714" lon="-1.5593">
        <ele>31.6</ele>
        <time>2019-04-23T12:49:34.000Z</time>
      </trkpt>
      <trkpt lat="49.47714" lon="-1.55932">
        <ele>31.6</ele>
        <time>2019-04-23T12:49:35.000Z</time>
      </trkpt>
      <trkpt lat="49.47714" lon="-1.55934">
        <ele>31.7</ele>
        <time>2019-04-23T12:49:36.000Z</time>
      </trkpt>
      <trkpt lat="49.47714" lon="-1.55936">
        <ele>31.7</ele>
        <time>2019-04-23T12:49:37.000Z</time>
      </trkpt>
      <trkpt lat="49.47714" lon="-1.55938">
        <ele>31.8</ele>
        <time>2019-04-23T12:49:38.000Z</time>
      </trkpt>
      <trkpt lat="49.47714" lon="-1.55939">
        <ele>31.8</ele>
        <time>2019-04-23T12:49:39.000Z</time>
      </trkpt>
      <trkpt lat="49.47714" lon="-1.55941">
        <ele>31.9</ele>
        <time>2019-04-23T12:49:40.000Z</time>
      </trkpt>
      <trkpt lat="49.47714" lon="-1.55943">
        <ele>31.9</ele>
        <time>2019-04-23T12:49:41.000Z</time>
      </trkpt>
      <trkpt lat="49.47714" lon="-1.55944">
        <ele>31.9</ele>
        <time>2019-04-23T12:49:42.000Z</time>
      </trkpt>
      <trkpt lat="49.47714" lon="-1.55946">
        <ele>32</ele>
        <time>2019-04-23T12:49:43.000Z</time>
      </trkpt>
      <trkpt lat="49.47714" lon="-1.55947">
        <ele>32</ele>
        <time>2019-04-23T12:49:44.000Z</time>
      </trkpt>
      <trkpt lat="49.47714" lon="-1.55949">
        <ele>32.1</ele>
        <time>2019-04-23T12:49:45.000Z</time>
      </trkpt>
      <trkpt lat="49.47714" lon="-1.55951">
        <ele>32.1</ele>
        <time>2019-04-23T12:49:46.000Z</time>
      </trkpt>
      <trkpt lat="49.47714" lon="-1.55952">
        <ele>32.1</ele>
        <time>2019-04-23T12:49:47.000Z</time>
      </trkpt>
      <trkpt lat="49.47714" lon="-1.55954">
        <ele>32.2</ele>
        <time>2019-04-23T12:49:48.000Z</time>
      </trkpt>
      <trkpt lat="49.47714" lon="-1.55956">
        <ele>32.2</ele>
        <time>2019-04-23T12:49:49.000Z</time>
      </trkpt>
      <trkpt lat="49.47714" lon="-1.55958">
        <ele>32.3</ele>
        <time>2019-04-23T12:49:50.000Z</time>
      </trkpt>
      <trkpt lat="49.47714" lon="-1.5596">
        <ele>32.3</ele>
        <time>2019-04-23T12:49:51.000Z</time>
      </trkpt>
      <trkpt lat="49.47714" lon="-1.55961">
        <ele>32.4</ele>
        <time>2019-04-23T12:49:52.000Z</time>
      </trkpt>
      <trkpt lat="49.47714" lon="-1.55963">
        <ele>32.4</ele>
        <time>2019-04-23T12:49:53.000Z</time>
      </trkpt>
      <trkpt lat="49.47714" lon="-1.55965">
        <ele>32.4</ele>
        <time>2019-04-23T12:49:54.000Z</time>
      </trkpt>
      <trkpt lat="49.47714" lon="-1.55967">
        <ele>32.5</ele>
        <time>2019-04-23T12:49:55.000Z</time>
      </trkpt>
      <trkpt lat="49.47714" lon="-1.55969">
        <ele>32.5</ele>
        <time>2019-04-23T12:49:56.000Z</time>
      </trkpt>
      <trkpt lat="49.47715" lon="-1.55971">
        <ele>32.6</ele>
        <time>2019-04-23T12:49:57.000Z</time>
      </trkpt>
      <trkpt lat="49.47715" lon="-1.55973">
        <ele>32.6</ele>
        <time>2019-04-23T12:49:58.000Z</time>
      </trkpt>
      <trkpt lat="49.47715" lon="-1.55974">
        <ele>32.7</ele>
        <time>2019-04-23T12:49:59.000Z</time>
      </trkpt>
      <trkpt lat="49.47715" lon="-1.55976">
        <ele>32.7</ele>
        <time>2019-04-23T12:50:00.000Z</time>
      </trkpt>
      <trkpt lat="49.47715" lon="-1.55978">
        <ele>32.8</ele>
        <time>2019-04-23T12:50:01.000Z</time>
      </trkpt>
      <trkpt lat="49.47715" lon="-1.5598">
        <ele>32.8</ele>
        <time>2019-04-23T12:50:02.000Z</time>
      </trkpt>
      <trkpt lat="49.47715" lon="-1.55982">
        <ele>32.9</ele>
        <time>2019-04-23T12:50:03.000Z</time>
      </trkpt>
      <trkpt lat="49.47716" lon="-1.55984">
        <ele>33</ele>
        <time>2019-04-23T12:50:04.000Z</time>
      </trkpt>
      <trkpt lat="49.47716" lon="-1.55986">
        <ele>33</ele>
        <time>2019-04-23T12:50:05.000Z</time>
      </trkpt>
      <trkpt lat="49.47716" lon="-1.55988">
        <ele>33.1</ele>
        <time>2019-04-23T12:50:06.000Z</time>
      </trkpt>
      <trkpt lat="49.47716" lon="-1.5599">
        <ele>33.1</ele>
        <time>2019-04-23T12:50:07.000Z</time>
      </trkpt>
      <trkpt lat="49.47716" lon="-1.55991">
        <ele>33.2</ele>
        <time>2019-04-23T12:50:08.000Z</time>
      </trkpt>
      <trkpt lat="49.47716" lon="-1.55993">
        <ele>33.2</ele>
        <time>2019-04-23T12:50:09.000Z</time>
      </trkpt>
      <trkpt lat="49.47717" lon="-1.55995">
        <ele>33.3</ele>
        <time>2019-04-23T12:50:10.000Z</time>
      </trkpt>
      <trkpt lat="49.47717" lon="-1.55997">
        <ele>33.3</ele>
        <time>2019-04-23T12:50:11.000Z</time>
      </trkpt>
      <trkpt lat="49.47717" lon="-1.55999">
        <ele>33.4</ele>
        <time>2019-04-23T12:50:12.000Z</time>
      </trkpt>
      <trkpt lat="49.47717" lon="-1.56001">
        <ele>33.4</ele>
        <time>2019-04-23T12:50:13.000Z</time>
      </trkpt>
      <trkpt lat="49.47717" lon="-1.56003">
        <ele>33.5</ele>
        <time>2019-04-23T12:50:14.000Z</time>
      </trkpt>
      <trkpt lat="49.47717" lon="-1.56005">
        <ele>33.5</ele>
        <time>2019-04-23T12:50:15.000Z</time>
      </trkpt>
      <trkpt lat="49.47717" lon="-1.56006">
        <ele>33.6</ele>
        <time>2019-04-23T12:50:16.000Z</time>
      </trkpt>
      <trkpt lat="49.47717" lon="-1.56008">
        <ele>33.6</ele>
        <time>2019-04-23T12:50:17.000Z</time>
      </trkpt>
      <trkpt lat="49.47717" lon="-1.5601">
        <ele>33.6</ele>
        <time>2019-04-23T12:50:18.000Z</time>
      </trkpt>
      <trkpt lat="49.47717" lon="-1.56012">
        <ele>33.7</ele>
        <time>2019-04-23T12:50:19.000Z</time>
      </trkpt>
      <trkpt lat="49.47717" lon="-1.56014">
        <ele>33.7</ele>
        <time>2019-04-23T12:50:20.000Z</time>
      </trkpt>
      <trkpt lat="49.47717" lon="-1.56016">
        <ele>33.7</ele>
        <time>2019-04-23T12:50:21.000Z</time>
      </trkpt>
      <trkpt lat="49.47717" lon="-1.56017">
        <ele>33.8</ele>
        <time>2019-04-23T12:50:22.000Z</time>
      </trkpt>
      <trkpt lat="49.47717" lon="-1.56019">
        <ele>33.8</ele>
        <time>2019-04-23T12:50:23.000Z</time>
      </trkpt>
      <trkpt lat="49.47717" lon="-1.56021">
        <ele>33.9</ele>
        <time>2019-04-23T12:50:24.000Z</time>
      </trkpt>
      <trkpt lat="49.47717" lon="-1.56023">
        <ele>33.9</ele>
        <time>2019-04-23T12:50:25.000Z</time>
      </trkpt>
      <trkpt lat="49.47717" lon="-1.56024">
        <ele>33.9</ele>
        <time>2019-04-23T12:50:26.000Z</time>
      </trkpt>
      <trkpt lat="49.47717" lon="-1.56026">
        <ele>34</ele>
        <time>2019-04-23T12:50:27.000Z</time>
      </trkpt>
      <trkpt lat="49.47717" lon="-1.56028">
        <ele>34</ele>
        <time>2019-04-23T12:50:28.000Z</time>
      </trkpt>
      <trkpt lat="49.47717" lon="-1.5603">
        <ele>34.1</ele>
        <time>2019-04-23T12:50:29.000Z</time>
      </trkpt>
      <trkpt lat="49.47717" lon="-1.56031">
        <ele>34.1</ele>
        <time>2019-04-23T12:50:30.000Z</time>
      </trkpt>
      <trkpt lat="49.47717" lon="-1.56033">
        <ele>34.1</ele>
        <time>2019-04-23T12:50:31.000Z</time>
      </trkpt>
      <trkpt lat="49.47717" lon="-1.56035">
        <ele>34.2</ele>
        <time>2019-04-23T12:50:32.000Z</time>
      </trkpt>
      <trkpt lat="49.47718" lon="-1.56036">
        <ele>34.2</ele>
        <time>2019-04-23T12:50:33.000Z</time>
      </trkpt>
      <trkpt lat="49.47718" lon="-1.56038">
        <ele>34.3</ele>
        <time>2019-04-23T12:50:34.000Z</time>
      </trkpt>
      <trkpt lat="49.47718" lon="-1.5604">
        <ele>34.3</ele>
        <time>2019-04-23T12:50:35.000Z</time>
      </trkpt>
      <trkpt lat="49.47718" lon="-1.56041">
        <ele>34.3</ele>
        <time>2019-04-23T12:50:36.000Z</time>
      </trkpt>
      <trkpt lat="49.47718" lon="-1.56043">
        <ele>34.4</ele>
        <time>2019-04-23T12:50:37.000Z</time>
      </trkpt>
      <trkpt lat="49.47718" lon="-1.56045">
        <ele>34.4</ele>
        <time>2019-04-23T12:50:38.000Z</time>
      </trkpt>
      <trkpt lat="49.47718" lon="-1.56046">
        <ele>34.5</ele>
        <time>2019-04-23T12:50:39.000Z</time>
      </trkpt>
      <trkpt lat="49.47718" lon="-1.56048">
        <ele>34.5</ele>
        <time>2019-04-23T12:50:40.000Z</time>
      </trkpt>
      <trkpt lat="49.47718" lon="-1.5605">
        <ele>34.5</ele>
        <time>2019-04-23T12:50:41.000Z</time>
      </trkpt>
      <trkpt lat="49.47718" lon="-1.56052">
        <ele>34.6</ele>
        <time>2019-04-23T12:50:42.000Z</time>
      </trkpt>
      <trkpt lat="49.47719" lon="-1.56053">
        <ele>34.6</ele>
        <time>2019-04-23T12:50:43.000Z</time>
      </trkpt>
      <trkpt lat="49.47719" lon="-1.56055">
        <ele>34.6</ele>
        <time>2019-04-23T12:50:44.000Z</time>
      </trkpt>
      <trkpt lat="49.47719" lon="-1.56057">
        <ele>34.7</ele>
        <time>2019-04-23T12:50:45.000Z</time>
      </trkpt>
      <trkpt lat="49.47719" lon="-1.56059">
        <ele>34.7</ele>
        <time>2019-04-23T12:50:46.000Z</time>
      </trkpt>
      <trkpt lat="49.47719" lon="-1.5606">
        <ele>34.8</ele>
        <time>2019-04-23T12:50:47.000Z</time>
      </trkpt>
      <trkpt lat="49.47718" lon="-1.56062">
        <ele>34.8</ele>
        <time>2019-04-23T12:50:48.000Z</time>
      </trkpt>
      <trkpt lat="49.47718" lon="-1.56064">
        <ele>34.8</ele>
        <time>2019-04-23T12:50:49.000Z</time>
      </trkpt>
      <trkpt lat="49.47718" lon="-1.56066">
        <ele>34.9</ele>
        <time>2019-04-23T12:50:50.000Z</time>
      </trkpt>
      <trkpt lat="49.47718" lon="-1.56068">
        <ele>34.9</ele>
        <time>2019-04-23T12:50:51.000Z</time>
      </trkpt>
      <trkpt lat="49.47718" lon="-1.5607">
        <ele>34.9</ele>
        <time>2019-04-23T12:50:52.000Z</time>
      </trkpt>
      <trkpt lat="49.47718" lon="-1.56072">
        <ele>35</ele>
        <time>2019-04-23T12:50:53.000Z</time>
      </trkpt>
      <trkpt lat="49.47718" lon="-1.56073">
        <ele>35</ele>
        <time>2019-04-23T12:50:54.000Z</time>
      </trkpt>
      <trkpt lat="49.47718" lon="-1.56075">
        <ele>35.1</ele>
        <time>2019-04-23T12:50:55.000Z</time>
      </trkpt>
      <trkpt lat="49.47718" lon="-1.56077">
        <ele>35.1</ele>
        <time>2019-04-23T12:50:56.000Z</time>
      </trkpt>
      <trkpt lat="49.47718" lon="-1.56079">
        <ele>35.1</ele>
        <time>2019-04-23T12:50:57.000Z</time>
      </trkpt>
      <trkpt lat="49.47718" lon="-1.56081">
        <ele>35.2</ele>
        <time>2019-04-23T12:50:58.000Z</time>
      </trkpt>
      <trkpt lat="49.47718" lon="-1.56083">
        <ele>35.2</ele>
        <time>2019-04-23T12:50:59.000Z</time>
      </trkpt>
      <trkpt lat="49.47718" lon="-1.56085">
        <ele>35.2</ele>
        <time>2019-04-23T12:51:00.000Z</time>
      </trkpt>
      <trkpt lat="49.47718" lon="-1.56086">
        <ele>35.2</ele>
        <time>2019-04-23T12:51:01.000Z</time>
      </trkpt>
      <trkpt lat="49.47718" lon="-1.56088">
        <ele>35.3</ele>
        <time>2019-04-23T12:51:02.000Z</time>
      </trkpt>
      <trkpt lat="49.47718" lon="-1.5609">
        <ele>35.3</ele>
        <time>2019-04-23T12:51:03.000Z</time>
      </trkpt>
      <trkpt lat="49.47718" lon="-1.56092">
        <ele>35.3</ele>
        <time>2019-04-23T12:51:04.000Z</time>
      </trkpt>
      <trkpt lat="49.47719" lon="-1.56093">
        <ele>35.3</ele>
        <time>2019-04-23T12:51:05.000Z</time>
      </trkpt>
      <trkpt lat="49.47719" lon="-1.56095">
        <ele>35.3</ele>
        <time>2019-04-23T12:51:06.000Z</time>
      </trkpt>
      <trkpt lat="49.47719" lon="-1.56097">
        <ele>35.4</ele>
        <time>2019-04-23T12:51:07.000Z</time>
      </trkpt>
      <trkpt lat="49.47719" lon="-1.56098">
        <ele>35.4</ele>
        <time>2019-04-23T12:51:08.000Z</time>
      </trkpt>
      <trkpt lat="49.4772" lon="-1.561">
        <ele>35.4</ele>
        <time>2019-04-23T12:51:09.000Z</time>
      </trkpt>
      <trkpt lat="49.4772" lon="-1.56102">
        <ele>35.4</ele>
        <time>2019-04-23T12:51:10.000Z</time>
      </trkpt>
      <trkpt lat="49.4772" lon="-1.56103">
        <ele>35.4</ele>
        <time>2019-04-23T12:51:11.000Z</time>
      </trkpt>
      <trkpt lat="49.4772" lon="-1.56105">
        <ele>35.5</ele>
        <time>2019-04-23T12:51:12.000Z</time>
      </trkpt>
      <trkpt lat="49.47721" lon="-1.56107">
        <ele>35.5</ele>
        <time>2019-04-23T12:51:13.000Z</time>
      </trkpt>
      <trkpt lat="49.47721" lon="-1.56108">
        <ele>35.5</ele>
        <time>2019-04-23T12:51:14.000Z</time>
      </trkpt>
      <trkpt lat="49.47721" lon="-1.5611">
        <ele>35.5</ele>
        <time>2019-04-23T12:51:15.000Z</time>
      </trkpt>
      <trkpt lat="49.47721" lon="-1.56112">
        <ele>35.5</ele>
        <time>2019-04-23T12:51:16.000Z</time>
      </trkpt>
      <trkpt lat="49.47721" lon="-1.56113">
        <ele>35.5</ele>
        <time>2019-04-23T12:51:17.000Z</time>
      </trkpt>
      <trkpt lat="49.4772" lon="-1.56115">
        <ele>35.5</ele>
        <time>2019-04-23T12:51:18.000Z</time>
      </trkpt>
      <trkpt lat="49.4772" lon="-1.56117">
        <ele>35.6</ele>
        <time>2019-04-23T12:51:19.000Z</time>
      </trkpt>
      <trkpt lat="49.4772" lon="-1.56119">
        <ele>35.6</ele>
        <time>2019-04-23T12:51:20.000Z</time>
      </trkpt>
      <trkpt lat="49.4772" lon="-1.56121">
        <ele>35.6</ele>
        <time>2019-04-23T12:51:21.000Z</time>
      </trkpt>
      <trkpt lat="49.4772" lon="-1.56122">
        <ele>35.6</ele>
        <time>2019-04-23T12:51:22.000Z</time>
      </trkpt>
      <trkpt lat="49.47721" lon="-1.56124">
        <ele>35.6</ele>
        <time>2019-04-23T12:51:23.000Z</time>
      </trkpt>
      <trkpt lat="49.47721" lon="-1.56126">
        <ele>35.6</ele>
        <time>2019-04-23T12:51:24.000Z</time>
      </trkpt>
      <trkpt lat="49.47721" lon="-1.56128">
        <ele>35.6</ele>
        <time>2019-04-23T12:51:25.000Z</time>
      </trkpt>
      <trkpt lat="49.47721" lon="-1.56129">
        <ele>35.7</ele>
        <time>2019-04-23T12:51:26.000Z</time>
      </trkpt>
      <trkpt lat="49.47721" lon="-1.56131">
        <ele>35.7</ele>
        <time>2019-04-23T12:51:27.000Z</time>
      </trkpt>
      <trkpt lat="49.47722" lon="-1.56132">
        <ele>35.7</ele>
        <time>2019-04-23T12:51:28.000Z</time>
      </trkpt>
      <trkpt lat="49.47722" lon="-1.56133">
        <ele>35.7</ele>
        <time>2019-04-23T12:51:29.000Z</time>
      </trkpt>
      <trkpt lat="49.47722" lon="-1.56134">
        <ele>35.7</ele>
        <time>2019-04-23T12:51:30.000Z</time>
      </trkpt>
      <trkpt lat="49.47723" lon="-1.56135">
        <ele>35.8</ele>
        <time>2019-04-23T12:51:31.000Z</time>
      </trkpt>
      <trkpt lat="49.47723" lon="-1.56136">
        <ele>35.8</ele>
        <time>2019-04-23T12:51:32.000Z</time>
      </trkpt>
      <trkpt lat="49.47723" lon="-1.56136">
        <ele>35.8</ele>
        <time>2019-04-23T12:51:33.000Z</time>
      </trkpt>
      <trkpt lat="49.47723" lon="-1.56136">
        <ele>35.8</ele>
        <time>2019-04-23T12:51:34.000Z</time>
      </trkpt>
      <trkpt lat="49.47723" lon="-1.56136">
        <ele>35.8</ele>
        <time>2019-04-23T12:51:35.000Z</time>
      </trkpt>
      <trkpt lat="49.47723" lon="-1.56136">
        <ele>35.8</ele>
        <time>2019-04-23T12:51:36.000Z</time>
      </trkpt>
      <trkpt lat="49.47723" lon="-1.56136">
        <ele>35.8</ele>
        <time>2019-04-23T12:51:37.000Z</time>
      </trkpt>
      <trkpt lat="49.47723" lon="-1.56136">
        <ele>35.8</ele>
        <time>2019-04-23T12:51:38.000Z</time>
      </trkpt>
      <trkpt lat="49.47723" lon="-1.56136">
        <ele>35.8</ele>
        <time>2019-04-23T12:51:39.000Z</time>
      </trkpt>
      <trkpt lat="49.47723" lon="-1.56136">
        <ele>35.8</ele>
        <time>2019-04-23T12:51:40.000Z</time>
      </trkpt>
      <trkpt lat="49.47723" lon="-1.56136">
        <ele>35.8</ele>
        <time>2019-04-23T12:51:41.000Z</time>
      </trkpt>
      <trkpt lat="49.47723" lon="-1.56136">
        <ele>35.8</ele>
        <time>2019-04-23T12:51:42.000Z</time>
      </trkpt>
      <trkpt lat="49.47723" lon="-1.56136">
        <ele>35.8</ele>
        <time>2019-04-23T12:51:43.000Z</time>
      </trkpt>
      <trkpt lat="49.47723" lon="-1.56136">
        <ele>35.8</ele>
        <time>2019-04-23T12:51:44.000Z</time>
      </trkpt>
      <trkpt lat="49.47723" lon="-1.56136">
        <ele>35.8</ele>
        <time>2019-04-23T12:51:45.000Z</time>
      </trkpt>
      <trkpt lat="49.47723" lon="-1.56136">
        <ele>35.8</ele>
        <time>2019-04-23T12:51:46.000Z</time>
      </trkpt>
      <trkpt lat="49.47723" lon="-1.56136">
        <ele>35.8</ele>
        <time>2019-04-23T12:51:47.000Z</time>
      </trkpt>
      <trkpt lat="49.47723" lon="-1.56136">
        <ele>35.8</ele>
        <time>2019-04-23T12:51:48.000Z</time>
      </trkpt>
      <trkpt lat="49.47723" lon="-1.56136">
        <ele>35.8</ele>
        <time>2019-04-23T12:51:49.000Z</time>
      </trkpt>
      <trkpt lat="49.47723" lon="-1.56136">
        <ele>35.8</ele>
        <time>2019-04-23T12:51:50.000Z</time>
      </trkpt>
      <trkpt lat="49.47723" lon="-1.56136">
        <ele>35.8</ele>
        <time>2019-04-23T12:51:51.000Z</time>
      </trkpt>
      <trkpt lat="49.47723" lon="-1.56136">
        <ele>35.8</ele>
        <time>2019-04-23T12:51:52.000Z</time>
      </trkpt>
      <trkpt lat="49.47723" lon="-1.56136">
        <ele>35.8</ele>
        <time>2019-04-23T12:51:53.000Z</time>
      </trkpt>
      <trkpt lat="49.47723" lon="-1.56136">
        <ele>35.8</ele>
        <time>2019-04-23T12:51:54.000Z</time>
      </trkpt>
      <trkpt lat="49.47723" lon="-1.56136">
        <ele>35.8</ele>
        <time>2019-04-23T12:51:55.000Z</time>
      </trkpt>
      <trkpt lat="49.47723" lon="-1.56136">
        <ele>35.8</ele>
        <time>2019-04-23T12:51:56.000Z</time>
      </trkpt>
      <trkpt lat="49.47723" lon="-1.56136">
        <ele>35.8</ele>
        <time>2019-04-23T12:51:57.000Z</time>
      </trkpt>
      <trkpt lat="49.47723" lon="-1.56136">
        <ele>35.8</ele>
        <time>2019-04-23T12:51:58.000Z</time>
      </trkpt>
      <trkpt lat="49.47723" lon="-1.56136">
        <ele>35.8</ele>
        <time>2019-04-23T12:51:59.000Z</time>
      </trkpt>
      <trkpt lat="49.47723" lon="-1.56136">
        <ele>35.8</ele>
        <time>2019-04-23T12:52:00.000Z</time>
      </trkpt>
      <trkpt lat="49.47723" lon="-1.56136">
        <ele>35.8</ele>
        <time>2019-04-23T12:52:01.000Z</time>
      </trkpt>
      <trkpt lat="49.47723" lon="-1.56136">
        <ele>35.8</ele>
        <time>2019-04-23T12:52:02.000Z</time>
      </trkpt>
      <trkpt lat="49.47723" lon="-1.56136">
        <ele>35.8</ele>
        <time>2019-04-23T12:52:03.000Z</time>
      </trkpt>
      <trkpt lat="49.47723" lon="-1.56136">
        <ele>35.8</ele>
        <time>2019-04-23T12:52:04.000Z</time>
      </trkpt>
      <trkpt lat="49.47723" lon="-1.56136">
        <ele>35.8</ele>
        <time>2019-04-23T12:52:05.000Z</time>
      </trkpt>
      <trkpt lat="49.47723" lon="-1.56136">
        <ele>35.8</ele>
        <time>2019-04-23T12:52:06.000Z</time>
      </trkpt>
      <trkpt lat="49.47723" lon="-1.56136">
        <ele>35.8</ele>
        <time>2019-04-23T12:52:07.000Z</time>
      </trkpt>
      <trkpt lat="49.47723" lon="-1.56136">
        <ele>35.8</ele>
        <time>2019-04-23T12:52:08.000Z</time>
      </trkpt>
      <trkpt lat="49.47723" lon="-1.56137">
        <ele>35.8</ele>
        <time>2019-04-23T12:52:09.000Z</time>
      </trkpt>
      <trkpt lat="49.47723" lon="-1.56137">
        <ele>35.8</ele>
        <time>2019-04-23T12:52:10.000Z</time>
      </trkpt>
      <trkpt lat="49.47723" lon="-1.56137">
        <ele>35.8</ele>
        <time>2019-04-23T12:52:11.000Z</time>
      </trkpt>
      <trkpt lat="49.47723" lon="-1.56137">
        <ele>35.8</ele>
        <time>2019-04-23T12:52:12.000Z</time>
      </trkpt>
      <trkpt lat="49.47723" lon="-1.56137">
        <ele>35.8</ele>
        <time>2019-04-23T12:52:13.000Z</time>
      </trkpt>
      <trkpt lat="49.47723" lon="-1.56137">
        <ele>35.8</ele>
        <time>2019-04-23T12:52:14.000Z</time>
      </trkpt>
      <trkpt lat="49.47723" lon="-1.56137">
        <ele>35.8</ele>
        <time>2019-04-23T12:52:15.000Z</time>
      </trkpt>
      <trkpt lat="49.47723" lon="-1.56137">
        <ele>35.8</ele>
        <time>2019-04-23T12:52:16.000Z</time>
      </trkpt>
      <trkpt lat="49.47723" lon="-1.56137">
        <ele>35.8</ele>
        <time>2019-04-23T12:52:17.000Z</time>
      </trkpt>
      <trkpt lat="49.47723" lon="-1.56137">
        <ele>35.8</ele>
        <time>2019-04-23T12:52:18.000Z</time>
      </trkpt>
      <trkpt lat="49.47723" lon="-1.56137">
        <ele>35.8</ele>
        <time>2019-04-23T12:52:19.000Z</time>
      </trkpt>
      <trkpt lat="49.47723" lon="-1.56137">
        <ele>35.8</ele>
        <time>2019-04-23T12:52:20.000Z</time>
      </trkpt>
      <trkpt lat="49.47723" lon="-1.56137">
        <ele>35.8</ele>
        <time>2019-04-23T12:52:21.000Z</time>
      </trkpt>
      <trkpt lat="49.47722" lon="-1.56137">
        <ele>35.8</ele>
        <time>2019-04-23T12:52:22.000Z</time>
      </trkpt>
      <trkpt lat="49.47722" lon="-1.56137">
        <ele>35.8</ele>
        <time>2019-04-23T12:52:23.000Z</time>
      </trkpt>
      <trkpt lat="49.47722" lon="-1.56137">
        <ele>35.8</ele>
        <time>2019-04-23T12:52:24.000Z</time>
      </trkpt>
      <trkpt lat="49.47722" lon="-1.56137">
        <ele>35.8</ele>
        <time>2019-04-23T12:52:25.000Z</time>
      </trkpt>
      <trkpt lat="49.47722" lon="-1.56137">
        <ele>35.8</ele>
        <time>2019-04-23T12:52:26.000Z</time>
      </trkpt>
      <trkpt lat="49.47722" lon="-1.56137">
        <ele>35.8</ele>
        <time>2019-04-23T12:52:27.000Z</time>
      </trkpt>
      <trkpt lat="49.47722" lon="-1.56137">
        <ele>35.8</ele>
        <time>2019-04-23T12:52:28.000Z</time>
      </trkpt>
      <trkpt lat="49.47722" lon="-1.56138">
        <ele>35.8</ele>
        <time>2019-04-23T12:52:29.000Z</time>
      </trkpt>
      <trkpt lat="49.47722" lon="-1.56139">
        <ele>35.8</ele>
        <time>2019-04-23T12:52:30.000Z</time>
      </trkpt>
      <trkpt lat="49.47722" lon="-1.56139">
        <ele>35.8</ele>
        <time>2019-04-23T12:52:31.000Z</time>
      </trkpt>
      <trkpt lat="49.47722" lon="-1.5614">
        <ele>35.8</ele>
        <time>2019-04-23T12:52:32.000Z</time>
      </trkpt>
      <trkpt lat="49.47722" lon="-1.56142">
        <ele>35.8</ele>
        <time>2019-04-23T12:52:33.000Z</time>
      </trkpt>
      <trkpt lat="49.47722" lon="-1.56143">
        <ele>35.8</ele>
        <time>2019-04-23T12:52:34.000Z</time>
      </trkpt>
      <trkpt lat="49.47722" lon="-1.56145">
        <ele>35.8</ele>
        <time>2019-04-23T12:52:35.000Z</time>
      </trkpt>
      <trkpt lat="49.47722" lon="-1.56146">
        <ele>35.8</ele>
        <time>2019-04-23T12:52:36.000Z</time>
      </trkpt>
      <trkpt lat="49.47723" lon="-1.56148">
        <ele>35.9</ele>
        <time>2019-04-23T12:52:37.000Z</time>
      </trkpt>
      <trkpt lat="49.47723" lon="-1.5615">
        <ele>35.9</ele>
        <time>2019-04-23T12:52:38.000Z</time>
      </trkpt>
      <trkpt lat="49.47723" lon="-1.56152">
        <ele>35.9</ele>
        <time>2019-04-23T12:52:39.000Z</time>
      </trkpt>
      <trkpt lat="49.47723" lon="-1.56153">
        <ele>35.9</ele>
        <time>2019-04-23T12:52:40.000Z</time>
      </trkpt>
      <trkpt lat="49.47723" lon="-1.56155">
        <ele>35.9</ele>
        <time>2019-04-23T12:52:41.000Z</time>
      </trkpt>
      <trkpt lat="49.47723" lon="-1.56157">
        <ele>35.9</ele>
        <time>2019-04-23T12:52:42.000Z</time>
      </trkpt>
      <trkpt lat="49.47723" lon="-1.56159">
        <ele>36</ele>
        <time>2019-04-23T12:52:43.000Z</time>
      </trkpt>
      <trkpt lat="49.47724" lon="-1.5616">
        <ele>36</ele>
        <time>2019-04-23T12:52:44.000Z</time>
      </trkpt>
      <trkpt lat="49.47724" lon="-1.56162">
        <ele>36</ele>
        <time>2019-04-23T12:52:45.000Z</time>
      </trkpt>
      <trkpt lat="49.47724" lon="-1.56164">
        <ele>36</ele>
        <time>2019-04-23T12:52:46.000Z</time>
      </trkpt>
      <trkpt lat="49.47725" lon="-1.56165">
        <ele>36.1</ele>
        <time>2019-04-23T12:52:47.000Z</time>
      </trkpt>
      <trkpt lat="49.47725" lon="-1.56167">
        <ele>36.1</ele>
        <time>2019-04-23T12:52:48.000Z</time>
      </trkpt>
      <trkpt lat="49.47725" lon="-1.56169">
        <ele>36.1</ele>
        <time>2019-04-23T12:52:49.000Z</time>
      </trkpt>
      <trkpt lat="49.47726" lon="-1.5617">
        <ele>36.1</ele>
        <time>2019-04-23T12:52:50.000Z</time>
      </trkpt>
      <trkpt lat="49.47727" lon="-1.56172">
        <ele>36.2</ele>
        <time>2019-04-23T12:52:51.000Z</time>
      </trkpt>
      <trkpt lat="49.47727" lon="-1.56173">
        <ele>36.2</ele>
        <time>2019-04-23T12:52:52.000Z</time>
      </trkpt>
      <trkpt lat="49.47728" lon="-1.56175">
        <ele>36.2</ele>
        <time>2019-04-23T12:52:53.000Z</time>
      </trkpt>
      <trkpt lat="49.47729" lon="-1.56176">
        <ele>36.3</ele>
        <time>2019-04-23T12:52:54.000Z</time>
      </trkpt>
      <trkpt lat="49.47729" lon="-1.56178">
        <ele>36.3</ele>
        <time>2019-04-23T12:52:55.000Z</time>
      </trkpt>
      <trkpt lat="49.4773" lon="-1.56179">
        <ele>36.3</ele>
        <time>2019-04-23T12:52:56.000Z</time>
      </trkpt>
      <trkpt lat="49.47731" lon="-1.56181">
        <ele>36.4</ele>
        <time>2019-04-23T12:52:57.000Z</time>
      </trkpt>
      <trkpt lat="49.47732" lon="-1.56182">
        <ele>36.4</ele>
        <time>2019-04-23T12:52:58.000Z</time>
      </trkpt>
      <trkpt lat="49.47733" lon="-1.56184">
        <ele>36.4</ele>
        <time>2019-04-23T12:52:59.000Z</time>
      </trkpt>
      <trkpt lat="49.47733" lon="-1.56185">
        <ele>36.5</ele>
        <time>2019-04-23T12:53:00.000Z</time>
      </trkpt>
      <trkpt lat="49.47734" lon="-1.56187">
        <ele>36.5</ele>
        <time>2019-04-23T12:53:01.000Z</time>
      </trkpt>
      <trkpt lat="49.47735" lon="-1.56188">
        <ele>36.6</ele>
        <time>2019-04-23T12:53:02.000Z</time>
      </trkpt>
      <trkpt lat="49.47736" lon="-1.5619">
        <ele>36.6</ele>
        <time>2019-04-23T12:53:03.000Z</time>
      </trkpt>
      <trkpt lat="49.47737" lon="-1.56191">
        <ele>36.7</ele>
        <time>2019-04-23T12:53:04.000Z</time>
      </trkpt>
      <trkpt lat="49.47738" lon="-1.56193">
        <ele>36.7</ele>
        <time>2019-04-23T12:53:05.000Z</time>
      </trkpt>
      <trkpt lat="49.47738" lon="-1.56194">
        <ele>36.8</ele>
        <time>2019-04-23T12:53:06.000Z</time>
      </trkpt>
      <trkpt lat="49.47739" lon="-1.56196">
        <ele>36.8</ele>
        <time>2019-04-23T12:53:07.000Z</time>
      </trkpt>
      <trkpt lat="49.4774" lon="-1.56198">
        <ele>36.9</ele>
        <time>2019-04-23T12:53:08.000Z</time>
      </trkpt>
      <trkpt lat="49.47741" lon="-1.56199">
        <ele>36.9</ele>
        <time>2019-04-23T12:53:09.000Z</time>
      </trkpt>
      <trkpt lat="49.47742" lon="-1.56201">
        <ele>37</ele>
        <time>2019-04-23T12:53:10.000Z</time>
      </trkpt>
      <trkpt lat="49.47743" lon="-1.56202">
        <ele>37.1</ele>
        <time>2019-04-23T12:53:11.000Z</time>
      </trkpt>
      <trkpt lat="49.47744" lon="-1.56204">
        <ele>37.1</ele>
        <time>2019-04-23T12:53:12.000Z</time>
      </trkpt>
      <trkpt lat="49.47744" lon="-1.56206">
        <ele>37.2</ele>
        <time>2019-04-23T12:53:13.000Z</time>
      </trkpt>
      <trkpt lat="49.47745" lon="-1.56207">
        <ele>37.2</ele>
        <time>2019-04-23T12:53:14.000Z</time>
      </trkpt>
      <trkpt lat="49.47746" lon="-1.56209">
        <ele>37.3</ele>
        <time>2019-04-23T12:53:15.000Z</time>
      </trkpt>
      <trkpt lat="49.47747" lon="-1.5621">
        <ele>37.4</ele>
        <time>2019-04-23T12:53:16.000Z</time>
      </trkpt>
      <trkpt lat="49.47748" lon="-1.56212">
        <ele>37.4</ele>
        <time>2019-04-23T12:53:17.000Z</time>
      </trkpt>
      <trkpt lat="49.47749" lon="-1.56214">
        <ele>37.5</ele>
        <time>2019-04-23T12:53:18.000Z</time>
      </trkpt>
      <trkpt lat="49.4775" lon="-1.56215">
        <ele>37.6</ele>
        <time>2019-04-23T12:53:19.000Z</time>
      </trkpt>
      <trkpt lat="49.4775" lon="-1.56217">
        <ele>37.6</ele>
        <time>2019-04-23T12:53:20.000Z</time>
      </trkpt>
      <trkpt lat="49.47751" lon="-1.56218">
        <ele>37.6</ele>
        <time>2019-04-23T12:53:21.000Z</time>
      </trkpt>
      <trkpt lat="49.47752" lon="-1.5622">
        <ele>37.6</ele>
        <time>2019-04-23T12:53:22.000Z</time>
      </trkpt>
      <trkpt lat="49.47753" lon="-1.56221">
        <ele>37.6</ele>
        <time>2019-04-23T12:53:23.000Z</time>
      </trkpt>
      <trkpt lat="49.47754" lon="-1.56222">
        <ele>37.6</ele>
        <time>2019-04-23T12:53:24.000Z</time>
      </trkpt>
      <trkpt lat="49.47755" lon="-1.56224">
        <ele>37.6</ele>
        <time>2019-04-23T12:53:25.000Z</time>
      </trkpt>
      <trkpt lat="49.47756" lon="-1.56225">
        <ele>37.7</ele>
        <time>2019-04-23T12:53:26.000Z</time>
      </trkpt>
      <trkpt lat="49.47757" lon="-1.56227">
        <ele>37.7</ele>
        <time>2019-04-23T12:53:27.000Z</time>
      </trkpt>
      <trkpt lat="49.47758" lon="-1.56228">
        <ele>37.7</ele>
        <time>2019-04-23T12:53:28.000Z</time>
      </trkpt>
      <trkpt lat="49.47758" lon="-1.56229">
        <ele>37.7</ele>
        <time>2019-04-23T12:53:29.000Z</time>
      </trkpt>
      <trkpt lat="49.47759" lon="-1.5623">
        <ele>37.7</ele>
        <time>2019-04-23T12:53:30.000Z</time>
      </trkpt>
      <trkpt lat="49.4776" lon="-1.56232">
        <ele>37.7</ele>
        <time>2019-04-23T12:53:31.000Z</time>
      </trkpt>
      <trkpt lat="49.47761" lon="-1.56233">
        <ele>37.7</ele>
        <time>2019-04-23T12:53:32.000Z</time>
      </trkpt>
      <trkpt lat="49.47762" lon="-1.56234">
        <ele>37.7</ele>
        <time>2019-04-23T12:53:33.000Z</time>
      </trkpt>
      <trkpt lat="49.47763" lon="-1.56235">
        <ele>37.7</ele>
        <time>2019-04-23T12:53:34.000Z</time>
      </trkpt>
      <trkpt lat="49.47764" lon="-1.56237">
        <ele>37.7</ele>
        <time>2019-04-23T12:53:35.000Z</time>
      </trkpt>
      <trkpt lat="49.47765" lon="-1.56238">
        <ele>37.7</ele>
        <time>2019-04-23T12:53:36.000Z</time>
      </trkpt>
      <trkpt lat="49.47766" lon="-1.56239">
        <ele>37.7</ele>
        <time>2019-04-23T12:53:37.000Z</time>
      </trkpt>
      <trkpt lat="49.47766" lon="-1.5624">
        <ele>37.7</ele>
        <time>2019-04-23T12:53:38.000Z</time>
      </trkpt>
      <trkpt lat="49.47767" lon="-1.56241">
        <ele>37.7</ele>
        <time>2019-04-23T12:53:39.000Z</time>
      </trkpt>
      <trkpt lat="49.47768" lon="-1.56242">
        <ele>37.7</ele>
        <time>2019-04-23T12:53:40.000Z</time>
      </trkpt>
      <trkpt lat="49.47769" lon="-1.56243">
        <ele>37.7</ele>
        <time>2019-04-23T12:53:41.000Z</time>
      </trkpt>
      <trkpt lat="49.47769" lon="-1.56244">
        <ele>37.7</ele>
        <time>2019-04-23T12:53:42.000Z</time>
      </trkpt>
      <trkpt lat="49.4777" lon="-1.56244">
        <ele>37.7</ele>
        <time>2019-04-23T12:53:43.000Z</time>
      </trkpt>
      <trkpt lat="49.47771" lon="-1.56245">
        <ele>37.7</ele>
        <time>2019-04-23T12:53:44.000Z</time>
      </trkpt>
      <trkpt lat="49.47772" lon="-1.56246">
        <ele>37.7</ele>
        <time>2019-04-23T12:53:45.000Z</time>
      </trkpt>
      <trkpt lat="49.47772" lon="-1.56247">
        <ele>37.7</ele>
        <time>2019-04-23T12:53:46.000Z</time>
      </trkpt>
      <trkpt lat="49.47773" lon="-1.56247">
        <ele>37.7</ele>
        <time>2019-04-23T12:53:47.000Z</time>
      </trkpt>
      <trkpt lat="49.47774" lon="-1.56248">
        <ele>37.7</ele>
        <time>2019-04-23T12:53:48.000Z</time>
      </trkpt>
      <trkpt lat="49.47775" lon="-1.56248">
        <ele>37.7</ele>
        <time>2019-04-23T12:53:49.000Z</time>
      </trkpt>
      <trkpt lat="49.47776" lon="-1.56249">
        <ele>37.7</ele>
        <time>2019-04-23T12:53:50.000Z</time>
      </trkpt>
      <trkpt lat="49.47777" lon="-1.5625">
        <ele>37.7</ele>
        <time>2019-04-23T12:53:51.000Z</time>
      </trkpt>
      <trkpt lat="49.47779" lon="-1.5625">
        <ele>37.7</ele>
        <time>2019-04-23T12:53:52.000Z</time>
      </trkpt>
      <trkpt lat="49.4778" lon="-1.56251">
        <ele>37.7</ele>
        <time>2019-04-23T12:53:53.000Z</time>
      </trkpt>
      <trkpt lat="49.47781" lon="-1.56252">
        <ele>37.7</ele>
        <time>2019-04-23T12:53:54.000Z</time>
      </trkpt>
      <trkpt lat="49.47782" lon="-1.56253">
        <ele>37.7</ele>
        <time>2019-04-23T12:53:55.000Z</time>
      </trkpt>
      <trkpt lat="49.47784" lon="-1.56253">
        <ele>37.7</ele>
        <time>2019-04-23T12:53:56.000Z</time>
      </trkpt>
      <trkpt lat="49.47785" lon="-1.56254">
        <ele>37.7</ele>
        <time>2019-04-23T12:53:57.000Z</time>
      </trkpt>
      <trkpt lat="49.47786" lon="-1.56255">
        <ele>37.6</ele>
        <time>2019-04-23T12:53:58.000Z</time>
      </trkpt>
      <trkpt lat="49.47787" lon="-1.56256">
        <ele>37.7</ele>
        <time>2019-04-23T12:53:59.000Z</time>
      </trkpt>
      <trkpt lat="49.47789" lon="-1.56257">
        <ele>37.7</ele>
        <time>2019-04-23T12:54:00.000Z</time>
      </trkpt>
      <trkpt lat="49.4779" lon="-1.56258">
        <ele>37.7</ele>
        <time>2019-04-23T12:54:01.000Z</time>
      </trkpt>
      <trkpt lat="49.47791" lon="-1.56259">
        <ele>37.7</ele>
        <time>2019-04-23T12:54:02.000Z</time>
      </trkpt>
      <trkpt lat="49.47792" lon="-1.5626">
        <ele>37.7</ele>
        <time>2019-04-23T12:54:03.000Z</time>
      </trkpt>
      <trkpt lat="49.47794" lon="-1.56261">
        <ele>37.7</ele>
        <time>2019-04-23T12:54:04.000Z</time>
      </trkpt>
      <trkpt lat="49.47795" lon="-1.56262">
        <ele>37.7</ele>
        <time>2019-04-23T12:54:05.000Z</time>
      </trkpt>
      <trkpt lat="49.47796" lon="-1.56263">
        <ele>37.7</ele>
        <time>2019-04-23T12:54:06.000Z</time>
      </trkpt>
      <trkpt lat="49.47797" lon="-1.56264">
        <ele>37.7</ele>
        <time>2019-04-23T12:54:07.000Z</time>
      </trkpt>
      <trkpt lat="49.47798" lon="-1.56266">
        <ele>37.7</ele>
        <time>2019-04-23T12:54:08.000Z</time>
      </trkpt>
      <trkpt lat="49.47799" lon="-1.56267">
        <ele>37.7</ele>
        <time>2019-04-23T12:54:09.000Z</time>
      </trkpt>
      <trkpt lat="49.478" lon="-1.56268">
        <ele>37.7</ele>
        <time>2019-04-23T12:54:10.000Z</time>
      </trkpt>
      <trkpt lat="49.47801" lon="-1.5627">
        <ele>37.8</ele>
        <time>2019-04-23T12:54:11.000Z</time>
      </trkpt>
      <trkpt lat="49.47802" lon="-1.56271">
        <ele>37.8</ele>
        <time>2019-04-23T12:54:12.000Z</time>
      </trkpt>
      <trkpt lat="49.47803" lon="-1.56272">
        <ele>37.8</ele>
        <time>2019-04-23T12:54:13.000Z</time>
      </trkpt>
      <trkpt lat="49.47804" lon="-1.56274">
        <ele>37.8</ele>
        <time>2019-04-23T12:54:14.000Z</time>
      </trkpt>
      <trkpt lat="49.47804" lon="-1.56275">
        <ele>37.9</ele>
        <time>2019-04-23T12:54:15.000Z</time>
      </trkpt>
      <trkpt lat="49.47805" lon="-1.56277">
        <ele>37.9</ele>
        <time>2019-04-23T12:54:16.000Z</time>
      </trkpt>
      <trkpt lat="49.47806" lon="-1.56279">
        <ele>37.9</ele>
        <time>2019-04-23T12:54:17.000Z</time>
      </trkpt>
      <trkpt lat="49.47807" lon="-1.5628">
        <ele>37.9</ele>
        <time>2019-04-23T12:54:18.000Z</time>
      </trkpt>
      <trkpt lat="49.47807" lon="-1.56282">
        <ele>38</ele>
        <time>2019-04-23T12:54:19.000Z</time>
      </trkpt>
      <trkpt lat="49.47808" lon="-1.56284">
        <ele>38</ele>
        <time>2019-04-23T12:54:20.000Z</time>
      </trkpt>
      <trkpt lat="49.47809" lon="-1.56285">
        <ele>38</ele>
        <time>2019-04-23T12:54:21.000Z</time>
      </trkpt>
      <trkpt lat="49.47809" lon="-1.56287">
        <ele>38.1</ele>
        <time>2019-04-23T12:54:22.000Z</time>
      </trkpt>
      <trkpt lat="49.4781" lon="-1.56289">
        <ele>38.1</ele>
        <time>2019-04-23T12:54:23.000Z</time>
      </trkpt>
      <trkpt lat="49.4781" lon="-1.56291">
        <ele>38.1</ele>
        <time>2019-04-23T12:54:24.000Z</time>
      </trkpt>
      <trkpt lat="49.47811" lon="-1.56293">
        <ele>38.2</ele>
        <time>2019-04-23T12:54:25.000Z</time>
      </trkpt>
      <trkpt lat="49.47812" lon="-1.56294">
        <ele>38.2</ele>
        <time>2019-04-23T12:54:26.000Z</time>
      </trkpt>
      <trkpt lat="49.47812" lon="-1.56296">
        <ele>38.2</ele>
        <time>2019-04-23T12:54:27.000Z</time>
      </trkpt>
      <trkpt lat="49.47813" lon="-1.56298">
        <ele>38.3</ele>
        <time>2019-04-23T12:54:28.000Z</time>
      </trkpt>
      <trkpt lat="49.47813" lon="-1.563">
        <ele>38.3</ele>
        <time>2019-04-23T12:54:29.000Z</time>
      </trkpt>
      <trkpt lat="49.47814" lon="-1.56302">
        <ele>38.3</ele>
        <time>2019-04-23T12:54:30.000Z</time>
      </trkpt>
      <trkpt lat="49.47814" lon="-1.56303">
        <ele>38.4</ele>
        <time>2019-04-23T12:54:31.000Z</time>
      </trkpt>
      <trkpt lat="49.47815" lon="-1.56305">
        <ele>38.4</ele>
        <time>2019-04-23T12:54:32.000Z</time>
      </trkpt>
      <trkpt lat="49.47815" lon="-1.56307">
        <ele>38.4</ele>
        <time>2019-04-23T12:54:33.000Z</time>
      </trkpt>
      <trkpt lat="49.47815" lon="-1.56308">
        <ele>38.5</ele>
        <time>2019-04-23T12:54:34.000Z</time>
      </trkpt>
      <trkpt lat="49.47816" lon="-1.5631">
        <ele>38.5</ele>
        <time>2019-04-23T12:54:35.000Z</time>
      </trkpt>
      <trkpt lat="49.47817" lon="-1.56312">
        <ele>38.5</ele>
        <time>2019-04-23T12:54:36.000Z</time>
      </trkpt>
      <trkpt lat="49.47817" lon="-1.56313">
        <ele>38.6</ele>
        <time>2019-04-23T12:54:37.000Z</time>
      </trkpt>
      <trkpt lat="49.47818" lon="-1.56315">
        <ele>38.6</ele>
        <time>2019-04-23T12:54:38.000Z</time>
      </trkpt>
      <trkpt lat="49.47819" lon="-1.56316">
        <ele>38.6</ele>
        <time>2019-04-23T12:54:39.000Z</time>
      </trkpt>
      <trkpt lat="49.47819" lon="-1.56318">
        <ele>38.7</ele>
        <time>2019-04-23T12:54:40.000Z</time>
      </trkpt>
      <trkpt lat="49.4782" lon="-1.56319">
        <ele>38.7</ele>
        <time>2019-04-23T12:54:41.000Z</time>
      </trkpt>
      <trkpt lat="49.47821" lon="-1.56321">
        <ele>38.7</ele>
        <time>2019-04-23T12:54:42.000Z</time>
      </trkpt>
      <trkpt lat="49.47822" lon="-1.56322">
        <ele>38.8</ele>
        <time>2019-04-23T12:54:43.000Z</time>
      </trkpt>
      <trkpt lat="49.47823" lon="-1.56324">
        <ele>38.8</ele>
        <time>2019-04-23T12:54:44.000Z</time>
      </trkpt>
      <trkpt lat="49.47824" lon="-1.56325">
        <ele>38.8</ele>
        <time>2019-04-23T12:54:45.000Z</time>
      </trkpt>
      <trkpt lat="49.47825" lon="-1.56326">
        <ele>38.8</ele>
        <time>2019-04-23T12:54:46.000Z</time>
      </trkpt>
      <trkpt lat="49.47826" lon="-1.56327">
        <ele>38.9</ele>
        <time>2019-04-23T12:54:47.000Z</time>
      </trkpt>
      <trkpt lat="49.47827" lon="-1.56328">
        <ele>38.9</ele>
        <time>2019-04-23T12:54:48.000Z</time>
      </trkpt>
      <trkpt lat="49.47827" lon="-1.56329">
        <ele>38.9</ele>
        <time>2019-04-23T12:54:49.000Z</time>
      </trkpt>
      <trkpt lat="49.47828" lon="-1.56329">
        <ele>38.9</ele>
        <time>2019-04-23T12:54:50.000Z</time>
      </trkpt>
      <trkpt lat="49.47828" lon="-1.5633">
        <ele>38.9</ele>
        <time>2019-04-23T12:54:51.000Z</time>
      </trkpt>
      <trkpt lat="49.47829" lon="-1.5633">
        <ele>38.9</ele>
        <time>2019-04-23T12:54:52.000Z</time>
      </trkpt>
      <trkpt lat="49.47829" lon="-1.5633">
        <ele>38.9</ele>
        <time>2019-04-23T12:54:53.000Z</time>
      </trkpt>
      <trkpt lat="49.47829" lon="-1.56331">
        <ele>38.9</ele>
        <time>2019-04-23T12:54:54.000Z</time>
      </trkpt>
      <trkpt lat="49.47829" lon="-1.56331">
        <ele>38.9</ele>
        <time>2019-04-23T12:54:55.000Z</time>
      </trkpt>
      <trkpt lat="49.47829" lon="-1.56331">
        <ele>38.9</ele>
        <time>2019-04-23T12:54:56.000Z</time>
      </trkpt>
      <trkpt lat="49.4783" lon="-1.56332">
        <ele>39</ele>
        <time>2019-04-23T12:54:57.000Z</time>
      </trkpt>
      <trkpt lat="49.47831" lon="-1.56334">
        <ele>39</ele>
        <time>2019-04-23T12:54:58.000Z</time>
      </trkpt>
      <trkpt lat="49.47832" lon="-1.56335">
        <ele>39</ele>
        <time>2019-04-23T12:54:59.000Z</time>
      </trkpt>
      <trkpt lat="49.47833" lon="-1.56337">
        <ele>39.1</ele>
        <time>2019-04-23T12:55:00.000Z</time>
      </trkpt>
      <trkpt lat="49.47834" lon="-1.56339">
        <ele>39.1</ele>
        <time>2019-04-23T12:55:01.000Z</time>
      </trkpt>
      <trkpt lat="49.47835" lon="-1.5634">
        <ele>39.2</ele>
        <time>2019-04-23T12:55:02.000Z</time>
      </trkpt>
      <trkpt lat="49.47836" lon="-1.56342">
        <ele>39.2</ele>
        <time>2019-04-23T12:55:03.000Z</time>
      </trkpt>
      <trkpt lat="49.47836" lon="-1.56344">
        <ele>39.3</ele>
        <time>2019-04-23T12:55:04.000Z</time>
      </trkpt>
      <trkpt lat="49.47837" lon="-1.56346">
        <ele>39.3</ele>
        <time>2019-04-23T12:55:05.000Z</time>
      </trkpt>
      <trkpt lat="49.47837" lon="-1.56348">
        <ele>39.4</ele>
        <time>2019-04-23T12:55:06.000Z</time>
      </trkpt>
      <trkpt lat="49.47838" lon="-1.5635">
        <ele>39.4</ele>
        <time>2019-04-23T12:55:07.000Z</time>
      </trkpt>
      <trkpt lat="49.47838" lon="-1.56352">
        <ele>39.5</ele>
        <time>2019-04-23T12:55:08.000Z</time>
      </trkpt>
      <trkpt lat="49.47838" lon="-1.56354">
        <ele>39.5</ele>
        <time>2019-04-23T12:55:09.000Z</time>
      </trkpt>
      <trkpt lat="49.47839" lon="-1.56356">
        <ele>39.6</ele>
        <time>2019-04-23T12:55:10.000Z</time>
      </trkpt>
      <trkpt lat="49.47839" lon="-1.56358">
        <ele>39.6</ele>
        <time>2019-04-23T12:55:11.000Z</time>
      </trkpt>
      <trkpt lat="49.47839" lon="-1.5636">
        <ele>39.7</ele>
        <time>2019-04-23T12:55:12.000Z</time>
      </trkpt>
      <trkpt lat="49.47839" lon="-1.56362">
        <ele>39.8</ele>
        <time>2019-04-23T12:55:13.000Z</time>
      </trkpt>
      <trkpt lat="49.47839" lon="-1.56364">
        <ele>39.8</ele>
        <time>2019-04-23T12:55:14.000Z</time>
      </trkpt>
      <trkpt lat="49.47839" lon="-1.56366">
        <ele>39.8</ele>
        <time>2019-04-23T12:55:15.000Z</time>
      </trkpt>
      <trkpt lat="49.47839" lon="-1.56368">
        <ele>39.9</ele>
        <time>2019-04-23T12:55:16.000Z</time>
      </trkpt>
      <trkpt lat="49.47839" lon="-1.5637">
        <ele>39.9</ele>
        <time>2019-04-23T12:55:17.000Z</time>
      </trkpt>
      <trkpt lat="49.47839" lon="-1.56372">
        <ele>40</ele>
        <time>2019-04-23T12:55:18.000Z</time>
      </trkpt>
      <trkpt lat="49.47839" lon="-1.56374">
        <ele>40</ele>
        <time>2019-04-23T12:55:19.000Z</time>
      </trkpt>
      <trkpt lat="49.47839" lon="-1.56376">
        <ele>40.1</ele>
        <time>2019-04-23T12:55:20.000Z</time>
      </trkpt>
      <trkpt lat="49.47839" lon="-1.56378">
        <ele>40.1</ele>
        <time>2019-04-23T12:55:21.000Z</time>
      </trkpt>
      <trkpt lat="49.47839" lon="-1.5638">
        <ele>40.2</ele>
        <time>2019-04-23T12:55:22.000Z</time>
      </trkpt>
      <trkpt lat="49.47839" lon="-1.56382">
        <ele>40.2</ele>
        <time>2019-04-23T12:55:23.000Z</time>
      </trkpt>
      <trkpt lat="49.47839" lon="-1.56384">
        <ele>40.3</ele>
        <time>2019-04-23T12:55:24.000Z</time>
      </trkpt>
      <trkpt lat="49.47839" lon="-1.56386">
        <ele>40.3</ele>
        <time>2019-04-23T12:55:25.000Z</time>
      </trkpt>
      <trkpt lat="49.47839" lon="-1.56388">
        <ele>40.4</ele>
        <time>2019-04-23T12:55:26.000Z</time>
      </trkpt>
      <trkpt lat="49.47839" lon="-1.5639">
        <ele>40.4</ele>
        <time>2019-04-23T12:55:27.000Z</time>
      </trkpt>
      <trkpt lat="49.47839" lon="-1.56392">
        <ele>40.5</ele>
        <time>2019-04-23T12:55:28.000Z</time>
      </trkpt>
      <trkpt lat="49.4784" lon="-1.56394">
        <ele>40.5</ele>
        <time>2019-04-23T12:55:29.000Z</time>
      </trkpt>
      <trkpt lat="49.4784" lon="-1.56396">
        <ele>40.6</ele>
        <time>2019-04-23T12:55:30.000Z</time>
      </trkpt>
      <trkpt lat="49.4784" lon="-1.56398">
        <ele>40.6</ele>
        <time>2019-04-23T12:55:31.000Z</time>
      </trkpt>
      <trkpt lat="49.4784" lon="-1.564">
        <ele>40.7</ele>
        <time>2019-04-23T12:55:32.000Z</time>
      </trkpt>
      <trkpt lat="49.4784" lon="-1.56402">
        <ele>40.7</ele>
        <time>2019-04-23T12:55:33.000Z</time>
      </trkpt>
      <trkpt lat="49.47839" lon="-1.56404">
        <ele>40.8</ele>
        <time>2019-04-23T12:55:34.000Z</time>
      </trkpt>
      <trkpt lat="49.47839" lon="-1.56406">
        <ele>40.8</ele>
        <time>2019-04-23T12:55:35.000Z</time>
      </trkpt>
      <trkpt lat="49.47839" lon="-1.56408">
        <ele>40.9</ele>
        <time>2019-04-23T12:55:36.000Z</time>
      </trkpt>
      <trkpt lat="49.47839" lon="-1.5641">
        <ele>40.9</ele>
        <time>2019-04-23T12:55:37.000Z</time>
      </trkpt>
      <trkpt lat="49.47839" lon="-1.56412">
        <ele>40.9</ele>
        <time>2019-04-23T12:55:38.000Z</time>
      </trkpt>
      <trkpt lat="49.47838" lon="-1.56414">
        <ele>41</ele>
        <time>2019-04-23T12:55:39.000Z</time>
      </trkpt>
      <trkpt lat="49.47838" lon="-1.56416">
        <ele>41</ele>
        <time>2019-04-23T12:55:40.000Z</time>
      </trkpt>
      <trkpt lat="49.47838" lon="-1.56418">
        <ele>41.1</ele>
        <time>2019-04-23T12:55:41.000Z</time>
      </trkpt>
      <trkpt lat="49.47838" lon="-1.56419">
        <ele>41.1</ele>
        <time>2019-04-23T12:55:42.000Z</time>
      </trkpt>
      <trkpt lat="49.47838" lon="-1.56421">
        <ele>41.2</ele>
        <time>2019-04-23T12:55:43.000Z</time>
      </trkpt>
      <trkpt lat="49.47837" lon="-1.56423">
        <ele>41.2</ele>
        <time>2019-04-23T12:55:44.000Z</time>
      </trkpt>
      <trkpt lat="49.47837" lon="-1.56425">
        <ele>41.2</ele>
        <time>2019-04-23T12:55:45.000Z</time>
      </trkpt>
      <trkpt lat="49.47837" lon="-1.56427">
        <ele>41.3</ele>
        <time>2019-04-23T12:55:46.000Z</time>
      </trkpt>
      <trkpt lat="49.47837" lon="-1.56428">
        <ele>41.3</ele>
        <time>2019-04-23T12:55:47.000Z</time>
      </trkpt>
      <trkpt lat="49.47837" lon="-1.5643">
        <ele>41.4</ele>
        <time>2019-04-23T12:55:48.000Z</time>
      </trkpt>
      <trkpt lat="49.47838" lon="-1.56432">
        <ele>41.4</ele>
        <time>2019-04-23T12:55:49.000Z</time>
      </trkpt>
      <trkpt lat="49.47838" lon="-1.56434">
        <ele>41.4</ele>
        <time>2019-04-23T12:55:50.000Z</time>
      </trkpt>
      <trkpt lat="49.47838" lon="-1.56435">
        <ele>41.5</ele>
        <time>2019-04-23T12:55:51.000Z</time>
      </trkpt>
      <trkpt lat="49.47839" lon="-1.56437">
        <ele>41.5</ele>
        <time>2019-04-23T12:55:52.000Z</time>
      </trkpt>
      <trkpt lat="49.47839" lon="-1.56439">
        <ele>41.6</ele>
        <time>2019-04-23T12:55:53.000Z</time>
      </trkpt>
      <trkpt lat="49.4784" lon="-1.56441">
        <ele>41.6</ele>
        <time>2019-04-23T12:55:54.000Z</time>
      </trkpt>
      <trkpt lat="49.47841" lon="-1.56442">
        <ele>41.7</ele>
        <time>2019-04-23T12:55:55.000Z</time>
      </trkpt>
      <trkpt lat="49.47842" lon="-1.56443">
        <ele>41.7</ele>
        <time>2019-04-23T12:55:56.000Z</time>
      </trkpt>
      <trkpt lat="49.47843" lon="-1.56444">
        <ele>41.7</ele>
        <time>2019-04-23T12:55:57.000Z</time>
      </trkpt>
      <trkpt lat="49.47844" lon="-1.56445">
        <ele>41.8</ele>
        <time>2019-04-23T12:55:58.000Z</time>
      </trkpt>
      <trkpt lat="49.47845" lon="-1.56446">
        <ele>41.8</ele>
        <time>2019-04-23T12:55:59.000Z</time>
      </trkpt>
      <trkpt lat="49.47846" lon="-1.56447">
        <ele>41.8</ele>
        <time>2019-04-23T12:56:00.000Z</time>
      </trkpt>
      <trkpt lat="49.47847" lon="-1.56447">
        <ele>41.8</ele>
        <time>2019-04-23T12:56:01.000Z</time>
      </trkpt>
      <trkpt lat="49.47848" lon="-1.56447">
        <ele>41.8</ele>
        <time>2019-04-23T12:56:02.000Z</time>
      </trkpt>
      <trkpt lat="49.47849" lon="-1.56447">
        <ele>41.8</ele>
        <time>2019-04-23T12:56:03.000Z</time>
      </trkpt>
      <trkpt lat="49.4785" lon="-1.56447">
        <ele>41.9</ele>
        <time>2019-04-23T12:56:04.000Z</time>
      </trkpt>
      <trkpt lat="49.47851" lon="-1.56447">
        <ele>41.9</ele>
        <time>2019-04-23T12:56:05.000Z</time>
      </trkpt>
      <trkpt lat="49.47853" lon="-1.56447">
        <ele>41.9</ele>
        <time>2019-04-23T12:56:06.000Z</time>
      </trkpt>
      <trkpt lat="49.47854" lon="-1.56447">
        <ele>41.9</ele>
        <time>2019-04-23T12:56:07.000Z</time>
      </trkpt>
      <trkpt lat="49.47855" lon="-1.56447">
        <ele>41.9</ele>
        <time>2019-04-23T12:56:08.000Z</time>
      </trkpt>
      <trkpt lat="49.47856" lon="-1.56447">
        <ele>41.9</ele>
        <time>2019-04-23T12:56:09.000Z</time>
      </trkpt>
      <trkpt lat="49.47857" lon="-1.56447">
        <ele>41.9</ele>
        <time>2019-04-23T12:56:10.000Z</time>
      </trkpt>
      <trkpt lat="49.47858" lon="-1.56447">
        <ele>41.9</ele>
        <time>2019-04-23T12:56:11.000Z</time>
      </trkpt>
      <trkpt lat="49.47859" lon="-1.56447">
        <ele>41.9</ele>
        <time>2019-04-23T12:56:12.000Z</time>
      </trkpt>
      <trkpt lat="49.4786" lon="-1.56448">
        <ele>41.9</ele>
        <time>2019-04-23T12:56:13.000Z</time>
      </trkpt>
      <trkpt lat="49.47861" lon="-1.56448">
        <ele>42</ele>
        <time>2019-04-23T12:56:14.000Z</time>
      </trkpt>
      <trkpt lat="49.47862" lon="-1.56448">
        <ele>42</ele>
        <time>2019-04-23T12:56:15.000Z</time>
      </trkpt>
      <trkpt lat="49.47863" lon="-1.56448">
        <ele>42</ele>
        <time>2019-04-23T12:56:16.000Z</time>
      </trkpt>
      <trkpt lat="49.47864" lon="-1.56448">
        <ele>42</ele>
        <time>2019-04-23T12:56:17.000Z</time>
      </trkpt>
      <trkpt lat="49.47865" lon="-1.56449">
        <ele>42</ele>
        <time>2019-04-23T12:56:18.000Z</time>
      </trkpt>
      <trkpt lat="49.47867" lon="-1.56449">
        <ele>42</ele>
        <time>2019-04-23T12:56:19.000Z</time>
      </trkpt>
      <trkpt lat="49.47868" lon="-1.56449">
        <ele>42</ele>
        <time>2019-04-23T12:56:20.000Z</time>
      </trkpt>
      <trkpt lat="49.47869" lon="-1.56449">
        <ele>42</ele>
        <time>2019-04-23T12:56:21.000Z</time>
      </trkpt>
      <trkpt lat="49.4787" lon="-1.5645">
        <ele>42.1</ele>
        <time>2019-04-23T12:56:22.000Z</time>
      </trkpt>
      <trkpt lat="49.47871" lon="-1.5645">
        <ele>42.1</ele>
        <time>2019-04-23T12:56:23.000Z</time>
      </trkpt>
      <trkpt lat="49.47872" lon="-1.5645">
        <ele>42.1</ele>
        <time>2019-04-23T12:56:24.000Z</time>
      </trkpt>
      <trkpt lat="49.47873" lon="-1.5645">
        <ele>42.1</ele>
        <time>2019-04-23T12:56:25.000Z</time>
      </trkpt>
      <trkpt lat="49.47875" lon="-1.56451">
        <ele>42.1</ele>
        <time>2019-04-23T12:56:26.000Z</time>
      </trkpt>
      <trkpt lat="49.47876" lon="-1.56451">
        <ele>42.1</ele>
        <time>2019-04-23T12:56:27.000Z</time>
      </trkpt>
      <trkpt lat="49.47877" lon="-1.56451">
        <ele>42.1</ele>
        <time>2019-04-23T12:56:28.000Z</time>
      </trkpt>
      <trkpt lat="49.47878" lon="-1.56451">
        <ele>42.1</ele>
        <time>2019-04-23T12:56:29.000Z</time>
      </trkpt>
      <trkpt lat="49.47879" lon="-1.56452">
        <ele>42.2</ele>
        <time>2019-04-23T12:56:30.000Z</time>
      </trkpt>
      <trkpt lat="49.4788" lon="-1.56452">
        <ele>42.2</ele>
        <time>2019-04-23T12:56:31.000Z</time>
      </trkpt>
      <trkpt lat="49.47882" lon="-1.56452">
        <ele>42.2</ele>
        <time>2019-04-23T12:56:32.000Z</time>
      </trkpt>
      <trkpt lat="49.47883" lon="-1.56452">
        <ele>42.2</ele>
        <time>2019-04-23T12:56:33.000Z</time>
      </trkpt>
      <trkpt lat="49.47884" lon="-1.56453">
        <ele>42.2</ele>
        <time>2019-04-23T12:56:34.000Z</time>
      </trkpt>
      <trkpt lat="49.47885" lon="-1.56453">
        <ele>42.2</ele>
        <time>2019-04-23T12:56:35.000Z</time>
      </trkpt>
      <trkpt lat="49.47886" lon="-1.56453">
        <ele>42.2</ele>
        <time>2019-04-23T12:56:36.000Z</time>
      </trkpt>
      <trkpt lat="49.47888" lon="-1.56454">
        <ele>42.2</ele>
        <time>2019-04-23T12:56:37.000Z</time>
      </trkpt>
      <trkpt lat="49.47889" lon="-1.56454">
        <ele>42.3</ele>
        <time>2019-04-23T12:56:38.000Z</time>
      </trkpt>
      <trkpt lat="49.4789" lon="-1.56454">
        <ele>42.3</ele>
        <time>2019-04-23T12:56:39.000Z</time>
      </trkpt>
      <trkpt lat="49.47891" lon="-1.56454">
        <ele>42.3</ele>
        <time>2019-04-23T12:56:40.000Z</time>
      </trkpt>
      <trkpt lat="49.47892" lon="-1.56455">
        <ele>42.3</ele>
        <time>2019-04-23T12:56:41.000Z</time>
      </trkpt>
      <trkpt lat="49.47893" lon="-1.56455">
        <ele>42.3</ele>
        <time>2019-04-23T12:56:42.000Z</time>
      </trkpt>
      <trkpt lat="49.47895" lon="-1.56455">
        <ele>42.3</ele>
        <time>2019-04-23T12:56:43.000Z</time>
      </trkpt>
      <trkpt lat="49.47896" lon="-1.56456">
        <ele>42.3</ele>
        <time>2019-04-23T12:56:44.000Z</time>
      </trkpt>
      <trkpt lat="49.47897" lon="-1.56456">
        <ele>42.3</ele>
        <time>2019-04-23T12:56:45.000Z</time>
      </trkpt>
      <trkpt lat="49.47898" lon="-1.56456">
        <ele>42.4</ele>
        <time>2019-04-23T12:56:46.000Z</time>
      </trkpt>
      <trkpt lat="49.47899" lon="-1.56456">
        <ele>42.4</ele>
        <time>2019-04-23T12:56:47.000Z</time>
      </trkpt>
      <trkpt lat="49.479" lon="-1.56457">
        <ele>42.4</ele>
        <time>2019-04-23T12:56:48.000Z</time>
      </trkpt>
      <trkpt lat="49.47902" lon="-1.56457">
        <ele>42.4</ele>
        <time>2019-04-23T12:56:49.000Z</time>
      </trkpt>
      <trkpt lat="49.47903" lon="-1.56457">
        <ele>42.4</ele>
        <time>2019-04-23T12:56:50.000Z</time>
      </trkpt>
      <trkpt lat="49.47904" lon="-1.56458">
        <ele>42.4</ele>
        <time>2019-04-23T12:56:51.000Z</time>
      </trkpt>
      <trkpt lat="49.47905" lon="-1.56458">
        <ele>42.4</ele>
        <time>2019-04-23T12:56:52.000Z</time>
      </trkpt>
      <trkpt lat="49.47906" lon="-1.56458">
        <ele>42.4</ele>
        <time>2019-04-23T12:56:53.000Z</time>
      </trkpt>
      <trkpt lat="49.47907" lon="-1.56459">
        <ele>42.4</ele>
        <time>2019-04-23T12:56:54.000Z</time>
      </trkpt>
      <trkpt lat="49.47908" lon="-1.56459">
        <ele>42.5</ele>
        <time>2019-04-23T12:56:55.000Z</time>
      </trkpt>
      <trkpt lat="49.47909" lon="-1.56459">
        <ele>42.5</ele>
        <time>2019-04-23T12:56:56.000Z</time>
      </trkpt>
      <trkpt lat="49.47911" lon="-1.56459">
        <ele>42.5</ele>
        <time>2019-04-23T12:56:57.000Z</time>
      </trkpt>
      <trkpt lat="49.47912" lon="-1.5646">
        <ele>42.5</ele>
        <time>2019-04-23T12:56:58.000Z</time>
      </trkpt>
      <trkpt lat="49.47913" lon="-1.5646">
        <ele>42.5</ele>
        <time>2019-04-23T12:56:59.000Z</time>
      </trkpt>
      <trkpt lat="49.47914" lon="-1.5646">
        <ele>42.5</ele>
        <time>2019-04-23T12:57:00.000Z</time>
      </trkpt>
      <trkpt lat="49.47915" lon="-1.56461">
        <ele>42.5</ele>
        <time>2019-04-23T12:57:01.000Z</time>
      </trkpt>
      <trkpt lat="49.47916" lon="-1.56461">
        <ele>42.5</ele>
        <time>2019-04-23T12:57:02.000Z</time>
      </trkpt>
      <trkpt lat="49.47917" lon="-1.56461">
        <ele>42.5</ele>
        <time>2019-04-23T12:57:03.000Z</time>
      </trkpt>
      <trkpt lat="49.47918" lon="-1.56462">
        <ele>42.5</ele>
        <time>2019-04-23T12:57:04.000Z</time>
      </trkpt>
      <trkpt lat="49.47919" lon="-1.56462">
        <ele>42.4</ele>
        <time>2019-04-23T12:57:05.000Z</time>
      </trkpt>
      <trkpt lat="49.47921" lon="-1.56462">
        <ele>42.4</ele>
        <time>2019-04-23T12:57:06.000Z</time>
      </trkpt>
      <trkpt lat="49.47922" lon="-1.56463">
        <ele>42.3</ele>
        <time>2019-04-23T12:57:07.000Z</time>
      </trkpt>
      <trkpt lat="49.47923" lon="-1.56463">
        <ele>42.3</ele>
        <time>2019-04-23T12:57:08.000Z</time>
      </trkpt>
      <trkpt lat="49.47924" lon="-1.56463">
        <ele>42.2</ele>
        <time>2019-04-23T12:57:09.000Z</time>
      </trkpt>
      <trkpt lat="49.47925" lon="-1.56464">
        <ele>42.1</ele>
        <time>2019-04-23T12:57:10.000Z</time>
      </trkpt>
      <trkpt lat="49.47926" lon="-1.56464">
        <ele>42.1</ele>
        <time>2019-04-23T12:57:11.000Z</time>
      </trkpt>
      <trkpt lat="49.47928" lon="-1.56464">
        <ele>42</ele>
        <time>2019-04-23T12:57:12.000Z</time>
      </trkpt>
      <trkpt lat="49.47929" lon="-1.56465">
        <ele>42</ele>
        <time>2019-04-23T12:57:13.000Z</time>
      </trkpt>
      <trkpt lat="49.4793" lon="-1.56465">
        <ele>41.9</ele>
        <time>2019-04-23T12:57:14.000Z</time>
      </trkpt>
      <trkpt lat="49.47931" lon="-1.56466">
        <ele>41.9</ele>
        <time>2019-04-23T12:57:15.000Z</time>
      </trkpt>
      <trkpt lat="49.47932" lon="-1.56466">
        <ele>41.8</ele>
        <time>2019-04-23T12:57:16.000Z</time>
      </trkpt>
      <trkpt lat="49.47933" lon="-1.56467">
        <ele>41.8</ele>
        <time>2019-04-23T12:57:17.000Z</time>
      </trkpt>
      <trkpt lat="49.47934" lon="-1.56467">
        <ele>41.7</ele>
        <time>2019-04-23T12:57:18.000Z</time>
      </trkpt>
      <trkpt lat="49.47935" lon="-1.56468">
        <ele>41.7</ele>
        <time>2019-04-23T12:57:19.000Z</time>
      </trkpt>
      <trkpt lat="49.47936" lon="-1.56468">
        <ele>41.6</ele>
        <time>2019-04-23T12:57:20.000Z</time>
      </trkpt>
      <trkpt lat="49.47937" lon="-1.56469">
        <ele>41.6</ele>
        <time>2019-04-23T12:57:21.000Z</time>
      </trkpt>
      <trkpt lat="49.47938" lon="-1.5647">
        <ele>41.5</ele>
        <time>2019-04-23T12:57:22.000Z</time>
      </trkpt>
      <trkpt lat="49.47939" lon="-1.5647">
        <ele>41.5</ele>
        <time>2019-04-23T12:57:23.000Z</time>
      </trkpt>
      <trkpt lat="49.4794" lon="-1.56471">
        <ele>41.4</ele>
        <time>2019-04-23T12:57:24.000Z</time>
      </trkpt>
      <trkpt lat="49.47941" lon="-1.56472">
        <ele>41.4</ele>
        <time>2019-04-23T12:57:25.000Z</time>
      </trkpt>
      <trkpt lat="49.47942" lon="-1.56473">
        <ele>41.4</ele>
        <time>2019-04-23T12:57:26.000Z</time>
      </trkpt>
      <trkpt lat="49.47943" lon="-1.56474">
        <ele>41.3</ele>
        <time>2019-04-23T12:57:27.000Z</time>
      </trkpt>
      <trkpt lat="49.47943" lon="-1.56475">
        <ele>41.3</ele>
        <time>2019-04-23T12:57:28.000Z</time>
      </trkpt>
      <trkpt lat="49.47943" lon="-1.56476">
        <ele>41.3</ele>
        <time>2019-04-23T12:57:29.000Z</time>
      </trkpt>
      <trkpt lat="49.47943" lon="-1.56478">
        <ele>41.3</ele>
        <time>2019-04-23T12:57:30.000Z</time>
      </trkpt>
      <trkpt lat="49.47943" lon="-1.56479">
        <ele>41.3</ele>
        <time>2019-04-23T12:57:31.000Z</time>
      </trkpt>
      <trkpt lat="49.47943" lon="-1.56481">
        <ele>41.4</ele>
        <time>2019-04-23T12:57:32.000Z</time>
      </trkpt>
      <trkpt lat="49.47942" lon="-1.56483">
        <ele>41.4</ele>
        <time>2019-04-23T12:57:33.000Z</time>
      </trkpt>
      <trkpt lat="49.47942" lon="-1.56484">
        <ele>41.4</ele>
        <time>2019-04-23T12:57:34.000Z</time>
      </trkpt>
      <trkpt lat="49.47941" lon="-1.56486">
        <ele>41.4</ele>
        <time>2019-04-23T12:57:35.000Z</time>
      </trkpt>
      <trkpt lat="49.47941" lon="-1.56487">
        <ele>41.5</ele>
        <time>2019-04-23T12:57:36.000Z</time>
      </trkpt>
      <trkpt lat="49.4794" lon="-1.56488">
        <ele>41.5</ele>
        <time>2019-04-23T12:57:37.000Z</time>
      </trkpt>
      <trkpt lat="49.4794" lon="-1.5649">
        <ele>41.6</ele>
        <time>2019-04-23T12:57:38.000Z</time>
      </trkpt>
      <trkpt lat="49.47939" lon="-1.56491">
        <ele>41.6</ele>
        <time>2019-04-23T12:57:39.000Z</time>
      </trkpt>
      <trkpt lat="49.47939" lon="-1.56492">
        <ele>41.6</ele>
        <time>2019-04-23T12:57:40.000Z</time>
      </trkpt>
      <trkpt lat="49.47938" lon="-1.56494">
        <ele>41.7</ele>
        <time>2019-04-23T12:57:41.000Z</time>
      </trkpt>
      <trkpt lat="49.47938" lon="-1.56495">
        <ele>41.7</ele>
        <time>2019-04-23T12:57:42.000Z</time>
      </trkpt>
      <trkpt lat="49.47937" lon="-1.56497">
        <ele>41.8</ele>
        <time>2019-04-23T12:57:43.000Z</time>
      </trkpt>
      <trkpt lat="49.47937" lon="-1.56498">
        <ele>41.8</ele>
        <time>2019-04-23T12:57:44.000Z</time>
      </trkpt>
      <trkpt lat="49.47936" lon="-1.565">
        <ele>41.8</ele>
        <time>2019-04-23T12:57:45.000Z</time>
      </trkpt>
      <trkpt lat="49.47935" lon="-1.56502">
        <ele>41.9</ele>
        <time>2019-04-23T12:57:46.000Z</time>
      </trkpt>
      <trkpt lat="49.47935" lon="-1.56503">
        <ele>41.9</ele>
        <time>2019-04-23T12:57:47.000Z</time>
      </trkpt>
      <trkpt lat="49.47935" lon="-1.56505">
        <ele>41.9</ele>
        <time>2019-04-23T12:57:48.000Z</time>
      </trkpt>
      <trkpt lat="49.47934" lon="-1.56507">
        <ele>41.9</ele>
        <time>2019-04-23T12:57:49.000Z</time>
      </trkpt>
      <trkpt lat="49.47934" lon="-1.56508">
        <ele>41.9</ele>
        <time>2019-04-23T12:57:50.000Z</time>
      </trkpt>
      <trkpt lat="49.47934" lon="-1.5651">
        <ele>41.9</ele>
        <time>2019-04-23T12:57:51.000Z</time>
      </trkpt>
      <trkpt lat="49.47934" lon="-1.56512">
        <ele>41.9</ele>
        <time>2019-04-23T12:57:52.000Z</time>
      </trkpt>
      <trkpt lat="49.47935" lon="-1.56514">
        <ele>41.8</ele>
        <time>2019-04-23T12:57:53.000Z</time>
      </trkpt>
      <trkpt lat="49.47935" lon="-1.56515">
        <ele>41.8</ele>
        <time>2019-04-23T12:57:54.000Z</time>
      </trkpt>
      <trkpt lat="49.47935" lon="-1.56517">
        <ele>41.8</ele>
        <time>2019-04-23T12:57:55.000Z</time>
      </trkpt>
      <trkpt lat="49.47936" lon="-1.56519">
        <ele>41.7</ele>
        <time>2019-04-23T12:57:56.000Z</time>
      </trkpt>
      <trkpt lat="49.47936" lon="-1.56521">
        <ele>41.7</ele>
        <time>2019-04-23T12:57:57.000Z</time>
      </trkpt>
      <trkpt lat="49.47937" lon="-1.56522">
        <ele>41.6</ele>
        <time>2019-04-23T12:57:58.000Z</time>
      </trkpt>
      <trkpt lat="49.47938" lon="-1.56524">
        <ele>41.6</ele>
        <time>2019-04-23T12:57:59.000Z</time>
      </trkpt>
      <trkpt lat="49.47938" lon="-1.56526">
        <ele>41.6</ele>
        <time>2019-04-23T12:58:00.000Z</time>
      </trkpt>
      <trkpt lat="49.47939" lon="-1.56528">
        <ele>41.5</ele>
        <time>2019-04-23T12:58:01.000Z</time>
      </trkpt>
      <trkpt lat="49.4794" lon="-1.56529">
        <ele>41.5</ele>
        <time>2019-04-23T12:58:02.000Z</time>
      </trkpt>
      <trkpt lat="49.47941" lon="-1.56531">
        <ele>41.4</ele>
        <time>2019-04-23T12:58:03.000Z</time>
      </trkpt>
      <trkpt lat="49.47941" lon="-1.56533">
        <ele>41.4</ele>
        <time>2019-04-23T12:58:04.000Z</time>
      </trkpt>
      <trkpt lat="49.47942" lon="-1.56534">
        <ele>41.3</ele>
        <time>2019-04-23T12:58:05.000Z</time>
      </trkpt>
      <trkpt lat="49.47943" lon="-1.56536">
        <ele>41.3</ele>
        <time>2019-04-23T12:58:06.000Z</time>
      </trkpt>
      <trkpt lat="49.47944" lon="-1.56538">
        <ele>41.2</ele>
        <time>2019-04-23T12:58:07.000Z</time>
      </trkpt>
      <trkpt lat="49.47945" lon="-1.56539">
        <ele>41.2</ele>
        <time>2019-04-23T12:58:08.000Z</time>
      </trkpt>
      <trkpt lat="49.47945" lon="-1.56541">
        <ele>41.1</ele>
        <time>2019-04-23T12:58:09.000Z</time>
      </trkpt>
      <trkpt lat="49.47946" lon="-1.56542">
        <ele>41.1</ele>
        <time>2019-04-23T12:58:10.000Z</time>
      </trkpt>
      <trkpt lat="49.47947" lon="-1.56544">
        <ele>41</ele>
        <time>2019-04-23T12:58:11.000Z</time>
      </trkpt>
      <trkpt lat="49.47948" lon="-1.56546">
        <ele>41</ele>
        <time>2019-04-23T12:58:12.000Z</time>
      </trkpt>
      <trkpt lat="49.47948" lon="-1.56547">
        <ele>41</ele>
        <time>2019-04-23T12:58:13.000Z</time>
      </trkpt>
      <trkpt lat="49.47949" lon="-1.56549">
        <ele>40.9</ele>
        <time>2019-04-23T12:58:14.000Z</time>
      </trkpt>
      <trkpt lat="49.4795" lon="-1.5655">
        <ele>40.9</ele>
        <time>2019-04-23T12:58:15.000Z</time>
      </trkpt>
      <trkpt lat="49.4795" lon="-1.56552">
        <ele>40.9</ele>
        <time>2019-04-23T12:58:16.000Z</time>
      </trkpt>
      <trkpt lat="49.47951" lon="-1.56553">
        <ele>40.8</ele>
        <time>2019-04-23T12:58:17.000Z</time>
      </trkpt>
      <trkpt lat="49.47952" lon="-1.56555">
        <ele>40.8</ele>
        <time>2019-04-23T12:58:18.000Z</time>
      </trkpt>
      <trkpt lat="49.47952" lon="-1.56556">
        <ele>40.8</ele>
        <time>2019-04-23T12:58:19.000Z</time>
      </trkpt>
      <trkpt lat="49.47953" lon="-1.56558">
        <ele>40.7</ele>
        <time>2019-04-23T12:58:20.000Z</time>
      </trkpt>
      <trkpt lat="49.47953" lon="-1.56559">
        <ele>40.7</ele>
        <time>2019-04-23T12:58:21.000Z</time>
      </trkpt>
      <trkpt lat="49.47954" lon="-1.56561">
        <ele>40.7</ele>
        <time>2019-04-23T12:58:22.000Z</time>
      </trkpt>
      <trkpt lat="49.47954" lon="-1.56562">
        <ele>40.7</ele>
        <time>2019-04-23T12:58:23.000Z</time>
      </trkpt>
      <trkpt lat="49.47955" lon="-1.56564">
        <ele>40.7</ele>
        <time>2019-04-23T12:58:24.000Z</time>
      </trkpt>
      <trkpt lat="49.47955" lon="-1.56565">
        <ele>40.6</ele>
        <time>2019-04-23T12:58:25.000Z</time>
      </trkpt>
      <trkpt lat="49.47956" lon="-1.56567">
        <ele>40.6</ele>
        <time>2019-04-23T12:58:26.000Z</time>
      </trkpt>
      <trkpt lat="49.47956" lon="-1.56569">
        <ele>40.6</ele>
        <time>2019-04-23T12:58:27.000Z</time>
      </trkpt>
      <trkpt lat="49.47957" lon="-1.5657">
        <ele>40.6</ele>
        <time>2019-04-23T12:58:28.000Z</time>
      </trkpt>
      <trkpt lat="49.47958" lon="-1.56572">
        <ele>40.5</ele>
        <time>2019-04-23T12:58:29.000Z</time>
      </trkpt>
      <trkpt lat="49.47958" lon="-1.56574">
        <ele>40.5</ele>
        <time>2019-04-23T12:58:30.000Z</time>
      </trkpt>
      <trkpt lat="49.47959" lon="-1.56576">
        <ele>40.5</ele>
        <time>2019-04-23T12:58:31.000Z</time>
      </trkpt>
      <trkpt lat="49.47959" lon="-1.56577">
        <ele>40.5</ele>
        <time>2019-04-23T12:58:32.000Z</time>
      </trkpt>
      <trkpt lat="49.4796" lon="-1.56579">
        <ele>40.4</ele>
        <time>2019-04-23T12:58:33.000Z</time>
      </trkpt>
      <trkpt lat="49.47961" lon="-1.56581">
        <ele>40.4</ele>
        <time>2019-04-23T12:58:34.000Z</time>
      </trkpt>
      <trkpt lat="49.47961" lon="-1.56582">
        <ele>40.4</ele>
        <time>2019-04-23T12:58:35.000Z</time>
      </trkpt>
      <trkpt lat="49.47962" lon="-1.56584">
        <ele>40.4</ele>
        <time>2019-04-23T12:58:36.000Z</time>
      </trkpt>
      <trkpt lat="49.47963" lon="-1.56585">
        <ele>40.4</ele>
        <time>2019-04-23T12:58:37.000Z</time>
      </trkpt>
      <trkpt lat="49.47963" lon="-1.56587">
        <ele>40.3</ele>
        <time>2019-04-23T12:58:38.000Z</time>
      </trkpt>
      <trkpt lat="49.47964" lon="-1.56588">
        <ele>40.3</ele>
        <time>2019-04-23T12:58:39.000Z</time>
      </trkpt>
      <trkpt lat="49.47965" lon="-1.5659">
        <ele>40.3</ele>
        <time>2019-04-23T12:58:40.000Z</time>
      </trkpt>
      <trkpt lat="49.47965" lon="-1.56591">
        <ele>40.3</ele>
        <time>2019-04-23T12:58:41.000Z</time>
      </trkpt>
      <trkpt lat="49.47966" lon="-1.56592">
        <ele>40.3</ele>
        <time>2019-04-23T12:58:42.000Z</time>
      </trkpt>
      <trkpt lat="49.47967" lon="-1.56594">
        <ele>40.3</ele>
        <time>2019-04-23T12:58:43.000Z</time>
      </trkpt>
      <trkpt lat="49.47967" lon="-1.56595">
        <ele>40.3</ele>
        <time>2019-04-23T12:58:44.000Z</time>
      </trkpt>
      <trkpt lat="49.47968" lon="-1.56596">
        <ele>40.3</ele>
        <time>2019-04-23T12:58:45.000Z</time>
      </trkpt>
      <trkpt lat="49.47968" lon="-1.56597">
        <ele>40.2</ele>
        <time>2019-04-23T12:58:46.000Z</time>
      </trkpt>
      <trkpt lat="49.47969" lon="-1.56598">
        <ele>40.2</ele>
        <time>2019-04-23T12:58:47.000Z</time>
      </trkpt>
      <trkpt lat="49.4797" lon="-1.566">
        <ele>40.2</ele>
        <time>2019-04-23T12:58:48.000Z</time>
      </trkpt>
      <trkpt lat="49.4797" lon="-1.56601">
        <ele>40.2</ele>
        <time>2019-04-23T12:58:49.000Z</time>
      </trkpt>
      <trkpt lat="49.47971" lon="-1.56602">
        <ele>40.2</ele>
        <time>2019-04-23T12:58:50.000Z</time>
      </trkpt>
      <trkpt lat="49.47971" lon="-1.56604">
        <ele>40.2</ele>
        <time>2019-04-23T12:58:51.000Z</time>
      </trkpt>
      <trkpt lat="49.47972" lon="-1.56605">
        <ele>40.2</ele>
        <time>2019-04-23T12:58:52.000Z</time>
      </trkpt>
      <trkpt lat="49.47973" lon="-1.56607">
        <ele>40.2</ele>
        <time>2019-04-23T12:58:53.000Z</time>
      </trkpt>
      <trkpt lat="49.47973" lon="-1.56608">
        <ele>40.2</ele>
        <time>2019-04-23T12:58:54.000Z</time>
      </trkpt>
      <trkpt lat="49.47974" lon="-1.5661">
        <ele>40.2</ele>
        <time>2019-04-23T12:58:55.000Z</time>
      </trkpt>
      <trkpt lat="49.47974" lon="-1.56612">
        <ele>40.2</ele>
        <time>2019-04-23T12:58:56.000Z</time>
      </trkpt>
      <trkpt lat="49.47975" lon="-1.56613">
        <ele>40.2</ele>
        <time>2019-04-23T12:58:57.000Z</time>
      </trkpt>
      <trkpt lat="49.47976" lon="-1.56615">
        <ele>40.1</ele>
        <time>2019-04-23T12:58:58.000Z</time>
      </trkpt>
      <trkpt lat="49.47976" lon="-1.56617">
        <ele>40.1</ele>
        <time>2019-04-23T12:58:59.000Z</time>
      </trkpt>
      <trkpt lat="49.47977" lon="-1.56618">
        <ele>40.1</ele>
        <time>2019-04-23T12:59:00.000Z</time>
      </trkpt>
      <trkpt lat="49.47977" lon="-1.5662">
        <ele>40.1</ele>
        <time>2019-04-23T12:59:01.000Z</time>
      </trkpt>
      <trkpt lat="49.47978" lon="-1.56621">
        <ele>40.1</ele>
        <time>2019-04-23T12:59:02.000Z</time>
      </trkpt>
      <trkpt lat="49.47978" lon="-1.56623">
        <ele>40.1</ele>
        <time>2019-04-23T12:59:03.000Z</time>
      </trkpt>
      <trkpt lat="49.47979" lon="-1.56624">
        <ele>40.1</ele>
        <time>2019-04-23T12:59:04.000Z</time>
      </trkpt>
      <trkpt lat="49.47979" lon="-1.56625">
        <ele>40.1</ele>
        <time>2019-04-23T12:59:05.000Z</time>
      </trkpt>
      <trkpt lat="49.4798" lon="-1.56627">
        <ele>40.1</ele>
        <time>2019-04-23T12:59:06.000Z</time>
      </trkpt>
      <trkpt lat="49.4798" lon="-1.56628">
        <ele>40.1</ele>
        <time>2019-04-23T12:59:07.000Z</time>
      </trkpt>
      <trkpt lat="49.4798" lon="-1.56629">
        <ele>40.1</ele>
        <time>2019-04-23T12:59:08.000Z</time>
      </trkpt>
      <trkpt lat="49.4798" lon="-1.56629">
        <ele>40.1</ele>
        <time>2019-04-23T12:59:09.000Z</time>
      </trkpt>
      <trkpt lat="49.47981" lon="-1.5663">
        <ele>40.1</ele>
        <time>2019-04-23T12:59:10.000Z</time>
      </trkpt>
      <trkpt lat="49.47981" lon="-1.56631">
        <ele>40.1</ele>
        <time>2019-04-23T12:59:11.000Z</time>
      </trkpt>
      <trkpt lat="49.47981" lon="-1.56631">
        <ele>40.1</ele>
        <time>2019-04-23T12:59:12.000Z</time>
      </trkpt>
      <trkpt lat="49.47981" lon="-1.56632">
        <ele>40.1</ele>
        <time>2019-04-23T12:59:13.000Z</time>
      </trkpt>
      <trkpt lat="49.47981" lon="-1.56632">
        <ele>40.1</ele>
        <time>2019-04-23T12:59:14.000Z</time>
      </trkpt>
      <trkpt lat="49.47981" lon="-1.56633">
        <ele>40.1</ele>
        <time>2019-04-23T12:59:15.000Z</time>
      </trkpt>
      <trkpt lat="49.47981" lon="-1.56633">
        <ele>40.1</ele>
        <time>2019-04-23T12:59:16.000Z</time>
      </trkpt>
      <trkpt lat="49.47982" lon="-1.56633">
        <ele>40.1</ele>
        <time>2019-04-23T12:59:17.000Z</time>
      </trkpt>
      <trkpt lat="49.47982" lon="-1.56633">
        <ele>40.1</ele>
        <time>2019-04-23T12:59:18.000Z</time>
      </trkpt>
      <trkpt lat="49.47982" lon="-1.56633">
        <ele>40.1</ele>
        <time>2019-04-23T12:59:19.000Z</time>
      </trkpt>
      <trkpt lat="49.47982" lon="-1.56633">
        <ele>40.1</ele>
        <time>2019-04-23T12:59:20.000Z</time>
      </trkpt>
      <trkpt lat="49.47982" lon="-1.56633">
        <ele>40.1</ele>
        <time>2019-04-23T12:59:21.000Z</time>
      </trkpt>
      <trkpt lat="49.47982" lon="-1.56633">
        <ele>40.1</ele>
        <time>2019-04-23T12:59:22.000Z</time>
      </trkpt>
      <trkpt lat="49.47982" lon="-1.56633">
        <ele>40.1</ele>
        <time>2019-04-23T12:59:23.000Z</time>
      </trkpt>
      <trkpt lat="49.47982" lon="-1.56633">
        <ele>40.1</ele>
        <time>2019-04-23T12:59:24.000Z</time>
      </trkpt>
      <trkpt lat="49.47982" lon="-1.56633">
        <ele>40.1</ele>
        <time>2019-04-23T12:59:25.000Z</time>
      </trkpt>
      <trkpt lat="49.47982" lon="-1.56633">
        <ele>40.1</ele>
        <time>2019-04-23T12:59:26.000Z</time>
      </trkpt>
      <trkpt lat="49.47982" lon="-1.56633">
        <ele>40.1</ele>
        <time>2019-04-23T12:59:27.000Z</time>
      </trkpt>
      <trkpt lat="49.47982" lon="-1.56633">
        <ele>40.1</ele>
        <time>2019-04-23T12:59:28.000Z</time>
      </trkpt>
      <trkpt lat="49.47982" lon="-1.56633">
        <ele>40.1</ele>
        <time>2019-04-23T12:59:29.000Z</time>
      </trkpt>
      <trkpt lat="49.47982" lon="-1.56633">
        <ele>40.1</ele>
        <time>2019-04-23T12:59:30.000Z</time>
      </trkpt>
      <trkpt lat="49.47982" lon="-1.56633">
        <ele>40.1</ele>
        <time>2019-04-23T12:59:31.000Z</time>
      </trkpt>
      <trkpt lat="49.47982" lon="-1.56633">
        <ele>40.1</ele>
        <time>2019-04-23T12:59:32.000Z</time>
      </trkpt>
      <trkpt lat="49.47982" lon="-1.56633">
        <ele>40.1</ele>
        <time>2019-04-23T12:59:33.000Z</time>
      </trkpt>
      <trkpt lat="49.47982" lon="-1.56633">
        <ele>40.1</ele>
        <time>2019-04-23T12:59:34.000Z</time>
      </trkpt>
      <trkpt lat="49.47982" lon="-1.56633">
        <ele>40.1</ele>
        <time>2019-04-23T12:59:35.000Z</time>
      </trkpt>
      <trkpt lat="49.47982" lon="-1.56633">
        <ele>40.1</ele>
        <time>2019-04-23T12:59:36.000Z</time>
      </trkpt>
      <trkpt lat="49.47982" lon="-1.56633">
        <ele>40.1</ele>
        <time>2019-04-23T12:59:37.000Z</time>
      </trkpt>
      <trkpt lat="49.47982" lon="-1.56633">
        <ele>40.1</ele>
        <time>2019-04-23T12:59:38.000Z</time>
      </trkpt>
      <trkpt lat="49.47982" lon="-1.56633">
        <ele>40.1</ele>
        <time>2019-04-23T12:59:39.000Z</time>
      </trkpt>
      <trkpt lat="49.47982" lon="-1.56633">
        <ele>40.1</ele>
        <time>2019-04-23T12:59:40.000Z</time>
      </trkpt>
      <trkpt lat="49.47982" lon="-1.56633">
        <ele>40.1</ele>
        <time>2019-04-23T12:59:41.000Z</time>
      </trkpt>
      <trkpt lat="49.47982" lon="-1.56633">
        <ele>40.1</ele>
        <time>2019-04-23T12:59:42.000Z</time>
      </trkpt>
      <trkpt lat="49.47982" lon="-1.56633">
        <ele>40.1</ele>
        <time>2019-04-23T12:59:43.000Z</time>
      </trkpt>
      <trkpt lat="49.47982" lon="-1.56633">
        <ele>40.1</ele>
        <time>2019-04-23T12:59:44.000Z</time>
      </trkpt>
      <trkpt lat="49.47982" lon="-1.56633">
        <ele>40.1</ele>
        <time>2019-04-23T12:59:45.000Z</time>
      </trkpt>
      <trkpt lat="49.47982" lon="-1.56633">
        <ele>40.1</ele>
        <time>2019-04-23T12:59:46.000Z</time>
      </trkpt>
      <trkpt lat="49.47982" lon="-1.56633">
        <ele>40.1</ele>
        <time>2019-04-23T12:59:47.000Z</time>
      </trkpt>
      <trkpt lat="49.47982" lon="-1.56633">
        <ele>40.1</ele>
        <time>2019-04-23T12:59:48.000Z</time>
      </trkpt>
      <trkpt lat="49.47982" lon="-1.56633">
        <ele>40.1</ele>
        <time>2019-04-23T12:59:49.000Z</time>
      </trkpt>
      <trkpt lat="49.47982" lon="-1.56633">
        <ele>40.1</ele>
        <time>2019-04-23T12:59:50.000Z</time>
      </trkpt>
      <trkpt lat="49.47981" lon="-1.56633">
        <ele>40.1</ele>
        <time>2019-04-23T12:59:51.000Z</time>
      </trkpt>
      <trkpt lat="49.47981" lon="-1.56633">
        <ele>40.1</ele>
        <time>2019-04-23T12:59:52.000Z</time>
      </trkpt>
      <trkpt lat="49.47981" lon="-1.56632">
        <ele>40.1</ele>
        <time>2019-04-23T12:59:53.000Z</time>
      </trkpt>
      <trkpt lat="49.47982" lon="-1.5663">
        <ele>40.1</ele>
        <time>2019-04-23T12:59:54.000Z</time>
      </trkpt>
      <trkpt lat="49.47982" lon="-1.56628">
        <ele>40.1</ele>
        <time>2019-04-23T12:59:55.000Z</time>
      </trkpt>
      <trkpt lat="49.47982" lon="-1.56627">
        <ele>40.1</ele>
        <time>2019-04-23T12:59:56.000Z</time>
      </trkpt>
      <trkpt lat="49.47982" lon="-1.56626">
        <ele>40.1</ele>
        <time>2019-04-23T12:59:57.000Z</time>
      </trkpt>
      <trkpt lat="49.47982" lon="-1.56626">
        <ele>40.1</ele>
        <time>2019-04-23T12:59:58.000Z</time>
      </trkpt>
      <trkpt lat="49.47982" lon="-1.56626">
        <ele>40.1</ele>
        <time>2019-04-23T12:59:59.000Z</time>
      </trkpt>
      <trkpt lat="49.47982" lon="-1.56626">
        <ele>40.1</ele>
        <time>2019-04-23T13:00:00.000Z</time>
      </trkpt>
      <trkpt lat="49.47982" lon="-1.56626">
        <ele>40.1</ele>
        <time>2019-04-23T13:00:01.000Z</time>
      </trkpt>
      <trkpt lat="49.47982" lon="-1.56626">
        <ele>40.1</ele>
        <time>2019-04-23T13:00:02.000Z</time>
      </trkpt>
      <trkpt lat="49.47982" lon="-1.56626">
        <ele>40.1</ele>
        <time>2019-04-23T13:00:03.000Z</time>
      </trkpt>
      <trkpt lat="49.47982" lon="-1.56626">
        <ele>40.1</ele>
        <time>2019-04-23T13:00:04.000Z</time>
      </trkpt>
      <trkpt lat="49.47982" lon="-1.56626">
        <ele>40.1</ele>
        <time>2019-04-23T13:00:05.000Z</time>
      </trkpt>
      <trkpt lat="49.47982" lon="-1.56626">
        <ele>40.1</ele>
        <time>2019-04-23T13:00:06.000Z</time>
      </trkpt>
      <trkpt lat="49.47982" lon="-1.56626">
        <ele>40.1</ele>
        <time>2019-04-23T13:00:07.000Z</time>
      </trkpt>
      <trkpt lat="49.47982" lon="-1.56626">
        <ele>40.1</ele>
        <time>2019-04-23T13:00:08.000Z</time>
      </trkpt>
      <trkpt lat="49.47982" lon="-1.56626">
        <ele>40.1</ele>
        <time>2019-04-23T13:00:09.000Z</time>
      </trkpt>
      <trkpt lat="49.47982" lon="-1.56626">
        <ele>40.1</ele>
        <time>2019-04-23T13:00:10.000Z</time>
      </trkpt>
      <trkpt lat="49.47982" lon="-1.56626">
        <ele>40.1</ele>
        <time>2019-04-23T13:00:11.000Z</time>
      </trkpt>
      <trkpt lat="49.47982" lon="-1.56626">
        <ele>40.1</ele>
        <time>2019-04-23T13:00:12.000Z</time>
      </trkpt>
      <trkpt lat="49.47982" lon="-1.56626">
        <ele>40.1</ele>
        <time>2019-04-23T13:00:13.000Z</time>
      </trkpt>
      <trkpt lat="49.47982" lon="-1.56626">
        <ele>40.1</ele>
        <time>2019-04-23T13:00:14.000Z</time>
      </trkpt>
      <trkpt lat="49.47982" lon="-1.56626">
        <ele>40.1</ele>
        <time>2019-04-23T13:00:15.000Z</time>
      </trkpt>
      <trkpt lat="49.47982" lon="-1.56626">
        <ele>40.1</ele>
        <time>2019-04-23T13:00:16.000Z</time>
      </trkpt>
      <trkpt lat="49.47982" lon="-1.56626">
        <ele>40.1</ele>
        <time>2019-04-23T13:00:17.000Z</time>
      </trkpt>
      <trkpt lat="49.47982" lon="-1.56626">
        <ele>40.1</ele>
        <time>2019-04-23T13:00:18.000Z</time>
      </trkpt>
      <trkpt lat="49.47982" lon="-1.56626">
        <ele>40.1</ele>
        <time>2019-04-23T13:00:19.000Z</time>
      </trkpt>
      <trkpt lat="49.47982" lon="-1.56626">
        <ele>40.1</ele>
        <time>2019-04-23T13:00:20.000Z</time>
      </trkpt>
      <trkpt lat="49.47982" lon="-1.56626">
        <ele>40.1</ele>
        <time>2019-04-23T13:00:21.000Z</time>
      </trkpt>
      <trkpt lat="49.47982" lon="-1.56626">
        <ele>40.1</ele>
        <time>2019-04-23T13:00:22.000Z</time>
      </trkpt>
      <trkpt lat="49.47982" lon="-1.56626">
        <ele>40.1</ele>
        <time>2019-04-23T13:00:23.000Z</time>
      </trkpt>
      <trkpt lat="49.47982" lon="-1.56626">
        <ele>40.1</ele>
        <time>2019-04-23T13:00:24.000Z</time>
      </trkpt>
      <trkpt lat="49.47982" lon="-1.56626">
        <ele>40.1</ele>
        <time>2019-04-23T13:00:25.000Z</time>
      </trkpt>
      <trkpt lat="49.47982" lon="-1.56626">
        <ele>40.1</ele>
        <time>2019-04-23T13:00:26.000Z</time>
      </trkpt>
      <trkpt lat="49.47982" lon="-1.56626">
        <ele>40.1</ele>
        <time>2019-04-23T13:00:27.000Z</time>
      </trkpt>
      <trkpt lat="49.47982" lon="-1.56626">
        <ele>40.1</ele>
        <time>2019-04-23T13:00:28.000Z</time>
      </trkpt>
      <trkpt lat="49.47982" lon="-1.56626">
        <ele>40.1</ele>
        <time>2019-04-23T13:00:29.000Z</time>
      </trkpt>
      <trkpt lat="49.47982" lon="-1.56626">
        <ele>40.1</ele>
        <time>2019-04-23T13:00:30.000Z</time>
      </trkpt>
      <trkpt lat="49.47982" lon="-1.56626">
        <ele>40.1</ele>
        <time>2019-04-23T13:00:31.000Z</time>
      </trkpt>
      <trkpt lat="49.47982" lon="-1.56626">
        <ele>40.1</ele>
        <time>2019-04-23T13:00:32.000Z</time>
      </trkpt>
      <trkpt lat="49.47982" lon="-1.56626">
        <ele>40.1</ele>
        <time>2019-04-23T13:00:33.000Z</time>
      </trkpt>
      <trkpt lat="49.47982" lon="-1.56626">
        <ele>40.1</ele>
        <time>2019-04-23T13:00:34.000Z</time>
      </trkpt>
      <trkpt lat="49.47982" lon="-1.56626">
        <ele>40.1</ele>
        <time>2019-04-23T13:00:35.000Z</time>
      </trkpt>
      <trkpt lat="49.47982" lon="-1.56626">
        <ele>40.1</ele>
        <time>2019-04-23T13:00:36.000Z</time>
      </trkpt>
      <trkpt lat="49.47982" lon="-1.56626">
        <ele>40.1</ele>
        <time>2019-04-23T13:00:37.000Z</time>
      </trkpt>
      <trkpt lat="49.47982" lon="-1.56626">
        <ele>40.1</ele>
        <time>2019-04-23T13:00:38.000Z</time>
      </trkpt>
      <trkpt lat="49.47982" lon="-1.56626">
        <ele>40.1</ele>
        <time>2019-04-23T13:00:39.000Z</time>
      </trkpt>
      <trkpt lat="49.47982" lon="-1.56626">
        <ele>40.1</ele>
        <time>2019-04-23T13:00:40.000Z</time>
      </trkpt>
      <trkpt lat="49.47982" lon="-1.56626">
        <ele>40.1</ele>
        <time>2019-04-23T13:00:41.000Z</time>
      </trkpt>
      <trkpt lat="49.47982" lon="-1.56626">
        <ele>40.1</ele>
        <time>2019-04-23T13:00:42.000Z</time>
      </trkpt>
      <trkpt lat="49.47982" lon="-1.56626">
        <ele>40.1</ele>
        <time>2019-04-23T13:00:43.000Z</time>
      </trkpt>
      <trkpt lat="49.47982" lon="-1.56626">
        <ele>40.1</ele>
        <time>2019-04-23T13:00:44.000Z</time>
      </trkpt>
      <trkpt lat="49.47982" lon="-1.56626">
        <ele>40.1</ele>
        <time>2019-04-23T13:00:45.000Z</time>
      </trkpt>
      <trkpt lat="49.47982" lon="-1.56626">
        <ele>40.1</ele>
        <time>2019-04-23T13:00:46.000Z</time>
      </trkpt>
      <trkpt lat="49.47982" lon="-1.56626">
        <ele>40.1</ele>
        <time>2019-04-23T13:00:47.000Z</time>
      </trkpt>
      <trkpt lat="49.47982" lon="-1.56626">
        <ele>40.1</ele>
        <time>2019-04-23T13:00:48.000Z</time>
      </trkpt>
      <trkpt lat="49.47982" lon="-1.56626">
        <ele>40.1</ele>
        <time>2019-04-23T13:00:49.000Z</time>
      </trkpt>
      <trkpt lat="49.47982" lon="-1.56626">
        <ele>40.1</ele>
        <time>2019-04-23T13:00:50.000Z</time>
      </trkpt>
      <trkpt lat="49.47982" lon="-1.56626">
        <ele>40.1</ele>
        <time>2019-04-23T13:00:51.000Z</time>
      </trkpt>
      <trkpt lat="49.47982" lon="-1.56626">
        <ele>40.1</ele>
        <time>2019-04-23T13:00:52.000Z</time>
      </trkpt>
      <trkpt lat="49.47982" lon="-1.56626">
        <ele>40.1</ele>
        <time>2019-04-23T13:00:53.000Z</time>
      </trkpt>
      <trkpt lat="49.47982" lon="-1.56626">
        <ele>40.1</ele>
        <time>2019-04-23T13:00:54.000Z</time>
      </trkpt>
      <trkpt lat="49.47982" lon="-1.56626">
        <ele>40.1</ele>
        <time>2019-04-23T13:00:55.000Z</time>
      </trkpt>
      <trkpt lat="49.47982" lon="-1.56626">
        <ele>40.1</ele>
        <time>2019-04-23T13:00:56.000Z</time>
      </trkpt>
      <trkpt lat="49.47982" lon="-1.56626">
        <ele>40.1</ele>
        <time>2019-04-23T13:00:57.000Z</time>
      </trkpt>
      <trkpt lat="49.47982" lon="-1.56626">
        <ele>40.1</ele>
        <time>2019-04-23T13:00:58.000Z</time>
      </trkpt>
      <trkpt lat="49.47982" lon="-1.56626">
        <ele>40</ele>
        <time>2019-04-23T13:00:59.000Z</time>
      </trkpt>
      <trkpt lat="49.47982" lon="-1.56626">
        <ele>40</ele>
        <time>2019-04-23T13:01:00.000Z</time>
      </trkpt>
      <trkpt lat="49.47983" lon="-1.56626">
        <ele>40</ele>
        <time>2019-04-23T13:01:01.000Z</time>
      </trkpt>
      <trkpt lat="49.47983" lon="-1.56625">
        <ele>40</ele>
        <time>2019-04-23T13:01:02.000Z</time>
      </trkpt>
      <trkpt lat="49.47983" lon="-1.56625">
        <ele>40</ele>
        <time>2019-04-23T13:01:03.000Z</time>
      </trkpt>
      <trkpt lat="49.47984" lon="-1.56625">
        <ele>40</ele>
        <time>2019-04-23T13:01:04.000Z</time>
      </trkpt>
      <trkpt lat="49.47984" lon="-1.56625">
        <ele>40</ele>
        <time>2019-04-23T13:01:05.000Z</time>
      </trkpt>
      <trkpt lat="49.47985" lon="-1.56625">
        <ele>40</ele>
        <time>2019-04-23T13:01:06.000Z</time>
      </trkpt>
      <trkpt lat="49.47986" lon="-1.56624">
        <ele>39.9</ele>
        <time>2019-04-23T13:01:07.000Z</time>
      </trkpt>
      <trkpt lat="49.47986" lon="-1.56624">
        <ele>39.9</ele>
        <time>2019-04-23T13:01:08.000Z</time>
      </trkpt>
      <trkpt lat="49.47987" lon="-1.56624">
        <ele>39.9</ele>
        <time>2019-04-23T13:01:09.000Z</time>
      </trkpt>
      <trkpt lat="49.47989" lon="-1.56623">
        <ele>39.8</ele>
        <time>2019-04-23T13:01:10.000Z</time>
      </trkpt>
      <trkpt lat="49.4799" lon="-1.56623">
        <ele>39.8</ele>
        <time>2019-04-23T13:01:11.000Z</time>
      </trkpt>
      <trkpt lat="49.47991" lon="-1.56622">
        <ele>39.7</ele>
        <time>2019-04-23T13:01:12.000Z</time>
      </trkpt>
      <trkpt lat="49.47992" lon="-1.56622">
        <ele>39.7</ele>
        <time>2019-04-23T13:01:13.000Z</time>
      </trkpt>
      <trkpt lat="49.47993" lon="-1.56622">
        <ele>39.7</ele>
        <time>2019-04-23T13:01:14.000Z</time>
      </trkpt>
      <trkpt lat="49.47995" lon="-1.56621">
        <ele>39.6</ele>
        <time>2019-04-23T13:01:15.000Z</time>
      </trkpt>
      <trkpt lat="49.47996" lon="-1.56621">
        <ele>39.6</ele>
        <time>2019-04-23T13:01:16.000Z</time>
      </trkpt>
      <trkpt lat="49.47997" lon="-1.5662">
        <ele>39.5</ele>
        <time>2019-04-23T13:01:17.000Z</time>
      </trkpt>
      <trkpt lat="49.47998" lon="-1.5662">
        <ele>39.5</ele>
        <time>2019-04-23T13:01:18.000Z</time>
      </trkpt>
      <trkpt lat="49.47999" lon="-1.56619">
        <ele>39.4</ele>
        <time>2019-04-23T13:01:19.000Z</time>
      </trkpt>
      <trkpt lat="49.48" lon="-1.56619">
        <ele>39.4</ele>
        <time>2019-04-23T13:01:20.000Z</time>
      </trkpt>
      <trkpt lat="49.48002" lon="-1.56618">
        <ele>39.4</ele>
        <time>2019-04-23T13:01:21.000Z</time>
      </trkpt>
      <trkpt lat="49.48003" lon="-1.56618">
        <ele>39.4</ele>
        <time>2019-04-23T13:01:22.000Z</time>
      </trkpt>
      <trkpt lat="49.48004" lon="-1.56618">
        <ele>39.4</ele>
        <time>2019-04-23T13:01:23.000Z</time>
      </trkpt>
      <trkpt lat="49.48005" lon="-1.56617">
        <ele>39.4</ele>
        <time>2019-04-23T13:01:24.000Z</time>
      </trkpt>
      <trkpt lat="49.48006" lon="-1.56617">
        <ele>39.4</ele>
        <time>2019-04-23T13:01:25.000Z</time>
      </trkpt>
      <trkpt lat="49.48007" lon="-1.56617">
        <ele>39.3</ele>
        <time>2019-04-23T13:01:26.000Z</time>
      </trkpt>
      <trkpt lat="49.48008" lon="-1.56616">
        <ele>39.3</ele>
        <time>2019-04-23T13:01:27.000Z</time>
      </trkpt>
      <trkpt lat="49.48009" lon="-1.56616">
        <ele>39.3</ele>
        <time>2019-04-23T13:01:28.000Z</time>
      </trkpt>
      <trkpt lat="49.48011" lon="-1.56616">
        <ele>39.3</ele>
        <time>2019-04-23T13:01:29.000Z</time>
      </trkpt>
      <trkpt lat="49.48012" lon="-1.56616">
        <ele>39.3</ele>
        <time>2019-04-23T13:01:30.000Z</time>
      </trkpt>
      <trkpt lat="49.48013" lon="-1.56616">
        <ele>39.3</ele>
        <time>2019-04-23T13:01:31.000Z</time>
      </trkpt>
      <trkpt lat="49.48015" lon="-1.56616">
        <ele>39.3</ele>
        <time>2019-04-23T13:01:32.000Z</time>
      </trkpt>
      <trkpt lat="49.48016" lon="-1.56616">
        <ele>39.3</ele>
        <time>2019-04-23T13:01:33.000Z</time>
      </trkpt>
      <trkpt lat="49.48017" lon="-1.56616">
        <ele>39.3</ele>
        <time>2019-04-23T13:01:34.000Z</time>
      </trkpt>
      <trkpt lat="49.48018" lon="-1.56617">
        <ele>39.3</ele>
        <time>2019-04-23T13:01:35.000Z</time>
      </trkpt>
      <trkpt lat="49.4802" lon="-1.56617">
        <ele>39.3</ele>
        <time>2019-04-23T13:01:36.000Z</time>
      </trkpt>
      <trkpt lat="49.48021" lon="-1.56618">
        <ele>39.3</ele>
        <time>2019-04-23T13:01:37.000Z</time>
      </trkpt>
      <trkpt lat="49.48022" lon="-1.56619">
        <ele>39.3</ele>
        <time>2019-04-23T13:01:38.000Z</time>
      </trkpt>
      <trkpt lat="49.48024" lon="-1.5662">
        <ele>39.3</ele>
        <time>2019-04-23T13:01:39.000Z</time>
      </trkpt>
      <trkpt lat="49.48025" lon="-1.56621">
        <ele>39.3</ele>
        <time>2019-04-23T13:01:40.000Z</time>
      </trkpt>
      <trkpt lat="49.48026" lon="-1.56622">
        <ele>39.3</ele>
        <time>2019-04-23T13:01:41.000Z</time>
      </trkpt>
      <trkpt lat="49.48027" lon="-1.56623">
        <ele>39.3</ele>
        <time>2019-04-23T13:01:42.000Z</time>
      </trkpt>
      <trkpt lat="49.48028" lon="-1.56624">
        <ele>39.3</ele>
        <time>2019-04-23T13:01:43.000Z</time>
      </trkpt>
      <trkpt lat="49.48029" lon="-1.56626">
        <ele>39.3</ele>
        <time>2019-04-23T13:01:44.000Z</time>
      </trkpt>
      <trkpt lat="49.4803" lon="-1.56627">
        <ele>39.3</ele>
        <time>2019-04-23T13:01:45.000Z</time>
      </trkpt>
      <trkpt lat="49.48032" lon="-1.56628">
        <ele>39.4</ele>
        <time>2019-04-23T13:01:46.000Z</time>
      </trkpt>
      <trkpt lat="49.48033" lon="-1.56629">
        <ele>39.4</ele>
        <time>2019-04-23T13:01:47.000Z</time>
      </trkpt>
      <trkpt lat="49.48034" lon="-1.5663">
        <ele>39.4</ele>
        <time>2019-04-23T13:01:48.000Z</time>
      </trkpt>
      <trkpt lat="49.48035" lon="-1.56632">
        <ele>39.4</ele>
        <time>2019-04-23T13:01:49.000Z</time>
      </trkpt>
      <trkpt lat="49.48036" lon="-1.56633">
        <ele>39.4</ele>
        <time>2019-04-23T13:01:50.000Z</time>
      </trkpt>
      <trkpt lat="49.48037" lon="-1.56634">
        <ele>39.4</ele>
        <time>2019-04-23T13:01:51.000Z</time>
      </trkpt>
      <trkpt lat="49.48038" lon="-1.56635">
        <ele>39.5</ele>
        <time>2019-04-23T13:01:52.000Z</time>
      </trkpt>
      <trkpt lat="49.48039" lon="-1.56636">
        <ele>39.5</ele>
        <time>2019-04-23T13:01:53.000Z</time>
      </trkpt>
      <trkpt lat="49.48039" lon="-1.56638">
        <ele>39.5</ele>
        <time>2019-04-23T13:01:54.000Z</time>
      </trkpt>
      <trkpt lat="49.4804" lon="-1.56639">
        <ele>39.5</ele>
        <time>2019-04-23T13:01:55.000Z</time>
      </trkpt>
      <trkpt lat="49.48041" lon="-1.5664">
        <ele>39.5</ele>
        <time>2019-04-23T13:01:56.000Z</time>
      </trkpt>
      <trkpt lat="49.48042" lon="-1.56641">
        <ele>39.5</ele>
        <time>2019-04-23T13:01:57.000Z</time>
      </trkpt>
      <trkpt lat="49.48043" lon="-1.56642">
        <ele>39.6</ele>
        <time>2019-04-23T13:01:58.000Z</time>
      </trkpt>
      <trkpt lat="49.48044" lon="-1.56643">
        <ele>39.6</ele>
        <time>2019-04-23T13:01:59.000Z</time>
      </trkpt>
      <trkpt lat="49.48045" lon="-1.56644">
        <ele>39.6</ele>
        <time>2019-04-23T13:02:00.000Z</time>
      </trkpt>
      <trkpt lat="49.48046" lon="-1.56646">
        <ele>39.6</ele>
        <time>2019-04-23T13:02:01.000Z</time>
      </trkpt>
      <trkpt lat="49.48047" lon="-1.56647">
        <ele>39.6</ele>
        <time>2019-04-23T13:02:02.000Z</time>
      </trkpt>
      <trkpt lat="49.48048" lon="-1.56648">
        <ele>39.6</ele>
        <time>2019-04-23T13:02:03.000Z</time>
      </trkpt>
      <trkpt lat="49.48049" lon="-1.56649">
        <ele>39.7</ele>
        <time>2019-04-23T13:02:04.000Z</time>
      </trkpt>
      <trkpt lat="49.4805" lon="-1.5665">
        <ele>39.7</ele>
        <time>2019-04-23T13:02:05.000Z</time>
      </trkpt>
      <trkpt lat="49.48051" lon="-1.56651">
        <ele>39.7</ele>
        <time>2019-04-23T13:02:06.000Z</time>
      </trkpt>
      <trkpt lat="49.48052" lon="-1.56653">
        <ele>39.7</ele>
        <time>2019-04-23T13:02:07.000Z</time>
      </trkpt>
      <trkpt lat="49.48053" lon="-1.56654">
        <ele>39.7</ele>
        <time>2019-04-23T13:02:08.000Z</time>
      </trkpt>
      <trkpt lat="49.48054" lon="-1.56655">
        <ele>39.8</ele>
        <time>2019-04-23T13:02:09.000Z</time>
      </trkpt>
      <trkpt lat="49.48055" lon="-1.56656">
        <ele>39.8</ele>
        <time>2019-04-23T13:02:10.000Z</time>
      </trkpt>
      <trkpt lat="49.48056" lon="-1.56658">
        <ele>39.8</ele>
        <time>2019-04-23T13:02:11.000Z</time>
      </trkpt>
      <trkpt lat="49.48057" lon="-1.56659">
        <ele>39.8</ele>
        <time>2019-04-23T13:02:12.000Z</time>
      </trkpt>
      <trkpt lat="49.48058" lon="-1.5666">
        <ele>39.9</ele>
        <time>2019-04-23T13:02:13.000Z</time>
      </trkpt>
      <trkpt lat="49.48059" lon="-1.56661">
        <ele>39.9</ele>
        <time>2019-04-23T13:02:14.000Z</time>
      </trkpt>
      <trkpt lat="49.4806" lon="-1.56663">
        <ele>39.9</ele>
        <time>2019-04-23T13:02:15.000Z</time>
      </trkpt>
      <trkpt lat="49.48061" lon="-1.56664">
        <ele>39.9</ele>
        <time>2019-04-23T13:02:16.000Z</time>
      </trkpt>
      <trkpt lat="49.48062" lon="-1.56665">
        <ele>40</ele>
        <time>2019-04-23T13:02:17.000Z</time>
      </trkpt>
      <trkpt lat="49.48063" lon="-1.56666">
        <ele>40</ele>
        <time>2019-04-23T13:02:18.000Z</time>
      </trkpt>
      <trkpt lat="49.48064" lon="-1.56668">
        <ele>40</ele>
        <time>2019-04-23T13:02:19.000Z</time>
      </trkpt>
      <trkpt lat="49.48065" lon="-1.56669">
        <ele>40</ele>
        <time>2019-04-23T13:02:20.000Z</time>
      </trkpt>
      <trkpt lat="49.48066" lon="-1.5667">
        <ele>40.1</ele>
        <time>2019-04-23T13:02:21.000Z</time>
      </trkpt>
      <trkpt lat="49.48067" lon="-1.56672">
        <ele>40.1</ele>
        <time>2019-04-23T13:02:22.000Z</time>
      </trkpt>
      <trkpt lat="49.48068" lon="-1.56673">
        <ele>40.1</ele>
        <time>2019-04-23T13:02:23.000Z</time>
      </trkpt>
      <trkpt lat="49.48069" lon="-1.56674">
        <ele>40.1</ele>
        <time>2019-04-23T13:02:24.000Z</time>
      </trkpt>
      <trkpt lat="49.48069" lon="-1.56676">
        <ele>40.1</ele>
        <time>2019-04-23T13:02:25.000Z</time>
      </trkpt>
      <trkpt lat="49.4807" lon="-1.56677">
        <ele>40.1</ele>
        <time>2019-04-23T13:02:26.000Z</time>
      </trkpt>
      <trkpt lat="49.48071" lon="-1.56679">
        <ele>40.2</ele>
        <time>2019-04-23T13:02:27.000Z</time>
      </trkpt>
      <trkpt lat="49.48072" lon="-1.5668">
        <ele>40.2</ele>
        <time>2019-04-23T13:02:28.000Z</time>
      </trkpt>
      <trkpt lat="49.48073" lon="-1.56681">
        <ele>40.2</ele>
        <time>2019-04-23T13:02:29.000Z</time>
      </trkpt>
      <trkpt lat="49.48074" lon="-1.56683">
        <ele>40.2</ele>
        <time>2019-04-23T13:02:30.000Z</time>
      </trkpt>
      <trkpt lat="49.48075" lon="-1.56684">
        <ele>40.2</ele>
        <time>2019-04-23T13:02:31.000Z</time>
      </trkpt>
      <trkpt lat="49.48076" lon="-1.56685">
        <ele>40.2</ele>
        <time>2019-04-23T13:02:32.000Z</time>
      </trkpt>
      <trkpt lat="49.48077" lon="-1.56687">
        <ele>40.3</ele>
        <time>2019-04-23T13:02:33.000Z</time>
      </trkpt>
      <trkpt lat="49.48078" lon="-1.56688">
        <ele>40.3</ele>
        <time>2019-04-23T13:02:34.000Z</time>
      </trkpt>
      <trkpt lat="49.48079" lon="-1.56689">
        <ele>40.3</ele>
        <time>2019-04-23T13:02:35.000Z</time>
      </trkpt>
      <trkpt lat="49.4808" lon="-1.56691">
        <ele>40.3</ele>
        <time>2019-04-23T13:02:36.000Z</time>
      </trkpt>
      <trkpt lat="49.48081" lon="-1.56692">
        <ele>40.3</ele>
        <time>2019-04-23T13:02:37.000Z</time>
      </trkpt>
      <trkpt lat="49.48082" lon="-1.56693">
        <ele>40.3</ele>
        <time>2019-04-23T13:02:38.000Z</time>
      </trkpt>
      <trkpt lat="49.48083" lon="-1.56694">
        <ele>40.3</ele>
        <time>2019-04-23T13:02:39.000Z</time>
      </trkpt>
      <trkpt lat="49.48084" lon="-1.56696">
        <ele>40.3</ele>
        <time>2019-04-23T13:02:40.000Z</time>
      </trkpt>
      <trkpt lat="49.48085" lon="-1.56697">
        <ele>40.3</ele>
        <time>2019-04-23T13:02:41.000Z</time>
      </trkpt>
      <trkpt lat="49.48086" lon="-1.56698">
        <ele>40.3</ele>
        <time>2019-04-23T13:02:42.000Z</time>
      </trkpt>
      <trkpt lat="49.48087" lon="-1.567">
        <ele>40.3</ele>
        <time>2019-04-23T13:02:43.000Z</time>
      </trkpt>
      <trkpt lat="49.48088" lon="-1.56701">
        <ele>40.3</ele>
        <time>2019-04-23T13:02:44.000Z</time>
      </trkpt>
      <trkpt lat="49.48089" lon="-1.56702">
        <ele>40.3</ele>
        <time>2019-04-23T13:02:45.000Z</time>
      </trkpt>
      <trkpt lat="49.4809" lon="-1.56703">
        <ele>40.3</ele>
        <time>2019-04-23T13:02:46.000Z</time>
      </trkpt>
      <trkpt lat="49.4809" lon="-1.56705">
        <ele>40.2</ele>
        <time>2019-04-23T13:02:47.000Z</time>
      </trkpt>
      <trkpt lat="49.48091" lon="-1.56706">
        <ele>40.2</ele>
        <time>2019-04-23T13:02:48.000Z</time>
      </trkpt>
      <trkpt lat="49.48092" lon="-1.56707">
        <ele>40.2</ele>
        <time>2019-04-23T13:02:49.000Z</time>
      </trkpt>
      <trkpt lat="49.48093" lon="-1.56708">
        <ele>40.2</ele>
        <time>2019-04-23T13:02:50.000Z</time>
      </trkpt>
      <trkpt lat="49.48094" lon="-1.56709">
        <ele>40.2</ele>
        <time>2019-04-23T13:02:51.000Z</time>
      </trkpt>
      <trkpt lat="49.48095" lon="-1.56711">
        <ele>40.2</ele>
        <time>2019-04-23T13:02:52.000Z</time>
      </trkpt>
      <trkpt lat="49.48095" lon="-1.56712">
        <ele>40.2</ele>
        <time>2019-04-23T13:02:53.000Z</time>
      </trkpt>
      <trkpt lat="49.48096" lon="-1.56713">
        <ele>40.2</ele>
        <time>2019-04-23T13:02:54.000Z</time>
      </trkpt>
      <trkpt lat="49.48097" lon="-1.56714">
        <ele>40.2</ele>
        <time>2019-04-23T13:02:55.000Z</time>
      </trkpt>
      <trkpt lat="49.48098" lon="-1.56715">
        <ele>40.2</ele>
        <time>2019-04-23T13:02:56.000Z</time>
      </trkpt>
      <trkpt lat="49.48099" lon="-1.56717">
        <ele>40.2</ele>
        <time>2019-04-23T13:02:57.000Z</time>
      </trkpt>
      <trkpt lat="49.481" lon="-1.56718">
        <ele>40.1</ele>
        <time>2019-04-23T13:02:58.000Z</time>
      </trkpt>
      <trkpt lat="49.48101" lon="-1.56719">
        <ele>40.1</ele>
        <time>2019-04-23T13:02:59.000Z</time>
      </trkpt>
      <trkpt lat="49.48102" lon="-1.5672">
        <ele>40.1</ele>
        <time>2019-04-23T13:03:00.000Z</time>
      </trkpt>
      <trkpt lat="49.48103" lon="-1.56721">
        <ele>40.1</ele>
        <time>2019-04-23T13:03:01.000Z</time>
      </trkpt>
      <trkpt lat="49.48104" lon="-1.56723">
        <ele>40.1</ele>
        <time>2019-04-23T13:03:02.000Z</time>
      </trkpt>
      <trkpt lat="49.48105" lon="-1.56724">
        <ele>40.1</ele>
        <time>2019-04-23T13:03:03.000Z</time>
      </trkpt>
      <trkpt lat="49.48106" lon="-1.56726">
        <ele>40.1</ele>
        <time>2019-04-23T13:03:04.000Z</time>
      </trkpt>
      <trkpt lat="49.48107" lon="-1.56727">
        <ele>40.1</ele>
        <time>2019-04-23T13:03:05.000Z</time>
      </trkpt>
      <trkpt lat="49.48108" lon="-1.56729">
        <ele>40.1</ele>
        <time>2019-04-23T13:03:06.000Z</time>
      </trkpt>
      <trkpt lat="49.48109" lon="-1.5673">
        <ele>40.1</ele>
        <time>2019-04-23T13:03:07.000Z</time>
      </trkpt>
      <trkpt lat="49.4811" lon="-1.56732">
        <ele>40.1</ele>
        <time>2019-04-23T13:03:08.000Z</time>
      </trkpt>
      <trkpt lat="49.4811" lon="-1.56733">
        <ele>40.1</ele>
        <time>2019-04-23T13:03:09.000Z</time>
      </trkpt>
      <trkpt lat="49.48111" lon="-1.56735">
        <ele>40.1</ele>
        <time>2019-04-23T13:03:10.000Z</time>
      </trkpt>
      <trkpt lat="49.48112" lon="-1.56736">
        <ele>40.1</ele>
        <time>2019-04-23T13:03:11.000Z</time>
      </trkpt>
      <trkpt lat="49.48113" lon="-1.56738">
        <ele>40.1</ele>
        <time>2019-04-23T13:03:12.000Z</time>
      </trkpt>
      <trkpt lat="49.48114" lon="-1.56739">
        <ele>40.1</ele>
        <time>2019-04-23T13:03:13.000Z</time>
      </trkpt>
      <trkpt lat="49.48115" lon="-1.56741">
        <ele>40.1</ele>
        <time>2019-04-23T13:03:14.000Z</time>
      </trkpt>
      <trkpt lat="49.48115" lon="-1.56742">
        <ele>40.1</ele>
        <time>2019-04-23T13:03:15.000Z</time>
      </trkpt>
      <trkpt lat="49.48116" lon="-1.56744">
        <ele>40.1</ele>
        <time>2019-04-23T13:03:16.000Z</time>
      </trkpt>
      <trkpt lat="49.48117" lon="-1.56745">
        <ele>40.1</ele>
        <time>2019-04-23T13:03:17.000Z</time>
      </trkpt>
      <trkpt lat="49.48118" lon="-1.56746">
        <ele>40.1</ele>
        <time>2019-04-23T13:03:18.000Z</time>
      </trkpt>
      <trkpt lat="49.48119" lon="-1.56748">
        <ele>40.1</ele>
        <time>2019-04-23T13:03:19.000Z</time>
      </trkpt>
      <trkpt lat="49.4812" lon="-1.56749">
        <ele>40.1</ele>
        <time>2019-04-23T13:03:20.000Z</time>
      </trkpt>
      <trkpt lat="49.48121" lon="-1.5675">
        <ele>40.1</ele>
        <time>2019-04-23T13:03:21.000Z</time>
      </trkpt>
      <trkpt lat="49.48122" lon="-1.56752">
        <ele>40.1</ele>
        <time>2019-04-23T13:03:22.000Z</time>
      </trkpt>
      <trkpt lat="49.48123" lon="-1.56753">
        <ele>40.1</ele>
        <time>2019-04-23T13:03:23.000Z</time>
      </trkpt>
      <trkpt lat="49.48123" lon="-1.56754">
        <ele>40.1</ele>
        <time>2019-04-23T13:03:24.000Z</time>
      </trkpt>
      <trkpt lat="49.48124" lon="-1.56755">
        <ele>40.1</ele>
        <time>2019-04-23T13:03:25.000Z</time>
      </trkpt>
      <trkpt lat="49.48125" lon="-1.56757">
        <ele>40.1</ele>
        <time>2019-04-23T13:03:26.000Z</time>
      </trkpt>
      <trkpt lat="49.48126" lon="-1.56758">
        <ele>40.1</ele>
        <time>2019-04-23T13:03:27.000Z</time>
      </trkpt>
      <trkpt lat="49.48127" lon="-1.56759">
        <ele>40.1</ele>
        <time>2019-04-23T13:03:28.000Z</time>
      </trkpt>
      <trkpt lat="49.48128" lon="-1.5676">
        <ele>40.1</ele>
        <time>2019-04-23T13:03:29.000Z</time>
      </trkpt>
      <trkpt lat="49.48129" lon="-1.56761">
        <ele>40.1</ele>
        <time>2019-04-23T13:03:30.000Z</time>
      </trkpt>
      <trkpt lat="49.4813" lon="-1.56763">
        <ele>40.1</ele>
        <time>2019-04-23T13:03:31.000Z</time>
      </trkpt>
      <trkpt lat="49.48131" lon="-1.56764">
        <ele>40.1</ele>
        <time>2019-04-23T13:03:32.000Z</time>
      </trkpt>
      <trkpt lat="49.48132" lon="-1.56765">
        <ele>40.1</ele>
        <time>2019-04-23T13:03:33.000Z</time>
      </trkpt>
      <trkpt lat="49.48133" lon="-1.56766">
        <ele>40.1</ele>
        <time>2019-04-23T13:03:34.000Z</time>
      </trkpt>
      <trkpt lat="49.48134" lon="-1.56767">
        <ele>40.2</ele>
        <time>2019-04-23T13:03:35.000Z</time>
      </trkpt>
      <trkpt lat="49.48135" lon="-1.56768">
        <ele>40.2</ele>
        <time>2019-04-23T13:03:36.000Z</time>
      </trkpt>
      <trkpt lat="49.48136" lon="-1.56769">
        <ele>40.2</ele>
        <time>2019-04-23T13:03:37.000Z</time>
      </trkpt>
      <trkpt lat="49.48137" lon="-1.5677">
        <ele>40.2</ele>
        <time>2019-04-23T13:03:38.000Z</time>
      </trkpt>
      <trkpt lat="49.48139" lon="-1.56771">
        <ele>40.2</ele>
        <time>2019-04-23T13:03:39.000Z</time>
      </trkpt>
      <trkpt lat="49.4814" lon="-1.56772">
        <ele>40.2</ele>
        <time>2019-04-23T13:03:40.000Z</time>
      </trkpt>
      <trkpt lat="49.48141" lon="-1.56773">
        <ele>40.2</ele>
        <time>2019-04-23T13:03:41.000Z</time>
      </trkpt>
      <trkpt lat="49.48142" lon="-1.56774">
        <ele>40.2</ele>
        <time>2019-04-23T13:03:42.000Z</time>
      </trkpt>
      <trkpt lat="49.48143" lon="-1.56775">
        <ele>40.2</ele>
        <time>2019-04-23T13:03:43.000Z</time>
      </trkpt>
      <trkpt lat="49.48144" lon="-1.56776">
        <ele>40.2</ele>
        <time>2019-04-23T13:03:44.000Z</time>
      </trkpt>
      <trkpt lat="49.48145" lon="-1.56777">
        <ele>40.2</ele>
        <time>2019-04-23T13:03:45.000Z</time>
      </trkpt>
      <trkpt lat="49.48147" lon="-1.56778">
        <ele>40.2</ele>
        <time>2019-04-23T13:03:46.000Z</time>
      </trkpt>
      <trkpt lat="49.48148" lon="-1.56779">
        <ele>40.3</ele>
        <time>2019-04-23T13:03:47.000Z</time>
      </trkpt>
      <trkpt lat="49.48149" lon="-1.5678">
        <ele>40.3</ele>
        <time>2019-04-23T13:03:48.000Z</time>
      </trkpt>
      <trkpt lat="49.4815" lon="-1.56781">
        <ele>40.3</ele>
        <time>2019-04-23T13:03:49.000Z</time>
      </trkpt>
      <trkpt lat="49.48151" lon="-1.56782">
        <ele>40.3</ele>
        <time>2019-04-23T13:03:50.000Z</time>
      </trkpt>
      <trkpt lat="49.48153" lon="-1.56783">
        <ele>40.3</ele>
        <time>2019-04-23T13:03:51.000Z</time>
      </trkpt>
      <trkpt lat="49.48154" lon="-1.56783">
        <ele>40.3</ele>
        <time>2019-04-23T13:03:52.000Z</time>
      </trkpt>
      <trkpt lat="49.48155" lon="-1.56784">
        <ele>40.3</ele>
        <time>2019-04-23T13:03:53.000Z</time>
      </trkpt>
      <trkpt lat="49.48156" lon="-1.56785">
        <ele>40.4</ele>
        <time>2019-04-23T13:03:54.000Z</time>
      </trkpt>
      <trkpt lat="49.48157" lon="-1.56786">
        <ele>40.4</ele>
        <time>2019-04-23T13:03:55.000Z</time>
      </trkpt>
      <trkpt lat="49.48158" lon="-1.56787">
        <ele>40.4</ele>
        <time>2019-04-23T13:03:56.000Z</time>
      </trkpt>
      <trkpt lat="49.48159" lon="-1.56788">
        <ele>40.4</ele>
        <time>2019-04-23T13:03:57.000Z</time>
      </trkpt>
      <trkpt lat="49.48161" lon="-1.56789">
        <ele>40.4</ele>
        <time>2019-04-23T13:03:58.000Z</time>
      </trkpt>
      <trkpt lat="49.48162" lon="-1.5679">
        <ele>40.5</ele>
        <time>2019-04-23T13:03:59.000Z</time>
      </trkpt>
      <trkpt lat="49.48163" lon="-1.56791">
        <ele>40.5</ele>
        <time>2019-04-23T13:04:00.000Z</time>
      </trkpt>
      <trkpt lat="49.48164" lon="-1.56791">
        <ele>40.5</ele>
        <time>2019-04-23T13:04:01.000Z</time>
      </trkpt>
      <trkpt lat="49.48165" lon="-1.56792">
        <ele>40.5</ele>
        <time>2019-04-23T13:04:02.000Z</time>
      </trkpt>
      <trkpt lat="49.48166" lon="-1.56793">
        <ele>40.6</ele>
        <time>2019-04-23T13:04:03.000Z</time>
      </trkpt>
      <trkpt lat="49.48167" lon="-1.56794">
        <ele>40.6</ele>
        <time>2019-04-23T13:04:04.000Z</time>
      </trkpt>
      <trkpt lat="49.48168" lon="-1.56795">
        <ele>40.5</ele>
        <time>2019-04-23T13:04:05.000Z</time>
      </trkpt>
      <trkpt lat="49.4817" lon="-1.56796">
        <ele>40.5</ele>
        <time>2019-04-23T13:04:06.000Z</time>
      </trkpt>
      <trkpt lat="49.48171" lon="-1.56797">
        <ele>40.5</ele>
        <time>2019-04-23T13:04:07.000Z</time>
      </trkpt>
      <trkpt lat="49.48172" lon="-1.56798">
        <ele>40.5</ele>
        <time>2019-04-23T13:04:08.000Z</time>
      </trkpt>
      <trkpt lat="49.48173" lon="-1.56799">
        <ele>40.5</ele>
        <time>2019-04-23T13:04:09.000Z</time>
      </trkpt>
      <trkpt lat="49.48174" lon="-1.568">
        <ele>40.5</ele>
        <time>2019-04-23T13:04:10.000Z</time>
      </trkpt>
      <trkpt lat="49.48176" lon="-1.56801">
        <ele>40.4</ele>
        <time>2019-04-23T13:04:11.000Z</time>
      </trkpt>
      <trkpt lat="49.48177" lon="-1.56802">
        <ele>40.4</ele>
        <time>2019-04-23T13:04:12.000Z</time>
      </trkpt>
      <trkpt lat="49.48178" lon="-1.56803">
        <ele>40.4</ele>
        <time>2019-04-23T13:04:13.000Z</time>
      </trkpt>
      <trkpt lat="49.48179" lon="-1.56803">
        <ele>40.4</ele>
        <time>2019-04-23T13:04:14.000Z</time>
      </trkpt>
      <trkpt lat="49.4818" lon="-1.56804">
        <ele>40.4</ele>
        <time>2019-04-23T13:04:15.000Z</time>
      </trkpt>
      <trkpt lat="49.48182" lon="-1.56805">
        <ele>40.3</ele>
        <time>2019-04-23T13:04:16.000Z</time>
      </trkpt>
      <trkpt lat="49.48183" lon="-1.56806">
        <ele>40.3</ele>
        <time>2019-04-23T13:04:17.000Z</time>
      </trkpt>
      <trkpt lat="49.48184" lon="-1.56807">
        <ele>40.3</ele>
        <time>2019-04-23T13:04:18.000Z</time>
      </trkpt>
      <trkpt lat="49.48185" lon="-1.56808">
        <ele>40.3</ele>
        <time>2019-04-23T13:04:19.000Z</time>
      </trkpt>
      <trkpt lat="49.48186" lon="-1.56808">
        <ele>40.2</ele>
        <time>2019-04-23T13:04:20.000Z</time>
      </trkpt>
      <trkpt lat="49.48187" lon="-1.56809">
        <ele>40.2</ele>
        <time>2019-04-23T13:04:21.000Z</time>
      </trkpt>
      <trkpt lat="49.48188" lon="-1.5681">
        <ele>40.2</ele>
        <time>2019-04-23T13:04:22.000Z</time>
      </trkpt>
      <trkpt lat="49.48189" lon="-1.56811">
        <ele>40.2</ele>
        <time>2019-04-23T13:04:23.000Z</time>
      </trkpt>
      <trkpt lat="49.4819" lon="-1.56811">
        <ele>40.2</ele>
        <time>2019-04-23T13:04:24.000Z</time>
      </trkpt>
      <trkpt lat="49.48191" lon="-1.56812">
        <ele>40.1</ele>
        <time>2019-04-23T13:04:25.000Z</time>
      </trkpt>
      <trkpt lat="49.48192" lon="-1.56813">
        <ele>40.1</ele>
        <time>2019-04-23T13:04:26.000Z</time>
      </trkpt>
      <trkpt lat="49.48193" lon="-1.56814">
        <ele>40.1</ele>
        <time>2019-04-23T13:04:27.000Z</time>
      </trkpt>
      <trkpt lat="49.48194" lon="-1.56814">
        <ele>40.1</ele>
        <time>2019-04-23T13:04:28.000Z</time>
      </trkpt>
      <trkpt lat="49.48195" lon="-1.56815">
        <ele>40</ele>
        <time>2019-04-23T13:04:29.000Z</time>
      </trkpt>
      <trkpt lat="49.48197" lon="-1.56816">
        <ele>40</ele>
        <time>2019-04-23T13:04:30.000Z</time>
      </trkpt>
      <trkpt lat="49.48198" lon="-1.56817">
        <ele>40</ele>
        <time>2019-04-23T13:04:31.000Z</time>
      </trkpt>
      <trkpt lat="49.48199" lon="-1.56817">
        <ele>39.9</ele>
        <time>2019-04-23T13:04:32.000Z</time>
      </trkpt>
      <trkpt lat="49.482" lon="-1.56818">
        <ele>39.9</ele>
        <time>2019-04-23T13:04:33.000Z</time>
      </trkpt>
      <trkpt lat="49.48201" lon="-1.56819">
        <ele>39.9</ele>
        <time>2019-04-23T13:04:34.000Z</time>
      </trkpt>
      <trkpt lat="49.48203" lon="-1.5682">
        <ele>39.9</ele>
        <time>2019-04-23T13:04:35.000Z</time>
      </trkpt>
      <trkpt lat="49.48204" lon="-1.56821">
        <ele>39.8</ele>
        <time>2019-04-23T13:04:36.000Z</time>
      </trkpt>
      <trkpt lat="49.48205" lon="-1.56822">
        <ele>39.8</ele>
        <time>2019-04-23T13:04:37.000Z</time>
      </trkpt>
      <trkpt lat="49.48206" lon="-1.56823">
        <ele>39.8</ele>
        <time>2019-04-23T13:04:38.000Z</time>
      </trkpt>
      <trkpt lat="49.48208" lon="-1.56824">
        <ele>39.7</ele>
        <time>2019-04-23T13:04:39.000Z</time>
      </trkpt>
      <trkpt lat="49.48209" lon="-1.56825">
        <ele>39.7</ele>
        <time>2019-04-23T13:04:40.000Z</time>
      </trkpt>
      <trkpt lat="49.4821" lon="-1.56826">
        <ele>39.7</ele>
        <time>2019-04-23T13:04:41.000Z</time>
      </trkpt>
      <trkpt lat="49.48211" lon="-1.56827">
        <ele>39.7</ele>
        <time>2019-04-23T13:04:42.000Z</time>
      </trkpt>
      <trkpt lat="49.48212" lon="-1.56828">
        <ele>39.6</ele>
        <time>2019-04-23T13:04:43.000Z</time>
      </trkpt>
      <trkpt lat="49.48214" lon="-1.56829">
        <ele>39.6</ele>
        <time>2019-04-23T13:04:44.000Z</time>
      </trkpt>
      <trkpt lat="49.48215" lon="-1.5683">
        <ele>39.6</ele>
        <time>2019-04-23T13:04:45.000Z</time>
      </trkpt>
      <trkpt lat="49.48216" lon="-1.56831">
        <ele>39.6</ele>
        <time>2019-04-23T13:04:46.000Z</time>
      </trkpt>
      <trkpt lat="49.48217" lon="-1.56832">
        <ele>39.5</ele>
        <time>2019-04-23T13:04:47.000Z</time>
      </trkpt>
      <trkpt lat="49.48218" lon="-1.56833">
        <ele>39.5</ele>
        <time>2019-04-23T13:04:48.000Z</time>
      </trkpt>
      <trkpt lat="49.48219" lon="-1.56834">
        <ele>39.5</ele>
        <time>2019-04-23T13:04:49.000Z</time>
      </trkpt>
      <trkpt lat="49.4822" lon="-1.56835">
        <ele>39.4</ele>
        <time>2019-04-23T13:04:50.000Z</time>
      </trkpt>
      <trkpt lat="49.48221" lon="-1.56836">
        <ele>39.4</ele>
        <time>2019-04-23T13:04:51.000Z</time>
      </trkpt>
      <trkpt lat="49.48222" lon="-1.56837">
        <ele>39.4</ele>
        <time>2019-04-23T13:04:52.000Z</time>
      </trkpt>
      <trkpt lat="49.48223" lon="-1.56838">
        <ele>39.3</ele>
        <time>2019-04-23T13:04:53.000Z</time>
      </trkpt>
      <trkpt lat="49.48224" lon="-1.56839">
        <ele>39.3</ele>
        <time>2019-04-23T13:04:54.000Z</time>
      </trkpt>
      <trkpt lat="49.48225" lon="-1.5684">
        <ele>39.2</ele>
        <time>2019-04-23T13:04:55.000Z</time>
      </trkpt>
      <trkpt lat="49.48226" lon="-1.56841">
        <ele>39.2</ele>
        <time>2019-04-23T13:04:56.000Z</time>
      </trkpt>
      <trkpt lat="49.48227" lon="-1.56842">
        <ele>39.2</ele>
        <time>2019-04-23T13:04:57.000Z</time>
      </trkpt>
      <trkpt lat="49.48228" lon="-1.56843">
        <ele>39.1</ele>
        <time>2019-04-23T13:04:58.000Z</time>
      </trkpt>
      <trkpt lat="49.48229" lon="-1.56844">
        <ele>39.1</ele>
        <time>2019-04-23T13:04:59.000Z</time>
      </trkpt>
      <trkpt lat="49.4823" lon="-1.56845">
        <ele>39</ele>
        <time>2019-04-23T13:05:00.000Z</time>
      </trkpt>
      <trkpt lat="49.48231" lon="-1.56846">
        <ele>39</ele>
        <time>2019-04-23T13:05:01.000Z</time>
      </trkpt>
      <trkpt lat="49.48232" lon="-1.56847">
        <ele>39</ele>
        <time>2019-04-23T13:05:02.000Z</time>
      </trkpt>
      <trkpt lat="49.48233" lon="-1.56848">
        <ele>38.9</ele>
        <time>2019-04-23T13:05:03.000Z</time>
      </trkpt>
      <trkpt lat="49.48234" lon="-1.56849">
        <ele>38.9</ele>
        <time>2019-04-23T13:05:04.000Z</time>
      </trkpt>
      <trkpt lat="49.48235" lon="-1.5685">
        <ele>38.9</ele>
        <time>2019-04-23T13:05:05.000Z</time>
      </trkpt>
      <trkpt lat="49.48236" lon="-1.56851">
        <ele>38.8</ele>
        <time>2019-04-23T13:05:06.000Z</time>
      </trkpt>
      <trkpt lat="49.48237" lon="-1.56852">
        <ele>38.8</ele>
        <time>2019-04-23T13:05:07.000Z</time>
      </trkpt>
      <trkpt lat="49.48238" lon="-1.56853">
        <ele>38.7</ele>
        <time>2019-04-23T13:05:08.000Z</time>
      </trkpt>
      <trkpt lat="49.4824" lon="-1.56854">
        <ele>38.7</ele>
        <time>2019-04-23T13:05:09.000Z</time>
      </trkpt>
      <trkpt lat="49.48241" lon="-1.56855">
        <ele>38.6</ele>
        <time>2019-04-23T13:05:10.000Z</time>
      </trkpt>
      <trkpt lat="49.48242" lon="-1.56856">
        <ele>38.6</ele>
        <time>2019-04-23T13:05:11.000Z</time>
      </trkpt>
      <trkpt lat="49.48243" lon="-1.56857">
        <ele>38.6</ele>
        <time>2019-04-23T13:05:12.000Z</time>
      </trkpt>
      <trkpt lat="49.48244" lon="-1.56858">
        <ele>38.5</ele>
        <time>2019-04-23T13:05:13.000Z</time>
      </trkpt>
      <trkpt lat="49.48245" lon="-1.56859">
        <ele>38.5</ele>
        <time>2019-04-23T13:05:14.000Z</time>
      </trkpt>
      <trkpt lat="49.48246" lon="-1.5686">
        <ele>38.5</ele>
        <time>2019-04-23T13:05:15.000Z</time>
      </trkpt>
      <trkpt lat="49.48247" lon="-1.56861">
        <ele>38.4</ele>
        <time>2019-04-23T13:05:16.000Z</time>
      </trkpt>
      <trkpt lat="49.48248" lon="-1.56861">
        <ele>38.4</ele>
        <time>2019-04-23T13:05:17.000Z</time>
      </trkpt>
      <trkpt lat="49.48249" lon="-1.56862">
        <ele>38.4</ele>
        <time>2019-04-23T13:05:18.000Z</time>
      </trkpt>
      <trkpt lat="49.4825" lon="-1.56863">
        <ele>38.4</ele>
        <time>2019-04-23T13:05:19.000Z</time>
      </trkpt>
      <trkpt lat="49.48252" lon="-1.56864">
        <ele>38.4</ele>
        <time>2019-04-23T13:05:20.000Z</time>
      </trkpt>
      <trkpt lat="49.48253" lon="-1.56865">
        <ele>38.4</ele>
        <time>2019-04-23T13:05:21.000Z</time>
      </trkpt>
      <trkpt lat="49.48254" lon="-1.56866">
        <ele>38.4</ele>
        <time>2019-04-23T13:05:22.000Z</time>
      </trkpt>
      <trkpt lat="49.48255" lon="-1.56867">
        <ele>38.4</ele>
        <time>2019-04-23T13:05:23.000Z</time>
      </trkpt>
      <trkpt lat="49.48256" lon="-1.56868">
        <ele>38.4</ele>
        <time>2019-04-23T13:05:24.000Z</time>
      </trkpt>
      <trkpt lat="49.48257" lon="-1.56869">
        <ele>38.5</ele>
        <time>2019-04-23T13:05:25.000Z</time>
      </trkpt>
      <trkpt lat="49.48258" lon="-1.5687">
        <ele>38.5</ele>
        <time>2019-04-23T13:05:26.000Z</time>
      </trkpt>
      <trkpt lat="49.48259" lon="-1.56871">
        <ele>38.5</ele>
        <time>2019-04-23T13:05:27.000Z</time>
      </trkpt>
      <trkpt lat="49.4826" lon="-1.56872">
        <ele>38.5</ele>
        <time>2019-04-23T13:05:28.000Z</time>
      </trkpt>
      <trkpt lat="49.48261" lon="-1.56873">
        <ele>38.5</ele>
        <time>2019-04-23T13:05:29.000Z</time>
      </trkpt>
      <trkpt lat="49.48262" lon="-1.56873">
        <ele>38.5</ele>
        <time>2019-04-23T13:05:30.000Z</time>
      </trkpt>
      <trkpt lat="49.48263" lon="-1.56874">
        <ele>38.6</ele>
        <time>2019-04-23T13:05:31.000Z</time>
      </trkpt>
      <trkpt lat="49.48264" lon="-1.56875">
        <ele>38.6</ele>
        <time>2019-04-23T13:05:32.000Z</time>
      </trkpt>
      <trkpt lat="49.48265" lon="-1.56876">
        <ele>38.6</ele>
        <time>2019-04-23T13:05:33.000Z</time>
      </trkpt>
      <trkpt lat="49.48266" lon="-1.56877">
        <ele>38.6</ele>
        <time>2019-04-23T13:05:34.000Z</time>
      </trkpt>
      <trkpt lat="49.48267" lon="-1.56878">
        <ele>38.6</ele>
        <time>2019-04-23T13:05:35.000Z</time>
      </trkpt>
      <trkpt lat="49.48268" lon="-1.56879">
        <ele>38.7</ele>
        <time>2019-04-23T13:05:36.000Z</time>
      </trkpt>
      <trkpt lat="49.48269" lon="-1.5688">
        <ele>38.7</ele>
        <time>2019-04-23T13:05:37.000Z</time>
      </trkpt>
      <trkpt lat="49.4827" lon="-1.56881">
        <ele>38.7</ele>
        <time>2019-04-23T13:05:38.000Z</time>
      </trkpt>
      <trkpt lat="49.48271" lon="-1.56882">
        <ele>38.7</ele>
        <time>2019-04-23T13:05:39.000Z</time>
      </trkpt>
      <trkpt lat="49.48272" lon="-1.56883">
        <ele>38.8</ele>
        <time>2019-04-23T13:05:40.000Z</time>
      </trkpt>
      <trkpt lat="49.48273" lon="-1.56884">
        <ele>38.8</ele>
        <time>2019-04-23T13:05:41.000Z</time>
      </trkpt>
      <trkpt lat="49.48274" lon="-1.56885">
        <ele>38.8</ele>
        <time>2019-04-23T13:05:42.000Z</time>
      </trkpt>
      <trkpt lat="49.48275" lon="-1.56886">
        <ele>38.8</ele>
        <time>2019-04-23T13:05:43.000Z</time>
      </trkpt>
      <trkpt lat="49.48277" lon="-1.56887">
        <ele>38.8</ele>
        <time>2019-04-23T13:05:44.000Z</time>
      </trkpt>
      <trkpt lat="49.48278" lon="-1.56888">
        <ele>38.9</ele>
        <time>2019-04-23T13:05:45.000Z</time>
      </trkpt>
      <trkpt lat="49.48279" lon="-1.56889">
        <ele>38.9</ele>
        <time>2019-04-23T13:05:46.000Z</time>
      </trkpt>
      <trkpt lat="49.4828" lon="-1.5689">
        <ele>38.9</ele>
        <time>2019-04-23T13:05:47.000Z</time>
      </trkpt>
      <trkpt lat="49.48281" lon="-1.56891">
        <ele>38.9</ele>
        <time>2019-04-23T13:05:48.000Z</time>
      </trkpt>
      <trkpt lat="49.48282" lon="-1.56892">
        <ele>39</ele>
        <time>2019-04-23T13:05:49.000Z</time>
      </trkpt>
      <trkpt lat="49.48283" lon="-1.56893">
        <ele>39</ele>
        <time>2019-04-23T13:05:50.000Z</time>
      </trkpt>
      <trkpt lat="49.48284" lon="-1.56894">
        <ele>39</ele>
        <time>2019-04-23T13:05:51.000Z</time>
      </trkpt>
      <trkpt lat="49.48285" lon="-1.56895">
        <ele>39</ele>
        <time>2019-04-23T13:05:52.000Z</time>
      </trkpt>
      <trkpt lat="49.48286" lon="-1.56896">
        <ele>39.1</ele>
        <time>2019-04-23T13:05:53.000Z</time>
      </trkpt>
      <trkpt lat="49.48287" lon="-1.56897">
        <ele>39.1</ele>
        <time>2019-04-23T13:05:54.000Z</time>
      </trkpt>
      <trkpt lat="49.48288" lon="-1.56898">
        <ele>39.1</ele>
        <time>2019-04-23T13:05:55.000Z</time>
      </trkpt>
      <trkpt lat="49.48289" lon="-1.56899">
        <ele>39.2</ele>
        <time>2019-04-23T13:05:56.000Z</time>
      </trkpt>
      <trkpt lat="49.4829" lon="-1.569">
        <ele>39.2</ele>
        <time>2019-04-23T13:05:57.000Z</time>
      </trkpt>
      <trkpt lat="49.48291" lon="-1.56901">
        <ele>39.2</ele>
        <time>2019-04-23T13:05:58.000Z</time>
      </trkpt>
      <trkpt lat="49.48292" lon="-1.56902">
        <ele>39.2</ele>
        <time>2019-04-23T13:05:59.000Z</time>
      </trkpt>
      <trkpt lat="49.48293" lon="-1.56903">
        <ele>39.3</ele>
        <time>2019-04-23T13:06:00.000Z</time>
      </trkpt>
      <trkpt lat="49.48294" lon="-1.56905">
        <ele>39.3</ele>
        <time>2019-04-23T13:06:01.000Z</time>
      </trkpt>
      <trkpt lat="49.48295" lon="-1.56906">
        <ele>39.3</ele>
        <time>2019-04-23T13:06:02.000Z</time>
      </trkpt>
      <trkpt lat="49.48296" lon="-1.56907">
        <ele>39.4</ele>
        <time>2019-04-23T13:06:03.000Z</time>
      </trkpt>
      <trkpt lat="49.48297" lon="-1.56908">
        <ele>39.4</ele>
        <time>2019-04-23T13:06:04.000Z</time>
      </trkpt>
      <trkpt lat="49.48298" lon="-1.56909">
        <ele>39.4</ele>
        <time>2019-04-23T13:06:05.000Z</time>
      </trkpt>
      <trkpt lat="49.48299" lon="-1.5691">
        <ele>39.5</ele>
        <time>2019-04-23T13:06:06.000Z</time>
      </trkpt>
      <trkpt lat="49.483" lon="-1.56911">
        <ele>39.5</ele>
        <time>2019-04-23T13:06:07.000Z</time>
      </trkpt>
      <trkpt lat="49.48301" lon="-1.56912">
        <ele>39.5</ele>
        <time>2019-04-23T13:06:08.000Z</time>
      </trkpt>
      <trkpt lat="49.48302" lon="-1.56913">
        <ele>39.6</ele>
        <time>2019-04-23T13:06:09.000Z</time>
      </trkpt>
      <trkpt lat="49.48303" lon="-1.56915">
        <ele>39.6</ele>
        <time>2019-04-23T13:06:10.000Z</time>
      </trkpt>
      <trkpt lat="49.48304" lon="-1.56916">
        <ele>39.6</ele>
        <time>2019-04-23T13:06:11.000Z</time>
      </trkpt>
      <trkpt lat="49.48305" lon="-1.56917">
        <ele>39.7</ele>
        <time>2019-04-23T13:06:12.000Z</time>
      </trkpt>
      <trkpt lat="49.48306" lon="-1.56918">
        <ele>39.7</ele>
        <time>2019-04-23T13:06:13.000Z</time>
      </trkpt>
      <trkpt lat="49.48307" lon="-1.56919">
        <ele>39.7</ele>
        <time>2019-04-23T13:06:14.000Z</time>
      </trkpt>
      <trkpt lat="49.48308" lon="-1.5692">
        <ele>39.7</ele>
        <time>2019-04-23T13:06:15.000Z</time>
      </trkpt>
      <trkpt lat="49.48309" lon="-1.56922">
        <ele>39.8</ele>
        <time>2019-04-23T13:06:16.000Z</time>
      </trkpt>
      <trkpt lat="49.4831" lon="-1.56923">
        <ele>39.8</ele>
        <time>2019-04-23T13:06:17.000Z</time>
      </trkpt>
      <trkpt lat="49.48311" lon="-1.56924">
        <ele>39.8</ele>
        <time>2019-04-23T13:06:18.000Z</time>
      </trkpt>
      <trkpt lat="49.48312" lon="-1.56925">
        <ele>39.8</ele>
        <time>2019-04-23T13:06:19.000Z</time>
      </trkpt>
      <trkpt lat="49.48313" lon="-1.56926">
        <ele>39.9</ele>
        <time>2019-04-23T13:06:20.000Z</time>
      </trkpt>
      <trkpt lat="49.48314" lon="-1.56927">
        <ele>39.9</ele>
        <time>2019-04-23T13:06:21.000Z</time>
      </trkpt>
      <trkpt lat="49.48315" lon="-1.56928">
        <ele>39.9</ele>
        <time>2019-04-23T13:06:22.000Z</time>
      </trkpt>
      <trkpt lat="49.48316" lon="-1.5693">
        <ele>39.9</ele>
        <time>2019-04-23T13:06:23.000Z</time>
      </trkpt>
      <trkpt lat="49.48317" lon="-1.56931">
        <ele>40</ele>
        <time>2019-04-23T13:06:24.000Z</time>
      </trkpt>
      <trkpt lat="49.48318" lon="-1.56932">
        <ele>40</ele>
        <time>2019-04-23T13:06:25.000Z</time>
      </trkpt>
      <trkpt lat="49.48319" lon="-1.56933">
        <ele>40</ele>
        <time>2019-04-23T13:06:26.000Z</time>
      </trkpt>
      <trkpt lat="49.4832" lon="-1.56934">
        <ele>40</ele>
        <time>2019-04-23T13:06:27.000Z</time>
      </trkpt>
      <trkpt lat="49.48321" lon="-1.56935">
        <ele>40.1</ele>
        <time>2019-04-23T13:06:28.000Z</time>
      </trkpt>
      <trkpt lat="49.48321" lon="-1.56936">
        <ele>40.1</ele>
        <time>2019-04-23T13:06:29.000Z</time>
      </trkpt>
      <trkpt lat="49.48322" lon="-1.56938">
        <ele>40.1</ele>
        <time>2019-04-23T13:06:30.000Z</time>
      </trkpt>
      <trkpt lat="49.48323" lon="-1.56939">
        <ele>40.1</ele>
        <time>2019-04-23T13:06:31.000Z</time>
      </trkpt>
      <trkpt lat="49.48324" lon="-1.5694">
        <ele>40.2</ele>
        <time>2019-04-23T13:06:32.000Z</time>
      </trkpt>
      <trkpt lat="49.48325" lon="-1.56941">
        <ele>40.2</ele>
        <time>2019-04-23T13:06:33.000Z</time>
      </trkpt>
      <trkpt lat="49.48326" lon="-1.56942">
        <ele>40.2</ele>
        <time>2019-04-23T13:06:34.000Z</time>
      </trkpt>
      <trkpt lat="49.48327" lon="-1.56943">
        <ele>40.2</ele>
        <time>2019-04-23T13:06:35.000Z</time>
      </trkpt>
      <trkpt lat="49.48328" lon="-1.56945">
        <ele>40.3</ele>
        <time>2019-04-23T13:06:36.000Z</time>
      </trkpt>
      <trkpt lat="49.48329" lon="-1.56946">
        <ele>40.3</ele>
        <time>2019-04-23T13:06:37.000Z</time>
      </trkpt>
      <trkpt lat="49.4833" lon="-1.56947">
        <ele>40.3</ele>
        <time>2019-04-23T13:06:38.000Z</time>
      </trkpt>
      <trkpt lat="49.48331" lon="-1.56948">
        <ele>40.3</ele>
        <time>2019-04-23T13:06:39.000Z</time>
      </trkpt>
      <trkpt lat="49.48332" lon="-1.56949">
        <ele>40.4</ele>
        <time>2019-04-23T13:06:40.000Z</time>
      </trkpt>
      <trkpt lat="49.48333" lon="-1.56951">
        <ele>40.4</ele>
        <time>2019-04-23T13:06:41.000Z</time>
      </trkpt>
      <trkpt lat="49.48334" lon="-1.56952">
        <ele>40.4</ele>
        <time>2019-04-23T13:06:42.000Z</time>
      </trkpt>
      <trkpt lat="49.48334" lon="-1.56953">
        <ele>40.4</ele>
        <time>2019-04-23T13:06:43.000Z</time>
      </trkpt>
      <trkpt lat="49.48335" lon="-1.56954">
        <ele>40.5</ele>
        <time>2019-04-23T13:06:44.000Z</time>
      </trkpt>
      <trkpt lat="49.48336" lon="-1.56956">
        <ele>40.5</ele>
        <time>2019-04-23T13:06:45.000Z</time>
      </trkpt>
      <trkpt lat="49.48337" lon="-1.56957">
        <ele>40.5</ele>
        <time>2019-04-23T13:06:46.000Z</time>
      </trkpt>
      <trkpt lat="49.48338" lon="-1.56958">
        <ele>40.5</ele>
        <time>2019-04-23T13:06:47.000Z</time>
      </trkpt>
      <trkpt lat="49.48339" lon="-1.56959">
        <ele>40.5</ele>
        <time>2019-04-23T13:06:48.000Z</time>
      </trkpt>
      <trkpt lat="49.4834" lon="-1.56961">
        <ele>40.5</ele>
        <time>2019-04-23T13:06:49.000Z</time>
      </trkpt>
      <trkpt lat="49.4834" lon="-1.56962">
        <ele>40.5</ele>
        <time>2019-04-23T13:06:50.000Z</time>
      </trkpt>
      <trkpt lat="49.48341" lon="-1.56963">
        <ele>40.6</ele>
        <time>2019-04-23T13:06:51.000Z</time>
      </trkpt>
      <trkpt lat="49.48342" lon="-1.56965">
        <ele>40.6</ele>
        <time>2019-04-23T13:06:52.000Z</time>
      </trkpt>
      <trkpt lat="49.48343" lon="-1.56966">
        <ele>40.6</ele>
        <time>2019-04-23T13:06:53.000Z</time>
      </trkpt>
      <trkpt lat="49.48344" lon="-1.56967">
        <ele>40.6</ele>
        <time>2019-04-23T13:06:54.000Z</time>
      </trkpt>
      <trkpt lat="49.48345" lon="-1.56968">
        <ele>40.6</ele>
        <time>2019-04-23T13:06:55.000Z</time>
      </trkpt>
      <trkpt lat="49.48346" lon="-1.5697">
        <ele>40.6</ele>
        <time>2019-04-23T13:06:56.000Z</time>
      </trkpt>
      <trkpt lat="49.48347" lon="-1.56971">
        <ele>40.7</ele>
        <time>2019-04-23T13:06:57.000Z</time>
      </trkpt>
      <trkpt lat="49.48347" lon="-1.56973">
        <ele>40.7</ele>
        <time>2019-04-23T13:06:58.000Z</time>
      </trkpt>
      <trkpt lat="49.48348" lon="-1.56974">
        <ele>40.7</ele>
        <time>2019-04-23T13:06:59.000Z</time>
      </trkpt>
      <trkpt lat="49.48349" lon="-1.56975">
        <ele>40.7</ele>
        <time>2019-04-23T13:07:00.000Z</time>
      </trkpt>
      <trkpt lat="49.48349" lon="-1.56977">
        <ele>40.7</ele>
        <time>2019-04-23T13:07:01.000Z</time>
      </trkpt>
      <trkpt lat="49.4835" lon="-1.56978">
        <ele>40.7</ele>
        <time>2019-04-23T13:07:02.000Z</time>
      </trkpt>
      <trkpt lat="49.4835" lon="-1.56979">
        <ele>40.7</ele>
        <time>2019-04-23T13:07:03.000Z</time>
      </trkpt>
      <trkpt lat="49.4835" lon="-1.5698">
        <ele>40.8</ele>
        <time>2019-04-23T13:07:04.000Z</time>
      </trkpt>
      <trkpt lat="49.4835" lon="-1.56982">
        <ele>40.8</ele>
        <time>2019-04-23T13:07:05.000Z</time>
      </trkpt>
      <trkpt lat="49.48349" lon="-1.56983">
        <ele>40.8</ele>
        <time>2019-04-23T13:07:06.000Z</time>
      </trkpt>
      <trkpt lat="49.48349" lon="-1.56984">
        <ele>40.8</ele>
        <time>2019-04-23T13:07:07.000Z</time>
      </trkpt>
      <trkpt lat="49.48348" lon="-1.56985">
        <ele>40.8</ele>
        <time>2019-04-23T13:07:08.000Z</time>
      </trkpt>
      <trkpt lat="49.48348" lon="-1.56986">
        <ele>40.8</ele>
        <time>2019-04-23T13:07:09.000Z</time>
      </trkpt>
      <trkpt lat="49.48347" lon="-1.56987">
        <ele>40.8</ele>
        <time>2019-04-23T13:07:10.000Z</time>
      </trkpt>
      <trkpt lat="49.48346" lon="-1.56988">
        <ele>40.9</ele>
        <time>2019-04-23T13:07:11.000Z</time>
      </trkpt>
      <trkpt lat="49.48346" lon="-1.56989">
        <ele>40.9</ele>
        <time>2019-04-23T13:07:12.000Z</time>
      </trkpt>
      <trkpt lat="49.48345" lon="-1.5699">
        <ele>40.9</ele>
        <time>2019-04-23T13:07:13.000Z</time>
      </trkpt>
      <trkpt lat="49.48344" lon="-1.56991">
        <ele>40.9</ele>
        <time>2019-04-23T13:07:14.000Z</time>
      </trkpt>
      <trkpt lat="49.48343" lon="-1.56992">
        <ele>40.9</ele>
        <time>2019-04-23T13:07:15.000Z</time>
      </trkpt>
      <trkpt lat="49.48342" lon="-1.56993">
        <ele>40.9</ele>
        <time>2019-04-23T13:07:16.000Z</time>
      </trkpt>
      <trkpt lat="49.48342" lon="-1.56994">
        <ele>40.9</ele>
        <time>2019-04-23T13:07:17.000Z</time>
      </trkpt>
      <trkpt lat="49.48341" lon="-1.56995">
        <ele>40.9</ele>
        <time>2019-04-23T13:07:18.000Z</time>
      </trkpt>
      <trkpt lat="49.4834" lon="-1.56996">
        <ele>41</ele>
        <time>2019-04-23T13:07:19.000Z</time>
      </trkpt>
      <trkpt lat="49.48339" lon="-1.56997">
        <ele>41</ele>
        <time>2019-04-23T13:07:20.000Z</time>
      </trkpt>
      <trkpt lat="49.48338" lon="-1.56998">
        <ele>41</ele>
        <time>2019-04-23T13:07:21.000Z</time>
      </trkpt>
      <trkpt lat="49.48337" lon="-1.56999">
        <ele>41</ele>
        <time>2019-04-23T13:07:22.000Z</time>
      </trkpt>
      <trkpt lat="49.48337" lon="-1.57">
        <ele>41</ele>
        <time>2019-04-23T13:07:23.000Z</time>
      </trkpt>
      <trkpt lat="49.48336" lon="-1.57001">
        <ele>41</ele>
        <time>2019-04-23T13:07:24.000Z</time>
      </trkpt>
      <trkpt lat="49.48335" lon="-1.57002">
        <ele>41</ele>
        <time>2019-04-23T13:07:25.000Z</time>
      </trkpt>
      <trkpt lat="49.48334" lon="-1.57004">
        <ele>41</ele>
        <time>2019-04-23T13:07:26.000Z</time>
      </trkpt>
      <trkpt lat="49.48333" lon="-1.57005">
        <ele>40.9</ele>
        <time>2019-04-23T13:07:27.000Z</time>
      </trkpt>
      <trkpt lat="49.48332" lon="-1.57006">
        <ele>40.9</ele>
        <time>2019-04-23T13:07:28.000Z</time>
      </trkpt>
      <trkpt lat="49.48332" lon="-1.57007">
        <ele>40.9</ele>
        <time>2019-04-23T13:07:29.000Z</time>
      </trkpt>
      <trkpt lat="49.48331" lon="-1.57008">
        <ele>40.9</ele>
        <time>2019-04-23T13:07:30.000Z</time>
      </trkpt>
      <trkpt lat="49.4833" lon="-1.5701">
        <ele>40.9</ele>
        <time>2019-04-23T13:07:31.000Z</time>
      </trkpt>
      <trkpt lat="49.48329" lon="-1.57011">
        <ele>40.8</ele>
        <time>2019-04-23T13:07:32.000Z</time>
      </trkpt>
      <trkpt lat="49.48329" lon="-1.57012">
        <ele>40.8</ele>
        <time>2019-04-23T13:07:33.000Z</time>
      </trkpt>
      <trkpt lat="49.48328" lon="-1.57014">
        <ele>40.8</ele>
        <time>2019-04-23T13:07:34.000Z</time>
      </trkpt>
      <trkpt lat="49.48327" lon="-1.57015">
        <ele>40.8</ele>
        <time>2019-04-23T13:07:35.000Z</time>
      </trkpt>
      <trkpt lat="49.48326" lon="-1.57016">
        <ele>40.8</ele>
        <time>2019-04-23T13:07:36.000Z</time>
      </trkpt>
      <trkpt lat="49.48326" lon="-1.57018">
        <ele>40.7</ele>
        <time>2019-04-23T13:07:37.000Z</time>
      </trkpt>
      <trkpt lat="49.48325" lon="-1.57019">
        <ele>40.7</ele>
        <time>2019-04-23T13:07:38.000Z</time>
      </trkpt>
      <trkpt lat="49.48324" lon="-1.57021">
        <ele>40.7</ele>
        <time>2019-04-23T13:07:39.000Z</time>
      </trkpt>
      <trkpt lat="49.48324" lon="-1.57022">
        <ele>40.7</ele>
        <time>2019-04-23T13:07:40.000Z</time>
      </trkpt>
      <trkpt lat="49.48323" lon="-1.57024">
        <ele>40.7</ele>
        <time>2019-04-23T13:07:41.000Z</time>
      </trkpt>
      <trkpt lat="49.48322" lon="-1.57026">
        <ele>40.6</ele>
        <time>2019-04-23T13:07:42.000Z</time>
      </trkpt>
      <trkpt lat="49.48322" lon="-1.57027">
        <ele>40.6</ele>
        <time>2019-04-23T13:07:43.000Z</time>
      </trkpt>
      <trkpt lat="49.48321" lon="-1.57029">
        <ele>40.6</ele>
        <time>2019-04-23T13:07:44.000Z</time>
      </trkpt>
      <trkpt lat="49.48321" lon="-1.5703">
        <ele>40.6</ele>
        <time>2019-04-23T13:07:45.000Z</time>
      </trkpt>
      <trkpt lat="49.4832" lon="-1.57032">
        <ele>40.6</ele>
        <time>2019-04-23T13:07:46.000Z</time>
      </trkpt>
      <trkpt lat="49.48319" lon="-1.57033">
        <ele>40.6</ele>
        <time>2019-04-23T13:07:47.000Z</time>
      </trkpt>
      <trkpt lat="49.48319" lon="-1.57035">
        <ele>40.6</ele>
        <time>2019-04-23T13:07:48.000Z</time>
      </trkpt>
      <trkpt lat="49.48318" lon="-1.57036">
        <ele>40.5</ele>
        <time>2019-04-23T13:07:49.000Z</time>
      </trkpt>
      <trkpt lat="49.48318" lon="-1.57038">
        <ele>40.5</ele>
        <time>2019-04-23T13:07:50.000Z</time>
      </trkpt>
      <trkpt lat="49.48317" lon="-1.57039">
        <ele>40.5</ele>
        <time>2019-04-23T13:07:51.000Z</time>
      </trkpt>
      <trkpt lat="49.48316" lon="-1.57041">
        <ele>40.5</ele>
        <time>2019-04-23T13:07:52.000Z</time>
      </trkpt>
      <trkpt lat="49.48316" lon="-1.57042">
        <ele>40.5</ele>
        <time>2019-04-23T13:07:53.000Z</time>
      </trkpt>
      <trkpt lat="49.48315" lon="-1.57043">
        <ele>40.5</ele>
        <time>2019-04-23T13:07:54.000Z</time>
      </trkpt>
      <trkpt lat="49.48315" lon="-1.57045">
        <ele>40.5</ele>
        <time>2019-04-23T13:07:55.000Z</time>
      </trkpt>
      <trkpt lat="49.48314" lon="-1.57046">
        <ele>40.5</ele>
        <time>2019-04-23T13:07:56.000Z</time>
      </trkpt>
      <trkpt lat="49.48313" lon="-1.57048">
        <ele>40.5</ele>
        <time>2019-04-23T13:07:57.000Z</time>
      </trkpt>
      <trkpt lat="49.48312" lon="-1.57049">
        <ele>40.5</ele>
        <time>2019-04-23T13:07:58.000Z</time>
      </trkpt>
      <trkpt lat="49.48312" lon="-1.57051">
        <ele>40.4</ele>
        <time>2019-04-23T13:07:59.000Z</time>
      </trkpt>
      <trkpt lat="49.48311" lon="-1.57052">
        <ele>40.4</ele>
        <time>2019-04-23T13:08:00.000Z</time>
      </trkpt>
      <trkpt lat="49.4831" lon="-1.57053">
        <ele>40.4</ele>
        <time>2019-04-23T13:08:01.000Z</time>
      </trkpt>
      <trkpt lat="49.48309" lon="-1.57055">
        <ele>40.4</ele>
        <time>2019-04-23T13:08:02.000Z</time>
      </trkpt>
      <trkpt lat="49.48308" lon="-1.57056">
        <ele>40.4</ele>
        <time>2019-04-23T13:08:03.000Z</time>
      </trkpt>
      <trkpt lat="49.48307" lon="-1.57058">
        <ele>40.4</ele>
        <time>2019-04-23T13:08:04.000Z</time>
      </trkpt>
      <trkpt lat="49.48306" lon="-1.57059">
        <ele>40.4</ele>
        <time>2019-04-23T13:08:05.000Z</time>
      </trkpt>
      <trkpt lat="49.48305" lon="-1.57061">
        <ele>40.4</ele>
        <time>2019-04-23T13:08:06.000Z</time>
      </trkpt>
      <trkpt lat="49.48304" lon="-1.57062">
        <ele>40.4</ele>
        <time>2019-04-23T13:08:07.000Z</time>
      </trkpt>
      <trkpt lat="49.48303" lon="-1.57064">
        <ele>40.4</ele>
        <time>2019-04-23T13:08:08.000Z</time>
      </trkpt>
      <trkpt lat="49.48302" lon="-1.57065">
        <ele>40.4</ele>
        <time>2019-04-23T13:08:09.000Z</time>
      </trkpt>
      <trkpt lat="49.48301" lon="-1.57067">
        <ele>40.4</ele>
        <time>2019-04-23T13:08:10.000Z</time>
      </trkpt>
      <trkpt lat="49.483" lon="-1.57068">
        <ele>40.4</ele>
        <time>2019-04-23T13:08:11.000Z</time>
      </trkpt>
      <trkpt lat="49.48299" lon="-1.5707">
        <ele>40.4</ele>
        <time>2019-04-23T13:08:12.000Z</time>
      </trkpt>
      <trkpt lat="49.48298" lon="-1.57071">
        <ele>40.4</ele>
        <time>2019-04-23T13:08:13.000Z</time>
      </trkpt>
      <trkpt lat="49.48298" lon="-1.57073">
        <ele>40.4</ele>
        <time>2019-04-23T13:08:14.000Z</time>
      </trkpt>
      <trkpt lat="49.48297" lon="-1.57074">
        <ele>40.5</ele>
        <time>2019-04-23T13:08:15.000Z</time>
      </trkpt>
      <trkpt lat="49.48296" lon="-1.57076">
        <ele>40.5</ele>
        <time>2019-04-23T13:08:16.000Z</time>
      </trkpt>
      <trkpt lat="49.48296" lon="-1.57078">
        <ele>40.5</ele>
        <time>2019-04-23T13:08:17.000Z</time>
      </trkpt>
      <trkpt lat="49.48296" lon="-1.57079">
        <ele>40.5</ele>
        <time>2019-04-23T13:08:18.000Z</time>
      </trkpt>
      <trkpt lat="49.48295" lon="-1.57081">
        <ele>40.5</ele>
        <time>2019-04-23T13:08:19.000Z</time>
      </trkpt>
      <trkpt lat="49.48294" lon="-1.57082">
        <ele>40.5</ele>
        <time>2019-04-23T13:08:20.000Z</time>
      </trkpt>
      <trkpt lat="49.48294" lon="-1.57084">
        <ele>40.5</ele>
        <time>2019-04-23T13:08:21.000Z</time>
      </trkpt>
      <trkpt lat="49.48293" lon="-1.57086">
        <ele>40.5</ele>
        <time>2019-04-23T13:08:22.000Z</time>
      </trkpt>
      <trkpt lat="49.48292" lon="-1.57087">
        <ele>40.5</ele>
        <time>2019-04-23T13:08:23.000Z</time>
      </trkpt>
      <trkpt lat="49.48292" lon="-1.57089">
        <ele>40.5</ele>
        <time>2019-04-23T13:08:24.000Z</time>
      </trkpt>
      <trkpt lat="49.48291" lon="-1.5709">
        <ele>40.5</ele>
        <time>2019-04-23T13:08:25.000Z</time>
      </trkpt>
      <trkpt lat="49.4829" lon="-1.57092">
        <ele>40.5</ele>
        <time>2019-04-23T13:08:26.000Z</time>
      </trkpt>
      <trkpt lat="49.48289" lon="-1.57093">
        <ele>40.5</ele>
        <time>2019-04-23T13:08:27.000Z</time>
      </trkpt>
      <trkpt lat="49.48289" lon="-1.57095">
        <ele>40.6</ele>
        <time>2019-04-23T13:08:28.000Z</time>
      </trkpt>
      <trkpt lat="49.48288" lon="-1.57097">
        <ele>40.6</ele>
        <time>2019-04-23T13:08:29.000Z</time>
      </trkpt>
      <trkpt lat="49.48288" lon="-1.57098">
        <ele>40.6</ele>
        <time>2019-04-23T13:08:30.000Z</time>
      </trkpt>
      <trkpt lat="49.48287" lon="-1.571">
        <ele>40.6</ele>
        <time>2019-04-23T13:08:31.000Z</time>
      </trkpt>
      <trkpt lat="49.48287" lon="-1.57102">
        <ele>40.6</ele>
        <time>2019-04-23T13:08:32.000Z</time>
      </trkpt>
      <trkpt lat="49.48286" lon="-1.57104">
        <ele>40.6</ele>
        <time>2019-04-23T13:08:33.000Z</time>
      </trkpt>
      <trkpt lat="49.48286" lon="-1.57106">
        <ele>40.6</ele>
        <time>2019-04-23T13:08:34.000Z</time>
      </trkpt>
      <trkpt lat="49.48286" lon="-1.57108">
        <ele>40.7</ele>
        <time>2019-04-23T13:08:35.000Z</time>
      </trkpt>
      <trkpt lat="49.48286" lon="-1.5711">
        <ele>40.7</ele>
        <time>2019-04-23T13:08:36.000Z</time>
      </trkpt>
      <trkpt lat="49.48286" lon="-1.57112">
        <ele>40.7</ele>
        <time>2019-04-23T13:08:37.000Z</time>
      </trkpt>
      <trkpt lat="49.48285" lon="-1.57113">
        <ele>40.7</ele>
        <time>2019-04-23T13:08:38.000Z</time>
      </trkpt>
      <trkpt lat="49.48285" lon="-1.57115">
        <ele>40.7</ele>
        <time>2019-04-23T13:08:39.000Z</time>
      </trkpt>
      <trkpt lat="49.48285" lon="-1.57117">
        <ele>40.7</ele>
        <time>2019-04-23T13:08:40.000Z</time>
      </trkpt>
      <trkpt lat="49.48285" lon="-1.57119">
        <ele>40.7</ele>
        <time>2019-04-23T13:08:41.000Z</time>
      </trkpt>
      <trkpt lat="49.48285" lon="-1.57121">
        <ele>40.7</ele>
        <time>2019-04-23T13:08:42.000Z</time>
      </trkpt>
      <trkpt lat="49.48285" lon="-1.57123">
        <ele>40.7</ele>
        <time>2019-04-23T13:08:43.000Z</time>
      </trkpt>
      <trkpt lat="49.48285" lon="-1.57124">
        <ele>40.7</ele>
        <time>2019-04-23T13:08:44.000Z</time>
      </trkpt>
      <trkpt lat="49.48285" lon="-1.57126">
        <ele>40.8</ele>
        <time>2019-04-23T13:08:45.000Z</time>
      </trkpt>
      <trkpt lat="49.48285" lon="-1.57128">
        <ele>40.8</ele>
        <time>2019-04-23T13:08:46.000Z</time>
      </trkpt>
      <trkpt lat="49.48284" lon="-1.57129">
        <ele>40.8</ele>
        <time>2019-04-23T13:08:47.000Z</time>
      </trkpt>
      <trkpt lat="49.48284" lon="-1.57131">
        <ele>40.8</ele>
        <time>2019-04-23T13:08:48.000Z</time>
      </trkpt>
      <trkpt lat="49.48284" lon="-1.57133">
        <ele>40.8</ele>
        <time>2019-04-23T13:08:49.000Z</time>
      </trkpt>
      <trkpt lat="49.48284" lon="-1.57134">
        <ele>40.8</ele>
        <time>2019-04-23T13:08:50.000Z</time>
      </trkpt>
      <trkpt lat="49.48284" lon="-1.57136">
        <ele>40.8</ele>
        <time>2019-04-23T13:08:51.000Z</time>
      </trkpt>
      <trkpt lat="49.48284" lon="-1.57138">
        <ele>40.8</ele>
        <time>2019-04-23T13:08:52.000Z</time>
      </trkpt>
      <trkpt lat="49.48284" lon="-1.57139">
        <ele>40.8</ele>
        <time>2019-04-23T13:08:53.000Z</time>
      </trkpt>
      <trkpt lat="49.48284" lon="-1.57141">
        <ele>40.9</ele>
        <time>2019-04-23T13:08:54.000Z</time>
      </trkpt>
      <trkpt lat="49.48284" lon="-1.57143">
        <ele>40.9</ele>
        <time>2019-04-23T13:08:55.000Z</time>
      </trkpt>
      <trkpt lat="49.48283" lon="-1.57144">
        <ele>40.9</ele>
        <time>2019-04-23T13:08:56.000Z</time>
      </trkpt>
      <trkpt lat="49.48283" lon="-1.57146">
        <ele>40.9</ele>
        <time>2019-04-23T13:08:57.000Z</time>
      </trkpt>
      <trkpt lat="49.48283" lon="-1.57148">
        <ele>40.9</ele>
        <time>2019-04-23T13:08:58.000Z</time>
      </trkpt>
      <trkpt lat="49.48283" lon="-1.5715">
        <ele>40.9</ele>
        <time>2019-04-23T13:08:59.000Z</time>
      </trkpt>
      <trkpt lat="49.48282" lon="-1.57151">
        <ele>41</ele>
        <time>2019-04-23T13:09:00.000Z</time>
      </trkpt>
      <trkpt lat="49.48282" lon="-1.57153">
        <ele>41</ele>
        <time>2019-04-23T13:09:01.000Z</time>
      </trkpt>
      <trkpt lat="49.48282" lon="-1.57155">
        <ele>41</ele>
        <time>2019-04-23T13:09:02.000Z</time>
      </trkpt>
      <trkpt lat="49.48281" lon="-1.57156">
        <ele>41.1</ele>
        <time>2019-04-23T13:09:03.000Z</time>
      </trkpt>
      <trkpt lat="49.48281" lon="-1.57158">
        <ele>41.1</ele>
        <time>2019-04-23T13:09:04.000Z</time>
      </trkpt>
      <trkpt lat="49.4828" lon="-1.5716">
        <ele>41.2</ele>
        <time>2019-04-23T13:09:05.000Z</time>
      </trkpt>
      <trkpt lat="49.48279" lon="-1.57162">
        <ele>41.2</ele>
        <time>2019-04-23T13:09:06.000Z</time>
      </trkpt>
      <trkpt lat="49.48279" lon="-1.57163">
        <ele>41.3</ele>
        <time>2019-04-23T13:09:07.000Z</time>
      </trkpt>
      <trkpt lat="49.48278" lon="-1.57165">
        <ele>41.3</ele>
        <time>2019-04-23T13:09:08.000Z</time>
      </trkpt>
      <trkpt lat="49.48277" lon="-1.57167">
        <ele>41.4</ele>
        <time>2019-04-23T13:09:09.000Z</time>
      </trkpt>
      <trkpt lat="49.48276" lon="-1.57168">
        <ele>41.5</ele>
        <time>2019-04-23T13:09:10.000Z</time>
      </trkpt>
      <trkpt lat="49.48276" lon="-1.5717">
        <ele>41.6</ele>
        <time>2019-04-23T13:09:11.000Z</time>
      </trkpt>
      <trkpt lat="49.48275" lon="-1.57172">
        <ele>41.7</ele>
        <time>2019-04-23T13:09:12.000Z</time>
      </trkpt>
      <trkpt lat="49.48274" lon="-1.57173">
        <ele>41.8</ele>
        <time>2019-04-23T13:09:13.000Z</time>
      </trkpt>
      <trkpt lat="49.48273" lon="-1.57175">
        <ele>41.9</ele>
        <time>2019-04-23T13:09:14.000Z</time>
      </trkpt>
      <trkpt lat="49.48272" lon="-1.57177">
        <ele>42</ele>
        <time>2019-04-23T13:09:15.000Z</time>
      </trkpt>
      <trkpt lat="49.48272" lon="-1.57178">
        <ele>42.1</ele>
        <time>2019-04-23T13:09:16.000Z</time>
      </trkpt>
      <trkpt lat="49.48271" lon="-1.5718">
        <ele>42.2</ele>
        <time>2019-04-23T13:09:17.000Z</time>
      </trkpt>
      <trkpt lat="49.4827" lon="-1.57181">
        <ele>42.3</ele>
        <time>2019-04-23T13:09:18.000Z</time>
      </trkpt>
      <trkpt lat="49.4827" lon="-1.57183">
        <ele>42.4</ele>
        <time>2019-04-23T13:09:19.000Z</time>
      </trkpt>
      <trkpt lat="49.48269" lon="-1.57184">
        <ele>42.5</ele>
        <time>2019-04-23T13:09:20.000Z</time>
      </trkpt>
      <trkpt lat="49.48269" lon="-1.57186">
        <ele>42.6</ele>
        <time>2019-04-23T13:09:21.000Z</time>
      </trkpt>
      <trkpt lat="49.48268" lon="-1.57187">
        <ele>42.7</ele>
        <time>2019-04-23T13:09:22.000Z</time>
      </trkpt>
      <trkpt lat="49.48268" lon="-1.57188">
        <ele>42.7</ele>
        <time>2019-04-23T13:09:23.000Z</time>
      </trkpt>
      <trkpt lat="49.48267" lon="-1.5719">
        <ele>42.8</ele>
        <time>2019-04-23T13:09:24.000Z</time>
      </trkpt>
      <trkpt lat="49.48267" lon="-1.57191">
        <ele>42.9</ele>
        <time>2019-04-23T13:09:25.000Z</time>
      </trkpt>
      <trkpt lat="49.48266" lon="-1.57192">
        <ele>42.9</ele>
        <time>2019-04-23T13:09:26.000Z</time>
      </trkpt>
      <trkpt lat="49.48266" lon="-1.57193">
        <ele>43</ele>
        <time>2019-04-23T13:09:27.000Z</time>
      </trkpt>
      <trkpt lat="49.48266" lon="-1.57194">
        <ele>43</ele>
        <time>2019-04-23T13:09:28.000Z</time>
      </trkpt>
      <trkpt lat="49.48265" lon="-1.57195">
        <ele>43.1</ele>
        <time>2019-04-23T13:09:29.000Z</time>
      </trkpt>
      <trkpt lat="49.48265" lon="-1.57196">
        <ele>43.1</ele>
        <time>2019-04-23T13:09:30.000Z</time>
      </trkpt>
      <trkpt lat="49.48265" lon="-1.57196">
        <ele>43.2</ele>
        <time>2019-04-23T13:09:31.000Z</time>
      </trkpt>
      <trkpt lat="49.48265" lon="-1.57197">
        <ele>43.2</ele>
        <time>2019-04-23T13:09:32.000Z</time>
      </trkpt>
      <trkpt lat="49.48265" lon="-1.57197">
        <ele>43.2</ele>
        <time>2019-04-23T13:09:33.000Z</time>
      </trkpt>
      <trkpt lat="49.48265" lon="-1.57198">
        <ele>43.2</ele>
        <time>2019-04-23T13:09:34.000Z</time>
      </trkpt>
      <trkpt lat="49.48265" lon="-1.57198">
        <ele>43.2</ele>
        <time>2019-04-23T13:09:35.000Z</time>
      </trkpt>
      <trkpt lat="49.48265" lon="-1.57198">
        <ele>43.2</ele>
        <time>2019-04-23T13:09:36.000Z</time>
      </trkpt>
      <trkpt lat="49.48265" lon="-1.57198">
        <ele>43.2</ele>
        <time>2019-04-23T13:09:37.000Z</time>
      </trkpt>
      <trkpt lat="49.48265" lon="-1.57198">
        <ele>43.2</ele>
        <time>2019-04-23T13:09:38.000Z</time>
      </trkpt>
      <trkpt lat="49.48265" lon="-1.57198">
        <ele>43.2</ele>
        <time>2019-04-23T13:09:39.000Z</time>
      </trkpt>
      <trkpt lat="49.48265" lon="-1.57198">
        <ele>43.2</ele>
        <time>2019-04-23T13:09:40.000Z</time>
      </trkpt>
      <trkpt lat="49.48265" lon="-1.57198">
        <ele>43.2</ele>
        <time>2019-04-23T13:09:41.000Z</time>
      </trkpt>
      <trkpt lat="49.48265" lon="-1.57198">
        <ele>43.2</ele>
        <time>2019-04-23T13:09:42.000Z</time>
      </trkpt>
      <trkpt lat="49.48265" lon="-1.57198">
        <ele>43.2</ele>
        <time>2019-04-23T13:09:43.000Z</time>
      </trkpt>
      <trkpt lat="49.48265" lon="-1.57198">
        <ele>43.2</ele>
        <time>2019-04-23T13:09:44.000Z</time>
      </trkpt>
      <trkpt lat="49.48265" lon="-1.57198">
        <ele>43.2</ele>
        <time>2019-04-23T13:09:45.000Z</time>
      </trkpt>
      <trkpt lat="49.48265" lon="-1.57198">
        <ele>43.2</ele>
        <time>2019-04-23T13:09:46.000Z</time>
      </trkpt>
      <trkpt lat="49.48265" lon="-1.57198">
        <ele>43.2</ele>
        <time>2019-04-23T13:09:47.000Z</time>
      </trkpt>
      <trkpt lat="49.48265" lon="-1.57198">
        <ele>43.2</ele>
        <time>2019-04-23T13:09:48.000Z</time>
      </trkpt>
      <trkpt lat="49.48265" lon="-1.57198">
        <ele>43.2</ele>
        <time>2019-04-23T13:09:49.000Z</time>
      </trkpt>
      <trkpt lat="49.48265" lon="-1.57198">
        <ele>43.2</ele>
        <time>2019-04-23T13:09:50.000Z</time>
      </trkpt>
      <trkpt lat="49.48265" lon="-1.57198">
        <ele>43.2</ele>
        <time>2019-04-23T13:09:51.000Z</time>
      </trkpt>
      <trkpt lat="49.48265" lon="-1.57198">
        <ele>43.2</ele>
        <time>2019-04-23T13:09:52.000Z</time>
      </trkpt>
      <trkpt lat="49.48265" lon="-1.57198">
        <ele>43.2</ele>
        <time>2019-04-23T13:09:53.000Z</time>
      </trkpt>
      <trkpt lat="49.48265" lon="-1.57198">
        <ele>43.2</ele>
        <time>2019-04-23T13:09:54.000Z</time>
      </trkpt>
      <trkpt lat="49.48265" lon="-1.57198">
        <ele>43.2</ele>
        <time>2019-04-23T13:09:55.000Z</time>
      </trkpt>
      <trkpt lat="49.48265" lon="-1.57198">
        <ele>43.2</ele>
        <time>2019-04-23T13:09:56.000Z</time>
      </trkpt>
      <trkpt lat="49.48265" lon="-1.57198">
        <ele>43.2</ele>
        <time>2019-04-23T13:09:57.000Z</time>
      </trkpt>
      <trkpt lat="49.48265" lon="-1.57198">
        <ele>43.2</ele>
        <time>2019-04-23T13:09:58.000Z</time>
      </trkpt>
      <trkpt lat="49.48265" lon="-1.57198">
        <ele>43.2</ele>
        <time>2019-04-23T13:09:59.000Z</time>
      </trkpt>
      <trkpt lat="49.48265" lon="-1.57198">
        <ele>43.2</ele>
        <time>2019-04-23T13:10:00.000Z</time>
      </trkpt>
      <trkpt lat="49.48265" lon="-1.57198">
        <ele>43.2</ele>
        <time>2019-04-23T13:10:01.000Z</time>
      </trkpt>
      <trkpt lat="49.48265" lon="-1.57198">
        <ele>43.2</ele>
        <time>2019-04-23T13:10:02.000Z</time>
      </trkpt>
      <trkpt lat="49.48265" lon="-1.57198">
        <ele>43.2</ele>
        <time>2019-04-23T13:10:03.000Z</time>
      </trkpt>
      <trkpt lat="49.48265" lon="-1.57198">
        <ele>43.2</ele>
        <time>2019-04-23T13:10:04.000Z</time>
      </trkpt>
      <trkpt lat="49.48265" lon="-1.57198">
        <ele>43.2</ele>
        <time>2019-04-23T13:10:05.000Z</time>
      </trkpt>
      <trkpt lat="49.48265" lon="-1.57198">
        <ele>43.2</ele>
        <time>2019-04-23T13:10:06.000Z</time>
      </trkpt>
      <trkpt lat="49.48265" lon="-1.57198">
        <ele>43.2</ele>
        <time>2019-04-23T13:10:07.000Z</time>
      </trkpt>
      <trkpt lat="49.48265" lon="-1.57198">
        <ele>43.2</ele>
        <time>2019-04-23T13:10:08.000Z</time>
      </trkpt>
      <trkpt lat="49.48265" lon="-1.57198">
        <ele>43.2</ele>
        <time>2019-04-23T13:10:09.000Z</time>
      </trkpt>
      <trkpt lat="49.48265" lon="-1.57198">
        <ele>43.2</ele>
        <time>2019-04-23T13:10:10.000Z</time>
      </trkpt>
      <trkpt lat="49.48265" lon="-1.57198">
        <ele>43.2</ele>
        <time>2019-04-23T13:10:11.000Z</time>
      </trkpt>
      <trkpt lat="49.48265" lon="-1.57198">
        <ele>43.2</ele>
        <time>2019-04-23T13:10:12.000Z</time>
      </trkpt>
      <trkpt lat="49.48265" lon="-1.57198">
        <ele>43.2</ele>
        <time>2019-04-23T13:10:13.000Z</time>
      </trkpt>
      <trkpt lat="49.48265" lon="-1.57198">
        <ele>43.2</ele>
        <time>2019-04-23T13:10:14.000Z</time>
      </trkpt>
      <trkpt lat="49.48265" lon="-1.57198">
        <ele>43.2</ele>
        <time>2019-04-23T13:10:15.000Z</time>
      </trkpt>
      <trkpt lat="49.48265" lon="-1.57198">
        <ele>43.2</ele>
        <time>2019-04-23T13:10:16.000Z</time>
      </trkpt>
      <trkpt lat="49.48265" lon="-1.57198">
        <ele>43.2</ele>
        <time>2019-04-23T13:10:17.000Z</time>
      </trkpt>
      <trkpt lat="49.48266" lon="-1.57198">
        <ele>43.2</ele>
        <time>2019-04-23T13:10:18.000Z</time>
      </trkpt>
      <trkpt lat="49.48267" lon="-1.57199">
        <ele>43.1</ele>
        <time>2019-04-23T13:10:19.000Z</time>
      </trkpt>
      <trkpt lat="49.48267" lon="-1.57198">
        <ele>43.1</ele>
        <time>2019-04-23T13:10:20.000Z</time>
      </trkpt>
      <trkpt lat="49.48268" lon="-1.57198">
        <ele>43.1</ele>
        <time>2019-04-23T13:10:21.000Z</time>
      </trkpt>
      <trkpt lat="49.48268" lon="-1.57198">
        <ele>43</ele>
        <time>2019-04-23T13:10:22.000Z</time>
      </trkpt>
      <trkpt lat="49.48268" lon="-1.57197">
        <ele>43</ele>
        <time>2019-04-23T13:10:23.000Z</time>
      </trkpt>
      <trkpt lat="49.48268" lon="-1.57197">
        <ele>43</ele>
        <time>2019-04-23T13:10:24.000Z</time>
      </trkpt>
      <trkpt lat="49.48268" lon="-1.57197">
        <ele>43</ele>
        <time>2019-04-23T13:10:25.000Z</time>
      </trkpt>
      <trkpt lat="49.48269" lon="-1.57197">
        <ele>43</ele>
        <time>2019-04-23T13:10:26.000Z</time>
      </trkpt>
      <trkpt lat="49.48269" lon="-1.57197">
        <ele>43</ele>
        <time>2019-04-23T13:10:27.000Z</time>
      </trkpt>
      <trkpt lat="49.48269" lon="-1.57197">
        <ele>43</ele>
        <time>2019-04-23T13:10:28.000Z</time>
      </trkpt>
      <trkpt lat="49.48269" lon="-1.57197">
        <ele>43</ele>
        <time>2019-04-23T13:10:29.000Z</time>
      </trkpt>
      <trkpt lat="49.48269" lon="-1.57197">
        <ele>43</ele>
        <time>2019-04-23T13:10:30.000Z</time>
      </trkpt>
      <trkpt lat="49.48269" lon="-1.57197">
        <ele>43</ele>
        <time>2019-04-23T13:10:31.000Z</time>
      </trkpt>
      <trkpt lat="49.48269" lon="-1.57197">
        <ele>43</ele>
        <time>2019-04-23T13:10:32.000Z</time>
      </trkpt>
      <trkpt lat="49.48269" lon="-1.57197">
        <ele>43</ele>
        <time>2019-04-23T13:10:33.000Z</time>
      </trkpt>
      <trkpt lat="49.48269" lon="-1.57197">
        <ele>43</ele>
        <time>2019-04-23T13:10:34.000Z</time>
      </trkpt>
      <trkpt lat="49.48269" lon="-1.57197">
        <ele>43</ele>
        <time>2019-04-23T13:10:35.000Z</time>
      </trkpt>
      <trkpt lat="49.48269" lon="-1.57197">
        <ele>43</ele>
        <time>2019-04-23T13:10:36.000Z</time>
      </trkpt>
      <trkpt lat="49.48269" lon="-1.57197">
        <ele>43</ele>
        <time>2019-04-23T13:10:37.000Z</time>
      </trkpt>
      <trkpt lat="49.48269" lon="-1.57197">
        <ele>43</ele>
        <time>2019-04-23T13:10:38.000Z</time>
      </trkpt>
      <trkpt lat="49.48269" lon="-1.57197">
        <ele>43</ele>
        <time>2019-04-23T13:10:39.000Z</time>
      </trkpt>
      <trkpt lat="49.48269" lon="-1.57197">
        <ele>43</ele>
        <time>2019-04-23T13:10:40.000Z</time>
      </trkpt>
      <trkpt lat="49.48269" lon="-1.57197">
        <ele>43</ele>
        <time>2019-04-23T13:10:41.000Z</time>
      </trkpt>
      <trkpt lat="49.48269" lon="-1.57197">
        <ele>43</ele>
        <time>2019-04-23T13:10:42.000Z</time>
      </trkpt>
      <trkpt lat="49.48269" lon="-1.57197">
        <ele>43</ele>
        <time>2019-04-23T13:10:43.000Z</time>
      </trkpt>
      <trkpt lat="49.48269" lon="-1.57197">
        <ele>43</ele>
        <time>2019-04-23T13:10:44.000Z</time>
      </trkpt>
      <trkpt lat="49.48269" lon="-1.57197">
        <ele>43</ele>
        <time>2019-04-23T13:10:45.000Z</time>
      </trkpt>
      <trkpt lat="49.48269" lon="-1.57197">
        <ele>43</ele>
        <time>2019-04-23T13:10:46.000Z</time>
      </trkpt>
      <trkpt lat="49.48269" lon="-1.57197">
        <ele>43</ele>
        <time>2019-04-23T13:10:47.000Z</time>
      </trkpt>
      <trkpt lat="49.48269" lon="-1.57197">
        <ele>43</ele>
        <time>2019-04-23T13:10:48.000Z</time>
      </trkpt>
      <trkpt lat="49.48269" lon="-1.57197">
        <ele>43</ele>
        <time>2019-04-23T13:10:49.000Z</time>
      </trkpt>
      <trkpt lat="49.48269" lon="-1.57197">
        <ele>43</ele>
        <time>2019-04-23T13:10:50.000Z</time>
      </trkpt>
      <trkpt lat="49.48269" lon="-1.57197">
        <ele>43</ele>
        <time>2019-04-23T13:10:51.000Z</time>
      </trkpt>
      <trkpt lat="49.48269" lon="-1.57197">
        <ele>43</ele>
        <time>2019-04-23T13:10:52.000Z</time>
      </trkpt>
      <trkpt lat="49.48269" lon="-1.57197">
        <ele>43</ele>
        <time>2019-04-23T13:10:53.000Z</time>
      </trkpt>
      <trkpt lat="49.48269" lon="-1.57197">
        <ele>43</ele>
        <time>2019-04-23T13:10:54.000Z</time>
      </trkpt>
      <trkpt lat="49.48269" lon="-1.57197">
        <ele>43</ele>
        <time>2019-04-23T13:10:55.000Z</time>
      </trkpt>
      <trkpt lat="49.48269" lon="-1.57197">
        <ele>43</ele>
        <time>2019-04-23T13:10:56.000Z</time>
      </trkpt>
      <trkpt lat="49.48269" lon="-1.57197">
        <ele>43</ele>
        <time>2019-04-23T13:10:57.000Z</time>
      </trkpt>
      <trkpt lat="49.48269" lon="-1.57197">
        <ele>43</ele>
        <time>2019-04-23T13:10:58.000Z</time>
      </trkpt>
      <trkpt lat="49.48269" lon="-1.57197">
        <ele>43</ele>
        <time>2019-04-23T13:10:59.000Z</time>
      </trkpt>
      <trkpt lat="49.48269" lon="-1.57197">
        <ele>43</ele>
        <time>2019-04-23T13:11:00.000Z</time>
      </trkpt>
      <trkpt lat="49.48269" lon="-1.57197">
        <ele>43</ele>
        <time>2019-04-23T13:11:01.000Z</time>
      </trkpt>
      <trkpt lat="49.48269" lon="-1.57197">
        <ele>43</ele>
        <time>2019-04-23T13:11:02.000Z</time>
      </trkpt>
      <trkpt lat="49.48269" lon="-1.57197">
        <ele>43</ele>
        <time>2019-04-23T13:11:03.000Z</time>
      </trkpt>
      <trkpt lat="49.48269" lon="-1.57197">
        <ele>43</ele>
        <time>2019-04-23T13:11:04.000Z</time>
      </trkpt>
      <trkpt lat="49.48269" lon="-1.57197">
        <ele>43</ele>
        <time>2019-04-23T13:11:05.000Z</time>
      </trkpt>
      <trkpt lat="49.48269" lon="-1.57197">
        <ele>43</ele>
        <time>2019-04-23T13:11:06.000Z</time>
      </trkpt>
      <trkpt lat="49.48269" lon="-1.57197">
        <ele>43</ele>
        <time>2019-04-23T13:11:07.000Z</time>
      </trkpt>
      <trkpt lat="49.48269" lon="-1.57197">
        <ele>43</ele>
        <time>2019-04-23T13:11:08.000Z</time>
      </trkpt>
      <trkpt lat="49.48269" lon="-1.57197">
        <ele>43</ele>
        <time>2019-04-23T13:11:09.000Z</time>
      </trkpt>
      <trkpt lat="49.48269" lon="-1.57197">
        <ele>43</ele>
        <time>2019-04-23T13:11:10.000Z</time>
      </trkpt>
      <trkpt lat="49.48269" lon="-1.57197">
        <ele>43</ele>
        <time>2019-04-23T13:11:11.000Z</time>
      </trkpt>
      <trkpt lat="49.48269" lon="-1.57197">
        <ele>43</ele>
        <time>2019-04-23T13:11:12.000Z</time>
      </trkpt>
      <trkpt lat="49.48269" lon="-1.57197">
        <ele>43</ele>
        <time>2019-04-23T13:11:13.000Z</time>
      </trkpt>
      <trkpt lat="49.48269" lon="-1.57197">
        <ele>43</ele>
        <time>2019-04-23T13:11:14.000Z</time>
      </trkpt>
      <trkpt lat="49.48269" lon="-1.57197">
        <ele>43</ele>
        <time>2019-04-23T13:11:15.000Z</time>
      </trkpt>
      <trkpt lat="49.48269" lon="-1.57197">
        <ele>43</ele>
        <time>2019-04-23T13:11:16.000Z</time>
      </trkpt>
      <trkpt lat="49.48269" lon="-1.57197">
        <ele>43</ele>
        <time>2019-04-23T13:11:17.000Z</time>
      </trkpt>
      <trkpt lat="49.48269" lon="-1.57197">
        <ele>43</ele>
        <time>2019-04-23T13:11:18.000Z</time>
      </trkpt>
      <trkpt lat="49.48269" lon="-1.57197">
        <ele>43</ele>
        <time>2019-04-23T13:11:19.000Z</time>
      </trkpt>
      <trkpt lat="49.48269" lon="-1.57197">
        <ele>43</ele>
        <time>2019-04-23T13:11:20.000Z</time>
      </trkpt>
      <trkpt lat="49.48269" lon="-1.57197">
        <ele>43</ele>
        <time>2019-04-23T13:11:21.000Z</time>
      </trkpt>
      <trkpt lat="49.48269" lon="-1.57197">
        <ele>43</ele>
        <time>2019-04-23T13:11:22.000Z</time>
      </trkpt>
      <trkpt lat="49.48269" lon="-1.57197">
        <ele>43</ele>
        <time>2019-04-23T13:11:23.000Z</time>
      </trkpt>
      <trkpt lat="49.48269" lon="-1.57197">
        <ele>43</ele>
        <time>2019-04-23T13:11:24.000Z</time>
      </trkpt>
      <trkpt lat="49.48269" lon="-1.57197">
        <ele>43</ele>
        <time>2019-04-23T13:11:25.000Z</time>
      </trkpt>
      <trkpt lat="49.48269" lon="-1.57197">
        <ele>43</ele>
        <time>2019-04-23T13:11:26.000Z</time>
      </trkpt>
      <trkpt lat="49.48269" lon="-1.57197">
        <ele>43</ele>
        <time>2019-04-23T13:11:27.000Z</time>
      </trkpt>
      <trkpt lat="49.48269" lon="-1.57197">
        <ele>43</ele>
        <time>2019-04-23T13:11:28.000Z</time>
      </trkpt>
      <trkpt lat="49.48269" lon="-1.57197">
        <ele>43</ele>
        <time>2019-04-23T13:11:29.000Z</time>
      </trkpt>
      <trkpt lat="49.48269" lon="-1.57197">
        <ele>43</ele>
        <time>2019-04-23T13:11:30.000Z</time>
      </trkpt>
      <trkpt lat="49.48269" lon="-1.57197">
        <ele>43</ele>
        <time>2019-04-23T13:11:31.000Z</time>
      </trkpt>
      <trkpt lat="49.48269" lon="-1.57197">
        <ele>43</ele>
        <time>2019-04-23T13:11:32.000Z</time>
      </trkpt>
      <trkpt lat="49.48269" lon="-1.57197">
        <ele>43</ele>
        <time>2019-04-23T13:11:33.000Z</time>
      </trkpt>
      <trkpt lat="49.48269" lon="-1.57197">
        <ele>43</ele>
        <time>2019-04-23T13:11:34.000Z</time>
      </trkpt>
      <trkpt lat="49.48269" lon="-1.57197">
        <ele>43</ele>
        <time>2019-04-23T13:11:35.000Z</time>
      </trkpt>
      <trkpt lat="49.48269" lon="-1.57197">
        <ele>43</ele>
        <time>2019-04-23T13:11:36.000Z</time>
      </trkpt>
      <trkpt lat="49.48269" lon="-1.57197">
        <ele>43</ele>
        <time>2019-04-23T13:11:37.000Z</time>
      </trkpt>
      <trkpt lat="49.48269" lon="-1.57197">
        <ele>43</ele>
        <time>2019-04-23T13:11:38.000Z</time>
      </trkpt>
      <trkpt lat="49.48269" lon="-1.57197">
        <ele>43</ele>
        <time>2019-04-23T13:11:39.000Z</time>
      </trkpt>
      <trkpt lat="49.48269" lon="-1.57197">
        <ele>43</ele>
        <time>2019-04-23T13:11:40.000Z</time>
      </trkpt>
      <trkpt lat="49.48269" lon="-1.57197">
        <ele>43</ele>
        <time>2019-04-23T13:11:41.000Z</time>
      </trkpt>
      <trkpt lat="49.48269" lon="-1.57197">
        <ele>43</ele>
        <time>2019-04-23T13:11:42.000Z</time>
      </trkpt>
      <trkpt lat="49.48269" lon="-1.57197">
        <ele>43</ele>
        <time>2019-04-23T13:11:43.000Z</time>
      </trkpt>
      <trkpt lat="49.48269" lon="-1.57197">
        <ele>43</ele>
        <time>2019-04-23T13:11:44.000Z</time>
      </trkpt>
      <trkpt lat="49.48269" lon="-1.57197">
        <ele>43</ele>
        <time>2019-04-23T13:11:45.000Z</time>
      </trkpt>
      <trkpt lat="49.48269" lon="-1.57197">
        <ele>43</ele>
        <time>2019-04-23T13:11:46.000Z</time>
      </trkpt>
      <trkpt lat="49.48269" lon="-1.57197">
        <ele>43</ele>
        <time>2019-04-23T13:11:47.000Z</time>
      </trkpt>
      <trkpt lat="49.48269" lon="-1.57197">
        <ele>43</ele>
        <time>2019-04-23T13:11:48.000Z</time>
      </trkpt>
      <trkpt lat="49.48269" lon="-1.57197">
        <ele>43</ele>
        <time>2019-04-23T13:11:49.000Z</time>
      </trkpt>
      <trkpt lat="49.48269" lon="-1.57198">
        <ele>43</ele>
        <time>2019-04-23T13:11:50.000Z</time>
      </trkpt>
      <trkpt lat="49.48269" lon="-1.57198">
        <ele>43</ele>
        <time>2019-04-23T13:11:51.000Z</time>
      </trkpt>
      <trkpt lat="49.48269" lon="-1.57199">
        <ele>43</ele>
        <time>2019-04-23T13:11:52.000Z</time>
      </trkpt>
      <trkpt lat="49.4827" lon="-1.572">
        <ele>43</ele>
        <time>2019-04-23T13:11:53.000Z</time>
      </trkpt>
      <trkpt lat="49.4827" lon="-1.572">
        <ele>43</ele>
        <time>2019-04-23T13:11:54.000Z</time>
      </trkpt>
      <trkpt lat="49.4827" lon="-1.57201">
        <ele>43</ele>
        <time>2019-04-23T13:11:55.000Z</time>
      </trkpt>
      <trkpt lat="49.48271" lon="-1.57203">
        <ele>43</ele>
        <time>2019-04-23T13:11:56.000Z</time>
      </trkpt>
      <trkpt lat="49.48272" lon="-1.57204">
        <ele>43</ele>
        <time>2019-04-23T13:11:57.000Z</time>
      </trkpt>
      <trkpt lat="49.48272" lon="-1.57205">
        <ele>43</ele>
        <time>2019-04-23T13:11:58.000Z</time>
      </trkpt>
      <trkpt lat="49.48273" lon="-1.57206">
        <ele>43</ele>
        <time>2019-04-23T13:11:59.000Z</time>
      </trkpt>
      <trkpt lat="49.48274" lon="-1.57208">
        <ele>43</ele>
        <time>2019-04-23T13:12:00.000Z</time>
      </trkpt>
      <trkpt lat="49.48275" lon="-1.57209">
        <ele>43</ele>
        <time>2019-04-23T13:12:01.000Z</time>
      </trkpt>
      <trkpt lat="49.48275" lon="-1.5721">
        <ele>43</ele>
        <time>2019-04-23T13:12:02.000Z</time>
      </trkpt>
      <trkpt lat="49.48275" lon="-1.5721">
        <ele>43</ele>
        <time>2019-04-23T13:12:03.000Z</time>
      </trkpt>
      <trkpt lat="49.48275" lon="-1.5721">
        <ele>43</ele>
        <time>2019-04-23T13:12:04.000Z</time>
      </trkpt>
      <trkpt lat="49.48275" lon="-1.5721">
        <ele>43</ele>
        <time>2019-04-23T13:12:05.000Z</time>
      </trkpt>
      <trkpt lat="49.48276" lon="-1.5721">
        <ele>43</ele>
        <time>2019-04-23T13:12:06.000Z</time>
      </trkpt>
      <trkpt lat="49.48276" lon="-1.57211">
        <ele>43</ele>
        <time>2019-04-23T13:12:07.000Z</time>
      </trkpt>
      <trkpt lat="49.48277" lon="-1.57212">
        <ele>43</ele>
        <time>2019-04-23T13:12:08.000Z</time>
      </trkpt>
      <trkpt lat="49.48277" lon="-1.57214">
        <ele>43.1</ele>
        <time>2019-04-23T13:12:09.000Z</time>
      </trkpt>
      <trkpt lat="49.48278" lon="-1.57215">
        <ele>43.1</ele>
        <time>2019-04-23T13:12:10.000Z</time>
      </trkpt>
      <trkpt lat="49.48279" lon="-1.57217">
        <ele>43.1</ele>
        <time>2019-04-23T13:12:11.000Z</time>
      </trkpt>
      <trkpt lat="49.4828" lon="-1.57219">
        <ele>43.1</ele>
        <time>2019-04-23T13:12:12.000Z</time>
      </trkpt>
      <trkpt lat="49.48281" lon="-1.5722">
        <ele>43</ele>
        <time>2019-04-23T13:12:13.000Z</time>
      </trkpt>
      <trkpt lat="49.48283" lon="-1.57222">
        <ele>43</ele>
        <time>2019-04-23T13:12:14.000Z</time>
      </trkpt>
      <trkpt lat="49.48284" lon="-1.57224">
        <ele>43</ele>
        <time>2019-04-23T13:12:15.000Z</time>
      </trkpt>
      <trkpt lat="49.48285" lon="-1.57226">
        <ele>43</ele>
        <time>2019-04-23T13:12:16.000Z</time>
      </trkpt>
      <trkpt lat="49.48287" lon="-1.57227">
        <ele>43</ele>
        <time>2019-04-23T13:12:17.000Z</time>
      </trkpt>
      <trkpt lat="49.48288" lon="-1.57229">
        <ele>43</ele>
        <time>2019-04-23T13:12:18.000Z</time>
      </trkpt>
      <trkpt lat="49.4829" lon="-1.5723">
        <ele>42.9</ele>
        <time>2019-04-23T13:12:19.000Z</time>
      </trkpt>
      <trkpt lat="49.48291" lon="-1.57232">
        <ele>42.9</ele>
        <time>2019-04-23T13:12:20.000Z</time>
      </trkpt>
      <trkpt lat="49.48292" lon="-1.57233">
        <ele>42.9</ele>
        <time>2019-04-23T13:12:21.000Z</time>
      </trkpt>
      <trkpt lat="49.48294" lon="-1.57235">
        <ele>42.8</ele>
        <time>2019-04-23T13:12:22.000Z</time>
      </trkpt>
      <trkpt lat="49.48295" lon="-1.57236">
        <ele>42.8</ele>
        <time>2019-04-23T13:12:23.000Z</time>
      </trkpt>
      <trkpt lat="49.48297" lon="-1.57237">
        <ele>42.7</ele>
        <time>2019-04-23T13:12:24.000Z</time>
      </trkpt>
      <trkpt lat="49.48298" lon="-1.57239">
        <ele>42.7</ele>
        <time>2019-04-23T13:12:25.000Z</time>
      </trkpt>
      <trkpt lat="49.48299" lon="-1.5724">
        <ele>42.7</ele>
        <time>2019-04-23T13:12:26.000Z</time>
      </trkpt>
      <trkpt lat="49.48301" lon="-1.57241">
        <ele>42.6</ele>
        <time>2019-04-23T13:12:27.000Z</time>
      </trkpt>
      <trkpt lat="49.48302" lon="-1.57242">
        <ele>42.6</ele>
        <time>2019-04-23T13:12:28.000Z</time>
      </trkpt>
      <trkpt lat="49.48303" lon="-1.57243">
        <ele>42.6</ele>
        <time>2019-04-23T13:12:29.000Z</time>
      </trkpt>
      <trkpt lat="49.48304" lon="-1.57245">
        <ele>42.5</ele>
        <time>2019-04-23T13:12:30.000Z</time>
      </trkpt>
      <trkpt lat="49.48306" lon="-1.57246">
        <ele>42.5</ele>
        <time>2019-04-23T13:12:31.000Z</time>
      </trkpt>
      <trkpt lat="49.48307" lon="-1.57247">
        <ele>42.5</ele>
        <time>2019-04-23T13:12:32.000Z</time>
      </trkpt>
      <trkpt lat="49.48308" lon="-1.57248">
        <ele>42.4</ele>
        <time>2019-04-23T13:12:33.000Z</time>
      </trkpt>
      <trkpt lat="49.48309" lon="-1.57249">
        <ele>42.4</ele>
        <time>2019-04-23T13:12:34.000Z</time>
      </trkpt>
      <trkpt lat="49.4831" lon="-1.5725">
        <ele>42.4</ele>
        <time>2019-04-23T13:12:35.000Z</time>
      </trkpt>
      <trkpt lat="49.48311" lon="-1.57251">
        <ele>42.3</ele>
        <time>2019-04-23T13:12:36.000Z</time>
      </trkpt>
      <trkpt lat="49.48313" lon="-1.57252">
        <ele>42.3</ele>
        <time>2019-04-23T13:12:37.000Z</time>
      </trkpt>
      <trkpt lat="49.48314" lon="-1.57253">
        <ele>42.2</ele>
        <time>2019-04-23T13:12:38.000Z</time>
      </trkpt>
      <trkpt lat="49.48315" lon="-1.57255">
        <ele>42.2</ele>
        <time>2019-04-23T13:12:39.000Z</time>
      </trkpt>
      <trkpt lat="49.48316" lon="-1.57256">
        <ele>42.1</ele>
        <time>2019-04-23T13:12:40.000Z</time>
      </trkpt>
      <trkpt lat="49.48317" lon="-1.57257">
        <ele>42.1</ele>
        <time>2019-04-23T13:12:41.000Z</time>
      </trkpt>
      <trkpt lat="49.48318" lon="-1.57258">
        <ele>42.1</ele>
        <time>2019-04-23T13:12:42.000Z</time>
      </trkpt>
      <trkpt lat="49.48319" lon="-1.57259">
        <ele>42</ele>
        <time>2019-04-23T13:12:43.000Z</time>
      </trkpt>
      <trkpt lat="49.4832" lon="-1.5726">
        <ele>42</ele>
        <time>2019-04-23T13:12:44.000Z</time>
      </trkpt>
      <trkpt lat="49.48321" lon="-1.57261">
        <ele>42</ele>
        <time>2019-04-23T13:12:45.000Z</time>
      </trkpt>
      <trkpt lat="49.48322" lon="-1.57262">
        <ele>41.9</ele>
        <time>2019-04-23T13:12:46.000Z</time>
      </trkpt>
      <trkpt lat="49.48323" lon="-1.57264">
        <ele>41.9</ele>
        <time>2019-04-23T13:12:47.000Z</time>
      </trkpt>
      <trkpt lat="49.48324" lon="-1.57265">
        <ele>41.9</ele>
        <time>2019-04-23T13:12:48.000Z</time>
      </trkpt>
      <trkpt lat="49.48325" lon="-1.57266">
        <ele>41.9</ele>
        <time>2019-04-23T13:12:49.000Z</time>
      </trkpt>
      <trkpt lat="49.48325" lon="-1.57267">
        <ele>41.8</ele>
        <time>2019-04-23T13:12:50.000Z</time>
      </trkpt>
      <trkpt lat="49.48326" lon="-1.57268">
        <ele>41.8</ele>
        <time>2019-04-23T13:12:51.000Z</time>
      </trkpt>
      <trkpt lat="49.48327" lon="-1.57269">
        <ele>41.8</ele>
        <time>2019-04-23T13:12:52.000Z</time>
      </trkpt>
      <trkpt lat="49.48328" lon="-1.57271">
        <ele>41.8</ele>
        <time>2019-04-23T13:12:53.000Z</time>
      </trkpt>
      <trkpt lat="49.48329" lon="-1.57272">
        <ele>41.7</ele>
        <time>2019-04-23T13:12:54.000Z</time>
      </trkpt>
      <trkpt lat="49.4833" lon="-1.57273">
        <ele>41.7</ele>
        <time>2019-04-23T13:12:55.000Z</time>
      </trkpt>
      <trkpt lat="49.48331" lon="-1.57274">
        <ele>41.7</ele>
        <time>2019-04-23T13:12:56.000Z</time>
      </trkpt>
      <trkpt lat="49.48332" lon="-1.57275">
        <ele>41.7</ele>
        <time>2019-04-23T13:12:57.000Z</time>
      </trkpt>
      <trkpt lat="49.48333" lon="-1.57277">
        <ele>41.6</ele>
        <time>2019-04-23T13:12:58.000Z</time>
      </trkpt>
      <trkpt lat="49.48335" lon="-1.57278">
        <ele>41.6</ele>
        <time>2019-04-23T13:12:59.000Z</time>
      </trkpt>
      <trkpt lat="49.48336" lon="-1.57279">
        <ele>41.6</ele>
        <time>2019-04-23T13:13:00.000Z</time>
      </trkpt>
      <trkpt lat="49.48337" lon="-1.5728">
        <ele>41.6</ele>
        <time>2019-04-23T13:13:01.000Z</time>
      </trkpt>
      <trkpt lat="49.48338" lon="-1.57281">
        <ele>41.6</ele>
        <time>2019-04-23T13:13:02.000Z</time>
      </trkpt>
      <trkpt lat="49.48339" lon="-1.57283">
        <ele>41.6</ele>
        <time>2019-04-23T13:13:03.000Z</time>
      </trkpt>
      <trkpt lat="49.4834" lon="-1.57284">
        <ele>41.6</ele>
        <time>2019-04-23T13:13:04.000Z</time>
      </trkpt>
      <trkpt lat="49.48341" lon="-1.57285">
        <ele>41.5</ele>
        <time>2019-04-23T13:13:05.000Z</time>
      </trkpt>
      <trkpt lat="49.48342" lon="-1.57286">
        <ele>41.5</ele>
        <time>2019-04-23T13:13:06.000Z</time>
      </trkpt>
      <trkpt lat="49.48343" lon="-1.57288">
        <ele>41.5</ele>
        <time>2019-04-23T13:13:07.000Z</time>
      </trkpt>
      <trkpt lat="49.48344" lon="-1.57289">
        <ele>41.5</ele>
        <time>2019-04-23T13:13:08.000Z</time>
      </trkpt>
      <trkpt lat="49.48345" lon="-1.5729">
        <ele>41.5</ele>
        <time>2019-04-23T13:13:09.000Z</time>
      </trkpt>
      <trkpt lat="49.48346" lon="-1.57291">
        <ele>41.4</ele>
        <time>2019-04-23T13:13:10.000Z</time>
      </trkpt>
      <trkpt lat="49.48347" lon="-1.57292">
        <ele>41.4</ele>
        <time>2019-04-23T13:13:11.000Z</time>
      </trkpt>
      <trkpt lat="49.48348" lon="-1.57293">
        <ele>41.4</ele>
        <time>2019-04-23T13:13:12.000Z</time>
      </trkpt>
      <trkpt lat="49.48349" lon="-1.57295">
        <ele>41.4</ele>
        <time>2019-04-23T13:13:13.000Z</time>
      </trkpt>
      <trkpt lat="49.4835" lon="-1.57296">
        <ele>41.4</ele>
        <time>2019-04-23T13:13:14.000Z</time>
      </trkpt>
      <trkpt lat="49.48351" lon="-1.57297">
        <ele>41.4</ele>
        <time>2019-04-23T13:13:15.000Z</time>
      </trkpt>
      <trkpt lat="49.48352" lon="-1.57298">
        <ele>41.3</ele>
        <time>2019-04-23T13:13:16.000Z</time>
      </trkpt>
      <trkpt lat="49.48352" lon="-1.57299">
        <ele>41.3</ele>
        <time>2019-04-23T13:13:17.000Z</time>
      </trkpt>
      <trkpt lat="49.48353" lon="-1.573">
        <ele>41.3</ele>
        <time>2019-04-23T13:13:18.000Z</time>
      </trkpt>
      <trkpt lat="49.48354" lon="-1.57301">
        <ele>41.3</ele>
        <time>2019-04-23T13:13:19.000Z</time>
      </trkpt>
      <trkpt lat="49.48354" lon="-1.57303">
        <ele>41.3</ele>
        <time>2019-04-23T13:13:20.000Z</time>
      </trkpt>
      <trkpt lat="49.48355" lon="-1.57304">
        <ele>41.3</ele>
        <time>2019-04-23T13:13:21.000Z</time>
      </trkpt>
      <trkpt lat="49.48356" lon="-1.57305">
        <ele>41.2</ele>
        <time>2019-04-23T13:13:22.000Z</time>
      </trkpt>
      <trkpt lat="49.48357" lon="-1.57306">
        <ele>41.2</ele>
        <time>2019-04-23T13:13:23.000Z</time>
      </trkpt>
      <trkpt lat="49.48357" lon="-1.57307">
        <ele>41.2</ele>
        <time>2019-04-23T13:13:24.000Z</time>
      </trkpt>
      <trkpt lat="49.48358" lon="-1.57308">
        <ele>41.2</ele>
        <time>2019-04-23T13:13:25.000Z</time>
      </trkpt>
      <trkpt lat="49.48359" lon="-1.57309">
        <ele>41.1</ele>
        <time>2019-04-23T13:13:26.000Z</time>
      </trkpt>
      <trkpt lat="49.4836" lon="-1.5731">
        <ele>41.1</ele>
        <time>2019-04-23T13:13:27.000Z</time>
      </trkpt>
      <trkpt lat="49.48361" lon="-1.57311">
        <ele>41.1</ele>
        <time>2019-04-23T13:13:28.000Z</time>
      </trkpt>
      <trkpt lat="49.48361" lon="-1.57312">
        <ele>41.1</ele>
        <time>2019-04-23T13:13:29.000Z</time>
      </trkpt>
      <trkpt lat="49.48362" lon="-1.57313">
        <ele>41</ele>
        <time>2019-04-23T13:13:30.000Z</time>
      </trkpt>
      <trkpt lat="49.48363" lon="-1.57313">
        <ele>41</ele>
        <time>2019-04-23T13:13:31.000Z</time>
      </trkpt>
      <trkpt lat="49.48363" lon="-1.57314">
        <ele>41</ele>
        <time>2019-04-23T13:13:32.000Z</time>
      </trkpt>
      <trkpt lat="49.48364" lon="-1.57314">
        <ele>41</ele>
        <time>2019-04-23T13:13:33.000Z</time>
      </trkpt>
      <trkpt lat="49.48364" lon="-1.57315">
        <ele>41</ele>
        <time>2019-04-23T13:13:34.000Z</time>
      </trkpt>
      <trkpt lat="49.48364" lon="-1.57315">
        <ele>41</ele>
        <time>2019-04-23T13:13:35.000Z</time>
      </trkpt>
      <trkpt lat="49.48364" lon="-1.57315">
        <ele>41</ele>
        <time>2019-04-23T13:13:36.000Z</time>
      </trkpt>
      <trkpt lat="49.48364" lon="-1.57315">
        <ele>41</ele>
        <time>2019-04-23T13:13:37.000Z</time>
      </trkpt>
      <trkpt lat="49.48364" lon="-1.57315">
        <ele>41</ele>
        <time>2019-04-23T13:13:38.000Z</time>
      </trkpt>
      <trkpt lat="49.48364" lon="-1.57315">
        <ele>41</ele>
        <time>2019-04-23T13:13:39.000Z</time>
      </trkpt>
      <trkpt lat="49.48364" lon="-1.57315">
        <ele>41</ele>
        <time>2019-04-23T13:13:40.000Z</time>
      </trkpt>
      <trkpt lat="49.48364" lon="-1.57315">
        <ele>41</ele>
        <time>2019-04-23T13:13:41.000Z</time>
      </trkpt>
      <trkpt lat="49.48364" lon="-1.57315">
        <ele>41</ele>
        <time>2019-04-23T13:13:42.000Z</time>
      </trkpt>
      <trkpt lat="49.48364" lon="-1.57315">
        <ele>41</ele>
        <time>2019-04-23T13:13:43.000Z</time>
      </trkpt>
      <trkpt lat="49.48364" lon="-1.57315">
        <ele>41</ele>
        <time>2019-04-23T13:13:44.000Z</time>
      </trkpt>
      <trkpt lat="49.48364" lon="-1.57315">
        <ele>41</ele>
        <time>2019-04-23T13:13:45.000Z</time>
      </trkpt>
      <trkpt lat="49.48364" lon="-1.57315">
        <ele>41</ele>
        <time>2019-04-23T13:13:46.000Z</time>
      </trkpt>
      <trkpt lat="49.48364" lon="-1.57315">
        <ele>41</ele>
        <time>2019-04-23T13:13:47.000Z</time>
      </trkpt>
      <trkpt lat="49.48364" lon="-1.57315">
        <ele>41</ele>
        <time>2019-04-23T13:13:48.000Z</time>
      </trkpt>
      <trkpt lat="49.48364" lon="-1.57315">
        <ele>41</ele>
        <time>2019-04-23T13:13:49.000Z</time>
      </trkpt>
      <trkpt lat="49.48364" lon="-1.57315">
        <ele>41</ele>
        <time>2019-04-23T13:13:50.000Z</time>
      </trkpt>
      <trkpt lat="49.48364" lon="-1.57315">
        <ele>41</ele>
        <time>2019-04-23T13:13:51.000Z</time>
      </trkpt>
      <trkpt lat="49.48364" lon="-1.57315">
        <ele>41</ele>
        <time>2019-04-23T13:13:52.000Z</time>
      </trkpt>
      <trkpt lat="49.48364" lon="-1.57315">
        <ele>41</ele>
        <time>2019-04-23T13:13:53.000Z</time>
      </trkpt>
      <trkpt lat="49.48364" lon="-1.57315">
        <ele>41</ele>
        <time>2019-04-23T13:13:54.000Z</time>
      </trkpt>
      <trkpt lat="49.48364" lon="-1.57315">
        <ele>41</ele>
        <time>2019-04-23T13:13:55.000Z</time>
      </trkpt>
      <trkpt lat="49.48363" lon="-1.57315">
        <ele>41</ele>
        <time>2019-04-23T13:13:56.000Z</time>
      </trkpt>
      <trkpt lat="49.48363" lon="-1.57315">
        <ele>41</ele>
        <time>2019-04-23T13:13:57.000Z</time>
      </trkpt>
      <trkpt lat="49.48363" lon="-1.57315">
        <ele>41</ele>
        <time>2019-04-23T13:13:58.000Z</time>
      </trkpt>
      <trkpt lat="49.48363" lon="-1.57315">
        <ele>41</ele>
        <time>2019-04-23T13:13:59.000Z</time>
      </trkpt>
      <trkpt lat="49.48363" lon="-1.57316">
        <ele>41</ele>
        <time>2019-04-23T13:14:00.000Z</time>
      </trkpt>
      <trkpt lat="49.48363" lon="-1.57316">
        <ele>41</ele>
        <time>2019-04-23T13:14:01.000Z</time>
      </trkpt>
      <trkpt lat="49.48363" lon="-1.57317">
        <ele>41</ele>
        <time>2019-04-23T13:14:02.000Z</time>
      </trkpt>
      <trkpt lat="49.48362" lon="-1.57317">
        <ele>41.1</ele>
        <time>2019-04-23T13:14:03.000Z</time>
      </trkpt>
      <trkpt lat="49.48362" lon="-1.57318">
        <ele>41.1</ele>
        <time>2019-04-23T13:14:04.000Z</time>
      </trkpt>
      <trkpt lat="49.48362" lon="-1.57319">
        <ele>41.1</ele>
        <time>2019-04-23T13:14:05.000Z</time>
      </trkpt>
      <trkpt lat="49.48362" lon="-1.57319">
        <ele>41.1</ele>
        <time>2019-04-23T13:14:06.000Z</time>
      </trkpt>
      <trkpt lat="49.48361" lon="-1.5732">
        <ele>41.2</ele>
        <time>2019-04-23T13:14:07.000Z</time>
      </trkpt>
      <trkpt lat="49.48361" lon="-1.57321">
        <ele>41.2</ele>
        <time>2019-04-23T13:14:08.000Z</time>
      </trkpt>
      <trkpt lat="49.4836" lon="-1.57322">
        <ele>41.3</ele>
        <time>2019-04-23T13:14:09.000Z</time>
      </trkpt>
      <trkpt lat="49.48359" lon="-1.57323">
        <ele>41.3</ele>
        <time>2019-04-23T13:14:10.000Z</time>
      </trkpt>
      <trkpt lat="49.48359" lon="-1.57325">
        <ele>41.4</ele>
        <time>2019-04-23T13:14:11.000Z</time>
      </trkpt>
      <trkpt lat="49.48358" lon="-1.57326">
        <ele>41.4</ele>
        <time>2019-04-23T13:14:12.000Z</time>
      </trkpt>
      <trkpt lat="49.48357" lon="-1.57327">
        <ele>41.5</ele>
        <time>2019-04-23T13:14:13.000Z</time>
      </trkpt>
      <trkpt lat="49.48357" lon="-1.57328">
        <ele>41.5</ele>
        <time>2019-04-23T13:14:14.000Z</time>
      </trkpt>
      <trkpt lat="49.48356" lon="-1.57329">
        <ele>41.6</ele>
        <time>2019-04-23T13:14:15.000Z</time>
      </trkpt>
      <trkpt lat="49.48355" lon="-1.57331">
        <ele>41.7</ele>
        <time>2019-04-23T13:14:16.000Z</time>
      </trkpt>
      <trkpt lat="49.48354" lon="-1.57332">
        <ele>41.7</ele>
        <time>2019-04-23T13:14:17.000Z</time>
      </trkpt>
      <trkpt lat="49.48353" lon="-1.57333">
        <ele>41.8</ele>
        <time>2019-04-23T13:14:18.000Z</time>
      </trkpt>
      <trkpt lat="49.48353" lon="-1.57335">
        <ele>41.8</ele>
        <time>2019-04-23T13:14:19.000Z</time>
      </trkpt>
      <trkpt lat="49.48352" lon="-1.57336">
        <ele>41.8</ele>
        <time>2019-04-23T13:14:20.000Z</time>
      </trkpt>
      <trkpt lat="49.48351" lon="-1.57337">
        <ele>41.7</ele>
        <time>2019-04-23T13:14:21.000Z</time>
      </trkpt>
      <trkpt lat="49.4835" lon="-1.57339">
        <ele>41.7</ele>
        <time>2019-04-23T13:14:22.000Z</time>
      </trkpt>
      <trkpt lat="49.48349" lon="-1.5734">
        <ele>41.7</ele>
        <time>2019-04-23T13:14:23.000Z</time>
      </trkpt>
      <trkpt lat="49.48348" lon="-1.57341">
        <ele>41.7</ele>
        <time>2019-04-23T13:14:24.000Z</time>
      </trkpt>
      <trkpt lat="49.48348" lon="-1.57342">
        <ele>41.7</ele>
        <time>2019-04-23T13:14:25.000Z</time>
      </trkpt>
      <trkpt lat="49.48347" lon="-1.57344">
        <ele>41.6</ele>
        <time>2019-04-23T13:14:26.000Z</time>
      </trkpt>
      <trkpt lat="49.48346" lon="-1.57345">
        <ele>41.6</ele>
        <time>2019-04-23T13:14:27.000Z</time>
      </trkpt>
      <trkpt lat="49.48345" lon="-1.57346">
        <ele>41.6</ele>
        <time>2019-04-23T13:14:28.000Z</time>
      </trkpt>
      <trkpt lat="49.48344" lon="-1.57347">
        <ele>41.6</ele>
        <time>2019-04-23T13:14:29.000Z</time>
      </trkpt>
      <trkpt lat="49.48344" lon="-1.57349">
        <ele>41.5</ele>
        <time>2019-04-23T13:14:30.000Z</time>
      </trkpt>
      <trkpt lat="49.48343" lon="-1.5735">
        <ele>41.5</ele>
        <time>2019-04-23T13:14:31.000Z</time>
      </trkpt>
      <trkpt lat="49.48342" lon="-1.57351">
        <ele>41.5</ele>
        <time>2019-04-23T13:14:32.000Z</time>
      </trkpt>
      <trkpt lat="49.48341" lon="-1.57352">
        <ele>41.4</ele>
        <time>2019-04-23T13:14:33.000Z</time>
      </trkpt>
      <trkpt lat="49.48341" lon="-1.57354">
        <ele>41.4</ele>
        <time>2019-04-23T13:14:34.000Z</time>
      </trkpt>
      <trkpt lat="49.4834" lon="-1.57355">
        <ele>41.4</ele>
        <time>2019-04-23T13:14:35.000Z</time>
      </trkpt>
      <trkpt lat="49.48339" lon="-1.57356">
        <ele>41.3</ele>
        <time>2019-04-23T13:14:36.000Z</time>
      </trkpt>
      <trkpt lat="49.48338" lon="-1.57357">
        <ele>41.3</ele>
        <time>2019-04-23T13:14:37.000Z</time>
      </trkpt>
      <trkpt lat="49.48338" lon="-1.57359">
        <ele>41.3</ele>
        <time>2019-04-23T13:14:38.000Z</time>
      </trkpt>
      <trkpt lat="49.48337" lon="-1.5736">
        <ele>41.2</ele>
        <time>2019-04-23T13:14:39.000Z</time>
      </trkpt>
      <trkpt lat="49.48336" lon="-1.57362">
        <ele>41.2</ele>
        <time>2019-04-23T13:14:40.000Z</time>
      </trkpt>
      <trkpt lat="49.48335" lon="-1.57363">
        <ele>41.1</ele>
        <time>2019-04-23T13:14:41.000Z</time>
      </trkpt>
      <trkpt lat="49.48334" lon="-1.57364">
        <ele>41.1</ele>
        <time>2019-04-23T13:14:42.000Z</time>
      </trkpt>
      <trkpt lat="49.48333" lon="-1.57366">
        <ele>41</ele>
        <time>2019-04-23T13:14:43.000Z</time>
      </trkpt>
      <trkpt lat="49.48333" lon="-1.57367">
        <ele>41</ele>
        <time>2019-04-23T13:14:44.000Z</time>
      </trkpt>
      <trkpt lat="49.48332" lon="-1.57369">
        <ele>40.9</ele>
        <time>2019-04-23T13:14:45.000Z</time>
      </trkpt>
      <trkpt lat="49.48331" lon="-1.5737">
        <ele>40.9</ele>
        <time>2019-04-23T13:14:46.000Z</time>
      </trkpt>
      <trkpt lat="49.4833" lon="-1.57372">
        <ele>40.8</ele>
        <time>2019-04-23T13:14:47.000Z</time>
      </trkpt>
      <trkpt lat="49.48329" lon="-1.57373">
        <ele>40.7</ele>
        <time>2019-04-23T13:14:48.000Z</time>
      </trkpt>
      <trkpt lat="49.48328" lon="-1.57375">
        <ele>40.7</ele>
        <time>2019-04-23T13:14:49.000Z</time>
      </trkpt>
      <trkpt lat="49.48327" lon="-1.57376">
        <ele>40.6</ele>
        <time>2019-04-23T13:14:50.000Z</time>
      </trkpt>
      <trkpt lat="49.48327" lon="-1.57378">
        <ele>40.6</ele>
        <time>2019-04-23T13:14:51.000Z</time>
      </trkpt>
      <trkpt lat="49.48326" lon="-1.57379">
        <ele>40.5</ele>
        <time>2019-04-23T13:14:52.000Z</time>
      </trkpt>
      <trkpt lat="49.48325" lon="-1.57381">
        <ele>40.5</ele>
        <time>2019-04-23T13:14:53.000Z</time>
      </trkpt>
      <trkpt lat="49.48324" lon="-1.57382">
        <ele>40.4</ele>
        <time>2019-04-23T13:14:54.000Z</time>
      </trkpt>
      <trkpt lat="49.48323" lon="-1.57383">
        <ele>40.4</ele>
        <time>2019-04-23T13:14:55.000Z</time>
      </trkpt>
      <trkpt lat="49.48323" lon="-1.57385">
        <ele>40.3</ele>
        <time>2019-04-23T13:14:56.000Z</time>
      </trkpt>
      <trkpt lat="49.48322" lon="-1.57386">
        <ele>40.3</ele>
        <time>2019-04-23T13:14:57.000Z</time>
      </trkpt>
      <trkpt lat="49.48321" lon="-1.57387">
        <ele>40.3</ele>
        <time>2019-04-23T13:14:58.000Z</time>
      </trkpt>
      <trkpt lat="49.48321" lon="-1.57388">
        <ele>40.2</ele>
        <time>2019-04-23T13:14:59.000Z</time>
      </trkpt>
      <trkpt lat="49.4832" lon="-1.57389">
        <ele>40.2</ele>
        <time>2019-04-23T13:15:00.000Z</time>
      </trkpt>
      <trkpt lat="49.48319" lon="-1.5739">
        <ele>40.2</ele>
        <time>2019-04-23T13:15:01.000Z</time>
      </trkpt>
      <trkpt lat="49.48319" lon="-1.57391">
        <ele>40.2</ele>
        <time>2019-04-23T13:15:02.000Z</time>
      </trkpt>
      <trkpt lat="49.48318" lon="-1.57392">
        <ele>40.1</ele>
        <time>2019-04-23T13:15:03.000Z</time>
      </trkpt>
      <trkpt lat="49.48317" lon="-1.57392">
        <ele>40.1</ele>
        <time>2019-04-23T13:15:04.000Z</time>
      </trkpt>
      <trkpt lat="49.48317" lon="-1.57393">
        <ele>40.1</ele>
        <time>2019-04-23T13:15:05.000Z</time>
      </trkpt>
      <trkpt lat="49.48316" lon="-1.57394">
        <ele>40.1</ele>
        <time>2019-04-23T13:15:06.000Z</time>
      </trkpt>
      <trkpt lat="49.48315" lon="-1.57395">
        <ele>40.1</ele>
        <time>2019-04-23T13:15:07.000Z</time>
      </trkpt>
      <trkpt lat="49.48315" lon="-1.57395">
        <ele>40.1</ele>
        <time>2019-04-23T13:15:08.000Z</time>
      </trkpt>
      <trkpt lat="49.48314" lon="-1.57396">
        <ele>40.1</ele>
        <time>2019-04-23T13:15:09.000Z</time>
      </trkpt>
      <trkpt lat="49.48313" lon="-1.57397">
        <ele>40</ele>
        <time>2019-04-23T13:15:10.000Z</time>
      </trkpt>
      <trkpt lat="49.48312" lon="-1.57398">
        <ele>40</ele>
        <time>2019-04-23T13:15:11.000Z</time>
      </trkpt>
      <trkpt lat="49.48311" lon="-1.57399">
        <ele>40</ele>
        <time>2019-04-23T13:15:12.000Z</time>
      </trkpt>
      <trkpt lat="49.4831" lon="-1.574">
        <ele>40</ele>
        <time>2019-04-23T13:15:13.000Z</time>
      </trkpt>
      <trkpt lat="49.48308" lon="-1.57401">
        <ele>40</ele>
        <time>2019-04-23T13:15:14.000Z</time>
      </trkpt>
      <trkpt lat="49.48307" lon="-1.57402">
        <ele>40</ele>
        <time>2019-04-23T13:15:15.000Z</time>
      </trkpt>
      <trkpt lat="49.48306" lon="-1.57404">
        <ele>40</ele>
        <time>2019-04-23T13:15:16.000Z</time>
      </trkpt>
      <trkpt lat="49.48304" lon="-1.57405">
        <ele>40</ele>
        <time>2019-04-23T13:15:17.000Z</time>
      </trkpt>
      <trkpt lat="49.48303" lon="-1.57406">
        <ele>40</ele>
        <time>2019-04-23T13:15:18.000Z</time>
      </trkpt>
      <trkpt lat="49.48301" lon="-1.57408">
        <ele>40</ele>
        <time>2019-04-23T13:15:19.000Z</time>
      </trkpt>
      <trkpt lat="49.483" lon="-1.57409">
        <ele>40</ele>
        <time>2019-04-23T13:15:20.000Z</time>
      </trkpt>
      <trkpt lat="49.48299" lon="-1.57411">
        <ele>39.9</ele>
        <time>2019-04-23T13:15:21.000Z</time>
      </trkpt>
      <trkpt lat="49.48298" lon="-1.57413">
        <ele>39.9</ele>
        <time>2019-04-23T13:15:22.000Z</time>
      </trkpt>
      <trkpt lat="49.48297" lon="-1.57414">
        <ele>39.9</ele>
        <time>2019-04-23T13:15:23.000Z</time>
      </trkpt>
      <trkpt lat="49.48297" lon="-1.57416">
        <ele>39.8</ele>
        <time>2019-04-23T13:15:24.000Z</time>
      </trkpt>
      <trkpt lat="49.48296" lon="-1.57417">
        <ele>39.8</ele>
        <time>2019-04-23T13:15:25.000Z</time>
      </trkpt>
      <trkpt lat="49.48296" lon="-1.57419">
        <ele>39.8</ele>
        <time>2019-04-23T13:15:26.000Z</time>
      </trkpt>
      <trkpt lat="49.48295" lon="-1.5742">
        <ele>39.7</ele>
        <time>2019-04-23T13:15:27.000Z</time>
      </trkpt>
      <trkpt lat="49.48295" lon="-1.57421">
        <ele>39.7</ele>
        <time>2019-04-23T13:15:28.000Z</time>
      </trkpt>
      <trkpt lat="49.48294" lon="-1.57423">
        <ele>39.7</ele>
        <time>2019-04-23T13:15:29.000Z</time>
      </trkpt>
      <trkpt lat="49.48294" lon="-1.57424">
        <ele>39.7</ele>
        <time>2019-04-23T13:15:30.000Z</time>
      </trkpt>
      <trkpt lat="49.48294" lon="-1.57425">
        <ele>39.7</ele>
        <time>2019-04-23T13:15:31.000Z</time>
      </trkpt>
      <trkpt lat="49.48293" lon="-1.57426">
        <ele>39.6</ele>
        <time>2019-04-23T13:15:32.000Z</time>
      </trkpt>
      <trkpt lat="49.48293" lon="-1.57428">
        <ele>39.6</ele>
        <time>2019-04-23T13:15:33.000Z</time>
      </trkpt>
      <trkpt lat="49.48293" lon="-1.57429">
        <ele>39.6</ele>
        <time>2019-04-23T13:15:34.000Z</time>
      </trkpt>
      <trkpt lat="49.48292" lon="-1.5743">
        <ele>39.6</ele>
        <time>2019-04-23T13:15:35.000Z</time>
      </trkpt>
      <trkpt lat="49.48292" lon="-1.57431">
        <ele>39.6</ele>
        <time>2019-04-23T13:15:36.000Z</time>
      </trkpt>
      <trkpt lat="49.48292" lon="-1.57432">
        <ele>39.5</ele>
        <time>2019-04-23T13:15:37.000Z</time>
      </trkpt>
      <trkpt lat="49.48291" lon="-1.57434">
        <ele>39.5</ele>
        <time>2019-04-23T13:15:38.000Z</time>
      </trkpt>
      <trkpt lat="49.48291" lon="-1.57435">
        <ele>39.5</ele>
        <time>2019-04-23T13:15:39.000Z</time>
      </trkpt>
      <trkpt lat="49.48291" lon="-1.57436">
        <ele>39.5</ele>
        <time>2019-04-23T13:15:40.000Z</time>
      </trkpt>
      <trkpt lat="49.48291" lon="-1.57437">
        <ele>39.4</ele>
        <time>2019-04-23T13:15:41.000Z</time>
      </trkpt>
      <trkpt lat="49.4829" lon="-1.57439">
        <ele>39.4</ele>
        <time>2019-04-23T13:15:42.000Z</time>
      </trkpt>
      <trkpt lat="49.4829" lon="-1.5744">
        <ele>39.4</ele>
        <time>2019-04-23T13:15:43.000Z</time>
      </trkpt>
      <trkpt lat="49.4829" lon="-1.57441">
        <ele>39.4</ele>
        <time>2019-04-23T13:15:44.000Z</time>
      </trkpt>
      <trkpt lat="49.48289" lon="-1.57442">
        <ele>39.4</ele>
        <time>2019-04-23T13:15:45.000Z</time>
      </trkpt>
      <trkpt lat="49.48289" lon="-1.57444">
        <ele>39.3</ele>
        <time>2019-04-23T13:15:46.000Z</time>
      </trkpt>
      <trkpt lat="49.48289" lon="-1.57445">
        <ele>39.3</ele>
        <time>2019-04-23T13:15:47.000Z</time>
      </trkpt>
      <trkpt lat="49.48288" lon="-1.57446">
        <ele>39.3</ele>
        <time>2019-04-23T13:15:48.000Z</time>
      </trkpt>
      <trkpt lat="49.48288" lon="-1.57448">
        <ele>39.3</ele>
        <time>2019-04-23T13:15:49.000Z</time>
      </trkpt>
      <trkpt lat="49.48287" lon="-1.57449">
        <ele>39.2</ele>
        <time>2019-04-23T13:15:50.000Z</time>
      </trkpt>
      <trkpt lat="49.48287" lon="-1.57451">
        <ele>39.2</ele>
        <time>2019-04-23T13:15:51.000Z</time>
      </trkpt>
      <trkpt lat="49.48287" lon="-1.57452">
        <ele>39.2</ele>
        <time>2019-04-23T13:15:52.000Z</time>
      </trkpt>
      <trkpt lat="49.48286" lon="-1.57454">
        <ele>39.2</ele>
        <time>2019-04-23T13:15:53.000Z</time>
      </trkpt>
      <trkpt lat="49.48286" lon="-1.57455">
        <ele>39.2</ele>
        <time>2019-04-23T13:15:54.000Z</time>
      </trkpt>
      <trkpt lat="49.48285" lon="-1.57457">
        <ele>39.1</ele>
        <time>2019-04-23T13:15:55.000Z</time>
      </trkpt>
      <trkpt lat="49.48285" lon="-1.57459">
        <ele>39.1</ele>
        <time>2019-04-23T13:15:56.000Z</time>
      </trkpt>
      <trkpt lat="49.48284" lon="-1.5746">
        <ele>39.1</ele>
        <time>2019-04-23T13:15:57.000Z</time>
      </trkpt>
      <trkpt lat="49.48284" lon="-1.57462">
        <ele>39.1</ele>
        <time>2019-04-23T13:15:58.000Z</time>
      </trkpt>
      <trkpt lat="49.48283" lon="-1.57463">
        <ele>39.1</ele>
        <time>2019-04-23T13:15:59.000Z</time>
      </trkpt>
      <trkpt lat="49.48283" lon="-1.57465">
        <ele>39.1</ele>
        <time>2019-04-23T13:16:00.000Z</time>
      </trkpt>
      <trkpt lat="49.48282" lon="-1.57466">
        <ele>39</ele>
        <time>2019-04-23T13:16:01.000Z</time>
      </trkpt>
      <trkpt lat="49.48282" lon="-1.57468">
        <ele>39</ele>
        <time>2019-04-23T13:16:02.000Z</time>
      </trkpt>
      <trkpt lat="49.48281" lon="-1.57469">
        <ele>39</ele>
        <time>2019-04-23T13:16:03.000Z</time>
      </trkpt>
      <trkpt lat="49.48281" lon="-1.5747">
        <ele>39</ele>
        <time>2019-04-23T13:16:04.000Z</time>
      </trkpt>
      <trkpt lat="49.4828" lon="-1.57472">
        <ele>39</ele>
        <time>2019-04-23T13:16:05.000Z</time>
      </trkpt>
      <trkpt lat="49.4828" lon="-1.57473">
        <ele>39</ele>
        <time>2019-04-23T13:16:06.000Z</time>
      </trkpt>
      <trkpt lat="49.48279" lon="-1.57474">
        <ele>39</ele>
        <time>2019-04-23T13:16:07.000Z</time>
      </trkpt>
      <trkpt lat="49.48279" lon="-1.57475">
        <ele>39</ele>
        <time>2019-04-23T13:16:08.000Z</time>
      </trkpt>
      <trkpt lat="49.48279" lon="-1.57476">
        <ele>39</ele>
        <time>2019-04-23T13:16:09.000Z</time>
      </trkpt>
      <trkpt lat="49.48278" lon="-1.57477">
        <ele>39</ele>
        <time>2019-04-23T13:16:10.000Z</time>
      </trkpt>
      <trkpt lat="49.48278" lon="-1.57478">
        <ele>38.9</ele>
        <time>2019-04-23T13:16:11.000Z</time>
      </trkpt>
      <trkpt lat="49.48278" lon="-1.57478">
        <ele>38.9</ele>
        <time>2019-04-23T13:16:12.000Z</time>
      </trkpt>
      <trkpt lat="49.48277" lon="-1.57479">
        <ele>38.9</ele>
        <time>2019-04-23T13:16:13.000Z</time>
      </trkpt>
      <trkpt lat="49.48277" lon="-1.5748">
        <ele>38.9</ele>
        <time>2019-04-23T13:16:14.000Z</time>
      </trkpt>
      <trkpt lat="49.48277" lon="-1.57481">
        <ele>38.9</ele>
        <time>2019-04-23T13:16:15.000Z</time>
      </trkpt>
      <trkpt lat="49.48277" lon="-1.57482">
        <ele>38.9</ele>
        <time>2019-04-23T13:16:16.000Z</time>
      </trkpt>
      <trkpt lat="49.48277" lon="-1.57482">
        <ele>38.9</ele>
        <time>2019-04-23T13:16:17.000Z</time>
      </trkpt>
      <trkpt lat="49.48276" lon="-1.57483">
        <ele>38.9</ele>
        <time>2019-04-23T13:16:18.000Z</time>
      </trkpt>
      <trkpt lat="49.48276" lon="-1.57484">
        <ele>38.9</ele>
        <time>2019-04-23T13:16:19.000Z</time>
      </trkpt>
      <trkpt lat="49.48276" lon="-1.57485">
        <ele>38.9</ele>
        <time>2019-04-23T13:16:20.000Z</time>
      </trkpt>
      <trkpt lat="49.48276" lon="-1.57486">
        <ele>38.8</ele>
        <time>2019-04-23T13:16:21.000Z</time>
      </trkpt>
      <trkpt lat="49.48276" lon="-1.57487">
        <ele>38.8</ele>
        <time>2019-04-23T13:16:22.000Z</time>
      </trkpt>
      <trkpt lat="49.48276" lon="-1.57488">
        <ele>38.8</ele>
        <time>2019-04-23T13:16:23.000Z</time>
      </trkpt>
      <trkpt lat="49.48276" lon="-1.57489">
        <ele>38.8</ele>
        <time>2019-04-23T13:16:24.000Z</time>
      </trkpt>
      <trkpt lat="49.48276" lon="-1.5749">
        <ele>38.7</ele>
        <time>2019-04-23T13:16:25.000Z</time>
      </trkpt>
      <trkpt lat="49.48275" lon="-1.57491">
        <ele>38.7</ele>
        <time>2019-04-23T13:16:26.000Z</time>
      </trkpt>
      <trkpt lat="49.48275" lon="-1.57492">
        <ele>38.7</ele>
        <time>2019-04-23T13:16:27.000Z</time>
      </trkpt>
      <trkpt lat="49.48275" lon="-1.57493">
        <ele>38.7</ele>
        <time>2019-04-23T13:16:28.000Z</time>
      </trkpt>
      <trkpt lat="49.48275" lon="-1.57493">
        <ele>38.7</ele>
        <time>2019-04-23T13:16:29.000Z</time>
      </trkpt>
      <trkpt lat="49.48275" lon="-1.57493">
        <ele>38.7</ele>
        <time>2019-04-23T13:16:30.000Z</time>
      </trkpt>
      <trkpt lat="49.48275" lon="-1.57493">
        <ele>38.7</ele>
        <time>2019-04-23T13:16:31.000Z</time>
      </trkpt>
      <trkpt lat="49.48275" lon="-1.57493">
        <ele>38.7</ele>
        <time>2019-04-23T13:16:32.000Z</time>
      </trkpt>
      <trkpt lat="49.48275" lon="-1.57493">
        <ele>38.7</ele>
        <time>2019-04-23T13:16:33.000Z</time>
      </trkpt>
      <trkpt lat="49.48275" lon="-1.57494">
        <ele>38.7</ele>
        <time>2019-04-23T13:16:34.000Z</time>
      </trkpt>
      <trkpt lat="49.48275" lon="-1.57494">
        <ele>38.7</ele>
        <time>2019-04-23T13:16:35.000Z</time>
      </trkpt>
      <trkpt lat="49.48275" lon="-1.57495">
        <ele>38.6</ele>
        <time>2019-04-23T13:16:36.000Z</time>
      </trkpt>
      <trkpt lat="49.48275" lon="-1.57496">
        <ele>38.6</ele>
        <time>2019-04-23T13:16:37.000Z</time>
      </trkpt>
      <trkpt lat="49.48275" lon="-1.57497">
        <ele>38.6</ele>
        <time>2019-04-23T13:16:38.000Z</time>
      </trkpt>
      <trkpt lat="49.48274" lon="-1.57498">
        <ele>38.6</ele>
        <time>2019-04-23T13:16:39.000Z</time>
      </trkpt>
      <trkpt lat="49.48274" lon="-1.57498">
        <ele>38.6</ele>
        <time>2019-04-23T13:16:40.000Z</time>
      </trkpt>
      <trkpt lat="49.48273" lon="-1.57499">
        <ele>38.6</ele>
        <time>2019-04-23T13:16:41.000Z</time>
      </trkpt>
      <trkpt lat="49.48273" lon="-1.575">
        <ele>38.6</ele>
        <time>2019-04-23T13:16:42.000Z</time>
      </trkpt>
      <trkpt lat="49.48273" lon="-1.57501">
        <ele>38.6</ele>
        <time>2019-04-23T13:16:43.000Z</time>
      </trkpt>
      <trkpt lat="49.48273" lon="-1.57501">
        <ele>38.6</ele>
        <time>2019-04-23T13:16:44.000Z</time>
      </trkpt>
      <trkpt lat="49.48272" lon="-1.57502">
        <ele>38.7</ele>
        <time>2019-04-23T13:16:45.000Z</time>
      </trkpt>
      <trkpt lat="49.48272" lon="-1.57502">
        <ele>38.7</ele>
        <time>2019-04-23T13:16:46.000Z</time>
      </trkpt>
      <trkpt lat="49.48272" lon="-1.57503">
        <ele>38.7</ele>
        <time>2019-04-23T13:16:47.000Z</time>
      </trkpt>
      <trkpt lat="49.48272" lon="-1.57503">
        <ele>38.7</ele>
        <time>2019-04-23T13:16:48.000Z</time>
      </trkpt>
      <trkpt lat="49.48272" lon="-1.57503">
        <ele>38.7</ele>
        <time>2019-04-23T13:16:49.000Z</time>
      </trkpt>
      <trkpt lat="49.48272" lon="-1.57503">
        <ele>38.7</ele>
        <time>2019-04-23T13:16:50.000Z</time>
      </trkpt>
      <trkpt lat="49.48272" lon="-1.57503">
        <ele>38.7</ele>
        <time>2019-04-23T13:16:51.000Z</time>
      </trkpt>
      <trkpt lat="49.48272" lon="-1.57503">
        <ele>38.7</ele>
        <time>2019-04-23T13:16:52.000Z</time>
      </trkpt>
      <trkpt lat="49.48272" lon="-1.57503">
        <ele>38.7</ele>
        <time>2019-04-23T13:16:53.000Z</time>
      </trkpt>
      <trkpt lat="49.48272" lon="-1.57503">
        <ele>38.7</ele>
        <time>2019-04-23T13:16:54.000Z</time>
      </trkpt>
      <trkpt lat="49.48272" lon="-1.57503">
        <ele>38.7</ele>
        <time>2019-04-23T13:16:55.000Z</time>
      </trkpt>
      <trkpt lat="49.48272" lon="-1.57503">
        <ele>38.7</ele>
        <time>2019-04-23T13:16:56.000Z</time>
      </trkpt>
      <trkpt lat="49.48272" lon="-1.57503">
        <ele>38.7</ele>
        <time>2019-04-23T13:16:57.000Z</time>
      </trkpt>
      <trkpt lat="49.48272" lon="-1.57503">
        <ele>38.7</ele>
        <time>2019-04-23T13:16:58.000Z</time>
      </trkpt>
      <trkpt lat="49.48272" lon="-1.57503">
        <ele>38.7</ele>
        <time>2019-04-23T13:16:59.000Z</time>
      </trkpt>
      <trkpt lat="49.48272" lon="-1.57504">
        <ele>38.7</ele>
        <time>2019-04-23T13:17:00.000Z</time>
      </trkpt>
      <trkpt lat="49.48271" lon="-1.57504">
        <ele>38.7</ele>
        <time>2019-04-23T13:17:01.000Z</time>
      </trkpt>
      <trkpt lat="49.48271" lon="-1.57505">
        <ele>38.7</ele>
        <time>2019-04-23T13:17:02.000Z</time>
      </trkpt>
      <trkpt lat="49.48271" lon="-1.57506">
        <ele>38.7</ele>
        <time>2019-04-23T13:17:03.000Z</time>
      </trkpt>
      <trkpt lat="49.4827" lon="-1.57507">
        <ele>38.8</ele>
        <time>2019-04-23T13:17:04.000Z</time>
      </trkpt>
      <trkpt lat="49.4827" lon="-1.57508">
        <ele>38.8</ele>
        <time>2019-04-23T13:17:05.000Z</time>
      </trkpt>
      <trkpt lat="49.48269" lon="-1.57509">
        <ele>38.8</ele>
        <time>2019-04-23T13:17:06.000Z</time>
      </trkpt>
      <trkpt lat="49.48269" lon="-1.5751">
        <ele>38.8</ele>
        <time>2019-04-23T13:17:07.000Z</time>
      </trkpt>
      <trkpt lat="49.48268" lon="-1.57511">
        <ele>38.8</ele>
        <time>2019-04-23T13:17:08.000Z</time>
      </trkpt>
      <trkpt lat="49.48267" lon="-1.57512">
        <ele>38.9</ele>
        <time>2019-04-23T13:17:09.000Z</time>
      </trkpt>
      <trkpt lat="49.48267" lon="-1.57513">
        <ele>38.9</ele>
        <time>2019-04-23T13:17:10.000Z</time>
      </trkpt>
      <trkpt lat="49.48266" lon="-1.57515">
        <ele>38.9</ele>
        <time>2019-04-23T13:17:11.000Z</time>
      </trkpt>
      <trkpt lat="49.48266" lon="-1.57516">
        <ele>39</ele>
        <time>2019-04-23T13:17:12.000Z</time>
      </trkpt>
      <trkpt lat="49.48265" lon="-1.57517">
        <ele>39</ele>
        <time>2019-04-23T13:17:13.000Z</time>
      </trkpt>
      <trkpt lat="49.48264" lon="-1.57519">
        <ele>39</ele>
        <time>2019-04-23T13:17:14.000Z</time>
      </trkpt>
      <trkpt lat="49.48264" lon="-1.5752">
        <ele>39</ele>
        <time>2019-04-23T13:17:15.000Z</time>
      </trkpt>
      <trkpt lat="49.48263" lon="-1.57521">
        <ele>39</ele>
        <time>2019-04-23T13:17:16.000Z</time>
      </trkpt>
      <trkpt lat="49.48262" lon="-1.57523">
        <ele>39.1</ele>
        <time>2019-04-23T13:17:17.000Z</time>
      </trkpt>
      <trkpt lat="49.48262" lon="-1.57524">
        <ele>39.1</ele>
        <time>2019-04-23T13:17:18.000Z</time>
      </trkpt>
      <trkpt lat="49.48261" lon="-1.57525">
        <ele>39.1</ele>
        <time>2019-04-23T13:17:19.000Z</time>
      </trkpt>
      <trkpt lat="49.48261" lon="-1.57527">
        <ele>39.1</ele>
        <time>2019-04-23T13:17:20.000Z</time>
      </trkpt>
      <trkpt lat="49.4826" lon="-1.57528">
        <ele>39.1</ele>
        <time>2019-04-23T13:17:21.000Z</time>
      </trkpt>
      <trkpt lat="49.4826" lon="-1.57529">
        <ele>39.1</ele>
        <time>2019-04-23T13:17:22.000Z</time>
      </trkpt>
      <trkpt lat="49.4826" lon="-1.57531">
        <ele>39.1</ele>
        <time>2019-04-23T13:17:23.000Z</time>
      </trkpt>
      <trkpt lat="49.48259" lon="-1.57532">
        <ele>39.1</ele>
        <time>2019-04-23T13:17:24.000Z</time>
      </trkpt>
      <trkpt lat="49.48259" lon="-1.57534">
        <ele>39.1</ele>
        <time>2019-04-23T13:17:25.000Z</time>
      </trkpt>
      <trkpt lat="49.48259" lon="-1.57535">
        <ele>39.1</ele>
        <time>2019-04-23T13:17:26.000Z</time>
      </trkpt>
      <trkpt lat="49.48259" lon="-1.57537">
        <ele>39.1</ele>
        <time>2019-04-23T13:17:27.000Z</time>
      </trkpt>
      <trkpt lat="49.48259" lon="-1.57539">
        <ele>39.1</ele>
        <time>2019-04-23T13:17:28.000Z</time>
      </trkpt>
      <trkpt lat="49.48259" lon="-1.57541">
        <ele>39.1</ele>
        <time>2019-04-23T13:17:29.000Z</time>
      </trkpt>
      <trkpt lat="49.48258" lon="-1.57542">
        <ele>39.1</ele>
        <time>2019-04-23T13:17:30.000Z</time>
      </trkpt>
      <trkpt lat="49.48258" lon="-1.57544">
        <ele>39.1</ele>
        <time>2019-04-23T13:17:31.000Z</time>
      </trkpt>
      <trkpt lat="49.48258" lon="-1.57546">
        <ele>39.1</ele>
        <time>2019-04-23T13:17:32.000Z</time>
      </trkpt>
      <trkpt lat="49.48257" lon="-1.57547">
        <ele>39.1</ele>
        <time>2019-04-23T13:17:33.000Z</time>
      </trkpt>
      <trkpt lat="49.48256" lon="-1.57549">
        <ele>39.1</ele>
        <time>2019-04-23T13:17:34.000Z</time>
      </trkpt>
      <trkpt lat="49.48256" lon="-1.5755">
        <ele>39.1</ele>
        <time>2019-04-23T13:17:35.000Z</time>
      </trkpt>
      <trkpt lat="49.48255" lon="-1.57551">
        <ele>39.1</ele>
        <time>2019-04-23T13:17:36.000Z</time>
      </trkpt>
      <trkpt lat="49.48255" lon="-1.57553">
        <ele>39.2</ele>
        <time>2019-04-23T13:17:37.000Z</time>
      </trkpt>
      <trkpt lat="49.48254" lon="-1.57554">
        <ele>39.2</ele>
        <time>2019-04-23T13:17:38.000Z</time>
      </trkpt>
      <trkpt lat="49.48253" lon="-1.57555">
        <ele>39.2</ele>
        <time>2019-04-23T13:17:39.000Z</time>
      </trkpt>
      <trkpt lat="49.48253" lon="-1.57556">
        <ele>39.2</ele>
        <time>2019-04-23T13:17:40.000Z</time>
      </trkpt>
      <trkpt lat="49.48252" lon="-1.57557">
        <ele>39.2</ele>
        <time>2019-04-23T13:17:41.000Z</time>
      </trkpt>
      <trkpt lat="49.48252" lon="-1.57558">
        <ele>39.2</ele>
        <time>2019-04-23T13:17:42.000Z</time>
      </trkpt>
      <trkpt lat="49.48251" lon="-1.57559">
        <ele>39.3</ele>
        <time>2019-04-23T13:17:43.000Z</time>
      </trkpt>
      <trkpt lat="49.4825" lon="-1.5756">
        <ele>39.3</ele>
        <time>2019-04-23T13:17:44.000Z</time>
      </trkpt>
      <trkpt lat="49.4825" lon="-1.57561">
        <ele>39.3</ele>
        <time>2019-04-23T13:17:45.000Z</time>
      </trkpt>
      <trkpt lat="49.48249" lon="-1.57562">
        <ele>39.3</ele>
        <time>2019-04-23T13:17:46.000Z</time>
      </trkpt>
      <trkpt lat="49.48249" lon="-1.57564">
        <ele>39.3</ele>
        <time>2019-04-23T13:17:47.000Z</time>
      </trkpt>
      <trkpt lat="49.48248" lon="-1.57565">
        <ele>39.3</ele>
        <time>2019-04-23T13:17:48.000Z</time>
      </trkpt>
      <trkpt lat="49.48248" lon="-1.57566">
        <ele>39.3</ele>
        <time>2019-04-23T13:17:49.000Z</time>
      </trkpt>
      <trkpt lat="49.48247" lon="-1.57568">
        <ele>39.3</ele>
        <time>2019-04-23T13:17:50.000Z</time>
      </trkpt>
      <trkpt lat="49.48247" lon="-1.57569">
        <ele>39.4</ele>
        <time>2019-04-23T13:17:51.000Z</time>
      </trkpt>
      <trkpt lat="49.48247" lon="-1.57571">
        <ele>39.4</ele>
        <time>2019-04-23T13:17:52.000Z</time>
      </trkpt>
      <trkpt lat="49.48246" lon="-1.57572">
        <ele>39.4</ele>
        <time>2019-04-23T13:17:53.000Z</time>
      </trkpt>
      <trkpt lat="49.48246" lon="-1.57574">
        <ele>39.4</ele>
        <time>2019-04-23T13:17:54.000Z</time>
      </trkpt>
      <trkpt lat="49.48246" lon="-1.57575">
        <ele>39.4</ele>
        <time>2019-04-23T13:17:55.000Z</time>
      </trkpt>
      <trkpt lat="49.48245" lon="-1.57577">
        <ele>39.4</ele>
        <time>2019-04-23T13:17:56.000Z</time>
      </trkpt>
      <trkpt lat="49.48245" lon="-1.57579">
        <ele>39.4</ele>
        <time>2019-04-23T13:17:57.000Z</time>
      </trkpt>
      <trkpt lat="49.48245" lon="-1.5758">
        <ele>39.4</ele>
        <time>2019-04-23T13:17:58.000Z</time>
      </trkpt>
      <trkpt lat="49.48244" lon="-1.57582">
        <ele>39.4</ele>
        <time>2019-04-23T13:17:59.000Z</time>
      </trkpt>
      <trkpt lat="49.48244" lon="-1.57584">
        <ele>39.4</ele>
        <time>2019-04-23T13:18:00.000Z</time>
      </trkpt>
      <trkpt lat="49.48244" lon="-1.57585">
        <ele>39.4</ele>
        <time>2019-04-23T13:18:01.000Z</time>
      </trkpt>
      <trkpt lat="49.48243" lon="-1.57587">
        <ele>39.3</ele>
        <time>2019-04-23T13:18:02.000Z</time>
      </trkpt>
      <trkpt lat="49.48243" lon="-1.57589">
        <ele>39.3</ele>
        <time>2019-04-23T13:18:03.000Z</time>
      </trkpt>
      <trkpt lat="49.48243" lon="-1.5759">
        <ele>39.3</ele>
        <time>2019-04-23T13:18:04.000Z</time>
      </trkpt>
      <trkpt lat="49.48242" lon="-1.57592">
        <ele>39.3</ele>
        <time>2019-04-23T13:18:05.000Z</time>
      </trkpt>
      <trkpt lat="49.48242" lon="-1.57594">
        <ele>39.3</ele>
        <time>2019-04-23T13:18:06.000Z</time>
      </trkpt>
      <trkpt lat="49.48242" lon="-1.57595">
        <ele>39.3</ele>
        <time>2019-04-23T13:18:07.000Z</time>
      </trkpt>
      <trkpt lat="49.48241" lon="-1.57597">
        <ele>39.4</ele>
        <time>2019-04-23T13:18:08.000Z</time>
      </trkpt>
      <trkpt lat="49.48241" lon="-1.57598">
        <ele>39.4</ele>
        <time>2019-04-23T13:18:09.000Z</time>
      </trkpt>
      <trkpt lat="49.4824" lon="-1.57599">
        <ele>39.4</ele>
        <time>2019-04-23T13:18:10.000Z</time>
      </trkpt>
      <trkpt lat="49.4824" lon="-1.57601">
        <ele>39.4</ele>
        <time>2019-04-23T13:18:11.000Z</time>
      </trkpt>
      <trkpt lat="49.48239" lon="-1.57602">
        <ele>39.4</ele>
        <time>2019-04-23T13:18:12.000Z</time>
      </trkpt>
      <trkpt lat="49.48239" lon="-1.57604">
        <ele>39.4</ele>
        <time>2019-04-23T13:18:13.000Z</time>
      </trkpt>
      <trkpt lat="49.48238" lon="-1.57605">
        <ele>39.4</ele>
        <time>2019-04-23T13:18:14.000Z</time>
      </trkpt>
      <trkpt lat="49.48238" lon="-1.57606">
        <ele>39.4</ele>
        <time>2019-04-23T13:18:15.000Z</time>
      </trkpt>
      <trkpt lat="49.48237" lon="-1.57608">
        <ele>39.4</ele>
        <time>2019-04-23T13:18:16.000Z</time>
      </trkpt>
      <trkpt lat="49.48237" lon="-1.57609">
        <ele>39.4</ele>
        <time>2019-04-23T13:18:17.000Z</time>
      </trkpt>
      <trkpt lat="49.48236" lon="-1.5761">
        <ele>39.4</ele>
        <time>2019-04-23T13:18:18.000Z</time>
      </trkpt>
      <trkpt lat="49.48236" lon="-1.57612">
        <ele>39.5</ele>
        <time>2019-04-23T13:18:19.000Z</time>
      </trkpt>
      <trkpt lat="49.48235" lon="-1.57613">
        <ele>39.5</ele>
        <time>2019-04-23T13:18:20.000Z</time>
      </trkpt>
      <trkpt lat="49.48235" lon="-1.57615">
        <ele>39.5</ele>
        <time>2019-04-23T13:18:21.000Z</time>
      </trkpt>
      <trkpt lat="49.48234" lon="-1.57616">
        <ele>39.5</ele>
        <time>2019-04-23T13:18:22.000Z</time>
      </trkpt>
      <trkpt lat="49.48234" lon="-1.57618">
        <ele>39.5</ele>
        <time>2019-04-23T13:18:23.000Z</time>
      </trkpt>
      <trkpt lat="49.48233" lon="-1.57619">
        <ele>39.5</ele>
        <time>2019-04-23T13:18:24.000Z</time>
      </trkpt>
      <trkpt lat="49.48233" lon="-1.57621">
        <ele>39.5</ele>
        <time>2019-04-23T13:18:25.000Z</time>
      </trkpt>
      <trkpt lat="49.48232" lon="-1.57622">
        <ele>39.5</ele>
        <time>2019-04-23T13:18:26.000Z</time>
      </trkpt>
      <trkpt lat="49.48232" lon="-1.57624">
        <ele>39.5</ele>
        <time>2019-04-23T13:18:27.000Z</time>
      </trkpt>
      <trkpt lat="49.48231" lon="-1.57625">
        <ele>39.5</ele>
        <time>2019-04-23T13:18:28.000Z</time>
      </trkpt>
      <trkpt lat="49.48231" lon="-1.57627">
        <ele>39.5</ele>
        <time>2019-04-23T13:18:29.000Z</time>
      </trkpt>
      <trkpt lat="49.4823" lon="-1.57628">
        <ele>39.5</ele>
        <time>2019-04-23T13:18:30.000Z</time>
      </trkpt>
      <trkpt lat="49.48229" lon="-1.57629">
        <ele>39.6</ele>
        <time>2019-04-23T13:18:31.000Z</time>
      </trkpt>
      <trkpt lat="49.48229" lon="-1.57631">
        <ele>39.6</ele>
        <time>2019-04-23T13:18:32.000Z</time>
      </trkpt>
      <trkpt lat="49.48228" lon="-1.57632">
        <ele>39.6</ele>
        <time>2019-04-23T13:18:33.000Z</time>
      </trkpt>
      <trkpt lat="49.48227" lon="-1.57633">
        <ele>39.6</ele>
        <time>2019-04-23T13:18:34.000Z</time>
      </trkpt>
      <trkpt lat="49.48227" lon="-1.57635">
        <ele>39.6</ele>
        <time>2019-04-23T13:18:35.000Z</time>
      </trkpt>
      <trkpt lat="49.48226" lon="-1.57636">
        <ele>39.6</ele>
        <time>2019-04-23T13:18:36.000Z</time>
      </trkpt>
      <trkpt lat="49.48225" lon="-1.57637">
        <ele>39.7</ele>
        <time>2019-04-23T13:18:37.000Z</time>
      </trkpt>
      <trkpt lat="49.48224" lon="-1.57638">
        <ele>39.7</ele>
        <time>2019-04-23T13:18:38.000Z</time>
      </trkpt>
      <trkpt lat="49.48224" lon="-1.5764">
        <ele>39.7</ele>
        <time>2019-04-23T13:18:39.000Z</time>
      </trkpt>
      <trkpt lat="49.48223" lon="-1.57641">
        <ele>39.7</ele>
        <time>2019-04-23T13:18:40.000Z</time>
      </trkpt>
      <trkpt lat="49.48223" lon="-1.57642">
        <ele>39.7</ele>
        <time>2019-04-23T13:18:41.000Z</time>
      </trkpt>
      <trkpt lat="49.48222" lon="-1.57643">
        <ele>39.7</ele>
        <time>2019-04-23T13:18:42.000Z</time>
      </trkpt>
      <trkpt lat="49.48222" lon="-1.57645">
        <ele>39.7</ele>
        <time>2019-04-23T13:18:43.000Z</time>
      </trkpt>
      <trkpt lat="49.48222" lon="-1.57646">
        <ele>39.7</ele>
        <time>2019-04-23T13:18:44.000Z</time>
      </trkpt>
      <trkpt lat="49.48222" lon="-1.57647">
        <ele>39.7</ele>
        <time>2019-04-23T13:18:45.000Z</time>
      </trkpt>
      <trkpt lat="49.48222" lon="-1.57649">
        <ele>39.7</ele>
        <time>2019-04-23T13:18:46.000Z</time>
      </trkpt>
      <trkpt lat="49.48222" lon="-1.5765">
        <ele>39.6</ele>
        <time>2019-04-23T13:18:47.000Z</time>
      </trkpt>
      <trkpt lat="49.48221" lon="-1.57651">
        <ele>39.6</ele>
        <time>2019-04-23T13:18:48.000Z</time>
      </trkpt>
      <trkpt lat="49.48221" lon="-1.57653">
        <ele>39.6</ele>
        <time>2019-04-23T13:18:49.000Z</time>
      </trkpt>
      <trkpt lat="49.48221" lon="-1.57655">
        <ele>39.6</ele>
        <time>2019-04-23T13:18:50.000Z</time>
      </trkpt>
      <trkpt lat="49.48221" lon="-1.57656">
        <ele>39.6</ele>
        <time>2019-04-23T13:18:51.000Z</time>
      </trkpt>
      <trkpt lat="49.48221" lon="-1.57658">
        <ele>39.6</ele>
        <time>2019-04-23T13:18:52.000Z</time>
      </trkpt>
      <trkpt lat="49.4822" lon="-1.5766">
        <ele>39.5</ele>
        <time>2019-04-23T13:18:53.000Z</time>
      </trkpt>
      <trkpt lat="49.4822" lon="-1.57662">
        <ele>39.5</ele>
        <time>2019-04-23T13:18:54.000Z</time>
      </trkpt>
      <trkpt lat="49.48219" lon="-1.57664">
        <ele>39.5</ele>
        <time>2019-04-23T13:18:55.000Z</time>
      </trkpt>
      <trkpt lat="49.48219" lon="-1.57665">
        <ele>39.5</ele>
        <time>2019-04-23T13:18:56.000Z</time>
      </trkpt>
      <trkpt lat="49.48218" lon="-1.57667">
        <ele>39.6</ele>
        <time>2019-04-23T13:18:57.000Z</time>
      </trkpt>
      <trkpt lat="49.48217" lon="-1.57669">
        <ele>39.7</ele>
        <time>2019-04-23T13:18:58.000Z</time>
      </trkpt>
      <trkpt lat="49.48217" lon="-1.57671">
        <ele>39.8</ele>
        <time>2019-04-23T13:18:59.000Z</time>
      </trkpt>
      <trkpt lat="49.48216" lon="-1.57673">
        <ele>39.8</ele>
        <time>2019-04-23T13:19:00.000Z</time>
      </trkpt>
      <trkpt lat="49.48216" lon="-1.57674">
        <ele>39.9</ele>
        <time>2019-04-23T13:19:01.000Z</time>
      </trkpt>
      <trkpt lat="49.48215" lon="-1.57676">
        <ele>40</ele>
        <time>2019-04-23T13:19:02.000Z</time>
      </trkpt>
      <trkpt lat="49.48215" lon="-1.57677">
        <ele>40.1</ele>
        <time>2019-04-23T13:19:03.000Z</time>
      </trkpt>
      <trkpt lat="49.48214" lon="-1.57679">
        <ele>40.2</ele>
        <time>2019-04-23T13:19:04.000Z</time>
      </trkpt>
      <trkpt lat="49.48214" lon="-1.5768">
        <ele>40.2</ele>
        <time>2019-04-23T13:19:05.000Z</time>
      </trkpt>
      <trkpt lat="49.48214" lon="-1.57682">
        <ele>40.3</ele>
        <time>2019-04-23T13:19:06.000Z</time>
      </trkpt>
      <trkpt lat="49.48213" lon="-1.57684">
        <ele>40.4</ele>
        <time>2019-04-23T13:19:07.000Z</time>
      </trkpt>
      <trkpt lat="49.48213" lon="-1.57686">
        <ele>40.5</ele>
        <time>2019-04-23T13:19:08.000Z</time>
      </trkpt>
      <trkpt lat="49.48213" lon="-1.57688">
        <ele>40.6</ele>
        <time>2019-04-23T13:19:09.000Z</time>
      </trkpt>
      <trkpt lat="49.48213" lon="-1.57689">
        <ele>40.6</ele>
        <time>2019-04-23T13:19:10.000Z</time>
      </trkpt>
      <trkpt lat="49.48213" lon="-1.5769">
        <ele>40.7</ele>
        <time>2019-04-23T13:19:11.000Z</time>
      </trkpt>
      <trkpt lat="49.48213" lon="-1.57691">
        <ele>40.7</ele>
        <time>2019-04-23T13:19:12.000Z</time>
      </trkpt>
      <trkpt lat="49.48213" lon="-1.57692">
        <ele>40.7</ele>
        <time>2019-04-23T13:19:13.000Z</time>
      </trkpt>
      <trkpt lat="49.48213" lon="-1.57693">
        <ele>40.8</ele>
        <time>2019-04-23T13:19:14.000Z</time>
      </trkpt>
      <trkpt lat="49.48213" lon="-1.57694">
        <ele>40.8</ele>
        <time>2019-04-23T13:19:15.000Z</time>
      </trkpt>
      <trkpt lat="49.48213" lon="-1.57694">
        <ele>40.8</ele>
        <time>2019-04-23T13:19:16.000Z</time>
      </trkpt>
      <trkpt lat="49.48214" lon="-1.57695">
        <ele>40.8</ele>
        <time>2019-04-23T13:19:17.000Z</time>
      </trkpt>
      <trkpt lat="49.48214" lon="-1.57695">
        <ele>40.8</ele>
        <time>2019-04-23T13:19:18.000Z</time>
      </trkpt>
      <trkpt lat="49.48214" lon="-1.57696">
        <ele>40.8</ele>
        <time>2019-04-23T13:19:19.000Z</time>
      </trkpt>
      <trkpt lat="49.48214" lon="-1.57696">
        <ele>40.8</ele>
        <time>2019-04-23T13:19:20.000Z</time>
      </trkpt>
      <trkpt lat="49.48214" lon="-1.57696">
        <ele>40.9</ele>
        <time>2019-04-23T13:19:21.000Z</time>
      </trkpt>
      <trkpt lat="49.48214" lon="-1.57697">
        <ele>40.9</ele>
        <time>2019-04-23T13:19:22.000Z</time>
      </trkpt>
      <trkpt lat="49.48214" lon="-1.57697">
        <ele>40.9</ele>
        <time>2019-04-23T13:19:23.000Z</time>
      </trkpt>
      <trkpt lat="49.48214" lon="-1.57697">
        <ele>40.9</ele>
        <time>2019-04-23T13:19:24.000Z</time>
      </trkpt>
      <trkpt lat="49.48214" lon="-1.57697">
        <ele>40.9</ele>
        <time>2019-04-23T13:19:25.000Z</time>
      </trkpt>
      <trkpt lat="49.48214" lon="-1.57697">
        <ele>40.9</ele>
        <time>2019-04-23T13:19:26.000Z</time>
      </trkpt>
      <trkpt lat="49.48214" lon="-1.57697">
        <ele>40.9</ele>
        <time>2019-04-23T13:19:27.000Z</time>
      </trkpt>
      <trkpt lat="49.48214" lon="-1.57697">
        <ele>40.9</ele>
        <time>2019-04-23T13:19:28.000Z</time>
      </trkpt>
      <trkpt lat="49.48214" lon="-1.57697">
        <ele>40.9</ele>
        <time>2019-04-23T13:19:29.000Z</time>
      </trkpt>
      <trkpt lat="49.48214" lon="-1.57697">
        <ele>40.9</ele>
        <time>2019-04-23T13:19:30.000Z</time>
      </trkpt>
      <trkpt lat="49.48214" lon="-1.57697">
        <ele>40.9</ele>
        <time>2019-04-23T13:19:31.000Z</time>
      </trkpt>
      <trkpt lat="49.48214" lon="-1.57697">
        <ele>40.9</ele>
        <time>2019-04-23T13:19:32.000Z</time>
      </trkpt>
      <trkpt lat="49.48214" lon="-1.57697">
        <ele>40.9</ele>
        <time>2019-04-23T13:19:33.000Z</time>
      </trkpt>
      <trkpt lat="49.48214" lon="-1.57697">
        <ele>40.9</ele>
        <time>2019-04-23T13:19:34.000Z</time>
      </trkpt>
      <trkpt lat="49.48214" lon="-1.57697">
        <ele>40.9</ele>
        <time>2019-04-23T13:19:35.000Z</time>
      </trkpt>
      <trkpt lat="49.48214" lon="-1.57697">
        <ele>40.9</ele>
        <time>2019-04-23T13:19:36.000Z</time>
      </trkpt>
      <trkpt lat="49.48214" lon="-1.57697">
        <ele>40.9</ele>
        <time>2019-04-23T13:19:37.000Z</time>
      </trkpt>
      <trkpt lat="49.48214" lon="-1.57697">
        <ele>40.9</ele>
        <time>2019-04-23T13:19:38.000Z</time>
      </trkpt>
      <trkpt lat="49.48214" lon="-1.57697">
        <ele>40.9</ele>
        <time>2019-04-23T13:19:39.000Z</time>
      </trkpt>
      <trkpt lat="49.48214" lon="-1.57697">
        <ele>40.9</ele>
        <time>2019-04-23T13:19:40.000Z</time>
      </trkpt>
      <trkpt lat="49.48214" lon="-1.57697">
        <ele>40.9</ele>
        <time>2019-04-23T13:19:41.000Z</time>
      </trkpt>
      <trkpt lat="49.48214" lon="-1.57697">
        <ele>40.9</ele>
        <time>2019-04-23T13:19:42.000Z</time>
      </trkpt>
      <trkpt lat="49.48214" lon="-1.57697">
        <ele>40.9</ele>
        <time>2019-04-23T13:19:43.000Z</time>
      </trkpt>
      <trkpt lat="49.48214" lon="-1.57697">
        <ele>40.9</ele>
        <time>2019-04-23T13:19:44.000Z</time>
      </trkpt>
      <trkpt lat="49.48214" lon="-1.57697">
        <ele>40.9</ele>
        <time>2019-04-23T13:19:45.000Z</time>
      </trkpt>
      <trkpt lat="49.48214" lon="-1.57697">
        <ele>40.9</ele>
        <time>2019-04-23T13:19:46.000Z</time>
      </trkpt>
      <trkpt lat="49.48214" lon="-1.57697">
        <ele>40.9</ele>
        <time>2019-04-23T13:19:47.000Z</time>
      </trkpt>
      <trkpt lat="49.48214" lon="-1.57697">
        <ele>40.9</ele>
        <time>2019-04-23T13:19:48.000Z</time>
      </trkpt>
      <trkpt lat="49.48214" lon="-1.57697">
        <ele>40.9</ele>
        <time>2019-04-23T13:19:49.000Z</time>
      </trkpt>
      <trkpt lat="49.48214" lon="-1.57697">
        <ele>40.9</ele>
        <time>2019-04-23T13:19:50.000Z</time>
      </trkpt>
      <trkpt lat="49.48214" lon="-1.57697">
        <ele>40.9</ele>
        <time>2019-04-23T13:19:51.000Z</time>
      </trkpt>
      <trkpt lat="49.48214" lon="-1.57697">
        <ele>40.9</ele>
        <time>2019-04-23T13:19:52.000Z</time>
      </trkpt>
      <trkpt lat="49.48214" lon="-1.57697">
        <ele>40.9</ele>
        <time>2019-04-23T13:19:53.000Z</time>
      </trkpt>
      <trkpt lat="49.48214" lon="-1.57697">
        <ele>40.9</ele>
        <time>2019-04-23T13:19:54.000Z</time>
      </trkpt>
      <trkpt lat="49.48214" lon="-1.57697">
        <ele>40.9</ele>
        <time>2019-04-23T13:19:55.000Z</time>
      </trkpt>
      <trkpt lat="49.48214" lon="-1.57697">
        <ele>40.9</ele>
        <time>2019-04-23T13:19:56.000Z</time>
      </trkpt>
      <trkpt lat="49.48214" lon="-1.57697">
        <ele>40.9</ele>
        <time>2019-04-23T13:19:57.000Z</time>
      </trkpt>
      <trkpt lat="49.48214" lon="-1.57697">
        <ele>40.9</ele>
        <time>2019-04-23T13:19:58.000Z</time>
      </trkpt>
      <trkpt lat="49.48214" lon="-1.57697">
        <ele>40.9</ele>
        <time>2019-04-23T13:19:59.000Z</time>
      </trkpt>
      <trkpt lat="49.48214" lon="-1.57697">
        <ele>40.9</ele>
        <time>2019-04-23T13:20:00.000Z</time>
      </trkpt>
      <trkpt lat="49.48214" lon="-1.57697">
        <ele>40.9</ele>
        <time>2019-04-23T13:20:01.000Z</time>
      </trkpt>
      <trkpt lat="49.48214" lon="-1.57697">
        <ele>40.9</ele>
        <time>2019-04-23T13:20:02.000Z</time>
      </trkpt>
      <trkpt lat="49.48214" lon="-1.57697">
        <ele>40.9</ele>
        <time>2019-04-23T13:20:03.000Z</time>
      </trkpt>
      <trkpt lat="49.48214" lon="-1.57697">
        <ele>40.9</ele>
        <time>2019-04-23T13:20:04.000Z</time>
      </trkpt>
      <trkpt lat="49.48214" lon="-1.57697">
        <ele>40.9</ele>
        <time>2019-04-23T13:20:05.000Z</time>
      </trkpt>
      <trkpt lat="49.48214" lon="-1.57697">
        <ele>40.9</ele>
        <time>2019-04-23T13:20:06.000Z</time>
      </trkpt>
      <trkpt lat="49.48214" lon="-1.57697">
        <ele>40.9</ele>
        <time>2019-04-23T13:20:07.000Z</time>
      </trkpt>
      <trkpt lat="49.48214" lon="-1.57697">
        <ele>40.9</ele>
        <time>2019-04-23T13:20:08.000Z</time>
      </trkpt>
      <trkpt lat="49.48214" lon="-1.57697">
        <ele>40.9</ele>
        <time>2019-04-23T13:20:09.000Z</time>
      </trkpt>
      <trkpt lat="49.48214" lon="-1.57697">
        <ele>40.9</ele>
        <time>2019-04-23T13:20:10.000Z</time>
      </trkpt>
      <trkpt lat="49.48214" lon="-1.57697">
        <ele>40.9</ele>
        <time>2019-04-23T13:20:11.000Z</time>
      </trkpt>
      <trkpt lat="49.48214" lon="-1.57697">
        <ele>40.9</ele>
        <time>2019-04-23T13:20:12.000Z</time>
      </trkpt>
      <trkpt lat="49.48214" lon="-1.57697">
        <ele>40.9</ele>
        <time>2019-04-23T13:20:13.000Z</time>
      </trkpt>
      <trkpt lat="49.48214" lon="-1.57697">
        <ele>40.9</ele>
        <time>2019-04-23T13:20:14.000Z</time>
      </trkpt>
      <trkpt lat="49.48214" lon="-1.57697">
        <ele>40.9</ele>
        <time>2019-04-23T13:20:15.000Z</time>
      </trkpt>
      <trkpt lat="49.48214" lon="-1.57697">
        <ele>40.9</ele>
        <time>2019-04-23T13:20:16.000Z</time>
      </trkpt>
      <trkpt lat="49.48214" lon="-1.57697">
        <ele>40.9</ele>
        <time>2019-04-23T13:20:17.000Z</time>
      </trkpt>
      <trkpt lat="49.48214" lon="-1.57697">
        <ele>40.9</ele>
        <time>2019-04-23T13:20:18.000Z</time>
      </trkpt>
      <trkpt lat="49.48214" lon="-1.57697">
        <ele>40.9</ele>
        <time>2019-04-23T13:20:19.000Z</time>
      </trkpt>
      <trkpt lat="49.48214" lon="-1.57697">
        <ele>40.9</ele>
        <time>2019-04-23T13:20:20.000Z</time>
      </trkpt>
      <trkpt lat="49.48214" lon="-1.57697">
        <ele>40.9</ele>
        <time>2019-04-23T13:20:21.000Z</time>
      </trkpt>
      <trkpt lat="49.48214" lon="-1.57697">
        <ele>40.9</ele>
        <time>2019-04-23T13:20:22.000Z</time>
      </trkpt>
      <trkpt lat="49.48214" lon="-1.57697">
        <ele>40.9</ele>
        <time>2019-04-23T13:20:23.000Z</time>
      </trkpt>
      <trkpt lat="49.48214" lon="-1.57697">
        <ele>40.9</ele>
        <time>2019-04-23T13:20:24.000Z</time>
      </trkpt>
      <trkpt lat="49.48214" lon="-1.57697">
        <ele>40.9</ele>
        <time>2019-04-23T13:20:25.000Z</time>
      </trkpt>
      <trkpt lat="49.48214" lon="-1.57697">
        <ele>40.9</ele>
        <time>2019-04-23T13:20:26.000Z</time>
      </trkpt>
      <trkpt lat="49.48214" lon="-1.57697">
        <ele>40.9</ele>
        <time>2019-04-23T13:20:27.000Z</time>
      </trkpt>
      <trkpt lat="49.48214" lon="-1.57697">
        <ele>40.9</ele>
        <time>2019-04-23T13:20:28.000Z</time>
      </trkpt>
      <trkpt lat="49.48214" lon="-1.57697">
        <ele>40.9</ele>
        <time>2019-04-23T13:20:29.000Z</time>
      </trkpt>
      <trkpt lat="49.48214" lon="-1.57697">
        <ele>40.9</ele>
        <time>2019-04-23T13:20:30.000Z</time>
      </trkpt>
      <trkpt lat="49.48214" lon="-1.57697">
        <ele>40.9</ele>
        <time>2019-04-23T13:20:31.000Z</time>
      </trkpt>
      <trkpt lat="49.48214" lon="-1.57697">
        <ele>40.9</ele>
        <time>2019-04-23T13:20:32.000Z</time>
      </trkpt>
      <trkpt lat="49.48214" lon="-1.57697">
        <ele>40.9</ele>
        <time>2019-04-23T13:20:33.000Z</time>
      </trkpt>
      <trkpt lat="49.48214" lon="-1.57697">
        <ele>40.9</ele>
        <time>2019-04-23T13:20:34.000Z</time>
      </trkpt>
      <trkpt lat="49.48214" lon="-1.57697">
        <ele>40.9</ele>
        <time>2019-04-23T13:20:35.000Z</time>
      </trkpt>
      <trkpt lat="49.48214" lon="-1.57697">
        <ele>40.9</ele>
        <time>2019-04-23T13:20:36.000Z</time>
      </trkpt>
      <trkpt lat="49.48214" lon="-1.57697">
        <ele>40.9</ele>
        <time>2019-04-23T13:20:37.000Z</time>
      </trkpt>
      <trkpt lat="49.48214" lon="-1.57697">
        <ele>40.9</ele>
        <time>2019-04-23T13:20:38.000Z</time>
      </trkpt>
      <trkpt lat="49.48214" lon="-1.57697">
        <ele>40.9</ele>
        <time>2019-04-23T13:20:39.000Z</time>
      </trkpt>
      <trkpt lat="49.48214" lon="-1.57697">
        <ele>40.9</ele>
        <time>2019-04-23T13:20:40.000Z</time>
      </trkpt>
      <trkpt lat="49.48214" lon="-1.57697">
        <ele>40.9</ele>
        <time>2019-04-23T13:20:41.000Z</time>
      </trkpt>
      <trkpt lat="49.48214" lon="-1.57697">
        <ele>40.9</ele>
        <time>2019-04-23T13:20:42.000Z</time>
      </trkpt>
      <trkpt lat="49.48214" lon="-1.57697">
        <ele>40.9</ele>
        <time>2019-04-23T13:20:43.000Z</time>
      </trkpt>
      <trkpt lat="49.48214" lon="-1.57697">
        <ele>40.9</ele>
        <time>2019-04-23T13:20:44.000Z</time>
      </trkpt>
      <trkpt lat="49.48214" lon="-1.57697">
        <ele>40.9</ele>
        <time>2019-04-23T13:20:45.000Z</time>
      </trkpt>
      <trkpt lat="49.48214" lon="-1.57697">
        <ele>40.9</ele>
        <time>2019-04-23T13:20:46.000Z</time>
      </trkpt>
      <trkpt lat="49.48214" lon="-1.57697">
        <ele>40.9</ele>
        <time>2019-04-23T13:20:47.000Z</time>
      </trkpt>
      <trkpt lat="49.48214" lon="-1.57697">
        <ele>40.9</ele>
        <time>2019-04-23T13:20:48.000Z</time>
      </trkpt>
      <trkpt lat="49.48214" lon="-1.57697">
        <ele>40.9</ele>
        <time>2019-04-23T13:20:49.000Z</time>
      </trkpt>
      <trkpt lat="49.48214" lon="-1.57697">
        <ele>40.9</ele>
        <time>2019-04-23T13:20:50.000Z</time>
      </trkpt>
      <trkpt lat="49.48214" lon="-1.57697">
        <ele>40.9</ele>
        <time>2019-04-23T13:20:51.000Z</time>
      </trkpt>
      <trkpt lat="49.48214" lon="-1.57697">
        <ele>40.9</ele>
        <time>2019-04-23T13:20:52.000Z</time>
      </trkpt>
      <trkpt lat="49.48214" lon="-1.57697">
        <ele>40.9</ele>
        <time>2019-04-23T13:20:53.000Z</time>
      </trkpt>
      <trkpt lat="49.48214" lon="-1.57697">
        <ele>40.9</ele>
        <time>2019-04-23T13:20:54.000Z</time>
      </trkpt>
      <trkpt lat="49.48214" lon="-1.57697">
        <ele>40.9</ele>
        <time>2019-04-23T13:20:55.000Z</time>
      </trkpt>
      <trkpt lat="49.48214" lon="-1.57697">
        <ele>40.9</ele>
        <time>2019-04-23T13:20:56.000Z</time>
      </trkpt>
      <trkpt lat="49.48214" lon="-1.57697">
        <ele>40.9</ele>
        <time>2019-04-23T13:20:57.000Z</time>
      </trkpt>
      <trkpt lat="49.48214" lon="-1.57697">
        <ele>40.9</ele>
        <time>2019-04-23T13:20:58.000Z</time>
      </trkpt>
      <trkpt lat="49.48214" lon="-1.57697">
        <ele>40.9</ele>
        <time>2019-04-23T13:20:59.000Z</time>
      </trkpt>
      <trkpt lat="49.48214" lon="-1.57697">
        <ele>40.9</ele>
        <time>2019-04-23T13:21:00.000Z</time>
      </trkpt>
      <trkpt lat="49.48214" lon="-1.57697">
        <ele>40.9</ele>
        <time>2019-04-23T13:21:01.000Z</time>
      </trkpt>
      <trkpt lat="49.48214" lon="-1.57697">
        <ele>40.9</ele>
        <time>2019-04-23T13:21:02.000Z</time>
      </trkpt>
      <trkpt lat="49.48214" lon="-1.57697">
        <ele>40.9</ele>
        <time>2019-04-23T13:21:03.000Z</time>
      </trkpt>
      <trkpt lat="49.48214" lon="-1.57697">
        <ele>40.9</ele>
        <time>2019-04-23T13:21:04.000Z</time>
      </trkpt>
      <trkpt lat="49.48214" lon="-1.57697">
        <ele>40.9</ele>
        <time>2019-04-23T13:21:05.000Z</time>
      </trkpt>
      <trkpt lat="49.48214" lon="-1.57697">
        <ele>40.9</ele>
        <time>2019-04-23T13:21:06.000Z</time>
      </trkpt>
      <trkpt lat="49.48214" lon="-1.57697">
        <ele>40.9</ele>
        <time>2019-04-23T13:21:07.000Z</time>
      </trkpt>
      <trkpt lat="49.48214" lon="-1.57697">
        <ele>40.9</ele>
        <time>2019-04-23T13:21:08.000Z</time>
      </trkpt>
      <trkpt lat="49.48214" lon="-1.57697">
        <ele>40.9</ele>
        <time>2019-04-23T13:21:09.000Z</time>
      </trkpt>
      <trkpt lat="49.48214" lon="-1.57697">
        <ele>40.9</ele>
        <time>2019-04-23T13:21:10.000Z</time>
      </trkpt>
      <trkpt lat="49.48214" lon="-1.57697">
        <ele>40.9</ele>
        <time>2019-04-23T13:21:11.000Z</time>
      </trkpt>
      <trkpt lat="49.48214" lon="-1.57697">
        <ele>40.9</ele>
        <time>2019-04-23T13:21:12.000Z</time>
      </trkpt>
      <trkpt lat="49.48214" lon="-1.57697">
        <ele>40.9</ele>
        <time>2019-04-23T13:21:13.000Z</time>
      </trkpt>
      <trkpt lat="49.48214" lon="-1.57697">
        <ele>40.9</ele>
        <time>2019-04-23T13:21:14.000Z</time>
      </trkpt>
      <trkpt lat="49.48214" lon="-1.57697">
        <ele>40.9</ele>
        <time>2019-04-23T13:21:15.000Z</time>
      </trkpt>
      <trkpt lat="49.48214" lon="-1.57697">
        <ele>40.9</ele>
        <time>2019-04-23T13:21:16.000Z</time>
      </trkpt>
      <trkpt lat="49.48214" lon="-1.57697">
        <ele>40.9</ele>
        <time>2019-04-23T13:21:17.000Z</time>
      </trkpt>
      <trkpt lat="49.48214" lon="-1.57697">
        <ele>40.9</ele>
        <time>2019-04-23T13:21:18.000Z</time>
      </trkpt>
      <trkpt lat="49.48214" lon="-1.57697">
        <ele>40.9</ele>
        <time>2019-04-23T13:21:19.000Z</time>
      </trkpt>
      <trkpt lat="49.48214" lon="-1.57697">
        <ele>40.9</ele>
        <time>2019-04-23T13:21:20.000Z</time>
      </trkpt>
      <trkpt lat="49.48214" lon="-1.57697">
        <ele>40.9</ele>
        <time>2019-04-23T13:21:21.000Z</time>
      </trkpt>
      <trkpt lat="49.48215" lon="-1.57698">
        <ele>40.9</ele>
        <time>2019-04-23T13:21:22.000Z</time>
      </trkpt>
      <trkpt lat="49.48216" lon="-1.57698">
        <ele>40.9</ele>
        <time>2019-04-23T13:21:23.000Z</time>
      </trkpt>
      <trkpt lat="49.48217" lon="-1.57699">
        <ele>40.8</ele>
        <time>2019-04-23T13:21:24.000Z</time>
      </trkpt>
      <trkpt lat="49.48218" lon="-1.577">
        <ele>40.8</ele>
        <time>2019-04-23T13:21:25.000Z</time>
      </trkpt>
      <trkpt lat="49.48219" lon="-1.577">
        <ele>40.8</ele>
        <time>2019-04-23T13:21:26.000Z</time>
      </trkpt>
      <trkpt lat="49.4822" lon="-1.57701">
        <ele>40.8</ele>
        <time>2019-04-23T13:21:27.000Z</time>
      </trkpt>
      <trkpt lat="49.48221" lon="-1.57701">
        <ele>40.7</ele>
        <time>2019-04-23T13:21:28.000Z</time>
      </trkpt>
      <trkpt lat="49.48223" lon="-1.57701">
        <ele>40.7</ele>
        <time>2019-04-23T13:21:29.000Z</time>
      </trkpt>
      <trkpt lat="49.48224" lon="-1.57702">
        <ele>40.7</ele>
        <time>2019-04-23T13:21:30.000Z</time>
      </trkpt>
      <trkpt lat="49.48225" lon="-1.57702">
        <ele>40.7</ele>
        <time>2019-04-23T13:21:31.000Z</time>
      </trkpt>
      <trkpt lat="49.48226" lon="-1.57703">
        <ele>40.6</ele>
        <time>2019-04-23T13:21:32.000Z</time>
      </trkpt>
      <trkpt lat="49.48227" lon="-1.57704">
        <ele>40.6</ele>
        <time>2019-04-23T13:21:33.000Z</time>
      </trkpt>
      <trkpt lat="49.48228" lon="-1.57704">
        <ele>40.6</ele>
        <time>2019-04-23T13:21:34.000Z</time>
      </trkpt>
      <trkpt lat="49.4823" lon="-1.57705">
        <ele>40.6</ele>
        <time>2019-04-23T13:21:35.000Z</time>
      </trkpt>
      <trkpt lat="49.48231" lon="-1.57706">
        <ele>40.6</ele>
        <time>2019-04-23T13:21:36.000Z</time>
      </trkpt>
      <trkpt lat="49.48232" lon="-1.57706">
        <ele>40.6</ele>
        <time>2019-04-23T13:21:37.000Z</time>
      </trkpt>
      <trkpt lat="49.48233" lon="-1.57707">
        <ele>40.5</ele>
        <time>2019-04-23T13:21:38.000Z</time>
      </trkpt>
      <trkpt lat="49.48234" lon="-1.57708">
        <ele>40.5</ele>
        <time>2019-04-23T13:21:39.000Z</time>
      </trkpt>
      <trkpt lat="49.48235" lon="-1.57708">
        <ele>40.5</ele>
        <time>2019-04-23T13:21:40.000Z</time>
      </trkpt>
      <trkpt lat="49.48237" lon="-1.57709">
        <ele>40.5</ele>
        <time>2019-04-23T13:21:41.000Z</time>
      </trkpt>
      <trkpt lat="49.48238" lon="-1.5771">
        <ele>40.5</ele>
        <time>2019-04-23T13:21:42.000Z</time>
      </trkpt>
      <trkpt lat="49.48239" lon="-1.57711">
        <ele>40.5</ele>
        <time>2019-04-23T13:21:43.000Z</time>
      </trkpt>
      <trkpt lat="49.4824" lon="-1.57711">
        <ele>40.5</ele>
        <time>2019-04-23T13:21:44.000Z</time>
      </trkpt>
      <trkpt lat="49.48241" lon="-1.57712">
        <ele>40.5</ele>
        <time>2019-04-23T13:21:45.000Z</time>
      </trkpt>
      <trkpt lat="49.48243" lon="-1.57713">
        <ele>40.5</ele>
        <time>2019-04-23T13:21:46.000Z</time>
      </trkpt>
      <trkpt lat="49.48244" lon="-1.57714">
        <ele>40.5</ele>
        <time>2019-04-23T13:21:47.000Z</time>
      </trkpt>
      <trkpt lat="49.48245" lon="-1.57714">
        <ele>40.5</ele>
        <time>2019-04-23T13:21:48.000Z</time>
      </trkpt>
      <trkpt lat="49.48246" lon="-1.57715">
        <ele>40.5</ele>
        <time>2019-04-23T13:21:49.000Z</time>
      </trkpt>
      <trkpt lat="49.48247" lon="-1.57716">
        <ele>40.5</ele>
        <time>2019-04-23T13:21:50.000Z</time>
      </trkpt>
      <trkpt lat="49.48248" lon="-1.57717">
        <ele>40.4</ele>
        <time>2019-04-23T13:21:51.000Z</time>
      </trkpt>
      <trkpt lat="49.4825" lon="-1.57717">
        <ele>40.4</ele>
        <time>2019-04-23T13:21:52.000Z</time>
      </trkpt>
      <trkpt lat="49.48251" lon="-1.57718">
        <ele>40.4</ele>
        <time>2019-04-23T13:21:53.000Z</time>
      </trkpt>
      <trkpt lat="49.48252" lon="-1.57718">
        <ele>40.5</ele>
        <time>2019-04-23T13:21:54.000Z</time>
      </trkpt>
      <trkpt lat="49.48253" lon="-1.57719">
        <ele>40.5</ele>
        <time>2019-04-23T13:21:55.000Z</time>
      </trkpt>
      <trkpt lat="49.48254" lon="-1.5772">
        <ele>40.5</ele>
        <time>2019-04-23T13:21:56.000Z</time>
      </trkpt>
      <trkpt lat="49.48255" lon="-1.5772">
        <ele>40.5</ele>
        <time>2019-04-23T13:21:57.000Z</time>
      </trkpt>
      <trkpt lat="49.48257" lon="-1.57721">
        <ele>40.5</ele>
        <time>2019-04-23T13:21:58.000Z</time>
      </trkpt>
      <trkpt lat="49.48258" lon="-1.57721">
        <ele>40.5</ele>
        <time>2019-04-23T13:21:59.000Z</time>
      </trkpt>
      <trkpt lat="49.48259" lon="-1.57722">
        <ele>40.5</ele>
        <time>2019-04-23T13:22:00.000Z</time>
      </trkpt>
      <trkpt lat="49.4826" lon="-1.57722">
        <ele>40.5</ele>
        <time>2019-04-23T13:22:01.000Z</time>
      </trkpt>
      <trkpt lat="49.48261" lon="-1.57723">
        <ele>40.5</ele>
        <time>2019-04-23T13:22:02.000Z</time>
      </trkpt>
      <trkpt lat="49.48263" lon="-1.57723">
        <ele>40.5</ele>
        <time>2019-04-23T13:22:03.000Z</time>
      </trkpt>
      <trkpt lat="49.48264" lon="-1.57724">
        <ele>40.5</ele>
        <time>2019-04-23T13:22:04.000Z</time>
      </trkpt>
      <trkpt lat="49.48265" lon="-1.57725">
        <ele>40.5</ele>
        <time>2019-04-23T13:22:05.000Z</time>
      </trkpt>
      <trkpt lat="49.48266" lon="-1.57725">
        <ele>40.5</ele>
        <time>2019-04-23T13:22:06.000Z</time>
      </trkpt>
      <trkpt lat="49.48267" lon="-1.57726">
        <ele>40.5</ele>
        <time>2019-04-23T13:22:07.000Z</time>
      </trkpt>
      <trkpt lat="49.48269" lon="-1.57726">
        <ele>40.5</ele>
        <time>2019-04-23T13:22:08.000Z</time>
      </trkpt>
      <trkpt lat="49.4827" lon="-1.57727">
        <ele>40.6</ele>
        <time>2019-04-23T13:22:09.000Z</time>
      </trkpt>
      <trkpt lat="49.48271" lon="-1.57728">
        <ele>40.6</ele>
        <time>2019-04-23T13:22:10.000Z</time>
      </trkpt>
      <trkpt lat="49.48273" lon="-1.57729">
        <ele>40.6</ele>
        <time>2019-04-23T13:22:11.000Z</time>
      </trkpt>
      <trkpt lat="49.48274" lon="-1.57729">
        <ele>40.6</ele>
        <time>2019-04-23T13:22:12.000Z</time>
      </trkpt>
      <trkpt lat="49.48275" lon="-1.5773">
        <ele>40.6</ele>
        <time>2019-04-23T13:22:13.000Z</time>
      </trkpt>
      <trkpt lat="49.48276" lon="-1.57731">
        <ele>40.6</ele>
        <time>2019-04-23T13:22:14.000Z</time>
      </trkpt>
      <trkpt lat="49.48278" lon="-1.57732">
        <ele>40.6</ele>
        <time>2019-04-23T13:22:15.000Z</time>
      </trkpt>
      <trkpt lat="49.48279" lon="-1.57733">
        <ele>40.6</ele>
        <time>2019-04-23T13:22:16.000Z</time>
      </trkpt>
      <trkpt lat="49.4828" lon="-1.57734">
        <ele>40.6</ele>
        <time>2019-04-23T13:22:17.000Z</time>
      </trkpt>
      <trkpt lat="49.48282" lon="-1.57734">
        <ele>40.6</ele>
        <time>2019-04-23T13:22:18.000Z</time>
      </trkpt>
      <trkpt lat="49.48283" lon="-1.57735">
        <ele>40.6</ele>
        <time>2019-04-23T13:22:19.000Z</time>
      </trkpt>
      <trkpt lat="49.48284" lon="-1.57736">
        <ele>40.6</ele>
        <time>2019-04-23T13:22:20.000Z</time>
      </trkpt>
      <trkpt lat="49.48286" lon="-1.57737">
        <ele>40.7</ele>
        <time>2019-04-23T13:22:21.000Z</time>
      </trkpt>
      <trkpt lat="49.48287" lon="-1.57738">
        <ele>40.7</ele>
        <time>2019-04-23T13:22:22.000Z</time>
      </trkpt>
      <trkpt lat="49.48288" lon="-1.57739">
        <ele>40.7</ele>
        <time>2019-04-23T13:22:23.000Z</time>
      </trkpt>
      <trkpt lat="49.48289" lon="-1.57739">
        <ele>40.7</ele>
        <time>2019-04-23T13:22:24.000Z</time>
      </trkpt>
      <trkpt lat="49.48291" lon="-1.5774">
        <ele>40.7</ele>
        <time>2019-04-23T13:22:25.000Z</time>
      </trkpt>
      <trkpt lat="49.48292" lon="-1.57741">
        <ele>40.7</ele>
        <time>2019-04-23T13:22:26.000Z</time>
      </trkpt>
      <trkpt lat="49.48293" lon="-1.57741">
        <ele>40.7</ele>
        <time>2019-04-23T13:22:27.000Z</time>
      </trkpt>
      <trkpt lat="49.48294" lon="-1.57742">
        <ele>40.6</ele>
        <time>2019-04-23T13:22:28.000Z</time>
      </trkpt>
      <trkpt lat="49.48296" lon="-1.57742">
        <ele>40.6</ele>
        <time>2019-04-23T13:22:29.000Z</time>
      </trkpt>
      <trkpt lat="49.48297" lon="-1.57743">
        <ele>40.6</ele>
        <time>2019-04-23T13:22:30.000Z</time>
      </trkpt>
      <trkpt lat="49.48298" lon="-1.57743">
        <ele>40.6</ele>
        <time>2019-04-23T13:22:31.000Z</time>
      </trkpt>
      <trkpt lat="49.48299" lon="-1.57744">
        <ele>40.6</ele>
        <time>2019-04-23T13:22:32.000Z</time>
      </trkpt>
      <trkpt lat="49.483" lon="-1.57744">
        <ele>40.6</ele>
        <time>2019-04-23T13:22:33.000Z</time>
      </trkpt>
      <trkpt lat="49.48301" lon="-1.57745">
        <ele>40.6</ele>
        <time>2019-04-23T13:22:34.000Z</time>
      </trkpt>
      <trkpt lat="49.48302" lon="-1.57745">
        <ele>40.6</ele>
        <time>2019-04-23T13:22:35.000Z</time>
      </trkpt>
      <trkpt lat="49.48303" lon="-1.57746">
        <ele>40.6</ele>
        <time>2019-04-23T13:22:36.000Z</time>
      </trkpt>
      <trkpt lat="49.48304" lon="-1.57747">
        <ele>40.6</ele>
        <time>2019-04-23T13:22:37.000Z</time>
      </trkpt>
      <trkpt lat="49.48305" lon="-1.57748">
        <ele>40.6</ele>
        <time>2019-04-23T13:22:38.000Z</time>
      </trkpt>
      <trkpt lat="49.48305" lon="-1.57749">
        <ele>40.6</ele>
        <time>2019-04-23T13:22:39.000Z</time>
      </trkpt>
      <trkpt lat="49.48306" lon="-1.5775">
        <ele>40.6</ele>
        <time>2019-04-23T13:22:40.000Z</time>
      </trkpt>
      <trkpt lat="49.48307" lon="-1.57751">
        <ele>40.6</ele>
        <time>2019-04-23T13:22:41.000Z</time>
      </trkpt>
      <trkpt lat="49.48307" lon="-1.57752">
        <ele>40.6</ele>
        <time>2019-04-23T13:22:42.000Z</time>
      </trkpt>
      <trkpt lat="49.48308" lon="-1.57754">
        <ele>40.6</ele>
        <time>2019-04-23T13:22:43.000Z</time>
      </trkpt>
      <trkpt lat="49.48308" lon="-1.57755">
        <ele>40.6</ele>
        <time>2019-04-23T13:22:44.000Z</time>
      </trkpt>
      <trkpt lat="49.48309" lon="-1.57757">
        <ele>40.6</ele>
        <time>2019-04-23T13:22:45.000Z</time>
      </trkpt>
      <trkpt lat="49.48309" lon="-1.57758">
        <ele>40.6</ele>
        <time>2019-04-23T13:22:46.000Z</time>
      </trkpt>
      <trkpt lat="49.48309" lon="-1.5776">
        <ele>40.7</ele>
        <time>2019-04-23T13:22:47.000Z</time>
      </trkpt>
      <trkpt lat="49.48309" lon="-1.57761">
        <ele>40.7</ele>
        <time>2019-04-23T13:22:48.000Z</time>
      </trkpt>
      <trkpt lat="49.48309" lon="-1.57763">
        <ele>40.7</ele>
        <time>2019-04-23T13:22:49.000Z</time>
      </trkpt>
      <trkpt lat="49.48309" lon="-1.57764">
        <ele>40.7</ele>
        <time>2019-04-23T13:22:50.000Z</time>
      </trkpt>
      <trkpt lat="49.48309" lon="-1.57766">
        <ele>40.7</ele>
        <time>2019-04-23T13:22:51.000Z</time>
      </trkpt>
      <trkpt lat="49.48309" lon="-1.57768">
        <ele>40.7</ele>
        <time>2019-04-23T13:22:52.000Z</time>
      </trkpt>
      <trkpt lat="49.48309" lon="-1.57769">
        <ele>40.7</ele>
        <time>2019-04-23T13:22:53.000Z</time>
      </trkpt>
      <trkpt lat="49.48308" lon="-1.57771">
        <ele>40.7</ele>
        <time>2019-04-23T13:22:54.000Z</time>
      </trkpt>
      <trkpt lat="49.48308" lon="-1.57773">
        <ele>40.8</ele>
        <time>2019-04-23T13:22:55.000Z</time>
      </trkpt>
      <trkpt lat="49.48308" lon="-1.57774">
        <ele>40.8</ele>
        <time>2019-04-23T13:22:56.000Z</time>
      </trkpt>
      <trkpt lat="49.48307" lon="-1.57776">
        <ele>40.8</ele>
        <time>2019-04-23T13:22:57.000Z</time>
      </trkpt>
      <trkpt lat="49.48307" lon="-1.57778">
        <ele>40.8</ele>
        <time>2019-04-23T13:22:58.000Z</time>
      </trkpt>
      <trkpt lat="49.48307" lon="-1.5778">
        <ele>40.9</ele>
        <time>2019-04-23T13:22:59.000Z</time>
      </trkpt>
      <trkpt lat="49.48306" lon="-1.57781">
        <ele>40.9</ele>
        <time>2019-04-23T13:23:00.000Z</time>
      </trkpt>
      <trkpt lat="49.48306" lon="-1.57783">
        <ele>40.9</ele>
        <time>2019-04-23T13:23:01.000Z</time>
      </trkpt>
      <trkpt lat="49.48306" lon="-1.57785">
        <ele>40.9</ele>
        <time>2019-04-23T13:23:02.000Z</time>
      </trkpt>
      <trkpt lat="49.48305" lon="-1.57787">
        <ele>41</ele>
        <time>2019-04-23T13:23:03.000Z</time>
      </trkpt>
      <trkpt lat="49.48305" lon="-1.57788">
        <ele>41</ele>
        <time>2019-04-23T13:23:04.000Z</time>
      </trkpt>
      <trkpt lat="49.48304" lon="-1.5779">
        <ele>41</ele>
        <time>2019-04-23T13:23:05.000Z</time>
      </trkpt>
      <trkpt lat="49.48304" lon="-1.57792">
        <ele>41.1</ele>
        <time>2019-04-23T13:23:06.000Z</time>
      </trkpt>
      <trkpt lat="49.48304" lon="-1.57794">
        <ele>41.1</ele>
        <time>2019-04-23T13:23:07.000Z</time>
      </trkpt>
      <trkpt lat="49.48303" lon="-1.57796">
        <ele>41.1</ele>
        <time>2019-04-23T13:23:08.000Z</time>
      </trkpt>
      <trkpt lat="49.48303" lon="-1.57797">
        <ele>41.1</ele>
        <time>2019-04-23T13:23:09.000Z</time>
      </trkpt>
      <trkpt lat="49.48302" lon="-1.57799">
        <ele>41.2</ele>
        <time>2019-04-23T13:23:10.000Z</time>
      </trkpt>
      <trkpt lat="49.48302" lon="-1.57801">
        <ele>41.2</ele>
        <time>2019-04-23T13:23:11.000Z</time>
      </trkpt>
      <trkpt lat="49.48302" lon="-1.57803">
        <ele>41.2</ele>
        <time>2019-04-23T13:23:12.000Z</time>
      </trkpt>
      <trkpt lat="49.48301" lon="-1.57804">
        <ele>41.3</ele>
        <time>2019-04-23T13:23:13.000Z</time>
      </trkpt>
      <trkpt lat="49.48301" lon="-1.57806">
        <ele>41.3</ele>
        <time>2019-04-23T13:23:14.000Z</time>
      </trkpt>
      <trkpt lat="49.48301" lon="-1.57808">
        <ele>41.3</ele>
        <time>2019-04-23T13:23:15.000Z</time>
      </trkpt>
      <trkpt lat="49.483" lon="-1.57809">
        <ele>41.4</ele>
        <time>2019-04-23T13:23:16.000Z</time>
      </trkpt>
      <trkpt lat="49.483" lon="-1.57811">
        <ele>41.4</ele>
        <time>2019-04-23T13:23:17.000Z</time>
      </trkpt>
      <trkpt lat="49.483" lon="-1.57813">
        <ele>41.4</ele>
        <time>2019-04-23T13:23:18.000Z</time>
      </trkpt>
      <trkpt lat="49.48299" lon="-1.57814">
        <ele>41.4</ele>
        <time>2019-04-23T13:23:19.000Z</time>
      </trkpt>
      <trkpt lat="49.48299" lon="-1.57816">
        <ele>41.5</ele>
        <time>2019-04-23T13:23:20.000Z</time>
      </trkpt>
      <trkpt lat="49.48299" lon="-1.57817">
        <ele>41.5</ele>
        <time>2019-04-23T13:23:21.000Z</time>
      </trkpt>
      <trkpt lat="49.48298" lon="-1.57819">
        <ele>41.5</ele>
        <time>2019-04-23T13:23:22.000Z</time>
      </trkpt>
      <trkpt lat="49.48298" lon="-1.5782">
        <ele>41.6</ele>
        <time>2019-04-23T13:23:23.000Z</time>
      </trkpt>
      <trkpt lat="49.48298" lon="-1.57821">
        <ele>41.6</ele>
        <time>2019-04-23T13:23:24.000Z</time>
      </trkpt>
      <trkpt lat="49.48298" lon="-1.57822">
        <ele>41.6</ele>
        <time>2019-04-23T13:23:25.000Z</time>
      </trkpt>
      <trkpt lat="49.48297" lon="-1.57823">
        <ele>41.6</ele>
        <time>2019-04-23T13:23:26.000Z</time>
      </trkpt>
      <trkpt lat="49.48297" lon="-1.57824">
        <ele>41.6</ele>
        <time>2019-04-23T13:23:27.000Z</time>
      </trkpt>
      <trkpt lat="49.48297" lon="-1.57824">
        <ele>41.6</ele>
        <time>2019-04-23T13:23:28.000Z</time>
      </trkpt>
      <trkpt lat="49.48297" lon="-1.57825">
        <ele>41.7</ele>
        <time>2019-04-23T13:23:29.000Z</time>
      </trkpt>
      <trkpt lat="49.48297" lon="-1.57825">
        <ele>41.7</ele>
        <time>2019-04-23T13:23:30.000Z</time>
      </trkpt>
      <trkpt lat="49.48297" lon="-1.57825">
        <ele>41.7</ele>
        <time>2019-04-23T13:23:31.000Z</time>
      </trkpt>
      <trkpt lat="49.48297" lon="-1.57824">
        <ele>41.7</ele>
        <time>2019-04-23T13:23:32.000Z</time>
      </trkpt>
      <trkpt lat="49.48297" lon="-1.57824">
        <ele>41.7</ele>
        <time>2019-04-23T13:23:33.000Z</time>
      </trkpt>
      <trkpt lat="49.48297" lon="-1.57824">
        <ele>41.7</ele>
        <time>2019-04-23T13:23:34.000Z</time>
      </trkpt>
      <trkpt lat="49.48297" lon="-1.57824">
        <ele>41.7</ele>
        <time>2019-04-23T13:23:35.000Z</time>
      </trkpt>
      <trkpt lat="49.48297" lon="-1.57824">
        <ele>41.7</ele>
        <time>2019-04-23T13:23:36.000Z</time>
      </trkpt>
      <trkpt lat="49.48297" lon="-1.57824">
        <ele>41.7</ele>
        <time>2019-04-23T13:23:37.000Z</time>
      </trkpt>
      <trkpt lat="49.48297" lon="-1.57824">
        <ele>41.7</ele>
        <time>2019-04-23T13:23:38.000Z</time>
      </trkpt>
      <trkpt lat="49.48297" lon="-1.57825">
        <ele>41.7</ele>
        <time>2019-04-23T13:23:39.000Z</time>
      </trkpt>
      <trkpt lat="49.48297" lon="-1.57826">
        <ele>41.7</ele>
        <time>2019-04-23T13:23:40.000Z</time>
      </trkpt>
      <trkpt lat="49.48297" lon="-1.57827">
        <ele>41.7</ele>
        <time>2019-04-23T13:23:41.000Z</time>
      </trkpt>
      <trkpt lat="49.48297" lon="-1.57828">
        <ele>41.7</ele>
        <time>2019-04-23T13:23:42.000Z</time>
      </trkpt>
      <trkpt lat="49.48296" lon="-1.57829">
        <ele>41.7</ele>
        <time>2019-04-23T13:23:43.000Z</time>
      </trkpt>
      <trkpt lat="49.48296" lon="-1.5783">
        <ele>41.7</ele>
        <time>2019-04-23T13:23:44.000Z</time>
      </trkpt>
      <trkpt lat="49.48296" lon="-1.57831">
        <ele>41.8</ele>
        <time>2019-04-23T13:23:45.000Z</time>
      </trkpt>
      <trkpt lat="49.48296" lon="-1.57833">
        <ele>41.8</ele>
        <time>2019-04-23T13:23:46.000Z</time>
      </trkpt>
      <trkpt lat="49.48296" lon="-1.57834">
        <ele>41.8</ele>
        <time>2019-04-23T13:23:47.000Z</time>
      </trkpt>
      <trkpt lat="49.48295" lon="-1.57835">
        <ele>41.8</ele>
        <time>2019-04-23T13:23:48.000Z</time>
      </trkpt>
      <trkpt lat="49.48295" lon="-1.57837">
        <ele>41.9</ele>
        <time>2019-04-23T13:23:49.000Z</time>
      </trkpt>
      <trkpt lat="49.48295" lon="-1.57838">
        <ele>41.9</ele>
        <time>2019-04-23T13:23:50.000Z</time>
      </trkpt>
      <trkpt lat="49.48294" lon="-1.57839">
        <ele>41.9</ele>
        <time>2019-04-23T13:23:51.000Z</time>
      </trkpt>
      <trkpt lat="49.48294" lon="-1.57841">
        <ele>41.9</ele>
        <time>2019-04-23T13:23:52.000Z</time>
      </trkpt>
      <trkpt lat="49.48294" lon="-1.57842">
        <ele>42</ele>
        <time>2019-04-23T13:23:53.000Z</time>
      </trkpt>
      <trkpt lat="49.48294" lon="-1.57844">
        <ele>42</ele>
        <time>2019-04-23T13:23:54.000Z</time>
      </trkpt>
      <trkpt lat="49.48293" lon="-1.57845">
        <ele>42</ele>
        <time>2019-04-23T13:23:55.000Z</time>
      </trkpt>
      <trkpt lat="49.48293" lon="-1.57847">
        <ele>42</ele>
        <time>2019-04-23T13:23:56.000Z</time>
      </trkpt>
      <trkpt lat="49.48293" lon="-1.57848">
        <ele>42</ele>
        <time>2019-04-23T13:23:57.000Z</time>
      </trkpt>
      <trkpt lat="49.48292" lon="-1.5785">
        <ele>42.1</ele>
        <time>2019-04-23T13:23:58.000Z</time>
      </trkpt>
      <trkpt lat="49.48292" lon="-1.57851">
        <ele>42.1</ele>
        <time>2019-04-23T13:23:59.000Z</time>
      </trkpt>
      <trkpt lat="49.48292" lon="-1.57853">
        <ele>42.1</ele>
        <time>2019-04-23T13:24:00.000Z</time>
      </trkpt>
      <trkpt lat="49.48291" lon="-1.57855">
        <ele>42.1</ele>
        <time>2019-04-23T13:24:01.000Z</time>
      </trkpt>
      <trkpt lat="49.48291" lon="-1.57856">
        <ele>42.2</ele>
        <time>2019-04-23T13:24:02.000Z</time>
      </trkpt>
      <trkpt lat="49.48291" lon="-1.57858">
        <ele>42.2</ele>
        <time>2019-04-23T13:24:03.000Z</time>
      </trkpt>
      <trkpt lat="49.48291" lon="-1.5786">
        <ele>42.2</ele>
        <time>2019-04-23T13:24:04.000Z</time>
      </trkpt>
      <trkpt lat="49.4829" lon="-1.57862">
        <ele>42.2</ele>
        <time>2019-04-23T13:24:05.000Z</time>
      </trkpt>
      <trkpt lat="49.4829" lon="-1.57864">
        <ele>42.3</ele>
        <time>2019-04-23T13:24:06.000Z</time>
      </trkpt>
      <trkpt lat="49.4829" lon="-1.57865">
        <ele>42.3</ele>
        <time>2019-04-23T13:24:07.000Z</time>
      </trkpt>
      <trkpt lat="49.48289" lon="-1.57867">
        <ele>42.3</ele>
        <time>2019-04-23T13:24:08.000Z</time>
      </trkpt>
      <trkpt lat="49.48289" lon="-1.57869">
        <ele>42.3</ele>
        <time>2019-04-23T13:24:09.000Z</time>
      </trkpt>
      <trkpt lat="49.48289" lon="-1.57871">
        <ele>42.4</ele>
        <time>2019-04-23T13:24:10.000Z</time>
      </trkpt>
      <trkpt lat="49.48288" lon="-1.57873">
        <ele>42.4</ele>
        <time>2019-04-23T13:24:11.000Z</time>
      </trkpt>
      <trkpt lat="49.48288" lon="-1.57874">
        <ele>42.4</ele>
        <time>2019-04-23T13:24:12.000Z</time>
      </trkpt>
      <trkpt lat="49.48288" lon="-1.57876">
        <ele>42.4</ele>
        <time>2019-04-23T13:24:13.000Z</time>
      </trkpt>
      <trkpt lat="49.48287" lon="-1.57878">
        <ele>42.4</ele>
        <time>2019-04-23T13:24:14.000Z</time>
      </trkpt>
      <trkpt lat="49.48287" lon="-1.5788">
        <ele>42.5</ele>
        <time>2019-04-23T13:24:15.000Z</time>
      </trkpt>
      <trkpt lat="49.48287" lon="-1.57882">
        <ele>42.5</ele>
        <time>2019-04-23T13:24:16.000Z</time>
      </trkpt>
      <trkpt lat="49.48287" lon="-1.57884">
        <ele>42.5</ele>
        <time>2019-04-23T13:24:17.000Z</time>
      </trkpt>
      <trkpt lat="49.48286" lon="-1.57886">
        <ele>42.5</ele>
        <time>2019-04-23T13:24:18.000Z</time>
      </trkpt>
      <trkpt lat="49.48286" lon="-1.57887">
        <ele>42.6</ele>
        <time>2019-04-23T13:24:19.000Z</time>
      </trkpt>
      <trkpt lat="49.48286" lon="-1.57889">
        <ele>42.6</ele>
        <time>2019-04-23T13:24:20.000Z</time>
      </trkpt>
      <trkpt lat="49.48285" lon="-1.57891">
        <ele>42.6</ele>
        <time>2019-04-23T13:24:21.000Z</time>
      </trkpt>
      <trkpt lat="49.48285" lon="-1.57893">
        <ele>42.6</ele>
        <time>2019-04-23T13:24:22.000Z</time>
      </trkpt>
      <trkpt lat="49.48285" lon="-1.57895">
        <ele>42.6</ele>
        <time>2019-04-23T13:24:23.000Z</time>
      </trkpt>
      <trkpt lat="49.48284" lon="-1.57897">
        <ele>42.7</ele>
        <time>2019-04-23T13:24:24.000Z</time>
      </trkpt>
      <trkpt lat="49.48284" lon="-1.57899">
        <ele>42.7</ele>
        <time>2019-04-23T13:24:25.000Z</time>
      </trkpt>
      <trkpt lat="49.48284" lon="-1.579">
        <ele>42.7</ele>
        <time>2019-04-23T13:24:26.000Z</time>
      </trkpt>
      <trkpt lat="49.48284" lon="-1.57902">
        <ele>42.7</ele>
        <time>2019-04-23T13:24:27.000Z</time>
      </trkpt>
      <trkpt lat="49.48283" lon="-1.57904">
        <ele>42.7</ele>
        <time>2019-04-23T13:24:28.000Z</time>
      </trkpt>
      <trkpt lat="49.48283" lon="-1.57906">
        <ele>42.8</ele>
        <time>2019-04-23T13:24:29.000Z</time>
      </trkpt>
      <trkpt lat="49.48283" lon="-1.57908">
        <ele>42.8</ele>
        <time>2019-04-23T13:24:30.000Z</time>
      </trkpt>
      <trkpt lat="49.48282" lon="-1.57909">
        <ele>42.8</ele>
        <time>2019-04-23T13:24:31.000Z</time>
      </trkpt>
      <trkpt lat="49.48282" lon="-1.57911">
        <ele>42.8</ele>
        <time>2019-04-23T13:24:32.000Z</time>
      </trkpt>
      <trkpt lat="49.48282" lon="-1.57913">
        <ele>42.8</ele>
        <time>2019-04-23T13:24:33.000Z</time>
      </trkpt>
      <trkpt lat="49.48281" lon="-1.57915">
        <ele>42.9</ele>
        <time>2019-04-23T13:24:34.000Z</time>
      </trkpt>
      <trkpt lat="49.48281" lon="-1.57916">
        <ele>42.9</ele>
        <time>2019-04-23T13:24:35.000Z</time>
      </trkpt>
      <trkpt lat="49.48281" lon="-1.57918">
        <ele>43</ele>
        <time>2019-04-23T13:24:36.000Z</time>
      </trkpt>
      <trkpt lat="49.48281" lon="-1.5792">
        <ele>43.1</ele>
        <time>2019-04-23T13:24:37.000Z</time>
      </trkpt>
      <trkpt lat="49.4828" lon="-1.57922">
        <ele>43.2</ele>
        <time>2019-04-23T13:24:38.000Z</time>
      </trkpt>
      <trkpt lat="49.4828" lon="-1.57924">
        <ele>43.3</ele>
        <time>2019-04-23T13:24:39.000Z</time>
      </trkpt>
      <trkpt lat="49.4828" lon="-1.57925">
        <ele>43.4</ele>
        <time>2019-04-23T13:24:40.000Z</time>
      </trkpt>
      <trkpt lat="49.4828" lon="-1.57927">
        <ele>43.5</ele>
        <time>2019-04-23T13:24:41.000Z</time>
      </trkpt>
      <trkpt lat="49.48279" lon="-1.57929">
        <ele>43.6</ele>
        <time>2019-04-23T13:24:42.000Z</time>
      </trkpt>
      <trkpt lat="49.48279" lon="-1.57931">
        <ele>43.7</ele>
        <time>2019-04-23T13:24:43.000Z</time>
      </trkpt>
      <trkpt lat="49.48279" lon="-1.57932">
        <ele>43.8</ele>
        <time>2019-04-23T13:24:44.000Z</time>
      </trkpt>
      <trkpt lat="49.48279" lon="-1.57934">
        <ele>43.9</ele>
        <time>2019-04-23T13:24:45.000Z</time>
      </trkpt>
      <trkpt lat="49.48279" lon="-1.57936">
        <ele>44</ele>
        <time>2019-04-23T13:24:46.000Z</time>
      </trkpt>
      <trkpt lat="49.48279" lon="-1.57938">
        <ele>44.1</ele>
        <time>2019-04-23T13:24:47.000Z</time>
      </trkpt>
      <trkpt lat="49.48278" lon="-1.57939">
        <ele>44.2</ele>
        <time>2019-04-23T13:24:48.000Z</time>
      </trkpt>
      <trkpt lat="49.48278" lon="-1.57941">
        <ele>44.3</ele>
        <time>2019-04-23T13:24:49.000Z</time>
      </trkpt>
      <trkpt lat="49.48278" lon="-1.57943">
        <ele>44.4</ele>
        <time>2019-04-23T13:24:50.000Z</time>
      </trkpt>
      <trkpt lat="49.48278" lon="-1.57945">
        <ele>44.6</ele>
        <time>2019-04-23T13:24:51.000Z</time>
      </trkpt>
      <trkpt lat="49.48278" lon="-1.57946">
        <ele>44.7</ele>
        <time>2019-04-23T13:24:52.000Z</time>
      </trkpt>
      <trkpt lat="49.48278" lon="-1.57948">
        <ele>44.8</ele>
        <time>2019-04-23T13:24:53.000Z</time>
      </trkpt>
      <trkpt lat="49.48278" lon="-1.5795">
        <ele>44.9</ele>
        <time>2019-04-23T13:24:54.000Z</time>
      </trkpt>
      <trkpt lat="49.48277" lon="-1.57951">
        <ele>45</ele>
        <time>2019-04-23T13:24:55.000Z</time>
      </trkpt>
      <trkpt lat="49.48277" lon="-1.57953">
        <ele>45.1</ele>
        <time>2019-04-23T13:24:56.000Z</time>
      </trkpt>
      <trkpt lat="49.48276" lon="-1.57954">
        <ele>45.2</ele>
        <time>2019-04-23T13:24:57.000Z</time>
      </trkpt>
      <trkpt lat="49.48276" lon="-1.57956">
        <ele>45.3</ele>
        <time>2019-04-23T13:24:58.000Z</time>
      </trkpt>
      <trkpt lat="49.48275" lon="-1.57957">
        <ele>45.4</ele>
        <time>2019-04-23T13:24:59.000Z</time>
      </trkpt>
      <trkpt lat="49.48274" lon="-1.57958">
        <ele>45.4</ele>
        <time>2019-04-23T13:25:00.000Z</time>
      </trkpt>
      <trkpt lat="49.48274" lon="-1.57959">
        <ele>45.5</ele>
        <time>2019-04-23T13:25:01.000Z</time>
      </trkpt>
      <trkpt lat="49.48273" lon="-1.5796">
        <ele>45.6</ele>
        <time>2019-04-23T13:25:02.000Z</time>
      </trkpt>
      <trkpt lat="49.48272" lon="-1.5796">
        <ele>45.7</ele>
        <time>2019-04-23T13:25:03.000Z</time>
      </trkpt>
      <trkpt lat="49.48271" lon="-1.57961">
        <ele>45.8</ele>
        <time>2019-04-23T13:25:04.000Z</time>
      </trkpt>
      <trkpt lat="49.4827" lon="-1.57961">
        <ele>45.8</ele>
        <time>2019-04-23T13:25:05.000Z</time>
      </trkpt>
      <trkpt lat="49.48269" lon="-1.57961">
        <ele>45.9</ele>
        <time>2019-04-23T13:25:06.000Z</time>
      </trkpt>
      <trkpt lat="49.48268" lon="-1.57961">
        <ele>45.9</ele>
        <time>2019-04-23T13:25:07.000Z</time>
      </trkpt>
      <trkpt lat="49.48267" lon="-1.57961">
        <ele>45.9</ele>
        <time>2019-04-23T13:25:08.000Z</time>
      </trkpt>
      <trkpt lat="49.48266" lon="-1.5796">
        <ele>45.9</ele>
        <time>2019-04-23T13:25:09.000Z</time>
      </trkpt>
      <trkpt lat="49.48265" lon="-1.5796">
        <ele>46</ele>
        <time>2019-04-23T13:25:10.000Z</time>
      </trkpt>
      <trkpt lat="49.48263" lon="-1.57959">
        <ele>46</ele>
        <time>2019-04-23T13:25:11.000Z</time>
      </trkpt>
      <trkpt lat="49.48262" lon="-1.57959">
        <ele>46</ele>
        <time>2019-04-23T13:25:12.000Z</time>
      </trkpt>
      <trkpt lat="49.48261" lon="-1.57958">
        <ele>46</ele>
        <time>2019-04-23T13:25:13.000Z</time>
      </trkpt>
      <trkpt lat="49.4826" lon="-1.57957">
        <ele>46</ele>
        <time>2019-04-23T13:25:14.000Z</time>
      </trkpt>
      <trkpt lat="49.48259" lon="-1.57957">
        <ele>46</ele>
        <time>2019-04-23T13:25:15.000Z</time>
      </trkpt>
      <trkpt lat="49.48258" lon="-1.57956">
        <ele>46</ele>
        <time>2019-04-23T13:25:16.000Z</time>
      </trkpt>
      <trkpt lat="49.48257" lon="-1.57955">
        <ele>46</ele>
        <time>2019-04-23T13:25:17.000Z</time>
      </trkpt>
      <trkpt lat="49.48256" lon="-1.57954">
        <ele>46</ele>
        <time>2019-04-23T13:25:18.000Z</time>
      </trkpt>
      <trkpt lat="49.48255" lon="-1.57954">
        <ele>46</ele>
        <time>2019-04-23T13:25:19.000Z</time>
      </trkpt>
      <trkpt lat="49.48254" lon="-1.57953">
        <ele>46</ele>
        <time>2019-04-23T13:25:20.000Z</time>
      </trkpt>
      <trkpt lat="49.48253" lon="-1.57953">
        <ele>46</ele>
        <time>2019-04-23T13:25:21.000Z</time>
      </trkpt>
      <trkpt lat="49.48252" lon="-1.57952">
        <ele>46</ele>
        <time>2019-04-23T13:25:22.000Z</time>
      </trkpt>
      <trkpt lat="49.48251" lon="-1.57952">
        <ele>46.1</ele>
        <time>2019-04-23T13:25:23.000Z</time>
      </trkpt>
      <trkpt lat="49.4825" lon="-1.57951">
        <ele>46.1</ele>
        <time>2019-04-23T13:25:24.000Z</time>
      </trkpt>
      <trkpt lat="49.48249" lon="-1.57951">
        <ele>46.1</ele>
        <time>2019-04-23T13:25:25.000Z</time>
      </trkpt>
      <trkpt lat="49.48248" lon="-1.5795">
        <ele>46.1</ele>
        <time>2019-04-23T13:25:26.000Z</time>
      </trkpt>
      <trkpt lat="49.48247" lon="-1.5795">
        <ele>46.1</ele>
        <time>2019-04-23T13:25:27.000Z</time>
      </trkpt>
      <trkpt lat="49.48246" lon="-1.57949">
        <ele>46.1</ele>
        <time>2019-04-23T13:25:28.000Z</time>
      </trkpt>
      <trkpt lat="49.48246" lon="-1.57949">
        <ele>46.1</ele>
        <time>2019-04-23T13:25:29.000Z</time>
      </trkpt>
      <trkpt lat="49.48245" lon="-1.57949">
        <ele>46.1</ele>
        <time>2019-04-23T13:25:30.000Z</time>
      </trkpt>
      <trkpt lat="49.48244" lon="-1.57949">
        <ele>46.1</ele>
        <time>2019-04-23T13:25:31.000Z</time>
      </trkpt>
      <trkpt lat="49.48243" lon="-1.57949">
        <ele>46.1</ele>
        <time>2019-04-23T13:25:32.000Z</time>
      </trkpt>
      <trkpt lat="49.48242" lon="-1.57949">
        <ele>46.1</ele>
        <time>2019-04-23T13:25:33.000Z</time>
      </trkpt>
      <trkpt lat="49.48242" lon="-1.57949">
        <ele>46.2</ele>
        <time>2019-04-23T13:25:34.000Z</time>
      </trkpt>
      <trkpt lat="49.48241" lon="-1.5795">
        <ele>46.2</ele>
        <time>2019-04-23T13:25:35.000Z</time>
      </trkpt>
      <trkpt lat="49.4824" lon="-1.5795">
        <ele>46.3</ele>
        <time>2019-04-23T13:25:36.000Z</time>
      </trkpt>
      <trkpt lat="49.48239" lon="-1.57951">
        <ele>46.3</ele>
        <time>2019-04-23T13:25:37.000Z</time>
      </trkpt>
      <trkpt lat="49.48238" lon="-1.57951">
        <ele>46.4</ele>
        <time>2019-04-23T13:25:38.000Z</time>
      </trkpt>
      <trkpt lat="49.48237" lon="-1.57951">
        <ele>46.4</ele>
        <time>2019-04-23T13:25:39.000Z</time>
      </trkpt>
      <trkpt lat="49.48237" lon="-1.57952">
        <ele>46.4</ele>
        <time>2019-04-23T13:25:40.000Z</time>
      </trkpt>
      <trkpt lat="49.48236" lon="-1.57952">
        <ele>46.5</ele>
        <time>2019-04-23T13:25:41.000Z</time>
      </trkpt>
      <trkpt lat="49.48236" lon="-1.57952">
        <ele>46.5</ele>
        <time>2019-04-23T13:25:42.000Z</time>
      </trkpt>
      <trkpt lat="49.48236" lon="-1.57952">
        <ele>46.5</ele>
        <time>2019-04-23T13:25:43.000Z</time>
      </trkpt>
      <trkpt lat="49.48236" lon="-1.57952">
        <ele>46.5</ele>
        <time>2019-04-23T13:25:44.000Z</time>
      </trkpt>
      <trkpt lat="49.48236" lon="-1.57952">
        <ele>46.5</ele>
        <time>2019-04-23T13:25:45.000Z</time>
      </trkpt>
      <trkpt lat="49.48236" lon="-1.57952">
        <ele>46.5</ele>
        <time>2019-04-23T13:25:46.000Z</time>
      </trkpt>
      <trkpt lat="49.48236" lon="-1.57952">
        <ele>46.5</ele>
        <time>2019-04-23T13:25:47.000Z</time>
      </trkpt>
      <trkpt lat="49.48236" lon="-1.57952">
        <ele>46.5</ele>
        <time>2019-04-23T13:25:48.000Z</time>
      </trkpt>
      <trkpt lat="49.48236" lon="-1.57952">
        <ele>46.5</ele>
        <time>2019-04-23T13:25:49.000Z</time>
      </trkpt>
      <trkpt lat="49.48236" lon="-1.57952">
        <ele>46.5</ele>
        <time>2019-04-23T13:25:50.000Z</time>
      </trkpt>
      <trkpt lat="49.48236" lon="-1.57952">
        <ele>46.5</ele>
        <time>2019-04-23T13:25:51.000Z</time>
      </trkpt>
      <trkpt lat="49.48236" lon="-1.57951">
        <ele>46.5</ele>
        <time>2019-04-23T13:25:52.000Z</time>
      </trkpt>
      <trkpt lat="49.48235" lon="-1.57951">
        <ele>46.5</ele>
        <time>2019-04-23T13:25:53.000Z</time>
      </trkpt>
      <trkpt lat="49.48235" lon="-1.57951">
        <ele>46.5</ele>
        <time>2019-04-23T13:25:54.000Z</time>
      </trkpt>
      <trkpt lat="49.48235" lon="-1.57951">
        <ele>46.5</ele>
        <time>2019-04-23T13:25:55.000Z</time>
      </trkpt>
      <trkpt lat="49.48235" lon="-1.57951">
        <ele>46.4</ele>
        <time>2019-04-23T13:25:56.000Z</time>
      </trkpt>
      <trkpt lat="49.48235" lon="-1.57951">
        <ele>46.4</ele>
        <time>2019-04-23T13:25:57.000Z</time>
      </trkpt>
      <trkpt lat="49.48235" lon="-1.57951">
        <ele>46.4</ele>
        <time>2019-04-23T13:25:58.000Z</time>
      </trkpt>
      <trkpt lat="49.48235" lon="-1.57951">
        <ele>46.4</ele>
        <time>2019-04-23T13:25:59.000Z</time>
      </trkpt>
      <trkpt lat="49.48235" lon="-1.57951">
        <ele>46.4</ele>
        <time>2019-04-23T13:26:00.000Z</time>
      </trkpt>
      <trkpt lat="49.48235" lon="-1.57951">
        <ele>46.4</ele>
        <time>2019-04-23T13:26:01.000Z</time>
      </trkpt>
      <trkpt lat="49.48235" lon="-1.57951">
        <ele>46.4</ele>
        <time>2019-04-23T13:26:02.000Z</time>
      </trkpt>
      <trkpt lat="49.48235" lon="-1.57951">
        <ele>46.4</ele>
        <time>2019-04-23T13:26:03.000Z</time>
      </trkpt>
      <trkpt lat="49.48235" lon="-1.57951">
        <ele>46.4</ele>
        <time>2019-04-23T13:26:04.000Z</time>
      </trkpt>
      <trkpt lat="49.48235" lon="-1.57951">
        <ele>46.4</ele>
        <time>2019-04-23T13:26:05.000Z</time>
      </trkpt>
      <trkpt lat="49.48235" lon="-1.57951">
        <ele>46.4</ele>
        <time>2019-04-23T13:26:06.000Z</time>
      </trkpt>
      <trkpt lat="49.48235" lon="-1.57951">
        <ele>46.4</ele>
        <time>2019-04-23T13:26:07.000Z</time>
      </trkpt>
      <trkpt lat="49.48235" lon="-1.57951">
        <ele>46.4</ele>
        <time>2019-04-23T13:26:08.000Z</time>
      </trkpt>
      <trkpt lat="49.48235" lon="-1.57951">
        <ele>46.4</ele>
        <time>2019-04-23T13:26:09.000Z</time>
      </trkpt>
      <trkpt lat="49.48235" lon="-1.57951">
        <ele>46.4</ele>
        <time>2019-04-23T13:26:10.000Z</time>
      </trkpt>
      <trkpt lat="49.48235" lon="-1.57951">
        <ele>46.4</ele>
        <time>2019-04-23T13:26:11.000Z</time>
      </trkpt>
      <trkpt lat="49.48235" lon="-1.57951">
        <ele>46.4</ele>
        <time>2019-04-23T13:26:12.000Z</time>
      </trkpt>
      <trkpt lat="49.48235" lon="-1.57951">
        <ele>46.4</ele>
        <time>2019-04-23T13:26:13.000Z</time>
      </trkpt>
      <trkpt lat="49.48235" lon="-1.57951">
        <ele>46.4</ele>
        <time>2019-04-23T13:26:14.000Z</time>
      </trkpt>
      <trkpt lat="49.48235" lon="-1.57951">
        <ele>46.4</ele>
        <time>2019-04-23T13:26:15.000Z</time>
      </trkpt>
      <trkpt lat="49.48235" lon="-1.57951">
        <ele>46.4</ele>
        <time>2019-04-23T13:26:16.000Z</time>
      </trkpt>
      <trkpt lat="49.48235" lon="-1.57951">
        <ele>46.4</ele>
        <time>2019-04-23T13:26:17.000Z</time>
      </trkpt>
      <trkpt lat="49.48235" lon="-1.57951">
        <ele>46.4</ele>
        <time>2019-04-23T13:26:18.000Z</time>
      </trkpt>
      <trkpt lat="49.48235" lon="-1.57951">
        <ele>46.4</ele>
        <time>2019-04-23T13:26:19.000Z</time>
      </trkpt>
      <trkpt lat="49.48235" lon="-1.57951">
        <ele>46.4</ele>
        <time>2019-04-23T13:26:20.000Z</time>
      </trkpt>
      <trkpt lat="49.48235" lon="-1.57951">
        <ele>46.4</ele>
        <time>2019-04-23T13:26:21.000Z</time>
      </trkpt>
      <trkpt lat="49.48235" lon="-1.57951">
        <ele>46.4</ele>
        <time>2019-04-23T13:26:22.000Z</time>
      </trkpt>
      <trkpt lat="49.48235" lon="-1.57951">
        <ele>46.4</ele>
        <time>2019-04-23T13:26:23.000Z</time>
      </trkpt>
      <trkpt lat="49.48235" lon="-1.57951">
        <ele>46.4</ele>
        <time>2019-04-23T13:26:24.000Z</time>
      </trkpt>
      <trkpt lat="49.48235" lon="-1.57951">
        <ele>46.4</ele>
        <time>2019-04-23T13:26:25.000Z</time>
      </trkpt>
      <trkpt lat="49.48235" lon="-1.57951">
        <ele>46.4</ele>
        <time>2019-04-23T13:26:26.000Z</time>
      </trkpt>
      <trkpt lat="49.48235" lon="-1.57951">
        <ele>46.4</ele>
        <time>2019-04-23T13:26:27.000Z</time>
      </trkpt>
      <trkpt lat="49.48235" lon="-1.57951">
        <ele>46.4</ele>
        <time>2019-04-23T13:26:28.000Z</time>
      </trkpt>
      <trkpt lat="49.48235" lon="-1.57951">
        <ele>46.4</ele>
        <time>2019-04-23T13:26:29.000Z</time>
      </trkpt>
      <trkpt lat="49.48235" lon="-1.57951">
        <ele>46.4</ele>
        <time>2019-04-23T13:26:30.000Z</time>
      </trkpt>
      <trkpt lat="49.48235" lon="-1.57951">
        <ele>46.4</ele>
        <time>2019-04-23T13:26:31.000Z</time>
      </trkpt>
      <trkpt lat="49.48235" lon="-1.57951">
        <ele>46.4</ele>
        <time>2019-04-23T13:26:32.000Z</time>
      </trkpt>
      <trkpt lat="49.48235" lon="-1.57951">
        <ele>46.4</ele>
        <time>2019-04-23T13:26:33.000Z</time>
      </trkpt>
      <trkpt lat="49.48235" lon="-1.57951">
        <ele>46.4</ele>
        <time>2019-04-23T13:26:34.000Z</time>
      </trkpt>
      <trkpt lat="49.48235" lon="-1.57951">
        <ele>46.4</ele>
        <time>2019-04-23T13:26:35.000Z</time>
      </trkpt>
      <trkpt lat="49.48235" lon="-1.57951">
        <ele>46.4</ele>
        <time>2019-04-23T13:26:36.000Z</time>
      </trkpt>
      <trkpt lat="49.48235" lon="-1.57951">
        <ele>46.4</ele>
        <time>2019-04-23T13:26:37.000Z</time>
      </trkpt>
      <trkpt lat="49.48235" lon="-1.57951">
        <ele>46.4</ele>
        <time>2019-04-23T13:26:38.000Z</time>
      </trkpt>
      <trkpt lat="49.48235" lon="-1.57951">
        <ele>46.4</ele>
        <time>2019-04-23T13:26:39.000Z</time>
      </trkpt>
      <trkpt lat="49.48235" lon="-1.57951">
        <ele>46.4</ele>
        <time>2019-04-23T13:26:40.000Z</time>
      </trkpt>
      <trkpt lat="49.48235" lon="-1.57951">
        <ele>46.4</ele>
        <time>2019-04-23T13:26:41.000Z</time>
      </trkpt>
      <trkpt lat="49.48235" lon="-1.57951">
        <ele>46.4</ele>
        <time>2019-04-23T13:26:42.000Z</time>
      </trkpt>
      <trkpt lat="49.48235" lon="-1.57951">
        <ele>46.4</ele>
        <time>2019-04-23T13:26:43.000Z</time>
      </trkpt>
      <trkpt lat="49.48235" lon="-1.57951">
        <ele>46.4</ele>
        <time>2019-04-23T13:26:44.000Z</time>
      </trkpt>
      <trkpt lat="49.48235" lon="-1.57951">
        <ele>46.4</ele>
        <time>2019-04-23T13:26:45.000Z</time>
      </trkpt>
      <trkpt lat="49.48235" lon="-1.57951">
        <ele>46.4</ele>
        <time>2019-04-23T13:26:46.000Z</time>
      </trkpt>
      <trkpt lat="49.48235" lon="-1.57951">
        <ele>46.4</ele>
        <time>2019-04-23T13:26:47.000Z</time>
      </trkpt>
      <trkpt lat="49.48235" lon="-1.57951">
        <ele>46.4</ele>
        <time>2019-04-23T13:26:48.000Z</time>
      </trkpt>
      <trkpt lat="49.48235" lon="-1.57951">
        <ele>46.4</ele>
        <time>2019-04-23T13:26:49.000Z</time>
      </trkpt>
      <trkpt lat="49.48235" lon="-1.57951">
        <ele>46.4</ele>
        <time>2019-04-23T13:26:50.000Z</time>
      </trkpt>
      <trkpt lat="49.48235" lon="-1.57951">
        <ele>46.4</ele>
        <time>2019-04-23T13:26:51.000Z</time>
      </trkpt>
      <trkpt lat="49.48235" lon="-1.5795">
        <ele>46.4</ele>
        <time>2019-04-23T13:26:52.000Z</time>
      </trkpt>
      <trkpt lat="49.48235" lon="-1.5795">
        <ele>46.4</ele>
        <time>2019-04-23T13:26:53.000Z</time>
      </trkpt>
      <trkpt lat="49.48235" lon="-1.5795">
        <ele>46.4</ele>
        <time>2019-04-23T13:26:54.000Z</time>
      </trkpt>
      <trkpt lat="49.48235" lon="-1.5795">
        <ele>46.4</ele>
        <time>2019-04-23T13:26:55.000Z</time>
      </trkpt>
      <trkpt lat="49.48235" lon="-1.5795">
        <ele>46.4</ele>
        <time>2019-04-23T13:26:56.000Z</time>
      </trkpt>
      <trkpt lat="49.48235" lon="-1.5795">
        <ele>46.4</ele>
        <time>2019-04-23T13:26:57.000Z</time>
      </trkpt>
      <trkpt lat="49.48235" lon="-1.5795">
        <ele>46.4</ele>
        <time>2019-04-23T13:26:58.000Z</time>
      </trkpt>
      <trkpt lat="49.48235" lon="-1.5795">
        <ele>46.4</ele>
        <time>2019-04-23T13:26:59.000Z</time>
      </trkpt>
      <trkpt lat="49.48235" lon="-1.5795">
        <ele>46.4</ele>
        <time>2019-04-23T13:27:00.000Z</time>
      </trkpt>
      <trkpt lat="49.48235" lon="-1.5795">
        <ele>46.4</ele>
        <time>2019-04-23T13:27:01.000Z</time>
      </trkpt>
      <trkpt lat="49.48235" lon="-1.5795">
        <ele>46.4</ele>
        <time>2019-04-23T13:27:02.000Z</time>
      </trkpt>
      <trkpt lat="49.48235" lon="-1.5795">
        <ele>46.4</ele>
        <time>2019-04-23T13:27:03.000Z</time>
      </trkpt>
      <trkpt lat="49.48235" lon="-1.5795">
        <ele>46.4</ele>
        <time>2019-04-23T13:27:04.000Z</time>
      </trkpt>
      <trkpt lat="49.48235" lon="-1.5795">
        <ele>46.4</ele>
        <time>2019-04-23T13:27:05.000Z</time>
      </trkpt>
      <trkpt lat="49.48235" lon="-1.5795">
        <ele>46.4</ele>
        <time>2019-04-23T13:27:06.000Z</time>
      </trkpt>
      <trkpt lat="49.48235" lon="-1.5795">
        <ele>46.4</ele>
        <time>2019-04-23T13:27:07.000Z</time>
      </trkpt>
      <trkpt lat="49.48235" lon="-1.5795">
        <ele>46.4</ele>
        <time>2019-04-23T13:27:08.000Z</time>
      </trkpt>
      <trkpt lat="49.48235" lon="-1.5795">
        <ele>46.4</ele>
        <time>2019-04-23T13:27:09.000Z</time>
      </trkpt>
      <trkpt lat="49.48235" lon="-1.5795">
        <ele>46.4</ele>
        <time>2019-04-23T13:27:10.000Z</time>
      </trkpt>
      <trkpt lat="49.48235" lon="-1.5795">
        <ele>46.4</ele>
        <time>2019-04-23T13:27:11.000Z</time>
      </trkpt>
      <trkpt lat="49.48235" lon="-1.5795">
        <ele>46.4</ele>
        <time>2019-04-23T13:27:12.000Z</time>
      </trkpt>
      <trkpt lat="49.48234" lon="-1.5795">
        <ele>46.4</ele>
        <time>2019-04-23T13:27:13.000Z</time>
      </trkpt>
      <trkpt lat="49.48234" lon="-1.5795">
        <ele>46.4</ele>
        <time>2019-04-23T13:27:14.000Z</time>
      </trkpt>
      <trkpt lat="49.48234" lon="-1.5795">
        <ele>46.4</ele>
        <time>2019-04-23T13:27:15.000Z</time>
      </trkpt>
      <trkpt lat="49.48234" lon="-1.5795">
        <ele>46.4</ele>
        <time>2019-04-23T13:27:16.000Z</time>
      </trkpt>
      <trkpt lat="49.48234" lon="-1.57949">
        <ele>46.4</ele>
        <time>2019-04-23T13:27:17.000Z</time>
      </trkpt>
      <trkpt lat="49.48234" lon="-1.57949">
        <ele>46.4</ele>
        <time>2019-04-23T13:27:18.000Z</time>
      </trkpt>
      <trkpt lat="49.48234" lon="-1.57949">
        <ele>46.4</ele>
        <time>2019-04-23T13:27:19.000Z</time>
      </trkpt>
      <trkpt lat="49.48234" lon="-1.57949">
        <ele>46.4</ele>
        <time>2019-04-23T13:27:20.000Z</time>
      </trkpt>
      <trkpt lat="49.48234" lon="-1.57949">
        <ele>46.4</ele>
        <time>2019-04-23T13:27:21.000Z</time>
      </trkpt>
      <trkpt lat="49.48234" lon="-1.57949">
        <ele>46.4</ele>
        <time>2019-04-23T13:27:22.000Z</time>
      </trkpt>
      <trkpt lat="49.48234" lon="-1.57949">
        <ele>46.4</ele>
        <time>2019-04-23T13:27:23.000Z</time>
      </trkpt>
      <trkpt lat="49.48234" lon="-1.57949">
        <ele>46.4</ele>
        <time>2019-04-23T13:27:24.000Z</time>
      </trkpt>
      <trkpt lat="49.48234" lon="-1.57949">
        <ele>46.4</ele>
        <time>2019-04-23T13:27:25.000Z</time>
      </trkpt>
      <trkpt lat="49.48234" lon="-1.57949">
        <ele>46.4</ele>
        <time>2019-04-23T13:27:26.000Z</time>
      </trkpt>
      <trkpt lat="49.48234" lon="-1.57949">
        <ele>46.4</ele>
        <time>2019-04-23T13:27:27.000Z</time>
      </trkpt>
      <trkpt lat="49.48234" lon="-1.57949">
        <ele>46.4</ele>
        <time>2019-04-23T13:27:28.000Z</time>
      </trkpt>
      <trkpt lat="49.48234" lon="-1.57949">
        <ele>46.4</ele>
        <time>2019-04-23T13:27:29.000Z</time>
      </trkpt>
      <trkpt lat="49.48234" lon="-1.57949">
        <ele>46.4</ele>
        <time>2019-04-23T13:27:30.000Z</time>
      </trkpt>
      <trkpt lat="49.48234" lon="-1.57949">
        <ele>46.4</ele>
        <time>2019-04-23T13:27:31.000Z</time>
      </trkpt>
      <trkpt lat="49.48234" lon="-1.57949">
        <ele>46.4</ele>
        <time>2019-04-23T13:27:32.000Z</time>
      </trkpt>
      <trkpt lat="49.48234" lon="-1.57949">
        <ele>46.4</ele>
        <time>2019-04-23T13:27:33.000Z</time>
      </trkpt>
      <trkpt lat="49.48234" lon="-1.57949">
        <ele>46.4</ele>
        <time>2019-04-23T13:27:34.000Z</time>
      </trkpt>
      <trkpt lat="49.48234" lon="-1.57949">
        <ele>46.4</ele>
        <time>2019-04-23T13:27:35.000Z</time>
      </trkpt>
      <trkpt lat="49.48234" lon="-1.57949">
        <ele>46.4</ele>
        <time>2019-04-23T13:27:36.000Z</time>
      </trkpt>
      <trkpt lat="49.48234" lon="-1.57949">
        <ele>46.4</ele>
        <time>2019-04-23T13:27:37.000Z</time>
      </trkpt>
      <trkpt lat="49.48234" lon="-1.57949">
        <ele>46.4</ele>
        <time>2019-04-23T13:27:38.000Z</time>
      </trkpt>
      <trkpt lat="49.48234" lon="-1.57949">
        <ele>46.4</ele>
        <time>2019-04-23T13:27:39.000Z</time>
      </trkpt>
      <trkpt lat="49.48234" lon="-1.57949">
        <ele>46.4</ele>
        <time>2019-04-23T13:27:40.000Z</time>
      </trkpt>
      <trkpt lat="49.48234" lon="-1.57949">
        <ele>46.4</ele>
        <time>2019-04-23T13:27:41.000Z</time>
      </trkpt>
      <trkpt lat="49.48234" lon="-1.57949">
        <ele>46.4</ele>
        <time>2019-04-23T13:27:42.000Z</time>
      </trkpt>
      <trkpt lat="49.48234" lon="-1.57949">
        <ele>46.4</ele>
        <time>2019-04-23T13:27:43.000Z</time>
      </trkpt>
      <trkpt lat="49.48234" lon="-1.57949">
        <ele>46.4</ele>
        <time>2019-04-23T13:27:44.000Z</time>
      </trkpt>
      <trkpt lat="49.48234" lon="-1.57949">
        <ele>46.4</ele>
        <time>2019-04-23T13:27:45.000Z</time>
      </trkpt>
      <trkpt lat="49.48234" lon="-1.57949">
        <ele>46.4</ele>
        <time>2019-04-23T13:27:46.000Z</time>
      </trkpt>
      <trkpt lat="49.48234" lon="-1.57949">
        <ele>46.4</ele>
        <time>2019-04-23T13:27:47.000Z</time>
      </trkpt>
      <trkpt lat="49.48234" lon="-1.57949">
        <ele>46.4</ele>
        <time>2019-04-23T13:27:48.000Z</time>
      </trkpt>
      <trkpt lat="49.48234" lon="-1.57949">
        <ele>46.4</ele>
        <time>2019-04-23T13:27:49.000Z</time>
      </trkpt>
      <trkpt lat="49.48234" lon="-1.57949">
        <ele>46.4</ele>
        <time>2019-04-23T13:27:50.000Z</time>
      </trkpt>
      <trkpt lat="49.48234" lon="-1.57949">
        <ele>46.4</ele>
        <time>2019-04-23T13:27:51.000Z</time>
      </trkpt>
      <trkpt lat="49.48234" lon="-1.57949">
        <ele>46.4</ele>
        <time>2019-04-23T13:27:52.000Z</time>
      </trkpt>
      <trkpt lat="49.48234" lon="-1.57949">
        <ele>46.4</ele>
        <time>2019-04-23T13:27:53.000Z</time>
      </trkpt>
      <trkpt lat="49.48234" lon="-1.57949">
        <ele>46.4</ele>
        <time>2019-04-23T13:27:54.000Z</time>
      </trkpt>
      <trkpt lat="49.48234" lon="-1.57949">
        <ele>46.4</ele>
        <time>2019-04-23T13:27:55.000Z</time>
      </trkpt>
      <trkpt lat="49.48234" lon="-1.57949">
        <ele>46.4</ele>
        <time>2019-04-23T13:27:56.000Z</time>
      </trkpt>
      <trkpt lat="49.48234" lon="-1.57949">
        <ele>46.4</ele>
        <time>2019-04-23T13:27:57.000Z</time>
      </trkpt>
      <trkpt lat="49.48234" lon="-1.57949">
        <ele>46.4</ele>
        <time>2019-04-23T13:27:58.000Z</time>
      </trkpt>
      <trkpt lat="49.48234" lon="-1.57949">
        <ele>46.4</ele>
        <time>2019-04-23T13:27:59.000Z</time>
      </trkpt>
      <trkpt lat="49.48234" lon="-1.57949">
        <ele>46.4</ele>
        <time>2019-04-23T13:28:00.000Z</time>
      </trkpt>
      <trkpt lat="49.48234" lon="-1.57949">
        <ele>46.4</ele>
        <time>2019-04-23T13:28:01.000Z</time>
      </trkpt>
      <trkpt lat="49.48234" lon="-1.57949">
        <ele>46.4</ele>
        <time>2019-04-23T13:28:02.000Z</time>
      </trkpt>
      <trkpt lat="49.48234" lon="-1.57949">
        <ele>46.4</ele>
        <time>2019-04-23T13:28:03.000Z</time>
      </trkpt>
      <trkpt lat="49.48234" lon="-1.57949">
        <ele>46.4</ele>
        <time>2019-04-23T13:28:04.000Z</time>
      </trkpt>
      <trkpt lat="49.48234" lon="-1.57949">
        <ele>46.4</ele>
        <time>2019-04-23T13:28:05.000Z</time>
      </trkpt>
      <trkpt lat="49.48234" lon="-1.57949">
        <ele>46.4</ele>
        <time>2019-04-23T13:28:06.000Z</time>
      </trkpt>
      <trkpt lat="49.48234" lon="-1.57949">
        <ele>46.4</ele>
        <time>2019-04-23T13:28:07.000Z</time>
      </trkpt>
      <trkpt lat="49.48234" lon="-1.57949">
        <ele>46.4</ele>
        <time>2019-04-23T13:28:08.000Z</time>
      </trkpt>
      <trkpt lat="49.48234" lon="-1.57949">
        <ele>46.4</ele>
        <time>2019-04-23T13:28:09.000Z</time>
      </trkpt>
      <trkpt lat="49.48234" lon="-1.57949">
        <ele>46.4</ele>
        <time>2019-04-23T13:28:10.000Z</time>
      </trkpt>
      <trkpt lat="49.48234" lon="-1.57949">
        <ele>46.4</ele>
        <time>2019-04-23T13:28:11.000Z</time>
      </trkpt>
      <trkpt lat="49.48234" lon="-1.57949">
        <ele>46.4</ele>
        <time>2019-04-23T13:28:12.000Z</time>
      </trkpt>
      <trkpt lat="49.48234" lon="-1.57949">
        <ele>46.4</ele>
        <time>2019-04-23T13:28:13.000Z</time>
      </trkpt>
      <trkpt lat="49.48234" lon="-1.57949">
        <ele>46.4</ele>
        <time>2019-04-23T13:28:14.000Z</time>
      </trkpt>
      <trkpt lat="49.48234" lon="-1.57949">
        <ele>46.4</ele>
        <time>2019-04-23T13:28:15.000Z</time>
      </trkpt>
      <trkpt lat="49.48234" lon="-1.57949">
        <ele>46.4</ele>
        <time>2019-04-23T13:28:16.000Z</time>
      </trkpt>
      <trkpt lat="49.48234" lon="-1.57949">
        <ele>46.4</ele>
        <time>2019-04-23T13:28:17.000Z</time>
      </trkpt>
      <trkpt lat="49.48234" lon="-1.57949">
        <ele>46.4</ele>
        <time>2019-04-23T13:28:18.000Z</time>
      </trkpt>
      <trkpt lat="49.48234" lon="-1.57949">
        <ele>46.4</ele>
        <time>2019-04-23T13:28:19.000Z</time>
      </trkpt>
      <trkpt lat="49.48234" lon="-1.57949">
        <ele>46.4</ele>
        <time>2019-04-23T13:28:20.000Z</time>
      </trkpt>
      <trkpt lat="49.48234" lon="-1.57949">
        <ele>46.4</ele>
        <time>2019-04-23T13:28:21.000Z</time>
      </trkpt>
      <trkpt lat="49.48234" lon="-1.57949">
        <ele>46.4</ele>
        <time>2019-04-23T13:28:22.000Z</time>
      </trkpt>
      <trkpt lat="49.48234" lon="-1.57949">
        <ele>46.4</ele>
        <time>2019-04-23T13:28:23.000Z</time>
      </trkpt>
      <trkpt lat="49.48234" lon="-1.57949">
        <ele>46.4</ele>
        <time>2019-04-23T13:28:24.000Z</time>
      </trkpt>
      <trkpt lat="49.48233" lon="-1.57949">
        <ele>46.4</ele>
        <time>2019-04-23T13:28:25.000Z</time>
      </trkpt>
      <trkpt lat="49.48233" lon="-1.57949">
        <ele>46.4</ele>
        <time>2019-04-23T13:28:26.000Z</time>
      </trkpt>
      <trkpt lat="49.48233" lon="-1.57949">
        <ele>46.4</ele>
        <time>2019-04-23T13:28:27.000Z</time>
      </trkpt>
      <trkpt lat="49.48233" lon="-1.57949">
        <ele>46.4</ele>
        <time>2019-04-23T13:28:28.000Z</time>
      </trkpt>
      <trkpt lat="49.48233" lon="-1.57949">
        <ele>46.4</ele>
        <time>2019-04-23T13:28:29.000Z</time>
      </trkpt>
      <trkpt lat="49.48232" lon="-1.5795">
        <ele>46.5</ele>
        <time>2019-04-23T13:28:30.000Z</time>
      </trkpt>
      <trkpt lat="49.48232" lon="-1.57951">
        <ele>46.5</ele>
        <time>2019-04-23T13:28:31.000Z</time>
      </trkpt>
      <trkpt lat="49.48232" lon="-1.57952">
        <ele>46.6</ele>
        <time>2019-04-23T13:28:32.000Z</time>
      </trkpt>
      <trkpt lat="49.48231" lon="-1.57953">
        <ele>46.6</ele>
        <time>2019-04-23T13:28:33.000Z</time>
      </trkpt>
      <trkpt lat="49.48231" lon="-1.57954">
        <ele>46.7</ele>
        <time>2019-04-23T13:28:34.000Z</time>
      </trkpt>
      <trkpt lat="49.4823" lon="-1.57955">
        <ele>46.8</ele>
        <time>2019-04-23T13:28:35.000Z</time>
      </trkpt>
      <trkpt lat="49.4823" lon="-1.57957">
        <ele>46.9</ele>
        <time>2019-04-23T13:28:36.000Z</time>
      </trkpt>
      <trkpt lat="49.48229" lon="-1.57959">
        <ele>47</ele>
        <time>2019-04-23T13:28:37.000Z</time>
      </trkpt>
      <trkpt lat="49.48229" lon="-1.5796">
        <ele>47.1</ele>
        <time>2019-04-23T13:28:38.000Z</time>
      </trkpt>
      <trkpt lat="49.48228" lon="-1.57962">
        <ele>47.2</ele>
        <time>2019-04-23T13:28:39.000Z</time>
      </trkpt>
      <trkpt lat="49.48227" lon="-1.57963">
        <ele>47.3</ele>
        <time>2019-04-23T13:28:40.000Z</time>
      </trkpt>
      <trkpt lat="49.48227" lon="-1.57965">
        <ele>47.4</ele>
        <time>2019-04-23T13:28:41.000Z</time>
      </trkpt>
      <trkpt lat="49.48226" lon="-1.57967">
        <ele>47.5</ele>
        <time>2019-04-23T13:28:42.000Z</time>
      </trkpt>
      <trkpt lat="49.48225" lon="-1.57968">
        <ele>47.6</ele>
        <time>2019-04-23T13:28:43.000Z</time>
      </trkpt>
      <trkpt lat="49.48225" lon="-1.5797">
        <ele>47.7</ele>
        <time>2019-04-23T13:28:44.000Z</time>
      </trkpt>
      <trkpt lat="49.48224" lon="-1.57971">
        <ele>47.8</ele>
        <time>2019-04-23T13:28:45.000Z</time>
      </trkpt>
      <trkpt lat="49.48223" lon="-1.57972">
        <ele>47.9</ele>
        <time>2019-04-23T13:28:46.000Z</time>
      </trkpt>
      <trkpt lat="49.48223" lon="-1.57974">
        <ele>48</ele>
        <time>2019-04-23T13:28:47.000Z</time>
      </trkpt>
      <trkpt lat="49.48222" lon="-1.57975">
        <ele>48.1</ele>
        <time>2019-04-23T13:28:48.000Z</time>
      </trkpt>
      <trkpt lat="49.48221" lon="-1.57977">
        <ele>48.1</ele>
        <time>2019-04-23T13:28:49.000Z</time>
      </trkpt>
      <trkpt lat="49.4822" lon="-1.57978">
        <ele>48.2</ele>
        <time>2019-04-23T13:28:50.000Z</time>
      </trkpt>
      <trkpt lat="49.4822" lon="-1.5798">
        <ele>48.3</ele>
        <time>2019-04-23T13:28:51.000Z</time>
      </trkpt>
      <trkpt lat="49.48219" lon="-1.57981">
        <ele>48.4</ele>
        <time>2019-04-23T13:28:52.000Z</time>
      </trkpt>
      <trkpt lat="49.48218" lon="-1.57983">
        <ele>48.5</ele>
        <time>2019-04-23T13:28:53.000Z</time>
      </trkpt>
      <trkpt lat="49.48217" lon="-1.57984">
        <ele>48.6</ele>
        <time>2019-04-23T13:28:54.000Z</time>
      </trkpt>
      <trkpt lat="49.48217" lon="-1.57986">
        <ele>48.7</ele>
        <time>2019-04-23T13:28:55.000Z</time>
      </trkpt>
      <trkpt lat="49.48216" lon="-1.57987">
        <ele>48.8</ele>
        <time>2019-04-23T13:28:56.000Z</time>
      </trkpt>
      <trkpt lat="49.48215" lon="-1.57989">
        <ele>48.9</ele>
        <time>2019-04-23T13:28:57.000Z</time>
      </trkpt>
      <trkpt lat="49.48215" lon="-1.5799">
        <ele>48.9</ele>
        <time>2019-04-23T13:28:58.000Z</time>
      </trkpt>
      <trkpt lat="49.48214" lon="-1.57992">
        <ele>49</ele>
        <time>2019-04-23T13:28:59.000Z</time>
      </trkpt>
      <trkpt lat="49.48214" lon="-1.57994">
        <ele>49.1</ele>
        <time>2019-04-23T13:29:00.000Z</time>
      </trkpt>
      <trkpt lat="49.48213" lon="-1.57995">
        <ele>49.2</ele>
        <time>2019-04-23T13:29:01.000Z</time>
      </trkpt>
      <trkpt lat="49.48213" lon="-1.57997">
        <ele>49.3</ele>
        <time>2019-04-23T13:29:02.000Z</time>
      </trkpt>
      <trkpt lat="49.48212" lon="-1.57999">
        <ele>49.4</ele>
        <time>2019-04-23T13:29:03.000Z</time>
      </trkpt>
      <trkpt lat="49.48212" lon="-1.58">
        <ele>49.5</ele>
        <time>2019-04-23T13:29:04.000Z</time>
      </trkpt>
      <trkpt lat="49.48212" lon="-1.58002">
        <ele>49.6</ele>
        <time>2019-04-23T13:29:05.000Z</time>
      </trkpt>
      <trkpt lat="49.48212" lon="-1.58004">
        <ele>49.7</ele>
        <time>2019-04-23T13:29:06.000Z</time>
      </trkpt>
      <trkpt lat="49.48211" lon="-1.58006">
        <ele>49.8</ele>
        <time>2019-04-23T13:29:07.000Z</time>
      </trkpt>
      <trkpt lat="49.48211" lon="-1.58007">
        <ele>49.9</ele>
        <time>2019-04-23T13:29:08.000Z</time>
      </trkpt>
      <trkpt lat="49.48211" lon="-1.58009">
        <ele>50</ele>
        <time>2019-04-23T13:29:09.000Z</time>
      </trkpt>
      <trkpt lat="49.48211" lon="-1.58011">
        <ele>50.1</ele>
        <time>2019-04-23T13:29:10.000Z</time>
      </trkpt>
      <trkpt lat="49.48211" lon="-1.58013">
        <ele>50.2</ele>
        <time>2019-04-23T13:29:11.000Z</time>
      </trkpt>
      <trkpt lat="49.48211" lon="-1.58014">
        <ele>50.2</ele>
        <time>2019-04-23T13:29:12.000Z</time>
      </trkpt>
      <trkpt lat="49.48211" lon="-1.58016">
        <ele>50.3</ele>
        <time>2019-04-23T13:29:13.000Z</time>
      </trkpt>
      <trkpt lat="49.48211" lon="-1.58018">
        <ele>50.4</ele>
        <time>2019-04-23T13:29:14.000Z</time>
      </trkpt>
      <trkpt lat="49.48211" lon="-1.5802">
        <ele>50.5</ele>
        <time>2019-04-23T13:29:15.000Z</time>
      </trkpt>
      <trkpt lat="49.48211" lon="-1.58021">
        <ele>50.6</ele>
        <time>2019-04-23T13:29:16.000Z</time>
      </trkpt>
      <trkpt lat="49.4821" lon="-1.58023">
        <ele>50.7</ele>
        <time>2019-04-23T13:29:17.000Z</time>
      </trkpt>
      <trkpt lat="49.4821" lon="-1.58024">
        <ele>50.8</ele>
        <time>2019-04-23T13:29:18.000Z</time>
      </trkpt>
      <trkpt lat="49.48209" lon="-1.58026">
        <ele>50.9</ele>
        <time>2019-04-23T13:29:19.000Z</time>
      </trkpt>
      <trkpt lat="49.48209" lon="-1.58027">
        <ele>51</ele>
        <time>2019-04-23T13:29:20.000Z</time>
      </trkpt>
      <trkpt lat="49.48208" lon="-1.58029">
        <ele>51.1</ele>
        <time>2019-04-23T13:29:21.000Z</time>
      </trkpt>
      <trkpt lat="49.48207" lon="-1.58031">
        <ele>51.2</ele>
        <time>2019-04-23T13:29:22.000Z</time>
      </trkpt>
      <trkpt lat="49.48206" lon="-1.58032">
        <ele>51.2</ele>
        <time>2019-04-23T13:29:23.000Z</time>
      </trkpt>
      <trkpt lat="49.48205" lon="-1.58034">
        <ele>51.3</ele>
        <time>2019-04-23T13:29:24.000Z</time>
      </trkpt>
      <trkpt lat="49.48204" lon="-1.58035">
        <ele>51.4</ele>
        <time>2019-04-23T13:29:25.000Z</time>
      </trkpt>
      <trkpt lat="49.48203" lon="-1.58037">
        <ele>51.5</ele>
        <time>2019-04-23T13:29:26.000Z</time>
      </trkpt>
      <trkpt lat="49.48202" lon="-1.58038">
        <ele>51.6</ele>
        <time>2019-04-23T13:29:27.000Z</time>
      </trkpt>
      <trkpt lat="49.48201" lon="-1.5804">
        <ele>51.7</ele>
        <time>2019-04-23T13:29:28.000Z</time>
      </trkpt>
      <trkpt lat="49.482" lon="-1.58041">
        <ele>51.8</ele>
        <time>2019-04-23T13:29:29.000Z</time>
      </trkpt>
      <trkpt lat="49.48199" lon="-1.58043">
        <ele>51.9</ele>
        <time>2019-04-23T13:29:30.000Z</time>
      </trkpt>
      <trkpt lat="49.48197" lon="-1.58044">
        <ele>51.9</ele>
        <time>2019-04-23T13:29:31.000Z</time>
      </trkpt>
      <trkpt lat="49.48196" lon="-1.58045">
        <ele>52</ele>
        <time>2019-04-23T13:29:32.000Z</time>
      </trkpt>
      <trkpt lat="49.48195" lon="-1.58047">
        <ele>52.1</ele>
        <time>2019-04-23T13:29:33.000Z</time>
      </trkpt>
      <trkpt lat="49.48194" lon="-1.58048">
        <ele>52.2</ele>
        <time>2019-04-23T13:29:34.000Z</time>
      </trkpt>
      <trkpt lat="49.48194" lon="-1.58049">
        <ele>52.2</ele>
        <time>2019-04-23T13:29:35.000Z</time>
      </trkpt>
      <trkpt lat="49.48193" lon="-1.58051">
        <ele>52.3</ele>
        <time>2019-04-23T13:29:36.000Z</time>
      </trkpt>
      <trkpt lat="49.48192" lon="-1.58052">
        <ele>52.4</ele>
        <time>2019-04-23T13:29:37.000Z</time>
      </trkpt>
      <trkpt lat="49.48191" lon="-1.58054">
        <ele>52.5</ele>
        <time>2019-04-23T13:29:38.000Z</time>
      </trkpt>
      <trkpt lat="49.48191" lon="-1.58055">
        <ele>52.6</ele>
        <time>2019-04-23T13:29:39.000Z</time>
      </trkpt>
      <trkpt lat="49.4819" lon="-1.58057">
        <ele>52.6</ele>
        <time>2019-04-23T13:29:40.000Z</time>
      </trkpt>
      <trkpt lat="49.48189" lon="-1.58059">
        <ele>52.7</ele>
        <time>2019-04-23T13:29:41.000Z</time>
      </trkpt>
      <trkpt lat="49.48188" lon="-1.5806">
        <ele>52.8</ele>
        <time>2019-04-23T13:29:42.000Z</time>
      </trkpt>
      <trkpt lat="49.48188" lon="-1.58062">
        <ele>52.9</ele>
        <time>2019-04-23T13:29:43.000Z</time>
      </trkpt>
      <trkpt lat="49.48187" lon="-1.58064">
        <ele>53</ele>
        <time>2019-04-23T13:29:44.000Z</time>
      </trkpt>
      <trkpt lat="49.48186" lon="-1.58066">
        <ele>53.1</ele>
        <time>2019-04-23T13:29:45.000Z</time>
      </trkpt>
      <trkpt lat="49.48186" lon="-1.58068">
        <ele>53.2</ele>
        <time>2019-04-23T13:29:46.000Z</time>
      </trkpt>
      <trkpt lat="49.48185" lon="-1.5807">
        <ele>53.3</ele>
        <time>2019-04-23T13:29:47.000Z</time>
      </trkpt>
      <trkpt lat="49.48184" lon="-1.58072">
        <ele>53.4</ele>
        <time>2019-04-23T13:29:48.000Z</time>
      </trkpt>
      <trkpt lat="49.48184" lon="-1.58073">
        <ele>53.5</ele>
        <time>2019-04-23T13:29:49.000Z</time>
      </trkpt>
      <trkpt lat="49.48183" lon="-1.58075">
        <ele>53.6</ele>
        <time>2019-04-23T13:29:50.000Z</time>
      </trkpt>
      <trkpt lat="49.48182" lon="-1.58077">
        <ele>53.7</ele>
        <time>2019-04-23T13:29:51.000Z</time>
      </trkpt>
      <trkpt lat="49.48182" lon="-1.58078">
        <ele>53.7</ele>
        <time>2019-04-23T13:29:52.000Z</time>
      </trkpt>
      <trkpt lat="49.48181" lon="-1.58079">
        <ele>53.8</ele>
        <time>2019-04-23T13:29:53.000Z</time>
      </trkpt>
      <trkpt lat="49.4818" lon="-1.58081">
        <ele>53.9</ele>
        <time>2019-04-23T13:29:54.000Z</time>
      </trkpt>
      <trkpt lat="49.4818" lon="-1.58082">
        <ele>53.9</ele>
        <time>2019-04-23T13:29:55.000Z</time>
      </trkpt>
      <trkpt lat="49.48179" lon="-1.58083">
        <ele>54</ele>
        <time>2019-04-23T13:29:56.000Z</time>
      </trkpt>
      <trkpt lat="49.48179" lon="-1.58085">
        <ele>54.1</ele>
        <time>2019-04-23T13:29:57.000Z</time>
      </trkpt>
      <trkpt lat="49.48178" lon="-1.58086">
        <ele>54.2</ele>
        <time>2019-04-23T13:29:58.000Z</time>
      </trkpt>
      <trkpt lat="49.48177" lon="-1.58087">
        <ele>54.2</ele>
        <time>2019-04-23T13:29:59.000Z</time>
      </trkpt>
      <trkpt lat="49.48177" lon="-1.58089">
        <ele>54.3</ele>
        <time>2019-04-23T13:30:00.000Z</time>
      </trkpt>
      <trkpt lat="49.48176" lon="-1.5809">
        <ele>54.4</ele>
        <time>2019-04-23T13:30:01.000Z</time>
      </trkpt>
      <trkpt lat="49.48176" lon="-1.58091">
        <ele>54.5</ele>
        <time>2019-04-23T13:30:02.000Z</time>
      </trkpt>
      <trkpt lat="49.48175" lon="-1.58093">
        <ele>54.6</ele>
        <time>2019-04-23T13:30:03.000Z</time>
      </trkpt>
      <trkpt lat="49.48175" lon="-1.58094">
        <ele>54.7</ele>
        <time>2019-04-23T13:30:04.000Z</time>
      </trkpt>
      <trkpt lat="49.48174" lon="-1.58096">
        <ele>54.7</ele>
        <time>2019-04-23T13:30:05.000Z</time>
      </trkpt>
      <trkpt lat="49.48174" lon="-1.58097">
        <ele>54.8</ele>
        <time>2019-04-23T13:30:06.000Z</time>
      </trkpt>
      <trkpt lat="49.48173" lon="-1.58099">
        <ele>54.9</ele>
        <time>2019-04-23T13:30:07.000Z</time>
      </trkpt>
      <trkpt lat="49.48173" lon="-1.581">
        <ele>55</ele>
        <time>2019-04-23T13:30:08.000Z</time>
      </trkpt>
      <trkpt lat="49.48172" lon="-1.58102">
        <ele>55.1</ele>
        <time>2019-04-23T13:30:09.000Z</time>
      </trkpt>
      <trkpt lat="49.48172" lon="-1.58103">
        <ele>55.2</ele>
        <time>2019-04-23T13:30:10.000Z</time>
      </trkpt>
      <trkpt lat="49.48171" lon="-1.58105">
        <ele>55.3</ele>
        <time>2019-04-23T13:30:11.000Z</time>
      </trkpt>
      <trkpt lat="49.48171" lon="-1.58107">
        <ele>55.4</ele>
        <time>2019-04-23T13:30:12.000Z</time>
      </trkpt>
      <trkpt lat="49.4817" lon="-1.58108">
        <ele>55.5</ele>
        <time>2019-04-23T13:30:13.000Z</time>
      </trkpt>
      <trkpt lat="49.4817" lon="-1.5811">
        <ele>55.6</ele>
        <time>2019-04-23T13:30:14.000Z</time>
      </trkpt>
      <trkpt lat="49.4817" lon="-1.58111">
        <ele>55.7</ele>
        <time>2019-04-23T13:30:15.000Z</time>
      </trkpt>
      <trkpt lat="49.48169" lon="-1.58113">
        <ele>55.8</ele>
        <time>2019-04-23T13:30:16.000Z</time>
      </trkpt>
      <trkpt lat="49.48169" lon="-1.58115">
        <ele>55.9</ele>
        <time>2019-04-23T13:30:17.000Z</time>
      </trkpt>
      <trkpt lat="49.48168" lon="-1.58117">
        <ele>56</ele>
        <time>2019-04-23T13:30:18.000Z</time>
      </trkpt>
      <trkpt lat="49.48168" lon="-1.58118">
        <ele>56.1</ele>
        <time>2019-04-23T13:30:19.000Z</time>
      </trkpt>
      <trkpt lat="49.48167" lon="-1.5812">
        <ele>56.2</ele>
        <time>2019-04-23T13:30:20.000Z</time>
      </trkpt>
      <trkpt lat="49.48166" lon="-1.58122">
        <ele>56.3</ele>
        <time>2019-04-23T13:30:21.000Z</time>
      </trkpt>
      <trkpt lat="49.48165" lon="-1.58124">
        <ele>56.4</ele>
        <time>2019-04-23T13:30:22.000Z</time>
      </trkpt>
      <trkpt lat="49.48164" lon="-1.58126">
        <ele>56.4</ele>
        <time>2019-04-23T13:30:23.000Z</time>
      </trkpt>
      <trkpt lat="49.48163" lon="-1.58127">
        <ele>56.5</ele>
        <time>2019-04-23T13:30:24.000Z</time>
      </trkpt>
      <trkpt lat="49.48162" lon="-1.58129">
        <ele>56.5</ele>
        <time>2019-04-23T13:30:25.000Z</time>
      </trkpt>
      <trkpt lat="49.48162" lon="-1.58131">
        <ele>56.6</ele>
        <time>2019-04-23T13:30:26.000Z</time>
      </trkpt>
      <trkpt lat="49.48161" lon="-1.58132">
        <ele>56.7</ele>
        <time>2019-04-23T13:30:27.000Z</time>
      </trkpt>
      <trkpt lat="49.4816" lon="-1.58134">
        <ele>56.7</ele>
        <time>2019-04-23T13:30:28.000Z</time>
      </trkpt>
      <trkpt lat="49.48159" lon="-1.58135">
        <ele>56.8</ele>
        <time>2019-04-23T13:30:29.000Z</time>
      </trkpt>
      <trkpt lat="49.48159" lon="-1.58137">
        <ele>56.8</ele>
        <time>2019-04-23T13:30:30.000Z</time>
      </trkpt>
      <trkpt lat="49.48158" lon="-1.58138">
        <ele>56.9</ele>
        <time>2019-04-23T13:30:31.000Z</time>
      </trkpt>
      <trkpt lat="49.48157" lon="-1.5814">
        <ele>57</ele>
        <time>2019-04-23T13:30:32.000Z</time>
      </trkpt>
      <trkpt lat="49.48156" lon="-1.58141">
        <ele>57</ele>
        <time>2019-04-23T13:30:33.000Z</time>
      </trkpt>
      <trkpt lat="49.48156" lon="-1.58143">
        <ele>57.1</ele>
        <time>2019-04-23T13:30:34.000Z</time>
      </trkpt>
      <trkpt lat="49.48155" lon="-1.58144">
        <ele>57.1</ele>
        <time>2019-04-23T13:30:35.000Z</time>
      </trkpt>
      <trkpt lat="49.48154" lon="-1.58146">
        <ele>57.2</ele>
        <time>2019-04-23T13:30:36.000Z</time>
      </trkpt>
      <trkpt lat="49.48154" lon="-1.58148">
        <ele>57.3</ele>
        <time>2019-04-23T13:30:37.000Z</time>
      </trkpt>
      <trkpt lat="49.48153" lon="-1.58149">
        <ele>57.3</ele>
        <time>2019-04-23T13:30:38.000Z</time>
      </trkpt>
      <trkpt lat="49.48153" lon="-1.58151">
        <ele>57.4</ele>
        <time>2019-04-23T13:30:39.000Z</time>
      </trkpt>
      <trkpt lat="49.48152" lon="-1.58153">
        <ele>57.5</ele>
        <time>2019-04-23T13:30:40.000Z</time>
      </trkpt>
      <trkpt lat="49.48151" lon="-1.58154">
        <ele>57.5</ele>
        <time>2019-04-23T13:30:41.000Z</time>
      </trkpt>
      <trkpt lat="49.48151" lon="-1.58156">
        <ele>57.6</ele>
        <time>2019-04-23T13:30:42.000Z</time>
      </trkpt>
      <trkpt lat="49.4815" lon="-1.58157">
        <ele>57.7</ele>
        <time>2019-04-23T13:30:43.000Z</time>
      </trkpt>
      <trkpt lat="49.48149" lon="-1.58159">
        <ele>57.7</ele>
        <time>2019-04-23T13:30:44.000Z</time>
      </trkpt>
      <trkpt lat="49.48149" lon="-1.58161">
        <ele>57.8</ele>
        <time>2019-04-23T13:30:45.000Z</time>
      </trkpt>
      <trkpt lat="49.48148" lon="-1.58162">
        <ele>57.9</ele>
        <time>2019-04-23T13:30:46.000Z</time>
      </trkpt>
      <trkpt lat="49.48148" lon="-1.58164">
        <ele>57.9</ele>
        <time>2019-04-23T13:30:47.000Z</time>
      </trkpt>
      <trkpt lat="49.48147" lon="-1.58166">
        <ele>58</ele>
        <time>2019-04-23T13:30:48.000Z</time>
      </trkpt>
      <trkpt lat="49.48147" lon="-1.58167">
        <ele>58.1</ele>
        <time>2019-04-23T13:30:49.000Z</time>
      </trkpt>
      <trkpt lat="49.48146" lon="-1.58169">
        <ele>58.1</ele>
        <time>2019-04-23T13:30:50.000Z</time>
      </trkpt>
      <trkpt lat="49.48146" lon="-1.5817">
        <ele>58.2</ele>
        <time>2019-04-23T13:30:51.000Z</time>
      </trkpt>
      <trkpt lat="49.48145" lon="-1.58172">
        <ele>58.2</ele>
        <time>2019-04-23T13:30:52.000Z</time>
      </trkpt>
      <trkpt lat="49.48145" lon="-1.58174">
        <ele>58.3</ele>
        <time>2019-04-23T13:30:53.000Z</time>
      </trkpt>
      <trkpt lat="49.48144" lon="-1.58175">
        <ele>58.4</ele>
        <time>2019-04-23T13:30:54.000Z</time>
      </trkpt>
      <trkpt lat="49.48144" lon="-1.58177">
        <ele>58.4</ele>
        <time>2019-04-23T13:30:55.000Z</time>
      </trkpt>
      <trkpt lat="49.48143" lon="-1.58178">
        <ele>58.5</ele>
        <time>2019-04-23T13:30:56.000Z</time>
      </trkpt>
      <trkpt lat="49.48143" lon="-1.5818">
        <ele>58.5</ele>
        <time>2019-04-23T13:30:57.000Z</time>
      </trkpt>
      <trkpt lat="49.48142" lon="-1.58181">
        <ele>58.6</ele>
        <time>2019-04-23T13:30:58.000Z</time>
      </trkpt>
      <trkpt lat="49.48142" lon="-1.58183">
        <ele>58.6</ele>
        <time>2019-04-23T13:30:59.000Z</time>
      </trkpt>
      <trkpt lat="49.48141" lon="-1.58185">
        <ele>58.7</ele>
        <time>2019-04-23T13:31:00.000Z</time>
      </trkpt>
      <trkpt lat="49.48141" lon="-1.58186">
        <ele>58.8</ele>
        <time>2019-04-23T13:31:01.000Z</time>
      </trkpt>
      <trkpt lat="49.4814" lon="-1.58188">
        <ele>58.8</ele>
        <time>2019-04-23T13:31:02.000Z</time>
      </trkpt>
      <trkpt lat="49.4814" lon="-1.58189">
        <ele>58.9</ele>
        <time>2019-04-23T13:31:03.000Z</time>
      </trkpt>
      <trkpt lat="49.48139" lon="-1.58191">
        <ele>58.9</ele>
        <time>2019-04-23T13:31:04.000Z</time>
      </trkpt>
      <trkpt lat="49.48138" lon="-1.58192">
        <ele>59</ele>
        <time>2019-04-23T13:31:05.000Z</time>
      </trkpt>
      <trkpt lat="49.48138" lon="-1.58194">
        <ele>59</ele>
        <time>2019-04-23T13:31:06.000Z</time>
      </trkpt>
      <trkpt lat="49.48137" lon="-1.58195">
        <ele>59.1</ele>
        <time>2019-04-23T13:31:07.000Z</time>
      </trkpt>
      <trkpt lat="49.48137" lon="-1.58197">
        <ele>59.1</ele>
        <time>2019-04-23T13:31:08.000Z</time>
      </trkpt>
      <trkpt lat="49.48136" lon="-1.58199">
        <ele>59.2</ele>
        <time>2019-04-23T13:31:09.000Z</time>
      </trkpt>
      <trkpt lat="49.48136" lon="-1.582">
        <ele>59.2</ele>
        <time>2019-04-23T13:31:10.000Z</time>
      </trkpt>
      <trkpt lat="49.48135" lon="-1.58202">
        <ele>59.3</ele>
        <time>2019-04-23T13:31:11.000Z</time>
      </trkpt>
      <trkpt lat="49.48135" lon="-1.58203">
        <ele>59.3</ele>
        <time>2019-04-23T13:31:12.000Z</time>
      </trkpt>
      <trkpt lat="49.48134" lon="-1.58205">
        <ele>59.4</ele>
        <time>2019-04-23T13:31:13.000Z</time>
      </trkpt>
      <trkpt lat="49.48133" lon="-1.58207">
        <ele>59.4</ele>
        <time>2019-04-23T13:31:14.000Z</time>
      </trkpt>
      <trkpt lat="49.48133" lon="-1.58208">
        <ele>59.5</ele>
        <time>2019-04-23T13:31:15.000Z</time>
      </trkpt>
      <trkpt lat="49.48132" lon="-1.5821">
        <ele>59.5</ele>
        <time>2019-04-23T13:31:16.000Z</time>
      </trkpt>
      <trkpt lat="49.48132" lon="-1.58211">
        <ele>59.5</ele>
        <time>2019-04-23T13:31:17.000Z</time>
      </trkpt>
      <trkpt lat="49.48131" lon="-1.58213">
        <ele>59.6</ele>
        <time>2019-04-23T13:31:18.000Z</time>
      </trkpt>
      <trkpt lat="49.4813" lon="-1.58214">
        <ele>59.6</ele>
        <time>2019-04-23T13:31:19.000Z</time>
      </trkpt>
      <trkpt lat="49.4813" lon="-1.58216">
        <ele>59.6</ele>
        <time>2019-04-23T13:31:20.000Z</time>
      </trkpt>
      <trkpt lat="49.48129" lon="-1.58218">
        <ele>59.7</ele>
        <time>2019-04-23T13:31:21.000Z</time>
      </trkpt>
      <trkpt lat="49.48128" lon="-1.58219">
        <ele>59.7</ele>
        <time>2019-04-23T13:31:22.000Z</time>
      </trkpt>
      <trkpt lat="49.48128" lon="-1.58221">
        <ele>59.8</ele>
        <time>2019-04-23T13:31:23.000Z</time>
      </trkpt>
      <trkpt lat="49.48127" lon="-1.58222">
        <ele>59.8</ele>
        <time>2019-04-23T13:31:24.000Z</time>
      </trkpt>
      <trkpt lat="49.48126" lon="-1.58224">
        <ele>59.8</ele>
        <time>2019-04-23T13:31:25.000Z</time>
      </trkpt>
      <trkpt lat="49.48125" lon="-1.58225">
        <ele>59.8</ele>
        <time>2019-04-23T13:31:26.000Z</time>
      </trkpt>
      <trkpt lat="49.48125" lon="-1.58227">
        <ele>59.9</ele>
        <time>2019-04-23T13:31:27.000Z</time>
      </trkpt>
      <trkpt lat="49.48124" lon="-1.58229">
        <ele>59.9</ele>
        <time>2019-04-23T13:31:28.000Z</time>
      </trkpt>
      <trkpt lat="49.48123" lon="-1.5823">
        <ele>59.9</ele>
        <time>2019-04-23T13:31:29.000Z</time>
      </trkpt>
      <trkpt lat="49.48122" lon="-1.58232">
        <ele>59.9</ele>
        <time>2019-04-23T13:31:30.000Z</time>
      </trkpt>
      <trkpt lat="49.48122" lon="-1.58233">
        <ele>60</ele>
        <time>2019-04-23T13:31:31.000Z</time>
      </trkpt>
      <trkpt lat="49.48121" lon="-1.58235">
        <ele>60</ele>
        <time>2019-04-23T13:31:32.000Z</time>
      </trkpt>
      <trkpt lat="49.4812" lon="-1.58236">
        <ele>60</ele>
        <time>2019-04-23T13:31:33.000Z</time>
      </trkpt>
      <trkpt lat="49.48119" lon="-1.58238">
        <ele>60</ele>
        <time>2019-04-23T13:31:34.000Z</time>
      </trkpt>
      <trkpt lat="49.48119" lon="-1.58239">
        <ele>60</ele>
        <time>2019-04-23T13:31:35.000Z</time>
      </trkpt>
      <trkpt lat="49.48118" lon="-1.58241">
        <ele>60.1</ele>
        <time>2019-04-23T13:31:36.000Z</time>
      </trkpt>
      <trkpt lat="49.48117" lon="-1.58242">
        <ele>60.1</ele>
        <time>2019-04-23T13:31:37.000Z</time>
      </trkpt>
      <trkpt lat="49.48117" lon="-1.58244">
        <ele>60.1</ele>
        <time>2019-04-23T13:31:38.000Z</time>
      </trkpt>
      <trkpt lat="49.48116" lon="-1.58245">
        <ele>60.1</ele>
        <time>2019-04-23T13:31:39.000Z</time>
      </trkpt>
      <trkpt lat="49.48115" lon="-1.58247">
        <ele>60.1</ele>
        <time>2019-04-23T13:31:40.000Z</time>
      </trkpt>
      <trkpt lat="49.48114" lon="-1.58248">
        <ele>60.2</ele>
        <time>2019-04-23T13:31:41.000Z</time>
      </trkpt>
      <trkpt lat="49.48114" lon="-1.5825">
        <ele>60.2</ele>
        <time>2019-04-23T13:31:42.000Z</time>
      </trkpt>
      <trkpt lat="49.48113" lon="-1.58251">
        <ele>60.2</ele>
        <time>2019-04-23T13:31:43.000Z</time>
      </trkpt>
      <trkpt lat="49.48112" lon="-1.58253">
        <ele>60.2</ele>
        <time>2019-04-23T13:31:44.000Z</time>
      </trkpt>
      <trkpt lat="49.48112" lon="-1.58254">
        <ele>60.2</ele>
        <time>2019-04-23T13:31:45.000Z</time>
      </trkpt>
      <trkpt lat="49.48111" lon="-1.58256">
        <ele>60.2</ele>
        <time>2019-04-23T13:31:46.000Z</time>
      </trkpt>
      <trkpt lat="49.48111" lon="-1.58258">
        <ele>60.2</ele>
        <time>2019-04-23T13:31:47.000Z</time>
      </trkpt>
      <trkpt lat="49.4811" lon="-1.58259">
        <ele>60.2</ele>
        <time>2019-04-23T13:31:48.000Z</time>
      </trkpt>
      <trkpt lat="49.48109" lon="-1.58261">
        <ele>60.2</ele>
        <time>2019-04-23T13:31:49.000Z</time>
      </trkpt>
      <trkpt lat="49.48109" lon="-1.58262">
        <ele>60.2</ele>
        <time>2019-04-23T13:31:50.000Z</time>
      </trkpt>
      <trkpt lat="49.48108" lon="-1.58264">
        <ele>60.2</ele>
        <time>2019-04-23T13:31:51.000Z</time>
      </trkpt>
      <trkpt lat="49.48108" lon="-1.58265">
        <ele>60.2</ele>
        <time>2019-04-23T13:31:52.000Z</time>
      </trkpt>
      <trkpt lat="49.48107" lon="-1.58267">
        <ele>60.3</ele>
        <time>2019-04-23T13:31:53.000Z</time>
      </trkpt>
      <trkpt lat="49.48106" lon="-1.58269">
        <ele>60.3</ele>
        <time>2019-04-23T13:31:54.000Z</time>
      </trkpt>
      <trkpt lat="49.48106" lon="-1.5827">
        <ele>60.3</ele>
        <time>2019-04-23T13:31:55.000Z</time>
      </trkpt>
      <trkpt lat="49.48105" lon="-1.58272">
        <ele>60.3</ele>
        <time>2019-04-23T13:31:56.000Z</time>
      </trkpt>
      <trkpt lat="49.48105" lon="-1.58274">
        <ele>60.3</ele>
        <time>2019-04-23T13:31:57.000Z</time>
      </trkpt>
      <trkpt lat="49.48104" lon="-1.58275">
        <ele>60.3</ele>
        <time>2019-04-23T13:31:58.000Z</time>
      </trkpt>
      <trkpt lat="49.48103" lon="-1.58277">
        <ele>60.3</ele>
        <time>2019-04-23T13:31:59.000Z</time>
      </trkpt>
      <trkpt lat="49.48103" lon="-1.58279">
        <ele>60.3</ele>
        <time>2019-04-23T13:32:00.000Z</time>
      </trkpt>
      <trkpt lat="49.48102" lon="-1.5828">
        <ele>60.3</ele>
        <time>2019-04-23T13:32:01.000Z</time>
      </trkpt>
      <trkpt lat="49.48101" lon="-1.58282">
        <ele>60.4</ele>
        <time>2019-04-23T13:32:02.000Z</time>
      </trkpt>
      <trkpt lat="49.48101" lon="-1.58284">
        <ele>60.4</ele>
        <time>2019-04-23T13:32:03.000Z</time>
      </trkpt>
      <trkpt lat="49.481" lon="-1.58285">
        <ele>60.4</ele>
        <time>2019-04-23T13:32:04.000Z</time>
      </trkpt>
      <trkpt lat="49.48099" lon="-1.58287">
        <ele>60.4</ele>
        <time>2019-04-23T13:32:05.000Z</time>
      </trkpt>
      <trkpt lat="49.48099" lon="-1.58289">
        <ele>60.4</ele>
        <time>2019-04-23T13:32:06.000Z</time>
      </trkpt>
      <trkpt lat="49.48098" lon="-1.5829">
        <ele>60.4</ele>
        <time>2019-04-23T13:32:07.000Z</time>
      </trkpt>
      <trkpt lat="49.48097" lon="-1.58292">
        <ele>60.4</ele>
        <time>2019-04-23T13:32:08.000Z</time>
      </trkpt>
      <trkpt lat="49.48097" lon="-1.58293">
        <ele>60.4</ele>
        <time>2019-04-23T13:32:09.000Z</time>
      </trkpt>
      <trkpt lat="49.48096" lon="-1.58295">
        <ele>60.5</ele>
        <time>2019-04-23T13:32:10.000Z</time>
      </trkpt>
      <trkpt lat="49.48096" lon="-1.58297">
        <ele>60.5</ele>
        <time>2019-04-23T13:32:11.000Z</time>
      </trkpt>
      <trkpt lat="49.48095" lon="-1.58298">
        <ele>60.5</ele>
        <time>2019-04-23T13:32:12.000Z</time>
      </trkpt>
      <trkpt lat="49.48095" lon="-1.58299">
        <ele>60.5</ele>
        <time>2019-04-23T13:32:13.000Z</time>
      </trkpt>
      <trkpt lat="49.48094" lon="-1.58301">
        <ele>60.5</ele>
        <time>2019-04-23T13:32:14.000Z</time>
      </trkpt>
      <trkpt lat="49.48094" lon="-1.58302">
        <ele>60.5</ele>
        <time>2019-04-23T13:32:15.000Z</time>
      </trkpt>
      <trkpt lat="49.48093" lon="-1.58304">
        <ele>60.6</ele>
        <time>2019-04-23T13:32:16.000Z</time>
      </trkpt>
      <trkpt lat="49.48093" lon="-1.58305">
        <ele>60.6</ele>
        <time>2019-04-23T13:32:17.000Z</time>
      </trkpt>
      <trkpt lat="49.48092" lon="-1.58307">
        <ele>60.6</ele>
        <time>2019-04-23T13:32:18.000Z</time>
      </trkpt>
      <trkpt lat="49.48091" lon="-1.58308">
        <ele>60.6</ele>
        <time>2019-04-23T13:32:19.000Z</time>
      </trkpt>
      <trkpt lat="49.48091" lon="-1.5831">
        <ele>60.6</ele>
        <time>2019-04-23T13:32:20.000Z</time>
      </trkpt>
      <trkpt lat="49.4809" lon="-1.58311">
        <ele>60.6</ele>
        <time>2019-04-23T13:32:21.000Z</time>
      </trkpt>
      <trkpt lat="49.4809" lon="-1.58313">
        <ele>60.6</ele>
        <time>2019-04-23T13:32:22.000Z</time>
      </trkpt>
      <trkpt lat="49.48089" lon="-1.58314">
        <ele>60.7</ele>
        <time>2019-04-23T13:32:23.000Z</time>
      </trkpt>
      <trkpt lat="49.48088" lon="-1.58316">
        <ele>60.7</ele>
        <time>2019-04-23T13:32:24.000Z</time>
      </trkpt>
      <trkpt lat="49.48088" lon="-1.58317">
        <ele>60.7</ele>
        <time>2019-04-23T13:32:25.000Z</time>
      </trkpt>
      <trkpt lat="49.48087" lon="-1.58319">
        <ele>60.7</ele>
        <time>2019-04-23T13:32:26.000Z</time>
      </trkpt>
      <trkpt lat="49.48086" lon="-1.5832">
        <ele>60.7</ele>
        <time>2019-04-23T13:32:27.000Z</time>
      </trkpt>
      <trkpt lat="49.48086" lon="-1.58322">
        <ele>60.7</ele>
        <time>2019-04-23T13:32:28.000Z</time>
      </trkpt>
      <trkpt lat="49.48085" lon="-1.58323">
        <ele>60.8</ele>
        <time>2019-04-23T13:32:29.000Z</time>
      </trkpt>
      <trkpt lat="49.48085" lon="-1.58325">
        <ele>60.8</ele>
        <time>2019-04-23T13:32:30.000Z</time>
      </trkpt>
      <trkpt lat="49.48084" lon="-1.58326">
        <ele>60.8</ele>
        <time>2019-04-23T13:32:31.000Z</time>
      </trkpt>
      <trkpt lat="49.48083" lon="-1.58328">
        <ele>60.8</ele>
        <time>2019-04-23T13:32:32.000Z</time>
      </trkpt>
      <trkpt lat="49.48083" lon="-1.58329">
        <ele>60.8</ele>
        <time>2019-04-23T13:32:33.000Z</time>
      </trkpt>
      <trkpt lat="49.48082" lon="-1.58331">
        <ele>60.9</ele>
        <time>2019-04-23T13:32:34.000Z</time>
      </trkpt>
      <trkpt lat="49.48082" lon="-1.58333">
        <ele>60.9</ele>
        <time>2019-04-23T13:32:35.000Z</time>
      </trkpt>
      <trkpt lat="49.48081" lon="-1.58334">
        <ele>60.9</ele>
        <time>2019-04-23T13:32:36.000Z</time>
      </trkpt>
      <trkpt lat="49.48081" lon="-1.58336">
        <ele>60.9</ele>
        <time>2019-04-23T13:32:37.000Z</time>
      </trkpt>
      <trkpt lat="49.4808" lon="-1.58337">
        <ele>60.9</ele>
        <time>2019-04-23T13:32:38.000Z</time>
      </trkpt>
      <trkpt lat="49.4808" lon="-1.58339">
        <ele>60.9</ele>
        <time>2019-04-23T13:32:39.000Z</time>
      </trkpt>
      <trkpt lat="49.48079" lon="-1.5834">
        <ele>60.9</ele>
        <time>2019-04-23T13:32:40.000Z</time>
      </trkpt>
      <trkpt lat="49.48079" lon="-1.58342">
        <ele>60.9</ele>
        <time>2019-04-23T13:32:41.000Z</time>
      </trkpt>
      <trkpt lat="49.48078" lon="-1.58343">
        <ele>60.9</ele>
        <time>2019-04-23T13:32:42.000Z</time>
      </trkpt>
      <trkpt lat="49.48077" lon="-1.58345">
        <ele>60.9</ele>
        <time>2019-04-23T13:32:43.000Z</time>
      </trkpt>
      <trkpt lat="49.48077" lon="-1.58346">
        <ele>60.9</ele>
        <time>2019-04-23T13:32:44.000Z</time>
      </trkpt>
      <trkpt lat="49.48076" lon="-1.58348">
        <ele>60.9</ele>
        <time>2019-04-23T13:32:45.000Z</time>
      </trkpt>
      <trkpt lat="49.48076" lon="-1.58349">
        <ele>60.9</ele>
        <time>2019-04-23T13:32:46.000Z</time>
      </trkpt>
      <trkpt lat="49.48075" lon="-1.58351">
        <ele>60.9</ele>
        <time>2019-04-23T13:32:47.000Z</time>
      </trkpt>
      <trkpt lat="49.48075" lon="-1.58353">
        <ele>60.9</ele>
        <time>2019-04-23T13:32:48.000Z</time>
      </trkpt>
      <trkpt lat="49.48074" lon="-1.58354">
        <ele>60.9</ele>
        <time>2019-04-23T13:32:49.000Z</time>
      </trkpt>
      <trkpt lat="49.48073" lon="-1.58356">
        <ele>60.9</ele>
        <time>2019-04-23T13:32:50.000Z</time>
      </trkpt>
      <trkpt lat="49.48073" lon="-1.58357">
        <ele>60.9</ele>
        <time>2019-04-23T13:32:51.000Z</time>
      </trkpt>
      <trkpt lat="49.48072" lon="-1.58359">
        <ele>60.9</ele>
        <time>2019-04-23T13:32:52.000Z</time>
      </trkpt>
      <trkpt lat="49.48071" lon="-1.5836">
        <ele>60.8</ele>
        <time>2019-04-23T13:32:53.000Z</time>
      </trkpt>
      <trkpt lat="49.4807" lon="-1.58362">
        <ele>60.8</ele>
        <time>2019-04-23T13:32:54.000Z</time>
      </trkpt>
      <trkpt lat="49.4807" lon="-1.58363">
        <ele>60.8</ele>
        <time>2019-04-23T13:32:55.000Z</time>
      </trkpt>
      <trkpt lat="49.48069" lon="-1.58365">
        <ele>60.9</ele>
        <time>2019-04-23T13:32:56.000Z</time>
      </trkpt>
      <trkpt lat="49.48068" lon="-1.58366">
        <ele>60.9</ele>
        <time>2019-04-23T13:32:57.000Z</time>
      </trkpt>
      <trkpt lat="49.48067" lon="-1.58368">
        <ele>60.9</ele>
        <time>2019-04-23T13:32:58.000Z</time>
      </trkpt>
      <trkpt lat="49.48067" lon="-1.5837">
        <ele>60.9</ele>
        <time>2019-04-23T13:32:59.000Z</time>
      </trkpt>
      <trkpt lat="49.48066" lon="-1.58371">
        <ele>60.9</ele>
        <time>2019-04-23T13:33:00.000Z</time>
      </trkpt>
      <trkpt lat="49.48065" lon="-1.58373">
        <ele>60.9</ele>
        <time>2019-04-23T13:33:01.000Z</time>
      </trkpt>
      <trkpt lat="49.48064" lon="-1.58374">
        <ele>60.9</ele>
        <time>2019-04-23T13:33:02.000Z</time>
      </trkpt>
      <trkpt lat="49.48064" lon="-1.58376">
        <ele>60.9</ele>
        <time>2019-04-23T13:33:03.000Z</time>
      </trkpt>
      <trkpt lat="49.48063" lon="-1.58377">
        <ele>60.9</ele>
        <time>2019-04-23T13:33:04.000Z</time>
      </trkpt>
      <trkpt lat="49.48062" lon="-1.58379">
        <ele>60.9</ele>
        <time>2019-04-23T13:33:05.000Z</time>
      </trkpt>
      <trkpt lat="49.48062" lon="-1.5838">
        <ele>60.9</ele>
        <time>2019-04-23T13:33:06.000Z</time>
      </trkpt>
      <trkpt lat="49.48061" lon="-1.58382">
        <ele>60.9</ele>
        <time>2019-04-23T13:33:07.000Z</time>
      </trkpt>
      <trkpt lat="49.4806" lon="-1.58384">
        <ele>60.9</ele>
        <time>2019-04-23T13:33:08.000Z</time>
      </trkpt>
      <trkpt lat="49.4806" lon="-1.58385">
        <ele>61</ele>
        <time>2019-04-23T13:33:09.000Z</time>
      </trkpt>
      <trkpt lat="49.48059" lon="-1.58387">
        <ele>61</ele>
        <time>2019-04-23T13:33:10.000Z</time>
      </trkpt>
      <trkpt lat="49.48059" lon="-1.58388">
        <ele>61</ele>
        <time>2019-04-23T13:33:11.000Z</time>
      </trkpt>
      <trkpt lat="49.48058" lon="-1.5839">
        <ele>61</ele>
        <time>2019-04-23T13:33:12.000Z</time>
      </trkpt>
      <trkpt lat="49.48058" lon="-1.58391">
        <ele>61</ele>
        <time>2019-04-23T13:33:13.000Z</time>
      </trkpt>
      <trkpt lat="49.48057" lon="-1.58393">
        <ele>61</ele>
        <time>2019-04-23T13:33:14.000Z</time>
      </trkpt>
      <trkpt lat="49.48057" lon="-1.58394">
        <ele>61.1</ele>
        <time>2019-04-23T13:33:15.000Z</time>
      </trkpt>
      <trkpt lat="49.48057" lon="-1.58396">
        <ele>61.1</ele>
        <time>2019-04-23T13:33:16.000Z</time>
      </trkpt>
      <trkpt lat="49.48056" lon="-1.58397">
        <ele>61.1</ele>
        <time>2019-04-23T13:33:17.000Z</time>
      </trkpt>
      <trkpt lat="49.48056" lon="-1.58399">
        <ele>61.1</ele>
        <time>2019-04-23T13:33:18.000Z</time>
      </trkpt>
      <trkpt lat="49.48056" lon="-1.584">
        <ele>61.1</ele>
        <time>2019-04-23T13:33:19.000Z</time>
      </trkpt>
      <trkpt lat="49.48055" lon="-1.58402">
        <ele>61.2</ele>
        <time>2019-04-23T13:33:20.000Z</time>
      </trkpt>
      <trkpt lat="49.48055" lon="-1.58403">
        <ele>61.2</ele>
        <time>2019-04-23T13:33:21.000Z</time>
      </trkpt>
      <trkpt lat="49.48054" lon="-1.58405">
        <ele>61.2</ele>
        <time>2019-04-23T13:33:22.000Z</time>
      </trkpt>
      <trkpt lat="49.48054" lon="-1.58406">
        <ele>61.2</ele>
        <time>2019-04-23T13:33:23.000Z</time>
      </trkpt>
      <trkpt lat="49.48053" lon="-1.58408">
        <ele>61.2</ele>
        <time>2019-04-23T13:33:24.000Z</time>
      </trkpt>
      <trkpt lat="49.48052" lon="-1.58409">
        <ele>61.3</ele>
        <time>2019-04-23T13:33:25.000Z</time>
      </trkpt>
      <trkpt lat="49.48052" lon="-1.58411">
        <ele>61.3</ele>
        <time>2019-04-23T13:33:26.000Z</time>
      </trkpt>
      <trkpt lat="49.48051" lon="-1.58413">
        <ele>61.3</ele>
        <time>2019-04-23T13:33:27.000Z</time>
      </trkpt>
      <trkpt lat="49.4805" lon="-1.58415">
        <ele>61.4</ele>
        <time>2019-04-23T13:33:28.000Z</time>
      </trkpt>
      <trkpt lat="49.48049" lon="-1.58416">
        <ele>61.4</ele>
        <time>2019-04-23T13:33:29.000Z</time>
      </trkpt>
      <trkpt lat="49.48048" lon="-1.58418">
        <ele>61.4</ele>
        <time>2019-04-23T13:33:30.000Z</time>
      </trkpt>
      <trkpt lat="49.48047" lon="-1.5842">
        <ele>61.4</ele>
        <time>2019-04-23T13:33:31.000Z</time>
      </trkpt>
      <trkpt lat="49.48046" lon="-1.58421">
        <ele>61.3</ele>
        <time>2019-04-23T13:33:32.000Z</time>
      </trkpt>
      <trkpt lat="49.48045" lon="-1.58423">
        <ele>61.3</ele>
        <time>2019-04-23T13:33:33.000Z</time>
      </trkpt>
      <trkpt lat="49.48044" lon="-1.58425">
        <ele>61.3</ele>
        <time>2019-04-23T13:33:34.000Z</time>
      </trkpt>
      <trkpt lat="49.48044" lon="-1.58426">
        <ele>61.2</ele>
        <time>2019-04-23T13:33:35.000Z</time>
      </trkpt>
      <trkpt lat="49.48043" lon="-1.58428">
        <ele>61.2</ele>
        <time>2019-04-23T13:33:36.000Z</time>
      </trkpt>
      <trkpt lat="49.48042" lon="-1.58429">
        <ele>61.2</ele>
        <time>2019-04-23T13:33:37.000Z</time>
      </trkpt>
      <trkpt lat="49.48042" lon="-1.58431">
        <ele>61.2</ele>
        <time>2019-04-23T13:33:38.000Z</time>
      </trkpt>
      <trkpt lat="49.48041" lon="-1.58432">
        <ele>61.1</ele>
        <time>2019-04-23T13:33:39.000Z</time>
      </trkpt>
      <trkpt lat="49.48041" lon="-1.58434">
        <ele>61.1</ele>
        <time>2019-04-23T13:33:40.000Z</time>
      </trkpt>
      <trkpt lat="49.48041" lon="-1.58435">
        <ele>61.1</ele>
        <time>2019-04-23T13:33:41.000Z</time>
      </trkpt>
      <trkpt lat="49.4804" lon="-1.58437">
        <ele>61.1</ele>
        <time>2019-04-23T13:33:42.000Z</time>
      </trkpt>
      <trkpt lat="49.4804" lon="-1.58438">
        <ele>61</ele>
        <time>2019-04-23T13:33:43.000Z</time>
      </trkpt>
      <trkpt lat="49.48039" lon="-1.5844">
        <ele>61</ele>
        <time>2019-04-23T13:33:44.000Z</time>
      </trkpt>
      <trkpt lat="49.48038" lon="-1.58441">
        <ele>61</ele>
        <time>2019-04-23T13:33:45.000Z</time>
      </trkpt>
      <trkpt lat="49.48038" lon="-1.58443">
        <ele>61</ele>
        <time>2019-04-23T13:33:46.000Z</time>
      </trkpt>
      <trkpt lat="49.48037" lon="-1.58444">
        <ele>61</ele>
        <time>2019-04-23T13:33:47.000Z</time>
      </trkpt>
      <trkpt lat="49.48036" lon="-1.58446">
        <ele>60.9</ele>
        <time>2019-04-23T13:33:48.000Z</time>
      </trkpt>
      <trkpt lat="49.48036" lon="-1.58448">
        <ele>60.9</ele>
        <time>2019-04-23T13:33:49.000Z</time>
      </trkpt>
      <trkpt lat="49.48035" lon="-1.58449">
        <ele>60.9</ele>
        <time>2019-04-23T13:33:50.000Z</time>
      </trkpt>
      <trkpt lat="49.48034" lon="-1.58451">
        <ele>60.9</ele>
        <time>2019-04-23T13:33:51.000Z</time>
      </trkpt>
      <trkpt lat="49.48034" lon="-1.58453">
        <ele>60.9</ele>
        <time>2019-04-23T13:33:52.000Z</time>
      </trkpt>
      <trkpt lat="49.48033" lon="-1.58455">
        <ele>60.9</ele>
        <time>2019-04-23T13:33:53.000Z</time>
      </trkpt>
      <trkpt lat="49.48032" lon="-1.58456">
        <ele>60.9</ele>
        <time>2019-04-23T13:33:54.000Z</time>
      </trkpt>
      <trkpt lat="49.48031" lon="-1.58458">
        <ele>60.9</ele>
        <time>2019-04-23T13:33:55.000Z</time>
      </trkpt>
      <trkpt lat="49.48031" lon="-1.5846">
        <ele>60.9</ele>
        <time>2019-04-23T13:33:56.000Z</time>
      </trkpt>
      <trkpt lat="49.4803" lon="-1.58462">
        <ele>60.9</ele>
        <time>2019-04-23T13:33:57.000Z</time>
      </trkpt>
      <trkpt lat="49.48029" lon="-1.58463">
        <ele>60.9</ele>
        <time>2019-04-23T13:33:58.000Z</time>
      </trkpt>
      <trkpt lat="49.48028" lon="-1.58465">
        <ele>60.9</ele>
        <time>2019-04-23T13:33:59.000Z</time>
      </trkpt>
      <trkpt lat="49.48028" lon="-1.58467">
        <ele>60.9</ele>
        <time>2019-04-23T13:34:00.000Z</time>
      </trkpt>
      <trkpt lat="49.48027" lon="-1.58468">
        <ele>60.9</ele>
        <time>2019-04-23T13:34:01.000Z</time>
      </trkpt>
      <trkpt lat="49.48026" lon="-1.5847">
        <ele>60.9</ele>
        <time>2019-04-23T13:34:02.000Z</time>
      </trkpt>
      <trkpt lat="49.48026" lon="-1.58472">
        <ele>60.9</ele>
        <time>2019-04-23T13:34:03.000Z</time>
      </trkpt>
      <trkpt lat="49.48025" lon="-1.58474">
        <ele>60.9</ele>
        <time>2019-04-23T13:34:04.000Z</time>
      </trkpt>
      <trkpt lat="49.48024" lon="-1.58475">
        <ele>60.9</ele>
        <time>2019-04-23T13:34:05.000Z</time>
      </trkpt>
      <trkpt lat="49.48024" lon="-1.58477">
        <ele>60.9</ele>
        <time>2019-04-23T13:34:06.000Z</time>
      </trkpt>
      <trkpt lat="49.48023" lon="-1.58478">
        <ele>60.9</ele>
        <time>2019-04-23T13:34:07.000Z</time>
      </trkpt>
      <trkpt lat="49.48023" lon="-1.5848">
        <ele>60.9</ele>
        <time>2019-04-23T13:34:08.000Z</time>
      </trkpt>
      <trkpt lat="49.48022" lon="-1.58482">
        <ele>60.9</ele>
        <time>2019-04-23T13:34:09.000Z</time>
      </trkpt>
      <trkpt lat="49.48021" lon="-1.58483">
        <ele>60.9</ele>
        <time>2019-04-23T13:34:10.000Z</time>
      </trkpt>
      <trkpt lat="49.48021" lon="-1.58485">
        <ele>60.9</ele>
        <time>2019-04-23T13:34:11.000Z</time>
      </trkpt>
      <trkpt lat="49.4802" lon="-1.58486">
        <ele>60.9</ele>
        <time>2019-04-23T13:34:12.000Z</time>
      </trkpt>
      <trkpt lat="49.4802" lon="-1.58488">
        <ele>61</ele>
        <time>2019-04-23T13:34:13.000Z</time>
      </trkpt>
      <trkpt lat="49.48019" lon="-1.5849">
        <ele>61</ele>
        <time>2019-04-23T13:34:14.000Z</time>
      </trkpt>
      <trkpt lat="49.48018" lon="-1.58491">
        <ele>61</ele>
        <time>2019-04-23T13:34:15.000Z</time>
      </trkpt>
      <trkpt lat="49.48018" lon="-1.58493">
        <ele>61</ele>
        <time>2019-04-23T13:34:16.000Z</time>
      </trkpt>
      <trkpt lat="49.48017" lon="-1.58494">
        <ele>61</ele>
        <time>2019-04-23T13:34:17.000Z</time>
      </trkpt>
      <trkpt lat="49.48017" lon="-1.58496">
        <ele>61</ele>
        <time>2019-04-23T13:34:18.000Z</time>
      </trkpt>
      <trkpt lat="49.48016" lon="-1.58498">
        <ele>61.1</ele>
        <time>2019-04-23T13:34:19.000Z</time>
      </trkpt>
      <trkpt lat="49.48016" lon="-1.58499">
        <ele>61.1</ele>
        <time>2019-04-23T13:34:20.000Z</time>
      </trkpt>
      <trkpt lat="49.48015" lon="-1.58501">
        <ele>61.1</ele>
        <time>2019-04-23T13:34:21.000Z</time>
      </trkpt>
      <trkpt lat="49.48014" lon="-1.58502">
        <ele>61.1</ele>
        <time>2019-04-23T13:34:22.000Z</time>
      </trkpt>
      <trkpt lat="49.48014" lon="-1.58504">
        <ele>61.1</ele>
        <time>2019-04-23T13:34:23.000Z</time>
      </trkpt>
      <trkpt lat="49.48013" lon="-1.58505">
        <ele>61.1</ele>
        <time>2019-04-23T13:34:24.000Z</time>
      </trkpt>
      <trkpt lat="49.48012" lon="-1.58507">
        <ele>61.2</ele>
        <time>2019-04-23T13:34:25.000Z</time>
      </trkpt>
      <trkpt lat="49.48012" lon="-1.58509">
        <ele>61.2</ele>
        <time>2019-04-23T13:34:26.000Z</time>
      </trkpt>
      <trkpt lat="49.48011" lon="-1.5851">
        <ele>61.2</ele>
        <time>2019-04-23T13:34:27.000Z</time>
      </trkpt>
      <trkpt lat="49.48011" lon="-1.58512">
        <ele>61.2</ele>
        <time>2019-04-23T13:34:28.000Z</time>
      </trkpt>
      <trkpt lat="49.4801" lon="-1.58513">
        <ele>61.2</ele>
        <time>2019-04-23T13:34:29.000Z</time>
      </trkpt>
      <trkpt lat="49.48009" lon="-1.58515">
        <ele>61.2</ele>
        <time>2019-04-23T13:34:30.000Z</time>
      </trkpt>
      <trkpt lat="49.48009" lon="-1.58517">
        <ele>61.3</ele>
        <time>2019-04-23T13:34:31.000Z</time>
      </trkpt>
      <trkpt lat="49.48008" lon="-1.58518">
        <ele>61.3</ele>
        <time>2019-04-23T13:34:32.000Z</time>
      </trkpt>
      <trkpt lat="49.48007" lon="-1.5852">
        <ele>61.3</ele>
        <time>2019-04-23T13:34:33.000Z</time>
      </trkpt>
      <trkpt lat="49.48007" lon="-1.58522">
        <ele>61.3</ele>
        <time>2019-04-23T13:34:34.000Z</time>
      </trkpt>
      <trkpt lat="49.48006" lon="-1.58523">
        <ele>61.3</ele>
        <time>2019-04-23T13:34:35.000Z</time>
      </trkpt>
      <trkpt lat="49.48006" lon="-1.58525">
        <ele>61.4</ele>
        <time>2019-04-23T13:34:36.000Z</time>
      </trkpt>
      <trkpt lat="49.48005" lon="-1.58527">
        <ele>61.4</ele>
        <time>2019-04-23T13:34:37.000Z</time>
      </trkpt>
      <trkpt lat="49.48004" lon="-1.58529">
        <ele>61.4</ele>
        <time>2019-04-23T13:34:38.000Z</time>
      </trkpt>
      <trkpt lat="49.48004" lon="-1.5853">
        <ele>61.4</ele>
        <time>2019-04-23T13:34:39.000Z</time>
      </trkpt>
      <trkpt lat="49.48003" lon="-1.58532">
        <ele>61.4</ele>
        <time>2019-04-23T13:34:40.000Z</time>
      </trkpt>
      <trkpt lat="49.48002" lon="-1.58534">
        <ele>61.4</ele>
        <time>2019-04-23T13:34:41.000Z</time>
      </trkpt>
      <trkpt lat="49.48002" lon="-1.58535">
        <ele>61.5</ele>
        <time>2019-04-23T13:34:42.000Z</time>
      </trkpt>
      <trkpt lat="49.48001" lon="-1.58537">
        <ele>61.5</ele>
        <time>2019-04-23T13:34:43.000Z</time>
      </trkpt>
      <trkpt lat="49.48001" lon="-1.58539">
        <ele>61.5</ele>
        <time>2019-04-23T13:34:44.000Z</time>
      </trkpt>
      <trkpt lat="49.48" lon="-1.58541">
        <ele>61.5</ele>
        <time>2019-04-23T13:34:45.000Z</time>
      </trkpt>
      <trkpt lat="49.47999" lon="-1.58542">
        <ele>61.5</ele>
        <time>2019-04-23T13:34:46.000Z</time>
      </trkpt>
      <trkpt lat="49.47999" lon="-1.58544">
        <ele>61.5</ele>
        <time>2019-04-23T13:34:47.000Z</time>
      </trkpt>
      <trkpt lat="49.47998" lon="-1.58546">
        <ele>61.5</ele>
        <time>2019-04-23T13:34:48.000Z</time>
      </trkpt>
      <trkpt lat="49.47998" lon="-1.58547">
        <ele>61.5</ele>
        <time>2019-04-23T13:34:49.000Z</time>
      </trkpt>
      <trkpt lat="49.47997" lon="-1.58549">
        <ele>61.5</ele>
        <time>2019-04-23T13:34:50.000Z</time>
      </trkpt>
      <trkpt lat="49.47996" lon="-1.58551">
        <ele>61.5</ele>
        <time>2019-04-23T13:34:51.000Z</time>
      </trkpt>
      <trkpt lat="49.47996" lon="-1.58552">
        <ele>61.5</ele>
        <time>2019-04-23T13:34:52.000Z</time>
      </trkpt>
      <trkpt lat="49.47995" lon="-1.58554">
        <ele>61.5</ele>
        <time>2019-04-23T13:34:53.000Z</time>
      </trkpt>
      <trkpt lat="49.47994" lon="-1.58556">
        <ele>61.6</ele>
        <time>2019-04-23T13:34:54.000Z</time>
      </trkpt>
      <trkpt lat="49.47994" lon="-1.58557">
        <ele>61.6</ele>
        <time>2019-04-23T13:34:55.000Z</time>
      </trkpt>
      <trkpt lat="49.47993" lon="-1.58559">
        <ele>61.6</ele>
        <time>2019-04-23T13:34:56.000Z</time>
      </trkpt>
      <trkpt lat="49.47993" lon="-1.5856">
        <ele>61.6</ele>
        <time>2019-04-23T13:34:57.000Z</time>
      </trkpt>
      <trkpt lat="49.47992" lon="-1.58562">
        <ele>61.6</ele>
        <time>2019-04-23T13:34:58.000Z</time>
      </trkpt>
      <trkpt lat="49.47991" lon="-1.58563">
        <ele>61.6</ele>
        <time>2019-04-23T13:34:59.000Z</time>
      </trkpt>
      <trkpt lat="49.47991" lon="-1.58565">
        <ele>61.6</ele>
        <time>2019-04-23T13:35:00.000Z</time>
      </trkpt>
      <trkpt lat="49.4799" lon="-1.58567">
        <ele>61.6</ele>
        <time>2019-04-23T13:35:01.000Z</time>
      </trkpt>
      <trkpt lat="49.47989" lon="-1.58568">
        <ele>61.7</ele>
        <time>2019-04-23T13:35:02.000Z</time>
      </trkpt>
      <trkpt lat="49.47989" lon="-1.5857">
        <ele>61.7</ele>
        <time>2019-04-23T13:35:03.000Z</time>
      </trkpt>
      <trkpt lat="49.47988" lon="-1.58571">
        <ele>61.7</ele>
        <time>2019-04-23T13:35:04.000Z</time>
      </trkpt>
      <trkpt lat="49.47987" lon="-1.58573">
        <ele>61.7</ele>
        <time>2019-04-23T13:35:05.000Z</time>
      </trkpt>
      <trkpt lat="49.47986" lon="-1.58574">
        <ele>61.7</ele>
        <time>2019-04-23T13:35:06.000Z</time>
      </trkpt>
      <trkpt lat="49.47986" lon="-1.58576">
        <ele>61.7</ele>
        <time>2019-04-23T13:35:07.000Z</time>
      </trkpt>
      <trkpt lat="49.47985" lon="-1.58578">
        <ele>61.8</ele>
        <time>2019-04-23T13:35:08.000Z</time>
      </trkpt>
      <trkpt lat="49.47984" lon="-1.58579">
        <ele>61.8</ele>
        <time>2019-04-23T13:35:09.000Z</time>
      </trkpt>
      <trkpt lat="49.47984" lon="-1.58581">
        <ele>61.8</ele>
        <time>2019-04-23T13:35:10.000Z</time>
      </trkpt>
      <trkpt lat="49.47983" lon="-1.58582">
        <ele>61.8</ele>
        <time>2019-04-23T13:35:11.000Z</time>
      </trkpt>
      <trkpt lat="49.47982" lon="-1.58584">
        <ele>61.8</ele>
        <time>2019-04-23T13:35:12.000Z</time>
      </trkpt>
      <trkpt lat="49.47982" lon="-1.58586">
        <ele>61.8</ele>
        <time>2019-04-23T13:35:13.000Z</time>
      </trkpt>
      <trkpt lat="49.47981" lon="-1.58587">
        <ele>61.8</ele>
        <time>2019-04-23T13:35:14.000Z</time>
      </trkpt>
      <trkpt lat="49.4798" lon="-1.58589">
        <ele>61.8</ele>
        <time>2019-04-23T13:35:15.000Z</time>
      </trkpt>
      <trkpt lat="49.4798" lon="-1.58591">
        <ele>61.8</ele>
        <time>2019-04-23T13:35:16.000Z</time>
      </trkpt>
      <trkpt lat="49.47979" lon="-1.58592">
        <ele>61.8</ele>
        <time>2019-04-23T13:35:17.000Z</time>
      </trkpt>
      <trkpt lat="49.47978" lon="-1.58594">
        <ele>61.8</ele>
        <time>2019-04-23T13:35:18.000Z</time>
      </trkpt>
      <trkpt lat="49.47978" lon="-1.58596">
        <ele>61.8</ele>
        <time>2019-04-23T13:35:19.000Z</time>
      </trkpt>
      <trkpt lat="49.47977" lon="-1.58597">
        <ele>61.8</ele>
        <time>2019-04-23T13:35:20.000Z</time>
      </trkpt>
      <trkpt lat="49.47976" lon="-1.58599">
        <ele>61.8</ele>
        <time>2019-04-23T13:35:21.000Z</time>
      </trkpt>
      <trkpt lat="49.47976" lon="-1.58601">
        <ele>61.8</ele>
        <time>2019-04-23T13:35:22.000Z</time>
      </trkpt>
      <trkpt lat="49.47975" lon="-1.58603">
        <ele>61.8</ele>
        <time>2019-04-23T13:35:23.000Z</time>
      </trkpt>
      <trkpt lat="49.47974" lon="-1.58604">
        <ele>61.8</ele>
        <time>2019-04-23T13:35:24.000Z</time>
      </trkpt>
      <trkpt lat="49.47974" lon="-1.58606">
        <ele>61.8</ele>
        <time>2019-04-23T13:35:25.000Z</time>
      </trkpt>
      <trkpt lat="49.47973" lon="-1.58608">
        <ele>61.8</ele>
        <time>2019-04-23T13:35:26.000Z</time>
      </trkpt>
      <trkpt lat="49.47972" lon="-1.5861">
        <ele>61.8</ele>
        <time>2019-04-23T13:35:27.000Z</time>
      </trkpt>
      <trkpt lat="49.47972" lon="-1.58611">
        <ele>61.8</ele>
        <time>2019-04-23T13:35:28.000Z</time>
      </trkpt>
      <trkpt lat="49.47971" lon="-1.58613">
        <ele>61.8</ele>
        <time>2019-04-23T13:35:29.000Z</time>
      </trkpt>
      <trkpt lat="49.4797" lon="-1.58615">
        <ele>61.8</ele>
        <time>2019-04-23T13:35:30.000Z</time>
      </trkpt>
      <trkpt lat="49.47969" lon="-1.58617">
        <ele>61.8</ele>
        <time>2019-04-23T13:35:31.000Z</time>
      </trkpt>
      <trkpt lat="49.47969" lon="-1.58618">
        <ele>61.8</ele>
        <time>2019-04-23T13:35:32.000Z</time>
      </trkpt>
      <trkpt lat="49.47968" lon="-1.5862">
        <ele>61.8</ele>
        <time>2019-04-23T13:35:33.000Z</time>
      </trkpt>
      <trkpt lat="49.47967" lon="-1.58622">
        <ele>61.8</ele>
        <time>2019-04-23T13:35:34.000Z</time>
      </trkpt>
      <trkpt lat="49.47966" lon="-1.58624">
        <ele>61.9</ele>
        <time>2019-04-23T13:35:35.000Z</time>
      </trkpt>
      <trkpt lat="49.47966" lon="-1.58625">
        <ele>61.9</ele>
        <time>2019-04-23T13:35:36.000Z</time>
      </trkpt>
      <trkpt lat="49.47965" lon="-1.58627">
        <ele>61.9</ele>
        <time>2019-04-23T13:35:37.000Z</time>
      </trkpt>
      <trkpt lat="49.47964" lon="-1.58629">
        <ele>61.9</ele>
        <time>2019-04-23T13:35:38.000Z</time>
      </trkpt>
      <trkpt lat="49.47963" lon="-1.5863">
        <ele>61.9</ele>
        <time>2019-04-23T13:35:39.000Z</time>
      </trkpt>
      <trkpt lat="49.47963" lon="-1.58632">
        <ele>61.9</ele>
        <time>2019-04-23T13:35:40.000Z</time>
      </trkpt>
      <trkpt lat="49.47962" lon="-1.58634">
        <ele>61.9</ele>
        <time>2019-04-23T13:35:41.000Z</time>
      </trkpt>
      <trkpt lat="49.47961" lon="-1.58636">
        <ele>61.9</ele>
        <time>2019-04-23T13:35:42.000Z</time>
      </trkpt>
      <trkpt lat="49.47961" lon="-1.58637">
        <ele>61.9</ele>
        <time>2019-04-23T13:35:43.000Z</time>
      </trkpt>
      <trkpt lat="49.4796" lon="-1.58639">
        <ele>61.9</ele>
        <time>2019-04-23T13:35:44.000Z</time>
      </trkpt>
      <trkpt lat="49.47959" lon="-1.58641">
        <ele>61.9</ele>
        <time>2019-04-23T13:35:45.000Z</time>
      </trkpt>
      <trkpt lat="49.47959" lon="-1.58642">
        <ele>61.9</ele>
        <time>2019-04-23T13:35:46.000Z</time>
      </trkpt>
      <trkpt lat="49.47958" lon="-1.58644">
        <ele>61.9</ele>
        <time>2019-04-23T13:35:47.000Z</time>
      </trkpt>
      <trkpt lat="49.47958" lon="-1.58646">
        <ele>61.9</ele>
        <time>2019-04-23T13:35:48.000Z</time>
      </trkpt>
      <trkpt lat="49.47957" lon="-1.58647">
        <ele>61.9</ele>
        <time>2019-04-23T13:35:49.000Z</time>
      </trkpt>
      <trkpt lat="49.47956" lon="-1.58649">
        <ele>61.9</ele>
        <time>2019-04-23T13:35:50.000Z</time>
      </trkpt>
      <trkpt lat="49.47956" lon="-1.5865">
        <ele>61.9</ele>
        <time>2019-04-23T13:35:51.000Z</time>
      </trkpt>
      <trkpt lat="49.47955" lon="-1.58651">
        <ele>61.9</ele>
        <time>2019-04-23T13:35:52.000Z</time>
      </trkpt>
      <trkpt lat="49.47955" lon="-1.58653">
        <ele>62</ele>
        <time>2019-04-23T13:35:53.000Z</time>
      </trkpt>
      <trkpt lat="49.47954" lon="-1.58654">
        <ele>62</ele>
        <time>2019-04-23T13:35:54.000Z</time>
      </trkpt>
      <trkpt lat="49.47954" lon="-1.58655">
        <ele>62</ele>
        <time>2019-04-23T13:35:55.000Z</time>
      </trkpt>
      <trkpt lat="49.47953" lon="-1.58657">
        <ele>62</ele>
        <time>2019-04-23T13:35:56.000Z</time>
      </trkpt>
      <trkpt lat="49.47953" lon="-1.58658">
        <ele>62</ele>
        <time>2019-04-23T13:35:57.000Z</time>
      </trkpt>
      <trkpt lat="49.47952" lon="-1.58659">
        <ele>62</ele>
        <time>2019-04-23T13:35:58.000Z</time>
      </trkpt>
      <trkpt lat="49.47952" lon="-1.5866">
        <ele>62</ele>
        <time>2019-04-23T13:35:59.000Z</time>
      </trkpt>
      <trkpt lat="49.47951" lon="-1.58662">
        <ele>62</ele>
        <time>2019-04-23T13:36:00.000Z</time>
      </trkpt>
      <trkpt lat="49.47951" lon="-1.58663">
        <ele>62</ele>
        <time>2019-04-23T13:36:01.000Z</time>
      </trkpt>
      <trkpt lat="49.4795" lon="-1.58665">
        <ele>62</ele>
        <time>2019-04-23T13:36:02.000Z</time>
      </trkpt>
      <trkpt lat="49.4795" lon="-1.58667">
        <ele>62</ele>
        <time>2019-04-23T13:36:03.000Z</time>
      </trkpt>
      <trkpt lat="49.47949" lon="-1.58669">
        <ele>62.1</ele>
        <time>2019-04-23T13:36:04.000Z</time>
      </trkpt>
      <trkpt lat="49.47949" lon="-1.5867">
        <ele>62.2</ele>
        <time>2019-04-23T13:36:05.000Z</time>
      </trkpt>
      <trkpt lat="49.47948" lon="-1.58672">
        <ele>62.2</ele>
        <time>2019-04-23T13:36:06.000Z</time>
      </trkpt>
      <trkpt lat="49.47948" lon="-1.58674">
        <ele>62.3</ele>
        <time>2019-04-23T13:36:07.000Z</time>
      </trkpt>
      <trkpt lat="49.47947" lon="-1.58676">
        <ele>62.4</ele>
        <time>2019-04-23T13:36:08.000Z</time>
      </trkpt>
      <trkpt lat="49.47946" lon="-1.58678">
        <ele>62.5</ele>
        <time>2019-04-23T13:36:09.000Z</time>
      </trkpt>
      <trkpt lat="49.47946" lon="-1.5868">
        <ele>62.6</ele>
        <time>2019-04-23T13:36:10.000Z</time>
      </trkpt>
      <trkpt lat="49.47945" lon="-1.58681">
        <ele>62.7</ele>
        <time>2019-04-23T13:36:11.000Z</time>
      </trkpt>
      <trkpt lat="49.47944" lon="-1.58683">
        <ele>62.8</ele>
        <time>2019-04-23T13:36:12.000Z</time>
      </trkpt>
      <trkpt lat="49.47943" lon="-1.58685">
        <ele>62.8</ele>
        <time>2019-04-23T13:36:13.000Z</time>
      </trkpt>
      <trkpt lat="49.47942" lon="-1.58687">
        <ele>62.9</ele>
        <time>2019-04-23T13:36:14.000Z</time>
      </trkpt>
      <trkpt lat="49.47941" lon="-1.58688">
        <ele>63</ele>
        <time>2019-04-23T13:36:15.000Z</time>
      </trkpt>
      <trkpt lat="49.4794" lon="-1.5869">
        <ele>63.1</ele>
        <time>2019-04-23T13:36:16.000Z</time>
      </trkpt>
      <trkpt lat="49.47939" lon="-1.58692">
        <ele>63.2</ele>
        <time>2019-04-23T13:36:17.000Z</time>
      </trkpt>
      <trkpt lat="49.47939" lon="-1.58694">
        <ele>63.3</ele>
        <time>2019-04-23T13:36:18.000Z</time>
      </trkpt>
      <trkpt lat="49.47938" lon="-1.58695">
        <ele>63.3</ele>
        <time>2019-04-23T13:36:19.000Z</time>
      </trkpt>
      <trkpt lat="49.47937" lon="-1.58697">
        <ele>63.4</ele>
        <time>2019-04-23T13:36:20.000Z</time>
      </trkpt>
      <trkpt lat="49.47936" lon="-1.58699">
        <ele>63.5</ele>
        <time>2019-04-23T13:36:21.000Z</time>
      </trkpt>
      <trkpt lat="49.47936" lon="-1.587">
        <ele>63.5</ele>
        <time>2019-04-23T13:36:22.000Z</time>
      </trkpt>
      <trkpt lat="49.47935" lon="-1.58702">
        <ele>63.6</ele>
        <time>2019-04-23T13:36:23.000Z</time>
      </trkpt>
      <trkpt lat="49.47934" lon="-1.58704">
        <ele>63.7</ele>
        <time>2019-04-23T13:36:24.000Z</time>
      </trkpt>
      <trkpt lat="49.47934" lon="-1.58705">
        <ele>63.7</ele>
        <time>2019-04-23T13:36:25.000Z</time>
      </trkpt>
      <trkpt lat="49.47933" lon="-1.58707">
        <ele>63.8</ele>
        <time>2019-04-23T13:36:26.000Z</time>
      </trkpt>
      <trkpt lat="49.47933" lon="-1.58708">
        <ele>63.8</ele>
        <time>2019-04-23T13:36:27.000Z</time>
      </trkpt>
      <trkpt lat="49.47932" lon="-1.58709">
        <ele>63.9</ele>
        <time>2019-04-23T13:36:28.000Z</time>
      </trkpt>
      <trkpt lat="49.47932" lon="-1.58711">
        <ele>63.9</ele>
        <time>2019-04-23T13:36:29.000Z</time>
      </trkpt>
      <trkpt lat="49.47932" lon="-1.58712">
        <ele>63.9</ele>
        <time>2019-04-23T13:36:30.000Z</time>
      </trkpt>
      <trkpt lat="49.47931" lon="-1.58713">
        <ele>64</ele>
        <time>2019-04-23T13:36:31.000Z</time>
      </trkpt>
      <trkpt lat="49.47931" lon="-1.58714">
        <ele>64</ele>
        <time>2019-04-23T13:36:32.000Z</time>
      </trkpt>
      <trkpt lat="49.4793" lon="-1.58716">
        <ele>64.1</ele>
        <time>2019-04-23T13:36:33.000Z</time>
      </trkpt>
      <trkpt lat="49.4793" lon="-1.58717">
        <ele>64.1</ele>
        <time>2019-04-23T13:36:34.000Z</time>
      </trkpt>
      <trkpt lat="49.4793" lon="-1.58718">
        <ele>64.1</ele>
        <time>2019-04-23T13:36:35.000Z</time>
      </trkpt>
      <trkpt lat="49.47929" lon="-1.5872">
        <ele>64.2</ele>
        <time>2019-04-23T13:36:36.000Z</time>
      </trkpt>
      <trkpt lat="49.47929" lon="-1.58721">
        <ele>64.2</ele>
        <time>2019-04-23T13:36:37.000Z</time>
      </trkpt>
      <trkpt lat="49.47928" lon="-1.58723">
        <ele>64.2</ele>
        <time>2019-04-23T13:36:38.000Z</time>
      </trkpt>
      <trkpt lat="49.47928" lon="-1.58724">
        <ele>64.3</ele>
        <time>2019-04-23T13:36:39.000Z</time>
      </trkpt>
      <trkpt lat="49.47928" lon="-1.58726">
        <ele>64.3</ele>
        <time>2019-04-23T13:36:40.000Z</time>
      </trkpt>
      <trkpt lat="49.47927" lon="-1.58727">
        <ele>64.4</ele>
        <time>2019-04-23T13:36:41.000Z</time>
      </trkpt>
      <trkpt lat="49.47927" lon="-1.58729">
        <ele>64.4</ele>
        <time>2019-04-23T13:36:42.000Z</time>
      </trkpt>
      <trkpt lat="49.47926" lon="-1.5873">
        <ele>64.4</ele>
        <time>2019-04-23T13:36:43.000Z</time>
      </trkpt>
      <trkpt lat="49.47926" lon="-1.58732">
        <ele>64.5</ele>
        <time>2019-04-23T13:36:44.000Z</time>
      </trkpt>
      <trkpt lat="49.47925" lon="-1.58733">
        <ele>64.5</ele>
        <time>2019-04-23T13:36:45.000Z</time>
      </trkpt>
      <trkpt lat="49.47925" lon="-1.58735">
        <ele>64.6</ele>
        <time>2019-04-23T13:36:46.000Z</time>
      </trkpt>
      <trkpt lat="49.47924" lon="-1.58737">
        <ele>64.6</ele>
        <time>2019-04-23T13:36:47.000Z</time>
      </trkpt>
      <trkpt lat="49.47924" lon="-1.58738">
        <ele>64.6</ele>
        <time>2019-04-23T13:36:48.000Z</time>
      </trkpt>
      <trkpt lat="49.47923" lon="-1.5874">
        <ele>64.7</ele>
        <time>2019-04-23T13:36:49.000Z</time>
      </trkpt>
      <trkpt lat="49.47923" lon="-1.58741">
        <ele>64.7</ele>
        <time>2019-04-23T13:36:50.000Z</time>
      </trkpt>
      <trkpt lat="49.47922" lon="-1.58743">
        <ele>64.8</ele>
        <time>2019-04-23T13:36:51.000Z</time>
      </trkpt>
      <trkpt lat="49.47922" lon="-1.58744">
        <ele>64.8</ele>
        <time>2019-04-23T13:36:52.000Z</time>
      </trkpt>
      <trkpt lat="49.47921" lon="-1.58746">
        <ele>64.8</ele>
        <time>2019-04-23T13:36:53.000Z</time>
      </trkpt>
      <trkpt lat="49.47921" lon="-1.58747">
        <ele>64.9</ele>
        <time>2019-04-23T13:36:54.000Z</time>
      </trkpt>
      <trkpt lat="49.4792" lon="-1.58749">
        <ele>64.9</ele>
        <time>2019-04-23T13:36:55.000Z</time>
      </trkpt>
      <trkpt lat="49.4792" lon="-1.5875">
        <ele>64.9</ele>
        <time>2019-04-23T13:36:56.000Z</time>
      </trkpt>
      <trkpt lat="49.47919" lon="-1.58752">
        <ele>65</ele>
        <time>2019-04-23T13:36:57.000Z</time>
      </trkpt>
      <trkpt lat="49.47919" lon="-1.58753">
        <ele>65.1</ele>
        <time>2019-04-23T13:36:58.000Z</time>
      </trkpt>
      <trkpt lat="49.47918" lon="-1.58754">
        <ele>65.1</ele>
        <time>2019-04-23T13:36:59.000Z</time>
      </trkpt>
      <trkpt lat="49.47917" lon="-1.58756">
        <ele>65.2</ele>
        <time>2019-04-23T13:37:00.000Z</time>
      </trkpt>
      <trkpt lat="49.47917" lon="-1.58757">
        <ele>65.3</ele>
        <time>2019-04-23T13:37:01.000Z</time>
      </trkpt>
      <trkpt lat="49.47916" lon="-1.58759">
        <ele>65.3</ele>
        <time>2019-04-23T13:37:02.000Z</time>
      </trkpt>
      <trkpt lat="49.47916" lon="-1.5876">
        <ele>65.4</ele>
        <time>2019-04-23T13:37:03.000Z</time>
      </trkpt>
      <trkpt lat="49.47915" lon="-1.58761">
        <ele>65.4</ele>
        <time>2019-04-23T13:37:04.000Z</time>
      </trkpt>
      <trkpt lat="49.47914" lon="-1.58763">
        <ele>65.5</ele>
        <time>2019-04-23T13:37:05.000Z</time>
      </trkpt>
      <trkpt lat="49.47914" lon="-1.58764">
        <ele>65.6</ele>
        <time>2019-04-23T13:37:06.000Z</time>
      </trkpt>
      <trkpt lat="49.47913" lon="-1.58766">
        <ele>65.6</ele>
        <time>2019-04-23T13:37:07.000Z</time>
      </trkpt>
      <trkpt lat="49.47912" lon="-1.58767">
        <ele>65.7</ele>
        <time>2019-04-23T13:37:08.000Z</time>
      </trkpt>
      <trkpt lat="49.47912" lon="-1.58768">
        <ele>65.7</ele>
        <time>2019-04-23T13:37:09.000Z</time>
      </trkpt>
      <trkpt lat="49.47911" lon="-1.5877">
        <ele>65.8</ele>
        <time>2019-04-23T13:37:10.000Z</time>
      </trkpt>
      <trkpt lat="49.4791" lon="-1.58771">
        <ele>65.9</ele>
        <time>2019-04-23T13:37:11.000Z</time>
      </trkpt>
      <trkpt lat="49.47909" lon="-1.58773">
        <ele>65.9</ele>
        <time>2019-04-23T13:37:12.000Z</time>
      </trkpt>
      <trkpt lat="49.47909" lon="-1.58774">
        <ele>66</ele>
        <time>2019-04-23T13:37:13.000Z</time>
      </trkpt>
      <trkpt lat="49.47908" lon="-1.58776">
        <ele>66.1</ele>
        <time>2019-04-23T13:37:14.000Z</time>
      </trkpt>
      <trkpt lat="49.47907" lon="-1.58777">
        <ele>66.1</ele>
        <time>2019-04-23T13:37:15.000Z</time>
      </trkpt>
      <trkpt lat="49.47907" lon="-1.58779">
        <ele>66.2</ele>
        <time>2019-04-23T13:37:16.000Z</time>
      </trkpt>
      <trkpt lat="49.47906" lon="-1.5878">
        <ele>66.3</ele>
        <time>2019-04-23T13:37:17.000Z</time>
      </trkpt>
      <trkpt lat="49.47905" lon="-1.58782">
        <ele>66.3</ele>
        <time>2019-04-23T13:37:18.000Z</time>
      </trkpt>
      <trkpt lat="49.47904" lon="-1.58783">
        <ele>66.4</ele>
        <time>2019-04-23T13:37:19.000Z</time>
      </trkpt>
      <trkpt lat="49.47904" lon="-1.58785">
        <ele>66.5</ele>
        <time>2019-04-23T13:37:20.000Z</time>
      </trkpt>
      <trkpt lat="49.47903" lon="-1.58787">
        <ele>66.5</ele>
        <time>2019-04-23T13:37:21.000Z</time>
      </trkpt>
      <trkpt lat="49.47902" lon="-1.58788">
        <ele>66.6</ele>
        <time>2019-04-23T13:37:22.000Z</time>
      </trkpt>
      <trkpt lat="49.47902" lon="-1.5879">
        <ele>66.7</ele>
        <time>2019-04-23T13:37:23.000Z</time>
      </trkpt>
      <trkpt lat="49.47901" lon="-1.58791">
        <ele>66.8</ele>
        <time>2019-04-23T13:37:24.000Z</time>
      </trkpt>
      <trkpt lat="49.47901" lon="-1.58793">
        <ele>66.8</ele>
        <time>2019-04-23T13:37:25.000Z</time>
      </trkpt>
      <trkpt lat="49.479" lon="-1.58794">
        <ele>66.9</ele>
        <time>2019-04-23T13:37:26.000Z</time>
      </trkpt>
      <trkpt lat="49.479" lon="-1.58796">
        <ele>67</ele>
        <time>2019-04-23T13:37:27.000Z</time>
      </trkpt>
      <trkpt lat="49.47899" lon="-1.58797">
        <ele>67</ele>
        <time>2019-04-23T13:37:28.000Z</time>
      </trkpt>
      <trkpt lat="49.47899" lon="-1.58799">
        <ele>67.1</ele>
        <time>2019-04-23T13:37:29.000Z</time>
      </trkpt>
      <trkpt lat="49.47898" lon="-1.588">
        <ele>67.2</ele>
        <time>2019-04-23T13:37:30.000Z</time>
      </trkpt>
      <trkpt lat="49.47898" lon="-1.58801">
        <ele>67.2</ele>
        <time>2019-04-23T13:37:31.000Z</time>
      </trkpt>
      <trkpt lat="49.47897" lon="-1.58803">
        <ele>67.3</ele>
        <time>2019-04-23T13:37:32.000Z</time>
      </trkpt>
      <trkpt lat="49.47897" lon="-1.58804">
        <ele>67.3</ele>
        <time>2019-04-23T13:37:33.000Z</time>
      </trkpt>
      <trkpt lat="49.47897" lon="-1.58806">
        <ele>67.4</ele>
        <time>2019-04-23T13:37:34.000Z</time>
      </trkpt>
      <trkpt lat="49.47896" lon="-1.58807">
        <ele>67.5</ele>
        <time>2019-04-23T13:37:35.000Z</time>
      </trkpt>
      <trkpt lat="49.47896" lon="-1.58809">
        <ele>67.5</ele>
        <time>2019-04-23T13:37:36.000Z</time>
      </trkpt>
      <trkpt lat="49.47895" lon="-1.5881">
        <ele>67.6</ele>
        <time>2019-04-23T13:37:37.000Z</time>
      </trkpt>
      <trkpt lat="49.47895" lon="-1.58812">
        <ele>67.7</ele>
        <time>2019-04-23T13:37:38.000Z</time>
      </trkpt>
      <trkpt lat="49.47894" lon="-1.58813">
        <ele>67.7</ele>
        <time>2019-04-23T13:37:39.000Z</time>
      </trkpt>
      <trkpt lat="49.47894" lon="-1.58814">
        <ele>67.8</ele>
        <time>2019-04-23T13:37:40.000Z</time>
      </trkpt>
      <trkpt lat="49.47893" lon="-1.58816">
        <ele>67.9</ele>
        <time>2019-04-23T13:37:41.000Z</time>
      </trkpt>
      <trkpt lat="49.47893" lon="-1.58817">
        <ele>67.9</ele>
        <time>2019-04-23T13:37:42.000Z</time>
      </trkpt>
      <trkpt lat="49.47892" lon="-1.58819">
        <ele>68</ele>
        <time>2019-04-23T13:37:43.000Z</time>
      </trkpt>
      <trkpt lat="49.47891" lon="-1.58821">
        <ele>68.1</ele>
        <time>2019-04-23T13:37:44.000Z</time>
      </trkpt>
      <trkpt lat="49.47891" lon="-1.58822">
        <ele>68.2</ele>
        <time>2019-04-23T13:37:45.000Z</time>
      </trkpt>
      <trkpt lat="49.4789" lon="-1.58824">
        <ele>68.3</ele>
        <time>2019-04-23T13:37:46.000Z</time>
      </trkpt>
      <trkpt lat="49.47889" lon="-1.58825">
        <ele>68.3</ele>
        <time>2019-04-23T13:37:47.000Z</time>
      </trkpt>
      <trkpt lat="49.47888" lon="-1.58827">
        <ele>68.4</ele>
        <time>2019-04-23T13:37:48.000Z</time>
      </trkpt>
      <trkpt lat="49.47887" lon="-1.58829">
        <ele>68.5</ele>
        <time>2019-04-23T13:37:49.000Z</time>
      </trkpt>
      <trkpt lat="49.47886" lon="-1.5883">
        <ele>68.6</ele>
        <time>2019-04-23T13:37:50.000Z</time>
      </trkpt>
      <trkpt lat="49.47886" lon="-1.58832">
        <ele>68.7</ele>
        <time>2019-04-23T13:37:51.000Z</time>
      </trkpt>
      <trkpt lat="49.47885" lon="-1.58834">
        <ele>68.8</ele>
        <time>2019-04-23T13:37:52.000Z</time>
      </trkpt>
      <trkpt lat="49.47885" lon="-1.58835">
        <ele>68.8</ele>
        <time>2019-04-23T13:37:53.000Z</time>
      </trkpt>
      <trkpt lat="49.47884" lon="-1.58837">
        <ele>68.9</ele>
        <time>2019-04-23T13:37:54.000Z</time>
      </trkpt>
      <trkpt lat="49.47884" lon="-1.58838">
        <ele>69</ele>
        <time>2019-04-23T13:37:55.000Z</time>
      </trkpt>
      <trkpt lat="49.47884" lon="-1.5884">
        <ele>69</ele>
        <time>2019-04-23T13:37:56.000Z</time>
      </trkpt>
      <trkpt lat="49.47883" lon="-1.58842">
        <ele>69.1</ele>
        <time>2019-04-23T13:37:57.000Z</time>
      </trkpt>
      <trkpt lat="49.47883" lon="-1.58843">
        <ele>69.2</ele>
        <time>2019-04-23T13:37:58.000Z</time>
      </trkpt>
      <trkpt lat="49.47883" lon="-1.58845">
        <ele>69.2</ele>
        <time>2019-04-23T13:37:59.000Z</time>
      </trkpt>
      <trkpt lat="49.47882" lon="-1.58847">
        <ele>69.3</ele>
        <time>2019-04-23T13:38:00.000Z</time>
      </trkpt>
      <trkpt lat="49.47881" lon="-1.58848">
        <ele>69.4</ele>
        <time>2019-04-23T13:38:01.000Z</time>
      </trkpt>
      <trkpt lat="49.47881" lon="-1.5885">
        <ele>69.5</ele>
        <time>2019-04-23T13:38:02.000Z</time>
      </trkpt>
      <trkpt lat="49.4788" lon="-1.58852">
        <ele>69.5</ele>
        <time>2019-04-23T13:38:03.000Z</time>
      </trkpt>
      <trkpt lat="49.47879" lon="-1.58853">
        <ele>69.6</ele>
        <time>2019-04-23T13:38:04.000Z</time>
      </trkpt>
      <trkpt lat="49.47878" lon="-1.58855">
        <ele>69.7</ele>
        <time>2019-04-23T13:38:05.000Z</time>
      </trkpt>
      <trkpt lat="49.47877" lon="-1.58856">
        <ele>69.8</ele>
        <time>2019-04-23T13:38:06.000Z</time>
      </trkpt>
      <trkpt lat="49.47876" lon="-1.58858">
        <ele>69.9</ele>
        <time>2019-04-23T13:38:07.000Z</time>
      </trkpt>
      <trkpt lat="49.47875" lon="-1.58859">
        <ele>69.9</ele>
        <time>2019-04-23T13:38:08.000Z</time>
      </trkpt>
      <trkpt lat="49.47874" lon="-1.58861">
        <ele>70</ele>
        <time>2019-04-23T13:38:09.000Z</time>
      </trkpt>
      <trkpt lat="49.47873" lon="-1.58862">
        <ele>70.1</ele>
        <time>2019-04-23T13:38:10.000Z</time>
      </trkpt>
      <trkpt lat="49.47873" lon="-1.58864">
        <ele>70.2</ele>
        <time>2019-04-23T13:38:11.000Z</time>
      </trkpt>
      <trkpt lat="49.47872" lon="-1.58865">
        <ele>70.2</ele>
        <time>2019-04-23T13:38:12.000Z</time>
      </trkpt>
      <trkpt lat="49.47872" lon="-1.58867">
        <ele>70.3</ele>
        <time>2019-04-23T13:38:13.000Z</time>
      </trkpt>
      <trkpt lat="49.47871" lon="-1.58868">
        <ele>70.3</ele>
        <time>2019-04-23T13:38:14.000Z</time>
      </trkpt>
      <trkpt lat="49.47871" lon="-1.5887">
        <ele>70.4</ele>
        <time>2019-04-23T13:38:15.000Z</time>
      </trkpt>
      <trkpt lat="49.47871" lon="-1.58871">
        <ele>70.5</ele>
        <time>2019-04-23T13:38:16.000Z</time>
      </trkpt>
      <trkpt lat="49.4787" lon="-1.58873">
        <ele>70.5</ele>
        <time>2019-04-23T13:38:17.000Z</time>
      </trkpt>
      <trkpt lat="49.4787" lon="-1.58875">
        <ele>70.6</ele>
        <time>2019-04-23T13:38:18.000Z</time>
      </trkpt>
      <trkpt lat="49.47869" lon="-1.58876">
        <ele>70.7</ele>
        <time>2019-04-23T13:38:19.000Z</time>
      </trkpt>
      <trkpt lat="49.47869" lon="-1.58878">
        <ele>70.8</ele>
        <time>2019-04-23T13:38:20.000Z</time>
      </trkpt>
      <trkpt lat="49.47868" lon="-1.58879">
        <ele>70.8</ele>
        <time>2019-04-23T13:38:21.000Z</time>
      </trkpt>
      <trkpt lat="49.47867" lon="-1.58881">
        <ele>70.9</ele>
        <time>2019-04-23T13:38:22.000Z</time>
      </trkpt>
      <trkpt lat="49.47867" lon="-1.58883">
        <ele>71</ele>
        <time>2019-04-23T13:38:23.000Z</time>
      </trkpt>
      <trkpt lat="49.47866" lon="-1.58884">
        <ele>71</ele>
        <time>2019-04-23T13:38:24.000Z</time>
      </trkpt>
      <trkpt lat="49.47865" lon="-1.58886">
        <ele>71.1</ele>
        <time>2019-04-23T13:38:25.000Z</time>
      </trkpt>
      <trkpt lat="49.47865" lon="-1.58887">
        <ele>71.2</ele>
        <time>2019-04-23T13:38:26.000Z</time>
      </trkpt>
      <trkpt lat="49.47864" lon="-1.58888">
        <ele>71.2</ele>
        <time>2019-04-23T13:38:27.000Z</time>
      </trkpt>
      <trkpt lat="49.47864" lon="-1.58889">
        <ele>71.3</ele>
        <time>2019-04-23T13:38:28.000Z</time>
      </trkpt>
      <trkpt lat="49.47863" lon="-1.5889">
        <ele>71.3</ele>
        <time>2019-04-23T13:38:29.000Z</time>
      </trkpt>
      <trkpt lat="49.47863" lon="-1.58891">
        <ele>71.4</ele>
        <time>2019-04-23T13:38:30.000Z</time>
      </trkpt>
      <trkpt lat="49.47863" lon="-1.58892">
        <ele>71.4</ele>
        <time>2019-04-23T13:38:31.000Z</time>
      </trkpt>
      <trkpt lat="49.47863" lon="-1.58892">
        <ele>71.4</ele>
        <time>2019-04-23T13:38:32.000Z</time>
      </trkpt>
      <trkpt lat="49.47863" lon="-1.58892">
        <ele>71.4</ele>
        <time>2019-04-23T13:38:33.000Z</time>
      </trkpt>
      <trkpt lat="49.47862" lon="-1.58893">
        <ele>71.4</ele>
        <time>2019-04-23T13:38:34.000Z</time>
      </trkpt>
      <trkpt lat="49.47862" lon="-1.58893">
        <ele>71.5</ele>
        <time>2019-04-23T13:38:35.000Z</time>
      </trkpt>
      <trkpt lat="49.47862" lon="-1.58893">
        <ele>71.5</ele>
        <time>2019-04-23T13:38:36.000Z</time>
      </trkpt>
      <trkpt lat="49.47862" lon="-1.58894">
        <ele>71.5</ele>
        <time>2019-04-23T13:38:37.000Z</time>
      </trkpt>
      <trkpt lat="49.47862" lon="-1.58894">
        <ele>71.5</ele>
        <time>2019-04-23T13:38:38.000Z</time>
      </trkpt>
      <trkpt lat="49.47862" lon="-1.58894">
        <ele>71.5</ele>
        <time>2019-04-23T13:38:39.000Z</time>
      </trkpt>
      <trkpt lat="49.47862" lon="-1.58894">
        <ele>71.5</ele>
        <time>2019-04-23T13:38:40.000Z</time>
      </trkpt>
      <trkpt lat="49.47862" lon="-1.58894">
        <ele>71.5</ele>
        <time>2019-04-23T13:38:41.000Z</time>
      </trkpt>
      <trkpt lat="49.47862" lon="-1.58894">
        <ele>71.5</ele>
        <time>2019-04-23T13:38:42.000Z</time>
      </trkpt>
      <trkpt lat="49.47862" lon="-1.58894">
        <ele>71.5</ele>
        <time>2019-04-23T13:38:43.000Z</time>
      </trkpt>
      <trkpt lat="49.47862" lon="-1.58895">
        <ele>71.5</ele>
        <time>2019-04-23T13:38:44.000Z</time>
      </trkpt>
      <trkpt lat="49.47862" lon="-1.58895">
        <ele>71.5</ele>
        <time>2019-04-23T13:38:45.000Z</time>
      </trkpt>
      <trkpt lat="49.47862" lon="-1.58895">
        <ele>71.5</ele>
        <time>2019-04-23T13:38:46.000Z</time>
      </trkpt>
      <trkpt lat="49.47862" lon="-1.58895">
        <ele>71.5</ele>
        <time>2019-04-23T13:38:47.000Z</time>
      </trkpt>
      <trkpt lat="49.47862" lon="-1.58895">
        <ele>71.5</ele>
        <time>2019-04-23T13:38:48.000Z</time>
      </trkpt>
      <trkpt lat="49.47862" lon="-1.58895">
        <ele>71.5</ele>
        <time>2019-04-23T13:38:49.000Z</time>
      </trkpt>
      <trkpt lat="49.47862" lon="-1.58895">
        <ele>71.5</ele>
        <time>2019-04-23T13:38:50.000Z</time>
      </trkpt>
      <trkpt lat="49.47862" lon="-1.58895">
        <ele>71.5</ele>
        <time>2019-04-23T13:38:51.000Z</time>
      </trkpt>
      <trkpt lat="49.47862" lon="-1.58895">
        <ele>71.5</ele>
        <time>2019-04-23T13:38:52.000Z</time>
      </trkpt>
      <trkpt lat="49.47862" lon="-1.58895">
        <ele>71.5</ele>
        <time>2019-04-23T13:38:53.000Z</time>
      </trkpt>
      <trkpt lat="49.47862" lon="-1.58895">
        <ele>71.5</ele>
        <time>2019-04-23T13:38:54.000Z</time>
      </trkpt>
      <trkpt lat="49.47862" lon="-1.58895">
        <ele>71.5</ele>
        <time>2019-04-23T13:38:55.000Z</time>
      </trkpt>
      <trkpt lat="49.47862" lon="-1.58895">
        <ele>71.5</ele>
        <time>2019-04-23T13:38:56.000Z</time>
      </trkpt>
      <trkpt lat="49.47862" lon="-1.58895">
        <ele>71.5</ele>
        <time>2019-04-23T13:38:57.000Z</time>
      </trkpt>
      <trkpt lat="49.47862" lon="-1.58895">
        <ele>71.5</ele>
        <time>2019-04-23T13:38:58.000Z</time>
      </trkpt>
      <trkpt lat="49.47862" lon="-1.58895">
        <ele>71.5</ele>
        <time>2019-04-23T13:38:59.000Z</time>
      </trkpt>
      <trkpt lat="49.47862" lon="-1.58895">
        <ele>71.5</ele>
        <time>2019-04-23T13:39:00.000Z</time>
      </trkpt>
      <trkpt lat="49.47862" lon="-1.58894">
        <ele>71.5</ele>
        <time>2019-04-23T13:39:01.000Z</time>
      </trkpt>
      <trkpt lat="49.47862" lon="-1.58894">
        <ele>71.5</ele>
        <time>2019-04-23T13:39:02.000Z</time>
      </trkpt>
      <trkpt lat="49.47862" lon="-1.58894">
        <ele>71.5</ele>
        <time>2019-04-23T13:39:03.000Z</time>
      </trkpt>
      <trkpt lat="49.47862" lon="-1.58895">
        <ele>71.5</ele>
        <time>2019-04-23T13:39:04.000Z</time>
      </trkpt>
      <trkpt lat="49.47862" lon="-1.58895">
        <ele>71.5</ele>
        <time>2019-04-23T13:39:05.000Z</time>
      </trkpt>
      <trkpt lat="49.47862" lon="-1.58895">
        <ele>71.5</ele>
        <time>2019-04-23T13:39:06.000Z</time>
      </trkpt>
      <trkpt lat="49.47862" lon="-1.58895">
        <ele>71.5</ele>
        <time>2019-04-23T13:39:07.000Z</time>
      </trkpt>
      <trkpt lat="49.47862" lon="-1.58895">
        <ele>71.5</ele>
        <time>2019-04-23T13:39:08.000Z</time>
      </trkpt>
      <trkpt lat="49.47862" lon="-1.58895">
        <ele>71.5</ele>
        <time>2019-04-23T13:39:09.000Z</time>
      </trkpt>
      <trkpt lat="49.47862" lon="-1.58895">
        <ele>71.5</ele>
        <time>2019-04-23T13:39:10.000Z</time>
      </trkpt>
      <trkpt lat="49.47862" lon="-1.58895">
        <ele>71.5</ele>
        <time>2019-04-23T13:39:11.000Z</time>
      </trkpt>
      <trkpt lat="49.47862" lon="-1.58895">
        <ele>71.5</ele>
        <time>2019-04-23T13:39:12.000Z</time>
      </trkpt>
      <trkpt lat="49.47862" lon="-1.58895">
        <ele>71.5</ele>
        <time>2019-04-23T13:39:13.000Z</time>
      </trkpt>
      <trkpt lat="49.47862" lon="-1.58895">
        <ele>71.5</ele>
        <time>2019-04-23T13:39:14.000Z</time>
      </trkpt>
      <trkpt lat="49.47862" lon="-1.58895">
        <ele>71.5</ele>
        <time>2019-04-23T13:39:15.000Z</time>
      </trkpt>
      <trkpt lat="49.47862" lon="-1.58895">
        <ele>71.5</ele>
        <time>2019-04-23T13:39:16.000Z</time>
      </trkpt>
      <trkpt lat="49.47862" lon="-1.58895">
        <ele>71.5</ele>
        <time>2019-04-23T13:39:17.000Z</time>
      </trkpt>
      <trkpt lat="49.47862" lon="-1.58895">
        <ele>71.5</ele>
        <time>2019-04-23T13:39:18.000Z</time>
      </trkpt>
      <trkpt lat="49.47862" lon="-1.58895">
        <ele>71.5</ele>
        <time>2019-04-23T13:39:19.000Z</time>
      </trkpt>
      <trkpt lat="49.47862" lon="-1.58895">
        <ele>71.5</ele>
        <time>2019-04-23T13:39:20.000Z</time>
      </trkpt>
      <trkpt lat="49.47862" lon="-1.58895">
        <ele>71.5</ele>
        <time>2019-04-23T13:39:21.000Z</time>
      </trkpt>
      <trkpt lat="49.47862" lon="-1.58895">
        <ele>71.5</ele>
        <time>2019-04-23T13:39:22.000Z</time>
      </trkpt>
      <trkpt lat="49.47862" lon="-1.58895">
        <ele>71.5</ele>
        <time>2019-04-23T13:39:23.000Z</time>
      </trkpt>
      <trkpt lat="49.47862" lon="-1.58895">
        <ele>71.5</ele>
        <time>2019-04-23T13:39:24.000Z</time>
      </trkpt>
      <trkpt lat="49.47862" lon="-1.58895">
        <ele>71.5</ele>
        <time>2019-04-23T13:39:25.000Z</time>
      </trkpt>
      <trkpt lat="49.47862" lon="-1.58895">
        <ele>71.5</ele>
        <time>2019-04-23T13:39:26.000Z</time>
      </trkpt>
      <trkpt lat="49.47862" lon="-1.58895">
        <ele>71.5</ele>
        <time>2019-04-23T13:39:27.000Z</time>
      </trkpt>
      <trkpt lat="49.47862" lon="-1.58895">
        <ele>71.5</ele>
        <time>2019-04-23T13:39:28.000Z</time>
      </trkpt>
      <trkpt lat="49.47862" lon="-1.58895">
        <ele>71.5</ele>
        <time>2019-04-23T13:39:29.000Z</time>
      </trkpt>
      <trkpt lat="49.47862" lon="-1.58895">
        <ele>71.5</ele>
        <time>2019-04-23T13:39:30.000Z</time>
      </trkpt>
      <trkpt lat="49.47862" lon="-1.58895">
        <ele>71.5</ele>
        <time>2019-04-23T13:39:31.000Z</time>
      </trkpt>
      <trkpt lat="49.47862" lon="-1.58895">
        <ele>71.5</ele>
        <time>2019-04-23T13:39:32.000Z</time>
      </trkpt>
      <trkpt lat="49.47862" lon="-1.58895">
        <ele>71.5</ele>
        <time>2019-04-23T13:39:33.000Z</time>
      </trkpt>
      <trkpt lat="49.47862" lon="-1.58895">
        <ele>71.5</ele>
        <time>2019-04-23T13:39:34.000Z</time>
      </trkpt>
      <trkpt lat="49.47862" lon="-1.58895">
        <ele>71.5</ele>
        <time>2019-04-23T13:39:35.000Z</time>
      </trkpt>
      <trkpt lat="49.47862" lon="-1.58895">
        <ele>71.5</ele>
        <time>2019-04-23T13:39:36.000Z</time>
      </trkpt>
      <trkpt lat="49.47862" lon="-1.58895">
        <ele>71.5</ele>
        <time>2019-04-23T13:39:37.000Z</time>
      </trkpt>
      <trkpt lat="49.47862" lon="-1.58895">
        <ele>71.5</ele>
        <time>2019-04-23T13:39:38.000Z</time>
      </trkpt>
      <trkpt lat="49.47862" lon="-1.58895">
        <ele>71.5</ele>
        <time>2019-04-23T13:39:39.000Z</time>
      </trkpt>
      <trkpt lat="49.47862" lon="-1.58895">
        <ele>71.5</ele>
        <time>2019-04-23T13:39:40.000Z</time>
      </trkpt>
      <trkpt lat="49.47862" lon="-1.58895">
        <ele>71.5</ele>
        <time>2019-04-23T13:39:41.000Z</time>
      </trkpt>
      <trkpt lat="49.47862" lon="-1.58895">
        <ele>71.5</ele>
        <time>2019-04-23T13:39:42.000Z</time>
      </trkpt>
      <trkpt lat="49.47862" lon="-1.58895">
        <ele>71.5</ele>
        <time>2019-04-23T13:39:43.000Z</time>
      </trkpt>
      <trkpt lat="49.47862" lon="-1.58895">
        <ele>71.5</ele>
        <time>2019-04-23T13:39:44.000Z</time>
      </trkpt>
      <trkpt lat="49.47862" lon="-1.58895">
        <ele>71.5</ele>
        <time>2019-04-23T13:39:45.000Z</time>
      </trkpt>
      <trkpt lat="49.47862" lon="-1.58895">
        <ele>71.5</ele>
        <time>2019-04-23T13:39:46.000Z</time>
      </trkpt>
      <trkpt lat="49.47862" lon="-1.58895">
        <ele>71.5</ele>
        <time>2019-04-23T13:39:47.000Z</time>
      </trkpt>
      <trkpt lat="49.47862" lon="-1.58895">
        <ele>71.5</ele>
        <time>2019-04-23T13:39:48.000Z</time>
      </trkpt>
      <trkpt lat="49.47862" lon="-1.58895">
        <ele>71.5</ele>
        <time>2019-04-23T13:39:49.000Z</time>
      </trkpt>
      <trkpt lat="49.47862" lon="-1.58895">
        <ele>71.5</ele>
        <time>2019-04-23T13:39:50.000Z</time>
      </trkpt>
      <trkpt lat="49.47862" lon="-1.58895">
        <ele>71.5</ele>
        <time>2019-04-23T13:39:51.000Z</time>
      </trkpt>
      <trkpt lat="49.47862" lon="-1.58895">
        <ele>71.5</ele>
        <time>2019-04-23T13:39:52.000Z</time>
      </trkpt>
      <trkpt lat="49.47862" lon="-1.58895">
        <ele>71.5</ele>
        <time>2019-04-23T13:39:53.000Z</time>
      </trkpt>
      <trkpt lat="49.47862" lon="-1.58895">
        <ele>71.5</ele>
        <time>2019-04-23T13:39:54.000Z</time>
      </trkpt>
      <trkpt lat="49.47862" lon="-1.58895">
        <ele>71.5</ele>
        <time>2019-04-23T13:39:55.000Z</time>
      </trkpt>
      <trkpt lat="49.47862" lon="-1.58895">
        <ele>71.5</ele>
        <time>2019-04-23T13:39:56.000Z</time>
      </trkpt>
      <trkpt lat="49.47862" lon="-1.58895">
        <ele>71.5</ele>
        <time>2019-04-23T13:39:57.000Z</time>
      </trkpt>
      <trkpt lat="49.47862" lon="-1.58895">
        <ele>71.5</ele>
        <time>2019-04-23T13:39:58.000Z</time>
      </trkpt>
      <trkpt lat="49.47862" lon="-1.58895">
        <ele>71.5</ele>
        <time>2019-04-23T13:39:59.000Z</time>
      </trkpt>
      <trkpt lat="49.47862" lon="-1.58895">
        <ele>71.5</ele>
        <time>2019-04-23T13:40:00.000Z</time>
      </trkpt>
      <trkpt lat="49.47862" lon="-1.58895">
        <ele>71.5</ele>
        <time>2019-04-23T13:40:01.000Z</time>
      </trkpt>
      <trkpt lat="49.47862" lon="-1.58895">
        <ele>71.5</ele>
        <time>2019-04-23T13:40:02.000Z</time>
      </trkpt>
      <trkpt lat="49.47862" lon="-1.58895">
        <ele>71.5</ele>
        <time>2019-04-23T13:40:03.000Z</time>
      </trkpt>
      <trkpt lat="49.47862" lon="-1.58895">
        <ele>71.5</ele>
        <time>2019-04-23T13:40:04.000Z</time>
      </trkpt>
      <trkpt lat="49.47862" lon="-1.58895">
        <ele>71.6</ele>
        <time>2019-04-23T13:40:05.000Z</time>
      </trkpt>
      <trkpt lat="49.47862" lon="-1.58896">
        <ele>71.6</ele>
        <time>2019-04-23T13:40:06.000Z</time>
      </trkpt>
      <trkpt lat="49.47862" lon="-1.58896">
        <ele>71.6</ele>
        <time>2019-04-23T13:40:07.000Z</time>
      </trkpt>
      <trkpt lat="49.47862" lon="-1.58897">
        <ele>71.6</ele>
        <time>2019-04-23T13:40:08.000Z</time>
      </trkpt>
      <trkpt lat="49.47862" lon="-1.58897">
        <ele>71.6</ele>
        <time>2019-04-23T13:40:09.000Z</time>
      </trkpt>
      <trkpt lat="49.47862" lon="-1.58898">
        <ele>71.6</ele>
        <time>2019-04-23T13:40:10.000Z</time>
      </trkpt>
      <trkpt lat="49.47863" lon="-1.58899">
        <ele>71.7</ele>
        <time>2019-04-23T13:40:11.000Z</time>
      </trkpt>
      <trkpt lat="49.47863" lon="-1.58901">
        <ele>71.7</ele>
        <time>2019-04-23T13:40:12.000Z</time>
      </trkpt>
      <trkpt lat="49.47863" lon="-1.58902">
        <ele>71.8</ele>
        <time>2019-04-23T13:40:13.000Z</time>
      </trkpt>
      <trkpt lat="49.47864" lon="-1.58904">
        <ele>71.8</ele>
        <time>2019-04-23T13:40:14.000Z</time>
      </trkpt>
      <trkpt lat="49.47864" lon="-1.58906">
        <ele>71.9</ele>
        <time>2019-04-23T13:40:15.000Z</time>
      </trkpt>
      <trkpt lat="49.47865" lon="-1.58908">
        <ele>71.9</ele>
        <time>2019-04-23T13:40:16.000Z</time>
      </trkpt>
      <trkpt lat="49.47865" lon="-1.5891">
        <ele>72</ele>
        <time>2019-04-23T13:40:17.000Z</time>
      </trkpt>
      <trkpt lat="49.47866" lon="-1.58912">
        <ele>72</ele>
        <time>2019-04-23T13:40:18.000Z</time>
      </trkpt>
      <trkpt lat="49.47867" lon="-1.58914">
        <ele>72.1</ele>
        <time>2019-04-23T13:40:19.000Z</time>
      </trkpt>
      <trkpt lat="49.47867" lon="-1.58916">
        <ele>72.1</ele>
        <time>2019-04-23T13:40:20.000Z</time>
      </trkpt>
      <trkpt lat="49.47868" lon="-1.58917">
        <ele>72.2</ele>
        <time>2019-04-23T13:40:21.000Z</time>
      </trkpt>
      <trkpt lat="49.47869" lon="-1.58919">
        <ele>72.2</ele>
        <time>2019-04-23T13:40:22.000Z</time>
      </trkpt>
      <trkpt lat="49.47869" lon="-1.5892">
        <ele>72.2</ele>
        <time>2019-04-23T13:40:23.000Z</time>
      </trkpt>
      <trkpt lat="49.4787" lon="-1.58922">
        <ele>72.2</ele>
        <time>2019-04-23T13:40:24.000Z</time>
      </trkpt>
      <trkpt lat="49.4787" lon="-1.58923">
        <ele>72.2</ele>
        <time>2019-04-23T13:40:25.000Z</time>
      </trkpt>
      <trkpt lat="49.47871" lon="-1.58924">
        <ele>72.2</ele>
        <time>2019-04-23T13:40:26.000Z</time>
      </trkpt>
      <trkpt lat="49.47872" lon="-1.58926">
        <ele>72.2</ele>
        <time>2019-04-23T13:40:27.000Z</time>
      </trkpt>
      <trkpt lat="49.47872" lon="-1.58927">
        <ele>72.3</ele>
        <time>2019-04-23T13:40:28.000Z</time>
      </trkpt>
      <trkpt lat="49.47873" lon="-1.58928">
        <ele>72.3</ele>
        <time>2019-04-23T13:40:29.000Z</time>
      </trkpt>
      <trkpt lat="49.47873" lon="-1.5893">
        <ele>72.3</ele>
        <time>2019-04-23T13:40:30.000Z</time>
      </trkpt>
      <trkpt lat="49.47874" lon="-1.58932">
        <ele>72.3</ele>
        <time>2019-04-23T13:40:31.000Z</time>
      </trkpt>
      <trkpt lat="49.47874" lon="-1.58933">
        <ele>72.3</ele>
        <time>2019-04-23T13:40:32.000Z</time>
      </trkpt>
      <trkpt lat="49.47874" lon="-1.58935">
        <ele>72.3</ele>
        <time>2019-04-23T13:40:33.000Z</time>
      </trkpt>
      <trkpt lat="49.47875" lon="-1.58937">
        <ele>72.4</ele>
        <time>2019-04-23T13:40:34.000Z</time>
      </trkpt>
      <trkpt lat="49.47875" lon="-1.58939">
        <ele>72.4</ele>
        <time>2019-04-23T13:40:35.000Z</time>
      </trkpt>
      <trkpt lat="49.47876" lon="-1.58941">
        <ele>72.4</ele>
        <time>2019-04-23T13:40:36.000Z</time>
      </trkpt>
      <trkpt lat="49.47876" lon="-1.58942">
        <ele>72.4</ele>
        <time>2019-04-23T13:40:37.000Z</time>
      </trkpt>
      <trkpt lat="49.47877" lon="-1.58944">
        <ele>72.5</ele>
        <time>2019-04-23T13:40:38.000Z</time>
      </trkpt>
      <trkpt lat="49.47877" lon="-1.58946">
        <ele>72.5</ele>
        <time>2019-04-23T13:40:39.000Z</time>
      </trkpt>
      <trkpt lat="49.47877" lon="-1.58948">
        <ele>72.5</ele>
        <time>2019-04-23T13:40:40.000Z</time>
      </trkpt>
      <trkpt lat="49.47878" lon="-1.5895">
        <ele>72.5</ele>
        <time>2019-04-23T13:40:41.000Z</time>
      </trkpt>
      <trkpt lat="49.47878" lon="-1.58952">
        <ele>72.5</ele>
        <time>2019-04-23T13:40:42.000Z</time>
      </trkpt>
      <trkpt lat="49.47879" lon="-1.58953">
        <ele>72.5</ele>
        <time>2019-04-23T13:40:43.000Z</time>
      </trkpt>
      <trkpt lat="49.47879" lon="-1.58955">
        <ele>72.6</ele>
        <time>2019-04-23T13:40:44.000Z</time>
      </trkpt>
      <trkpt lat="49.4788" lon="-1.58957">
        <ele>72.6</ele>
        <time>2019-04-23T13:40:45.000Z</time>
      </trkpt>
      <trkpt lat="49.4788" lon="-1.58959">
        <ele>72.6</ele>
        <time>2019-04-23T13:40:46.000Z</time>
      </trkpt>
      <trkpt lat="49.4788" lon="-1.5896">
        <ele>72.6</ele>
        <time>2019-04-23T13:40:47.000Z</time>
      </trkpt>
      <trkpt lat="49.47881" lon="-1.58962">
        <ele>72.6</ele>
        <time>2019-04-23T13:40:48.000Z</time>
      </trkpt>
      <trkpt lat="49.47881" lon="-1.58964">
        <ele>72.7</ele>
        <time>2019-04-23T13:40:49.000Z</time>
      </trkpt>
      <trkpt lat="49.47882" lon="-1.58966">
        <ele>72.7</ele>
        <time>2019-04-23T13:40:50.000Z</time>
      </trkpt>
      <trkpt lat="49.47882" lon="-1.58968">
        <ele>72.7</ele>
        <time>2019-04-23T13:40:51.000Z</time>
      </trkpt>
      <trkpt lat="49.47882" lon="-1.58969">
        <ele>72.7</ele>
        <time>2019-04-23T13:40:52.000Z</time>
      </trkpt>
      <trkpt lat="49.47883" lon="-1.58971">
        <ele>72.7</ele>
        <time>2019-04-23T13:40:53.000Z</time>
      </trkpt>
      <trkpt lat="49.47883" lon="-1.58973">
        <ele>72.8</ele>
        <time>2019-04-23T13:40:54.000Z</time>
      </trkpt>
      <trkpt lat="49.47883" lon="-1.58975">
        <ele>72.8</ele>
        <time>2019-04-23T13:40:55.000Z</time>
      </trkpt>
      <trkpt lat="49.47884" lon="-1.58977">
        <ele>72.8</ele>
        <time>2019-04-23T13:40:56.000Z</time>
      </trkpt>
      <trkpt lat="49.47884" lon="-1.58979">
        <ele>72.8</ele>
        <time>2019-04-23T13:40:57.000Z</time>
      </trkpt>
      <trkpt lat="49.47884" lon="-1.58981">
        <ele>72.8</ele>
        <time>2019-04-23T13:40:58.000Z</time>
      </trkpt>
      <trkpt lat="49.47885" lon="-1.58983">
        <ele>72.9</ele>
        <time>2019-04-23T13:40:59.000Z</time>
      </trkpt>
      <trkpt lat="49.47885" lon="-1.58985">
        <ele>72.9</ele>
        <time>2019-04-23T13:41:00.000Z</time>
      </trkpt>
      <trkpt lat="49.47885" lon="-1.58987">
        <ele>72.9</ele>
        <time>2019-04-23T13:41:01.000Z</time>
      </trkpt>
      <trkpt lat="49.47885" lon="-1.58989">
        <ele>72.9</ele>
        <time>2019-04-23T13:41:02.000Z</time>
      </trkpt>
      <trkpt lat="49.47886" lon="-1.58991">
        <ele>73</ele>
        <time>2019-04-23T13:41:03.000Z</time>
      </trkpt>
      <trkpt lat="49.47886" lon="-1.58992">
        <ele>73</ele>
        <time>2019-04-23T13:41:04.000Z</time>
      </trkpt>
      <trkpt lat="49.47886" lon="-1.58994">
        <ele>73</ele>
        <time>2019-04-23T13:41:05.000Z</time>
      </trkpt>
      <trkpt lat="49.47886" lon="-1.58996">
        <ele>73</ele>
        <time>2019-04-23T13:41:06.000Z</time>
      </trkpt>
      <trkpt lat="49.47887" lon="-1.58998">
        <ele>73.1</ele>
        <time>2019-04-23T13:41:07.000Z</time>
      </trkpt>
      <trkpt lat="49.47887" lon="-1.59">
        <ele>73.1</ele>
        <time>2019-04-23T13:41:08.000Z</time>
      </trkpt>
      <trkpt lat="49.47887" lon="-1.59002">
        <ele>73.1</ele>
        <time>2019-04-23T13:41:09.000Z</time>
      </trkpt>
      <trkpt lat="49.47887" lon="-1.59004">
        <ele>73</ele>
        <time>2019-04-23T13:41:10.000Z</time>
      </trkpt>
      <trkpt lat="49.47887" lon="-1.59006">
        <ele>73</ele>
        <time>2019-04-23T13:41:11.000Z</time>
      </trkpt>
      <trkpt lat="49.47887" lon="-1.59008">
        <ele>73</ele>
        <time>2019-04-23T13:41:12.000Z</time>
      </trkpt>
      <trkpt lat="49.47887" lon="-1.5901">
        <ele>73</ele>
        <time>2019-04-23T13:41:13.000Z</time>
      </trkpt>
      <trkpt lat="49.47887" lon="-1.59012">
        <ele>73</ele>
        <time>2019-04-23T13:41:14.000Z</time>
      </trkpt>
      <trkpt lat="49.47886" lon="-1.59014">
        <ele>73</ele>
        <time>2019-04-23T13:41:15.000Z</time>
      </trkpt>
      <trkpt lat="49.47886" lon="-1.59015">
        <ele>73</ele>
        <time>2019-04-23T13:41:16.000Z</time>
      </trkpt>
      <trkpt lat="49.47885" lon="-1.59017">
        <ele>73</ele>
        <time>2019-04-23T13:41:17.000Z</time>
      </trkpt>
      <trkpt lat="49.47885" lon="-1.59018">
        <ele>73</ele>
        <time>2019-04-23T13:41:18.000Z</time>
      </trkpt>
      <trkpt lat="49.47884" lon="-1.59019">
        <ele>73</ele>
        <time>2019-04-23T13:41:19.000Z</time>
      </trkpt>
      <trkpt lat="49.47883" lon="-1.5902">
        <ele>73.1</ele>
        <time>2019-04-23T13:41:20.000Z</time>
      </trkpt>
      <trkpt lat="49.47882" lon="-1.59021">
        <ele>73.1</ele>
        <time>2019-04-23T13:41:21.000Z</time>
      </trkpt>
      <trkpt lat="49.47881" lon="-1.59021">
        <ele>73.2</ele>
        <time>2019-04-23T13:41:22.000Z</time>
      </trkpt>
      <trkpt lat="49.47879" lon="-1.59021">
        <ele>73.2</ele>
        <time>2019-04-23T13:41:23.000Z</time>
      </trkpt>
      <trkpt lat="49.47878" lon="-1.59021">
        <ele>73.3</ele>
        <time>2019-04-23T13:41:24.000Z</time>
      </trkpt>
      <trkpt lat="49.47877" lon="-1.5902">
        <ele>73.3</ele>
        <time>2019-04-23T13:41:25.000Z</time>
      </trkpt>
      <trkpt lat="49.47875" lon="-1.5902">
        <ele>73.4</ele>
        <time>2019-04-23T13:41:26.000Z</time>
      </trkpt>
      <trkpt lat="49.47874" lon="-1.59019">
        <ele>73.4</ele>
        <time>2019-04-23T13:41:27.000Z</time>
      </trkpt>
      <trkpt lat="49.47873" lon="-1.59018">
        <ele>73.5</ele>
        <time>2019-04-23T13:41:28.000Z</time>
      </trkpt>
      <trkpt lat="49.47872" lon="-1.59017">
        <ele>73.5</ele>
        <time>2019-04-23T13:41:29.000Z</time>
      </trkpt>
      <trkpt lat="49.47871" lon="-1.59016">
        <ele>73.6</ele>
        <time>2019-04-23T13:41:30.000Z</time>
      </trkpt>
      <trkpt lat="49.4787" lon="-1.59014">
        <ele>73.6</ele>
        <time>2019-04-23T13:41:31.000Z</time>
      </trkpt>
      <trkpt lat="49.47869" lon="-1.59013">
        <ele>73.7</ele>
        <time>2019-04-23T13:41:32.000Z</time>
      </trkpt>
      <trkpt lat="49.47868" lon="-1.59013">
        <ele>73.7</ele>
        <time>2019-04-23T13:41:33.000Z</time>
      </trkpt>
      <trkpt lat="49.47867" lon="-1.59012">
        <ele>73.7</ele>
        <time>2019-04-23T13:41:34.000Z</time>
      </trkpt>
      <trkpt lat="49.47866" lon="-1.59011">
        <ele>73.8</ele>
        <time>2019-04-23T13:41:35.000Z</time>
      </trkpt>
      <trkpt lat="49.47865" lon="-1.5901">
        <ele>73.8</ele>
        <time>2019-04-23T13:41:36.000Z</time>
      </trkpt>
      <trkpt lat="49.47864" lon="-1.59009">
        <ele>73.9</ele>
        <time>2019-04-23T13:41:37.000Z</time>
      </trkpt>
      <trkpt lat="49.47863" lon="-1.59008">
        <ele>73.9</ele>
        <time>2019-04-23T13:41:38.000Z</time>
      </trkpt>
      <trkpt lat="49.47862" lon="-1.59007">
        <ele>73.9</ele>
        <time>2019-04-23T13:41:39.000Z</time>
      </trkpt>
      <trkpt lat="49.47861" lon="-1.59006">
        <ele>74</ele>
        <time>2019-04-23T13:41:40.000Z</time>
      </trkpt>
      <trkpt lat="49.4786" lon="-1.59004">
        <ele>74</ele>
        <time>2019-04-23T13:41:41.000Z</time>
      </trkpt>
      <trkpt lat="49.47859" lon="-1.59003">
        <ele>74.1</ele>
        <time>2019-04-23T13:41:42.000Z</time>
      </trkpt>
      <trkpt lat="49.47858" lon="-1.59002">
        <ele>74.1</ele>
        <time>2019-04-23T13:41:43.000Z</time>
      </trkpt>
      <trkpt lat="49.47856" lon="-1.59001">
        <ele>74.2</ele>
        <time>2019-04-23T13:41:44.000Z</time>
      </trkpt>
      <trkpt lat="49.47855" lon="-1.59">
        <ele>74.2</ele>
        <time>2019-04-23T13:41:45.000Z</time>
      </trkpt>
      <trkpt lat="49.47854" lon="-1.58999">
        <ele>74.2</ele>
        <time>2019-04-23T13:41:46.000Z</time>
      </trkpt>
      <trkpt lat="49.47853" lon="-1.58998">
        <ele>74.3</ele>
        <time>2019-04-23T13:41:47.000Z</time>
      </trkpt>
      <trkpt lat="49.47852" lon="-1.58997">
        <ele>74.3</ele>
        <time>2019-04-23T13:41:48.000Z</time>
      </trkpt>
      <trkpt lat="49.47851" lon="-1.58996">
        <ele>74.3</ele>
        <time>2019-04-23T13:41:49.000Z</time>
      </trkpt>
      <trkpt lat="49.4785" lon="-1.58995">
        <ele>74.3</ele>
        <time>2019-04-23T13:41:50.000Z</time>
      </trkpt>
      <trkpt lat="49.47849" lon="-1.58994">
        <ele>74.3</ele>
        <time>2019-04-23T13:41:51.000Z</time>
      </trkpt>
      <trkpt lat="49.47847" lon="-1.58993">
        <ele>74.3</ele>
        <time>2019-04-23T13:41:52.000Z</time>
      </trkpt>
      <trkpt lat="49.47846" lon="-1.58992">
        <ele>74.4</ele>
        <time>2019-04-23T13:41:53.000Z</time>
      </trkpt>
      <trkpt lat="49.47845" lon="-1.58991">
        <ele>74.4</ele>
        <time>2019-04-23T13:41:54.000Z</time>
      </trkpt>
      <trkpt lat="49.47844" lon="-1.5899">
        <ele>74.4</ele>
        <time>2019-04-23T13:41:55.000Z</time>
      </trkpt>
      <trkpt lat="49.47843" lon="-1.58989">
        <ele>74.4</ele>
        <time>2019-04-23T13:41:56.000Z</time>
      </trkpt>
      <trkpt lat="49.47842" lon="-1.58988">
        <ele>74.4</ele>
        <time>2019-04-23T13:41:57.000Z</time>
      </trkpt>
      <trkpt lat="49.47841" lon="-1.58987">
        <ele>74.4</ele>
        <time>2019-04-23T13:41:58.000Z</time>
      </trkpt>
      <trkpt lat="49.4784" lon="-1.58986">
        <ele>74.5</ele>
        <time>2019-04-23T13:41:59.000Z</time>
      </trkpt>
      <trkpt lat="49.47839" lon="-1.58985">
        <ele>74.5</ele>
        <time>2019-04-23T13:42:00.000Z</time>
      </trkpt>
      <trkpt lat="49.47837" lon="-1.58984">
        <ele>74.5</ele>
        <time>2019-04-23T13:42:01.000Z</time>
      </trkpt>
      <trkpt lat="49.47836" lon="-1.58983">
        <ele>74.5</ele>
        <time>2019-04-23T13:42:02.000Z</time>
      </trkpt>
      <trkpt lat="49.47835" lon="-1.58982">
        <ele>74.5</ele>
        <time>2019-04-23T13:42:03.000Z</time>
      </trkpt>
      <trkpt lat="49.47834" lon="-1.58981">
        <ele>74.5</ele>
        <time>2019-04-23T13:42:04.000Z</time>
      </trkpt>
      <trkpt lat="49.47833" lon="-1.5898">
        <ele>74.5</ele>
        <time>2019-04-23T13:42:05.000Z</time>
      </trkpt>
      <trkpt lat="49.47832" lon="-1.58979">
        <ele>74.5</ele>
        <time>2019-04-23T13:42:06.000Z</time>
      </trkpt>
      <trkpt lat="49.47831" lon="-1.58978">
        <ele>74.6</ele>
        <time>2019-04-23T13:42:07.000Z</time>
      </trkpt>
      <trkpt lat="49.4783" lon="-1.58977">
        <ele>74.6</ele>
        <time>2019-04-23T13:42:08.000Z</time>
      </trkpt>
      <trkpt lat="49.47829" lon="-1.58976">
        <ele>74.6</ele>
        <time>2019-04-23T13:42:09.000Z</time>
      </trkpt>
      <trkpt lat="49.47827" lon="-1.58975">
        <ele>74.6</ele>
        <time>2019-04-23T13:42:10.000Z</time>
      </trkpt>
      <trkpt lat="49.47826" lon="-1.58974">
        <ele>74.6</ele>
        <time>2019-04-23T13:42:11.000Z</time>
      </trkpt>
      <trkpt lat="49.47825" lon="-1.58973">
        <ele>74.6</ele>
        <time>2019-04-23T13:42:12.000Z</time>
      </trkpt>
      <trkpt lat="49.47824" lon="-1.58972">
        <ele>74.6</ele>
        <time>2019-04-23T13:42:13.000Z</time>
      </trkpt>
      <trkpt lat="49.47823" lon="-1.58971">
        <ele>74.6</ele>
        <time>2019-04-23T13:42:14.000Z</time>
      </trkpt>
      <trkpt lat="49.47822" lon="-1.5897">
        <ele>74.7</ele>
        <time>2019-04-23T13:42:15.000Z</time>
      </trkpt>
      <trkpt lat="49.47821" lon="-1.58969">
        <ele>74.7</ele>
        <time>2019-04-23T13:42:16.000Z</time>
      </trkpt>
      <trkpt lat="49.47819" lon="-1.58968">
        <ele>74.7</ele>
        <time>2019-04-23T13:42:17.000Z</time>
      </trkpt>
      <trkpt lat="49.47818" lon="-1.58967">
        <ele>74.7</ele>
        <time>2019-04-23T13:42:18.000Z</time>
      </trkpt>
      <trkpt lat="49.47817" lon="-1.58966">
        <ele>74.7</ele>
        <time>2019-04-23T13:42:19.000Z</time>
      </trkpt>
      <trkpt lat="49.47816" lon="-1.58965">
        <ele>74.7</ele>
        <time>2019-04-23T13:42:20.000Z</time>
      </trkpt>
      <trkpt lat="49.47815" lon="-1.58964">
        <ele>74.8</ele>
        <time>2019-04-23T13:42:21.000Z</time>
      </trkpt>
      <trkpt lat="49.47814" lon="-1.58963">
        <ele>74.8</ele>
        <time>2019-04-23T13:42:22.000Z</time>
      </trkpt>
      <trkpt lat="49.47813" lon="-1.58962">
        <ele>74.8</ele>
        <time>2019-04-23T13:42:23.000Z</time>
      </trkpt>
      <trkpt lat="49.47812" lon="-1.58961">
        <ele>74.8</ele>
        <time>2019-04-23T13:42:24.000Z</time>
      </trkpt>
      <trkpt lat="49.4781" lon="-1.5896">
        <ele>74.9</ele>
        <time>2019-04-23T13:42:25.000Z</time>
      </trkpt>
      <trkpt lat="49.47809" lon="-1.58959">
        <ele>74.9</ele>
        <time>2019-04-23T13:42:26.000Z</time>
      </trkpt>
      <trkpt lat="49.47808" lon="-1.58958">
        <ele>74.9</ele>
        <time>2019-04-23T13:42:27.000Z</time>
      </trkpt>
      <trkpt lat="49.47807" lon="-1.58957">
        <ele>74.9</ele>
        <time>2019-04-23T13:42:28.000Z</time>
      </trkpt>
      <trkpt lat="49.47806" lon="-1.58956">
        <ele>75</ele>
        <time>2019-04-23T13:42:29.000Z</time>
      </trkpt>
      <trkpt lat="49.47805" lon="-1.58955">
        <ele>75</ele>
        <time>2019-04-23T13:42:30.000Z</time>
      </trkpt>
      <trkpt lat="49.47804" lon="-1.58954">
        <ele>75</ele>
        <time>2019-04-23T13:42:31.000Z</time>
      </trkpt>
      <trkpt lat="49.47802" lon="-1.58953">
        <ele>75</ele>
        <time>2019-04-23T13:42:32.000Z</time>
      </trkpt>
      <trkpt lat="49.47801" lon="-1.58952">
        <ele>75.1</ele>
        <time>2019-04-23T13:42:33.000Z</time>
      </trkpt>
      <trkpt lat="49.478" lon="-1.58951">
        <ele>75.1</ele>
        <time>2019-04-23T13:42:34.000Z</time>
      </trkpt>
      <trkpt lat="49.47799" lon="-1.5895">
        <ele>75.1</ele>
        <time>2019-04-23T13:42:35.000Z</time>
      </trkpt>
      <trkpt lat="49.47798" lon="-1.58949">
        <ele>75.2</ele>
        <time>2019-04-23T13:42:36.000Z</time>
      </trkpt>
      <trkpt lat="49.47797" lon="-1.58948">
        <ele>75.2</ele>
        <time>2019-04-23T13:42:37.000Z</time>
      </trkpt>
      <trkpt lat="49.47796" lon="-1.58947">
        <ele>75.2</ele>
        <time>2019-04-23T13:42:38.000Z</time>
      </trkpt>
      <trkpt lat="49.47795" lon="-1.58947">
        <ele>75.2</ele>
        <time>2019-04-23T13:42:39.000Z</time>
      </trkpt>
      <trkpt lat="49.47794" lon="-1.58946">
        <ele>75.3</ele>
        <time>2019-04-23T13:42:40.000Z</time>
      </trkpt>
      <trkpt lat="49.47792" lon="-1.58945">
        <ele>75.3</ele>
        <time>2019-04-23T13:42:41.000Z</time>
      </trkpt>
      <trkpt lat="49.47791" lon="-1.58944">
        <ele>75.3</ele>
        <time>2019-04-23T13:42:42.000Z</time>
      </trkpt>
      <trkpt lat="49.4779" lon="-1.58943">
        <ele>75.4</ele>
        <time>2019-04-23T13:42:43.000Z</time>
      </trkpt>
      <trkpt lat="49.47789" lon="-1.58942">
        <ele>75.4</ele>
        <time>2019-04-23T13:42:44.000Z</time>
      </trkpt>
      <trkpt lat="49.47788" lon="-1.58941">
        <ele>75.4</ele>
        <time>2019-04-23T13:42:45.000Z</time>
      </trkpt>
      <trkpt lat="49.47787" lon="-1.5894">
        <ele>75.5</ele>
        <time>2019-04-23T13:42:46.000Z</time>
      </trkpt>
      <trkpt lat="49.47786" lon="-1.58939">
        <ele>75.5</ele>
        <time>2019-04-23T13:42:47.000Z</time>
      </trkpt>
      <trkpt lat="49.47785" lon="-1.58938">
        <ele>75.5</ele>
        <time>2019-04-23T13:42:48.000Z</time>
      </trkpt>
      <trkpt lat="49.47784" lon="-1.58937">
        <ele>75.6</ele>
        <time>2019-04-23T13:42:49.000Z</time>
      </trkpt>
      <trkpt lat="49.47783" lon="-1.58936">
        <ele>75.6</ele>
        <time>2019-04-23T13:42:50.000Z</time>
      </trkpt>
      <trkpt lat="49.47781" lon="-1.58935">
        <ele>75.7</ele>
        <time>2019-04-23T13:42:51.000Z</time>
      </trkpt>
      <trkpt lat="49.4778" lon="-1.58934">
        <ele>75.7</ele>
        <time>2019-04-23T13:42:52.000Z</time>
      </trkpt>
      <trkpt lat="49.47779" lon="-1.58933">
        <ele>75.7</ele>
        <time>2019-04-23T13:42:53.000Z</time>
      </trkpt>
      <trkpt lat="49.47778" lon="-1.58932">
        <ele>75.8</ele>
        <time>2019-04-23T13:42:54.000Z</time>
      </trkpt>
      <trkpt lat="49.47777" lon="-1.58931">
        <ele>75.8</ele>
        <time>2019-04-23T13:42:55.000Z</time>
      </trkpt>
      <trkpt lat="49.47776" lon="-1.58931">
        <ele>75.9</ele>
        <time>2019-04-23T13:42:56.000Z</time>
      </trkpt>
      <trkpt lat="49.47775" lon="-1.5893">
        <ele>75.9</ele>
        <time>2019-04-23T13:42:57.000Z</time>
      </trkpt>
      <trkpt lat="49.47774" lon="-1.58929">
        <ele>75.9</ele>
        <time>2019-04-23T13:42:58.000Z</time>
      </trkpt>
      <trkpt lat="49.47773" lon="-1.58928">
        <ele>76</ele>
        <time>2019-04-23T13:42:59.000Z</time>
      </trkpt>
      <trkpt lat="49.47772" lon="-1.58927">
        <ele>76</ele>
        <time>2019-04-23T13:43:00.000Z</time>
      </trkpt>
      <trkpt lat="49.47771" lon="-1.58926">
        <ele>76.1</ele>
        <time>2019-04-23T13:43:01.000Z</time>
      </trkpt>
      <trkpt lat="49.4777" lon="-1.58925">
        <ele>76.1</ele>
        <time>2019-04-23T13:43:02.000Z</time>
      </trkpt>
      <trkpt lat="49.47769" lon="-1.58924">
        <ele>76.1</ele>
        <time>2019-04-23T13:43:03.000Z</time>
      </trkpt>
      <trkpt lat="49.47768" lon="-1.58923">
        <ele>76.2</ele>
        <time>2019-04-23T13:43:04.000Z</time>
      </trkpt>
      <trkpt lat="49.47767" lon="-1.58922">
        <ele>76.2</ele>
        <time>2019-04-23T13:43:05.000Z</time>
      </trkpt>
      <trkpt lat="49.47766" lon="-1.58921">
        <ele>76.3</ele>
        <time>2019-04-23T13:43:06.000Z</time>
      </trkpt>
      <trkpt lat="49.47764" lon="-1.5892">
        <ele>76.3</ele>
        <time>2019-04-23T13:43:07.000Z</time>
      </trkpt>
      <trkpt lat="49.47763" lon="-1.58919">
        <ele>76.4</ele>
        <time>2019-04-23T13:43:08.000Z</time>
      </trkpt>
      <trkpt lat="49.47762" lon="-1.58918">
        <ele>76.4</ele>
        <time>2019-04-23T13:43:09.000Z</time>
      </trkpt>
      <trkpt lat="49.47761" lon="-1.58917">
        <ele>76.5</ele>
        <time>2019-04-23T13:43:10.000Z</time>
      </trkpt>
      <trkpt lat="49.4776" lon="-1.58916">
        <ele>76.5</ele>
        <time>2019-04-23T13:43:11.000Z</time>
      </trkpt>
      <trkpt lat="49.47759" lon="-1.58915">
        <ele>76.5</ele>
        <time>2019-04-23T13:43:12.000Z</time>
      </trkpt>
      <trkpt lat="49.47758" lon="-1.58914">
        <ele>76.5</ele>
        <time>2019-04-23T13:43:13.000Z</time>
      </trkpt>
      <trkpt lat="49.47757" lon="-1.58913">
        <ele>76.5</ele>
        <time>2019-04-23T13:43:14.000Z</time>
      </trkpt>
      <trkpt lat="49.47756" lon="-1.58912">
        <ele>76.6</ele>
        <time>2019-04-23T13:43:15.000Z</time>
      </trkpt>
      <trkpt lat="49.47755" lon="-1.58912">
        <ele>76.6</ele>
        <time>2019-04-23T13:43:16.000Z</time>
      </trkpt>
      <trkpt lat="49.47754" lon="-1.58911">
        <ele>76.6</ele>
        <time>2019-04-23T13:43:17.000Z</time>
      </trkpt>
      <trkpt lat="49.47753" lon="-1.5891">
        <ele>76.6</ele>
        <time>2019-04-23T13:43:18.000Z</time>
      </trkpt>
      <trkpt lat="49.47752" lon="-1.58909">
        <ele>76.6</ele>
        <time>2019-04-23T13:43:19.000Z</time>
      </trkpt>
      <trkpt lat="49.4775" lon="-1.58908">
        <ele>76.7</ele>
        <time>2019-04-23T13:43:20.000Z</time>
      </trkpt>
      <trkpt lat="49.47749" lon="-1.58907">
        <ele>76.7</ele>
        <time>2019-04-23T13:43:21.000Z</time>
      </trkpt>
      <trkpt lat="49.47748" lon="-1.58906">
        <ele>76.7</ele>
        <time>2019-04-23T13:43:22.000Z</time>
      </trkpt>
      <trkpt lat="49.47747" lon="-1.58905">
        <ele>76.7</ele>
        <time>2019-04-23T13:43:23.000Z</time>
      </trkpt>
      <trkpt lat="49.47746" lon="-1.58904">
        <ele>76.7</ele>
        <time>2019-04-23T13:43:24.000Z</time>
      </trkpt>
      <trkpt lat="49.47745" lon="-1.58903">
        <ele>76.7</ele>
        <time>2019-04-23T13:43:25.000Z</time>
      </trkpt>
      <trkpt lat="49.47744" lon="-1.58902">
        <ele>76.7</ele>
        <time>2019-04-23T13:43:26.000Z</time>
      </trkpt>
      <trkpt lat="49.47743" lon="-1.58901">
        <ele>76.7</ele>
        <time>2019-04-23T13:43:27.000Z</time>
      </trkpt>
      <trkpt lat="49.47742" lon="-1.589">
        <ele>76.7</ele>
        <time>2019-04-23T13:43:28.000Z</time>
      </trkpt>
      <trkpt lat="49.4774" lon="-1.58899">
        <ele>76.7</ele>
        <time>2019-04-23T13:43:29.000Z</time>
      </trkpt>
      <trkpt lat="49.47739" lon="-1.58898">
        <ele>76.7</ele>
        <time>2019-04-23T13:43:30.000Z</time>
      </trkpt>
      <trkpt lat="49.47738" lon="-1.58897">
        <ele>76.7</ele>
        <time>2019-04-23T13:43:31.000Z</time>
      </trkpt>
      <trkpt lat="49.47737" lon="-1.58896">
        <ele>76.7</ele>
        <time>2019-04-23T13:43:32.000Z</time>
      </trkpt>
      <trkpt lat="49.47736" lon="-1.58895">
        <ele>76.7</ele>
        <time>2019-04-23T13:43:33.000Z</time>
      </trkpt>
      <trkpt lat="49.47735" lon="-1.58895">
        <ele>76.7</ele>
        <time>2019-04-23T13:43:34.000Z</time>
      </trkpt>
      <trkpt lat="49.47734" lon="-1.58894">
        <ele>76.7</ele>
        <time>2019-04-23T13:43:35.000Z</time>
      </trkpt>
      <trkpt lat="49.47733" lon="-1.58893">
        <ele>76.7</ele>
        <time>2019-04-23T13:43:36.000Z</time>
      </trkpt>
      <trkpt lat="49.47732" lon="-1.58892">
        <ele>76.7</ele>
        <time>2019-04-23T13:43:37.000Z</time>
      </trkpt>
      <trkpt lat="49.4773" lon="-1.58891">
        <ele>76.8</ele>
        <time>2019-04-23T13:43:38.000Z</time>
      </trkpt>
      <trkpt lat="49.47729" lon="-1.5889">
        <ele>76.8</ele>
        <time>2019-04-23T13:43:39.000Z</time>
      </trkpt>
      <trkpt lat="49.47728" lon="-1.58889">
        <ele>76.8</ele>
        <time>2019-04-23T13:43:40.000Z</time>
      </trkpt>
      <trkpt lat="49.47727" lon="-1.58888">
        <ele>76.8</ele>
        <time>2019-04-23T13:43:41.000Z</time>
      </trkpt>
      <trkpt lat="49.47726" lon="-1.58887">
        <ele>76.8</ele>
        <time>2019-04-23T13:43:42.000Z</time>
      </trkpt>
      <trkpt lat="49.47725" lon="-1.58886">
        <ele>76.8</ele>
        <time>2019-04-23T13:43:43.000Z</time>
      </trkpt>
      <trkpt lat="49.47724" lon="-1.58885">
        <ele>76.8</ele>
        <time>2019-04-23T13:43:44.000Z</time>
      </trkpt>
      <trkpt lat="49.47723" lon="-1.58884">
        <ele>76.9</ele>
        <time>2019-04-23T13:43:45.000Z</time>
      </trkpt>
      <trkpt lat="49.47722" lon="-1.58883">
        <ele>76.9</ele>
        <time>2019-04-23T13:43:46.000Z</time>
      </trkpt>
      <trkpt lat="49.4772" lon="-1.58882">
        <ele>76.9</ele>
        <time>2019-04-23T13:43:47.000Z</time>
      </trkpt>
      <trkpt lat="49.47719" lon="-1.58881">
        <ele>76.9</ele>
        <time>2019-04-23T13:43:48.000Z</time>
      </trkpt>
      <trkpt lat="49.47718" lon="-1.5888">
        <ele>76.9</ele>
        <time>2019-04-23T13:43:49.000Z</time>
      </trkpt>
      <trkpt lat="49.47717" lon="-1.58879">
        <ele>77</ele>
        <time>2019-04-23T13:43:50.000Z</time>
      </trkpt>
      <trkpt lat="49.47716" lon="-1.58878">
        <ele>77</ele>
        <time>2019-04-23T13:43:51.000Z</time>
      </trkpt>
      <trkpt lat="49.47715" lon="-1.58877">
        <ele>77</ele>
        <time>2019-04-23T13:43:52.000Z</time>
      </trkpt>
      <trkpt lat="49.47714" lon="-1.58876">
        <ele>77</ele>
        <time>2019-04-23T13:43:53.000Z</time>
      </trkpt>
      <trkpt lat="49.47713" lon="-1.58875">
        <ele>77.1</ele>
        <time>2019-04-23T13:43:54.000Z</time>
      </trkpt>
      <trkpt lat="49.47712" lon="-1.58874">
        <ele>77.1</ele>
        <time>2019-04-23T13:43:55.000Z</time>
      </trkpt>
      <trkpt lat="49.4771" lon="-1.58873">
        <ele>77.1</ele>
        <time>2019-04-23T13:43:56.000Z</time>
      </trkpt>
      <trkpt lat="49.47709" lon="-1.58872">
        <ele>77.2</ele>
        <time>2019-04-23T13:43:57.000Z</time>
      </trkpt>
      <trkpt lat="49.47708" lon="-1.58871">
        <ele>77.2</ele>
        <time>2019-04-23T13:43:58.000Z</time>
      </trkpt>
      <trkpt lat="49.47707" lon="-1.5887">
        <ele>77.2</ele>
        <time>2019-04-23T13:43:59.000Z</time>
      </trkpt>
      <trkpt lat="49.47706" lon="-1.5887">
        <ele>77.3</ele>
        <time>2019-04-23T13:44:00.000Z</time>
      </trkpt>
      <trkpt lat="49.47705" lon="-1.58869">
        <ele>77.3</ele>
        <time>2019-04-23T13:44:01.000Z</time>
      </trkpt>
      <trkpt lat="49.47704" lon="-1.58868">
        <ele>77.3</ele>
        <time>2019-04-23T13:44:02.000Z</time>
      </trkpt>
      <trkpt lat="49.47703" lon="-1.58867">
        <ele>77.4</ele>
        <time>2019-04-23T13:44:03.000Z</time>
      </trkpt>
      <trkpt lat="49.47702" lon="-1.58866">
        <ele>77.4</ele>
        <time>2019-04-23T13:44:04.000Z</time>
      </trkpt>
      <trkpt lat="49.47701" lon="-1.58865">
        <ele>77.4</ele>
        <time>2019-04-23T13:44:05.000Z</time>
      </trkpt>
      <trkpt lat="49.477" lon="-1.58864">
        <ele>77.5</ele>
        <time>2019-04-23T13:44:06.000Z</time>
      </trkpt>
      <trkpt lat="49.47698" lon="-1.58863">
        <ele>77.5</ele>
        <time>2019-04-23T13:44:07.000Z</time>
      </trkpt>
      <trkpt lat="49.47697" lon="-1.58862">
        <ele>77.5</ele>
        <time>2019-04-23T13:44:08.000Z</time>
      </trkpt>
      <trkpt lat="49.47696" lon="-1.58861">
        <ele>77.6</ele>
        <time>2019-04-23T13:44:09.000Z</time>
      </trkpt>
      <trkpt lat="49.47695" lon="-1.5886">
        <ele>77.6</ele>
        <time>2019-04-23T13:44:10.000Z</time>
      </trkpt>
      <trkpt lat="49.47694" lon="-1.58859">
        <ele>77.7</ele>
        <time>2019-04-23T13:44:11.000Z</time>
      </trkpt>
      <trkpt lat="49.47693" lon="-1.58859">
        <ele>77.7</ele>
        <time>2019-04-23T13:44:12.000Z</time>
      </trkpt>
      <trkpt lat="49.47692" lon="-1.58858">
        <ele>77.7</ele>
        <time>2019-04-23T13:44:13.000Z</time>
      </trkpt>
      <trkpt lat="49.47691" lon="-1.58857">
        <ele>77.8</ele>
        <time>2019-04-23T13:44:14.000Z</time>
      </trkpt>
      <trkpt lat="49.4769" lon="-1.58856">
        <ele>77.8</ele>
        <time>2019-04-23T13:44:15.000Z</time>
      </trkpt>
      <trkpt lat="49.47689" lon="-1.58855">
        <ele>77.9</ele>
        <time>2019-04-23T13:44:16.000Z</time>
      </trkpt>
      <trkpt lat="49.47688" lon="-1.58854">
        <ele>77.9</ele>
        <time>2019-04-23T13:44:17.000Z</time>
      </trkpt>
      <trkpt lat="49.47687" lon="-1.58853">
        <ele>78</ele>
        <time>2019-04-23T13:44:18.000Z</time>
      </trkpt>
      <trkpt lat="49.47686" lon="-1.58852">
        <ele>78</ele>
        <time>2019-04-23T13:44:19.000Z</time>
      </trkpt>
      <trkpt lat="49.47685" lon="-1.58851">
        <ele>78.1</ele>
        <time>2019-04-23T13:44:20.000Z</time>
      </trkpt>
      <trkpt lat="49.47684" lon="-1.5885">
        <ele>78.1</ele>
        <time>2019-04-23T13:44:21.000Z</time>
      </trkpt>
      <trkpt lat="49.47683" lon="-1.58849">
        <ele>78.1</ele>
        <time>2019-04-23T13:44:22.000Z</time>
      </trkpt>
      <trkpt lat="49.47682" lon="-1.58848">
        <ele>78.2</ele>
        <time>2019-04-23T13:44:23.000Z</time>
      </trkpt>
      <trkpt lat="49.47681" lon="-1.58847">
        <ele>78.2</ele>
        <time>2019-04-23T13:44:24.000Z</time>
      </trkpt>
      <trkpt lat="49.4768" lon="-1.58846">
        <ele>78.3</ele>
        <time>2019-04-23T13:44:25.000Z</time>
      </trkpt>
      <trkpt lat="49.47679" lon="-1.58845">
        <ele>78.3</ele>
        <time>2019-04-23T13:44:26.000Z</time>
      </trkpt>
      <trkpt lat="49.47678" lon="-1.58844">
        <ele>78.4</ele>
        <time>2019-04-23T13:44:27.000Z</time>
      </trkpt>
      <trkpt lat="49.47677" lon="-1.58844">
        <ele>78.4</ele>
        <time>2019-04-23T13:44:28.000Z</time>
      </trkpt>
      <trkpt lat="49.47677" lon="-1.58843">
        <ele>78.4</ele>
        <time>2019-04-23T13:44:29.000Z</time>
      </trkpt>
      <trkpt lat="49.47676" lon="-1.58842">
        <ele>78.5</ele>
        <time>2019-04-23T13:44:30.000Z</time>
      </trkpt>
      <trkpt lat="49.47675" lon="-1.58841">
        <ele>78.6</ele>
        <time>2019-04-23T13:44:31.000Z</time>
      </trkpt>
      <trkpt lat="49.47673" lon="-1.5884">
        <ele>78.6</ele>
        <time>2019-04-23T13:44:32.000Z</time>
      </trkpt>
      <trkpt lat="49.47672" lon="-1.58839">
        <ele>78.7</ele>
        <time>2019-04-23T13:44:33.000Z</time>
      </trkpt>
      <trkpt lat="49.47671" lon="-1.58838">
        <ele>78.7</ele>
        <time>2019-04-23T13:44:34.000Z</time>
      </trkpt>
      <trkpt lat="49.4767" lon="-1.58837">
        <ele>78.8</ele>
        <time>2019-04-23T13:44:35.000Z</time>
      </trkpt>
      <trkpt lat="49.47669" lon="-1.58835">
        <ele>78.9</ele>
        <time>2019-04-23T13:44:36.000Z</time>
      </trkpt>
      <trkpt lat="49.47667" lon="-1.58834">
        <ele>79</ele>
        <time>2019-04-23T13:44:37.000Z</time>
      </trkpt>
      <trkpt lat="49.47666" lon="-1.58833">
        <ele>79</ele>
        <time>2019-04-23T13:44:38.000Z</time>
      </trkpt>
      <trkpt lat="49.47665" lon="-1.58832">
        <ele>79</ele>
        <time>2019-04-23T13:44:39.000Z</time>
      </trkpt>
      <trkpt lat="49.47664" lon="-1.58831">
        <ele>79</ele>
        <time>2019-04-23T13:44:40.000Z</time>
      </trkpt>
      <trkpt lat="49.47662" lon="-1.5883">
        <ele>79</ele>
        <time>2019-04-23T13:44:41.000Z</time>
      </trkpt>
      <trkpt lat="49.47661" lon="-1.58828">
        <ele>79</ele>
        <time>2019-04-23T13:44:42.000Z</time>
      </trkpt>
      <trkpt lat="49.4766" lon="-1.58827">
        <ele>79</ele>
        <time>2019-04-23T13:44:43.000Z</time>
      </trkpt>
      <trkpt lat="49.47658" lon="-1.58826">
        <ele>79</ele>
        <time>2019-04-23T13:44:44.000Z</time>
      </trkpt>
      <trkpt lat="49.47657" lon="-1.58825">
        <ele>79</ele>
        <time>2019-04-23T13:44:45.000Z</time>
      </trkpt>
      <trkpt lat="49.47656" lon="-1.58824">
        <ele>79</ele>
        <time>2019-04-23T13:44:46.000Z</time>
      </trkpt>
      <trkpt lat="49.47655" lon="-1.58823">
        <ele>79</ele>
        <time>2019-04-23T13:44:47.000Z</time>
      </trkpt>
      <trkpt lat="49.47653" lon="-1.58822">
        <ele>79</ele>
        <time>2019-04-23T13:44:48.000Z</time>
      </trkpt>
      <trkpt lat="49.47652" lon="-1.58821">
        <ele>79</ele>
        <time>2019-04-23T13:44:49.000Z</time>
      </trkpt>
      <trkpt lat="49.47651" lon="-1.5882">
        <ele>79</ele>
        <time>2019-04-23T13:44:50.000Z</time>
      </trkpt>
      <trkpt lat="49.4765" lon="-1.58819">
        <ele>79</ele>
        <time>2019-04-23T13:44:51.000Z</time>
      </trkpt>
      <trkpt lat="49.47649" lon="-1.58818">
        <ele>79</ele>
        <time>2019-04-23T13:44:52.000Z</time>
      </trkpt>
      <trkpt lat="49.47647" lon="-1.58817">
        <ele>79</ele>
        <time>2019-04-23T13:44:53.000Z</time>
      </trkpt>
      <trkpt lat="49.47646" lon="-1.58816">
        <ele>79</ele>
        <time>2019-04-23T13:44:54.000Z</time>
      </trkpt>
      <trkpt lat="49.47645" lon="-1.58815">
        <ele>79</ele>
        <time>2019-04-23T13:44:55.000Z</time>
      </trkpt>
      <trkpt lat="49.47644" lon="-1.58814">
        <ele>79</ele>
        <time>2019-04-23T13:44:56.000Z</time>
      </trkpt>
      <trkpt lat="49.47643" lon="-1.58813">
        <ele>79</ele>
        <time>2019-04-23T13:44:57.000Z</time>
      </trkpt>
      <trkpt lat="49.47642" lon="-1.58812">
        <ele>79</ele>
        <time>2019-04-23T13:44:58.000Z</time>
      </trkpt>
      <trkpt lat="49.47641" lon="-1.58811">
        <ele>79</ele>
        <time>2019-04-23T13:44:59.000Z</time>
      </trkpt>
      <trkpt lat="49.4764" lon="-1.5881">
        <ele>79</ele>
        <time>2019-04-23T13:45:00.000Z</time>
      </trkpt>
      <trkpt lat="49.47639" lon="-1.5881">
        <ele>79</ele>
        <time>2019-04-23T13:45:01.000Z</time>
      </trkpt>
      <trkpt lat="49.47638" lon="-1.58809">
        <ele>79</ele>
        <time>2019-04-23T13:45:02.000Z</time>
      </trkpt>
      <trkpt lat="49.47637" lon="-1.58808">
        <ele>78.9</ele>
        <time>2019-04-23T13:45:03.000Z</time>
      </trkpt>
      <trkpt lat="49.47636" lon="-1.58807">
        <ele>78.9</ele>
        <time>2019-04-23T13:45:04.000Z</time>
      </trkpt>
      <trkpt lat="49.47635" lon="-1.58806">
        <ele>78.9</ele>
        <time>2019-04-23T13:45:05.000Z</time>
      </trkpt>
      <trkpt lat="49.47633" lon="-1.58805">
        <ele>78.9</ele>
        <time>2019-04-23T13:45:06.000Z</time>
      </trkpt>
      <trkpt lat="49.47632" lon="-1.58804">
        <ele>78.9</ele>
        <time>2019-04-23T13:45:07.000Z</time>
      </trkpt>
      <trkpt lat="49.47631" lon="-1.58803">
        <ele>78.9</ele>
        <time>2019-04-23T13:45:08.000Z</time>
      </trkpt>
      <trkpt lat="49.4763" lon="-1.58803">
        <ele>78.9</ele>
        <time>2019-04-23T13:45:09.000Z</time>
      </trkpt>
      <trkpt lat="49.47629" lon="-1.58802">
        <ele>78.9</ele>
        <time>2019-04-23T13:45:10.000Z</time>
      </trkpt>
      <trkpt lat="49.47628" lon="-1.58801">
        <ele>78.9</ele>
        <time>2019-04-23T13:45:11.000Z</time>
      </trkpt>
      <trkpt lat="49.47627" lon="-1.588">
        <ele>78.9</ele>
        <time>2019-04-23T13:45:12.000Z</time>
      </trkpt>
      <trkpt lat="49.47626" lon="-1.58799">
        <ele>78.9</ele>
        <time>2019-04-23T13:45:13.000Z</time>
      </trkpt>
      <trkpt lat="49.47625" lon="-1.58798">
        <ele>78.9</ele>
        <time>2019-04-23T13:45:14.000Z</time>
      </trkpt>
      <trkpt lat="49.47624" lon="-1.58797">
        <ele>78.9</ele>
        <time>2019-04-23T13:45:15.000Z</time>
      </trkpt>
      <trkpt lat="49.47623" lon="-1.58796">
        <ele>78.8</ele>
        <time>2019-04-23T13:45:16.000Z</time>
      </trkpt>
      <trkpt lat="49.47622" lon="-1.58795">
        <ele>78.8</ele>
        <time>2019-04-23T13:45:17.000Z</time>
      </trkpt>
      <trkpt lat="49.47621" lon="-1.58794">
        <ele>78.8</ele>
        <time>2019-04-23T13:45:18.000Z</time>
      </trkpt>
      <trkpt lat="49.4762" lon="-1.58794">
        <ele>78.8</ele>
        <time>2019-04-23T13:45:19.000Z</time>
      </trkpt>
      <trkpt lat="49.47619" lon="-1.58793">
        <ele>78.8</ele>
        <time>2019-04-23T13:45:20.000Z</time>
      </trkpt>
      <trkpt lat="49.47618" lon="-1.58792">
        <ele>78.8</ele>
        <time>2019-04-23T13:45:21.000Z</time>
      </trkpt>
      <trkpt lat="49.47617" lon="-1.58791">
        <ele>78.8</ele>
        <time>2019-04-23T13:45:22.000Z</time>
      </trkpt>
      <trkpt lat="49.47616" lon="-1.5879">
        <ele>78.8</ele>
        <time>2019-04-23T13:45:23.000Z</time>
      </trkpt>
      <trkpt lat="49.47614" lon="-1.58789">
        <ele>78.8</ele>
        <time>2019-04-23T13:45:24.000Z</time>
      </trkpt>
      <trkpt lat="49.47613" lon="-1.58788">
        <ele>78.7</ele>
        <time>2019-04-23T13:45:25.000Z</time>
      </trkpt>
      <trkpt lat="49.47612" lon="-1.58787">
        <ele>78.7</ele>
        <time>2019-04-23T13:45:26.000Z</time>
      </trkpt>
      <trkpt lat="49.47611" lon="-1.58786">
        <ele>78.7</ele>
        <time>2019-04-23T13:45:27.000Z</time>
      </trkpt>
      <trkpt lat="49.4761" lon="-1.58785">
        <ele>78.7</ele>
        <time>2019-04-23T13:45:28.000Z</time>
      </trkpt>
      <trkpt lat="49.47609" lon="-1.58784">
        <ele>78.7</ele>
        <time>2019-04-23T13:45:29.000Z</time>
      </trkpt>
      <trkpt lat="49.47608" lon="-1.58783">
        <ele>78.7</ele>
        <time>2019-04-23T13:45:30.000Z</time>
      </trkpt>
      <trkpt lat="49.47606" lon="-1.58782">
        <ele>78.7</ele>
        <time>2019-04-23T13:45:31.000Z</time>
      </trkpt>
      <trkpt lat="49.47605" lon="-1.58781">
        <ele>78.6</ele>
        <time>2019-04-23T13:45:32.000Z</time>
      </trkpt>
      <trkpt lat="49.47604" lon="-1.5878">
        <ele>78.6</ele>
        <time>2019-04-23T13:45:33.000Z</time>
      </trkpt>
      <trkpt lat="49.47603" lon="-1.58779">
        <ele>78.6</ele>
        <time>2019-04-23T13:45:34.000Z</time>
      </trkpt>
      <trkpt lat="49.47602" lon="-1.58778">
        <ele>78.6</ele>
        <time>2019-04-23T13:45:35.000Z</time>
      </trkpt>
      <trkpt lat="49.476" lon="-1.58777">
        <ele>78.6</ele>
        <time>2019-04-23T13:45:36.000Z</time>
      </trkpt>
      <trkpt lat="49.47599" lon="-1.58776">
        <ele>78.6</ele>
        <time>2019-04-23T13:45:37.000Z</time>
      </trkpt>
      <trkpt lat="49.47598" lon="-1.58775">
        <ele>78.5</ele>
        <time>2019-04-23T13:45:38.000Z</time>
      </trkpt>
      <trkpt lat="49.47597" lon="-1.58774">
        <ele>78.5</ele>
        <time>2019-04-23T13:45:39.000Z</time>
      </trkpt>
      <trkpt lat="49.47596" lon="-1.58773">
        <ele>78.5</ele>
        <time>2019-04-23T13:45:40.000Z</time>
      </trkpt>
      <trkpt lat="49.47595" lon="-1.58772">
        <ele>78.5</ele>
        <time>2019-04-23T13:45:41.000Z</time>
      </trkpt>
      <trkpt lat="49.47593" lon="-1.58771">
        <ele>78.5</ele>
        <time>2019-04-23T13:45:42.000Z</time>
      </trkpt>
      <trkpt lat="49.47592" lon="-1.5877">
        <ele>78.4</ele>
        <time>2019-04-23T13:45:43.000Z</time>
      </trkpt>
      <trkpt lat="49.47591" lon="-1.58769">
        <ele>78.4</ele>
        <time>2019-04-23T13:45:44.000Z</time>
      </trkpt>
      <trkpt lat="49.4759" lon="-1.58768">
        <ele>78.4</ele>
        <time>2019-04-23T13:45:45.000Z</time>
      </trkpt>
      <trkpt lat="49.47589" lon="-1.58767">
        <ele>78.4</ele>
        <time>2019-04-23T13:45:46.000Z</time>
      </trkpt>
      <trkpt lat="49.47587" lon="-1.58766">
        <ele>78.4</ele>
        <time>2019-04-23T13:45:47.000Z</time>
      </trkpt>
      <trkpt lat="49.47586" lon="-1.58765">
        <ele>78.3</ele>
        <time>2019-04-23T13:45:48.000Z</time>
      </trkpt>
      <trkpt lat="49.47585" lon="-1.58764">
        <ele>78.3</ele>
        <time>2019-04-23T13:45:49.000Z</time>
      </trkpt>
      <trkpt lat="49.47584" lon="-1.58763">
        <ele>78.3</ele>
        <time>2019-04-23T13:45:50.000Z</time>
      </trkpt>
      <trkpt lat="49.47583" lon="-1.58762">
        <ele>78.3</ele>
        <time>2019-04-23T13:45:51.000Z</time>
      </trkpt>
      <trkpt lat="49.47582" lon="-1.58761">
        <ele>78.2</ele>
        <time>2019-04-23T13:45:52.000Z</time>
      </trkpt>
      <trkpt lat="49.4758" lon="-1.5876">
        <ele>78.2</ele>
        <time>2019-04-23T13:45:53.000Z</time>
      </trkpt>
      <trkpt lat="49.47579" lon="-1.58759">
        <ele>78.1</ele>
        <time>2019-04-23T13:45:54.000Z</time>
      </trkpt>
      <trkpt lat="49.47578" lon="-1.58758">
        <ele>78.1</ele>
        <time>2019-04-23T13:45:55.000Z</time>
      </trkpt>
      <trkpt lat="49.47577" lon="-1.58757">
        <ele>78.1</ele>
        <time>2019-04-23T13:45:56.000Z</time>
      </trkpt>
      <trkpt lat="49.47576" lon="-1.58756">
        <ele>78</ele>
        <time>2019-04-23T13:45:57.000Z</time>
      </trkpt>
      <trkpt lat="49.47575" lon="-1.58755">
        <ele>78</ele>
        <time>2019-04-23T13:45:58.000Z</time>
      </trkpt>
      <trkpt lat="49.47574" lon="-1.58754">
        <ele>78</ele>
        <time>2019-04-23T13:45:59.000Z</time>
      </trkpt>
      <trkpt lat="49.47572" lon="-1.58753">
        <ele>77.9</ele>
        <time>2019-04-23T13:46:00.000Z</time>
      </trkpt>
      <trkpt lat="49.47571" lon="-1.58752">
        <ele>77.9</ele>
        <time>2019-04-23T13:46:01.000Z</time>
      </trkpt>
      <trkpt lat="49.4757" lon="-1.58751">
        <ele>77.9</ele>
        <time>2019-04-23T13:46:02.000Z</time>
      </trkpt>
      <trkpt lat="49.47569" lon="-1.5875">
        <ele>77.8</ele>
        <time>2019-04-23T13:46:03.000Z</time>
      </trkpt>
      <trkpt lat="49.47568" lon="-1.58749">
        <ele>77.8</ele>
        <time>2019-04-23T13:46:04.000Z</time>
      </trkpt>
      <trkpt lat="49.47567" lon="-1.58748">
        <ele>77.8</ele>
        <time>2019-04-23T13:46:05.000Z</time>
      </trkpt>
      <trkpt lat="49.47566" lon="-1.58747">
        <ele>77.8</ele>
        <time>2019-04-23T13:46:06.000Z</time>
      </trkpt>
      <trkpt lat="49.47564" lon="-1.58746">
        <ele>77.7</ele>
        <time>2019-04-23T13:46:07.000Z</time>
      </trkpt>
      <trkpt lat="49.47563" lon="-1.58745">
        <ele>77.7</ele>
        <time>2019-04-23T13:46:08.000Z</time>
      </trkpt>
      <trkpt lat="49.47562" lon="-1.58744">
        <ele>77.7</ele>
        <time>2019-04-23T13:46:09.000Z</time>
      </trkpt>
      <trkpt lat="49.47561" lon="-1.58743">
        <ele>77.7</ele>
        <time>2019-04-23T13:46:10.000Z</time>
      </trkpt>
      <trkpt lat="49.4756" lon="-1.58743">
        <ele>77.7</ele>
        <time>2019-04-23T13:46:11.000Z</time>
      </trkpt>
      <trkpt lat="49.47558" lon="-1.58742">
        <ele>77.7</ele>
        <time>2019-04-23T13:46:12.000Z</time>
      </trkpt>
      <trkpt lat="49.47557" lon="-1.58741">
        <ele>77.6</ele>
        <time>2019-04-23T13:46:13.000Z</time>
      </trkpt>
      <trkpt lat="49.47556" lon="-1.5874">
        <ele>77.6</ele>
        <time>2019-04-23T13:46:14.000Z</time>
      </trkpt>
      <trkpt lat="49.47555" lon="-1.58739">
        <ele>77.6</ele>
        <time>2019-04-23T13:46:15.000Z</time>
      </trkpt>
      <trkpt lat="49.47554" lon="-1.58738">
        <ele>77.6</ele>
        <time>2019-04-23T13:46:16.000Z</time>
      </trkpt>
      <trkpt lat="49.47552" lon="-1.58737">
        <ele>77.6</ele>
        <time>2019-04-23T13:46:17.000Z</time>
      </trkpt>
      <trkpt lat="49.47551" lon="-1.58736">
        <ele>77.6</ele>
        <time>2019-04-23T13:46:18.000Z</time>
      </trkpt>
      <trkpt lat="49.4755" lon="-1.58735">
        <ele>77.6</ele>
        <time>2019-04-23T13:46:19.000Z</time>
      </trkpt>
      <trkpt lat="49.47549" lon="-1.58734">
        <ele>77.6</ele>
        <time>2019-04-23T13:46:20.000Z</time>
      </trkpt>
      <trkpt lat="49.47548" lon="-1.58733">
        <ele>77.5</ele>
        <time>2019-04-23T13:46:21.000Z</time>
      </trkpt>
      <trkpt lat="49.47547" lon="-1.58732">
        <ele>77.5</ele>
        <time>2019-04-23T13:46:22.000Z</time>
      </trkpt>
      <trkpt lat="49.47545" lon="-1.58731">
        <ele>77.5</ele>
        <time>2019-04-23T13:46:23.000Z</time>
      </trkpt>
      <trkpt lat="49.47544" lon="-1.58729">
        <ele>77.5</ele>
        <time>2019-04-23T13:46:24.000Z</time>
      </trkpt>
      <trkpt lat="49.47543" lon="-1.58728">
        <ele>77.5</ele>
        <time>2019-04-23T13:46:25.000Z</time>
      </trkpt>
      <trkpt lat="49.47542" lon="-1.58727">
        <ele>77.5</ele>
        <time>2019-04-23T13:46:26.000Z</time>
      </trkpt>
      <trkpt lat="49.47541" lon="-1.58726">
        <ele>77.5</ele>
        <time>2019-04-23T13:46:27.000Z</time>
      </trkpt>
      <trkpt lat="49.4754" lon="-1.58725">
        <ele>77.5</ele>
        <time>2019-04-23T13:46:28.000Z</time>
      </trkpt>
      <trkpt lat="49.47539" lon="-1.58724">
        <ele>77.5</ele>
        <time>2019-04-23T13:46:29.000Z</time>
      </trkpt>
      <trkpt lat="49.47537" lon="-1.58723">
        <ele>77.5</ele>
        <time>2019-04-23T13:46:30.000Z</time>
      </trkpt>
      <trkpt lat="49.47536" lon="-1.58722">
        <ele>77.5</ele>
        <time>2019-04-23T13:46:31.000Z</time>
      </trkpt>
      <trkpt lat="49.47535" lon="-1.58721">
        <ele>77.5</ele>
        <time>2019-04-23T13:46:32.000Z</time>
      </trkpt>
      <trkpt lat="49.47534" lon="-1.5872">
        <ele>77.5</ele>
        <time>2019-04-23T13:46:33.000Z</time>
      </trkpt>
      <trkpt lat="49.47533" lon="-1.58719">
        <ele>77.5</ele>
        <time>2019-04-23T13:46:34.000Z</time>
      </trkpt>
      <trkpt lat="49.47532" lon="-1.58717">
        <ele>77.5</ele>
        <time>2019-04-23T13:46:35.000Z</time>
      </trkpt>
      <trkpt lat="49.47531" lon="-1.58716">
        <ele>77.5</ele>
        <time>2019-04-23T13:46:36.000Z</time>
      </trkpt>
      <trkpt lat="49.4753" lon="-1.58715">
        <ele>77.5</ele>
        <time>2019-04-23T13:46:37.000Z</time>
      </trkpt>
      <trkpt lat="49.47529" lon="-1.58714">
        <ele>77.5</ele>
        <time>2019-04-23T13:46:38.000Z</time>
      </trkpt>
      <trkpt lat="49.47528" lon="-1.58713">
        <ele>77.5</ele>
        <time>2019-04-23T13:46:39.000Z</time>
      </trkpt>
      <trkpt lat="49.47527" lon="-1.58711">
        <ele>77.5</ele>
        <time>2019-04-23T13:46:40.000Z</time>
      </trkpt>
      <trkpt lat="49.47526" lon="-1.5871">
        <ele>77.5</ele>
        <time>2019-04-23T13:46:41.000Z</time>
      </trkpt>
      <trkpt lat="49.47525" lon="-1.58709">
        <ele>77.5</ele>
        <time>2019-04-23T13:46:42.000Z</time>
      </trkpt>
      <trkpt lat="49.47524" lon="-1.58708">
        <ele>77.5</ele>
        <time>2019-04-23T13:46:43.000Z</time>
      </trkpt>
      <trkpt lat="49.47523" lon="-1.58707">
        <ele>77.5</ele>
        <time>2019-04-23T13:46:44.000Z</time>
      </trkpt>
      <trkpt lat="49.47522" lon="-1.58705">
        <ele>77.5</ele>
        <time>2019-04-23T13:46:45.000Z</time>
      </trkpt>
      <trkpt lat="49.47521" lon="-1.58704">
        <ele>77.5</ele>
        <time>2019-04-23T13:46:46.000Z</time>
      </trkpt>
      <trkpt lat="49.4752" lon="-1.58703">
        <ele>77.5</ele>
        <time>2019-04-23T13:46:47.000Z</time>
      </trkpt>
      <trkpt lat="49.47519" lon="-1.58701">
        <ele>77.5</ele>
        <time>2019-04-23T13:46:48.000Z</time>
      </trkpt>
      <trkpt lat="49.47518" lon="-1.587">
        <ele>77.6</ele>
        <time>2019-04-23T13:46:49.000Z</time>
      </trkpt>
      <trkpt lat="49.47517" lon="-1.58699">
        <ele>77.6</ele>
        <time>2019-04-23T13:46:50.000Z</time>
      </trkpt>
      <trkpt lat="49.47516" lon="-1.58698">
        <ele>77.6</ele>
        <time>2019-04-23T13:46:51.000Z</time>
      </trkpt>
      <trkpt lat="49.47515" lon="-1.58696">
        <ele>77.6</ele>
        <time>2019-04-23T13:46:52.000Z</time>
      </trkpt>
      <trkpt lat="49.47514" lon="-1.58695">
        <ele>77.6</ele>
        <time>2019-04-23T13:46:53.000Z</time>
      </trkpt>
      <trkpt lat="49.47513" lon="-1.58694">
        <ele>77.6</ele>
        <time>2019-04-23T13:46:54.000Z</time>
      </trkpt>
      <trkpt lat="49.47512" lon="-1.58693">
        <ele>77.6</ele>
        <time>2019-04-23T13:46:55.000Z</time>
      </trkpt>
      <trkpt lat="49.47511" lon="-1.58691">
        <ele>77.6</ele>
        <time>2019-04-23T13:46:56.000Z</time>
      </trkpt>
      <trkpt lat="49.4751" lon="-1.5869">
        <ele>77.7</ele>
        <time>2019-04-23T13:46:57.000Z</time>
      </trkpt>
      <trkpt lat="49.47509" lon="-1.58689">
        <ele>77.7</ele>
        <time>2019-04-23T13:46:58.000Z</time>
      </trkpt>
      <trkpt lat="49.47508" lon="-1.58687">
        <ele>77.7</ele>
        <time>2019-04-23T13:46:59.000Z</time>
      </trkpt>
      <trkpt lat="49.47507" lon="-1.58686">
        <ele>77.7</ele>
        <time>2019-04-23T13:47:00.000Z</time>
      </trkpt>
      <trkpt lat="49.47506" lon="-1.58685">
        <ele>77.7</ele>
        <time>2019-04-23T13:47:01.000Z</time>
      </trkpt>
      <trkpt lat="49.47505" lon="-1.58684">
        <ele>77.8</ele>
        <time>2019-04-23T13:47:02.000Z</time>
      </trkpt>
      <trkpt lat="49.47504" lon="-1.58682">
        <ele>77.8</ele>
        <time>2019-04-23T13:47:03.000Z</time>
      </trkpt>
      <trkpt lat="49.47503" lon="-1.58681">
        <ele>77.8</ele>
        <time>2019-04-23T13:47:04.000Z</time>
      </trkpt>
      <trkpt lat="49.47502" lon="-1.5868">
        <ele>77.8</ele>
        <time>2019-04-23T13:47:05.000Z</time>
      </trkpt>
      <trkpt lat="49.47501" lon="-1.58679">
        <ele>77.8</ele>
        <time>2019-04-23T13:47:06.000Z</time>
      </trkpt>
      <trkpt lat="49.475" lon="-1.58678">
        <ele>77.9</ele>
        <time>2019-04-23T13:47:07.000Z</time>
      </trkpt>
      <trkpt lat="49.47499" lon="-1.58676">
        <ele>77.8</ele>
        <time>2019-04-23T13:47:08.000Z</time>
      </trkpt>
      <trkpt lat="49.47498" lon="-1.58675">
        <ele>77.8</ele>
        <time>2019-04-23T13:47:09.000Z</time>
      </trkpt>
      <trkpt lat="49.47497" lon="-1.58674">
        <ele>77.8</ele>
        <time>2019-04-23T13:47:10.000Z</time>
      </trkpt>
      <trkpt lat="49.47496" lon="-1.58673">
        <ele>77.8</ele>
        <time>2019-04-23T13:47:11.000Z</time>
      </trkpt>
      <trkpt lat="49.47495" lon="-1.58672">
        <ele>77.7</ele>
        <time>2019-04-23T13:47:12.000Z</time>
      </trkpt>
      <trkpt lat="49.47494" lon="-1.58671">
        <ele>77.7</ele>
        <time>2019-04-23T13:47:13.000Z</time>
      </trkpt>
      <trkpt lat="49.47493" lon="-1.5867">
        <ele>77.7</ele>
        <time>2019-04-23T13:47:14.000Z</time>
      </trkpt>
      <trkpt lat="49.47492" lon="-1.58669">
        <ele>77.7</ele>
        <time>2019-04-23T13:47:15.000Z</time>
      </trkpt>
      <trkpt lat="49.47491" lon="-1.58668">
        <ele>77.7</ele>
        <time>2019-04-23T13:47:16.000Z</time>
      </trkpt>
      <trkpt lat="49.4749" lon="-1.58667">
        <ele>77.6</ele>
        <time>2019-04-23T13:47:17.000Z</time>
      </trkpt>
      <trkpt lat="49.47489" lon="-1.58665">
        <ele>77.6</ele>
        <time>2019-04-23T13:47:18.000Z</time>
      </trkpt>
      <trkpt lat="49.47488" lon="-1.58664">
        <ele>77.6</ele>
        <time>2019-04-23T13:47:19.000Z</time>
      </trkpt>
      <trkpt lat="49.47487" lon="-1.58663">
        <ele>77.5</ele>
        <time>2019-04-23T13:47:20.000Z</time>
      </trkpt>
      <trkpt lat="49.47486" lon="-1.58662">
        <ele>77.5</ele>
        <time>2019-04-23T13:47:21.000Z</time>
      </trkpt>
      <trkpt lat="49.47485" lon="-1.58661">
        <ele>77.5</ele>
        <time>2019-04-23T13:47:22.000Z</time>
      </trkpt>
      <trkpt lat="49.47484" lon="-1.5866">
        <ele>77.4</ele>
        <time>2019-04-23T13:47:23.000Z</time>
      </trkpt>
      <trkpt lat="49.47482" lon="-1.58659">
        <ele>77.4</ele>
        <time>2019-04-23T13:47:24.000Z</time>
      </trkpt>
      <trkpt lat="49.47481" lon="-1.58658">
        <ele>77.3</ele>
        <time>2019-04-23T13:47:25.000Z</time>
      </trkpt>
      <trkpt lat="49.4748" lon="-1.58656">
        <ele>77.3</ele>
        <time>2019-04-23T13:47:26.000Z</time>
      </trkpt>
      <trkpt lat="49.47479" lon="-1.58655">
        <ele>77.3</ele>
        <time>2019-04-23T13:47:27.000Z</time>
      </trkpt>
      <trkpt lat="49.47477" lon="-1.58654">
        <ele>77.2</ele>
        <time>2019-04-23T13:47:28.000Z</time>
      </trkpt>
      <trkpt lat="49.47476" lon="-1.58653">
        <ele>77.2</ele>
        <time>2019-04-23T13:47:29.000Z</time>
      </trkpt>
      <trkpt lat="49.47475" lon="-1.58652">
        <ele>77.1</ele>
        <time>2019-04-23T13:47:30.000Z</time>
      </trkpt>
      <trkpt lat="49.47473" lon="-1.5865">
        <ele>77.1</ele>
        <time>2019-04-23T13:47:31.000Z</time>
      </trkpt>
      <trkpt lat="49.47472" lon="-1.58649">
        <ele>77.1</ele>
        <time>2019-04-23T13:47:32.000Z</time>
      </trkpt>
      <trkpt lat="49.47471" lon="-1.58648">
        <ele>77</ele>
        <time>2019-04-23T13:47:33.000Z</time>
      </trkpt>
      <trkpt lat="49.4747" lon="-1.58647">
        <ele>77</ele>
        <time>2019-04-23T13:47:34.000Z</time>
      </trkpt>
      <trkpt lat="49.47469" lon="-1.58646">
        <ele>77</ele>
        <time>2019-04-23T13:47:35.000Z</time>
      </trkpt>
      <trkpt lat="49.47468" lon="-1.58644">
        <ele>76.9</ele>
        <time>2019-04-23T13:47:36.000Z</time>
      </trkpt>
      <trkpt lat="49.47466" lon="-1.58643">
        <ele>76.9</ele>
        <time>2019-04-23T13:47:37.000Z</time>
      </trkpt>
      <trkpt lat="49.47465" lon="-1.58642">
        <ele>76.9</ele>
        <time>2019-04-23T13:47:38.000Z</time>
      </trkpt>
      <trkpt lat="49.47464" lon="-1.58641">
        <ele>76.8</ele>
        <time>2019-04-23T13:47:39.000Z</time>
      </trkpt>
      <trkpt lat="49.47463" lon="-1.5864">
        <ele>76.8</ele>
        <time>2019-04-23T13:47:40.000Z</time>
      </trkpt>
      <trkpt lat="49.47462" lon="-1.58639">
        <ele>76.8</ele>
        <time>2019-04-23T13:47:41.000Z</time>
      </trkpt>
      <trkpt lat="49.47461" lon="-1.58638">
        <ele>76.7</ele>
        <time>2019-04-23T13:47:42.000Z</time>
      </trkpt>
      <trkpt lat="49.4746" lon="-1.58637">
        <ele>76.7</ele>
        <time>2019-04-23T13:47:43.000Z</time>
      </trkpt>
      <trkpt lat="49.47458" lon="-1.58637">
        <ele>76.7</ele>
        <time>2019-04-23T13:47:44.000Z</time>
      </trkpt>
      <trkpt lat="49.47457" lon="-1.58636">
        <ele>76.6</ele>
        <time>2019-04-23T13:47:45.000Z</time>
      </trkpt>
      <trkpt lat="49.47456" lon="-1.58635">
        <ele>76.6</ele>
        <time>2019-04-23T13:47:46.000Z</time>
      </trkpt>
      <trkpt lat="49.47455" lon="-1.58635">
        <ele>76.6</ele>
        <time>2019-04-23T13:47:47.000Z</time>
      </trkpt>
      <trkpt lat="49.47454" lon="-1.58634">
        <ele>76.6</ele>
        <time>2019-04-23T13:47:48.000Z</time>
      </trkpt>
      <trkpt lat="49.47453" lon="-1.58634">
        <ele>76.5</ele>
        <time>2019-04-23T13:47:49.000Z</time>
      </trkpt>
      <trkpt lat="49.47452" lon="-1.58633">
        <ele>76.5</ele>
        <time>2019-04-23T13:47:50.000Z</time>
      </trkpt>
      <trkpt lat="49.47451" lon="-1.58633">
        <ele>76.5</ele>
        <time>2019-04-23T13:47:51.000Z</time>
      </trkpt>
      <trkpt lat="49.4745" lon="-1.58633">
        <ele>76.4</ele>
        <time>2019-04-23T13:47:52.000Z</time>
      </trkpt>
      <trkpt lat="49.47449" lon="-1.58633">
        <ele>76.4</ele>
        <time>2019-04-23T13:47:53.000Z</time>
      </trkpt>
      <trkpt lat="49.47449" lon="-1.58633">
        <ele>76.4</ele>
        <time>2019-04-23T13:47:54.000Z</time>
      </trkpt>
      <trkpt lat="49.47448" lon="-1.58634">
        <ele>76.4</ele>
        <time>2019-04-23T13:47:55.000Z</time>
      </trkpt>
      <trkpt lat="49.47448" lon="-1.58634">
        <ele>76.4</ele>
        <time>2019-04-23T13:47:56.000Z</time>
      </trkpt>
      <trkpt lat="49.47447" lon="-1.58634">
        <ele>76.3</ele>
        <time>2019-04-23T13:47:57.000Z</time>
      </trkpt>
      <trkpt lat="49.47447" lon="-1.58634">
        <ele>76.3</ele>
        <time>2019-04-23T13:47:58.000Z</time>
      </trkpt>
      <trkpt lat="49.47446" lon="-1.58634">
        <ele>76.3</ele>
        <time>2019-04-23T13:47:59.000Z</time>
      </trkpt>
      <trkpt lat="49.47446" lon="-1.58634">
        <ele>76.3</ele>
        <time>2019-04-23T13:48:00.000Z</time>
      </trkpt>
      <trkpt lat="49.47446" lon="-1.58634">
        <ele>76.3</ele>
        <time>2019-04-23T13:48:01.000Z</time>
      </trkpt>
      <trkpt lat="49.47446" lon="-1.58634">
        <ele>76.3</ele>
        <time>2019-04-23T13:48:02.000Z</time>
      </trkpt>
      <trkpt lat="49.47446" lon="-1.58634">
        <ele>76.3</ele>
        <time>2019-04-23T13:48:03.000Z</time>
      </trkpt>
      <trkpt lat="49.47446" lon="-1.58634">
        <ele>76.3</ele>
        <time>2019-04-23T13:48:04.000Z</time>
      </trkpt>
      <trkpt lat="49.47446" lon="-1.58634">
        <ele>76.3</ele>
        <time>2019-04-23T13:48:05.000Z</time>
      </trkpt>
      <trkpt lat="49.47446" lon="-1.58634">
        <ele>76.3</ele>
        <time>2019-04-23T13:48:06.000Z</time>
      </trkpt>
      <trkpt lat="49.47446" lon="-1.58634">
        <ele>76.3</ele>
        <time>2019-04-23T13:48:07.000Z</time>
      </trkpt>
      <trkpt lat="49.47446" lon="-1.58634">
        <ele>76.3</ele>
        <time>2019-04-23T13:48:08.000Z</time>
      </trkpt>
      <trkpt lat="49.47446" lon="-1.58634">
        <ele>76.3</ele>
        <time>2019-04-23T13:48:09.000Z</time>
      </trkpt>
      <trkpt lat="49.47446" lon="-1.58634">
        <ele>76.3</ele>
        <time>2019-04-23T13:48:10.000Z</time>
      </trkpt>
      <trkpt lat="49.47446" lon="-1.58634">
        <ele>76.3</ele>
        <time>2019-04-23T13:48:11.000Z</time>
      </trkpt>
      <trkpt lat="49.47446" lon="-1.58635">
        <ele>76.3</ele>
        <time>2019-04-23T13:48:12.000Z</time>
      </trkpt>
      <trkpt lat="49.47446" lon="-1.58635">
        <ele>76.3</ele>
        <time>2019-04-23T13:48:13.000Z</time>
      </trkpt>
      <trkpt lat="49.47446" lon="-1.58635">
        <ele>76.3</ele>
        <time>2019-04-23T13:48:14.000Z</time>
      </trkpt>
      <trkpt lat="49.47446" lon="-1.58635">
        <ele>76.3</ele>
        <time>2019-04-23T13:48:15.000Z</time>
      </trkpt>
      <trkpt lat="49.47446" lon="-1.58635">
        <ele>76.3</ele>
        <time>2019-04-23T13:48:16.000Z</time>
      </trkpt>
      <trkpt lat="49.47447" lon="-1.58635">
        <ele>76.3</ele>
        <time>2019-04-23T13:48:17.000Z</time>
      </trkpt>
      <trkpt lat="49.47447" lon="-1.58635">
        <ele>76.3</ele>
        <time>2019-04-23T13:48:18.000Z</time>
      </trkpt>
      <trkpt lat="49.47447" lon="-1.58635">
        <ele>76.3</ele>
        <time>2019-04-23T13:48:19.000Z</time>
      </trkpt>
      <trkpt lat="49.47447" lon="-1.58635">
        <ele>76.3</ele>
        <time>2019-04-23T13:48:20.000Z</time>
      </trkpt>
      <trkpt lat="49.47447" lon="-1.58635">
        <ele>76.3</ele>
        <time>2019-04-23T13:48:21.000Z</time>
      </trkpt>
      <trkpt lat="49.47447" lon="-1.58635">
        <ele>76.3</ele>
        <time>2019-04-23T13:48:22.000Z</time>
      </trkpt>
      <trkpt lat="49.47447" lon="-1.58635">
        <ele>76.3</ele>
        <time>2019-04-23T13:48:23.000Z</time>
      </trkpt>
      <trkpt lat="49.47447" lon="-1.58635">
        <ele>76.3</ele>
        <time>2019-04-23T13:48:24.000Z</time>
      </trkpt>
      <trkpt lat="49.47447" lon="-1.58635">
        <ele>76.3</ele>
        <time>2019-04-23T13:48:25.000Z</time>
      </trkpt>
      <trkpt lat="49.47447" lon="-1.58635">
        <ele>76.3</ele>
        <time>2019-04-23T13:48:26.000Z</time>
      </trkpt>
      <trkpt lat="49.47447" lon="-1.58635">
        <ele>76.3</ele>
        <time>2019-04-23T13:48:27.000Z</time>
      </trkpt>
      <trkpt lat="49.47447" lon="-1.58635">
        <ele>76.3</ele>
        <time>2019-04-23T13:48:28.000Z</time>
      </trkpt>
      <trkpt lat="49.47447" lon="-1.58635">
        <ele>76.3</ele>
        <time>2019-04-23T13:48:29.000Z</time>
      </trkpt>
      <trkpt lat="49.47447" lon="-1.58635">
        <ele>76.3</ele>
        <time>2019-04-23T13:48:30.000Z</time>
      </trkpt>
      <trkpt lat="49.47447" lon="-1.58635">
        <ele>76.3</ele>
        <time>2019-04-23T13:48:31.000Z</time>
      </trkpt>
      <trkpt lat="49.47447" lon="-1.58635">
        <ele>76.3</ele>
        <time>2019-04-23T13:48:32.000Z</time>
      </trkpt>
      <trkpt lat="49.47447" lon="-1.58635">
        <ele>76.3</ele>
        <time>2019-04-23T13:48:33.000Z</time>
      </trkpt>
      <trkpt lat="49.47447" lon="-1.58635">
        <ele>76.3</ele>
        <time>2019-04-23T13:48:34.000Z</time>
      </trkpt>
      <trkpt lat="49.47447" lon="-1.58635">
        <ele>76.3</ele>
        <time>2019-04-23T13:48:35.000Z</time>
      </trkpt>
      <trkpt lat="49.47447" lon="-1.58635">
        <ele>76.3</ele>
        <time>2019-04-23T13:48:36.000Z</time>
      </trkpt>
      <trkpt lat="49.47447" lon="-1.58635">
        <ele>76.3</ele>
        <time>2019-04-23T13:48:37.000Z</time>
      </trkpt>
      <trkpt lat="49.47447" lon="-1.58635">
        <ele>76.3</ele>
        <time>2019-04-23T13:48:38.000Z</time>
      </trkpt>
      <trkpt lat="49.47447" lon="-1.58635">
        <ele>76.3</ele>
        <time>2019-04-23T13:48:39.000Z</time>
      </trkpt>
      <trkpt lat="49.47447" lon="-1.58635">
        <ele>76.3</ele>
        <time>2019-04-23T13:48:40.000Z</time>
      </trkpt>
      <trkpt lat="49.47447" lon="-1.58635">
        <ele>76.3</ele>
        <time>2019-04-23T13:48:41.000Z</time>
      </trkpt>
      <trkpt lat="49.47447" lon="-1.58635">
        <ele>76.3</ele>
        <time>2019-04-23T13:48:42.000Z</time>
      </trkpt>
      <trkpt lat="49.47447" lon="-1.58635">
        <ele>76.3</ele>
        <time>2019-04-23T13:48:43.000Z</time>
      </trkpt>
      <trkpt lat="49.47447" lon="-1.58635">
        <ele>76.3</ele>
        <time>2019-04-23T13:48:44.000Z</time>
      </trkpt>
      <trkpt lat="49.47447" lon="-1.58634">
        <ele>76.3</ele>
        <time>2019-04-23T13:48:45.000Z</time>
      </trkpt>
      <trkpt lat="49.47447" lon="-1.58634">
        <ele>76.3</ele>
        <time>2019-04-23T13:48:46.000Z</time>
      </trkpt>
      <trkpt lat="49.47446" lon="-1.58634">
        <ele>76.3</ele>
        <time>2019-04-23T13:48:47.000Z</time>
      </trkpt>
      <trkpt lat="49.47446" lon="-1.58634">
        <ele>76.3</ele>
        <time>2019-04-23T13:48:48.000Z</time>
      </trkpt>
      <trkpt lat="49.47446" lon="-1.58634">
        <ele>76.3</ele>
        <time>2019-04-23T13:48:49.000Z</time>
      </trkpt>
      <trkpt lat="49.47446" lon="-1.58634">
        <ele>76.3</ele>
        <time>2019-04-23T13:48:50.000Z</time>
      </trkpt>
      <trkpt lat="49.47445" lon="-1.58635">
        <ele>76.3</ele>
        <time>2019-04-23T13:48:51.000Z</time>
      </trkpt>
      <trkpt lat="49.47446" lon="-1.58635">
        <ele>76.3</ele>
        <time>2019-04-23T13:48:52.000Z</time>
      </trkpt>
      <trkpt lat="49.47446" lon="-1.58635">
        <ele>76.3</ele>
        <time>2019-04-23T13:48:53.000Z</time>
      </trkpt>
      <trkpt lat="49.47446" lon="-1.58635">
        <ele>76.3</ele>
        <time>2019-04-23T13:48:54.000Z</time>
      </trkpt>
      <trkpt lat="49.47446" lon="-1.58635">
        <ele>76.3</ele>
        <time>2019-04-23T13:48:55.000Z</time>
      </trkpt>
      <trkpt lat="49.47446" lon="-1.58634">
        <ele>76.3</ele>
        <time>2019-04-23T13:48:56.000Z</time>
      </trkpt>
      <trkpt lat="49.47445" lon="-1.58634">
        <ele>76.3</ele>
        <time>2019-04-23T13:48:57.000Z</time>
      </trkpt>
      <trkpt lat="49.47445" lon="-1.58633">
        <ele>76.3</ele>
        <time>2019-04-23T13:48:58.000Z</time>
      </trkpt>
      <trkpt lat="49.47445" lon="-1.58633">
        <ele>76.3</ele>
        <time>2019-04-23T13:48:59.000Z</time>
      </trkpt>
      <trkpt lat="49.47444" lon="-1.58632">
        <ele>76.3</ele>
        <time>2019-04-23T13:49:00.000Z</time>
      </trkpt>
      <trkpt lat="49.47443" lon="-1.58631">
        <ele>76.3</ele>
        <time>2019-04-23T13:49:01.000Z</time>
      </trkpt>
      <trkpt lat="49.47443" lon="-1.5863">
        <ele>76.2</ele>
        <time>2019-04-23T13:49:02.000Z</time>
      </trkpt>
      <trkpt lat="49.47442" lon="-1.58629">
        <ele>76.2</ele>
        <time>2019-04-23T13:49:03.000Z</time>
      </trkpt>
      <trkpt lat="49.47441" lon="-1.58628">
        <ele>76.2</ele>
        <time>2019-04-23T13:49:04.000Z</time>
      </trkpt>
      <trkpt lat="49.4744" lon="-1.58627">
        <ele>76.2</ele>
        <time>2019-04-23T13:49:05.000Z</time>
      </trkpt>
      <trkpt lat="49.47439" lon="-1.58626">
        <ele>76.2</ele>
        <time>2019-04-23T13:49:06.000Z</time>
      </trkpt>
      <trkpt lat="49.47438" lon="-1.58626">
        <ele>76.1</ele>
        <time>2019-04-23T13:49:07.000Z</time>
      </trkpt>
      <trkpt lat="49.47437" lon="-1.58625">
        <ele>76.1</ele>
        <time>2019-04-23T13:49:08.000Z</time>
      </trkpt>
      <trkpt lat="49.47436" lon="-1.58624">
        <ele>76.1</ele>
        <time>2019-04-23T13:49:09.000Z</time>
      </trkpt>
      <trkpt lat="49.47435" lon="-1.58624">
        <ele>76.1</ele>
        <time>2019-04-23T13:49:10.000Z</time>
      </trkpt>
      <trkpt lat="49.47435" lon="-1.58624">
        <ele>76</ele>
        <time>2019-04-23T13:49:11.000Z</time>
      </trkpt>
      <trkpt lat="49.47434" lon="-1.58624">
        <ele>76</ele>
        <time>2019-04-23T13:49:12.000Z</time>
      </trkpt>
      <trkpt lat="49.47433" lon="-1.58624">
        <ele>76</ele>
        <time>2019-04-23T13:49:13.000Z</time>
      </trkpt>
      <trkpt lat="49.47433" lon="-1.58624">
        <ele>76</ele>
        <time>2019-04-23T13:49:14.000Z</time>
      </trkpt>
      <trkpt lat="49.47433" lon="-1.58624">
        <ele>76</ele>
        <time>2019-04-23T13:49:15.000Z</time>
      </trkpt>
      <trkpt lat="49.47432" lon="-1.58624">
        <ele>76</ele>
        <time>2019-04-23T13:49:16.000Z</time>
      </trkpt>
      <trkpt lat="49.47432" lon="-1.58624">
        <ele>76</ele>
        <time>2019-04-23T13:49:17.000Z</time>
      </trkpt>
      <trkpt lat="49.47432" lon="-1.58624">
        <ele>76</ele>
        <time>2019-04-23T13:49:18.000Z</time>
      </trkpt>
      <trkpt lat="49.47432" lon="-1.58624">
        <ele>76</ele>
        <time>2019-04-23T13:49:19.000Z</time>
      </trkpt>
      <trkpt lat="49.47432" lon="-1.58624">
        <ele>76</ele>
        <time>2019-04-23T13:49:20.000Z</time>
      </trkpt>
      <trkpt lat="49.47432" lon="-1.58624">
        <ele>76</ele>
        <time>2019-04-23T13:49:21.000Z</time>
      </trkpt>
      <trkpt lat="49.47432" lon="-1.58624">
        <ele>76</ele>
        <time>2019-04-23T13:49:22.000Z</time>
      </trkpt>
      <trkpt lat="49.47432" lon="-1.58624">
        <ele>76</ele>
        <time>2019-04-23T13:49:23.000Z</time>
      </trkpt>
      <trkpt lat="49.47432" lon="-1.58623">
        <ele>76</ele>
        <time>2019-04-23T13:49:24.000Z</time>
      </trkpt>
      <trkpt lat="49.47432" lon="-1.58623">
        <ele>76</ele>
        <time>2019-04-23T13:49:25.000Z</time>
      </trkpt>
      <trkpt lat="49.47432" lon="-1.58623">
        <ele>76</ele>
        <time>2019-04-23T13:49:26.000Z</time>
      </trkpt>
      <trkpt lat="49.47432" lon="-1.58623">
        <ele>76</ele>
        <time>2019-04-23T13:49:27.000Z</time>
      </trkpt>
      <trkpt lat="49.47431" lon="-1.58623">
        <ele>76</ele>
        <time>2019-04-23T13:49:28.000Z</time>
      </trkpt>
      <trkpt lat="49.47431" lon="-1.58623">
        <ele>76</ele>
        <time>2019-04-23T13:49:29.000Z</time>
      </trkpt>
      <trkpt lat="49.47431" lon="-1.58623">
        <ele>75.9</ele>
        <time>2019-04-23T13:49:30.000Z</time>
      </trkpt>
      <trkpt lat="49.4743" lon="-1.58622">
        <ele>75.9</ele>
        <time>2019-04-23T13:49:31.000Z</time>
      </trkpt>
      <trkpt lat="49.4743" lon="-1.58622">
        <ele>75.9</ele>
        <time>2019-04-23T13:49:32.000Z</time>
      </trkpt>
      <trkpt lat="49.47429" lon="-1.58622">
        <ele>75.9</ele>
        <time>2019-04-23T13:49:33.000Z</time>
      </trkpt>
      <trkpt lat="49.47428" lon="-1.58622">
        <ele>75.9</ele>
        <time>2019-04-23T13:49:34.000Z</time>
      </trkpt>
      <trkpt lat="49.47427" lon="-1.58621">
        <ele>75.9</ele>
        <time>2019-04-23T13:49:35.000Z</time>
      </trkpt>
      <trkpt lat="49.47427" lon="-1.58621">
        <ele>75.8</ele>
        <time>2019-04-23T13:49:36.000Z</time>
      </trkpt>
      <trkpt lat="49.47426" lon="-1.58621">
        <ele>75.8</ele>
        <time>2019-04-23T13:49:37.000Z</time>
      </trkpt>
      <trkpt lat="49.47425" lon="-1.5862">
        <ele>75.8</ele>
        <time>2019-04-23T13:49:38.000Z</time>
      </trkpt>
      <trkpt lat="49.47423" lon="-1.5862">
        <ele>75.8</ele>
        <time>2019-04-23T13:49:39.000Z</time>
      </trkpt>
      <trkpt lat="49.47422" lon="-1.58619">
        <ele>75.7</ele>
        <time>2019-04-23T13:49:40.000Z</time>
      </trkpt>
      <trkpt lat="49.47421" lon="-1.58619">
        <ele>75.7</ele>
        <time>2019-04-23T13:49:41.000Z</time>
      </trkpt>
      <trkpt lat="49.4742" lon="-1.58618">
        <ele>75.7</ele>
        <time>2019-04-23T13:49:42.000Z</time>
      </trkpt>
      <trkpt lat="49.47418" lon="-1.58618">
        <ele>75.6</ele>
        <time>2019-04-23T13:49:43.000Z</time>
      </trkpt>
      <trkpt lat="49.47417" lon="-1.58617">
        <ele>75.6</ele>
        <time>2019-04-23T13:49:44.000Z</time>
      </trkpt>
      <trkpt lat="49.47416" lon="-1.58617">
        <ele>75.6</ele>
        <time>2019-04-23T13:49:45.000Z</time>
      </trkpt>
      <trkpt lat="49.47414" lon="-1.58617">
        <ele>75.5</ele>
        <time>2019-04-23T13:49:46.000Z</time>
      </trkpt>
      <trkpt lat="49.47413" lon="-1.58616">
        <ele>75.4</ele>
        <time>2019-04-23T13:49:47.000Z</time>
      </trkpt>
      <trkpt lat="49.47412" lon="-1.58616">
        <ele>75.4</ele>
        <time>2019-04-23T13:49:48.000Z</time>
      </trkpt>
      <trkpt lat="49.4741" lon="-1.58615">
        <ele>75.3</ele>
        <time>2019-04-23T13:49:49.000Z</time>
      </trkpt>
      <trkpt lat="49.47409" lon="-1.58615">
        <ele>75.3</ele>
        <time>2019-04-23T13:49:50.000Z</time>
      </trkpt>
      <trkpt lat="49.47407" lon="-1.58614">
        <ele>75.2</ele>
        <time>2019-04-23T13:49:51.000Z</time>
      </trkpt>
      <trkpt lat="49.47406" lon="-1.58614">
        <ele>75.2</ele>
        <time>2019-04-23T13:49:52.000Z</time>
      </trkpt>
      <trkpt lat="49.47404" lon="-1.58614">
        <ele>75.1</ele>
        <time>2019-04-23T13:49:53.000Z</time>
      </trkpt>
      <trkpt lat="49.47403" lon="-1.58613">
        <ele>75</ele>
        <time>2019-04-23T13:49:54.000Z</time>
      </trkpt>
      <trkpt lat="49.47402" lon="-1.58613">
        <ele>75</ele>
        <time>2019-04-23T13:49:55.000Z</time>
      </trkpt>
      <trkpt lat="49.474" lon="-1.58613">
        <ele>74.9</ele>
        <time>2019-04-23T13:49:56.000Z</time>
      </trkpt>
      <trkpt lat="49.47399" lon="-1.58612">
        <ele>74.9</ele>
        <time>2019-04-23T13:49:57.000Z</time>
      </trkpt>
      <trkpt lat="49.47397" lon="-1.58612">
        <ele>74.8</ele>
        <time>2019-04-23T13:49:58.000Z</time>
      </trkpt>
      <trkpt lat="49.47396" lon="-1.58612">
        <ele>74.8</ele>
        <time>2019-04-23T13:49:59.000Z</time>
      </trkpt>
      <trkpt lat="49.47395" lon="-1.58611">
        <ele>74.7</ele>
        <time>2019-04-23T13:50:00.000Z</time>
      </trkpt>
      <trkpt lat="49.47393" lon="-1.58611">
        <ele>74.6</ele>
        <time>2019-04-23T13:50:01.000Z</time>
      </trkpt>
      <trkpt lat="49.47392" lon="-1.58611">
        <ele>74.6</ele>
        <time>2019-04-23T13:50:02.000Z</time>
      </trkpt>
      <trkpt lat="49.47391" lon="-1.5861">
        <ele>74.5</ele>
        <time>2019-04-23T13:50:03.000Z</time>
      </trkpt>
      <trkpt lat="49.47389" lon="-1.5861">
        <ele>74.5</ele>
        <time>2019-04-23T13:50:04.000Z</time>
      </trkpt>
      <trkpt lat="49.47388" lon="-1.58609">
        <ele>74.4</ele>
        <time>2019-04-23T13:50:05.000Z</time>
      </trkpt>
      <trkpt lat="49.47387" lon="-1.58609">
        <ele>74.4</ele>
        <time>2019-04-23T13:50:06.000Z</time>
      </trkpt>
      <trkpt lat="49.47385" lon="-1.58608">
        <ele>74.3</ele>
        <time>2019-04-23T13:50:07.000Z</time>
      </trkpt>
      <trkpt lat="49.47384" lon="-1.58608">
        <ele>74.3</ele>
        <time>2019-04-23T13:50:08.000Z</time>
      </trkpt>
      <trkpt lat="49.47383" lon="-1.58607">
        <ele>74.2</ele>
        <time>2019-04-23T13:50:09.000Z</time>
      </trkpt>
      <trkpt lat="49.47381" lon="-1.58607">
        <ele>74.1</ele>
        <time>2019-04-23T13:50:10.000Z</time>
      </trkpt>
      <trkpt lat="49.4738" lon="-1.58606">
        <ele>74.1</ele>
        <time>2019-04-23T13:50:11.000Z</time>
      </trkpt>
      <trkpt lat="49.47379" lon="-1.58605">
        <ele>74</ele>
        <time>2019-04-23T13:50:12.000Z</time>
      </trkpt>
      <trkpt lat="49.47378" lon="-1.58605">
        <ele>74</ele>
        <time>2019-04-23T13:50:13.000Z</time>
      </trkpt>
      <trkpt lat="49.47376" lon="-1.58604">
        <ele>73.9</ele>
        <time>2019-04-23T13:50:14.000Z</time>
      </trkpt>
      <trkpt lat="49.47375" lon="-1.58603">
        <ele>73.9</ele>
        <time>2019-04-23T13:50:15.000Z</time>
      </trkpt>
      <trkpt lat="49.47374" lon="-1.58603">
        <ele>73.8</ele>
        <time>2019-04-23T13:50:16.000Z</time>
      </trkpt>
      <trkpt lat="49.47373" lon="-1.58602">
        <ele>73.8</ele>
        <time>2019-04-23T13:50:17.000Z</time>
      </trkpt>
      <trkpt lat="49.47372" lon="-1.58602">
        <ele>73.7</ele>
        <time>2019-04-23T13:50:18.000Z</time>
      </trkpt>
      <trkpt lat="49.47371" lon="-1.58601">
        <ele>73.7</ele>
        <time>2019-04-23T13:50:19.000Z</time>
      </trkpt>
      <trkpt lat="49.4737" lon="-1.586">
        <ele>73.6</ele>
        <time>2019-04-23T13:50:20.000Z</time>
      </trkpt>
      <trkpt lat="49.47369" lon="-1.586">
        <ele>73.6</ele>
        <time>2019-04-23T13:50:21.000Z</time>
      </trkpt>
      <trkpt lat="49.47368" lon="-1.58599">
        <ele>73.6</ele>
        <time>2019-04-23T13:50:22.000Z</time>
      </trkpt>
      <trkpt lat="49.47366" lon="-1.58599">
        <ele>73.5</ele>
        <time>2019-04-23T13:50:23.000Z</time>
      </trkpt>
      <trkpt lat="49.47366" lon="-1.58598">
        <ele>73.5</ele>
        <time>2019-04-23T13:50:24.000Z</time>
      </trkpt>
      <trkpt lat="49.47365" lon="-1.58598">
        <ele>73.4</ele>
        <time>2019-04-23T13:50:25.000Z</time>
      </trkpt>
      <trkpt lat="49.47364" lon="-1.58597">
        <ele>73.4</ele>
        <time>2019-04-23T13:50:26.000Z</time>
      </trkpt>
      <trkpt lat="49.47363" lon="-1.58596">
        <ele>73.3</ele>
        <time>2019-04-23T13:50:27.000Z</time>
      </trkpt>
      <trkpt lat="49.47362" lon="-1.58596">
        <ele>73.3</ele>
        <time>2019-04-23T13:50:28.000Z</time>
      </trkpt>
      <trkpt lat="49.47361" lon="-1.58595">
        <ele>73.3</ele>
        <time>2019-04-23T13:50:29.000Z</time>
      </trkpt>
      <trkpt lat="49.4736" lon="-1.58595">
        <ele>73.2</ele>
        <time>2019-04-23T13:50:30.000Z</time>
      </trkpt>
      <trkpt lat="49.47359" lon="-1.58594">
        <ele>73.2</ele>
        <time>2019-04-23T13:50:31.000Z</time>
      </trkpt>
      <trkpt lat="49.47358" lon="-1.58593">
        <ele>73.1</ele>
        <time>2019-04-23T13:50:32.000Z</time>
      </trkpt>
      <trkpt lat="49.47357" lon="-1.58593">
        <ele>73.1</ele>
        <time>2019-04-23T13:50:33.000Z</time>
      </trkpt>
      <trkpt lat="49.47356" lon="-1.58592">
        <ele>73.1</ele>
        <time>2019-04-23T13:50:34.000Z</time>
      </trkpt>
      <trkpt lat="49.47355" lon="-1.58591">
        <ele>73</ele>
        <time>2019-04-23T13:50:35.000Z</time>
      </trkpt>
      <trkpt lat="49.47354" lon="-1.58591">
        <ele>73</ele>
        <time>2019-04-23T13:50:36.000Z</time>
      </trkpt>
      <trkpt lat="49.47353" lon="-1.5859">
        <ele>72.9</ele>
        <time>2019-04-23T13:50:37.000Z</time>
      </trkpt>
      <trkpt lat="49.47352" lon="-1.58589">
        <ele>72.9</ele>
        <time>2019-04-23T13:50:38.000Z</time>
      </trkpt>
      <trkpt lat="49.47351" lon="-1.58588">
        <ele>72.8</ele>
        <time>2019-04-23T13:50:39.000Z</time>
      </trkpt>
      <trkpt lat="49.4735" lon="-1.58588">
        <ele>72.8</ele>
        <time>2019-04-23T13:50:40.000Z</time>
      </trkpt>
      <trkpt lat="49.47349" lon="-1.58587">
        <ele>72.7</ele>
        <time>2019-04-23T13:50:41.000Z</time>
      </trkpt>
      <trkpt lat="49.47348" lon="-1.58586">
        <ele>72.7</ele>
        <time>2019-04-23T13:50:42.000Z</time>
      </trkpt>
      <trkpt lat="49.47347" lon="-1.58586">
        <ele>72.6</ele>
        <time>2019-04-23T13:50:43.000Z</time>
      </trkpt>
      <trkpt lat="49.47345" lon="-1.58585">
        <ele>72.6</ele>
        <time>2019-04-23T13:50:44.000Z</time>
      </trkpt>
      <trkpt lat="49.47344" lon="-1.58584">
        <ele>72.5</ele>
        <time>2019-04-23T13:50:45.000Z</time>
      </trkpt>
      <trkpt lat="49.47343" lon="-1.58584">
        <ele>72.5</ele>
        <time>2019-04-23T13:50:46.000Z</time>
      </trkpt>
      <trkpt lat="49.47342" lon="-1.58583">
        <ele>72.4</ele>
        <time>2019-04-23T13:50:47.000Z</time>
      </trkpt>
      <trkpt lat="49.47341" lon="-1.58582">
        <ele>72.3</ele>
        <time>2019-04-23T13:50:48.000Z</time>
      </trkpt>
      <trkpt lat="49.47339" lon="-1.58581">
        <ele>72.3</ele>
        <time>2019-04-23T13:50:49.000Z</time>
      </trkpt>
      <trkpt lat="49.47338" lon="-1.58581">
        <ele>72.2</ele>
        <time>2019-04-23T13:50:50.000Z</time>
      </trkpt>
      <trkpt lat="49.47337" lon="-1.5858">
        <ele>72.1</ele>
        <time>2019-04-23T13:50:51.000Z</time>
      </trkpt>
      <trkpt lat="49.47335" lon="-1.58579">
        <ele>72</ele>
        <time>2019-04-23T13:50:52.000Z</time>
      </trkpt>
      <trkpt lat="49.47334" lon="-1.58579">
        <ele>72</ele>
        <time>2019-04-23T13:50:53.000Z</time>
      </trkpt>
      <trkpt lat="49.47333" lon="-1.58578">
        <ele>71.9</ele>
        <time>2019-04-23T13:50:54.000Z</time>
      </trkpt>
      <trkpt lat="49.47332" lon="-1.58577">
        <ele>71.8</ele>
        <time>2019-04-23T13:50:55.000Z</time>
      </trkpt>
      <trkpt lat="49.4733" lon="-1.58576">
        <ele>71.6</ele>
        <time>2019-04-23T13:50:56.000Z</time>
      </trkpt>
      <trkpt lat="49.47329" lon="-1.58576">
        <ele>71.5</ele>
        <time>2019-04-23T13:50:57.000Z</time>
      </trkpt>
      <trkpt lat="49.47328" lon="-1.58575">
        <ele>71.4</ele>
        <time>2019-04-23T13:50:58.000Z</time>
      </trkpt>
      <trkpt lat="49.47326" lon="-1.58574">
        <ele>71.2</ele>
        <time>2019-04-23T13:50:59.000Z</time>
      </trkpt>
      <trkpt lat="49.47325" lon="-1.58574">
        <ele>71.1</ele>
        <time>2019-04-23T13:51:00.000Z</time>
      </trkpt>
      <trkpt lat="49.47324" lon="-1.58573">
        <ele>71</ele>
        <time>2019-04-23T13:51:01.000Z</time>
      </trkpt>
      <trkpt lat="49.47323" lon="-1.58572">
        <ele>70.9</ele>
        <time>2019-04-23T13:51:02.000Z</time>
      </trkpt>
      <trkpt lat="49.47321" lon="-1.58572">
        <ele>70.8</ele>
        <time>2019-04-23T13:51:03.000Z</time>
      </trkpt>
      <trkpt lat="49.4732" lon="-1.58571">
        <ele>70.6</ele>
        <time>2019-04-23T13:51:04.000Z</time>
      </trkpt>
      <trkpt lat="49.47319" lon="-1.5857">
        <ele>70.5</ele>
        <time>2019-04-23T13:51:05.000Z</time>
      </trkpt>
      <trkpt lat="49.47318" lon="-1.58569">
        <ele>70.4</ele>
        <time>2019-04-23T13:51:06.000Z</time>
      </trkpt>
      <trkpt lat="49.47317" lon="-1.58569">
        <ele>70.3</ele>
        <time>2019-04-23T13:51:07.000Z</time>
      </trkpt>
      <trkpt lat="49.47315" lon="-1.58568">
        <ele>70.2</ele>
        <time>2019-04-23T13:51:08.000Z</time>
      </trkpt>
      <trkpt lat="49.47314" lon="-1.58567">
        <ele>70.1</ele>
        <time>2019-04-23T13:51:09.000Z</time>
      </trkpt>
      <trkpt lat="49.47313" lon="-1.58567">
        <ele>69.9</ele>
        <time>2019-04-23T13:51:10.000Z</time>
      </trkpt>
      <trkpt lat="49.47312" lon="-1.58566">
        <ele>69.8</ele>
        <time>2019-04-23T13:51:11.000Z</time>
      </trkpt>
      <trkpt lat="49.47311" lon="-1.58565">
        <ele>69.7</ele>
        <time>2019-04-23T13:51:12.000Z</time>
      </trkpt>
      <trkpt lat="49.47309" lon="-1.58565">
        <ele>69.6</ele>
        <time>2019-04-23T13:51:13.000Z</time>
      </trkpt>
      <trkpt lat="49.47308" lon="-1.58564">
        <ele>69.5</ele>
        <time>2019-04-23T13:51:14.000Z</time>
      </trkpt>
      <trkpt lat="49.47307" lon="-1.58563">
        <ele>69.4</ele>
        <time>2019-04-23T13:51:15.000Z</time>
      </trkpt>
      <trkpt lat="49.47306" lon="-1.58563">
        <ele>69.3</ele>
        <time>2019-04-23T13:51:16.000Z</time>
      </trkpt>
      <trkpt lat="49.47305" lon="-1.58562">
        <ele>69.2</ele>
        <time>2019-04-23T13:51:17.000Z</time>
      </trkpt>
      <trkpt lat="49.47304" lon="-1.58561">
        <ele>69.1</ele>
        <time>2019-04-23T13:51:18.000Z</time>
      </trkpt>
      <trkpt lat="49.47302" lon="-1.58561">
        <ele>69</ele>
        <time>2019-04-23T13:51:19.000Z</time>
      </trkpt>
      <trkpt lat="49.47301" lon="-1.5856">
        <ele>68.9</ele>
        <time>2019-04-23T13:51:20.000Z</time>
      </trkpt>
      <trkpt lat="49.473" lon="-1.58559">
        <ele>68.7</ele>
        <time>2019-04-23T13:51:21.000Z</time>
      </trkpt>
      <trkpt lat="49.47299" lon="-1.58559">
        <ele>68.6</ele>
        <time>2019-04-23T13:51:22.000Z</time>
      </trkpt>
      <trkpt lat="49.47298" lon="-1.58558">
        <ele>68.5</ele>
        <time>2019-04-23T13:51:23.000Z</time>
      </trkpt>
      <trkpt lat="49.47297" lon="-1.58558">
        <ele>68.4</ele>
        <time>2019-04-23T13:51:24.000Z</time>
      </trkpt>
      <trkpt lat="49.47295" lon="-1.58557">
        <ele>68.3</ele>
        <time>2019-04-23T13:51:25.000Z</time>
      </trkpt>
      <trkpt lat="49.47294" lon="-1.58556">
        <ele>68.2</ele>
        <time>2019-04-23T13:51:26.000Z</time>
      </trkpt>
      <trkpt lat="49.47293" lon="-1.58556">
        <ele>68.1</ele>
        <time>2019-04-23T13:51:27.000Z</time>
      </trkpt>
      <trkpt lat="49.47292" lon="-1.58555">
        <ele>68</ele>
        <time>2019-04-23T13:51:28.000Z</time>
      </trkpt>
      <trkpt lat="49.47291" lon="-1.58554">
        <ele>67.9</ele>
        <time>2019-04-23T13:51:29.000Z</time>
      </trkpt>
      <trkpt lat="49.4729" lon="-1.58554">
        <ele>67.8</ele>
        <time>2019-04-23T13:51:30.000Z</time>
      </trkpt>
      <trkpt lat="49.47288" lon="-1.58553">
        <ele>67.7</ele>
        <time>2019-04-23T13:51:31.000Z</time>
      </trkpt>
      <trkpt lat="49.47287" lon="-1.58552">
        <ele>67.6</ele>
        <time>2019-04-23T13:51:32.000Z</time>
      </trkpt>
      <trkpt lat="49.47286" lon="-1.58552">
        <ele>67.5</ele>
        <time>2019-04-23T13:51:33.000Z</time>
      </trkpt>
      <trkpt lat="49.47285" lon="-1.58551">
        <ele>67.4</ele>
        <time>2019-04-23T13:51:34.000Z</time>
      </trkpt>
      <trkpt lat="49.47284" lon="-1.5855">
        <ele>67.3</ele>
        <time>2019-04-23T13:51:35.000Z</time>
      </trkpt>
      <trkpt lat="49.47283" lon="-1.5855">
        <ele>67.2</ele>
        <time>2019-04-23T13:51:36.000Z</time>
      </trkpt>
      <trkpt lat="49.47281" lon="-1.58549">
        <ele>67.1</ele>
        <time>2019-04-23T13:51:37.000Z</time>
      </trkpt>
      <trkpt lat="49.4728" lon="-1.58549">
        <ele>67</ele>
        <time>2019-04-23T13:51:38.000Z</time>
      </trkpt>
      <trkpt lat="49.47279" lon="-1.58548">
        <ele>66.9</ele>
        <time>2019-04-23T13:51:39.000Z</time>
      </trkpt>
      <trkpt lat="49.47278" lon="-1.58547">
        <ele>66.8</ele>
        <time>2019-04-23T13:51:40.000Z</time>
      </trkpt>
      <trkpt lat="49.47277" lon="-1.58547">
        <ele>66.7</ele>
        <time>2019-04-23T13:51:41.000Z</time>
      </trkpt>
      <trkpt lat="49.47275" lon="-1.58546">
        <ele>66.6</ele>
        <time>2019-04-23T13:51:42.000Z</time>
      </trkpt>
      <trkpt lat="49.47274" lon="-1.58545">
        <ele>66.5</ele>
        <time>2019-04-23T13:51:43.000Z</time>
      </trkpt>
      <trkpt lat="49.47273" lon="-1.58545">
        <ele>66.4</ele>
        <time>2019-04-23T13:51:44.000Z</time>
      </trkpt>
      <trkpt lat="49.47272" lon="-1.58544">
        <ele>66.3</ele>
        <time>2019-04-23T13:51:45.000Z</time>
      </trkpt>
      <trkpt lat="49.47271" lon="-1.58543">
        <ele>66.2</ele>
        <time>2019-04-23T13:51:46.000Z</time>
      </trkpt>
      <trkpt lat="49.4727" lon="-1.58543">
        <ele>66.2</ele>
        <time>2019-04-23T13:51:47.000Z</time>
      </trkpt>
      <trkpt lat="49.47269" lon="-1.58542">
        <ele>66.1</ele>
        <time>2019-04-23T13:51:48.000Z</time>
      </trkpt>
      <trkpt lat="49.47268" lon="-1.58541">
        <ele>66</ele>
        <time>2019-04-23T13:51:49.000Z</time>
      </trkpt>
      <trkpt lat="49.47266" lon="-1.58541">
        <ele>65.9</ele>
        <time>2019-04-23T13:51:50.000Z</time>
      </trkpt>
      <trkpt lat="49.47265" lon="-1.5854">
        <ele>65.8</ele>
        <time>2019-04-23T13:51:51.000Z</time>
      </trkpt>
      <trkpt lat="49.47264" lon="-1.58539">
        <ele>65.7</ele>
        <time>2019-04-23T13:51:52.000Z</time>
      </trkpt>
      <trkpt lat="49.47262" lon="-1.58538">
        <ele>65.6</ele>
        <time>2019-04-23T13:51:53.000Z</time>
      </trkpt>
      <trkpt lat="49.47261" lon="-1.58538">
        <ele>65.5</ele>
        <time>2019-04-23T13:51:54.000Z</time>
      </trkpt>
      <trkpt lat="49.4726" lon="-1.58537">
        <ele>65.4</ele>
        <time>2019-04-23T13:51:55.000Z</time>
      </trkpt>
      <trkpt lat="49.47258" lon="-1.58536">
        <ele>65.2</ele>
        <time>2019-04-23T13:51:56.000Z</time>
      </trkpt>
      <trkpt lat="49.47257" lon="-1.58535">
        <ele>65.1</ele>
        <time>2019-04-23T13:51:57.000Z</time>
      </trkpt>
      <trkpt lat="49.47255" lon="-1.58535">
        <ele>65</ele>
        <time>2019-04-23T13:51:58.000Z</time>
      </trkpt>
      <trkpt lat="49.47254" lon="-1.58534">
        <ele>64.9</ele>
        <time>2019-04-23T13:51:59.000Z</time>
      </trkpt>
      <trkpt lat="49.47253" lon="-1.58533">
        <ele>64.8</ele>
        <time>2019-04-23T13:52:00.000Z</time>
      </trkpt>
      <trkpt lat="49.47251" lon="-1.58532">
        <ele>64.7</ele>
        <time>2019-04-23T13:52:01.000Z</time>
      </trkpt>
      <trkpt lat="49.4725" lon="-1.58532">
        <ele>64.6</ele>
        <time>2019-04-23T13:52:02.000Z</time>
      </trkpt>
      <trkpt lat="49.47249" lon="-1.58531">
        <ele>64.5</ele>
        <time>2019-04-23T13:52:03.000Z</time>
      </trkpt>
      <trkpt lat="49.47247" lon="-1.5853">
        <ele>64.3</ele>
        <time>2019-04-23T13:52:04.000Z</time>
      </trkpt>
      <trkpt lat="49.47246" lon="-1.5853">
        <ele>64.2</ele>
        <time>2019-04-23T13:52:05.000Z</time>
      </trkpt>
      <trkpt lat="49.47245" lon="-1.58529">
        <ele>64</ele>
        <time>2019-04-23T13:52:06.000Z</time>
      </trkpt>
      <trkpt lat="49.47244" lon="-1.58528">
        <ele>63.9</ele>
        <time>2019-04-23T13:52:07.000Z</time>
      </trkpt>
      <trkpt lat="49.47242" lon="-1.58528">
        <ele>63.8</ele>
        <time>2019-04-23T13:52:08.000Z</time>
      </trkpt>
      <trkpt lat="49.47241" lon="-1.58527">
        <ele>63.6</ele>
        <time>2019-04-23T13:52:09.000Z</time>
      </trkpt>
      <trkpt lat="49.4724" lon="-1.58526">
        <ele>63.5</ele>
        <time>2019-04-23T13:52:10.000Z</time>
      </trkpt>
      <trkpt lat="49.47239" lon="-1.58525">
        <ele>63.4</ele>
        <time>2019-04-23T13:52:11.000Z</time>
      </trkpt>
      <trkpt lat="49.47238" lon="-1.58525">
        <ele>63.2</ele>
        <time>2019-04-23T13:52:12.000Z</time>
      </trkpt>
      <trkpt lat="49.47237" lon="-1.58524">
        <ele>63.1</ele>
        <time>2019-04-23T13:52:13.000Z</time>
      </trkpt>
      <trkpt lat="49.47236" lon="-1.58523">
        <ele>63</ele>
        <time>2019-04-23T13:52:14.000Z</time>
      </trkpt>
      <trkpt lat="49.47234" lon="-1.58522">
        <ele>62.9</ele>
        <time>2019-04-23T13:52:15.000Z</time>
      </trkpt>
      <trkpt lat="49.47233" lon="-1.58521">
        <ele>62.7</ele>
        <time>2019-04-23T13:52:16.000Z</time>
      </trkpt>
      <trkpt lat="49.47232" lon="-1.58521">
        <ele>62.6</ele>
        <time>2019-04-23T13:52:17.000Z</time>
      </trkpt>
      <trkpt lat="49.47231" lon="-1.5852">
        <ele>62.5</ele>
        <time>2019-04-23T13:52:18.000Z</time>
      </trkpt>
      <trkpt lat="49.4723" lon="-1.58519">
        <ele>62.4</ele>
        <time>2019-04-23T13:52:19.000Z</time>
      </trkpt>
      <trkpt lat="49.47229" lon="-1.58518">
        <ele>62.2</ele>
        <time>2019-04-23T13:52:20.000Z</time>
      </trkpt>
      <trkpt lat="49.47228" lon="-1.58517">
        <ele>62.1</ele>
        <time>2019-04-23T13:52:21.000Z</time>
      </trkpt>
      <trkpt lat="49.47227" lon="-1.58517">
        <ele>62</ele>
        <time>2019-04-23T13:52:22.000Z</time>
      </trkpt>
      <trkpt lat="49.47225" lon="-1.58516">
        <ele>61.8</ele>
        <time>2019-04-23T13:52:23.000Z</time>
      </trkpt>
      <trkpt lat="49.47224" lon="-1.58515">
        <ele>61.7</ele>
        <time>2019-04-23T13:52:24.000Z</time>
      </trkpt>
      <trkpt lat="49.47223" lon="-1.58515">
        <ele>61.6</ele>
        <time>2019-04-23T13:52:25.000Z</time>
      </trkpt>
      <trkpt lat="49.47222" lon="-1.58514">
        <ele>61.4</ele>
        <time>2019-04-23T13:52:26.000Z</time>
      </trkpt>
      <trkpt lat="49.47221" lon="-1.58513">
        <ele>61.3</ele>
        <time>2019-04-23T13:52:27.000Z</time>
      </trkpt>
      <trkpt lat="49.47219" lon="-1.58513">
        <ele>61.2</ele>
        <time>2019-04-23T13:52:28.000Z</time>
      </trkpt>
      <trkpt lat="49.47218" lon="-1.58512">
        <ele>61</ele>
        <time>2019-04-23T13:52:29.000Z</time>
      </trkpt>
      <trkpt lat="49.47217" lon="-1.58512">
        <ele>60.9</ele>
        <time>2019-04-23T13:52:30.000Z</time>
      </trkpt>
      <trkpt lat="49.47216" lon="-1.58511">
        <ele>60.8</ele>
        <time>2019-04-23T13:52:31.000Z</time>
      </trkpt>
      <trkpt lat="49.47215" lon="-1.58511">
        <ele>60.6</ele>
        <time>2019-04-23T13:52:32.000Z</time>
      </trkpt>
      <trkpt lat="49.47213" lon="-1.58511">
        <ele>60.5</ele>
        <time>2019-04-23T13:52:33.000Z</time>
      </trkpt>
      <trkpt lat="49.47212" lon="-1.5851">
        <ele>60.3</ele>
        <time>2019-04-23T13:52:34.000Z</time>
      </trkpt>
      <trkpt lat="49.47211" lon="-1.5851">
        <ele>60.2</ele>
        <time>2019-04-23T13:52:35.000Z</time>
      </trkpt>
      <trkpt lat="49.4721" lon="-1.58509">
        <ele>60</ele>
        <time>2019-04-23T13:52:36.000Z</time>
      </trkpt>
      <trkpt lat="49.47208" lon="-1.58509">
        <ele>59.9</ele>
        <time>2019-04-23T13:52:37.000Z</time>
      </trkpt>
      <trkpt lat="49.47207" lon="-1.58508">
        <ele>59.7</ele>
        <time>2019-04-23T13:52:38.000Z</time>
      </trkpt>
      <trkpt lat="49.47206" lon="-1.58508">
        <ele>59.6</ele>
        <time>2019-04-23T13:52:39.000Z</time>
      </trkpt>
      <trkpt lat="49.47205" lon="-1.58507">
        <ele>59.5</ele>
        <time>2019-04-23T13:52:40.000Z</time>
      </trkpt>
      <trkpt lat="49.47203" lon="-1.58507">
        <ele>59.3</ele>
        <time>2019-04-23T13:52:41.000Z</time>
      </trkpt>
      <trkpt lat="49.47202" lon="-1.58506">
        <ele>59.2</ele>
        <time>2019-04-23T13:52:42.000Z</time>
      </trkpt>
      <trkpt lat="49.47201" lon="-1.58506">
        <ele>59</ele>
        <time>2019-04-23T13:52:43.000Z</time>
      </trkpt>
      <trkpt lat="49.47199" lon="-1.58505">
        <ele>58.9</ele>
        <time>2019-04-23T13:52:44.000Z</time>
      </trkpt>
      <trkpt lat="49.47198" lon="-1.58505">
        <ele>58.7</ele>
        <time>2019-04-23T13:52:45.000Z</time>
      </trkpt>
      <trkpt lat="49.47197" lon="-1.58504">
        <ele>58.6</ele>
        <time>2019-04-23T13:52:46.000Z</time>
      </trkpt>
      <trkpt lat="49.47196" lon="-1.58503">
        <ele>58.4</ele>
        <time>2019-04-23T13:52:47.000Z</time>
      </trkpt>
      <trkpt lat="49.47195" lon="-1.58502">
        <ele>58.3</ele>
        <time>2019-04-23T13:52:48.000Z</time>
      </trkpt>
      <trkpt lat="49.47193" lon="-1.58502">
        <ele>58.2</ele>
        <time>2019-04-23T13:52:49.000Z</time>
      </trkpt>
      <trkpt lat="49.47192" lon="-1.58501">
        <ele>58</ele>
        <time>2019-04-23T13:52:50.000Z</time>
      </trkpt>
      <trkpt lat="49.47191" lon="-1.585">
        <ele>57.9</ele>
        <time>2019-04-23T13:52:51.000Z</time>
      </trkpt>
      <trkpt lat="49.4719" lon="-1.58499">
        <ele>57.7</ele>
        <time>2019-04-23T13:52:52.000Z</time>
      </trkpt>
      <trkpt lat="49.47188" lon="-1.58499">
        <ele>57.6</ele>
        <time>2019-04-23T13:52:53.000Z</time>
      </trkpt>
      <trkpt lat="49.47187" lon="-1.58498">
        <ele>57.4</ele>
        <time>2019-04-23T13:52:54.000Z</time>
      </trkpt>
      <trkpt lat="49.47186" lon="-1.58497">
        <ele>57.2</ele>
        <time>2019-04-23T13:52:55.000Z</time>
      </trkpt>
      <trkpt lat="49.47185" lon="-1.58496">
        <ele>57.1</ele>
        <time>2019-04-23T13:52:56.000Z</time>
      </trkpt>
      <trkpt lat="49.47183" lon="-1.58495">
        <ele>56.9</ele>
        <time>2019-04-23T13:52:57.000Z</time>
      </trkpt>
      <trkpt lat="49.47182" lon="-1.58495">
        <ele>56.7</ele>
        <time>2019-04-23T13:52:58.000Z</time>
      </trkpt>
      <trkpt lat="49.47181" lon="-1.58494">
        <ele>56.5</ele>
        <time>2019-04-23T13:52:59.000Z</time>
      </trkpt>
      <trkpt lat="49.4718" lon="-1.58493">
        <ele>56.4</ele>
        <time>2019-04-23T13:53:00.000Z</time>
      </trkpt>
      <trkpt lat="49.47178" lon="-1.58492">
        <ele>56.2</ele>
        <time>2019-04-23T13:53:01.000Z</time>
      </trkpt>
      <trkpt lat="49.47177" lon="-1.58491">
        <ele>56</ele>
        <time>2019-04-23T13:53:02.000Z</time>
      </trkpt>
      <trkpt lat="49.47176" lon="-1.58491">
        <ele>55.9</ele>
        <time>2019-04-23T13:53:03.000Z</time>
      </trkpt>
      <trkpt lat="49.47175" lon="-1.5849">
        <ele>55.7</ele>
        <time>2019-04-23T13:53:04.000Z</time>
      </trkpt>
      <trkpt lat="49.47173" lon="-1.58489">
        <ele>55.5</ele>
        <time>2019-04-23T13:53:05.000Z</time>
      </trkpt>
      <trkpt lat="49.47172" lon="-1.58488">
        <ele>55.4</ele>
        <time>2019-04-23T13:53:06.000Z</time>
      </trkpt>
      <trkpt lat="49.47171" lon="-1.58488">
        <ele>55.2</ele>
        <time>2019-04-23T13:53:07.000Z</time>
      </trkpt>
      <trkpt lat="49.4717" lon="-1.58487">
        <ele>55</ele>
        <time>2019-04-23T13:53:08.000Z</time>
      </trkpt>
      <trkpt lat="49.47168" lon="-1.58486">
        <ele>54.9</ele>
        <time>2019-04-23T13:53:09.000Z</time>
      </trkpt>
      <trkpt lat="49.47167" lon="-1.58486">
        <ele>54.7</ele>
        <time>2019-04-23T13:53:10.000Z</time>
      </trkpt>
      <trkpt lat="49.47166" lon="-1.58485">
        <ele>54.6</ele>
        <time>2019-04-23T13:53:11.000Z</time>
      </trkpt>
      <trkpt lat="49.47165" lon="-1.58484">
        <ele>54.5</ele>
        <time>2019-04-23T13:53:12.000Z</time>
      </trkpt>
      <trkpt lat="49.47164" lon="-1.58483">
        <ele>54.3</ele>
        <time>2019-04-23T13:53:13.000Z</time>
      </trkpt>
      <trkpt lat="49.47162" lon="-1.58482">
        <ele>54.2</ele>
        <time>2019-04-23T13:53:14.000Z</time>
      </trkpt>
      <trkpt lat="49.47161" lon="-1.58482">
        <ele>54.1</ele>
        <time>2019-04-23T13:53:15.000Z</time>
      </trkpt>
      <trkpt lat="49.4716" lon="-1.58481">
        <ele>54</ele>
        <time>2019-04-23T13:53:16.000Z</time>
      </trkpt>
      <trkpt lat="49.47159" lon="-1.5848">
        <ele>53.9</ele>
        <time>2019-04-23T13:53:17.000Z</time>
      </trkpt>
      <trkpt lat="49.47158" lon="-1.58479">
        <ele>53.8</ele>
        <time>2019-04-23T13:53:18.000Z</time>
      </trkpt>
      <trkpt lat="49.47156" lon="-1.58478">
        <ele>53.6</ele>
        <time>2019-04-23T13:53:19.000Z</time>
      </trkpt>
      <trkpt lat="49.47155" lon="-1.58477">
        <ele>53.5</ele>
        <time>2019-04-23T13:53:20.000Z</time>
      </trkpt>
      <trkpt lat="49.47154" lon="-1.58477">
        <ele>53.4</ele>
        <time>2019-04-23T13:53:21.000Z</time>
      </trkpt>
      <trkpt lat="49.47153" lon="-1.58476">
        <ele>53.3</ele>
        <time>2019-04-23T13:53:22.000Z</time>
      </trkpt>
      <trkpt lat="49.47152" lon="-1.58475">
        <ele>53.2</ele>
        <time>2019-04-23T13:53:23.000Z</time>
      </trkpt>
      <trkpt lat="49.47151" lon="-1.58474">
        <ele>53.1</ele>
        <time>2019-04-23T13:53:24.000Z</time>
      </trkpt>
      <trkpt lat="49.4715" lon="-1.58474">
        <ele>53</ele>
        <time>2019-04-23T13:53:25.000Z</time>
      </trkpt>
      <trkpt lat="49.47149" lon="-1.58473">
        <ele>52.9</ele>
        <time>2019-04-23T13:53:26.000Z</time>
      </trkpt>
      <trkpt lat="49.47147" lon="-1.58473">
        <ele>52.8</ele>
        <time>2019-04-23T13:53:27.000Z</time>
      </trkpt>
      <trkpt lat="49.47146" lon="-1.58473">
        <ele>52.7</ele>
        <time>2019-04-23T13:53:28.000Z</time>
      </trkpt>
      <trkpt lat="49.47145" lon="-1.58473">
        <ele>52.6</ele>
        <time>2019-04-23T13:53:29.000Z</time>
      </trkpt>
      <trkpt lat="49.47144" lon="-1.58472">
        <ele>52.5</ele>
        <time>2019-04-23T13:53:30.000Z</time>
      </trkpt>
      <trkpt lat="49.47143" lon="-1.58472">
        <ele>52.4</ele>
        <time>2019-04-23T13:53:31.000Z</time>
      </trkpt>
      <trkpt lat="49.47142" lon="-1.58472">
        <ele>52.3</ele>
        <time>2019-04-23T13:53:32.000Z</time>
      </trkpt>
      <trkpt lat="49.4714" lon="-1.58472">
        <ele>52.2</ele>
        <time>2019-04-23T13:53:33.000Z</time>
      </trkpt>
      <trkpt lat="49.47139" lon="-1.58471">
        <ele>52.1</ele>
        <time>2019-04-23T13:53:34.000Z</time>
      </trkpt>
      <trkpt lat="49.47138" lon="-1.58471">
        <ele>52</ele>
        <time>2019-04-23T13:53:35.000Z</time>
      </trkpt>
      <trkpt lat="49.47137" lon="-1.5847">
        <ele>51.9</ele>
        <time>2019-04-23T13:53:36.000Z</time>
      </trkpt>
      <trkpt lat="49.47136" lon="-1.58469">
        <ele>51.8</ele>
        <time>2019-04-23T13:53:37.000Z</time>
      </trkpt>
      <trkpt lat="49.47135" lon="-1.58468">
        <ele>51.7</ele>
        <time>2019-04-23T13:53:38.000Z</time>
      </trkpt>
      <trkpt lat="49.47134" lon="-1.58467">
        <ele>51.6</ele>
        <time>2019-04-23T13:53:39.000Z</time>
      </trkpt>
      <trkpt lat="49.47133" lon="-1.58466">
        <ele>51.5</ele>
        <time>2019-04-23T13:53:40.000Z</time>
      </trkpt>
      <trkpt lat="49.47132" lon="-1.58465">
        <ele>51.4</ele>
        <time>2019-04-23T13:53:41.000Z</time>
      </trkpt>
      <trkpt lat="49.47131" lon="-1.58464">
        <ele>51.3</ele>
        <time>2019-04-23T13:53:42.000Z</time>
      </trkpt>
      <trkpt lat="49.47129" lon="-1.58463">
        <ele>51.2</ele>
        <time>2019-04-23T13:53:43.000Z</time>
      </trkpt>
      <trkpt lat="49.47128" lon="-1.58462">
        <ele>51.1</ele>
        <time>2019-04-23T13:53:44.000Z</time>
      </trkpt>
      <trkpt lat="49.47127" lon="-1.58462">
        <ele>51</ele>
        <time>2019-04-23T13:53:45.000Z</time>
      </trkpt>
      <trkpt lat="49.47126" lon="-1.58461">
        <ele>50.8</ele>
        <time>2019-04-23T13:53:46.000Z</time>
      </trkpt>
      <trkpt lat="49.47124" lon="-1.5846">
        <ele>50.7</ele>
        <time>2019-04-23T13:53:47.000Z</time>
      </trkpt>
      <trkpt lat="49.47123" lon="-1.58459">
        <ele>50.6</ele>
        <time>2019-04-23T13:53:48.000Z</time>
      </trkpt>
      <trkpt lat="49.47122" lon="-1.58459">
        <ele>50.5</ele>
        <time>2019-04-23T13:53:49.000Z</time>
      </trkpt>
      <trkpt lat="49.4712" lon="-1.58458">
        <ele>50.4</ele>
        <time>2019-04-23T13:53:50.000Z</time>
      </trkpt>
      <trkpt lat="49.47119" lon="-1.58457">
        <ele>50.3</ele>
        <time>2019-04-23T13:53:51.000Z</time>
      </trkpt>
      <trkpt lat="49.47118" lon="-1.58457">
        <ele>50.2</ele>
        <time>2019-04-23T13:53:52.000Z</time>
      </trkpt>
      <trkpt lat="49.47116" lon="-1.58456">
        <ele>50</ele>
        <time>2019-04-23T13:53:53.000Z</time>
      </trkpt>
      <trkpt lat="49.47115" lon="-1.58455">
        <ele>49.9</ele>
        <time>2019-04-23T13:53:54.000Z</time>
      </trkpt>
      <trkpt lat="49.47114" lon="-1.58455">
        <ele>49.8</ele>
        <time>2019-04-23T13:53:55.000Z</time>
      </trkpt>
      <trkpt lat="49.47113" lon="-1.58454">
        <ele>49.7</ele>
        <time>2019-04-23T13:53:56.000Z</time>
      </trkpt>
      <trkpt lat="49.47112" lon="-1.58453">
        <ele>49.6</ele>
        <time>2019-04-23T13:53:57.000Z</time>
      </trkpt>
      <trkpt lat="49.4711" lon="-1.58452">
        <ele>49.5</ele>
        <time>2019-04-23T13:53:58.000Z</time>
      </trkpt>
      <trkpt lat="49.47109" lon="-1.58451">
        <ele>49.4</ele>
        <time>2019-04-23T13:53:59.000Z</time>
      </trkpt>
      <trkpt lat="49.47108" lon="-1.58451">
        <ele>49.3</ele>
        <time>2019-04-23T13:54:00.000Z</time>
      </trkpt>
      <trkpt lat="49.47107" lon="-1.5845">
        <ele>49.2</ele>
        <time>2019-04-23T13:54:01.000Z</time>
      </trkpt>
      <trkpt lat="49.47106" lon="-1.58449">
        <ele>49.1</ele>
        <time>2019-04-23T13:54:02.000Z</time>
      </trkpt>
      <trkpt lat="49.47104" lon="-1.58448">
        <ele>49</ele>
        <time>2019-04-23T13:54:03.000Z</time>
      </trkpt>
      <trkpt lat="49.47103" lon="-1.58447">
        <ele>48.9</ele>
        <time>2019-04-23T13:54:04.000Z</time>
      </trkpt>
      <trkpt lat="49.47102" lon="-1.58446">
        <ele>48.8</ele>
        <time>2019-04-23T13:54:05.000Z</time>
      </trkpt>
      <trkpt lat="49.47101" lon="-1.58445">
        <ele>48.7</ele>
        <time>2019-04-23T13:54:06.000Z</time>
      </trkpt>
      <trkpt lat="49.471" lon="-1.58445">
        <ele>48.6</ele>
        <time>2019-04-23T13:54:07.000Z</time>
      </trkpt>
      <trkpt lat="49.47098" lon="-1.58444">
        <ele>48.5</ele>
        <time>2019-04-23T13:54:08.000Z</time>
      </trkpt>
      <trkpt lat="49.47097" lon="-1.58443">
        <ele>48.4</ele>
        <time>2019-04-23T13:54:09.000Z</time>
      </trkpt>
      <trkpt lat="49.47096" lon="-1.58442">
        <ele>48.2</ele>
        <time>2019-04-23T13:54:10.000Z</time>
      </trkpt>
      <trkpt lat="49.47094" lon="-1.58441">
        <ele>48.1</ele>
        <time>2019-04-23T13:54:11.000Z</time>
      </trkpt>
      <trkpt lat="49.47093" lon="-1.58441">
        <ele>48</ele>
        <time>2019-04-23T13:54:12.000Z</time>
      </trkpt>
      <trkpt lat="49.47092" lon="-1.5844">
        <ele>47.9</ele>
        <time>2019-04-23T13:54:13.000Z</time>
      </trkpt>
      <trkpt lat="49.4709" lon="-1.58439">
        <ele>47.8</ele>
        <time>2019-04-23T13:54:14.000Z</time>
      </trkpt>
      <trkpt lat="49.47089" lon="-1.58438">
        <ele>47.7</ele>
        <time>2019-04-23T13:54:15.000Z</time>
      </trkpt>
      <trkpt lat="49.47088" lon="-1.58438">
        <ele>47.6</ele>
        <time>2019-04-23T13:54:16.000Z</time>
      </trkpt>
      <trkpt lat="49.47087" lon="-1.58437">
        <ele>47.5</ele>
        <time>2019-04-23T13:54:17.000Z</time>
      </trkpt>
      <trkpt lat="49.47086" lon="-1.58436">
        <ele>47.4</ele>
        <time>2019-04-23T13:54:18.000Z</time>
      </trkpt>
      <trkpt lat="49.47084" lon="-1.58436">
        <ele>47.3</ele>
        <time>2019-04-23T13:54:19.000Z</time>
      </trkpt>
      <trkpt lat="49.47083" lon="-1.58435">
        <ele>47.2</ele>
        <time>2019-04-23T13:54:20.000Z</time>
      </trkpt>
      <trkpt lat="49.47083" lon="-1.58434">
        <ele>47.2</ele>
        <time>2019-04-23T13:54:21.000Z</time>
      </trkpt>
      <trkpt lat="49.47082" lon="-1.58433">
        <ele>47.2</ele>
        <time>2019-04-23T13:54:22.000Z</time>
      </trkpt>
      <trkpt lat="49.47081" lon="-1.58433">
        <ele>47.1</ele>
        <time>2019-04-23T13:54:23.000Z</time>
      </trkpt>
      <trkpt lat="49.4708" lon="-1.58432">
        <ele>47.1</ele>
        <time>2019-04-23T13:54:24.000Z</time>
      </trkpt>
      <trkpt lat="49.47079" lon="-1.58431">
        <ele>47.1</ele>
        <time>2019-04-23T13:54:25.000Z</time>
      </trkpt>
      <trkpt lat="49.47078" lon="-1.58431">
        <ele>47</ele>
        <time>2019-04-23T13:54:26.000Z</time>
      </trkpt>
      <trkpt lat="49.47077" lon="-1.5843">
        <ele>47</ele>
        <time>2019-04-23T13:54:27.000Z</time>
      </trkpt>
      <trkpt lat="49.47076" lon="-1.58429">
        <ele>46.9</ele>
        <time>2019-04-23T13:54:28.000Z</time>
      </trkpt>
      <trkpt lat="49.47075" lon="-1.58429">
        <ele>46.9</ele>
        <time>2019-04-23T13:54:29.000Z</time>
      </trkpt>
      <trkpt lat="49.47074" lon="-1.58428">
        <ele>46.9</ele>
        <time>2019-04-23T13:54:30.000Z</time>
      </trkpt>
      <trkpt lat="49.47073" lon="-1.58427">
        <ele>46.8</ele>
        <time>2019-04-23T13:54:31.000Z</time>
      </trkpt>
      <trkpt lat="49.47072" lon="-1.58427">
        <ele>46.8</ele>
        <time>2019-04-23T13:54:32.000Z</time>
      </trkpt>
      <trkpt lat="49.47071" lon="-1.58426">
        <ele>46.7</ele>
        <time>2019-04-23T13:54:33.000Z</time>
      </trkpt>
      <trkpt lat="49.47069" lon="-1.58425">
        <ele>46.7</ele>
        <time>2019-04-23T13:54:34.000Z</time>
      </trkpt>
      <trkpt lat="49.47068" lon="-1.58425">
        <ele>46.6</ele>
        <time>2019-04-23T13:54:35.000Z</time>
      </trkpt>
      <trkpt lat="49.47067" lon="-1.58424">
        <ele>46.6</ele>
        <time>2019-04-23T13:54:36.000Z</time>
      </trkpt>
      <trkpt lat="49.47066" lon="-1.58423">
        <ele>46.5</ele>
        <time>2019-04-23T13:54:37.000Z</time>
      </trkpt>
      <trkpt lat="49.47065" lon="-1.58422">
        <ele>46.5</ele>
        <time>2019-04-23T13:54:38.000Z</time>
      </trkpt>
      <trkpt lat="49.47063" lon="-1.58422">
        <ele>46.4</ele>
        <time>2019-04-23T13:54:39.000Z</time>
      </trkpt>
      <trkpt lat="49.47062" lon="-1.58421">
        <ele>46.3</ele>
        <time>2019-04-23T13:54:40.000Z</time>
      </trkpt>
      <trkpt lat="49.47061" lon="-1.5842">
        <ele>46.3</ele>
        <time>2019-04-23T13:54:41.000Z</time>
      </trkpt>
      <trkpt lat="49.4706" lon="-1.5842">
        <ele>46.2</ele>
        <time>2019-04-23T13:54:42.000Z</time>
      </trkpt>
      <trkpt lat="49.47058" lon="-1.58419">
        <ele>46.2</ele>
        <time>2019-04-23T13:54:43.000Z</time>
      </trkpt>
      <trkpt lat="49.47057" lon="-1.58418">
        <ele>46.1</ele>
        <time>2019-04-23T13:54:44.000Z</time>
      </trkpt>
      <trkpt lat="49.47056" lon="-1.58417">
        <ele>46</ele>
        <time>2019-04-23T13:54:45.000Z</time>
      </trkpt>
      <trkpt lat="49.47054" lon="-1.58417">
        <ele>46</ele>
        <time>2019-04-23T13:54:46.000Z</time>
      </trkpt>
      <trkpt lat="49.47053" lon="-1.58416">
        <ele>45.9</ele>
        <time>2019-04-23T13:54:47.000Z</time>
      </trkpt>
      <trkpt lat="49.47052" lon="-1.58415">
        <ele>45.8</ele>
        <time>2019-04-23T13:54:48.000Z</time>
      </trkpt>
      <trkpt lat="49.47051" lon="-1.58414">
        <ele>45.7</ele>
        <time>2019-04-23T13:54:49.000Z</time>
      </trkpt>
      <trkpt lat="49.47049" lon="-1.58414">
        <ele>45.7</ele>
        <time>2019-04-23T13:54:50.000Z</time>
      </trkpt>
      <trkpt lat="49.47048" lon="-1.58413">
        <ele>45.6</ele>
        <time>2019-04-23T13:54:51.000Z</time>
      </trkpt>
      <trkpt lat="49.47047" lon="-1.58412">
        <ele>45.5</ele>
        <time>2019-04-23T13:54:52.000Z</time>
      </trkpt>
      <trkpt lat="49.47045" lon="-1.58411">
        <ele>45.4</ele>
        <time>2019-04-23T13:54:53.000Z</time>
      </trkpt>
      <trkpt lat="49.47044" lon="-1.58411">
        <ele>45.4</ele>
        <time>2019-04-23T13:54:54.000Z</time>
      </trkpt>
      <trkpt lat="49.47043" lon="-1.5841">
        <ele>45.3</ele>
        <time>2019-04-23T13:54:55.000Z</time>
      </trkpt>
      <trkpt lat="49.47042" lon="-1.58409">
        <ele>45.2</ele>
        <time>2019-04-23T13:54:56.000Z</time>
      </trkpt>
      <trkpt lat="49.4704" lon="-1.58408">
        <ele>45.1</ele>
        <time>2019-04-23T13:54:57.000Z</time>
      </trkpt>
      <trkpt lat="49.47039" lon="-1.58408">
        <ele>45.1</ele>
        <time>2019-04-23T13:54:58.000Z</time>
      </trkpt>
      <trkpt lat="49.47038" lon="-1.58407">
        <ele>45</ele>
        <time>2019-04-23T13:54:59.000Z</time>
      </trkpt>
      <trkpt lat="49.47036" lon="-1.58406">
        <ele>44.9</ele>
        <time>2019-04-23T13:55:00.000Z</time>
      </trkpt>
      <trkpt lat="49.47035" lon="-1.58405">
        <ele>44.8</ele>
        <time>2019-04-23T13:55:01.000Z</time>
      </trkpt>
      <trkpt lat="49.47034" lon="-1.58405">
        <ele>44.8</ele>
        <time>2019-04-23T13:55:02.000Z</time>
      </trkpt>
      <trkpt lat="49.47033" lon="-1.58404">
        <ele>44.7</ele>
        <time>2019-04-23T13:55:03.000Z</time>
      </trkpt>
      <trkpt lat="49.47031" lon="-1.58403">
        <ele>44.6</ele>
        <time>2019-04-23T13:55:04.000Z</time>
      </trkpt>
      <trkpt lat="49.4703" lon="-1.58403">
        <ele>44.5</ele>
        <time>2019-04-23T13:55:05.000Z</time>
      </trkpt>
      <trkpt lat="49.47029" lon="-1.58402">
        <ele>44.5</ele>
        <time>2019-04-23T13:55:06.000Z</time>
      </trkpt>
      <trkpt lat="49.47028" lon="-1.58402">
        <ele>44.4</ele>
        <time>2019-04-23T13:55:07.000Z</time>
      </trkpt>
      <trkpt lat="49.47027" lon="-1.58401">
        <ele>44.3</ele>
        <time>2019-04-23T13:55:08.000Z</time>
      </trkpt>
      <trkpt lat="49.47025" lon="-1.584">
        <ele>44.2</ele>
        <time>2019-04-23T13:55:09.000Z</time>
      </trkpt>
      <trkpt lat="49.47024" lon="-1.584">
        <ele>44.2</ele>
        <time>2019-04-23T13:55:10.000Z</time>
      </trkpt>
      <trkpt lat="49.47023" lon="-1.58399">
        <ele>44.1</ele>
        <time>2019-04-23T13:55:11.000Z</time>
      </trkpt>
      <trkpt lat="49.47022" lon="-1.58398">
        <ele>44</ele>
        <time>2019-04-23T13:55:12.000Z</time>
      </trkpt>
      <trkpt lat="49.47021" lon="-1.58398">
        <ele>44</ele>
        <time>2019-04-23T13:55:13.000Z</time>
      </trkpt>
      <trkpt lat="49.4702" lon="-1.58397">
        <ele>43.9</ele>
        <time>2019-04-23T13:55:14.000Z</time>
      </trkpt>
      <trkpt lat="49.47018" lon="-1.58397">
        <ele>43.8</ele>
        <time>2019-04-23T13:55:15.000Z</time>
      </trkpt>
      <trkpt lat="49.47017" lon="-1.58396">
        <ele>43.7</ele>
        <time>2019-04-23T13:55:16.000Z</time>
      </trkpt>
      <trkpt lat="49.47016" lon="-1.58395">
        <ele>43.6</ele>
        <time>2019-04-23T13:55:17.000Z</time>
      </trkpt>
      <trkpt lat="49.47015" lon="-1.58394">
        <ele>43.6</ele>
        <time>2019-04-23T13:55:18.000Z</time>
      </trkpt>
      <trkpt lat="49.47014" lon="-1.58394">
        <ele>43.5</ele>
        <time>2019-04-23T13:55:19.000Z</time>
      </trkpt>
      <trkpt lat="49.47013" lon="-1.58393">
        <ele>43.4</ele>
        <time>2019-04-23T13:55:20.000Z</time>
      </trkpt>
      <trkpt lat="49.47011" lon="-1.58392">
        <ele>43.3</ele>
        <time>2019-04-23T13:55:21.000Z</time>
      </trkpt>
      <trkpt lat="49.4701" lon="-1.58391">
        <ele>43.2</ele>
        <time>2019-04-23T13:55:22.000Z</time>
      </trkpt>
      <trkpt lat="49.47009" lon="-1.58391">
        <ele>43.1</ele>
        <time>2019-04-23T13:55:23.000Z</time>
      </trkpt>
      <trkpt lat="49.47008" lon="-1.5839">
        <ele>43.1</ele>
        <time>2019-04-23T13:55:24.000Z</time>
      </trkpt>
      <trkpt lat="49.47007" lon="-1.58389">
        <ele>43</ele>
        <time>2019-04-23T13:55:25.000Z</time>
      </trkpt>
      <trkpt lat="49.47006" lon="-1.58388">
        <ele>42.9</ele>
        <time>2019-04-23T13:55:26.000Z</time>
      </trkpt>
      <trkpt lat="49.47004" lon="-1.58388">
        <ele>42.8</ele>
        <time>2019-04-23T13:55:27.000Z</time>
      </trkpt>
      <trkpt lat="49.47003" lon="-1.58387">
        <ele>42.7</ele>
        <time>2019-04-23T13:55:28.000Z</time>
      </trkpt>
      <trkpt lat="49.47002" lon="-1.58386">
        <ele>42.6</ele>
        <time>2019-04-23T13:55:29.000Z</time>
      </trkpt>
      <trkpt lat="49.47001" lon="-1.58385">
        <ele>42.5</ele>
        <time>2019-04-23T13:55:30.000Z</time>
      </trkpt>
      <trkpt lat="49.47" lon="-1.58384">
        <ele>42.4</ele>
        <time>2019-04-23T13:55:31.000Z</time>
      </trkpt>
      <trkpt lat="49.46999" lon="-1.58384">
        <ele>42.4</ele>
        <time>2019-04-23T13:55:32.000Z</time>
      </trkpt>
      <trkpt lat="49.46997" lon="-1.58383">
        <ele>42.3</ele>
        <time>2019-04-23T13:55:33.000Z</time>
      </trkpt>
      <trkpt lat="49.46996" lon="-1.58382">
        <ele>42.3</ele>
        <time>2019-04-23T13:55:34.000Z</time>
      </trkpt>
      <trkpt lat="49.46995" lon="-1.58381">
        <ele>42.2</ele>
        <time>2019-04-23T13:55:35.000Z</time>
      </trkpt>
      <trkpt lat="49.46994" lon="-1.58381">
        <ele>42.2</ele>
        <time>2019-04-23T13:55:36.000Z</time>
      </trkpt>
      <trkpt lat="49.46993" lon="-1.5838">
        <ele>42.1</ele>
        <time>2019-04-23T13:55:37.000Z</time>
      </trkpt>
      <trkpt lat="49.46992" lon="-1.58379">
        <ele>42.1</ele>
        <time>2019-04-23T13:55:38.000Z</time>
      </trkpt>
      <trkpt lat="49.46991" lon="-1.58378">
        <ele>42</ele>
        <time>2019-04-23T13:55:39.000Z</time>
      </trkpt>
      <trkpt lat="49.46989" lon="-1.58378">
        <ele>42</ele>
        <time>2019-04-23T13:55:40.000Z</time>
      </trkpt>
      <trkpt lat="49.46988" lon="-1.58377">
        <ele>41.9</ele>
        <time>2019-04-23T13:55:41.000Z</time>
      </trkpt>
      <trkpt lat="49.46987" lon="-1.58376">
        <ele>41.9</ele>
        <time>2019-04-23T13:55:42.000Z</time>
      </trkpt>
      <trkpt lat="49.46986" lon="-1.58375">
        <ele>41.8</ele>
        <time>2019-04-23T13:55:43.000Z</time>
      </trkpt>
      <trkpt lat="49.46985" lon="-1.58375">
        <ele>41.8</ele>
        <time>2019-04-23T13:55:44.000Z</time>
      </trkpt>
      <trkpt lat="49.46984" lon="-1.58374">
        <ele>41.7</ele>
        <time>2019-04-23T13:55:45.000Z</time>
      </trkpt>
      <trkpt lat="49.46982" lon="-1.58373">
        <ele>41.7</ele>
        <time>2019-04-23T13:55:46.000Z</time>
      </trkpt>
      <trkpt lat="49.46981" lon="-1.58372">
        <ele>41.6</ele>
        <time>2019-04-23T13:55:47.000Z</time>
      </trkpt>
      <trkpt lat="49.4698" lon="-1.58371">
        <ele>41.6</ele>
        <time>2019-04-23T13:55:48.000Z</time>
      </trkpt>
      <trkpt lat="49.46979" lon="-1.5837">
        <ele>41.5</ele>
        <time>2019-04-23T13:55:49.000Z</time>
      </trkpt>
      <trkpt lat="49.46977" lon="-1.5837">
        <ele>41.5</ele>
        <time>2019-04-23T13:55:50.000Z</time>
      </trkpt>
      <trkpt lat="49.46976" lon="-1.58369">
        <ele>41.5</ele>
        <time>2019-04-23T13:55:51.000Z</time>
      </trkpt>
      <trkpt lat="49.46975" lon="-1.58368">
        <ele>41.4</ele>
        <time>2019-04-23T13:55:52.000Z</time>
      </trkpt>
      <trkpt lat="49.46974" lon="-1.58367">
        <ele>41.4</ele>
        <time>2019-04-23T13:55:53.000Z</time>
      </trkpt>
      <trkpt lat="49.46973" lon="-1.58366">
        <ele>41.3</ele>
        <time>2019-04-23T13:55:54.000Z</time>
      </trkpt>
      <trkpt lat="49.46972" lon="-1.58365">
        <ele>41.3</ele>
        <time>2019-04-23T13:55:55.000Z</time>
      </trkpt>
      <trkpt lat="49.46971" lon="-1.58365">
        <ele>41.2</ele>
        <time>2019-04-23T13:55:56.000Z</time>
      </trkpt>
      <trkpt lat="49.46969" lon="-1.58364">
        <ele>41.2</ele>
        <time>2019-04-23T13:55:57.000Z</time>
      </trkpt>
      <trkpt lat="49.46968" lon="-1.58363">
        <ele>41.2</ele>
        <time>2019-04-23T13:55:58.000Z</time>
      </trkpt>
      <trkpt lat="49.46967" lon="-1.58362">
        <ele>41.1</ele>
        <time>2019-04-23T13:55:59.000Z</time>
      </trkpt>
      <trkpt lat="49.46966" lon="-1.58362">
        <ele>41.1</ele>
        <time>2019-04-23T13:56:00.000Z</time>
      </trkpt>
      <trkpt lat="49.46965" lon="-1.58361">
        <ele>41</ele>
        <time>2019-04-23T13:56:01.000Z</time>
      </trkpt>
      <trkpt lat="49.46964" lon="-1.5836">
        <ele>41</ele>
        <time>2019-04-23T13:56:02.000Z</time>
      </trkpt>
      <trkpt lat="49.46963" lon="-1.58359">
        <ele>41</ele>
        <time>2019-04-23T13:56:03.000Z</time>
      </trkpt>
      <trkpt lat="49.46962" lon="-1.58359">
        <ele>40.9</ele>
        <time>2019-04-23T13:56:04.000Z</time>
      </trkpt>
      <trkpt lat="49.46961" lon="-1.58358">
        <ele>40.9</ele>
        <time>2019-04-23T13:56:05.000Z</time>
      </trkpt>
      <trkpt lat="49.4696" lon="-1.58357">
        <ele>40.9</ele>
        <time>2019-04-23T13:56:06.000Z</time>
      </trkpt>
      <trkpt lat="49.46959" lon="-1.58357">
        <ele>40.8</ele>
        <time>2019-04-23T13:56:07.000Z</time>
      </trkpt>
      <trkpt lat="49.46958" lon="-1.58356">
        <ele>40.8</ele>
        <time>2019-04-23T13:56:08.000Z</time>
      </trkpt>
      <trkpt lat="49.46956" lon="-1.58355">
        <ele>40.8</ele>
        <time>2019-04-23T13:56:09.000Z</time>
      </trkpt>
      <trkpt lat="49.46955" lon="-1.58354">
        <ele>40.7</ele>
        <time>2019-04-23T13:56:10.000Z</time>
      </trkpt>
      <trkpt lat="49.46954" lon="-1.58353">
        <ele>40.7</ele>
        <time>2019-04-23T13:56:11.000Z</time>
      </trkpt>
      <trkpt lat="49.46953" lon="-1.58352">
        <ele>40.7</ele>
        <time>2019-04-23T13:56:12.000Z</time>
      </trkpt>
      <trkpt lat="49.46952" lon="-1.58352">
        <ele>40.6</ele>
        <time>2019-04-23T13:56:13.000Z</time>
      </trkpt>
      <trkpt lat="49.46951" lon="-1.58351">
        <ele>40.6</ele>
        <time>2019-04-23T13:56:14.000Z</time>
      </trkpt>
      <trkpt lat="49.4695" lon="-1.5835">
        <ele>40.6</ele>
        <time>2019-04-23T13:56:15.000Z</time>
      </trkpt>
      <trkpt lat="49.46948" lon="-1.58349">
        <ele>40.5</ele>
        <time>2019-04-23T13:56:16.000Z</time>
      </trkpt>
      <trkpt lat="49.46947" lon="-1.58349">
        <ele>40.5</ele>
        <time>2019-04-23T13:56:17.000Z</time>
      </trkpt>
      <trkpt lat="49.46946" lon="-1.58348">
        <ele>40.5</ele>
        <time>2019-04-23T13:56:18.000Z</time>
      </trkpt>
      <trkpt lat="49.46945" lon="-1.58347">
        <ele>40.4</ele>
        <time>2019-04-23T13:56:19.000Z</time>
      </trkpt>
      <trkpt lat="49.46944" lon="-1.58347">
        <ele>40.4</ele>
        <time>2019-04-23T13:56:20.000Z</time>
      </trkpt>
      <trkpt lat="49.46943" lon="-1.58347">
        <ele>40.4</ele>
        <time>2019-04-23T13:56:21.000Z</time>
      </trkpt>
      <trkpt lat="49.46942" lon="-1.58346">
        <ele>40.4</ele>
        <time>2019-04-23T13:56:22.000Z</time>
      </trkpt>
      <trkpt lat="49.4694" lon="-1.58346">
        <ele>40.4</ele>
        <time>2019-04-23T13:56:23.000Z</time>
      </trkpt>
      <trkpt lat="49.46939" lon="-1.58346">
        <ele>40.4</ele>
        <time>2019-04-23T13:56:24.000Z</time>
      </trkpt>
      <trkpt lat="49.46938" lon="-1.58346">
        <ele>40.4</ele>
        <time>2019-04-23T13:56:25.000Z</time>
      </trkpt>
      <trkpt lat="49.46937" lon="-1.58346">
        <ele>40.4</ele>
        <time>2019-04-23T13:56:26.000Z</time>
      </trkpt>
      <trkpt lat="49.46936" lon="-1.58346">
        <ele>40.4</ele>
        <time>2019-04-23T13:56:27.000Z</time>
      </trkpt>
      <trkpt lat="49.46934" lon="-1.58345">
        <ele>40.3</ele>
        <time>2019-04-23T13:56:28.000Z</time>
      </trkpt>
      <trkpt lat="49.46933" lon="-1.58345">
        <ele>40.3</ele>
        <time>2019-04-23T13:56:29.000Z</time>
      </trkpt>
      <trkpt lat="49.46932" lon="-1.58345">
        <ele>40.3</ele>
        <time>2019-04-23T13:56:30.000Z</time>
      </trkpt>
      <trkpt lat="49.4693" lon="-1.58345">
        <ele>40.3</ele>
        <time>2019-04-23T13:56:31.000Z</time>
      </trkpt>
      <trkpt lat="49.46929" lon="-1.58344">
        <ele>40.3</ele>
        <time>2019-04-23T13:56:32.000Z</time>
      </trkpt>
      <trkpt lat="49.46928" lon="-1.58344">
        <ele>40.3</ele>
        <time>2019-04-23T13:56:33.000Z</time>
      </trkpt>
      <trkpt lat="49.46926" lon="-1.58344">
        <ele>40.3</ele>
        <time>2019-04-23T13:56:34.000Z</time>
      </trkpt>
      <trkpt lat="49.46925" lon="-1.58343">
        <ele>40.3</ele>
        <time>2019-04-23T13:56:35.000Z</time>
      </trkpt>
      <trkpt lat="49.46923" lon="-1.58343">
        <ele>40.2</ele>
        <time>2019-04-23T13:56:36.000Z</time>
      </trkpt>
      <trkpt lat="49.46922" lon="-1.58342">
        <ele>40.2</ele>
        <time>2019-04-23T13:56:37.000Z</time>
      </trkpt>
      <trkpt lat="49.46921" lon="-1.58342">
        <ele>40.2</ele>
        <time>2019-04-23T13:56:38.000Z</time>
      </trkpt>
      <trkpt lat="49.46919" lon="-1.58342">
        <ele>40.2</ele>
        <time>2019-04-23T13:56:39.000Z</time>
      </trkpt>
      <trkpt lat="49.46918" lon="-1.58341">
        <ele>40.2</ele>
        <time>2019-04-23T13:56:40.000Z</time>
      </trkpt>
      <trkpt lat="49.46916" lon="-1.58341">
        <ele>40.2</ele>
        <time>2019-04-23T13:56:41.000Z</time>
      </trkpt>
      <trkpt lat="49.46915" lon="-1.58341">
        <ele>40.2</ele>
        <time>2019-04-23T13:56:42.000Z</time>
      </trkpt>
      <trkpt lat="49.46914" lon="-1.5834">
        <ele>40.3</ele>
        <time>2019-04-23T13:56:43.000Z</time>
      </trkpt>
      <trkpt lat="49.46913" lon="-1.5834">
        <ele>40.3</ele>
        <time>2019-04-23T13:56:44.000Z</time>
      </trkpt>
      <trkpt lat="49.46911" lon="-1.5834">
        <ele>40.3</ele>
        <time>2019-04-23T13:56:45.000Z</time>
      </trkpt>
      <trkpt lat="49.4691" lon="-1.5834">
        <ele>40.4</ele>
        <time>2019-04-23T13:56:46.000Z</time>
      </trkpt>
      <trkpt lat="49.46909" lon="-1.5834">
        <ele>40.4</ele>
        <time>2019-04-23T13:56:47.000Z</time>
      </trkpt>
      <trkpt lat="49.46908" lon="-1.5834">
        <ele>40.5</ele>
        <time>2019-04-23T13:56:48.000Z</time>
      </trkpt>
      <trkpt lat="49.46907" lon="-1.58339">
        <ele>40.5</ele>
        <time>2019-04-23T13:56:49.000Z</time>
      </trkpt>
      <trkpt lat="49.46905" lon="-1.58339">
        <ele>40.5</ele>
        <time>2019-04-23T13:56:50.000Z</time>
      </trkpt>
      <trkpt lat="49.46904" lon="-1.58339">
        <ele>40.6</ele>
        <time>2019-04-23T13:56:51.000Z</time>
      </trkpt>
      <trkpt lat="49.46903" lon="-1.58339">
        <ele>40.6</ele>
        <time>2019-04-23T13:56:52.000Z</time>
      </trkpt>
      <trkpt lat="49.46902" lon="-1.58339">
        <ele>40.6</ele>
        <time>2019-04-23T13:56:53.000Z</time>
      </trkpt>
      <trkpt lat="49.46901" lon="-1.58339">
        <ele>40.7</ele>
        <time>2019-04-23T13:56:54.000Z</time>
      </trkpt>
      <trkpt lat="49.469" lon="-1.58339">
        <ele>40.7</ele>
        <time>2019-04-23T13:56:55.000Z</time>
      </trkpt>
      <trkpt lat="49.46899" lon="-1.58339">
        <ele>40.7</ele>
        <time>2019-04-23T13:56:56.000Z</time>
      </trkpt>
      <trkpt lat="49.46898" lon="-1.58339">
        <ele>40.8</ele>
        <time>2019-04-23T13:56:57.000Z</time>
      </trkpt>
      <trkpt lat="49.46897" lon="-1.58339">
        <ele>40.8</ele>
        <time>2019-04-23T13:56:58.000Z</time>
      </trkpt>
      <trkpt lat="49.46896" lon="-1.58339">
        <ele>40.8</ele>
        <time>2019-04-23T13:56:59.000Z</time>
      </trkpt>
      <trkpt lat="49.46895" lon="-1.5834">
        <ele>40.9</ele>
        <time>2019-04-23T13:57:00.000Z</time>
      </trkpt>
      <trkpt lat="49.46894" lon="-1.5834">
        <ele>40.9</ele>
        <time>2019-04-23T13:57:01.000Z</time>
      </trkpt>
      <trkpt lat="49.46893" lon="-1.5834">
        <ele>41</ele>
        <time>2019-04-23T13:57:02.000Z</time>
      </trkpt>
      <trkpt lat="49.46892" lon="-1.5834">
        <ele>41</ele>
        <time>2019-04-23T13:57:03.000Z</time>
      </trkpt>
      <trkpt lat="49.46891" lon="-1.5834">
        <ele>41</ele>
        <time>2019-04-23T13:57:04.000Z</time>
      </trkpt>
      <trkpt lat="49.46889" lon="-1.5834">
        <ele>41.1</ele>
        <time>2019-04-23T13:57:05.000Z</time>
      </trkpt>
      <trkpt lat="49.46888" lon="-1.5834">
        <ele>41.1</ele>
        <time>2019-04-23T13:57:06.000Z</time>
      </trkpt>
      <trkpt lat="49.46887" lon="-1.58341">
        <ele>41.1</ele>
        <time>2019-04-23T13:57:07.000Z</time>
      </trkpt>
      <trkpt lat="49.46886" lon="-1.58341">
        <ele>41.2</ele>
        <time>2019-04-23T13:57:08.000Z</time>
      </trkpt>
      <trkpt lat="49.46885" lon="-1.58341">
        <ele>41.2</ele>
        <time>2019-04-23T13:57:09.000Z</time>
      </trkpt>
      <trkpt lat="49.46884" lon="-1.58341">
        <ele>41.3</ele>
        <time>2019-04-23T13:57:10.000Z</time>
      </trkpt>
      <trkpt lat="49.46883" lon="-1.58341">
        <ele>41.3</ele>
        <time>2019-04-23T13:57:11.000Z</time>
      </trkpt>
      <trkpt lat="49.46882" lon="-1.58342">
        <ele>41.3</ele>
        <time>2019-04-23T13:57:12.000Z</time>
      </trkpt>
      <trkpt lat="49.46881" lon="-1.58342">
        <ele>41.4</ele>
        <time>2019-04-23T13:57:13.000Z</time>
      </trkpt>
      <trkpt lat="49.4688" lon="-1.58342">
        <ele>41.4</ele>
        <time>2019-04-23T13:57:14.000Z</time>
      </trkpt>
      <trkpt lat="49.46879" lon="-1.58342">
        <ele>41.4</ele>
        <time>2019-04-23T13:57:15.000Z</time>
      </trkpt>
      <trkpt lat="49.46878" lon="-1.58343">
        <ele>41.5</ele>
        <time>2019-04-23T13:57:16.000Z</time>
      </trkpt>
      <trkpt lat="49.46876" lon="-1.58343">
        <ele>41.5</ele>
        <time>2019-04-23T13:57:17.000Z</time>
      </trkpt>
      <trkpt lat="49.46875" lon="-1.58343">
        <ele>41.5</ele>
        <time>2019-04-23T13:57:18.000Z</time>
      </trkpt>
      <trkpt lat="49.46874" lon="-1.58343">
        <ele>41.6</ele>
        <time>2019-04-23T13:57:19.000Z</time>
      </trkpt>
      <trkpt lat="49.46873" lon="-1.58344">
        <ele>41.6</ele>
        <time>2019-04-23T13:57:20.000Z</time>
      </trkpt>
      <trkpt lat="49.46872" lon="-1.58344">
        <ele>41.6</ele>
        <time>2019-04-23T13:57:21.000Z</time>
      </trkpt>
      <trkpt lat="49.46871" lon="-1.58344">
        <ele>41.7</ele>
        <time>2019-04-23T13:57:22.000Z</time>
      </trkpt>
      <trkpt lat="49.4687" lon="-1.58344">
        <ele>41.7</ele>
        <time>2019-04-23T13:57:23.000Z</time>
      </trkpt>
      <trkpt lat="49.46869" lon="-1.58345">
        <ele>41.7</ele>
        <time>2019-04-23T13:57:24.000Z</time>
      </trkpt>
      <trkpt lat="49.46868" lon="-1.58345">
        <ele>41.8</ele>
        <time>2019-04-23T13:57:25.000Z</time>
      </trkpt>
      <trkpt lat="49.46867" lon="-1.58345">
        <ele>41.8</ele>
        <time>2019-04-23T13:57:26.000Z</time>
      </trkpt>
      <trkpt lat="49.46866" lon="-1.58345">
        <ele>41.8</ele>
        <time>2019-04-23T13:57:27.000Z</time>
      </trkpt>
      <trkpt lat="49.46865" lon="-1.58346">
        <ele>41.9</ele>
        <time>2019-04-23T13:57:28.000Z</time>
      </trkpt>
      <trkpt lat="49.46864" lon="-1.58346">
        <ele>41.9</ele>
        <time>2019-04-23T13:57:29.000Z</time>
      </trkpt>
      <trkpt lat="49.46863" lon="-1.58346">
        <ele>41.9</ele>
        <time>2019-04-23T13:57:30.000Z</time>
      </trkpt>
      <trkpt lat="49.46862" lon="-1.58346">
        <ele>42</ele>
        <time>2019-04-23T13:57:31.000Z</time>
      </trkpt>
      <trkpt lat="49.46861" lon="-1.58346">
        <ele>42</ele>
        <time>2019-04-23T13:57:32.000Z</time>
      </trkpt>
      <trkpt lat="49.4686" lon="-1.58347">
        <ele>42</ele>
        <time>2019-04-23T13:57:33.000Z</time>
      </trkpt>
      <trkpt lat="49.46859" lon="-1.58347">
        <ele>42.1</ele>
        <time>2019-04-23T13:57:34.000Z</time>
      </trkpt>
      <trkpt lat="49.46858" lon="-1.58347">
        <ele>42.1</ele>
        <time>2019-04-23T13:57:35.000Z</time>
      </trkpt>
      <trkpt lat="49.46857" lon="-1.58347">
        <ele>42.1</ele>
        <time>2019-04-23T13:57:36.000Z</time>
      </trkpt>
      <trkpt lat="49.46855" lon="-1.58347">
        <ele>42.2</ele>
        <time>2019-04-23T13:57:37.000Z</time>
      </trkpt>
      <trkpt lat="49.46854" lon="-1.58348">
        <ele>42.2</ele>
        <time>2019-04-23T13:57:38.000Z</time>
      </trkpt>
      <trkpt lat="49.46853" lon="-1.58348">
        <ele>42.3</ele>
        <time>2019-04-23T13:57:39.000Z</time>
      </trkpt>
      <trkpt lat="49.46851" lon="-1.58348">
        <ele>42.3</ele>
        <time>2019-04-23T13:57:40.000Z</time>
      </trkpt>
      <trkpt lat="49.4685" lon="-1.58348">
        <ele>42.3</ele>
        <time>2019-04-23T13:57:41.000Z</time>
      </trkpt>
      <trkpt lat="49.46849" lon="-1.58348">
        <ele>42.4</ele>
        <time>2019-04-23T13:57:42.000Z</time>
      </trkpt>
      <trkpt lat="49.46847" lon="-1.58349">
        <ele>42.4</ele>
        <time>2019-04-23T13:57:43.000Z</time>
      </trkpt>
      <trkpt lat="49.46846" lon="-1.58349">
        <ele>42.5</ele>
        <time>2019-04-23T13:57:44.000Z</time>
      </trkpt>
      <trkpt lat="49.46844" lon="-1.58349">
        <ele>42.5</ele>
        <time>2019-04-23T13:57:45.000Z</time>
      </trkpt>
      <trkpt lat="49.46843" lon="-1.58349">
        <ele>42.5</ele>
        <time>2019-04-23T13:57:46.000Z</time>
      </trkpt>
      <trkpt lat="49.46841" lon="-1.58349">
        <ele>42.6</ele>
        <time>2019-04-23T13:57:47.000Z</time>
      </trkpt>
      <trkpt lat="49.4684" lon="-1.58349">
        <ele>42.6</ele>
        <time>2019-04-23T13:57:48.000Z</time>
      </trkpt>
      <trkpt lat="49.46838" lon="-1.5835">
        <ele>42.7</ele>
        <time>2019-04-23T13:57:49.000Z</time>
      </trkpt>
      <trkpt lat="49.46837" lon="-1.5835">
        <ele>42.7</ele>
        <time>2019-04-23T13:57:50.000Z</time>
      </trkpt>
      <trkpt lat="49.46836" lon="-1.5835">
        <ele>42.7</ele>
        <time>2019-04-23T13:57:51.000Z</time>
      </trkpt>
      <trkpt lat="49.46834" lon="-1.5835">
        <ele>42.8</ele>
        <time>2019-04-23T13:57:52.000Z</time>
      </trkpt>
      <trkpt lat="49.46833" lon="-1.5835">
        <ele>42.8</ele>
        <time>2019-04-23T13:57:53.000Z</time>
      </trkpt>
      <trkpt lat="49.46832" lon="-1.58351">
        <ele>42.8</ele>
        <time>2019-04-23T13:57:54.000Z</time>
      </trkpt>
      <trkpt lat="49.4683" lon="-1.58351">
        <ele>42.8</ele>
        <time>2019-04-23T13:57:55.000Z</time>
      </trkpt>
      <trkpt lat="49.46829" lon="-1.58351">
        <ele>42.8</ele>
        <time>2019-04-23T13:57:56.000Z</time>
      </trkpt>
      <trkpt lat="49.46828" lon="-1.58351">
        <ele>42.8</ele>
        <time>2019-04-23T13:57:57.000Z</time>
      </trkpt>
      <trkpt lat="49.46826" lon="-1.58351">
        <ele>42.8</ele>
        <time>2019-04-23T13:57:58.000Z</time>
      </trkpt>
      <trkpt lat="49.46825" lon="-1.58352">
        <ele>42.8</ele>
        <time>2019-04-23T13:57:59.000Z</time>
      </trkpt>
      <trkpt lat="49.46824" lon="-1.58352">
        <ele>42.8</ele>
        <time>2019-04-23T13:58:00.000Z</time>
      </trkpt>
      <trkpt lat="49.46823" lon="-1.58352">
        <ele>42.8</ele>
        <time>2019-04-23T13:58:01.000Z</time>
      </trkpt>
      <trkpt lat="49.46821" lon="-1.58352">
        <ele>42.8</ele>
        <time>2019-04-23T13:58:02.000Z</time>
      </trkpt>
      <trkpt lat="49.4682" lon="-1.58352">
        <ele>42.8</ele>
        <time>2019-04-23T13:58:03.000Z</time>
      </trkpt>
      <trkpt lat="49.46819" lon="-1.58353">
        <ele>42.8</ele>
        <time>2019-04-23T13:58:04.000Z</time>
      </trkpt>
      <trkpt lat="49.46818" lon="-1.58353">
        <ele>42.9</ele>
        <time>2019-04-23T13:58:05.000Z</time>
      </trkpt>
      <trkpt lat="49.46817" lon="-1.58353">
        <ele>42.9</ele>
        <time>2019-04-23T13:58:06.000Z</time>
      </trkpt>
      <trkpt lat="49.46815" lon="-1.58353">
        <ele>42.9</ele>
        <time>2019-04-23T13:58:07.000Z</time>
      </trkpt>
      <trkpt lat="49.46814" lon="-1.58354">
        <ele>42.9</ele>
        <time>2019-04-23T13:58:08.000Z</time>
      </trkpt>
      <trkpt lat="49.46813" lon="-1.58354">
        <ele>42.9</ele>
        <time>2019-04-23T13:58:09.000Z</time>
      </trkpt>
      <trkpt lat="49.46812" lon="-1.58354">
        <ele>42.9</ele>
        <time>2019-04-23T13:58:10.000Z</time>
      </trkpt>
      <trkpt lat="49.4681" lon="-1.58354">
        <ele>42.9</ele>
        <time>2019-04-23T13:58:11.000Z</time>
      </trkpt>
      <trkpt lat="49.46809" lon="-1.58355">
        <ele>42.9</ele>
        <time>2019-04-23T13:58:12.000Z</time>
      </trkpt>
      <trkpt lat="49.46808" lon="-1.58355">
        <ele>42.9</ele>
        <time>2019-04-23T13:58:13.000Z</time>
      </trkpt>
      <trkpt lat="49.46807" lon="-1.58355">
        <ele>42.9</ele>
        <time>2019-04-23T13:58:14.000Z</time>
      </trkpt>
      <trkpt lat="49.46805" lon="-1.58355">
        <ele>42.9</ele>
        <time>2019-04-23T13:58:15.000Z</time>
      </trkpt>
      <trkpt lat="49.46804" lon="-1.58356">
        <ele>42.9</ele>
        <time>2019-04-23T13:58:16.000Z</time>
      </trkpt>
      <trkpt lat="49.46803" lon="-1.58356">
        <ele>42.9</ele>
        <time>2019-04-23T13:58:17.000Z</time>
      </trkpt>
      <trkpt lat="49.46802" lon="-1.58356">
        <ele>42.9</ele>
        <time>2019-04-23T13:58:18.000Z</time>
      </trkpt>
      <trkpt lat="49.46801" lon="-1.58356">
        <ele>42.9</ele>
        <time>2019-04-23T13:58:19.000Z</time>
      </trkpt>
      <trkpt lat="49.468" lon="-1.58356">
        <ele>42.9</ele>
        <time>2019-04-23T13:58:20.000Z</time>
      </trkpt>
      <trkpt lat="49.46799" lon="-1.58356">
        <ele>43</ele>
        <time>2019-04-23T13:58:21.000Z</time>
      </trkpt>
      <trkpt lat="49.46798" lon="-1.58357">
        <ele>43</ele>
        <time>2019-04-23T13:58:22.000Z</time>
      </trkpt>
      <trkpt lat="49.46797" lon="-1.58357">
        <ele>43</ele>
        <time>2019-04-23T13:58:23.000Z</time>
      </trkpt>
      <trkpt lat="49.46796" lon="-1.58357">
        <ele>43</ele>
        <time>2019-04-23T13:58:24.000Z</time>
      </trkpt>
      <trkpt lat="49.46795" lon="-1.58357">
        <ele>43</ele>
        <time>2019-04-23T13:58:25.000Z</time>
      </trkpt>
      <trkpt lat="49.46793" lon="-1.58357">
        <ele>43</ele>
        <time>2019-04-23T13:58:26.000Z</time>
      </trkpt>
      <trkpt lat="49.46792" lon="-1.58358">
        <ele>43</ele>
        <time>2019-04-23T13:58:27.000Z</time>
      </trkpt>
      <trkpt lat="49.46791" lon="-1.58358">
        <ele>43</ele>
        <time>2019-04-23T13:58:28.000Z</time>
      </trkpt>
      <trkpt lat="49.46791" lon="-1.58358">
        <ele>43</ele>
        <time>2019-04-23T13:58:29.000Z</time>
      </trkpt>
      <trkpt lat="49.4679" lon="-1.58358">
        <ele>43</ele>
        <time>2019-04-23T13:58:30.000Z</time>
      </trkpt>
      <trkpt lat="49.4679" lon="-1.58359">
        <ele>43</ele>
        <time>2019-04-23T13:58:31.000Z</time>
      </trkpt>
      <trkpt lat="49.46789" lon="-1.58359">
        <ele>43</ele>
        <time>2019-04-23T13:58:32.000Z</time>
      </trkpt>
      <trkpt lat="49.46788" lon="-1.58359">
        <ele>43</ele>
        <time>2019-04-23T13:58:33.000Z</time>
      </trkpt>
      <trkpt lat="49.46787" lon="-1.58359">
        <ele>43</ele>
        <time>2019-04-23T13:58:34.000Z</time>
      </trkpt>
      <trkpt lat="49.46786" lon="-1.5836">
        <ele>43</ele>
        <time>2019-04-23T13:58:35.000Z</time>
      </trkpt>
      <trkpt lat="49.46784" lon="-1.5836">
        <ele>43.1</ele>
        <time>2019-04-23T13:58:36.000Z</time>
      </trkpt>
      <trkpt lat="49.46783" lon="-1.5836">
        <ele>43.1</ele>
        <time>2019-04-23T13:58:37.000Z</time>
      </trkpt>
      <trkpt lat="49.46782" lon="-1.5836">
        <ele>43.1</ele>
        <time>2019-04-23T13:58:38.000Z</time>
      </trkpt>
      <trkpt lat="49.4678" lon="-1.5836">
        <ele>43.1</ele>
        <time>2019-04-23T13:58:39.000Z</time>
      </trkpt>
      <trkpt lat="49.46779" lon="-1.58361">
        <ele>43.1</ele>
        <time>2019-04-23T13:58:40.000Z</time>
      </trkpt>
      <trkpt lat="49.46777" lon="-1.58361">
        <ele>43.1</ele>
        <time>2019-04-23T13:58:41.000Z</time>
      </trkpt>
      <trkpt lat="49.46776" lon="-1.58361">
        <ele>43.1</ele>
        <time>2019-04-23T13:58:42.000Z</time>
      </trkpt>
      <trkpt lat="49.46775" lon="-1.58362">
        <ele>43.1</ele>
        <time>2019-04-23T13:58:43.000Z</time>
      </trkpt>
      <trkpt lat="49.46775" lon="-1.58362">
        <ele>43.1</ele>
        <time>2019-04-23T13:58:44.000Z</time>
      </trkpt>
      <trkpt lat="49.46775" lon="-1.58362">
        <ele>43.1</ele>
        <time>2019-04-23T13:58:45.000Z</time>
      </trkpt>
      <trkpt lat="49.46775" lon="-1.58362">
        <ele>43.1</ele>
        <time>2019-04-23T13:58:46.000Z</time>
      </trkpt>
      <trkpt lat="49.46775" lon="-1.58362">
        <ele>43.1</ele>
        <time>2019-04-23T13:58:47.000Z</time>
      </trkpt>
      <trkpt lat="49.46774" lon="-1.58362">
        <ele>43.1</ele>
        <time>2019-04-23T13:58:48.000Z</time>
      </trkpt>
      <trkpt lat="49.46774" lon="-1.58362">
        <ele>43.1</ele>
        <time>2019-04-23T13:58:49.000Z</time>
      </trkpt>
      <trkpt lat="49.46773" lon="-1.58362">
        <ele>43.2</ele>
        <time>2019-04-23T13:58:50.000Z</time>
      </trkpt>
      <trkpt lat="49.46772" lon="-1.58363">
        <ele>43.2</ele>
        <time>2019-04-23T13:58:51.000Z</time>
      </trkpt>
      <trkpt lat="49.46771" lon="-1.58363">
        <ele>43.2</ele>
        <time>2019-04-23T13:58:52.000Z</time>
      </trkpt>
      <trkpt lat="49.46769" lon="-1.58364">
        <ele>43.2</ele>
        <time>2019-04-23T13:58:53.000Z</time>
      </trkpt>
      <trkpt lat="49.46767" lon="-1.58364">
        <ele>43.2</ele>
        <time>2019-04-23T13:58:54.000Z</time>
      </trkpt>
      <trkpt lat="49.46765" lon="-1.58365">
        <ele>43.2</ele>
        <time>2019-04-23T13:58:55.000Z</time>
      </trkpt>
      <trkpt lat="49.46763" lon="-1.58365">
        <ele>43.3</ele>
        <time>2019-04-23T13:58:56.000Z</time>
      </trkpt>
      <trkpt lat="49.46761" lon="-1.58365">
        <ele>43.3</ele>
        <time>2019-04-23T13:58:57.000Z</time>
      </trkpt>
      <trkpt lat="49.46759" lon="-1.58366">
        <ele>43.3</ele>
        <time>2019-04-23T13:58:58.000Z</time>
      </trkpt>
      <trkpt lat="49.46758" lon="-1.58366">
        <ele>43.3</ele>
        <time>2019-04-23T13:58:59.000Z</time>
      </trkpt>
      <trkpt lat="49.46756" lon="-1.58366">
        <ele>43.3</ele>
        <time>2019-04-23T13:59:00.000Z</time>
      </trkpt>
      <trkpt lat="49.46754" lon="-1.58366">
        <ele>43.4</ele>
        <time>2019-04-23T13:59:01.000Z</time>
      </trkpt>
      <trkpt lat="49.46753" lon="-1.58367">
        <ele>43.4</ele>
        <time>2019-04-23T13:59:02.000Z</time>
      </trkpt>
      <trkpt lat="49.46751" lon="-1.58367">
        <ele>43.4</ele>
        <time>2019-04-23T13:59:03.000Z</time>
      </trkpt>
      <trkpt lat="49.46749" lon="-1.58367">
        <ele>43.4</ele>
        <time>2019-04-23T13:59:04.000Z</time>
      </trkpt>
      <trkpt lat="49.46748" lon="-1.58367">
        <ele>43.4</ele>
        <time>2019-04-23T13:59:05.000Z</time>
      </trkpt>
      <trkpt lat="49.46746" lon="-1.58368">
        <ele>43.4</ele>
        <time>2019-04-23T13:59:06.000Z</time>
      </trkpt>
      <trkpt lat="49.46745" lon="-1.58368">
        <ele>43.3</ele>
        <time>2019-04-23T13:59:07.000Z</time>
      </trkpt>
      <trkpt lat="49.46743" lon="-1.58368">
        <ele>43.3</ele>
        <time>2019-04-23T13:59:08.000Z</time>
      </trkpt>
      <trkpt lat="49.46742" lon="-1.58368">
        <ele>43.3</ele>
        <time>2019-04-23T13:59:09.000Z</time>
      </trkpt>
      <trkpt lat="49.4674" lon="-1.58369">
        <ele>43.3</ele>
        <time>2019-04-23T13:59:10.000Z</time>
      </trkpt>
      <trkpt lat="49.46739" lon="-1.58369">
        <ele>43.3</ele>
        <time>2019-04-23T13:59:11.000Z</time>
      </trkpt>
      <trkpt lat="49.46737" lon="-1.58369">
        <ele>43.3</ele>
        <time>2019-04-23T13:59:12.000Z</time>
      </trkpt>
      <trkpt lat="49.46736" lon="-1.58369">
        <ele>43.3</ele>
        <time>2019-04-23T13:59:13.000Z</time>
      </trkpt>
      <trkpt lat="49.46734" lon="-1.5837">
        <ele>43.2</ele>
        <time>2019-04-23T13:59:14.000Z</time>
      </trkpt>
      <trkpt lat="49.46733" lon="-1.5837">
        <ele>43.2</ele>
        <time>2019-04-23T13:59:15.000Z</time>
      </trkpt>
      <trkpt lat="49.46732" lon="-1.5837">
        <ele>43.2</ele>
        <time>2019-04-23T13:59:16.000Z</time>
      </trkpt>
      <trkpt lat="49.4673" lon="-1.58371">
        <ele>43.2</ele>
        <time>2019-04-23T13:59:17.000Z</time>
      </trkpt>
      <trkpt lat="49.46729" lon="-1.58371">
        <ele>43.2</ele>
        <time>2019-04-23T13:59:18.000Z</time>
      </trkpt>
      <trkpt lat="49.46727" lon="-1.58371">
        <ele>43.2</ele>
        <time>2019-04-23T13:59:19.000Z</time>
      </trkpt>
      <trkpt lat="49.46726" lon="-1.58372">
        <ele>43.2</ele>
        <time>2019-04-23T13:59:20.000Z</time>
      </trkpt>
      <trkpt lat="49.46725" lon="-1.58372">
        <ele>43.2</ele>
        <time>2019-04-23T13:59:21.000Z</time>
      </trkpt>
      <trkpt lat="49.46723" lon="-1.58372">
        <ele>43.1</ele>
        <time>2019-04-23T13:59:22.000Z</time>
      </trkpt>
      <trkpt lat="49.46722" lon="-1.58373">
        <ele>43.1</ele>
        <time>2019-04-23T13:59:23.000Z</time>
      </trkpt>
      <trkpt lat="49.46721" lon="-1.58373">
        <ele>43.1</ele>
        <time>2019-04-23T13:59:24.000Z</time>
      </trkpt>
      <trkpt lat="49.46719" lon="-1.58373">
        <ele>43.1</ele>
        <time>2019-04-23T13:59:25.000Z</time>
      </trkpt>
      <trkpt lat="49.46718" lon="-1.58374">
        <ele>43.1</ele>
        <time>2019-04-23T13:59:26.000Z</time>
      </trkpt>
      <trkpt lat="49.46717" lon="-1.58374">
        <ele>43.1</ele>
        <time>2019-04-23T13:59:27.000Z</time>
      </trkpt>
      <trkpt lat="49.46715" lon="-1.58375">
        <ele>43.1</ele>
        <time>2019-04-23T13:59:28.000Z</time>
      </trkpt>
      <trkpt lat="49.46714" lon="-1.58375">
        <ele>43.1</ele>
        <time>2019-04-23T13:59:29.000Z</time>
      </trkpt>
      <trkpt lat="49.46713" lon="-1.58375">
        <ele>43.1</ele>
        <time>2019-04-23T13:59:30.000Z</time>
      </trkpt>
      <trkpt lat="49.46712" lon="-1.58376">
        <ele>43</ele>
        <time>2019-04-23T13:59:31.000Z</time>
      </trkpt>
      <trkpt lat="49.4671" lon="-1.58376">
        <ele>43</ele>
        <time>2019-04-23T13:59:32.000Z</time>
      </trkpt>
      <trkpt lat="49.46709" lon="-1.58376">
        <ele>43</ele>
        <time>2019-04-23T13:59:33.000Z</time>
      </trkpt>
      <trkpt lat="49.46708" lon="-1.58376">
        <ele>43</ele>
        <time>2019-04-23T13:59:34.000Z</time>
      </trkpt>
      <trkpt lat="49.46707" lon="-1.58377">
        <ele>43</ele>
        <time>2019-04-23T13:59:35.000Z</time>
      </trkpt>
      <trkpt lat="49.46705" lon="-1.58377">
        <ele>43</ele>
        <time>2019-04-23T13:59:36.000Z</time>
      </trkpt>
      <trkpt lat="49.46704" lon="-1.58377">
        <ele>43</ele>
        <time>2019-04-23T13:59:37.000Z</time>
      </trkpt>
      <trkpt lat="49.46703" lon="-1.58377">
        <ele>43</ele>
        <time>2019-04-23T13:59:38.000Z</time>
      </trkpt>
      <trkpt lat="49.46702" lon="-1.58378">
        <ele>43</ele>
        <time>2019-04-23T13:59:39.000Z</time>
      </trkpt>
      <trkpt lat="49.46701" lon="-1.58378">
        <ele>42.9</ele>
        <time>2019-04-23T13:59:40.000Z</time>
      </trkpt>
      <trkpt lat="49.46699" lon="-1.58378">
        <ele>42.9</ele>
        <time>2019-04-23T13:59:41.000Z</time>
      </trkpt>
      <trkpt lat="49.46698" lon="-1.58378">
        <ele>42.9</ele>
        <time>2019-04-23T13:59:42.000Z</time>
      </trkpt>
      <trkpt lat="49.46697" lon="-1.58378">
        <ele>42.9</ele>
        <time>2019-04-23T13:59:43.000Z</time>
      </trkpt>
      <trkpt lat="49.46696" lon="-1.58378">
        <ele>42.9</ele>
        <time>2019-04-23T13:59:44.000Z</time>
      </trkpt>
      <trkpt lat="49.46695" lon="-1.58378">
        <ele>42.9</ele>
        <time>2019-04-23T13:59:45.000Z</time>
      </trkpt>
      <trkpt lat="49.46694" lon="-1.58378">
        <ele>42.9</ele>
        <time>2019-04-23T13:59:46.000Z</time>
      </trkpt>
      <trkpt lat="49.46693" lon="-1.58378">
        <ele>42.9</ele>
        <time>2019-04-23T13:59:47.000Z</time>
      </trkpt>
      <trkpt lat="49.46692" lon="-1.58378">
        <ele>42.8</ele>
        <time>2019-04-23T13:59:48.000Z</time>
      </trkpt>
      <trkpt lat="49.46691" lon="-1.58378">
        <ele>42.8</ele>
        <time>2019-04-23T13:59:49.000Z</time>
      </trkpt>
      <trkpt lat="49.4669" lon="-1.58378">
        <ele>42.8</ele>
        <time>2019-04-23T13:59:50.000Z</time>
      </trkpt>
      <trkpt lat="49.46689" lon="-1.58379">
        <ele>42.8</ele>
        <time>2019-04-23T13:59:51.000Z</time>
      </trkpt>
      <trkpt lat="49.46688" lon="-1.58379">
        <ele>42.8</ele>
        <time>2019-04-23T13:59:52.000Z</time>
      </trkpt>
      <trkpt lat="49.46687" lon="-1.58379">
        <ele>42.8</ele>
        <time>2019-04-23T13:59:53.000Z</time>
      </trkpt>
      <trkpt lat="49.46686" lon="-1.58379">
        <ele>42.8</ele>
        <time>2019-04-23T13:59:54.000Z</time>
      </trkpt>
      <trkpt lat="49.46685" lon="-1.58379">
        <ele>42.8</ele>
        <time>2019-04-23T13:59:55.000Z</time>
      </trkpt>
      <trkpt lat="49.46684" lon="-1.58379">
        <ele>42.8</ele>
        <time>2019-04-23T13:59:56.000Z</time>
      </trkpt>
      <trkpt lat="49.46682" lon="-1.5838">
        <ele>42.7</ele>
        <time>2019-04-23T13:59:57.000Z</time>
      </trkpt>
      <trkpt lat="49.46681" lon="-1.5838">
        <ele>42.7</ele>
        <time>2019-04-23T13:59:58.000Z</time>
      </trkpt>
      <trkpt lat="49.4668" lon="-1.58381">
        <ele>42.7</ele>
        <time>2019-04-23T13:59:59.000Z</time>
      </trkpt>
      <trkpt lat="49.46679" lon="-1.58381">
        <ele>42.7</ele>
        <time>2019-04-23T14:00:00.000Z</time>
      </trkpt>
      <trkpt lat="49.46677" lon="-1.58382">
        <ele>42.7</ele>
        <time>2019-04-23T14:00:01.000Z</time>
      </trkpt>
      <trkpt lat="49.46676" lon="-1.58382">
        <ele>42.7</ele>
        <time>2019-04-23T14:00:02.000Z</time>
      </trkpt>
      <trkpt lat="49.46675" lon="-1.58383">
        <ele>42.7</ele>
        <time>2019-04-23T14:00:03.000Z</time>
      </trkpt>
      <trkpt lat="49.46673" lon="-1.58383">
        <ele>42.7</ele>
        <time>2019-04-23T14:00:04.000Z</time>
      </trkpt>
      <trkpt lat="49.46672" lon="-1.58383">
        <ele>42.7</ele>
        <time>2019-04-23T14:00:05.000Z</time>
      </trkpt>
      <trkpt lat="49.46671" lon="-1.58384">
        <ele>42.7</ele>
        <time>2019-04-23T14:00:06.000Z</time>
      </trkpt>
      <trkpt lat="49.4667" lon="-1.58384">
        <ele>42.6</ele>
        <time>2019-04-23T14:00:07.000Z</time>
      </trkpt>
      <trkpt lat="49.46668" lon="-1.58384">
        <ele>42.6</ele>
        <time>2019-04-23T14:00:08.000Z</time>
      </trkpt>
      <trkpt lat="49.46667" lon="-1.58384">
        <ele>42.6</ele>
        <time>2019-04-23T14:00:09.000Z</time>
      </trkpt>
      <trkpt lat="49.46666" lon="-1.58385">
        <ele>42.6</ele>
        <time>2019-04-23T14:00:10.000Z</time>
      </trkpt>
      <trkpt lat="49.46664" lon="-1.58385">
        <ele>42.7</ele>
        <time>2019-04-23T14:00:11.000Z</time>
      </trkpt>
      <trkpt lat="49.46663" lon="-1.58385">
        <ele>42.7</ele>
        <time>2019-04-23T14:00:12.000Z</time>
      </trkpt>
      <trkpt lat="49.46661" lon="-1.58385">
        <ele>42.8</ele>
        <time>2019-04-23T14:00:13.000Z</time>
      </trkpt>
      <trkpt lat="49.46659" lon="-1.58385">
        <ele>42.8</ele>
        <time>2019-04-23T14:00:14.000Z</time>
      </trkpt>
      <trkpt lat="49.46658" lon="-1.58385">
        <ele>42.8</ele>
        <time>2019-04-23T14:00:15.000Z</time>
      </trkpt>
      <trkpt lat="49.46656" lon="-1.58385">
        <ele>42.9</ele>
        <time>2019-04-23T14:00:16.000Z</time>
      </trkpt>
      <trkpt lat="49.46654" lon="-1.58385">
        <ele>42.9</ele>
        <time>2019-04-23T14:00:17.000Z</time>
      </trkpt>
      <trkpt lat="49.46652" lon="-1.58385">
        <ele>43</ele>
        <time>2019-04-23T14:00:18.000Z</time>
      </trkpt>
      <trkpt lat="49.46651" lon="-1.58385">
        <ele>43</ele>
        <time>2019-04-23T14:00:19.000Z</time>
      </trkpt>
      <trkpt lat="49.46649" lon="-1.58385">
        <ele>43</ele>
        <time>2019-04-23T14:00:20.000Z</time>
      </trkpt>
      <trkpt lat="49.46648" lon="-1.58385">
        <ele>43.1</ele>
        <time>2019-04-23T14:00:21.000Z</time>
      </trkpt>
      <trkpt lat="49.46647" lon="-1.58385">
        <ele>43.1</ele>
        <time>2019-04-23T14:00:22.000Z</time>
      </trkpt>
      <trkpt lat="49.46646" lon="-1.58385">
        <ele>43.1</ele>
        <time>2019-04-23T14:00:23.000Z</time>
      </trkpt>
      <trkpt lat="49.46645" lon="-1.58385">
        <ele>43.2</ele>
        <time>2019-04-23T14:00:24.000Z</time>
      </trkpt>
      <trkpt lat="49.46644" lon="-1.58385">
        <ele>43.2</ele>
        <time>2019-04-23T14:00:25.000Z</time>
      </trkpt>
      <trkpt lat="49.46643" lon="-1.58385">
        <ele>43.2</ele>
        <time>2019-04-23T14:00:26.000Z</time>
      </trkpt>
      <trkpt lat="49.46641" lon="-1.58385">
        <ele>43.2</ele>
        <time>2019-04-23T14:00:27.000Z</time>
      </trkpt>
      <trkpt lat="49.4664" lon="-1.58385">
        <ele>43.3</ele>
        <time>2019-04-23T14:00:28.000Z</time>
      </trkpt>
      <trkpt lat="49.46639" lon="-1.58385">
        <ele>43.3</ele>
        <time>2019-04-23T14:00:29.000Z</time>
      </trkpt>
      <trkpt lat="49.46638" lon="-1.58385">
        <ele>43.3</ele>
        <time>2019-04-23T14:00:30.000Z</time>
      </trkpt>
      <trkpt lat="49.46637" lon="-1.58384">
        <ele>43.3</ele>
        <time>2019-04-23T14:00:31.000Z</time>
      </trkpt>
      <trkpt lat="49.46637" lon="-1.58384">
        <ele>43.3</ele>
        <time>2019-04-23T14:00:32.000Z</time>
      </trkpt>
      <trkpt lat="49.46636" lon="-1.58383">
        <ele>43.3</ele>
        <time>2019-04-23T14:00:33.000Z</time>
      </trkpt>
      <trkpt lat="49.46635" lon="-1.58383">
        <ele>43.4</ele>
        <time>2019-04-23T14:00:34.000Z</time>
      </trkpt>
      <trkpt lat="49.46635" lon="-1.58383">
        <ele>43.4</ele>
        <time>2019-04-23T14:00:35.000Z</time>
      </trkpt>
      <trkpt lat="49.46634" lon="-1.58382">
        <ele>43.4</ele>
        <time>2019-04-23T14:00:36.000Z</time>
      </trkpt>
      <trkpt lat="49.46634" lon="-1.58382">
        <ele>43.4</ele>
        <time>2019-04-23T14:00:37.000Z</time>
      </trkpt>
      <trkpt lat="49.46633" lon="-1.58381">
        <ele>43.4</ele>
        <time>2019-04-23T14:00:38.000Z</time>
      </trkpt>
      <trkpt lat="49.46633" lon="-1.58381">
        <ele>43.4</ele>
        <time>2019-04-23T14:00:39.000Z</time>
      </trkpt>
      <trkpt lat="49.46633" lon="-1.58381">
        <ele>43.4</ele>
        <time>2019-04-23T14:00:40.000Z</time>
      </trkpt>
      <trkpt lat="49.46633" lon="-1.5838">
        <ele>43.4</ele>
        <time>2019-04-23T14:00:41.000Z</time>
      </trkpt>
      <trkpt lat="49.46633" lon="-1.5838">
        <ele>43.4</ele>
        <time>2019-04-23T14:00:42.000Z</time>
      </trkpt>
      <trkpt lat="49.46633" lon="-1.5838">
        <ele>43.4</ele>
        <time>2019-04-23T14:00:43.000Z</time>
      </trkpt>
      <trkpt lat="49.46633" lon="-1.5838">
        <ele>43.4</ele>
        <time>2019-04-23T14:00:44.000Z</time>
      </trkpt>
      <trkpt lat="49.46633" lon="-1.5838">
        <ele>43.4</ele>
        <time>2019-04-23T14:00:45.000Z</time>
      </trkpt>
      <trkpt lat="49.46633" lon="-1.5838">
        <ele>43.4</ele>
        <time>2019-04-23T14:00:46.000Z</time>
      </trkpt>
      <trkpt lat="49.46633" lon="-1.5838">
        <ele>43.4</ele>
        <time>2019-04-23T14:00:47.000Z</time>
      </trkpt>
      <trkpt lat="49.46633" lon="-1.5838">
        <ele>43.4</ele>
        <time>2019-04-23T14:00:48.000Z</time>
      </trkpt>
      <trkpt lat="49.46633" lon="-1.5838">
        <ele>43.4</ele>
        <time>2019-04-23T14:00:49.000Z</time>
      </trkpt>
      <trkpt lat="49.46633" lon="-1.5838">
        <ele>43.4</ele>
        <time>2019-04-23T14:00:50.000Z</time>
      </trkpt>
      <trkpt lat="49.46633" lon="-1.5838">
        <ele>43.4</ele>
        <time>2019-04-23T14:00:51.000Z</time>
      </trkpt>
      <trkpt lat="49.46633" lon="-1.5838">
        <ele>43.4</ele>
        <time>2019-04-23T14:00:52.000Z</time>
      </trkpt>
      <trkpt lat="49.46633" lon="-1.5838">
        <ele>43.4</ele>
        <time>2019-04-23T14:00:53.000Z</time>
      </trkpt>
      <trkpt lat="49.46633" lon="-1.5838">
        <ele>43.4</ele>
        <time>2019-04-23T14:00:54.000Z</time>
      </trkpt>
      <trkpt lat="49.46633" lon="-1.5838">
        <ele>43.4</ele>
        <time>2019-04-23T14:00:55.000Z</time>
      </trkpt>
      <trkpt lat="49.46633" lon="-1.5838">
        <ele>43.4</ele>
        <time>2019-04-23T14:00:56.000Z</time>
      </trkpt>
      <trkpt lat="49.46633" lon="-1.5838">
        <ele>43.4</ele>
        <time>2019-04-23T14:00:57.000Z</time>
      </trkpt>
      <trkpt lat="49.46633" lon="-1.5838">
        <ele>43.4</ele>
        <time>2019-04-23T14:00:58.000Z</time>
      </trkpt>
      <trkpt lat="49.46633" lon="-1.5838">
        <ele>43.4</ele>
        <time>2019-04-23T14:00:59.000Z</time>
      </trkpt>
      <trkpt lat="49.46633" lon="-1.5838">
        <ele>43.4</ele>
        <time>2019-04-23T14:01:00.000Z</time>
      </trkpt>
      <trkpt lat="49.46633" lon="-1.5838">
        <ele>43.4</ele>
        <time>2019-04-23T14:01:01.000Z</time>
      </trkpt>
      <trkpt lat="49.46633" lon="-1.5838">
        <ele>43.4</ele>
        <time>2019-04-23T14:01:02.000Z</time>
      </trkpt>
      <trkpt lat="49.46633" lon="-1.5838">
        <ele>43.4</ele>
        <time>2019-04-23T14:01:03.000Z</time>
      </trkpt>
      <trkpt lat="49.46633" lon="-1.5838">
        <ele>43.4</ele>
        <time>2019-04-23T14:01:04.000Z</time>
      </trkpt>
      <trkpt lat="49.46633" lon="-1.5838">
        <ele>43.4</ele>
        <time>2019-04-23T14:01:05.000Z</time>
      </trkpt>
      <trkpt lat="49.46633" lon="-1.5838">
        <ele>43.4</ele>
        <time>2019-04-23T14:01:06.000Z</time>
      </trkpt>
      <trkpt lat="49.46633" lon="-1.5838">
        <ele>43.4</ele>
        <time>2019-04-23T14:01:07.000Z</time>
      </trkpt>
      <trkpt lat="49.46633" lon="-1.5838">
        <ele>43.4</ele>
        <time>2019-04-23T14:01:08.000Z</time>
      </trkpt>
      <trkpt lat="49.46633" lon="-1.5838">
        <ele>43.4</ele>
        <time>2019-04-23T14:01:09.000Z</time>
      </trkpt>
      <trkpt lat="49.46633" lon="-1.5838">
        <ele>43.4</ele>
        <time>2019-04-23T14:01:10.000Z</time>
      </trkpt>
      <trkpt lat="49.46633" lon="-1.5838">
        <ele>43.4</ele>
        <time>2019-04-23T14:01:11.000Z</time>
      </trkpt>
      <trkpt lat="49.46633" lon="-1.5838">
        <ele>43.4</ele>
        <time>2019-04-23T14:01:12.000Z</time>
      </trkpt>
      <trkpt lat="49.46633" lon="-1.5838">
        <ele>43.4</ele>
        <time>2019-04-23T14:01:13.000Z</time>
      </trkpt>
      <trkpt lat="49.46633" lon="-1.5838">
        <ele>43.4</ele>
        <time>2019-04-23T14:01:14.000Z</time>
      </trkpt>
      <trkpt lat="49.46633" lon="-1.5838">
        <ele>43.4</ele>
        <time>2019-04-23T14:01:15.000Z</time>
      </trkpt>
      <trkpt lat="49.46633" lon="-1.5838">
        <ele>43.4</ele>
        <time>2019-04-23T14:01:16.000Z</time>
      </trkpt>
      <trkpt lat="49.46633" lon="-1.5838">
        <ele>43.4</ele>
        <time>2019-04-23T14:01:17.000Z</time>
      </trkpt>
      <trkpt lat="49.46633" lon="-1.5838">
        <ele>43.4</ele>
        <time>2019-04-23T14:01:18.000Z</time>
      </trkpt>
      <trkpt lat="49.46633" lon="-1.5838">
        <ele>43.4</ele>
        <time>2019-04-23T14:01:19.000Z</time>
      </trkpt>
      <trkpt lat="49.46633" lon="-1.5838">
        <ele>43.4</ele>
        <time>2019-04-23T14:01:20.000Z</time>
      </trkpt>
      <trkpt lat="49.46633" lon="-1.5838">
        <ele>43.4</ele>
        <time>2019-04-23T14:01:21.000Z</time>
      </trkpt>
      <trkpt lat="49.46633" lon="-1.5838">
        <ele>43.4</ele>
        <time>2019-04-23T14:01:22.000Z</time>
      </trkpt>
      <trkpt lat="49.46633" lon="-1.5838">
        <ele>43.4</ele>
        <time>2019-04-23T14:01:23.000Z</time>
      </trkpt>
      <trkpt lat="49.46633" lon="-1.5838">
        <ele>43.4</ele>
        <time>2019-04-23T14:01:24.000Z</time>
      </trkpt>
      <trkpt lat="49.46633" lon="-1.5838">
        <ele>43.4</ele>
        <time>2019-04-23T14:01:25.000Z</time>
      </trkpt>
      <trkpt lat="49.46633" lon="-1.5838">
        <ele>43.4</ele>
        <time>2019-04-23T14:01:26.000Z</time>
      </trkpt>
      <trkpt lat="49.46633" lon="-1.5838">
        <ele>43.4</ele>
        <time>2019-04-23T14:01:27.000Z</time>
      </trkpt>
      <trkpt lat="49.46633" lon="-1.5838">
        <ele>43.4</ele>
        <time>2019-04-23T14:01:28.000Z</time>
      </trkpt>
      <trkpt lat="49.46633" lon="-1.5838">
        <ele>43.4</ele>
        <time>2019-04-23T14:01:29.000Z</time>
      </trkpt>
      <trkpt lat="49.46633" lon="-1.5838">
        <ele>43.4</ele>
        <time>2019-04-23T14:01:30.000Z</time>
      </trkpt>
      <trkpt lat="49.46633" lon="-1.5838">
        <ele>43.4</ele>
        <time>2019-04-23T14:01:31.000Z</time>
      </trkpt>
      <trkpt lat="49.46633" lon="-1.5838">
        <ele>43.4</ele>
        <time>2019-04-23T14:01:32.000Z</time>
      </trkpt>
      <trkpt lat="49.46633" lon="-1.5838">
        <ele>43.4</ele>
        <time>2019-04-23T14:01:33.000Z</time>
      </trkpt>
      <trkpt lat="49.46633" lon="-1.5838">
        <ele>43.4</ele>
        <time>2019-04-23T14:01:34.000Z</time>
      </trkpt>
      <trkpt lat="49.46633" lon="-1.5838">
        <ele>43.4</ele>
        <time>2019-04-23T14:01:35.000Z</time>
      </trkpt>
      <trkpt lat="49.46633" lon="-1.5838">
        <ele>43.4</ele>
        <time>2019-04-23T14:01:36.000Z</time>
      </trkpt>
      <trkpt lat="49.46633" lon="-1.5838">
        <ele>43.4</ele>
        <time>2019-04-23T14:01:37.000Z</time>
      </trkpt>
      <trkpt lat="49.46633" lon="-1.5838">
        <ele>43.4</ele>
        <time>2019-04-23T14:01:38.000Z</time>
      </trkpt>
      <trkpt lat="49.46633" lon="-1.5838">
        <ele>43.4</ele>
        <time>2019-04-23T14:01:39.000Z</time>
      </trkpt>
      <trkpt lat="49.46633" lon="-1.5838">
        <ele>43.4</ele>
        <time>2019-04-23T14:01:40.000Z</time>
      </trkpt>
      <trkpt lat="49.46633" lon="-1.5838">
        <ele>43.4</ele>
        <time>2019-04-23T14:01:41.000Z</time>
      </trkpt>
      <trkpt lat="49.46633" lon="-1.5838">
        <ele>43.4</ele>
        <time>2019-04-23T14:01:42.000Z</time>
      </trkpt>
      <trkpt lat="49.46633" lon="-1.5838">
        <ele>43.4</ele>
        <time>2019-04-23T14:01:43.000Z</time>
      </trkpt>
      <trkpt lat="49.46633" lon="-1.5838">
        <ele>43.4</ele>
        <time>2019-04-23T14:01:44.000Z</time>
      </trkpt>
      <trkpt lat="49.46633" lon="-1.5838">
        <ele>43.4</ele>
        <time>2019-04-23T14:01:45.000Z</time>
      </trkpt>
      <trkpt lat="49.46633" lon="-1.5838">
        <ele>43.4</ele>
        <time>2019-04-23T14:01:46.000Z</time>
      </trkpt>
      <trkpt lat="49.46633" lon="-1.5838">
        <ele>43.4</ele>
        <time>2019-04-23T14:01:47.000Z</time>
      </trkpt>
      <trkpt lat="49.46633" lon="-1.5838">
        <ele>43.4</ele>
        <time>2019-04-23T14:01:48.000Z</time>
      </trkpt>
      <trkpt lat="49.46633" lon="-1.5838">
        <ele>43.4</ele>
        <time>2019-04-23T14:01:49.000Z</time>
      </trkpt>
      <trkpt lat="49.46633" lon="-1.5838">
        <ele>43.4</ele>
        <time>2019-04-23T14:01:50.000Z</time>
      </trkpt>
      <trkpt lat="49.46633" lon="-1.5838">
        <ele>43.4</ele>
        <time>2019-04-23T14:01:51.000Z</time>
      </trkpt>
      <trkpt lat="49.46633" lon="-1.5838">
        <ele>43.4</ele>
        <time>2019-04-23T14:01:52.000Z</time>
      </trkpt>
      <trkpt lat="49.46633" lon="-1.5838">
        <ele>43.4</ele>
        <time>2019-04-23T14:01:53.000Z</time>
      </trkpt>
      <trkpt lat="49.46633" lon="-1.5838">
        <ele>43.4</ele>
        <time>2019-04-23T14:01:54.000Z</time>
      </trkpt>
      <trkpt lat="49.46633" lon="-1.5838">
        <ele>43.4</ele>
        <time>2019-04-23T14:01:55.000Z</time>
      </trkpt>
      <trkpt lat="49.46633" lon="-1.5838">
        <ele>43.4</ele>
        <time>2019-04-23T14:01:56.000Z</time>
      </trkpt>
      <trkpt lat="49.46633" lon="-1.5838">
        <ele>43.4</ele>
        <time>2019-04-23T14:01:57.000Z</time>
      </trkpt>
      <trkpt lat="49.46633" lon="-1.5838">
        <ele>43.4</ele>
        <time>2019-04-23T14:01:58.000Z</time>
      </trkpt>
      <trkpt lat="49.46633" lon="-1.5838">
        <ele>43.4</ele>
        <time>2019-04-23T14:01:59.000Z</time>
      </trkpt>
      <trkpt lat="49.46633" lon="-1.5838">
        <ele>43.4</ele>
        <time>2019-04-23T14:02:00.000Z</time>
      </trkpt>
      <trkpt lat="49.46633" lon="-1.5838">
        <ele>43.4</ele>
        <time>2019-04-23T14:02:01.000Z</time>
      </trkpt>
      <trkpt lat="49.46633" lon="-1.5838">
        <ele>43.4</ele>
        <time>2019-04-23T14:02:02.000Z</time>
      </trkpt>
      <trkpt lat="49.46633" lon="-1.5838">
        <ele>43.4</ele>
        <time>2019-04-23T14:02:03.000Z</time>
      </trkpt>
      <trkpt lat="49.46633" lon="-1.5838">
        <ele>43.4</ele>
        <time>2019-04-23T14:02:04.000Z</time>
      </trkpt>
      <trkpt lat="49.46633" lon="-1.5838">
        <ele>43.4</ele>
        <time>2019-04-23T14:02:05.000Z</time>
      </trkpt>
      <trkpt lat="49.46633" lon="-1.5838">
        <ele>43.4</ele>
        <time>2019-04-23T14:02:06.000Z</time>
      </trkpt>
      <trkpt lat="49.46633" lon="-1.5838">
        <ele>43.4</ele>
        <time>2019-04-23T14:02:07.000Z</time>
      </trkpt>
      <trkpt lat="49.46633" lon="-1.5838">
        <ele>43.4</ele>
        <time>2019-04-23T14:02:08.000Z</time>
      </trkpt>
      <trkpt lat="49.46633" lon="-1.5838">
        <ele>43.4</ele>
        <time>2019-04-23T14:02:09.000Z</time>
      </trkpt>
      <trkpt lat="49.46633" lon="-1.5838">
        <ele>43.4</ele>
        <time>2019-04-23T14:02:10.000Z</time>
      </trkpt>
      <trkpt lat="49.46633" lon="-1.5838">
        <ele>43.4</ele>
        <time>2019-04-23T14:02:11.000Z</time>
      </trkpt>
      <trkpt lat="49.46633" lon="-1.5838">
        <ele>43.4</ele>
        <time>2019-04-23T14:02:12.000Z</time>
      </trkpt>
      <trkpt lat="49.46633" lon="-1.5838">
        <ele>43.4</ele>
        <time>2019-04-23T14:02:13.000Z</time>
      </trkpt>
      <trkpt lat="49.46633" lon="-1.5838">
        <ele>43.4</ele>
        <time>2019-04-23T14:02:14.000Z</time>
      </trkpt>
      <trkpt lat="49.46633" lon="-1.5838">
        <ele>43.4</ele>
        <time>2019-04-23T14:02:15.000Z</time>
      </trkpt>
      <trkpt lat="49.46633" lon="-1.5838">
        <ele>43.4</ele>
        <time>2019-04-23T14:02:16.000Z</time>
      </trkpt>
      <trkpt lat="49.46633" lon="-1.5838">
        <ele>43.4</ele>
        <time>2019-04-23T14:02:17.000Z</time>
      </trkpt>
      <trkpt lat="49.46633" lon="-1.5838">
        <ele>43.4</ele>
        <time>2019-04-23T14:02:18.000Z</time>
      </trkpt>
      <trkpt lat="49.46633" lon="-1.5838">
        <ele>43.4</ele>
        <time>2019-04-23T14:02:19.000Z</time>
      </trkpt>
      <trkpt lat="49.46633" lon="-1.5838">
        <ele>43.4</ele>
        <time>2019-04-23T14:02:20.000Z</time>
      </trkpt>
      <trkpt lat="49.46633" lon="-1.5838">
        <ele>43.4</ele>
        <time>2019-04-23T14:02:21.000Z</time>
      </trkpt>
      <trkpt lat="49.46633" lon="-1.5838">
        <ele>43.4</ele>
        <time>2019-04-23T14:02:22.000Z</time>
      </trkpt>
      <trkpt lat="49.46633" lon="-1.5838">
        <ele>43.4</ele>
        <time>2019-04-23T14:02:23.000Z</time>
      </trkpt>
      <trkpt lat="49.46633" lon="-1.5838">
        <ele>43.4</ele>
        <time>2019-04-23T14:02:24.000Z</time>
      </trkpt>
      <trkpt lat="49.46633" lon="-1.5838">
        <ele>43.4</ele>
        <time>2019-04-23T14:02:25.000Z</time>
      </trkpt>
      <trkpt lat="49.46633" lon="-1.5838">
        <ele>43.4</ele>
        <time>2019-04-23T14:02:26.000Z</time>
      </trkpt>
      <trkpt lat="49.46633" lon="-1.5838">
        <ele>43.4</ele>
        <time>2019-04-23T14:02:27.000Z</time>
      </trkpt>
      <trkpt lat="49.46633" lon="-1.5838">
        <ele>43.4</ele>
        <time>2019-04-23T14:02:28.000Z</time>
      </trkpt>
      <trkpt lat="49.46633" lon="-1.5838">
        <ele>43.4</ele>
        <time>2019-04-23T14:02:29.000Z</time>
      </trkpt>
      <trkpt lat="49.46633" lon="-1.5838">
        <ele>43.4</ele>
        <time>2019-04-23T14:02:30.000Z</time>
      </trkpt>
      <trkpt lat="49.46633" lon="-1.5838">
        <ele>43.4</ele>
        <time>2019-04-23T14:02:31.000Z</time>
      </trkpt>
      <trkpt lat="49.46633" lon="-1.5838">
        <ele>43.4</ele>
        <time>2019-04-23T14:02:32.000Z</time>
      </trkpt>
      <trkpt lat="49.46633" lon="-1.5838">
        <ele>43.4</ele>
        <time>2019-04-23T14:02:33.000Z</time>
      </trkpt>
      <trkpt lat="49.46633" lon="-1.5838">
        <ele>43.4</ele>
        <time>2019-04-23T14:02:34.000Z</time>
      </trkpt>
      <trkpt lat="49.46633" lon="-1.5838">
        <ele>43.4</ele>
        <time>2019-04-23T14:02:35.000Z</time>
      </trkpt>
      <trkpt lat="49.46633" lon="-1.5838">
        <ele>43.4</ele>
        <time>2019-04-23T14:02:36.000Z</time>
      </trkpt>
      <trkpt lat="49.46633" lon="-1.5838">
        <ele>43.4</ele>
        <time>2019-04-23T14:02:37.000Z</time>
      </trkpt>
      <trkpt lat="49.46632" lon="-1.5838">
        <ele>43.4</ele>
        <time>2019-04-23T14:02:38.000Z</time>
      </trkpt>
      <trkpt lat="49.46632" lon="-1.5838">
        <ele>43.4</ele>
        <time>2019-04-23T14:02:39.000Z</time>
      </trkpt>
      <trkpt lat="49.46632" lon="-1.58381">
        <ele>43.4</ele>
        <time>2019-04-23T14:02:40.000Z</time>
      </trkpt>
      <trkpt lat="49.46632" lon="-1.58382">
        <ele>43.4</ele>
        <time>2019-04-23T14:02:41.000Z</time>
      </trkpt>
      <trkpt lat="49.46631" lon="-1.58383">
        <ele>43.4</ele>
        <time>2019-04-23T14:02:42.000Z</time>
      </trkpt>
      <trkpt lat="49.46631" lon="-1.58385">
        <ele>43.5</ele>
        <time>2019-04-23T14:02:43.000Z</time>
      </trkpt>
      <trkpt lat="49.46631" lon="-1.58386">
        <ele>43.5</ele>
        <time>2019-04-23T14:02:44.000Z</time>
      </trkpt>
      <trkpt lat="49.46631" lon="-1.58387">
        <ele>43.5</ele>
        <time>2019-04-23T14:02:45.000Z</time>
      </trkpt>
      <trkpt lat="49.46631" lon="-1.58387">
        <ele>43.5</ele>
        <time>2019-04-23T14:02:46.000Z</time>
      </trkpt>
      <trkpt lat="49.46632" lon="-1.58388">
        <ele>43.5</ele>
        <time>2019-04-23T14:02:47.000Z</time>
      </trkpt>
      <trkpt lat="49.46632" lon="-1.58388">
        <ele>43.5</ele>
        <time>2019-04-23T14:02:48.000Z</time>
      </trkpt>
      <trkpt lat="49.46632" lon="-1.58388">
        <ele>43.5</ele>
        <time>2019-04-23T14:02:49.000Z</time>
      </trkpt>
      <trkpt lat="49.46632" lon="-1.58388">
        <ele>43.5</ele>
        <time>2019-04-23T14:02:50.000Z</time>
      </trkpt>
      <trkpt lat="49.46632" lon="-1.58388">
        <ele>43.5</ele>
        <time>2019-04-23T14:02:51.000Z</time>
      </trkpt>
      <trkpt lat="49.46632" lon="-1.58388">
        <ele>43.5</ele>
        <time>2019-04-23T14:02:52.000Z</time>
      </trkpt>
      <trkpt lat="49.46632" lon="-1.58388">
        <ele>43.5</ele>
        <time>2019-04-23T14:02:53.000Z</time>
      </trkpt>
      <trkpt lat="49.46632" lon="-1.58388">
        <ele>43.5</ele>
        <time>2019-04-23T14:02:54.000Z</time>
      </trkpt>
      <trkpt lat="49.46632" lon="-1.58388">
        <ele>43.5</ele>
        <time>2019-04-23T14:02:55.000Z</time>
      </trkpt>
      <trkpt lat="49.46632" lon="-1.58388">
        <ele>43.5</ele>
        <time>2019-04-23T14:02:56.000Z</time>
      </trkpt>
      <trkpt lat="49.46632" lon="-1.58388">
        <ele>43.5</ele>
        <time>2019-04-23T14:02:57.000Z</time>
      </trkpt>
      <trkpt lat="49.46632" lon="-1.58388">
        <ele>43.5</ele>
        <time>2019-04-23T14:02:58.000Z</time>
      </trkpt>
      <trkpt lat="49.46632" lon="-1.58388">
        <ele>43.5</ele>
        <time>2019-04-23T14:02:59.000Z</time>
      </trkpt>
      <trkpt lat="49.46632" lon="-1.58388">
        <ele>43.5</ele>
        <time>2019-04-23T14:03:00.000Z</time>
      </trkpt>
      <trkpt lat="49.46632" lon="-1.58388">
        <ele>43.5</ele>
        <time>2019-04-23T14:03:01.000Z</time>
      </trkpt>
      <trkpt lat="49.46632" lon="-1.58388">
        <ele>43.5</ele>
        <time>2019-04-23T14:03:02.000Z</time>
      </trkpt>
      <trkpt lat="49.46632" lon="-1.58388">
        <ele>43.5</ele>
        <time>2019-04-23T14:03:03.000Z</time>
      </trkpt>
      <trkpt lat="49.46632" lon="-1.58388">
        <ele>43.5</ele>
        <time>2019-04-23T14:03:04.000Z</time>
      </trkpt>
      <trkpt lat="49.46632" lon="-1.58388">
        <ele>43.5</ele>
        <time>2019-04-23T14:03:05.000Z</time>
      </trkpt>
      <trkpt lat="49.46632" lon="-1.58388">
        <ele>43.5</ele>
        <time>2019-04-23T14:03:06.000Z</time>
      </trkpt>
      <trkpt lat="49.46632" lon="-1.58388">
        <ele>43.5</ele>
        <time>2019-04-23T14:03:07.000Z</time>
      </trkpt>
      <trkpt lat="49.46632" lon="-1.58388">
        <ele>43.5</ele>
        <time>2019-04-23T14:03:08.000Z</time>
      </trkpt>
      <trkpt lat="49.46632" lon="-1.58388">
        <ele>43.5</ele>
        <time>2019-04-23T14:03:09.000Z</time>
      </trkpt>
      <trkpt lat="49.46632" lon="-1.58388">
        <ele>43.5</ele>
        <time>2019-04-23T14:03:10.000Z</time>
      </trkpt>
      <trkpt lat="49.46632" lon="-1.58388">
        <ele>43.5</ele>
        <time>2019-04-23T14:03:11.000Z</time>
      </trkpt>
      <trkpt lat="49.46632" lon="-1.58388">
        <ele>43.5</ele>
        <time>2019-04-23T14:03:12.000Z</time>
      </trkpt>
      <trkpt lat="49.46632" lon="-1.58388">
        <ele>43.5</ele>
        <time>2019-04-23T14:03:13.000Z</time>
      </trkpt>
      <trkpt lat="49.46632" lon="-1.58388">
        <ele>43.5</ele>
        <time>2019-04-23T14:03:14.000Z</time>
      </trkpt>
      <trkpt lat="49.46632" lon="-1.58388">
        <ele>43.5</ele>
        <time>2019-04-23T14:03:15.000Z</time>
      </trkpt>
      <trkpt lat="49.46632" lon="-1.58388">
        <ele>43.5</ele>
        <time>2019-04-23T14:03:16.000Z</time>
      </trkpt>
      <trkpt lat="49.46632" lon="-1.58388">
        <ele>43.5</ele>
        <time>2019-04-23T14:03:17.000Z</time>
      </trkpt>
      <trkpt lat="49.46632" lon="-1.58387">
        <ele>43.5</ele>
        <time>2019-04-23T14:03:18.000Z</time>
      </trkpt>
      <trkpt lat="49.46632" lon="-1.58387">
        <ele>43.5</ele>
        <time>2019-04-23T14:03:19.000Z</time>
      </trkpt>
      <trkpt lat="49.46632" lon="-1.58387">
        <ele>43.5</ele>
        <time>2019-04-23T14:03:20.000Z</time>
      </trkpt>
      <trkpt lat="49.46632" lon="-1.58386">
        <ele>43.5</ele>
        <time>2019-04-23T14:03:21.000Z</time>
      </trkpt>
      <trkpt lat="49.46632" lon="-1.58385">
        <ele>43.4</ele>
        <time>2019-04-23T14:03:22.000Z</time>
      </trkpt>
      <trkpt lat="49.46632" lon="-1.58384">
        <ele>43.4</ele>
        <time>2019-04-23T14:03:23.000Z</time>
      </trkpt>
      <trkpt lat="49.46633" lon="-1.58383">
        <ele>43.4</ele>
        <time>2019-04-23T14:03:24.000Z</time>
      </trkpt>
      <trkpt lat="49.46633" lon="-1.58382">
        <ele>43.4</ele>
        <time>2019-04-23T14:03:25.000Z</time>
      </trkpt>
      <trkpt lat="49.46633" lon="-1.58381">
        <ele>43.4</ele>
        <time>2019-04-23T14:03:26.000Z</time>
      </trkpt>
      <trkpt lat="49.46633" lon="-1.58379">
        <ele>43.4</ele>
        <time>2019-04-23T14:03:27.000Z</time>
      </trkpt>
      <trkpt lat="49.46633" lon="-1.58377">
        <ele>43.3</ele>
        <time>2019-04-23T14:03:28.000Z</time>
      </trkpt>
      <trkpt lat="49.46633" lon="-1.58376">
        <ele>43.3</ele>
        <time>2019-04-23T14:03:29.000Z</time>
      </trkpt>
      <trkpt lat="49.46633" lon="-1.58374">
        <ele>43.3</ele>
        <time>2019-04-23T14:03:30.000Z</time>
      </trkpt>
      <trkpt lat="49.46633" lon="-1.58372">
        <ele>43.3</ele>
        <time>2019-04-23T14:03:31.000Z</time>
      </trkpt>
      <trkpt lat="49.46634" lon="-1.58371">
        <ele>43.2</ele>
        <time>2019-04-23T14:03:32.000Z</time>
      </trkpt>
      <trkpt lat="49.46634" lon="-1.58369">
        <ele>43.2</ele>
        <time>2019-04-23T14:03:33.000Z</time>
      </trkpt>
      <trkpt lat="49.46635" lon="-1.58367">
        <ele>43.2</ele>
        <time>2019-04-23T14:03:34.000Z</time>
      </trkpt>
      <trkpt lat="49.46635" lon="-1.58366">
        <ele>43.1</ele>
        <time>2019-04-23T14:03:35.000Z</time>
      </trkpt>
      <trkpt lat="49.46636" lon="-1.58364">
        <ele>43.1</ele>
        <time>2019-04-23T14:03:36.000Z</time>
      </trkpt>
      <trkpt lat="49.46636" lon="-1.58362">
        <ele>43.1</ele>
        <time>2019-04-23T14:03:37.000Z</time>
      </trkpt>
      <trkpt lat="49.46637" lon="-1.58361">
        <ele>43.1</ele>
        <time>2019-04-23T14:03:38.000Z</time>
      </trkpt>
      <trkpt lat="49.46637" lon="-1.58359">
        <ele>43</ele>
        <time>2019-04-23T14:03:39.000Z</time>
      </trkpt>
      <trkpt lat="49.46638" lon="-1.58357">
        <ele>43</ele>
        <time>2019-04-23T14:03:40.000Z</time>
      </trkpt>
      <trkpt lat="49.46638" lon="-1.58356">
        <ele>42.9</ele>
        <time>2019-04-23T14:03:41.000Z</time>
      </trkpt>
      <trkpt lat="49.46639" lon="-1.58354">
        <ele>42.9</ele>
        <time>2019-04-23T14:03:42.000Z</time>
      </trkpt>
      <trkpt lat="49.46639" lon="-1.58352">
        <ele>42.9</ele>
        <time>2019-04-23T14:03:43.000Z</time>
      </trkpt>
      <trkpt lat="49.4664" lon="-1.5835">
        <ele>42.8</ele>
        <time>2019-04-23T14:03:44.000Z</time>
      </trkpt>
      <trkpt lat="49.4664" lon="-1.58348">
        <ele>42.8</ele>
        <time>2019-04-23T14:03:45.000Z</time>
      </trkpt>
      <trkpt lat="49.46641" lon="-1.58346">
        <ele>42.8</ele>
        <time>2019-04-23T14:03:46.000Z</time>
      </trkpt>
      <trkpt lat="49.46641" lon="-1.58345">
        <ele>42.7</ele>
        <time>2019-04-23T14:03:47.000Z</time>
      </trkpt>
      <trkpt lat="49.46642" lon="-1.58343">
        <ele>42.7</ele>
        <time>2019-04-23T14:03:48.000Z</time>
      </trkpt>
      <trkpt lat="49.46642" lon="-1.58341">
        <ele>42.7</ele>
        <time>2019-04-23T14:03:49.000Z</time>
      </trkpt>
      <trkpt lat="49.46643" lon="-1.58339">
        <ele>42.7</ele>
        <time>2019-04-23T14:03:50.000Z</time>
      </trkpt>
      <trkpt lat="49.46643" lon="-1.58338">
        <ele>42.6</ele>
        <time>2019-04-23T14:03:51.000Z</time>
      </trkpt>
      <trkpt lat="49.46644" lon="-1.58336">
        <ele>42.6</ele>
        <time>2019-04-23T14:03:52.000Z</time>
      </trkpt>
      <trkpt lat="49.46644" lon="-1.58335">
        <ele>42.6</ele>
        <time>2019-04-23T14:03:53.000Z</time>
      </trkpt>
      <trkpt lat="49.46644" lon="-1.58333">
        <ele>42.5</ele>
        <time>2019-04-23T14:03:54.000Z</time>
      </trkpt>
      <trkpt lat="49.46645" lon="-1.58331">
        <ele>42.5</ele>
        <time>2019-04-23T14:03:55.000Z</time>
      </trkpt>
      <trkpt lat="49.46645" lon="-1.5833">
        <ele>42.4</ele>
        <time>2019-04-23T14:03:56.000Z</time>
      </trkpt>
      <trkpt lat="49.46646" lon="-1.58328">
        <ele>42.4</ele>
        <time>2019-04-23T14:03:57.000Z</time>
      </trkpt>
      <trkpt lat="49.46646" lon="-1.58326">
        <ele>42.3</ele>
        <time>2019-04-23T14:03:58.000Z</time>
      </trkpt>
      <trkpt lat="49.46647" lon="-1.58325">
        <ele>42.2</ele>
        <time>2019-04-23T14:03:59.000Z</time>
      </trkpt>
      <trkpt lat="49.46647" lon="-1.58323">
        <ele>42.2</ele>
        <time>2019-04-23T14:04:00.000Z</time>
      </trkpt>
      <trkpt lat="49.46647" lon="-1.58321">
        <ele>42.1</ele>
        <time>2019-04-23T14:04:01.000Z</time>
      </trkpt>
      <trkpt lat="49.46648" lon="-1.58319">
        <ele>42.1</ele>
        <time>2019-04-23T14:04:02.000Z</time>
      </trkpt>
      <trkpt lat="49.46648" lon="-1.58318">
        <ele>42</ele>
        <time>2019-04-23T14:04:03.000Z</time>
      </trkpt>
      <trkpt lat="49.46648" lon="-1.58316">
        <ele>42</ele>
        <time>2019-04-23T14:04:04.000Z</time>
      </trkpt>
      <trkpt lat="49.46649" lon="-1.58314">
        <ele>41.9</ele>
        <time>2019-04-23T14:04:05.000Z</time>
      </trkpt>
      <trkpt lat="49.46649" lon="-1.58312">
        <ele>41.9</ele>
        <time>2019-04-23T14:04:06.000Z</time>
      </trkpt>
      <trkpt lat="49.46649" lon="-1.5831">
        <ele>41.8</ele>
        <time>2019-04-23T14:04:07.000Z</time>
      </trkpt>
      <trkpt lat="49.46649" lon="-1.58308">
        <ele>41.8</ele>
        <time>2019-04-23T14:04:08.000Z</time>
      </trkpt>
      <trkpt lat="49.4665" lon="-1.58307">
        <ele>41.7</ele>
        <time>2019-04-23T14:04:09.000Z</time>
      </trkpt>
      <trkpt lat="49.4665" lon="-1.58305">
        <ele>41.6</ele>
        <time>2019-04-23T14:04:10.000Z</time>
      </trkpt>
      <trkpt lat="49.4665" lon="-1.58303">
        <ele>41.6</ele>
        <time>2019-04-23T14:04:11.000Z</time>
      </trkpt>
      <trkpt lat="49.46651" lon="-1.58301">
        <ele>41.5</ele>
        <time>2019-04-23T14:04:12.000Z</time>
      </trkpt>
      <trkpt lat="49.46651" lon="-1.58299">
        <ele>41.5</ele>
        <time>2019-04-23T14:04:13.000Z</time>
      </trkpt>
      <trkpt lat="49.46652" lon="-1.58297">
        <ele>41.4</ele>
        <time>2019-04-23T14:04:14.000Z</time>
      </trkpt>
      <trkpt lat="49.46652" lon="-1.58295">
        <ele>41.3</ele>
        <time>2019-04-23T14:04:15.000Z</time>
      </trkpt>
      <trkpt lat="49.46653" lon="-1.58293">
        <ele>41.3</ele>
        <time>2019-04-23T14:04:16.000Z</time>
      </trkpt>
      <trkpt lat="49.46654" lon="-1.58291">
        <ele>41.2</ele>
        <time>2019-04-23T14:04:17.000Z</time>
      </trkpt>
      <trkpt lat="49.46654" lon="-1.58289">
        <ele>41.2</ele>
        <time>2019-04-23T14:04:18.000Z</time>
      </trkpt>
      <trkpt lat="49.46655" lon="-1.58287">
        <ele>41.1</ele>
        <time>2019-04-23T14:04:19.000Z</time>
      </trkpt>
      <trkpt lat="49.46656" lon="-1.58285">
        <ele>41</ele>
        <time>2019-04-23T14:04:20.000Z</time>
      </trkpt>
      <trkpt lat="49.46656" lon="-1.58283">
        <ele>41</ele>
        <time>2019-04-23T14:04:21.000Z</time>
      </trkpt>
      <trkpt lat="49.46657" lon="-1.58281">
        <ele>40.9</ele>
        <time>2019-04-23T14:04:22.000Z</time>
      </trkpt>
      <trkpt lat="49.46658" lon="-1.58279">
        <ele>40.8</ele>
        <time>2019-04-23T14:04:23.000Z</time>
      </trkpt>
      <trkpt lat="49.46658" lon="-1.58277">
        <ele>40.8</ele>
        <time>2019-04-23T14:04:24.000Z</time>
      </trkpt>
      <trkpt lat="49.46659" lon="-1.58275">
        <ele>40.7</ele>
        <time>2019-04-23T14:04:25.000Z</time>
      </trkpt>
      <trkpt lat="49.46659" lon="-1.58272">
        <ele>40.7</ele>
        <time>2019-04-23T14:04:26.000Z</time>
      </trkpt>
      <trkpt lat="49.46659" lon="-1.5827">
        <ele>40.6</ele>
        <time>2019-04-23T14:04:27.000Z</time>
      </trkpt>
      <trkpt lat="49.46659" lon="-1.58268">
        <ele>40.5</ele>
        <time>2019-04-23T14:04:28.000Z</time>
      </trkpt>
      <trkpt lat="49.46659" lon="-1.58266">
        <ele>40.5</ele>
        <time>2019-04-23T14:04:29.000Z</time>
      </trkpt>
      <trkpt lat="49.4666" lon="-1.58263">
        <ele>40.4</ele>
        <time>2019-04-23T14:04:30.000Z</time>
      </trkpt>
      <trkpt lat="49.4666" lon="-1.58261">
        <ele>40.4</ele>
        <time>2019-04-23T14:04:31.000Z</time>
      </trkpt>
      <trkpt lat="49.4666" lon="-1.58259">
        <ele>40.3</ele>
        <time>2019-04-23T14:04:32.000Z</time>
      </trkpt>
      <trkpt lat="49.4666" lon="-1.58257">
        <ele>40.3</ele>
        <time>2019-04-23T14:04:33.000Z</time>
      </trkpt>
      <trkpt lat="49.46661" lon="-1.58255">
        <ele>40.2</ele>
        <time>2019-04-23T14:04:34.000Z</time>
      </trkpt>
      <trkpt lat="49.46661" lon="-1.58253">
        <ele>40.1</ele>
        <time>2019-04-23T14:04:35.000Z</time>
      </trkpt>
      <trkpt lat="49.46661" lon="-1.58251">
        <ele>40.1</ele>
        <time>2019-04-23T14:04:36.000Z</time>
      </trkpt>
      <trkpt lat="49.46662" lon="-1.58249">
        <ele>40</ele>
        <time>2019-04-23T14:04:37.000Z</time>
      </trkpt>
      <trkpt lat="49.46662" lon="-1.58248">
        <ele>40</ele>
        <time>2019-04-23T14:04:38.000Z</time>
      </trkpt>
      <trkpt lat="49.46662" lon="-1.58246">
        <ele>40</ele>
        <time>2019-04-23T14:04:39.000Z</time>
      </trkpt>
      <trkpt lat="49.46663" lon="-1.58244">
        <ele>39.9</ele>
        <time>2019-04-23T14:04:40.000Z</time>
      </trkpt>
      <trkpt lat="49.46663" lon="-1.58242">
        <ele>39.9</ele>
        <time>2019-04-23T14:04:41.000Z</time>
      </trkpt>
      <trkpt lat="49.46663" lon="-1.58241">
        <ele>39.8</ele>
        <time>2019-04-23T14:04:42.000Z</time>
      </trkpt>
      <trkpt lat="49.46664" lon="-1.58239">
        <ele>39.8</ele>
        <time>2019-04-23T14:04:43.000Z</time>
      </trkpt>
      <trkpt lat="49.46664" lon="-1.58237">
        <ele>39.7</ele>
        <time>2019-04-23T14:04:44.000Z</time>
      </trkpt>
      <trkpt lat="49.46664" lon="-1.58235">
        <ele>39.7</ele>
        <time>2019-04-23T14:04:45.000Z</time>
      </trkpt>
      <trkpt lat="49.46664" lon="-1.58234">
        <ele>39.7</ele>
        <time>2019-04-23T14:04:46.000Z</time>
      </trkpt>
      <trkpt lat="49.46664" lon="-1.58232">
        <ele>39.6</ele>
        <time>2019-04-23T14:04:47.000Z</time>
      </trkpt>
      <trkpt lat="49.46664" lon="-1.5823">
        <ele>39.6</ele>
        <time>2019-04-23T14:04:48.000Z</time>
      </trkpt>
      <trkpt lat="49.46664" lon="-1.58228">
        <ele>39.5</ele>
        <time>2019-04-23T14:04:49.000Z</time>
      </trkpt>
      <trkpt lat="49.46664" lon="-1.58226">
        <ele>39.5</ele>
        <time>2019-04-23T14:04:50.000Z</time>
      </trkpt>
      <trkpt lat="49.46664" lon="-1.58224">
        <ele>39.4</ele>
        <time>2019-04-23T14:04:51.000Z</time>
      </trkpt>
      <trkpt lat="49.46664" lon="-1.58222">
        <ele>39.4</ele>
        <time>2019-04-23T14:04:52.000Z</time>
      </trkpt>
      <trkpt lat="49.46664" lon="-1.5822">
        <ele>39.3</ele>
        <time>2019-04-23T14:04:53.000Z</time>
      </trkpt>
      <trkpt lat="49.46664" lon="-1.58218">
        <ele>39.3</ele>
        <time>2019-04-23T14:04:54.000Z</time>
      </trkpt>
      <trkpt lat="49.46664" lon="-1.58216">
        <ele>39.2</ele>
        <time>2019-04-23T14:04:55.000Z</time>
      </trkpt>
      <trkpt lat="49.46664" lon="-1.58213">
        <ele>39.2</ele>
        <time>2019-04-23T14:04:56.000Z</time>
      </trkpt>
      <trkpt lat="49.46664" lon="-1.58211">
        <ele>39.1</ele>
        <time>2019-04-23T14:04:57.000Z</time>
      </trkpt>
      <trkpt lat="49.46663" lon="-1.58209">
        <ele>39.1</ele>
        <time>2019-04-23T14:04:58.000Z</time>
      </trkpt>
      <trkpt lat="49.46663" lon="-1.58207">
        <ele>39</ele>
        <time>2019-04-23T14:04:59.000Z</time>
      </trkpt>
      <trkpt lat="49.46663" lon="-1.58205">
        <ele>39</ele>
        <time>2019-04-23T14:05:00.000Z</time>
      </trkpt>
      <trkpt lat="49.46663" lon="-1.58202">
        <ele>39</ele>
        <time>2019-04-23T14:05:01.000Z</time>
      </trkpt>
      <trkpt lat="49.46662" lon="-1.582">
        <ele>38.9</ele>
        <time>2019-04-23T14:05:02.000Z</time>
      </trkpt>
      <trkpt lat="49.46662" lon="-1.58198">
        <ele>38.9</ele>
        <time>2019-04-23T14:05:03.000Z</time>
      </trkpt>
      <trkpt lat="49.46662" lon="-1.58196">
        <ele>38.8</ele>
        <time>2019-04-23T14:05:04.000Z</time>
      </trkpt>
      <trkpt lat="49.46661" lon="-1.58194">
        <ele>38.8</ele>
        <time>2019-04-23T14:05:05.000Z</time>
      </trkpt>
      <trkpt lat="49.46661" lon="-1.58192">
        <ele>38.8</ele>
        <time>2019-04-23T14:05:06.000Z</time>
      </trkpt>
      <trkpt lat="49.46661" lon="-1.5819">
        <ele>38.7</ele>
        <time>2019-04-23T14:05:07.000Z</time>
      </trkpt>
      <trkpt lat="49.4666" lon="-1.58188">
        <ele>38.7</ele>
        <time>2019-04-23T14:05:08.000Z</time>
      </trkpt>
      <trkpt lat="49.4666" lon="-1.58185">
        <ele>38.7</ele>
        <time>2019-04-23T14:05:09.000Z</time>
      </trkpt>
      <trkpt lat="49.4666" lon="-1.58183">
        <ele>38.6</ele>
        <time>2019-04-23T14:05:10.000Z</time>
      </trkpt>
      <trkpt lat="49.46659" lon="-1.58181">
        <ele>38.6</ele>
        <time>2019-04-23T14:05:11.000Z</time>
      </trkpt>
      <trkpt lat="49.46659" lon="-1.58179">
        <ele>38.5</ele>
        <time>2019-04-23T14:05:12.000Z</time>
      </trkpt>
      <trkpt lat="49.46659" lon="-1.58177">
        <ele>38.5</ele>
        <time>2019-04-23T14:05:13.000Z</time>
      </trkpt>
      <trkpt lat="49.46659" lon="-1.58175">
        <ele>38.5</ele>
        <time>2019-04-23T14:05:14.000Z</time>
      </trkpt>
      <trkpt lat="49.46658" lon="-1.58173">
        <ele>38.4</ele>
        <time>2019-04-23T14:05:15.000Z</time>
      </trkpt>
      <trkpt lat="49.46658" lon="-1.58171">
        <ele>38.4</ele>
        <time>2019-04-23T14:05:16.000Z</time>
      </trkpt>
      <trkpt lat="49.46658" lon="-1.58168">
        <ele>38.3</ele>
        <time>2019-04-23T14:05:17.000Z</time>
      </trkpt>
      <trkpt lat="49.46658" lon="-1.58166">
        <ele>38.3</ele>
        <time>2019-04-23T14:05:18.000Z</time>
      </trkpt>
      <trkpt lat="49.46658" lon="-1.58164">
        <ele>38.3</ele>
        <time>2019-04-23T14:05:19.000Z</time>
      </trkpt>
      <trkpt lat="49.46658" lon="-1.58162">
        <ele>38.2</ele>
        <time>2019-04-23T14:05:20.000Z</time>
      </trkpt>
      <trkpt lat="49.46658" lon="-1.5816">
        <ele>38.2</ele>
        <time>2019-04-23T14:05:21.000Z</time>
      </trkpt>
      <trkpt lat="49.46658" lon="-1.58158">
        <ele>38.1</ele>
        <time>2019-04-23T14:05:22.000Z</time>
      </trkpt>
      <trkpt lat="49.46658" lon="-1.58156">
        <ele>38.1</ele>
        <time>2019-04-23T14:05:23.000Z</time>
      </trkpt>
      <trkpt lat="49.46658" lon="-1.58154">
        <ele>38</ele>
        <time>2019-04-23T14:05:24.000Z</time>
      </trkpt>
      <trkpt lat="49.46658" lon="-1.58152">
        <ele>38</ele>
        <time>2019-04-23T14:05:25.000Z</time>
      </trkpt>
      <trkpt lat="49.46658" lon="-1.58151">
        <ele>37.9</ele>
        <time>2019-04-23T14:05:26.000Z</time>
      </trkpt>
      <trkpt lat="49.46658" lon="-1.58149">
        <ele>37.9</ele>
        <time>2019-04-23T14:05:27.000Z</time>
      </trkpt>
      <trkpt lat="49.46658" lon="-1.58147">
        <ele>37.8</ele>
        <time>2019-04-23T14:05:28.000Z</time>
      </trkpt>
      <trkpt lat="49.46658" lon="-1.58145">
        <ele>37.8</ele>
        <time>2019-04-23T14:05:29.000Z</time>
      </trkpt>
      <trkpt lat="49.46659" lon="-1.58143">
        <ele>37.7</ele>
        <time>2019-04-23T14:05:30.000Z</time>
      </trkpt>
      <trkpt lat="49.46659" lon="-1.58141">
        <ele>37.7</ele>
        <time>2019-04-23T14:05:31.000Z</time>
      </trkpt>
      <trkpt lat="49.46659" lon="-1.58139">
        <ele>37.6</ele>
        <time>2019-04-23T14:05:32.000Z</time>
      </trkpt>
      <trkpt lat="49.46659" lon="-1.58138">
        <ele>37.6</ele>
        <time>2019-04-23T14:05:33.000Z</time>
      </trkpt>
      <trkpt lat="49.46659" lon="-1.58136">
        <ele>37.5</ele>
        <time>2019-04-23T14:05:34.000Z</time>
      </trkpt>
      <trkpt lat="49.4666" lon="-1.58134">
        <ele>37.5</ele>
        <time>2019-04-23T14:05:35.000Z</time>
      </trkpt>
      <trkpt lat="49.4666" lon="-1.58132">
        <ele>37.4</ele>
        <time>2019-04-23T14:05:36.000Z</time>
      </trkpt>
      <trkpt lat="49.4666" lon="-1.5813">
        <ele>37.4</ele>
        <time>2019-04-23T14:05:37.000Z</time>
      </trkpt>
      <trkpt lat="49.4666" lon="-1.58128">
        <ele>37.3</ele>
        <time>2019-04-23T14:05:38.000Z</time>
      </trkpt>
      <trkpt lat="49.4666" lon="-1.58126">
        <ele>37.3</ele>
        <time>2019-04-23T14:05:39.000Z</time>
      </trkpt>
      <trkpt lat="49.4666" lon="-1.58124">
        <ele>37.2</ele>
        <time>2019-04-23T14:05:40.000Z</time>
      </trkpt>
      <trkpt lat="49.46661" lon="-1.58122">
        <ele>37.1</ele>
        <time>2019-04-23T14:05:41.000Z</time>
      </trkpt>
      <trkpt lat="49.46661" lon="-1.58119">
        <ele>37.1</ele>
        <time>2019-04-23T14:05:42.000Z</time>
      </trkpt>
      <trkpt lat="49.46661" lon="-1.58117">
        <ele>37</ele>
        <time>2019-04-23T14:05:43.000Z</time>
      </trkpt>
      <trkpt lat="49.46661" lon="-1.58115">
        <ele>37</ele>
        <time>2019-04-23T14:05:44.000Z</time>
      </trkpt>
      <trkpt lat="49.46661" lon="-1.58113">
        <ele>36.9</ele>
        <time>2019-04-23T14:05:45.000Z</time>
      </trkpt>
      <trkpt lat="49.4666" lon="-1.58111">
        <ele>36.9</ele>
        <time>2019-04-23T14:05:46.000Z</time>
      </trkpt>
      <trkpt lat="49.4666" lon="-1.58108">
        <ele>36.8</ele>
        <time>2019-04-23T14:05:47.000Z</time>
      </trkpt>
      <trkpt lat="49.4666" lon="-1.58107">
        <ele>36.8</ele>
        <time>2019-04-23T14:05:48.000Z</time>
      </trkpt>
      <trkpt lat="49.46659" lon="-1.58105">
        <ele>36.8</ele>
        <time>2019-04-23T14:05:49.000Z</time>
      </trkpt>
      <trkpt lat="49.46659" lon="-1.58103">
        <ele>36.8</ele>
        <time>2019-04-23T14:05:50.000Z</time>
      </trkpt>
      <trkpt lat="49.46658" lon="-1.58102">
        <ele>36.8</ele>
        <time>2019-04-23T14:05:51.000Z</time>
      </trkpt>
      <trkpt lat="49.46657" lon="-1.58101">
        <ele>36.8</ele>
        <time>2019-04-23T14:05:52.000Z</time>
      </trkpt>
      <trkpt lat="49.46656" lon="-1.581">
        <ele>36.8</ele>
        <time>2019-04-23T14:05:53.000Z</time>
      </trkpt>
      <trkpt lat="49.46655" lon="-1.58099">
        <ele>36.8</ele>
        <time>2019-04-23T14:05:54.000Z</time>
      </trkpt>
      <trkpt lat="49.46654" lon="-1.58098">
        <ele>36.8</ele>
        <time>2019-04-23T14:05:55.000Z</time>
      </trkpt>
      <trkpt lat="49.46653" lon="-1.58098">
        <ele>36.8</ele>
        <time>2019-04-23T14:05:56.000Z</time>
      </trkpt>
      <trkpt lat="49.46652" lon="-1.58097">
        <ele>36.9</ele>
        <time>2019-04-23T14:05:57.000Z</time>
      </trkpt>
      <trkpt lat="49.46651" lon="-1.58096">
        <ele>36.9</ele>
        <time>2019-04-23T14:05:58.000Z</time>
      </trkpt>
      <trkpt lat="49.4665" lon="-1.58096">
        <ele>36.9</ele>
        <time>2019-04-23T14:05:59.000Z</time>
      </trkpt>
      <trkpt lat="49.46649" lon="-1.58096">
        <ele>36.9</ele>
        <time>2019-04-23T14:06:00.000Z</time>
      </trkpt>
      <trkpt lat="49.46647" lon="-1.58095">
        <ele>37</ele>
        <time>2019-04-23T14:06:01.000Z</time>
      </trkpt>
      <trkpt lat="49.46646" lon="-1.58095">
        <ele>37</ele>
        <time>2019-04-23T14:06:02.000Z</time>
      </trkpt>
      <trkpt lat="49.46645" lon="-1.58094">
        <ele>37</ele>
        <time>2019-04-23T14:06:03.000Z</time>
      </trkpt>
      <trkpt lat="49.46644" lon="-1.58094">
        <ele>37</ele>
        <time>2019-04-23T14:06:04.000Z</time>
      </trkpt>
      <trkpt lat="49.46643" lon="-1.58093">
        <ele>37.1</ele>
        <time>2019-04-23T14:06:05.000Z</time>
      </trkpt>
      <trkpt lat="49.46642" lon="-1.58092">
        <ele>37.1</ele>
        <time>2019-04-23T14:06:06.000Z</time>
      </trkpt>
      <trkpt lat="49.46641" lon="-1.58091">
        <ele>37.1</ele>
        <time>2019-04-23T14:06:07.000Z</time>
      </trkpt>
      <trkpt lat="49.4664" lon="-1.5809">
        <ele>37.1</ele>
        <time>2019-04-23T14:06:08.000Z</time>
      </trkpt>
      <trkpt lat="49.46639" lon="-1.58089">
        <ele>37.1</ele>
        <time>2019-04-23T14:06:09.000Z</time>
      </trkpt>
      <trkpt lat="49.46638" lon="-1.58088">
        <ele>37.1</ele>
        <time>2019-04-23T14:06:10.000Z</time>
      </trkpt>
      <trkpt lat="49.46638" lon="-1.58087">
        <ele>37.1</ele>
        <time>2019-04-23T14:06:11.000Z</time>
      </trkpt>
      <trkpt lat="49.46637" lon="-1.58086">
        <ele>37.1</ele>
        <time>2019-04-23T14:06:12.000Z</time>
      </trkpt>
      <trkpt lat="49.46636" lon="-1.58084">
        <ele>37.1</ele>
        <time>2019-04-23T14:06:13.000Z</time>
      </trkpt>
      <trkpt lat="49.46636" lon="-1.58083">
        <ele>37.1</ele>
        <time>2019-04-23T14:06:14.000Z</time>
      </trkpt>
      <trkpt lat="49.46635" lon="-1.58081">
        <ele>37.1</ele>
        <time>2019-04-23T14:06:15.000Z</time>
      </trkpt>
      <trkpt lat="49.46635" lon="-1.58079">
        <ele>37.1</ele>
        <time>2019-04-23T14:06:16.000Z</time>
      </trkpt>
      <trkpt lat="49.46635" lon="-1.58078">
        <ele>37.1</ele>
        <time>2019-04-23T14:06:17.000Z</time>
      </trkpt>
      <trkpt lat="49.46635" lon="-1.58076">
        <ele>37.1</ele>
        <time>2019-04-23T14:06:18.000Z</time>
      </trkpt>
      <trkpt lat="49.46636" lon="-1.58074">
        <ele>37.1</ele>
        <time>2019-04-23T14:06:19.000Z</time>
      </trkpt>
      <trkpt lat="49.46636" lon="-1.58072">
        <ele>37</ele>
        <time>2019-04-23T14:06:20.000Z</time>
      </trkpt>
      <trkpt lat="49.46637" lon="-1.5807">
        <ele>37</ele>
        <time>2019-04-23T14:06:21.000Z</time>
      </trkpt>
      <trkpt lat="49.46637" lon="-1.58068">
        <ele>37</ele>
        <time>2019-04-23T14:06:22.000Z</time>
      </trkpt>
      <trkpt lat="49.46638" lon="-1.58066">
        <ele>37</ele>
        <time>2019-04-23T14:06:23.000Z</time>
      </trkpt>
      <trkpt lat="49.46639" lon="-1.58065">
        <ele>36.9</ele>
        <time>2019-04-23T14:06:24.000Z</time>
      </trkpt>
      <trkpt lat="49.46639" lon="-1.58063">
        <ele>36.9</ele>
        <time>2019-04-23T14:06:25.000Z</time>
      </trkpt>
      <trkpt lat="49.4664" lon="-1.58061">
        <ele>36.9</ele>
        <time>2019-04-23T14:06:26.000Z</time>
      </trkpt>
      <trkpt lat="49.4664" lon="-1.58059">
        <ele>36.9</ele>
        <time>2019-04-23T14:06:27.000Z</time>
      </trkpt>
      <trkpt lat="49.46641" lon="-1.58057">
        <ele>36.8</ele>
        <time>2019-04-23T14:06:28.000Z</time>
      </trkpt>
      <trkpt lat="49.46641" lon="-1.58056">
        <ele>36.8</ele>
        <time>2019-04-23T14:06:29.000Z</time>
      </trkpt>
      <trkpt lat="49.46641" lon="-1.58054">
        <ele>36.8</ele>
        <time>2019-04-23T14:06:30.000Z</time>
      </trkpt>
      <trkpt lat="49.46642" lon="-1.58052">
        <ele>36.8</ele>
        <time>2019-04-23T14:06:31.000Z</time>
      </trkpt>
      <trkpt lat="49.46642" lon="-1.58051">
        <ele>36.8</ele>
        <time>2019-04-23T14:06:32.000Z</time>
      </trkpt>
      <trkpt lat="49.46643" lon="-1.58049">
        <ele>36.7</ele>
        <time>2019-04-23T14:06:33.000Z</time>
      </trkpt>
      <trkpt lat="49.46643" lon="-1.58047">
        <ele>36.7</ele>
        <time>2019-04-23T14:06:34.000Z</time>
      </trkpt>
      <trkpt lat="49.46643" lon="-1.58045">
        <ele>36.7</ele>
        <time>2019-04-23T14:06:35.000Z</time>
      </trkpt>
      <trkpt lat="49.46644" lon="-1.58043">
        <ele>36.7</ele>
        <time>2019-04-23T14:06:36.000Z</time>
      </trkpt>
      <trkpt lat="49.46644" lon="-1.58041">
        <ele>36.7</ele>
        <time>2019-04-23T14:06:37.000Z</time>
      </trkpt>
      <trkpt lat="49.46645" lon="-1.5804">
        <ele>36.6</ele>
        <time>2019-04-23T14:06:38.000Z</time>
      </trkpt>
      <trkpt lat="49.46645" lon="-1.58038">
        <ele>36.6</ele>
        <time>2019-04-23T14:06:39.000Z</time>
      </trkpt>
      <trkpt lat="49.46646" lon="-1.58036">
        <ele>36.6</ele>
        <time>2019-04-23T14:06:40.000Z</time>
      </trkpt>
      <trkpt lat="49.46646" lon="-1.58034">
        <ele>36.6</ele>
        <time>2019-04-23T14:06:41.000Z</time>
      </trkpt>
      <trkpt lat="49.46647" lon="-1.58032">
        <ele>36.6</ele>
        <time>2019-04-23T14:06:42.000Z</time>
      </trkpt>
      <trkpt lat="49.46648" lon="-1.5803">
        <ele>36.5</ele>
        <time>2019-04-23T14:06:43.000Z</time>
      </trkpt>
      <trkpt lat="49.46648" lon="-1.58029">
        <ele>36.5</ele>
        <time>2019-04-23T14:06:44.000Z</time>
      </trkpt>
      <trkpt lat="49.46649" lon="-1.58027">
        <ele>36.5</ele>
        <time>2019-04-23T14:06:45.000Z</time>
      </trkpt>
      <trkpt lat="49.46649" lon="-1.58025">
        <ele>36.5</ele>
        <time>2019-04-23T14:06:46.000Z</time>
      </trkpt>
      <trkpt lat="49.4665" lon="-1.58023">
        <ele>36.5</ele>
        <time>2019-04-23T14:06:47.000Z</time>
      </trkpt>
      <trkpt lat="49.46651" lon="-1.58022">
        <ele>36.4</ele>
        <time>2019-04-23T14:06:48.000Z</time>
      </trkpt>
      <trkpt lat="49.46651" lon="-1.5802">
        <ele>36.4</ele>
        <time>2019-04-23T14:06:49.000Z</time>
      </trkpt>
      <trkpt lat="49.46651" lon="-1.58018">
        <ele>36.4</ele>
        <time>2019-04-23T14:06:50.000Z</time>
      </trkpt>
      <trkpt lat="49.46652" lon="-1.58016">
        <ele>36.4</ele>
        <time>2019-04-23T14:06:51.000Z</time>
      </trkpt>
      <trkpt lat="49.46652" lon="-1.58014">
        <ele>36.4</ele>
        <time>2019-04-23T14:06:52.000Z</time>
      </trkpt>
      <trkpt lat="49.46652" lon="-1.58012">
        <ele>36.4</ele>
        <time>2019-04-23T14:06:53.000Z</time>
      </trkpt>
      <trkpt lat="49.46652" lon="-1.58011">
        <ele>36.4</ele>
        <time>2019-04-23T14:06:54.000Z</time>
      </trkpt>
      <trkpt lat="49.46651" lon="-1.58009">
        <ele>36.4</ele>
        <time>2019-04-23T14:06:55.000Z</time>
      </trkpt>
      <trkpt lat="49.46651" lon="-1.58007">
        <ele>36.4</ele>
        <time>2019-04-23T14:06:56.000Z</time>
      </trkpt>
      <trkpt lat="49.4665" lon="-1.58006">
        <ele>36.4</ele>
        <time>2019-04-23T14:06:57.000Z</time>
      </trkpt>
      <trkpt lat="49.46649" lon="-1.58005">
        <ele>36.4</ele>
        <time>2019-04-23T14:06:58.000Z</time>
      </trkpt>
      <trkpt lat="49.46648" lon="-1.58004">
        <ele>36.5</ele>
        <time>2019-04-23T14:06:59.000Z</time>
      </trkpt>
      <trkpt lat="49.46647" lon="-1.58003">
        <ele>36.5</ele>
        <time>2019-04-23T14:07:00.000Z</time>
      </trkpt>
      <trkpt lat="49.46646" lon="-1.58003">
        <ele>36.5</ele>
        <time>2019-04-23T14:07:01.000Z</time>
      </trkpt>
      <trkpt lat="49.46645" lon="-1.58003">
        <ele>36.5</ele>
        <time>2019-04-23T14:07:02.000Z</time>
      </trkpt>
      <trkpt lat="49.46644" lon="-1.58003">
        <ele>36.6</ele>
        <time>2019-04-23T14:07:03.000Z</time>
      </trkpt>
      <trkpt lat="49.46643" lon="-1.58003">
        <ele>36.6</ele>
        <time>2019-04-23T14:07:04.000Z</time>
      </trkpt>
      <trkpt lat="49.46642" lon="-1.58003">
        <ele>36.6</ele>
        <time>2019-04-23T14:07:05.000Z</time>
      </trkpt>
      <trkpt lat="49.46641" lon="-1.58003">
        <ele>36.6</ele>
        <time>2019-04-23T14:07:06.000Z</time>
      </trkpt>
      <trkpt lat="49.4664" lon="-1.58002">
        <ele>36.6</ele>
        <time>2019-04-23T14:07:07.000Z</time>
      </trkpt>
      <trkpt lat="49.46639" lon="-1.58001">
        <ele>36.7</ele>
        <time>2019-04-23T14:07:08.000Z</time>
      </trkpt>
      <trkpt lat="49.46638" lon="-1.58">
        <ele>36.7</ele>
        <time>2019-04-23T14:07:09.000Z</time>
      </trkpt>
      <trkpt lat="49.46637" lon="-1.57999">
        <ele>36.7</ele>
        <time>2019-04-23T14:07:10.000Z</time>
      </trkpt>
      <trkpt lat="49.46636" lon="-1.57997">
        <ele>36.8</ele>
        <time>2019-04-23T14:07:11.000Z</time>
      </trkpt>
      <trkpt lat="49.46635" lon="-1.57996">
        <ele>36.8</ele>
        <time>2019-04-23T14:07:12.000Z</time>
      </trkpt>
      <trkpt lat="49.46635" lon="-1.57994">
        <ele>36.9</ele>
        <time>2019-04-23T14:07:13.000Z</time>
      </trkpt>
      <trkpt lat="49.46634" lon="-1.57992">
        <ele>36.9</ele>
        <time>2019-04-23T14:07:14.000Z</time>
      </trkpt>
      <trkpt lat="49.46633" lon="-1.5799">
        <ele>37</ele>
        <time>2019-04-23T14:07:15.000Z</time>
      </trkpt>
      <trkpt lat="49.46633" lon="-1.57988">
        <ele>37</ele>
        <time>2019-04-23T14:07:16.000Z</time>
      </trkpt>
      <trkpt lat="49.46632" lon="-1.57986">
        <ele>37.1</ele>
        <time>2019-04-23T14:07:17.000Z</time>
      </trkpt>
      <trkpt lat="49.46632" lon="-1.57984">
        <ele>37.1</ele>
        <time>2019-04-23T14:07:18.000Z</time>
      </trkpt>
      <trkpt lat="49.46632" lon="-1.57982">
        <ele>37.1</ele>
        <time>2019-04-23T14:07:19.000Z</time>
      </trkpt>
      <trkpt lat="49.46632" lon="-1.5798">
        <ele>37.2</ele>
        <time>2019-04-23T14:07:20.000Z</time>
      </trkpt>
      <trkpt lat="49.46632" lon="-1.57978">
        <ele>37.2</ele>
        <time>2019-04-23T14:07:21.000Z</time>
      </trkpt>
      <trkpt lat="49.46632" lon="-1.57976">
        <ele>37.2</ele>
        <time>2019-04-23T14:07:22.000Z</time>
      </trkpt>
      <trkpt lat="49.46632" lon="-1.57974">
        <ele>37.3</ele>
        <time>2019-04-23T14:07:23.000Z</time>
      </trkpt>
      <trkpt lat="49.46632" lon="-1.57972">
        <ele>37.3</ele>
        <time>2019-04-23T14:07:24.000Z</time>
      </trkpt>
      <trkpt lat="49.46632" lon="-1.5797">
        <ele>37.3</ele>
        <time>2019-04-23T14:07:25.000Z</time>
      </trkpt>
      <trkpt lat="49.46633" lon="-1.57968">
        <ele>37.4</ele>
        <time>2019-04-23T14:07:26.000Z</time>
      </trkpt>
      <trkpt lat="49.46633" lon="-1.57967">
        <ele>37.4</ele>
        <time>2019-04-23T14:07:27.000Z</time>
      </trkpt>
      <trkpt lat="49.46633" lon="-1.57965">
        <ele>37.4</ele>
        <time>2019-04-23T14:07:28.000Z</time>
      </trkpt>
      <trkpt lat="49.46632" lon="-1.57963">
        <ele>37.5</ele>
        <time>2019-04-23T14:07:29.000Z</time>
      </trkpt>
      <trkpt lat="49.46632" lon="-1.57961">
        <ele>37.5</ele>
        <time>2019-04-23T14:07:30.000Z</time>
      </trkpt>
      <trkpt lat="49.46632" lon="-1.57959">
        <ele>37.5</ele>
        <time>2019-04-23T14:07:31.000Z</time>
      </trkpt>
      <trkpt lat="49.46632" lon="-1.57958">
        <ele>37.6</ele>
        <time>2019-04-23T14:07:32.000Z</time>
      </trkpt>
      <trkpt lat="49.46631" lon="-1.57957">
        <ele>37.6</ele>
        <time>2019-04-23T14:07:33.000Z</time>
      </trkpt>
      <trkpt lat="49.4663" lon="-1.57955">
        <ele>37.6</ele>
        <time>2019-04-23T14:07:34.000Z</time>
      </trkpt>
      <trkpt lat="49.4663" lon="-1.57954">
        <ele>37.7</ele>
        <time>2019-04-23T14:07:35.000Z</time>
      </trkpt>
      <trkpt lat="49.46629" lon="-1.57953">
        <ele>37.7</ele>
        <time>2019-04-23T14:07:36.000Z</time>
      </trkpt>
      <trkpt lat="49.46628" lon="-1.57952">
        <ele>37.8</ele>
        <time>2019-04-23T14:07:37.000Z</time>
      </trkpt>
      <trkpt lat="49.46627" lon="-1.57951">
        <ele>37.8</ele>
        <time>2019-04-23T14:07:38.000Z</time>
      </trkpt>
      <trkpt lat="49.46626" lon="-1.57951">
        <ele>37.9</ele>
        <time>2019-04-23T14:07:39.000Z</time>
      </trkpt>
      <trkpt lat="49.46624" lon="-1.5795">
        <ele>37.9</ele>
        <time>2019-04-23T14:07:40.000Z</time>
      </trkpt>
      <trkpt lat="49.46623" lon="-1.5795">
        <ele>38</ele>
        <time>2019-04-23T14:07:41.000Z</time>
      </trkpt>
      <trkpt lat="49.46622" lon="-1.57949">
        <ele>38</ele>
        <time>2019-04-23T14:07:42.000Z</time>
      </trkpt>
      <trkpt lat="49.46621" lon="-1.57949">
        <ele>38</ele>
        <time>2019-04-23T14:07:43.000Z</time>
      </trkpt>
      <trkpt lat="49.4662" lon="-1.57949">
        <ele>38.1</ele>
        <time>2019-04-23T14:07:44.000Z</time>
      </trkpt>
      <trkpt lat="49.46619" lon="-1.57948">
        <ele>38.1</ele>
        <time>2019-04-23T14:07:45.000Z</time>
      </trkpt>
      <trkpt lat="49.46618" lon="-1.57948">
        <ele>38.1</ele>
        <time>2019-04-23T14:07:46.000Z</time>
      </trkpt>
      <trkpt lat="49.46618" lon="-1.57948">
        <ele>38.2</ele>
        <time>2019-04-23T14:07:47.000Z</time>
      </trkpt>
      <trkpt lat="49.46617" lon="-1.57948">
        <ele>38.2</ele>
        <time>2019-04-23T14:07:48.000Z</time>
      </trkpt>
      <trkpt lat="49.46616" lon="-1.57948">
        <ele>38.2</ele>
        <time>2019-04-23T14:07:49.000Z</time>
      </trkpt>
      <trkpt lat="49.46615" lon="-1.57947">
        <ele>38.3</ele>
        <time>2019-04-23T14:07:50.000Z</time>
      </trkpt>
      <trkpt lat="49.46614" lon="-1.57947">
        <ele>38.3</ele>
        <time>2019-04-23T14:07:51.000Z</time>
      </trkpt>
      <trkpt lat="49.46613" lon="-1.57947">
        <ele>38.3</ele>
        <time>2019-04-23T14:07:52.000Z</time>
      </trkpt>
      <trkpt lat="49.46612" lon="-1.57947">
        <ele>38.4</ele>
        <time>2019-04-23T14:07:53.000Z</time>
      </trkpt>
      <trkpt lat="49.46611" lon="-1.57947">
        <ele>38.4</ele>
        <time>2019-04-23T14:07:54.000Z</time>
      </trkpt>
      <trkpt lat="49.4661" lon="-1.57947">
        <ele>38.5</ele>
        <time>2019-04-23T14:07:55.000Z</time>
      </trkpt>
      <trkpt lat="49.46609" lon="-1.57946">
        <ele>38.5</ele>
        <time>2019-04-23T14:07:56.000Z</time>
      </trkpt>
      <trkpt lat="49.46607" lon="-1.57946">
        <ele>38.5</ele>
        <time>2019-04-23T14:07:57.000Z</time>
      </trkpt>
      <trkpt lat="49.46606" lon="-1.57946">
        <ele>38.6</ele>
        <time>2019-04-23T14:07:58.000Z</time>
      </trkpt>
      <trkpt lat="49.46605" lon="-1.57946">
        <ele>38.6</ele>
        <time>2019-04-23T14:07:59.000Z</time>
      </trkpt>
      <trkpt lat="49.46604" lon="-1.57945">
        <ele>38.7</ele>
        <time>2019-04-23T14:08:00.000Z</time>
      </trkpt>
      <trkpt lat="49.46603" lon="-1.57945">
        <ele>38.7</ele>
        <time>2019-04-23T14:08:01.000Z</time>
      </trkpt>
      <trkpt lat="49.46601" lon="-1.57945">
        <ele>38.8</ele>
        <time>2019-04-23T14:08:02.000Z</time>
      </trkpt>
      <trkpt lat="49.466" lon="-1.57944">
        <ele>38.8</ele>
        <time>2019-04-23T14:08:03.000Z</time>
      </trkpt>
      <trkpt lat="49.46599" lon="-1.57944">
        <ele>38.8</ele>
        <time>2019-04-23T14:08:04.000Z</time>
      </trkpt>
      <trkpt lat="49.46598" lon="-1.57943">
        <ele>38.9</ele>
        <time>2019-04-23T14:08:05.000Z</time>
      </trkpt>
      <trkpt lat="49.46597" lon="-1.57943">
        <ele>38.9</ele>
        <time>2019-04-23T14:08:06.000Z</time>
      </trkpt>
      <trkpt lat="49.46595" lon="-1.57942">
        <ele>39</ele>
        <time>2019-04-23T14:08:07.000Z</time>
      </trkpt>
      <trkpt lat="49.46594" lon="-1.57942">
        <ele>39</ele>
        <time>2019-04-23T14:08:08.000Z</time>
      </trkpt>
      <trkpt lat="49.46593" lon="-1.57941">
        <ele>39.1</ele>
        <time>2019-04-23T14:08:09.000Z</time>
      </trkpt>
      <trkpt lat="49.46592" lon="-1.57941">
        <ele>39.2</ele>
        <time>2019-04-23T14:08:10.000Z</time>
      </trkpt>
      <trkpt lat="49.46591" lon="-1.5794">
        <ele>39.2</ele>
        <time>2019-04-23T14:08:11.000Z</time>
      </trkpt>
      <trkpt lat="49.4659" lon="-1.5794">
        <ele>39.3</ele>
        <time>2019-04-23T14:08:12.000Z</time>
      </trkpt>
      <trkpt lat="49.46588" lon="-1.57939">
        <ele>39.3</ele>
        <time>2019-04-23T14:08:13.000Z</time>
      </trkpt>
      <trkpt lat="49.46587" lon="-1.57938">
        <ele>39.4</ele>
        <time>2019-04-23T14:08:14.000Z</time>
      </trkpt>
      <trkpt lat="49.46586" lon="-1.57938">
        <ele>39.4</ele>
        <time>2019-04-23T14:08:15.000Z</time>
      </trkpt>
      <trkpt lat="49.46585" lon="-1.57937">
        <ele>39.5</ele>
        <time>2019-04-23T14:08:16.000Z</time>
      </trkpt>
      <trkpt lat="49.46584" lon="-1.57937">
        <ele>39.5</ele>
        <time>2019-04-23T14:08:17.000Z</time>
      </trkpt>
      <trkpt lat="49.46583" lon="-1.57936">
        <ele>39.6</ele>
        <time>2019-04-23T14:08:18.000Z</time>
      </trkpt>
      <trkpt lat="49.46582" lon="-1.57935">
        <ele>39.6</ele>
        <time>2019-04-23T14:08:19.000Z</time>
      </trkpt>
      <trkpt lat="49.46581" lon="-1.57935">
        <ele>39.6</ele>
        <time>2019-04-23T14:08:20.000Z</time>
      </trkpt>
      <trkpt lat="49.4658" lon="-1.57934">
        <ele>39.7</ele>
        <time>2019-04-23T14:08:21.000Z</time>
      </trkpt>
      <trkpt lat="49.46579" lon="-1.57933">
        <ele>39.7</ele>
        <time>2019-04-23T14:08:22.000Z</time>
      </trkpt>
      <trkpt lat="49.46578" lon="-1.57933">
        <ele>39.8</ele>
        <time>2019-04-23T14:08:23.000Z</time>
      </trkpt>
      <trkpt lat="49.46576" lon="-1.57932">
        <ele>39.8</ele>
        <time>2019-04-23T14:08:24.000Z</time>
      </trkpt>
      <trkpt lat="49.46575" lon="-1.57931">
        <ele>39.9</ele>
        <time>2019-04-23T14:08:25.000Z</time>
      </trkpt>
      <trkpt lat="49.46574" lon="-1.57931">
        <ele>39.9</ele>
        <time>2019-04-23T14:08:26.000Z</time>
      </trkpt>
      <trkpt lat="49.46573" lon="-1.5793">
        <ele>39.9</ele>
        <time>2019-04-23T14:08:27.000Z</time>
      </trkpt>
      <trkpt lat="49.46572" lon="-1.57929">
        <ele>40</ele>
        <time>2019-04-23T14:08:28.000Z</time>
      </trkpt>
      <trkpt lat="49.46571" lon="-1.57929">
        <ele>40</ele>
        <time>2019-04-23T14:08:29.000Z</time>
      </trkpt>
      <trkpt lat="49.4657" lon="-1.57928">
        <ele>40.1</ele>
        <time>2019-04-23T14:08:30.000Z</time>
      </trkpt>
      <trkpt lat="49.46569" lon="-1.57927">
        <ele>40.1</ele>
        <time>2019-04-23T14:08:31.000Z</time>
      </trkpt>
      <trkpt lat="49.46568" lon="-1.57927">
        <ele>40.2</ele>
        <time>2019-04-23T14:08:32.000Z</time>
      </trkpt>
      <trkpt lat="49.46566" lon="-1.57926">
        <ele>40.2</ele>
        <time>2019-04-23T14:08:33.000Z</time>
      </trkpt>
      <trkpt lat="49.46565" lon="-1.57925">
        <ele>40.2</ele>
        <time>2019-04-23T14:08:34.000Z</time>
      </trkpt>
      <trkpt lat="49.46564" lon="-1.57925">
        <ele>40.3</ele>
        <time>2019-04-23T14:08:35.000Z</time>
      </trkpt>
      <trkpt lat="49.46563" lon="-1.57924">
        <ele>40.3</ele>
        <time>2019-04-23T14:08:36.000Z</time>
      </trkpt>
      <trkpt lat="49.46562" lon="-1.57923">
        <ele>40.4</ele>
        <time>2019-04-23T14:08:37.000Z</time>
      </trkpt>
      <trkpt lat="49.46561" lon="-1.57923">
        <ele>40.4</ele>
        <time>2019-04-23T14:08:38.000Z</time>
      </trkpt>
      <trkpt lat="49.4656" lon="-1.57922">
        <ele>40.5</ele>
        <time>2019-04-23T14:08:39.000Z</time>
      </trkpt>
      <trkpt lat="49.46558" lon="-1.57921">
        <ele>40.5</ele>
        <time>2019-04-23T14:08:40.000Z</time>
      </trkpt>
      <trkpt lat="49.46557" lon="-1.5792">
        <ele>40.6</ele>
        <time>2019-04-23T14:08:41.000Z</time>
      </trkpt>
      <trkpt lat="49.46556" lon="-1.5792">
        <ele>40.6</ele>
        <time>2019-04-23T14:08:42.000Z</time>
      </trkpt>
      <trkpt lat="49.46555" lon="-1.57919">
        <ele>40.6</ele>
        <time>2019-04-23T14:08:43.000Z</time>
      </trkpt>
      <trkpt lat="49.46554" lon="-1.57919">
        <ele>40.7</ele>
        <time>2019-04-23T14:08:44.000Z</time>
      </trkpt>
      <trkpt lat="49.46552" lon="-1.57918">
        <ele>40.7</ele>
        <time>2019-04-23T14:08:45.000Z</time>
      </trkpt>
      <trkpt lat="49.46551" lon="-1.57917">
        <ele>40.8</ele>
        <time>2019-04-23T14:08:46.000Z</time>
      </trkpt>
      <trkpt lat="49.4655" lon="-1.57917">
        <ele>40.8</ele>
        <time>2019-04-23T14:08:47.000Z</time>
      </trkpt>
      <trkpt lat="49.46549" lon="-1.57917">
        <ele>40.8</ele>
        <time>2019-04-23T14:08:48.000Z</time>
      </trkpt>
      <trkpt lat="49.46548" lon="-1.57916">
        <ele>40.9</ele>
        <time>2019-04-23T14:08:49.000Z</time>
      </trkpt>
      <trkpt lat="49.46547" lon="-1.57916">
        <ele>40.9</ele>
        <time>2019-04-23T14:08:50.000Z</time>
      </trkpt>
      <trkpt lat="49.46545" lon="-1.57916">
        <ele>40.9</ele>
        <time>2019-04-23T14:08:51.000Z</time>
      </trkpt>
      <trkpt lat="49.46544" lon="-1.57915">
        <ele>40.9</ele>
        <time>2019-04-23T14:08:52.000Z</time>
      </trkpt>
      <trkpt lat="49.46543" lon="-1.57915">
        <ele>41</ele>
        <time>2019-04-23T14:08:53.000Z</time>
      </trkpt>
      <trkpt lat="49.46542" lon="-1.57915">
        <ele>41</ele>
        <time>2019-04-23T14:08:54.000Z</time>
      </trkpt>
      <trkpt lat="49.46541" lon="-1.57915">
        <ele>41</ele>
        <time>2019-04-23T14:08:55.000Z</time>
      </trkpt>
      <trkpt lat="49.4654" lon="-1.57915">
        <ele>41.1</ele>
        <time>2019-04-23T14:08:56.000Z</time>
      </trkpt>
      <trkpt lat="49.46538" lon="-1.57915">
        <ele>41.1</ele>
        <time>2019-04-23T14:08:57.000Z</time>
      </trkpt>
      <trkpt lat="49.46537" lon="-1.57915">
        <ele>41.1</ele>
        <time>2019-04-23T14:08:58.000Z</time>
      </trkpt>
      <trkpt lat="49.46536" lon="-1.57915">
        <ele>41.1</ele>
        <time>2019-04-23T14:08:59.000Z</time>
      </trkpt>
      <trkpt lat="49.46535" lon="-1.57915">
        <ele>41.2</ele>
        <time>2019-04-23T14:09:00.000Z</time>
      </trkpt>
      <trkpt lat="49.46534" lon="-1.57915">
        <ele>41.2</ele>
        <time>2019-04-23T14:09:01.000Z</time>
      </trkpt>
      <trkpt lat="49.46533" lon="-1.57915">
        <ele>41.2</ele>
        <time>2019-04-23T14:09:02.000Z</time>
      </trkpt>
      <trkpt lat="49.46531" lon="-1.57915">
        <ele>41.3</ele>
        <time>2019-04-23T14:09:03.000Z</time>
      </trkpt>
      <trkpt lat="49.4653" lon="-1.57915">
        <ele>41.3</ele>
        <time>2019-04-23T14:09:04.000Z</time>
      </trkpt>
      <trkpt lat="49.46529" lon="-1.57915">
        <ele>41.3</ele>
        <time>2019-04-23T14:09:05.000Z</time>
      </trkpt>
      <trkpt lat="49.46528" lon="-1.57915">
        <ele>41.3</ele>
        <time>2019-04-23T14:09:06.000Z</time>
      </trkpt>
      <trkpt lat="49.46527" lon="-1.57915">
        <ele>41.4</ele>
        <time>2019-04-23T14:09:07.000Z</time>
      </trkpt>
      <trkpt lat="49.46526" lon="-1.57915">
        <ele>41.4</ele>
        <time>2019-04-23T14:09:08.000Z</time>
      </trkpt>
      <trkpt lat="49.46524" lon="-1.57915">
        <ele>41.4</ele>
        <time>2019-04-23T14:09:09.000Z</time>
      </trkpt>
      <trkpt lat="49.46523" lon="-1.57915">
        <ele>41.5</ele>
        <time>2019-04-23T14:09:10.000Z</time>
      </trkpt>
      <trkpt lat="49.46522" lon="-1.57915">
        <ele>41.5</ele>
        <time>2019-04-23T14:09:11.000Z</time>
      </trkpt>
      <trkpt lat="49.46521" lon="-1.57915">
        <ele>41.5</ele>
        <time>2019-04-23T14:09:12.000Z</time>
      </trkpt>
      <trkpt lat="49.46519" lon="-1.57915">
        <ele>41.5</ele>
        <time>2019-04-23T14:09:13.000Z</time>
      </trkpt>
      <trkpt lat="49.46518" lon="-1.57915">
        <ele>41.6</ele>
        <time>2019-04-23T14:09:14.000Z</time>
      </trkpt>
      <trkpt lat="49.46517" lon="-1.57915">
        <ele>41.6</ele>
        <time>2019-04-23T14:09:15.000Z</time>
      </trkpt>
      <trkpt lat="49.46516" lon="-1.57915">
        <ele>41.6</ele>
        <time>2019-04-23T14:09:16.000Z</time>
      </trkpt>
      <trkpt lat="49.46514" lon="-1.57915">
        <ele>41.7</ele>
        <time>2019-04-23T14:09:17.000Z</time>
      </trkpt>
      <trkpt lat="49.46513" lon="-1.57915">
        <ele>41.7</ele>
        <time>2019-04-23T14:09:18.000Z</time>
      </trkpt>
      <trkpt lat="49.46512" lon="-1.57915">
        <ele>41.7</ele>
        <time>2019-04-23T14:09:19.000Z</time>
      </trkpt>
      <trkpt lat="49.4651" lon="-1.57915">
        <ele>41.8</ele>
        <time>2019-04-23T14:09:20.000Z</time>
      </trkpt>
      <trkpt lat="49.46509" lon="-1.57915">
        <ele>41.8</ele>
        <time>2019-04-23T14:09:21.000Z</time>
      </trkpt>
      <trkpt lat="49.46508" lon="-1.57915">
        <ele>41.8</ele>
        <time>2019-04-23T14:09:22.000Z</time>
      </trkpt>
      <trkpt lat="49.46507" lon="-1.57915">
        <ele>41.8</ele>
        <time>2019-04-23T14:09:23.000Z</time>
      </trkpt>
      <trkpt lat="49.46506" lon="-1.57915">
        <ele>41.9</ele>
        <time>2019-04-23T14:09:24.000Z</time>
      </trkpt>
      <trkpt lat="49.46504" lon="-1.57916">
        <ele>41.9</ele>
        <time>2019-04-23T14:09:25.000Z</time>
      </trkpt>
      <trkpt lat="49.46503" lon="-1.57916">
        <ele>41.9</ele>
        <time>2019-04-23T14:09:26.000Z</time>
      </trkpt>
      <trkpt lat="49.46502" lon="-1.57916">
        <ele>42</ele>
        <time>2019-04-23T14:09:27.000Z</time>
      </trkpt>
      <trkpt lat="49.46501" lon="-1.57916">
        <ele>42</ele>
        <time>2019-04-23T14:09:28.000Z</time>
      </trkpt>
      <trkpt lat="49.465" lon="-1.57916">
        <ele>42</ele>
        <time>2019-04-23T14:09:29.000Z</time>
      </trkpt>
      <trkpt lat="49.46499" lon="-1.57917">
        <ele>42</ele>
        <time>2019-04-23T14:09:30.000Z</time>
      </trkpt>
      <trkpt lat="49.46497" lon="-1.57917">
        <ele>42.1</ele>
        <time>2019-04-23T14:09:31.000Z</time>
      </trkpt>
      <trkpt lat="49.46496" lon="-1.57917">
        <ele>42.1</ele>
        <time>2019-04-23T14:09:32.000Z</time>
      </trkpt>
      <trkpt lat="49.46495" lon="-1.57917">
        <ele>42.1</ele>
        <time>2019-04-23T14:09:33.000Z</time>
      </trkpt>
      <trkpt lat="49.46494" lon="-1.57918">
        <ele>42.1</ele>
        <time>2019-04-23T14:09:34.000Z</time>
      </trkpt>
      <trkpt lat="49.46493" lon="-1.57918">
        <ele>42.2</ele>
        <time>2019-04-23T14:09:35.000Z</time>
      </trkpt>
      <trkpt lat="49.46492" lon="-1.57918">
        <ele>42.2</ele>
        <time>2019-04-23T14:09:36.000Z</time>
      </trkpt>
      <trkpt lat="49.4649" lon="-1.57918">
        <ele>42.2</ele>
        <time>2019-04-23T14:09:37.000Z</time>
      </trkpt>
      <trkpt lat="49.46489" lon="-1.57918">
        <ele>42.3</ele>
        <time>2019-04-23T14:09:38.000Z</time>
      </trkpt>
      <trkpt lat="49.46488" lon="-1.57918">
        <ele>42.3</ele>
        <time>2019-04-23T14:09:39.000Z</time>
      </trkpt>
      <trkpt lat="49.46486" lon="-1.57918">
        <ele>42.3</ele>
        <time>2019-04-23T14:09:40.000Z</time>
      </trkpt>
      <trkpt lat="49.46485" lon="-1.57918">
        <ele>42.3</ele>
        <time>2019-04-23T14:09:41.000Z</time>
      </trkpt>
      <trkpt lat="49.46484" lon="-1.57918">
        <ele>42.4</ele>
        <time>2019-04-23T14:09:42.000Z</time>
      </trkpt>
      <trkpt lat="49.46483" lon="-1.57918">
        <ele>42.4</ele>
        <time>2019-04-23T14:09:43.000Z</time>
      </trkpt>
      <trkpt lat="49.46481" lon="-1.57918">
        <ele>42.4</ele>
        <time>2019-04-23T14:09:44.000Z</time>
      </trkpt>
      <trkpt lat="49.4648" lon="-1.57919">
        <ele>42.5</ele>
        <time>2019-04-23T14:09:45.000Z</time>
      </trkpt>
      <trkpt lat="49.46479" lon="-1.57919">
        <ele>42.5</ele>
        <time>2019-04-23T14:09:46.000Z</time>
      </trkpt>
      <trkpt lat="49.46477" lon="-1.57919">
        <ele>42.5</ele>
        <time>2019-04-23T14:09:47.000Z</time>
      </trkpt>
      <trkpt lat="49.46476" lon="-1.57919">
        <ele>42.6</ele>
        <time>2019-04-23T14:09:48.000Z</time>
      </trkpt>
      <trkpt lat="49.46475" lon="-1.57919">
        <ele>42.6</ele>
        <time>2019-04-23T14:09:49.000Z</time>
      </trkpt>
      <trkpt lat="49.46473" lon="-1.57919">
        <ele>42.6</ele>
        <time>2019-04-23T14:09:50.000Z</time>
      </trkpt>
      <trkpt lat="49.46472" lon="-1.57919">
        <ele>42.7</ele>
        <time>2019-04-23T14:09:51.000Z</time>
      </trkpt>
      <trkpt lat="49.46471" lon="-1.57919">
        <ele>42.7</ele>
        <time>2019-04-23T14:09:52.000Z</time>
      </trkpt>
      <trkpt lat="49.46469" lon="-1.57919">
        <ele>42.7</ele>
        <time>2019-04-23T14:09:53.000Z</time>
      </trkpt>
      <trkpt lat="49.46468" lon="-1.57919">
        <ele>42.8</ele>
        <time>2019-04-23T14:09:54.000Z</time>
      </trkpt>
      <trkpt lat="49.46467" lon="-1.5792">
        <ele>42.8</ele>
        <time>2019-04-23T14:09:55.000Z</time>
      </trkpt>
      <trkpt lat="49.46466" lon="-1.5792">
        <ele>42.8</ele>
        <time>2019-04-23T14:09:56.000Z</time>
      </trkpt>
      <trkpt lat="49.46465" lon="-1.5792">
        <ele>42.8</ele>
        <time>2019-04-23T14:09:57.000Z</time>
      </trkpt>
      <trkpt lat="49.46463" lon="-1.5792">
        <ele>42.9</ele>
        <time>2019-04-23T14:09:58.000Z</time>
      </trkpt>
      <trkpt lat="49.46462" lon="-1.5792">
        <ele>42.9</ele>
        <time>2019-04-23T14:09:59.000Z</time>
      </trkpt>
      <trkpt lat="49.46461" lon="-1.5792">
        <ele>42.9</ele>
        <time>2019-04-23T14:10:00.000Z</time>
      </trkpt>
      <trkpt lat="49.4646" lon="-1.5792">
        <ele>43</ele>
        <time>2019-04-23T14:10:01.000Z</time>
      </trkpt>
      <trkpt lat="49.46459" lon="-1.5792">
        <ele>43</ele>
        <time>2019-04-23T14:10:02.000Z</time>
      </trkpt>
      <trkpt lat="49.46458" lon="-1.5792">
        <ele>43</ele>
        <time>2019-04-23T14:10:03.000Z</time>
      </trkpt>
      <trkpt lat="49.46457" lon="-1.5792">
        <ele>43</ele>
        <time>2019-04-23T14:10:04.000Z</time>
      </trkpt>
      <trkpt lat="49.46456" lon="-1.5792">
        <ele>43.1</ele>
        <time>2019-04-23T14:10:05.000Z</time>
      </trkpt>
      <trkpt lat="49.46454" lon="-1.5792">
        <ele>43.1</ele>
        <time>2019-04-23T14:10:06.000Z</time>
      </trkpt>
      <trkpt lat="49.46453" lon="-1.5792">
        <ele>43.1</ele>
        <time>2019-04-23T14:10:07.000Z</time>
      </trkpt>
      <trkpt lat="49.46452" lon="-1.5792">
        <ele>43.2</ele>
        <time>2019-04-23T14:10:08.000Z</time>
      </trkpt>
      <trkpt lat="49.4645" lon="-1.5792">
        <ele>43.2</ele>
        <time>2019-04-23T14:10:09.000Z</time>
      </trkpt>
      <trkpt lat="49.46449" lon="-1.5792">
        <ele>43.2</ele>
        <time>2019-04-23T14:10:10.000Z</time>
      </trkpt>
      <trkpt lat="49.46447" lon="-1.5792">
        <ele>43.3</ele>
        <time>2019-04-23T14:10:11.000Z</time>
      </trkpt>
      <trkpt lat="49.46446" lon="-1.5792">
        <ele>43.3</ele>
        <time>2019-04-23T14:10:12.000Z</time>
      </trkpt>
      <trkpt lat="49.46445" lon="-1.5792">
        <ele>43.3</ele>
        <time>2019-04-23T14:10:13.000Z</time>
      </trkpt>
      <trkpt lat="49.46444" lon="-1.5792">
        <ele>43.4</ele>
        <time>2019-04-23T14:10:14.000Z</time>
      </trkpt>
      <trkpt lat="49.46443" lon="-1.5792">
        <ele>43.4</ele>
        <time>2019-04-23T14:10:15.000Z</time>
      </trkpt>
      <trkpt lat="49.46441" lon="-1.57921">
        <ele>43.4</ele>
        <time>2019-04-23T14:10:16.000Z</time>
      </trkpt>
      <trkpt lat="49.4644" lon="-1.57921">
        <ele>43.5</ele>
        <time>2019-04-23T14:10:17.000Z</time>
      </trkpt>
      <trkpt lat="49.46439" lon="-1.57921">
        <ele>43.5</ele>
        <time>2019-04-23T14:10:18.000Z</time>
      </trkpt>
      <trkpt lat="49.46438" lon="-1.57921">
        <ele>43.5</ele>
        <time>2019-04-23T14:10:19.000Z</time>
      </trkpt>
      <trkpt lat="49.46437" lon="-1.57921">
        <ele>43.5</ele>
        <time>2019-04-23T14:10:20.000Z</time>
      </trkpt>
      <trkpt lat="49.46435" lon="-1.57921">
        <ele>43.6</ele>
        <time>2019-04-23T14:10:21.000Z</time>
      </trkpt>
      <trkpt lat="49.46434" lon="-1.57921">
        <ele>43.6</ele>
        <time>2019-04-23T14:10:22.000Z</time>
      </trkpt>
      <trkpt lat="49.46433" lon="-1.57921">
        <ele>43.6</ele>
        <time>2019-04-23T14:10:23.000Z</time>
      </trkpt>
      <trkpt lat="49.46432" lon="-1.57921">
        <ele>43.7</ele>
        <time>2019-04-23T14:10:24.000Z</time>
      </trkpt>
      <trkpt lat="49.4643" lon="-1.57921">
        <ele>43.7</ele>
        <time>2019-04-23T14:10:25.000Z</time>
      </trkpt>
      <trkpt lat="49.46429" lon="-1.57921">
        <ele>43.7</ele>
        <time>2019-04-23T14:10:26.000Z</time>
      </trkpt>
      <trkpt lat="49.46428" lon="-1.57921">
        <ele>43.8</ele>
        <time>2019-04-23T14:10:27.000Z</time>
      </trkpt>
      <trkpt lat="49.46427" lon="-1.57921">
        <ele>43.8</ele>
        <time>2019-04-23T14:10:28.000Z</time>
      </trkpt>
      <trkpt lat="49.46426" lon="-1.57921">
        <ele>43.8</ele>
        <time>2019-04-23T14:10:29.000Z</time>
      </trkpt>
      <trkpt lat="49.46424" lon="-1.57921">
        <ele>43.9</ele>
        <time>2019-04-23T14:10:30.000Z</time>
      </trkpt>
      <trkpt lat="49.46423" lon="-1.57922">
        <ele>43.9</ele>
        <time>2019-04-23T14:10:31.000Z</time>
      </trkpt>
      <trkpt lat="49.46422" lon="-1.57922">
        <ele>43.9</ele>
        <time>2019-04-23T14:10:32.000Z</time>
      </trkpt>
      <trkpt lat="49.46421" lon="-1.57922">
        <ele>43.9</ele>
        <time>2019-04-23T14:10:33.000Z</time>
      </trkpt>
      <trkpt lat="49.4642" lon="-1.57922">
        <ele>44</ele>
        <time>2019-04-23T14:10:34.000Z</time>
      </trkpt>
      <trkpt lat="49.46419" lon="-1.57923">
        <ele>44</ele>
        <time>2019-04-23T14:10:35.000Z</time>
      </trkpt>
      <trkpt lat="49.46418" lon="-1.57923">
        <ele>44</ele>
        <time>2019-04-23T14:10:36.000Z</time>
      </trkpt>
      <trkpt lat="49.46418" lon="-1.57923">
        <ele>44.1</ele>
        <time>2019-04-23T14:10:37.000Z</time>
      </trkpt>
      <trkpt lat="49.46417" lon="-1.57924">
        <ele>44.1</ele>
        <time>2019-04-23T14:10:38.000Z</time>
      </trkpt>
      <trkpt lat="49.46416" lon="-1.57925">
        <ele>44.1</ele>
        <time>2019-04-23T14:10:39.000Z</time>
      </trkpt>
      <trkpt lat="49.46416" lon="-1.57926">
        <ele>44.1</ele>
        <time>2019-04-23T14:10:40.000Z</time>
      </trkpt>
      <trkpt lat="49.46416" lon="-1.57927">
        <ele>44.1</ele>
        <time>2019-04-23T14:10:41.000Z</time>
      </trkpt>
      <trkpt lat="49.46415" lon="-1.57929">
        <ele>44.2</ele>
        <time>2019-04-23T14:10:42.000Z</time>
      </trkpt>
      <trkpt lat="49.46415" lon="-1.5793">
        <ele>44.2</ele>
        <time>2019-04-23T14:10:43.000Z</time>
      </trkpt>
      <trkpt lat="49.46415" lon="-1.57932">
        <ele>44.2</ele>
        <time>2019-04-23T14:10:44.000Z</time>
      </trkpt>
      <trkpt lat="49.46415" lon="-1.57934">
        <ele>44.2</ele>
        <time>2019-04-23T14:10:45.000Z</time>
      </trkpt>
      <trkpt lat="49.46415" lon="-1.57935">
        <ele>44.2</ele>
        <time>2019-04-23T14:10:46.000Z</time>
      </trkpt>
      <trkpt lat="49.46415" lon="-1.57937">
        <ele>44.3</ele>
        <time>2019-04-23T14:10:47.000Z</time>
      </trkpt>
      <trkpt lat="49.46415" lon="-1.57939">
        <ele>44.3</ele>
        <time>2019-04-23T14:10:48.000Z</time>
      </trkpt>
      <trkpt lat="49.46415" lon="-1.5794">
        <ele>44.3</ele>
        <time>2019-04-23T14:10:49.000Z</time>
      </trkpt>
      <trkpt lat="49.46415" lon="-1.57942">
        <ele>44.3</ele>
        <time>2019-04-23T14:10:50.000Z</time>
      </trkpt>
      <trkpt lat="49.46415" lon="-1.57944">
        <ele>44.3</ele>
        <time>2019-04-23T14:10:51.000Z</time>
      </trkpt>
      <trkpt lat="49.46415" lon="-1.57945">
        <ele>44.4</ele>
        <time>2019-04-23T14:10:52.000Z</time>
      </trkpt>
      <trkpt lat="49.46415" lon="-1.57947">
        <ele>44.4</ele>
        <time>2019-04-23T14:10:53.000Z</time>
      </trkpt>
      <trkpt lat="49.46415" lon="-1.57948">
        <ele>44.4</ele>
        <time>2019-04-23T14:10:54.000Z</time>
      </trkpt>
      <trkpt lat="49.46415" lon="-1.5795">
        <ele>44.4</ele>
        <time>2019-04-23T14:10:55.000Z</time>
      </trkpt>
      <trkpt lat="49.46415" lon="-1.57951">
        <ele>44.4</ele>
        <time>2019-04-23T14:10:56.000Z</time>
      </trkpt>
      <trkpt lat="49.46415" lon="-1.57952">
        <ele>44.4</ele>
        <time>2019-04-23T14:10:57.000Z</time>
      </trkpt>
      <trkpt lat="49.46414" lon="-1.57953">
        <ele>44.5</ele>
        <time>2019-04-23T14:10:58.000Z</time>
      </trkpt>
      <trkpt lat="49.46414" lon="-1.57954">
        <ele>44.5</ele>
        <time>2019-04-23T14:10:59.000Z</time>
      </trkpt>
      <trkpt lat="49.46414" lon="-1.57955">
        <ele>44.5</ele>
        <time>2019-04-23T14:11:00.000Z</time>
      </trkpt>
      <trkpt lat="49.46413" lon="-1.57956">
        <ele>44.5</ele>
        <time>2019-04-23T14:11:01.000Z</time>
      </trkpt>
      <trkpt lat="49.46413" lon="-1.57957">
        <ele>44.5</ele>
        <time>2019-04-23T14:11:02.000Z</time>
      </trkpt>
      <trkpt lat="49.46412" lon="-1.57957">
        <ele>44.5</ele>
        <time>2019-04-23T14:11:03.000Z</time>
      </trkpt>
      <trkpt lat="49.46411" lon="-1.57958">
        <ele>44.6</ele>
        <time>2019-04-23T14:11:04.000Z</time>
      </trkpt>
      <trkpt lat="49.46411" lon="-1.57958">
        <ele>44.6</ele>
        <time>2019-04-23T14:11:05.000Z</time>
      </trkpt>
      <trkpt lat="49.4641" lon="-1.57958">
        <ele>44.6</ele>
        <time>2019-04-23T14:11:06.000Z</time>
      </trkpt>
      <trkpt lat="49.46409" lon="-1.57959">
        <ele>44.6</ele>
        <time>2019-04-23T14:11:07.000Z</time>
      </trkpt>
      <trkpt lat="49.46408" lon="-1.57959">
        <ele>44.6</ele>
        <time>2019-04-23T14:11:08.000Z</time>
      </trkpt>
      <trkpt lat="49.46407" lon="-1.57959">
        <ele>44.6</ele>
        <time>2019-04-23T14:11:09.000Z</time>
      </trkpt>
      <trkpt lat="49.46406" lon="-1.57958">
        <ele>44.6</ele>
        <time>2019-04-23T14:11:10.000Z</time>
      </trkpt>
      <trkpt lat="49.46405" lon="-1.57958">
        <ele>44.6</ele>
        <time>2019-04-23T14:11:11.000Z</time>
      </trkpt>
      <trkpt lat="49.46404" lon="-1.57958">
        <ele>44.7</ele>
        <time>2019-04-23T14:11:12.000Z</time>
      </trkpt>
      <trkpt lat="49.46402" lon="-1.57958">
        <ele>44.7</ele>
        <time>2019-04-23T14:11:13.000Z</time>
      </trkpt>
      <trkpt lat="49.46401" lon="-1.57958">
        <ele>44.7</ele>
        <time>2019-04-23T14:11:14.000Z</time>
      </trkpt>
      <trkpt lat="49.464" lon="-1.57957">
        <ele>44.7</ele>
        <time>2019-04-23T14:11:15.000Z</time>
      </trkpt>
      <trkpt lat="49.46399" lon="-1.57957">
        <ele>44.7</ele>
        <time>2019-04-23T14:11:16.000Z</time>
      </trkpt>
      <trkpt lat="49.46398" lon="-1.57957">
        <ele>44.7</ele>
        <time>2019-04-23T14:11:17.000Z</time>
      </trkpt>
      <trkpt lat="49.46397" lon="-1.57957">
        <ele>44.7</ele>
        <time>2019-04-23T14:11:18.000Z</time>
      </trkpt>
      <trkpt lat="49.46396" lon="-1.57956">
        <ele>44.7</ele>
        <time>2019-04-23T14:11:19.000Z</time>
      </trkpt>
      <trkpt lat="49.46395" lon="-1.57956">
        <ele>44.7</ele>
        <time>2019-04-23T14:11:20.000Z</time>
      </trkpt>
      <trkpt lat="49.46394" lon="-1.57956">
        <ele>44.7</ele>
        <time>2019-04-23T14:11:21.000Z</time>
      </trkpt>
      <trkpt lat="49.46393" lon="-1.57955">
        <ele>44.8</ele>
        <time>2019-04-23T14:11:22.000Z</time>
      </trkpt>
      <trkpt lat="49.46392" lon="-1.57955">
        <ele>44.8</ele>
        <time>2019-04-23T14:11:23.000Z</time>
      </trkpt>
      <trkpt lat="49.46391" lon="-1.57955">
        <ele>44.8</ele>
        <time>2019-04-23T14:11:24.000Z</time>
      </trkpt>
      <trkpt lat="49.4639" lon="-1.57955">
        <ele>44.8</ele>
        <time>2019-04-23T14:11:25.000Z</time>
      </trkpt>
      <trkpt lat="49.46389" lon="-1.57955">
        <ele>44.8</ele>
        <time>2019-04-23T14:11:26.000Z</time>
      </trkpt>
      <trkpt lat="49.46388" lon="-1.57955">
        <ele>44.8</ele>
        <time>2019-04-23T14:11:27.000Z</time>
      </trkpt>
      <trkpt lat="49.46387" lon="-1.57955">
        <ele>44.8</ele>
        <time>2019-04-23T14:11:28.000Z</time>
      </trkpt>
      <trkpt lat="49.46386" lon="-1.57955">
        <ele>44.8</ele>
        <time>2019-04-23T14:11:29.000Z</time>
      </trkpt>
      <trkpt lat="49.46385" lon="-1.57955">
        <ele>44.8</ele>
        <time>2019-04-23T14:11:30.000Z</time>
      </trkpt>
      <trkpt lat="49.46384" lon="-1.57955">
        <ele>44.9</ele>
        <time>2019-04-23T14:11:31.000Z</time>
      </trkpt>
      <trkpt lat="49.46382" lon="-1.57954">
        <ele>44.9</ele>
        <time>2019-04-23T14:11:32.000Z</time>
      </trkpt>
      <trkpt lat="49.4638" lon="-1.57954">
        <ele>44.9</ele>
        <time>2019-04-23T14:11:33.000Z</time>
      </trkpt>
      <trkpt lat="49.46379" lon="-1.57953">
        <ele>44.9</ele>
        <time>2019-04-23T14:11:34.000Z</time>
      </trkpt>
      <trkpt lat="49.46378" lon="-1.57952">
        <ele>44.9</ele>
        <time>2019-04-23T14:11:35.000Z</time>
      </trkpt>
      <trkpt lat="49.46378" lon="-1.57952">
        <ele>44.9</ele>
        <time>2019-04-23T14:11:36.000Z</time>
      </trkpt>
      <trkpt lat="49.46378" lon="-1.57951">
        <ele>44.9</ele>
        <time>2019-04-23T14:11:37.000Z</time>
      </trkpt>
      <trkpt lat="49.46377" lon="-1.57951">
        <ele>44.9</ele>
        <time>2019-04-23T14:11:38.000Z</time>
      </trkpt>
      <trkpt lat="49.46377" lon="-1.5795">
        <ele>44.9</ele>
        <time>2019-04-23T14:11:39.000Z</time>
      </trkpt>
      <trkpt lat="49.46376" lon="-1.5795">
        <ele>44.9</ele>
        <time>2019-04-23T14:11:40.000Z</time>
      </trkpt>
      <trkpt lat="49.46375" lon="-1.57949">
        <ele>44.9</ele>
        <time>2019-04-23T14:11:41.000Z</time>
      </trkpt>
      <trkpt lat="49.46374" lon="-1.57949">
        <ele>44.9</ele>
        <time>2019-04-23T14:11:42.000Z</time>
      </trkpt>
      <trkpt lat="49.46373" lon="-1.57948">
        <ele>44.9</ele>
        <time>2019-04-23T14:11:43.000Z</time>
      </trkpt>
      <trkpt lat="49.46372" lon="-1.57948">
        <ele>44.9</ele>
        <time>2019-04-23T14:11:44.000Z</time>
      </trkpt>
      <trkpt lat="49.46371" lon="-1.57947">
        <ele>44.9</ele>
        <time>2019-04-23T14:11:45.000Z</time>
      </trkpt>
      <trkpt lat="49.4637" lon="-1.57947">
        <ele>44.9</ele>
        <time>2019-04-23T14:11:46.000Z</time>
      </trkpt>
      <trkpt lat="49.46369" lon="-1.57946">
        <ele>44.9</ele>
        <time>2019-04-23T14:11:47.000Z</time>
      </trkpt>
      <trkpt lat="49.46368" lon="-1.57946">
        <ele>44.9</ele>
        <time>2019-04-23T14:11:48.000Z</time>
      </trkpt>
      <trkpt lat="49.46367" lon="-1.57945">
        <ele>44.9</ele>
        <time>2019-04-23T14:11:49.000Z</time>
      </trkpt>
      <trkpt lat="49.46366" lon="-1.57945">
        <ele>44.9</ele>
        <time>2019-04-23T14:11:50.000Z</time>
      </trkpt>
      <trkpt lat="49.46365" lon="-1.57944">
        <ele>44.9</ele>
        <time>2019-04-23T14:11:51.000Z</time>
      </trkpt>
      <trkpt lat="49.46364" lon="-1.57944">
        <ele>45</ele>
        <time>2019-04-23T14:11:52.000Z</time>
      </trkpt>
      <trkpt lat="49.46363" lon="-1.57943">
        <ele>45</ele>
        <time>2019-04-23T14:11:53.000Z</time>
      </trkpt>
      <trkpt lat="49.46362" lon="-1.57942">
        <ele>45</ele>
        <time>2019-04-23T14:11:54.000Z</time>
      </trkpt>
      <trkpt lat="49.46361" lon="-1.57942">
        <ele>45</ele>
        <time>2019-04-23T14:11:55.000Z</time>
      </trkpt>
      <trkpt lat="49.4636" lon="-1.57941">
        <ele>45</ele>
        <time>2019-04-23T14:11:56.000Z</time>
      </trkpt>
      <trkpt lat="49.46359" lon="-1.57941">
        <ele>45</ele>
        <time>2019-04-23T14:11:57.000Z</time>
      </trkpt>
      <trkpt lat="49.46358" lon="-1.5794">
        <ele>45</ele>
        <time>2019-04-23T14:11:58.000Z</time>
      </trkpt>
      <trkpt lat="49.46357" lon="-1.5794">
        <ele>45</ele>
        <time>2019-04-23T14:11:59.000Z</time>
      </trkpt>
      <trkpt lat="49.46356" lon="-1.57939">
        <ele>45</ele>
        <time>2019-04-23T14:12:00.000Z</time>
      </trkpt>
      <trkpt lat="49.46355" lon="-1.57939">
        <ele>45</ele>
        <time>2019-04-23T14:12:01.000Z</time>
      </trkpt>
      <trkpt lat="49.46354" lon="-1.57938">
        <ele>45</ele>
        <time>2019-04-23T14:12:02.000Z</time>
      </trkpt>
      <trkpt lat="49.46353" lon="-1.57938">
        <ele>45</ele>
        <time>2019-04-23T14:12:03.000Z</time>
      </trkpt>
      <trkpt lat="49.46352" lon="-1.57937">
        <ele>45</ele>
        <time>2019-04-23T14:12:04.000Z</time>
      </trkpt>
      <trkpt lat="49.46351" lon="-1.57937">
        <ele>45</ele>
        <time>2019-04-23T14:12:05.000Z</time>
      </trkpt>
      <trkpt lat="49.4635" lon="-1.57936">
        <ele>45</ele>
        <time>2019-04-23T14:12:06.000Z</time>
      </trkpt>
      <trkpt lat="49.46348" lon="-1.57936">
        <ele>45</ele>
        <time>2019-04-23T14:12:07.000Z</time>
      </trkpt>
      <trkpt lat="49.46347" lon="-1.57935">
        <ele>45.1</ele>
        <time>2019-04-23T14:12:08.000Z</time>
      </trkpt>
      <trkpt lat="49.46346" lon="-1.57935">
        <ele>45.1</ele>
        <time>2019-04-23T14:12:09.000Z</time>
      </trkpt>
      <trkpt lat="49.46345" lon="-1.57934">
        <ele>45.1</ele>
        <time>2019-04-23T14:12:10.000Z</time>
      </trkpt>
      <trkpt lat="49.46344" lon="-1.57934">
        <ele>45.1</ele>
        <time>2019-04-23T14:12:11.000Z</time>
      </trkpt>
      <trkpt lat="49.46343" lon="-1.57933">
        <ele>45.1</ele>
        <time>2019-04-23T14:12:12.000Z</time>
      </trkpt>
      <trkpt lat="49.46342" lon="-1.57933">
        <ele>45.1</ele>
        <time>2019-04-23T14:12:13.000Z</time>
      </trkpt>
      <trkpt lat="49.46341" lon="-1.57932">
        <ele>45.1</ele>
        <time>2019-04-23T14:12:14.000Z</time>
      </trkpt>
      <trkpt lat="49.4634" lon="-1.57932">
        <ele>45.1</ele>
        <time>2019-04-23T14:12:15.000Z</time>
      </trkpt>
      <trkpt lat="49.46339" lon="-1.57932">
        <ele>45.1</ele>
        <time>2019-04-23T14:12:16.000Z</time>
      </trkpt>
      <trkpt lat="49.46337" lon="-1.57931">
        <ele>45.1</ele>
        <time>2019-04-23T14:12:17.000Z</time>
      </trkpt>
      <trkpt lat="49.46336" lon="-1.57931">
        <ele>45.1</ele>
        <time>2019-04-23T14:12:18.000Z</time>
      </trkpt>
      <trkpt lat="49.46335" lon="-1.57931">
        <ele>45.1</ele>
        <time>2019-04-23T14:12:19.000Z</time>
      </trkpt>
      <trkpt lat="49.46334" lon="-1.5793">
        <ele>45.2</ele>
        <time>2019-04-23T14:12:20.000Z</time>
      </trkpt>
      <trkpt lat="49.46333" lon="-1.5793">
        <ele>45.2</ele>
        <time>2019-04-23T14:12:21.000Z</time>
      </trkpt>
      <trkpt lat="49.46332" lon="-1.5793">
        <ele>45.2</ele>
        <time>2019-04-23T14:12:22.000Z</time>
      </trkpt>
      <trkpt lat="49.46331" lon="-1.57929">
        <ele>45.2</ele>
        <time>2019-04-23T14:12:23.000Z</time>
      </trkpt>
      <trkpt lat="49.4633" lon="-1.57929">
        <ele>45.3</ele>
        <time>2019-04-23T14:12:24.000Z</time>
      </trkpt>
      <trkpt lat="49.46328" lon="-1.57929">
        <ele>45.3</ele>
        <time>2019-04-23T14:12:25.000Z</time>
      </trkpt>
      <trkpt lat="49.46327" lon="-1.57928">
        <ele>45.3</ele>
        <time>2019-04-23T14:12:26.000Z</time>
      </trkpt>
      <trkpt lat="49.46326" lon="-1.57928">
        <ele>45.4</ele>
        <time>2019-04-23T14:12:27.000Z</time>
      </trkpt>
      <trkpt lat="49.46325" lon="-1.57928">
        <ele>45.4</ele>
        <time>2019-04-23T14:12:28.000Z</time>
      </trkpt>
      <trkpt lat="49.46324" lon="-1.57927">
        <ele>45.4</ele>
        <time>2019-04-23T14:12:29.000Z</time>
      </trkpt>
      <trkpt lat="49.46323" lon="-1.57927">
        <ele>45.5</ele>
        <time>2019-04-23T14:12:30.000Z</time>
      </trkpt>
      <trkpt lat="49.46321" lon="-1.57926">
        <ele>45.5</ele>
        <time>2019-04-23T14:12:31.000Z</time>
      </trkpt>
      <trkpt lat="49.4632" lon="-1.57926">
        <ele>45.5</ele>
        <time>2019-04-23T14:12:32.000Z</time>
      </trkpt>
      <trkpt lat="49.46319" lon="-1.57925">
        <ele>45.6</ele>
        <time>2019-04-23T14:12:33.000Z</time>
      </trkpt>
      <trkpt lat="49.46318" lon="-1.57925">
        <ele>45.6</ele>
        <time>2019-04-23T14:12:34.000Z</time>
      </trkpt>
      <trkpt lat="49.46317" lon="-1.57924">
        <ele>45.6</ele>
        <time>2019-04-23T14:12:35.000Z</time>
      </trkpt>
      <trkpt lat="49.46315" lon="-1.57924">
        <ele>45.7</ele>
        <time>2019-04-23T14:12:36.000Z</time>
      </trkpt>
      <trkpt lat="49.46314" lon="-1.57923">
        <ele>45.7</ele>
        <time>2019-04-23T14:12:37.000Z</time>
      </trkpt>
      <trkpt lat="49.46313" lon="-1.57923">
        <ele>45.7</ele>
        <time>2019-04-23T14:12:38.000Z</time>
      </trkpt>
      <trkpt lat="49.46312" lon="-1.57923">
        <ele>45.8</ele>
        <time>2019-04-23T14:12:39.000Z</time>
      </trkpt>
      <trkpt lat="49.46311" lon="-1.57922">
        <ele>45.8</ele>
        <time>2019-04-23T14:12:40.000Z</time>
      </trkpt>
      <trkpt lat="49.4631" lon="-1.57922">
        <ele>45.9</ele>
        <time>2019-04-23T14:12:41.000Z</time>
      </trkpt>
      <trkpt lat="49.46309" lon="-1.57922">
        <ele>45.9</ele>
        <time>2019-04-23T14:12:42.000Z</time>
      </trkpt>
      <trkpt lat="49.46308" lon="-1.57921">
        <ele>45.9</ele>
        <time>2019-04-23T14:12:43.000Z</time>
      </trkpt>
      <trkpt lat="49.46307" lon="-1.57921">
        <ele>46</ele>
        <time>2019-04-23T14:12:44.000Z</time>
      </trkpt>
      <trkpt lat="49.46306" lon="-1.57921">
        <ele>46</ele>
        <time>2019-04-23T14:12:45.000Z</time>
      </trkpt>
      <trkpt lat="49.46305" lon="-1.57921">
        <ele>46</ele>
        <time>2019-04-23T14:12:46.000Z</time>
      </trkpt>
      <trkpt lat="49.46304" lon="-1.57921">
        <ele>46.1</ele>
        <time>2019-04-23T14:12:47.000Z</time>
      </trkpt>
      <trkpt lat="49.46303" lon="-1.5792">
        <ele>46.1</ele>
        <time>2019-04-23T14:12:48.000Z</time>
      </trkpt>
      <trkpt lat="49.46302" lon="-1.5792">
        <ele>46.1</ele>
        <time>2019-04-23T14:12:49.000Z</time>
      </trkpt>
      <trkpt lat="49.46301" lon="-1.5792">
        <ele>46.2</ele>
        <time>2019-04-23T14:12:50.000Z</time>
      </trkpt>
      <trkpt lat="49.46299" lon="-1.57919">
        <ele>46.2</ele>
        <time>2019-04-23T14:12:51.000Z</time>
      </trkpt>
      <trkpt lat="49.46298" lon="-1.57919">
        <ele>46.3</ele>
        <time>2019-04-23T14:12:52.000Z</time>
      </trkpt>
      <trkpt lat="49.46297" lon="-1.57918">
        <ele>46.3</ele>
        <time>2019-04-23T14:12:53.000Z</time>
      </trkpt>
      <trkpt lat="49.46295" lon="-1.57918">
        <ele>46.4</ele>
        <time>2019-04-23T14:12:54.000Z</time>
      </trkpt>
      <trkpt lat="49.46294" lon="-1.57917">
        <ele>46.4</ele>
        <time>2019-04-23T14:12:55.000Z</time>
      </trkpt>
      <trkpt lat="49.46293" lon="-1.57916">
        <ele>46.5</ele>
        <time>2019-04-23T14:12:56.000Z</time>
      </trkpt>
      <trkpt lat="49.46292" lon="-1.57916">
        <ele>46.5</ele>
        <time>2019-04-23T14:12:57.000Z</time>
      </trkpt>
      <trkpt lat="49.46292" lon="-1.57916">
        <ele>46.5</ele>
        <time>2019-04-23T14:12:58.000Z</time>
      </trkpt>
      <trkpt lat="49.46291" lon="-1.57915">
        <ele>46.5</ele>
        <time>2019-04-23T14:12:59.000Z</time>
      </trkpt>
      <trkpt lat="49.4629" lon="-1.57915">
        <ele>46.5</ele>
        <time>2019-04-23T14:13:00.000Z</time>
      </trkpt>
      <trkpt lat="49.46289" lon="-1.57915">
        <ele>46.6</ele>
        <time>2019-04-23T14:13:01.000Z</time>
      </trkpt>
      <trkpt lat="49.46288" lon="-1.57915">
        <ele>46.6</ele>
        <time>2019-04-23T14:13:02.000Z</time>
      </trkpt>
      <trkpt lat="49.46286" lon="-1.57915">
        <ele>46.6</ele>
        <time>2019-04-23T14:13:03.000Z</time>
      </trkpt>
      <trkpt lat="49.46285" lon="-1.57914">
        <ele>46.7</ele>
        <time>2019-04-23T14:13:04.000Z</time>
      </trkpt>
      <trkpt lat="49.46284" lon="-1.57913">
        <ele>46.7</ele>
        <time>2019-04-23T14:13:05.000Z</time>
      </trkpt>
      <trkpt lat="49.46283" lon="-1.57912">
        <ele>46.7</ele>
        <time>2019-04-23T14:13:06.000Z</time>
      </trkpt>
      <trkpt lat="49.46281" lon="-1.57911">
        <ele>46.8</ele>
        <time>2019-04-23T14:13:07.000Z</time>
      </trkpt>
      <trkpt lat="49.4628" lon="-1.57909">
        <ele>46.8</ele>
        <time>2019-04-23T14:13:08.000Z</time>
      </trkpt>
      <trkpt lat="49.46279" lon="-1.57908">
        <ele>46.8</ele>
        <time>2019-04-23T14:13:09.000Z</time>
      </trkpt>
      <trkpt lat="49.46278" lon="-1.57906">
        <ele>46.8</ele>
        <time>2019-04-23T14:13:10.000Z</time>
      </trkpt>
      <trkpt lat="49.46277" lon="-1.57905">
        <ele>46.8</ele>
        <time>2019-04-23T14:13:11.000Z</time>
      </trkpt>
      <trkpt lat="49.46277" lon="-1.57903">
        <ele>46.8</ele>
        <time>2019-04-23T14:13:12.000Z</time>
      </trkpt>
      <trkpt lat="49.46276" lon="-1.57901">
        <ele>46.7</ele>
        <time>2019-04-23T14:13:13.000Z</time>
      </trkpt>
      <trkpt lat="49.46276" lon="-1.57899">
        <ele>46.7</ele>
        <time>2019-04-23T14:13:14.000Z</time>
      </trkpt>
      <trkpt lat="49.46275" lon="-1.57897">
        <ele>46.7</ele>
        <time>2019-04-23T14:13:15.000Z</time>
      </trkpt>
      <trkpt lat="49.46275" lon="-1.57895">
        <ele>46.7</ele>
        <time>2019-04-23T14:13:16.000Z</time>
      </trkpt>
      <trkpt lat="49.46275" lon="-1.57893">
        <ele>46.6</ele>
        <time>2019-04-23T14:13:17.000Z</time>
      </trkpt>
      <trkpt lat="49.46275" lon="-1.57891">
        <ele>46.6</ele>
        <time>2019-04-23T14:13:18.000Z</time>
      </trkpt>
      <trkpt lat="49.46275" lon="-1.57889">
        <ele>46.5</ele>
        <time>2019-04-23T14:13:19.000Z</time>
      </trkpt>
      <trkpt lat="49.46275" lon="-1.57887">
        <ele>46.5</ele>
        <time>2019-04-23T14:13:20.000Z</time>
      </trkpt>
      <trkpt lat="49.46275" lon="-1.57885">
        <ele>46.4</ele>
        <time>2019-04-23T14:13:21.000Z</time>
      </trkpt>
      <trkpt lat="49.46275" lon="-1.57883">
        <ele>46.4</ele>
        <time>2019-04-23T14:13:22.000Z</time>
      </trkpt>
      <trkpt lat="49.46275" lon="-1.57881">
        <ele>46.4</ele>
        <time>2019-04-23T14:13:23.000Z</time>
      </trkpt>
      <trkpt lat="49.46276" lon="-1.57879">
        <ele>46.3</ele>
        <time>2019-04-23T14:13:24.000Z</time>
      </trkpt>
      <trkpt lat="49.46276" lon="-1.57876">
        <ele>46.3</ele>
        <time>2019-04-23T14:13:25.000Z</time>
      </trkpt>
      <trkpt lat="49.46276" lon="-1.57874">
        <ele>46.2</ele>
        <time>2019-04-23T14:13:26.000Z</time>
      </trkpt>
      <trkpt lat="49.46276" lon="-1.57872">
        <ele>46.2</ele>
        <time>2019-04-23T14:13:27.000Z</time>
      </trkpt>
      <trkpt lat="49.46276" lon="-1.5787">
        <ele>46.1</ele>
        <time>2019-04-23T14:13:28.000Z</time>
      </trkpt>
      <trkpt lat="49.46276" lon="-1.57868">
        <ele>46.1</ele>
        <time>2019-04-23T14:13:29.000Z</time>
      </trkpt>
      <trkpt lat="49.46276" lon="-1.57866">
        <ele>46</ele>
        <time>2019-04-23T14:13:30.000Z</time>
      </trkpt>
      <trkpt lat="49.46277" lon="-1.57864">
        <ele>46</ele>
        <time>2019-04-23T14:13:31.000Z</time>
      </trkpt>
      <trkpt lat="49.46277" lon="-1.57862">
        <ele>45.9</ele>
        <time>2019-04-23T14:13:32.000Z</time>
      </trkpt>
      <trkpt lat="49.46277" lon="-1.5786">
        <ele>45.9</ele>
        <time>2019-04-23T14:13:33.000Z</time>
      </trkpt>
      <trkpt lat="49.46277" lon="-1.57858">
        <ele>45.8</ele>
        <time>2019-04-23T14:13:34.000Z</time>
      </trkpt>
      <trkpt lat="49.46277" lon="-1.57856">
        <ele>45.8</ele>
        <time>2019-04-23T14:13:35.000Z</time>
      </trkpt>
      <trkpt lat="49.46278" lon="-1.57854">
        <ele>45.7</ele>
        <time>2019-04-23T14:13:36.000Z</time>
      </trkpt>
      <trkpt lat="49.46278" lon="-1.57851">
        <ele>45.7</ele>
        <time>2019-04-23T14:13:37.000Z</time>
      </trkpt>
      <trkpt lat="49.46278" lon="-1.57849">
        <ele>45.7</ele>
        <time>2019-04-23T14:13:38.000Z</time>
      </trkpt>
      <trkpt lat="49.46278" lon="-1.57847">
        <ele>45.6</ele>
        <time>2019-04-23T14:13:39.000Z</time>
      </trkpt>
      <trkpt lat="49.46278" lon="-1.57845">
        <ele>45.6</ele>
        <time>2019-04-23T14:13:40.000Z</time>
      </trkpt>
      <trkpt lat="49.46279" lon="-1.57843">
        <ele>45.5</ele>
        <time>2019-04-23T14:13:41.000Z</time>
      </trkpt>
      <trkpt lat="49.46279" lon="-1.57841">
        <ele>45.5</ele>
        <time>2019-04-23T14:13:42.000Z</time>
      </trkpt>
      <trkpt lat="49.46279" lon="-1.57839">
        <ele>45.4</ele>
        <time>2019-04-23T14:13:43.000Z</time>
      </trkpt>
      <trkpt lat="49.46279" lon="-1.57837">
        <ele>45.4</ele>
        <time>2019-04-23T14:13:44.000Z</time>
      </trkpt>
      <trkpt lat="49.46279" lon="-1.57835">
        <ele>45.3</ele>
        <time>2019-04-23T14:13:45.000Z</time>
      </trkpt>
      <trkpt lat="49.4628" lon="-1.57834">
        <ele>45.3</ele>
        <time>2019-04-23T14:13:46.000Z</time>
      </trkpt>
      <trkpt lat="49.4628" lon="-1.57832">
        <ele>45.2</ele>
        <time>2019-04-23T14:13:47.000Z</time>
      </trkpt>
      <trkpt lat="49.4628" lon="-1.5783">
        <ele>45.2</ele>
        <time>2019-04-23T14:13:48.000Z</time>
      </trkpt>
      <trkpt lat="49.4628" lon="-1.57828">
        <ele>45.2</ele>
        <time>2019-04-23T14:13:49.000Z</time>
      </trkpt>
      <trkpt lat="49.46281" lon="-1.57826">
        <ele>45.1</ele>
        <time>2019-04-23T14:13:50.000Z</time>
      </trkpt>
      <trkpt lat="49.46281" lon="-1.57824">
        <ele>45.1</ele>
        <time>2019-04-23T14:13:51.000Z</time>
      </trkpt>
      <trkpt lat="49.46281" lon="-1.57822">
        <ele>45</ele>
        <time>2019-04-23T14:13:52.000Z</time>
      </trkpt>
      <trkpt lat="49.46281" lon="-1.5782">
        <ele>45</ele>
        <time>2019-04-23T14:13:53.000Z</time>
      </trkpt>
      <trkpt lat="49.46282" lon="-1.57818">
        <ele>44.9</ele>
        <time>2019-04-23T14:13:54.000Z</time>
      </trkpt>
      <trkpt lat="49.46282" lon="-1.57817">
        <ele>44.9</ele>
        <time>2019-04-23T14:13:55.000Z</time>
      </trkpt>
      <trkpt lat="49.46282" lon="-1.57815">
        <ele>44.9</ele>
        <time>2019-04-23T14:13:56.000Z</time>
      </trkpt>
      <trkpt lat="49.46282" lon="-1.57813">
        <ele>44.8</ele>
        <time>2019-04-23T14:13:57.000Z</time>
      </trkpt>
      <trkpt lat="49.46283" lon="-1.57811">
        <ele>44.8</ele>
        <time>2019-04-23T14:13:58.000Z</time>
      </trkpt>
      <trkpt lat="49.46283" lon="-1.57809">
        <ele>44.7</ele>
        <time>2019-04-23T14:13:59.000Z</time>
      </trkpt>
      <trkpt lat="49.46283" lon="-1.57807">
        <ele>44.7</ele>
        <time>2019-04-23T14:14:00.000Z</time>
      </trkpt>
      <trkpt lat="49.46283" lon="-1.57805">
        <ele>44.7</ele>
        <time>2019-04-23T14:14:01.000Z</time>
      </trkpt>
      <trkpt lat="49.46283" lon="-1.57803">
        <ele>44.6</ele>
        <time>2019-04-23T14:14:02.000Z</time>
      </trkpt>
      <trkpt lat="49.46283" lon="-1.57801">
        <ele>44.6</ele>
        <time>2019-04-23T14:14:03.000Z</time>
      </trkpt>
      <trkpt lat="49.46283" lon="-1.57799">
        <ele>44.5</ele>
        <time>2019-04-23T14:14:04.000Z</time>
      </trkpt>
      <trkpt lat="49.46283" lon="-1.57798">
        <ele>44.5</ele>
        <time>2019-04-23T14:14:05.000Z</time>
      </trkpt>
      <trkpt lat="49.46283" lon="-1.57796">
        <ele>44.5</ele>
        <time>2019-04-23T14:14:06.000Z</time>
      </trkpt>
      <trkpt lat="49.46284" lon="-1.57794">
        <ele>44.4</ele>
        <time>2019-04-23T14:14:07.000Z</time>
      </trkpt>
      <trkpt lat="49.46284" lon="-1.57792">
        <ele>44.4</ele>
        <time>2019-04-23T14:14:08.000Z</time>
      </trkpt>
      <trkpt lat="49.46284" lon="-1.5779">
        <ele>44.4</ele>
        <time>2019-04-23T14:14:09.000Z</time>
      </trkpt>
      <trkpt lat="49.46283" lon="-1.57788">
        <ele>44.3</ele>
        <time>2019-04-23T14:14:10.000Z</time>
      </trkpt>
      <trkpt lat="49.46283" lon="-1.57786">
        <ele>44.3</ele>
        <time>2019-04-23T14:14:11.000Z</time>
      </trkpt>
      <trkpt lat="49.46283" lon="-1.57784">
        <ele>44.2</ele>
        <time>2019-04-23T14:14:12.000Z</time>
      </trkpt>
      <trkpt lat="49.46283" lon="-1.57782">
        <ele>44.2</ele>
        <time>2019-04-23T14:14:13.000Z</time>
      </trkpt>
      <trkpt lat="49.46283" lon="-1.5778">
        <ele>44.2</ele>
        <time>2019-04-23T14:14:14.000Z</time>
      </trkpt>
      <trkpt lat="49.46283" lon="-1.57777">
        <ele>44.1</ele>
        <time>2019-04-23T14:14:15.000Z</time>
      </trkpt>
      <trkpt lat="49.46283" lon="-1.57775">
        <ele>44.1</ele>
        <time>2019-04-23T14:14:16.000Z</time>
      </trkpt>
      <trkpt lat="49.46283" lon="-1.57773">
        <ele>44</ele>
        <time>2019-04-23T14:14:17.000Z</time>
      </trkpt>
      <trkpt lat="49.46283" lon="-1.57771">
        <ele>44</ele>
        <time>2019-04-23T14:14:18.000Z</time>
      </trkpt>
      <trkpt lat="49.46283" lon="-1.57769">
        <ele>44</ele>
        <time>2019-04-23T14:14:19.000Z</time>
      </trkpt>
      <trkpt lat="49.46283" lon="-1.57767">
        <ele>43.9</ele>
        <time>2019-04-23T14:14:20.000Z</time>
      </trkpt>
      <trkpt lat="49.46283" lon="-1.57765">
        <ele>43.9</ele>
        <time>2019-04-23T14:14:21.000Z</time>
      </trkpt>
      <trkpt lat="49.46283" lon="-1.57763">
        <ele>43.8</ele>
        <time>2019-04-23T14:14:22.000Z</time>
      </trkpt>
      <trkpt lat="49.46283" lon="-1.57761">
        <ele>43.8</ele>
        <time>2019-04-23T14:14:23.000Z</time>
      </trkpt>
      <trkpt lat="49.46283" lon="-1.57759">
        <ele>43.8</ele>
        <time>2019-04-23T14:14:24.000Z</time>
      </trkpt>
      <trkpt lat="49.46283" lon="-1.57756">
        <ele>43.7</ele>
        <time>2019-04-23T14:14:25.000Z</time>
      </trkpt>
      <trkpt lat="49.46283" lon="-1.57754">
        <ele>43.7</ele>
        <time>2019-04-23T14:14:26.000Z</time>
      </trkpt>
      <trkpt lat="49.46283" lon="-1.57752">
        <ele>43.6</ele>
        <time>2019-04-23T14:14:27.000Z</time>
      </trkpt>
      <trkpt lat="49.46283" lon="-1.5775">
        <ele>43.6</ele>
        <time>2019-04-23T14:14:28.000Z</time>
      </trkpt>
      <trkpt lat="49.46283" lon="-1.57748">
        <ele>43.7</ele>
        <time>2019-04-23T14:14:29.000Z</time>
      </trkpt>
      <trkpt lat="49.46283" lon="-1.57746">
        <ele>43.7</ele>
        <time>2019-04-23T14:14:30.000Z</time>
      </trkpt>
      <trkpt lat="49.46283" lon="-1.57744">
        <ele>43.8</ele>
        <time>2019-04-23T14:14:31.000Z</time>
      </trkpt>
      <trkpt lat="49.46283" lon="-1.57742">
        <ele>43.8</ele>
        <time>2019-04-23T14:14:32.000Z</time>
      </trkpt>
      <trkpt lat="49.46283" lon="-1.57739">
        <ele>43.9</ele>
        <time>2019-04-23T14:14:33.000Z</time>
      </trkpt>
      <trkpt lat="49.46283" lon="-1.57737">
        <ele>43.9</ele>
        <time>2019-04-23T14:14:34.000Z</time>
      </trkpt>
      <trkpt lat="49.46283" lon="-1.57735">
        <ele>44</ele>
        <time>2019-04-23T14:14:35.000Z</time>
      </trkpt>
      <trkpt lat="49.46282" lon="-1.57733">
        <ele>44</ele>
        <time>2019-04-23T14:14:36.000Z</time>
      </trkpt>
      <trkpt lat="49.46282" lon="-1.57731">
        <ele>44.1</ele>
        <time>2019-04-23T14:14:37.000Z</time>
      </trkpt>
      <trkpt lat="49.46282" lon="-1.57729">
        <ele>44.1</ele>
        <time>2019-04-23T14:14:38.000Z</time>
      </trkpt>
      <trkpt lat="49.46282" lon="-1.57727">
        <ele>44.2</ele>
        <time>2019-04-23T14:14:39.000Z</time>
      </trkpt>
      <trkpt lat="49.46281" lon="-1.57725">
        <ele>44.2</ele>
        <time>2019-04-23T14:14:40.000Z</time>
      </trkpt>
      <trkpt lat="49.46281" lon="-1.57723">
        <ele>44.3</ele>
        <time>2019-04-23T14:14:41.000Z</time>
      </trkpt>
      <trkpt lat="49.46281" lon="-1.57721">
        <ele>44.3</ele>
        <time>2019-04-23T14:14:42.000Z</time>
      </trkpt>
      <trkpt lat="49.4628" lon="-1.57719">
        <ele>44.4</ele>
        <time>2019-04-23T14:14:43.000Z</time>
      </trkpt>
      <trkpt lat="49.4628" lon="-1.57717">
        <ele>44.4</ele>
        <time>2019-04-23T14:14:44.000Z</time>
      </trkpt>
      <trkpt lat="49.46279" lon="-1.57716">
        <ele>44.5</ele>
        <time>2019-04-23T14:14:45.000Z</time>
      </trkpt>
      <trkpt lat="49.46279" lon="-1.57714">
        <ele>44.5</ele>
        <time>2019-04-23T14:14:46.000Z</time>
      </trkpt>
      <trkpt lat="49.46278" lon="-1.57712">
        <ele>44.6</ele>
        <time>2019-04-23T14:14:47.000Z</time>
      </trkpt>
      <trkpt lat="49.46278" lon="-1.5771">
        <ele>44.6</ele>
        <time>2019-04-23T14:14:48.000Z</time>
      </trkpt>
      <trkpt lat="49.46277" lon="-1.57708">
        <ele>44.7</ele>
        <time>2019-04-23T14:14:49.000Z</time>
      </trkpt>
      <trkpt lat="49.46277" lon="-1.57707">
        <ele>44.7</ele>
        <time>2019-04-23T14:14:50.000Z</time>
      </trkpt>
      <trkpt lat="49.46276" lon="-1.57705">
        <ele>44.8</ele>
        <time>2019-04-23T14:14:51.000Z</time>
      </trkpt>
      <trkpt lat="49.46275" lon="-1.57703">
        <ele>44.8</ele>
        <time>2019-04-23T14:14:52.000Z</time>
      </trkpt>
      <trkpt lat="49.46275" lon="-1.57702">
        <ele>44.9</ele>
        <time>2019-04-23T14:14:53.000Z</time>
      </trkpt>
      <trkpt lat="49.46274" lon="-1.577">
        <ele>44.9</ele>
        <time>2019-04-23T14:14:54.000Z</time>
      </trkpt>
      <trkpt lat="49.46274" lon="-1.57698">
        <ele>45</ele>
        <time>2019-04-23T14:14:55.000Z</time>
      </trkpt>
      <trkpt lat="49.46273" lon="-1.57697">
        <ele>45</ele>
        <time>2019-04-23T14:14:56.000Z</time>
      </trkpt>
      <trkpt lat="49.46273" lon="-1.57696">
        <ele>45</ele>
        <time>2019-04-23T14:14:57.000Z</time>
      </trkpt>
      <trkpt lat="49.46273" lon="-1.57696">
        <ele>45</ele>
        <time>2019-04-23T14:14:58.000Z</time>
      </trkpt>
      <trkpt lat="49.46273" lon="-1.57695">
        <ele>45</ele>
        <time>2019-04-23T14:14:59.000Z</time>
      </trkpt>
      <trkpt lat="49.46273" lon="-1.57695">
        <ele>45.1</ele>
        <time>2019-04-23T14:15:00.000Z</time>
      </trkpt>
      <trkpt lat="49.46273" lon="-1.57693">
        <ele>45.1</ele>
        <time>2019-04-23T14:15:01.000Z</time>
      </trkpt>
      <trkpt lat="49.46272" lon="-1.57691">
        <ele>45.1</ele>
        <time>2019-04-23T14:15:02.000Z</time>
      </trkpt>
      <trkpt lat="49.46272" lon="-1.57689">
        <ele>45.2</ele>
        <time>2019-04-23T14:15:03.000Z</time>
      </trkpt>
      <trkpt lat="49.46272" lon="-1.57686">
        <ele>45.3</ele>
        <time>2019-04-23T14:15:04.000Z</time>
      </trkpt>
      <trkpt lat="49.46272" lon="-1.57683">
        <ele>45.3</ele>
        <time>2019-04-23T14:15:05.000Z</time>
      </trkpt>
      <trkpt lat="49.46272" lon="-1.5768">
        <ele>45.4</ele>
        <time>2019-04-23T14:15:06.000Z</time>
      </trkpt>
      <trkpt lat="49.46272" lon="-1.57678">
        <ele>45.5</ele>
        <time>2019-04-23T14:15:07.000Z</time>
      </trkpt>
      <trkpt lat="49.46273" lon="-1.57676">
        <ele>45.5</ele>
        <time>2019-04-23T14:15:08.000Z</time>
      </trkpt>
      <trkpt lat="49.46273" lon="-1.57674">
        <ele>45.6</ele>
        <time>2019-04-23T14:15:09.000Z</time>
      </trkpt>
      <trkpt lat="49.46273" lon="-1.57672">
        <ele>45.6</ele>
        <time>2019-04-23T14:15:10.000Z</time>
      </trkpt>
      <trkpt lat="49.46274" lon="-1.57671">
        <ele>45.6</ele>
        <time>2019-04-23T14:15:11.000Z</time>
      </trkpt>
      <trkpt lat="49.46274" lon="-1.57669">
        <ele>45.7</ele>
        <time>2019-04-23T14:15:12.000Z</time>
      </trkpt>
      <trkpt lat="49.46275" lon="-1.57667">
        <ele>45.7</ele>
        <time>2019-04-23T14:15:13.000Z</time>
      </trkpt>
      <trkpt lat="49.46275" lon="-1.57666">
        <ele>45.7</ele>
        <time>2019-04-23T14:15:14.000Z</time>
      </trkpt>
      <trkpt lat="49.46276" lon="-1.57664">
        <ele>45.7</ele>
        <time>2019-04-23T14:15:15.000Z</time>
      </trkpt>
      <trkpt lat="49.46277" lon="-1.57662">
        <ele>45.6</ele>
        <time>2019-04-23T14:15:16.000Z</time>
      </trkpt>
      <trkpt lat="49.46277" lon="-1.5766">
        <ele>45.6</ele>
        <time>2019-04-23T14:15:17.000Z</time>
      </trkpt>
      <trkpt lat="49.46278" lon="-1.57657">
        <ele>45.6</ele>
        <time>2019-04-23T14:15:18.000Z</time>
      </trkpt>
      <trkpt lat="49.46278" lon="-1.57655">
        <ele>45.6</ele>
        <time>2019-04-23T14:15:19.000Z</time>
      </trkpt>
      <trkpt lat="49.46279" lon="-1.57653">
        <ele>45.5</ele>
        <time>2019-04-23T14:15:20.000Z</time>
      </trkpt>
      <trkpt lat="49.46279" lon="-1.57651">
        <ele>45.5</ele>
        <time>2019-04-23T14:15:21.000Z</time>
      </trkpt>
      <trkpt lat="49.4628" lon="-1.57649">
        <ele>45.5</ele>
        <time>2019-04-23T14:15:22.000Z</time>
      </trkpt>
      <trkpt lat="49.4628" lon="-1.57646">
        <ele>45.5</ele>
        <time>2019-04-23T14:15:23.000Z</time>
      </trkpt>
      <trkpt lat="49.4628" lon="-1.57644">
        <ele>45.5</ele>
        <time>2019-04-23T14:15:24.000Z</time>
      </trkpt>
      <trkpt lat="49.46281" lon="-1.57642">
        <ele>45.4</ele>
        <time>2019-04-23T14:15:25.000Z</time>
      </trkpt>
      <trkpt lat="49.46281" lon="-1.5764">
        <ele>45.4</ele>
        <time>2019-04-23T14:15:26.000Z</time>
      </trkpt>
      <trkpt lat="49.46281" lon="-1.57638">
        <ele>45.4</ele>
        <time>2019-04-23T14:15:27.000Z</time>
      </trkpt>
      <trkpt lat="49.46281" lon="-1.57635">
        <ele>45.4</ele>
        <time>2019-04-23T14:15:28.000Z</time>
      </trkpt>
      <trkpt lat="49.46281" lon="-1.57633">
        <ele>45.4</ele>
        <time>2019-04-23T14:15:29.000Z</time>
      </trkpt>
      <trkpt lat="49.46281" lon="-1.57631">
        <ele>45.4</ele>
        <time>2019-04-23T14:15:30.000Z</time>
      </trkpt>
      <trkpt lat="49.4628" lon="-1.57629">
        <ele>45.4</ele>
        <time>2019-04-23T14:15:31.000Z</time>
      </trkpt>
      <trkpt lat="49.4628" lon="-1.57627">
        <ele>45.3</ele>
        <time>2019-04-23T14:15:32.000Z</time>
      </trkpt>
      <trkpt lat="49.46279" lon="-1.57625">
        <ele>45.3</ele>
        <time>2019-04-23T14:15:33.000Z</time>
      </trkpt>
      <trkpt lat="49.46279" lon="-1.57623">
        <ele>45.3</ele>
        <time>2019-04-23T14:15:34.000Z</time>
      </trkpt>
      <trkpt lat="49.46278" lon="-1.57622">
        <ele>45.3</ele>
        <time>2019-04-23T14:15:35.000Z</time>
      </trkpt>
      <trkpt lat="49.46278" lon="-1.5762">
        <ele>45.3</ele>
        <time>2019-04-23T14:15:36.000Z</time>
      </trkpt>
      <trkpt lat="49.46277" lon="-1.57618">
        <ele>45.3</ele>
        <time>2019-04-23T14:15:37.000Z</time>
      </trkpt>
      <trkpt lat="49.46277" lon="-1.57616">
        <ele>45.3</ele>
        <time>2019-04-23T14:15:38.000Z</time>
      </trkpt>
      <trkpt lat="49.46276" lon="-1.57614">
        <ele>45.3</ele>
        <time>2019-04-23T14:15:39.000Z</time>
      </trkpt>
      <trkpt lat="49.46275" lon="-1.57613">
        <ele>45.2</ele>
        <time>2019-04-23T14:15:40.000Z</time>
      </trkpt>
      <trkpt lat="49.46275" lon="-1.57611">
        <ele>45.2</ele>
        <time>2019-04-23T14:15:41.000Z</time>
      </trkpt>
      <trkpt lat="49.46274" lon="-1.57609">
        <ele>45.2</ele>
        <time>2019-04-23T14:15:42.000Z</time>
      </trkpt>
      <trkpt lat="49.46273" lon="-1.57608">
        <ele>45.2</ele>
        <time>2019-04-23T14:15:43.000Z</time>
      </trkpt>
      <trkpt lat="49.46273" lon="-1.57606">
        <ele>45.2</ele>
        <time>2019-04-23T14:15:44.000Z</time>
      </trkpt>
      <trkpt lat="49.46272" lon="-1.57605">
        <ele>45.2</ele>
        <time>2019-04-23T14:15:45.000Z</time>
      </trkpt>
      <trkpt lat="49.46271" lon="-1.57603">
        <ele>45.2</ele>
        <time>2019-04-23T14:15:46.000Z</time>
      </trkpt>
      <trkpt lat="49.46271" lon="-1.57602">
        <ele>45.2</ele>
        <time>2019-04-23T14:15:47.000Z</time>
      </trkpt>
      <trkpt lat="49.4627" lon="-1.57601">
        <ele>45.2</ele>
        <time>2019-04-23T14:15:48.000Z</time>
      </trkpt>
      <trkpt lat="49.4627" lon="-1.57599">
        <ele>45.1</ele>
        <time>2019-04-23T14:15:49.000Z</time>
      </trkpt>
      <trkpt lat="49.46269" lon="-1.57598">
        <ele>45.1</ele>
        <time>2019-04-23T14:15:50.000Z</time>
      </trkpt>
      <trkpt lat="49.46268" lon="-1.57597">
        <ele>45.1</ele>
        <time>2019-04-23T14:15:51.000Z</time>
      </trkpt>
      <trkpt lat="49.46268" lon="-1.57596">
        <ele>45.1</ele>
        <time>2019-04-23T14:15:52.000Z</time>
      </trkpt>
      <trkpt lat="49.46267" lon="-1.57595">
        <ele>45.1</ele>
        <time>2019-04-23T14:15:53.000Z</time>
      </trkpt>
      <trkpt lat="49.46267" lon="-1.57594">
        <ele>45.1</ele>
        <time>2019-04-23T14:15:54.000Z</time>
      </trkpt>
      <trkpt lat="49.46266" lon="-1.57592">
        <ele>45.1</ele>
        <time>2019-04-23T14:15:55.000Z</time>
      </trkpt>
      <trkpt lat="49.46265" lon="-1.57591">
        <ele>45.1</ele>
        <time>2019-04-23T14:15:56.000Z</time>
      </trkpt>
      <trkpt lat="49.46264" lon="-1.5759">
        <ele>45.1</ele>
        <time>2019-04-23T14:15:57.000Z</time>
      </trkpt>
      <trkpt lat="49.46264" lon="-1.57589">
        <ele>45.1</ele>
        <time>2019-04-23T14:15:58.000Z</time>
      </trkpt>
      <trkpt lat="49.46263" lon="-1.57587">
        <ele>45</ele>
        <time>2019-04-23T14:15:59.000Z</time>
      </trkpt>
      <trkpt lat="49.46262" lon="-1.57586">
        <ele>45</ele>
        <time>2019-04-23T14:16:00.000Z</time>
      </trkpt>
      <trkpt lat="49.46261" lon="-1.57584">
        <ele>45</ele>
        <time>2019-04-23T14:16:01.000Z</time>
      </trkpt>
      <trkpt lat="49.4626" lon="-1.57583">
        <ele>45</ele>
        <time>2019-04-23T14:16:02.000Z</time>
      </trkpt>
      <trkpt lat="49.46259" lon="-1.57581">
        <ele>45</ele>
        <time>2019-04-23T14:16:03.000Z</time>
      </trkpt>
      <trkpt lat="49.46258" lon="-1.5758">
        <ele>44.9</ele>
        <time>2019-04-23T14:16:04.000Z</time>
      </trkpt>
      <trkpt lat="49.46257" lon="-1.57578">
        <ele>44.9</ele>
        <time>2019-04-23T14:16:05.000Z</time>
      </trkpt>
      <trkpt lat="49.46256" lon="-1.57576">
        <ele>44.8</ele>
        <time>2019-04-23T14:16:06.000Z</time>
      </trkpt>
      <trkpt lat="49.46255" lon="-1.57574">
        <ele>44.8</ele>
        <time>2019-04-23T14:16:07.000Z</time>
      </trkpt>
      <trkpt lat="49.46254" lon="-1.57572">
        <ele>44.7</ele>
        <time>2019-04-23T14:16:08.000Z</time>
      </trkpt>
      <trkpt lat="49.46253" lon="-1.57571">
        <ele>44.7</ele>
        <time>2019-04-23T14:16:09.000Z</time>
      </trkpt>
      <trkpt lat="49.46252" lon="-1.57569">
        <ele>44.7</ele>
        <time>2019-04-23T14:16:10.000Z</time>
      </trkpt>
      <trkpt lat="49.46251" lon="-1.57568">
        <ele>44.6</ele>
        <time>2019-04-23T14:16:11.000Z</time>
      </trkpt>
      <trkpt lat="49.46251" lon="-1.57566">
        <ele>44.6</ele>
        <time>2019-04-23T14:16:12.000Z</time>
      </trkpt>
      <trkpt lat="49.4625" lon="-1.57565">
        <ele>44.6</ele>
        <time>2019-04-23T14:16:13.000Z</time>
      </trkpt>
      <trkpt lat="49.4625" lon="-1.57564">
        <ele>44.5</ele>
        <time>2019-04-23T14:16:14.000Z</time>
      </trkpt>
      <trkpt lat="49.46249" lon="-1.57563">
        <ele>44.5</ele>
        <time>2019-04-23T14:16:15.000Z</time>
      </trkpt>
      <trkpt lat="49.46249" lon="-1.57562">
        <ele>44.4</ele>
        <time>2019-04-23T14:16:16.000Z</time>
      </trkpt>
      <trkpt lat="49.46248" lon="-1.5756">
        <ele>44.4</ele>
        <time>2019-04-23T14:16:17.000Z</time>
      </trkpt>
      <trkpt lat="49.46247" lon="-1.57557">
        <ele>44.3</ele>
        <time>2019-04-23T14:16:18.000Z</time>
      </trkpt>
      <trkpt lat="49.46246" lon="-1.57555">
        <ele>44.2</ele>
        <time>2019-04-23T14:16:19.000Z</time>
      </trkpt>
      <trkpt lat="49.46244" lon="-1.57553">
        <ele>44.1</ele>
        <time>2019-04-23T14:16:20.000Z</time>
      </trkpt>
      <trkpt lat="49.46243" lon="-1.5755">
        <ele>44</ele>
        <time>2019-04-23T14:16:21.000Z</time>
      </trkpt>
      <trkpt lat="49.46242" lon="-1.57548">
        <ele>44</ele>
        <time>2019-04-23T14:16:22.000Z</time>
      </trkpt>
      <trkpt lat="49.46241" lon="-1.57547">
        <ele>43.9</ele>
        <time>2019-04-23T14:16:23.000Z</time>
      </trkpt>
      <trkpt lat="49.4624" lon="-1.57545">
        <ele>43.8</ele>
        <time>2019-04-23T14:16:24.000Z</time>
      </trkpt>
      <trkpt lat="49.46239" lon="-1.57543">
        <ele>43.8</ele>
        <time>2019-04-23T14:16:25.000Z</time>
      </trkpt>
      <trkpt lat="49.46238" lon="-1.57542">
        <ele>43.7</ele>
        <time>2019-04-23T14:16:26.000Z</time>
      </trkpt>
      <trkpt lat="49.46237" lon="-1.5754">
        <ele>43.7</ele>
        <time>2019-04-23T14:16:27.000Z</time>
      </trkpt>
      <trkpt lat="49.46236" lon="-1.57539">
        <ele>43.6</ele>
        <time>2019-04-23T14:16:28.000Z</time>
      </trkpt>
      <trkpt lat="49.46235" lon="-1.57537">
        <ele>43.5</ele>
        <time>2019-04-23T14:16:29.000Z</time>
      </trkpt>
      <trkpt lat="49.46234" lon="-1.57536">
        <ele>43.5</ele>
        <time>2019-04-23T14:16:30.000Z</time>
      </trkpt>
      <trkpt lat="49.46233" lon="-1.57534">
        <ele>43.4</ele>
        <time>2019-04-23T14:16:31.000Z</time>
      </trkpt>
      <trkpt lat="49.46232" lon="-1.57532">
        <ele>43.3</ele>
        <time>2019-04-23T14:16:32.000Z</time>
      </trkpt>
      <trkpt lat="49.46231" lon="-1.57531">
        <ele>43.3</ele>
        <time>2019-04-23T14:16:33.000Z</time>
      </trkpt>
      <trkpt lat="49.4623" lon="-1.57529">
        <ele>43.2</ele>
        <time>2019-04-23T14:16:34.000Z</time>
      </trkpt>
      <trkpt lat="49.46229" lon="-1.57528">
        <ele>43.2</ele>
        <time>2019-04-23T14:16:35.000Z</time>
      </trkpt>
      <trkpt lat="49.46228" lon="-1.57526">
        <ele>43.1</ele>
        <time>2019-04-23T14:16:36.000Z</time>
      </trkpt>
      <trkpt lat="49.46227" lon="-1.57525">
        <ele>43</ele>
        <time>2019-04-23T14:16:37.000Z</time>
      </trkpt>
      <trkpt lat="49.46226" lon="-1.57523">
        <ele>43</ele>
        <time>2019-04-23T14:16:38.000Z</time>
      </trkpt>
      <trkpt lat="49.46225" lon="-1.57522">
        <ele>42.9</ele>
        <time>2019-04-23T14:16:39.000Z</time>
      </trkpt>
      <trkpt lat="49.46224" lon="-1.57521">
        <ele>42.9</ele>
        <time>2019-04-23T14:16:40.000Z</time>
      </trkpt>
      <trkpt lat="49.46223" lon="-1.57519">
        <ele>42.8</ele>
        <time>2019-04-23T14:16:41.000Z</time>
      </trkpt>
      <trkpt lat="49.46222" lon="-1.57518">
        <ele>42.8</ele>
        <time>2019-04-23T14:16:42.000Z</time>
      </trkpt>
      <trkpt lat="49.46221" lon="-1.57517">
        <ele>42.7</ele>
        <time>2019-04-23T14:16:43.000Z</time>
      </trkpt>
      <trkpt lat="49.46221" lon="-1.57516">
        <ele>42.7</ele>
        <time>2019-04-23T14:16:44.000Z</time>
      </trkpt>
      <trkpt lat="49.4622" lon="-1.57514">
        <ele>42.6</ele>
        <time>2019-04-23T14:16:45.000Z</time>
      </trkpt>
      <trkpt lat="49.46219" lon="-1.57513">
        <ele>42.6</ele>
        <time>2019-04-23T14:16:46.000Z</time>
      </trkpt>
      <trkpt lat="49.46218" lon="-1.57512">
        <ele>42.5</ele>
        <time>2019-04-23T14:16:47.000Z</time>
      </trkpt>
      <trkpt lat="49.46216" lon="-1.5751">
        <ele>42.4</ele>
        <time>2019-04-23T14:16:48.000Z</time>
      </trkpt>
      <trkpt lat="49.46215" lon="-1.57509">
        <ele>42.4</ele>
        <time>2019-04-23T14:16:49.000Z</time>
      </trkpt>
      <trkpt lat="49.46214" lon="-1.57507">
        <ele>42.3</ele>
        <time>2019-04-23T14:16:50.000Z</time>
      </trkpt>
      <trkpt lat="49.46213" lon="-1.57506">
        <ele>42.2</ele>
        <time>2019-04-23T14:16:51.000Z</time>
      </trkpt>
      <trkpt lat="49.46212" lon="-1.57504">
        <ele>42.2</ele>
        <time>2019-04-23T14:16:52.000Z</time>
      </trkpt>
      <trkpt lat="49.46211" lon="-1.57502">
        <ele>42.1</ele>
        <time>2019-04-23T14:16:53.000Z</time>
      </trkpt>
      <trkpt lat="49.4621" lon="-1.57501">
        <ele>42.1</ele>
        <time>2019-04-23T14:16:54.000Z</time>
      </trkpt>
      <trkpt lat="49.4621" lon="-1.57499">
        <ele>42</ele>
        <time>2019-04-23T14:16:55.000Z</time>
      </trkpt>
      <trkpt lat="49.46209" lon="-1.57498">
        <ele>42</ele>
        <time>2019-04-23T14:16:56.000Z</time>
      </trkpt>
      <trkpt lat="49.46208" lon="-1.57496">
        <ele>42</ele>
        <time>2019-04-23T14:16:57.000Z</time>
      </trkpt>
      <trkpt lat="49.46207" lon="-1.57494">
        <ele>42</ele>
        <time>2019-04-23T14:16:58.000Z</time>
      </trkpt>
      <trkpt lat="49.46206" lon="-1.57493">
        <ele>42</ele>
        <time>2019-04-23T14:16:59.000Z</time>
      </trkpt>
      <trkpt lat="49.46206" lon="-1.57491">
        <ele>42</ele>
        <time>2019-04-23T14:17:00.000Z</time>
      </trkpt>
      <trkpt lat="49.46205" lon="-1.5749">
        <ele>42</ele>
        <time>2019-04-23T14:17:01.000Z</time>
      </trkpt>
      <trkpt lat="49.46204" lon="-1.57488">
        <ele>42</ele>
        <time>2019-04-23T14:17:02.000Z</time>
      </trkpt>
      <trkpt lat="49.46203" lon="-1.57486">
        <ele>41.9</ele>
        <time>2019-04-23T14:17:03.000Z</time>
      </trkpt>
      <trkpt lat="49.46202" lon="-1.57485">
        <ele>41.9</ele>
        <time>2019-04-23T14:17:04.000Z</time>
      </trkpt>
      <trkpt lat="49.46201" lon="-1.57484">
        <ele>41.9</ele>
        <time>2019-04-23T14:17:05.000Z</time>
      </trkpt>
      <trkpt lat="49.462" lon="-1.57482">
        <ele>41.9</ele>
        <time>2019-04-23T14:17:06.000Z</time>
      </trkpt>
      <trkpt lat="49.462" lon="-1.57481">
        <ele>41.9</ele>
        <time>2019-04-23T14:17:07.000Z</time>
      </trkpt>
      <trkpt lat="49.46199" lon="-1.57479">
        <ele>41.9</ele>
        <time>2019-04-23T14:17:08.000Z</time>
      </trkpt>
      <trkpt lat="49.46198" lon="-1.57478">
        <ele>41.8</ele>
        <time>2019-04-23T14:17:09.000Z</time>
      </trkpt>
      <trkpt lat="49.46197" lon="-1.57477">
        <ele>41.8</ele>
        <time>2019-04-23T14:17:10.000Z</time>
      </trkpt>
      <trkpt lat="49.46196" lon="-1.57476">
        <ele>41.8</ele>
        <time>2019-04-23T14:17:11.000Z</time>
      </trkpt>
      <trkpt lat="49.46195" lon="-1.57474">
        <ele>41.8</ele>
        <time>2019-04-23T14:17:12.000Z</time>
      </trkpt>
      <trkpt lat="49.46194" lon="-1.57473">
        <ele>41.8</ele>
        <time>2019-04-23T14:17:13.000Z</time>
      </trkpt>
      <trkpt lat="49.46193" lon="-1.57471">
        <ele>41.8</ele>
        <time>2019-04-23T14:17:14.000Z</time>
      </trkpt>
      <trkpt lat="49.46193" lon="-1.5747">
        <ele>41.7</ele>
        <time>2019-04-23T14:17:15.000Z</time>
      </trkpt>
      <trkpt lat="49.46192" lon="-1.57469">
        <ele>41.7</ele>
        <time>2019-04-23T14:17:16.000Z</time>
      </trkpt>
      <trkpt lat="49.46191" lon="-1.57467">
        <ele>41.7</ele>
        <time>2019-04-23T14:17:17.000Z</time>
      </trkpt>
      <trkpt lat="49.4619" lon="-1.57466">
        <ele>41.7</ele>
        <time>2019-04-23T14:17:18.000Z</time>
      </trkpt>
      <trkpt lat="49.4619" lon="-1.57464">
        <ele>41.7</ele>
        <time>2019-04-23T14:17:19.000Z</time>
      </trkpt>
      <trkpt lat="49.46189" lon="-1.57463">
        <ele>41.7</ele>
        <time>2019-04-23T14:17:20.000Z</time>
      </trkpt>
      <trkpt lat="49.46188" lon="-1.57461">
        <ele>41.6</ele>
        <time>2019-04-23T14:17:21.000Z</time>
      </trkpt>
      <trkpt lat="49.46188" lon="-1.5746">
        <ele>41.6</ele>
        <time>2019-04-23T14:17:22.000Z</time>
      </trkpt>
      <trkpt lat="49.46187" lon="-1.57458">
        <ele>41.6</ele>
        <time>2019-04-23T14:17:23.000Z</time>
      </trkpt>
      <trkpt lat="49.46186" lon="-1.57457">
        <ele>41.6</ele>
        <time>2019-04-23T14:17:24.000Z</time>
      </trkpt>
      <trkpt lat="49.46185" lon="-1.57455">
        <ele>41.6</ele>
        <time>2019-04-23T14:17:25.000Z</time>
      </trkpt>
      <trkpt lat="49.46185" lon="-1.57454">
        <ele>41.6</ele>
        <time>2019-04-23T14:17:26.000Z</time>
      </trkpt>
      <trkpt lat="49.46184" lon="-1.57452">
        <ele>41.5</ele>
        <time>2019-04-23T14:17:27.000Z</time>
      </trkpt>
      <trkpt lat="49.46183" lon="-1.57451">
        <ele>41.5</ele>
        <time>2019-04-23T14:17:28.000Z</time>
      </trkpt>
      <trkpt lat="49.46182" lon="-1.5745">
        <ele>41.5</ele>
        <time>2019-04-23T14:17:29.000Z</time>
      </trkpt>
      <trkpt lat="49.46181" lon="-1.57448">
        <ele>41.5</ele>
        <time>2019-04-23T14:17:30.000Z</time>
      </trkpt>
      <trkpt lat="49.4618" lon="-1.57447">
        <ele>41.4</ele>
        <time>2019-04-23T14:17:31.000Z</time>
      </trkpt>
      <trkpt lat="49.46179" lon="-1.57446">
        <ele>41.4</ele>
        <time>2019-04-23T14:17:32.000Z</time>
      </trkpt>
      <trkpt lat="49.46178" lon="-1.57445">
        <ele>41.4</ele>
        <time>2019-04-23T14:17:33.000Z</time>
      </trkpt>
      <trkpt lat="49.46177" lon="-1.57444">
        <ele>41.3</ele>
        <time>2019-04-23T14:17:34.000Z</time>
      </trkpt>
      <trkpt lat="49.46176" lon="-1.57443">
        <ele>41.3</ele>
        <time>2019-04-23T14:17:35.000Z</time>
      </trkpt>
      <trkpt lat="49.46175" lon="-1.57442">
        <ele>41.3</ele>
        <time>2019-04-23T14:17:36.000Z</time>
      </trkpt>
      <trkpt lat="49.46174" lon="-1.5744">
        <ele>41.2</ele>
        <time>2019-04-23T14:17:37.000Z</time>
      </trkpt>
      <trkpt lat="49.46173" lon="-1.57439">
        <ele>41.2</ele>
        <time>2019-04-23T14:17:38.000Z</time>
      </trkpt>
      <trkpt lat="49.46172" lon="-1.57438">
        <ele>41.2</ele>
        <time>2019-04-23T14:17:39.000Z</time>
      </trkpt>
      <trkpt lat="49.46171" lon="-1.57437">
        <ele>41.1</ele>
        <time>2019-04-23T14:17:40.000Z</time>
      </trkpt>
      <trkpt lat="49.4617" lon="-1.57436">
        <ele>41.1</ele>
        <time>2019-04-23T14:17:41.000Z</time>
      </trkpt>
      <trkpt lat="49.46168" lon="-1.57435">
        <ele>41.1</ele>
        <time>2019-04-23T14:17:42.000Z</time>
      </trkpt>
      <trkpt lat="49.46167" lon="-1.57434">
        <ele>41</ele>
        <time>2019-04-23T14:17:43.000Z</time>
      </trkpt>
      <trkpt lat="49.46166" lon="-1.57433">
        <ele>41</ele>
        <time>2019-04-23T14:17:44.000Z</time>
      </trkpt>
      <trkpt lat="49.46165" lon="-1.57432">
        <ele>41</ele>
        <time>2019-04-23T14:17:45.000Z</time>
      </trkpt>
      <trkpt lat="49.46164" lon="-1.57431">
        <ele>41</ele>
        <time>2019-04-23T14:17:46.000Z</time>
      </trkpt>
      <trkpt lat="49.46162" lon="-1.5743">
        <ele>40.9</ele>
        <time>2019-04-23T14:17:47.000Z</time>
      </trkpt>
      <trkpt lat="49.46161" lon="-1.57429">
        <ele>40.9</ele>
        <time>2019-04-23T14:17:48.000Z</time>
      </trkpt>
      <trkpt lat="49.4616" lon="-1.57428">
        <ele>40.9</ele>
        <time>2019-04-23T14:17:49.000Z</time>
      </trkpt>
      <trkpt lat="49.46159" lon="-1.57426">
        <ele>40.9</ele>
        <time>2019-04-23T14:17:50.000Z</time>
      </trkpt>
      <trkpt lat="49.46158" lon="-1.57425">
        <ele>40.9</ele>
        <time>2019-04-23T14:17:51.000Z</time>
      </trkpt>
      <trkpt lat="49.46157" lon="-1.57424">
        <ele>40.9</ele>
        <time>2019-04-23T14:17:52.000Z</time>
      </trkpt>
      <trkpt lat="49.46156" lon="-1.57422">
        <ele>40.9</ele>
        <time>2019-04-23T14:17:53.000Z</time>
      </trkpt>
      <trkpt lat="49.46155" lon="-1.57421">
        <ele>40.9</ele>
        <time>2019-04-23T14:17:54.000Z</time>
      </trkpt>
      <trkpt lat="49.46154" lon="-1.57419">
        <ele>40.8</ele>
        <time>2019-04-23T14:17:55.000Z</time>
      </trkpt>
      <trkpt lat="49.46153" lon="-1.57418">
        <ele>40.8</ele>
        <time>2019-04-23T14:17:56.000Z</time>
      </trkpt>
      <trkpt lat="49.46152" lon="-1.57416">
        <ele>40.8</ele>
        <time>2019-04-23T14:17:57.000Z</time>
      </trkpt>
      <trkpt lat="49.46151" lon="-1.57415">
        <ele>40.8</ele>
        <time>2019-04-23T14:17:58.000Z</time>
      </trkpt>
      <trkpt lat="49.4615" lon="-1.57413">
        <ele>40.8</ele>
        <time>2019-04-23T14:17:59.000Z</time>
      </trkpt>
      <trkpt lat="49.46149" lon="-1.57412">
        <ele>40.8</ele>
        <time>2019-04-23T14:18:00.000Z</time>
      </trkpt>
      <trkpt lat="49.46148" lon="-1.5741">
        <ele>40.9</ele>
        <time>2019-04-23T14:18:01.000Z</time>
      </trkpt>
      <trkpt lat="49.46147" lon="-1.57409">
        <ele>40.9</ele>
        <time>2019-04-23T14:18:02.000Z</time>
      </trkpt>
      <trkpt lat="49.46146" lon="-1.57407">
        <ele>40.9</ele>
        <time>2019-04-23T14:18:03.000Z</time>
      </trkpt>
      <trkpt lat="49.46146" lon="-1.57406">
        <ele>40.9</ele>
        <time>2019-04-23T14:18:04.000Z</time>
      </trkpt>
      <trkpt lat="49.46145" lon="-1.57404">
        <ele>40.9</ele>
        <time>2019-04-23T14:18:05.000Z</time>
      </trkpt>
      <trkpt lat="49.46144" lon="-1.57403">
        <ele>40.9</ele>
        <time>2019-04-23T14:18:06.000Z</time>
      </trkpt>
      <trkpt lat="49.46144" lon="-1.57401">
        <ele>40.9</ele>
        <time>2019-04-23T14:18:07.000Z</time>
      </trkpt>
      <trkpt lat="49.46143" lon="-1.574">
        <ele>40.9</ele>
        <time>2019-04-23T14:18:08.000Z</time>
      </trkpt>
      <trkpt lat="49.46142" lon="-1.57398">
        <ele>40.9</ele>
        <time>2019-04-23T14:18:09.000Z</time>
      </trkpt>
      <trkpt lat="49.46142" lon="-1.57396">
        <ele>40.9</ele>
        <time>2019-04-23T14:18:10.000Z</time>
      </trkpt>
      <trkpt lat="49.46141" lon="-1.57394">
        <ele>41</ele>
        <time>2019-04-23T14:18:11.000Z</time>
      </trkpt>
      <trkpt lat="49.46141" lon="-1.57392">
        <ele>41</ele>
        <time>2019-04-23T14:18:12.000Z</time>
      </trkpt>
      <trkpt lat="49.4614" lon="-1.5739">
        <ele>41</ele>
        <time>2019-04-23T14:18:13.000Z</time>
      </trkpt>
      <trkpt lat="49.4614" lon="-1.57388">
        <ele>41</ele>
        <time>2019-04-23T14:18:14.000Z</time>
      </trkpt>
      <trkpt lat="49.46139" lon="-1.57386">
        <ele>41</ele>
        <time>2019-04-23T14:18:15.000Z</time>
      </trkpt>
      <trkpt lat="49.46139" lon="-1.57384">
        <ele>41.1</ele>
        <time>2019-04-23T14:18:16.000Z</time>
      </trkpt>
      <trkpt lat="49.46138" lon="-1.57382">
        <ele>41.1</ele>
        <time>2019-04-23T14:18:17.000Z</time>
      </trkpt>
      <trkpt lat="49.46138" lon="-1.5738">
        <ele>41.1</ele>
        <time>2019-04-23T14:18:18.000Z</time>
      </trkpt>
      <trkpt lat="49.46138" lon="-1.57379">
        <ele>41.1</ele>
        <time>2019-04-23T14:18:19.000Z</time>
      </trkpt>
      <trkpt lat="49.46137" lon="-1.57377">
        <ele>41.1</ele>
        <time>2019-04-23T14:18:20.000Z</time>
      </trkpt>
      <trkpt lat="49.46137" lon="-1.57375">
        <ele>41.1</ele>
        <time>2019-04-23T14:18:21.000Z</time>
      </trkpt>
      <trkpt lat="49.46137" lon="-1.57373">
        <ele>41.2</ele>
        <time>2019-04-23T14:18:22.000Z</time>
      </trkpt>
      <trkpt lat="49.46136" lon="-1.57371">
        <ele>41.2</ele>
        <time>2019-04-23T14:18:23.000Z</time>
      </trkpt>
      <trkpt lat="49.46136" lon="-1.57369">
        <ele>41.2</ele>
        <time>2019-04-23T14:18:24.000Z</time>
      </trkpt>
      <trkpt lat="49.46136" lon="-1.57367">
        <ele>41.2</ele>
        <time>2019-04-23T14:18:25.000Z</time>
      </trkpt>
      <trkpt lat="49.46135" lon="-1.57365">
        <ele>41.2</ele>
        <time>2019-04-23T14:18:26.000Z</time>
      </trkpt>
      <trkpt lat="49.46135" lon="-1.57363">
        <ele>41.3</ele>
        <time>2019-04-23T14:18:27.000Z</time>
      </trkpt>
      <trkpt lat="49.46135" lon="-1.57361">
        <ele>41.3</ele>
        <time>2019-04-23T14:18:28.000Z</time>
      </trkpt>
      <trkpt lat="49.46134" lon="-1.57359">
        <ele>41.3</ele>
        <time>2019-04-23T14:18:29.000Z</time>
      </trkpt>
      <trkpt lat="49.46134" lon="-1.57357">
        <ele>41.3</ele>
        <time>2019-04-23T14:18:30.000Z</time>
      </trkpt>
      <trkpt lat="49.46134" lon="-1.57355">
        <ele>41.4</ele>
        <time>2019-04-23T14:18:31.000Z</time>
      </trkpt>
      <trkpt lat="49.46134" lon="-1.57353">
        <ele>41.4</ele>
        <time>2019-04-23T14:18:32.000Z</time>
      </trkpt>
      <trkpt lat="49.46134" lon="-1.57351">
        <ele>41.4</ele>
        <time>2019-04-23T14:18:33.000Z</time>
      </trkpt>
      <trkpt lat="49.46133" lon="-1.57349">
        <ele>41.4</ele>
        <time>2019-04-23T14:18:34.000Z</time>
      </trkpt>
      <trkpt lat="49.46133" lon="-1.57347">
        <ele>41.4</ele>
        <time>2019-04-23T14:18:35.000Z</time>
      </trkpt>
      <trkpt lat="49.46133" lon="-1.57345">
        <ele>41.5</ele>
        <time>2019-04-23T14:18:36.000Z</time>
      </trkpt>
      <trkpt lat="49.46133" lon="-1.57343">
        <ele>41.5</ele>
        <time>2019-04-23T14:18:37.000Z</time>
      </trkpt>
      <trkpt lat="49.46133" lon="-1.57341">
        <ele>41.5</ele>
        <time>2019-04-23T14:18:38.000Z</time>
      </trkpt>
      <trkpt lat="49.46133" lon="-1.57339">
        <ele>41.5</ele>
        <time>2019-04-23T14:18:39.000Z</time>
      </trkpt>
      <trkpt lat="49.46133" lon="-1.57338">
        <ele>41.5</ele>
        <time>2019-04-23T14:18:40.000Z</time>
      </trkpt>
      <trkpt lat="49.46133" lon="-1.57336">
        <ele>41.6</ele>
        <time>2019-04-23T14:18:41.000Z</time>
      </trkpt>
      <trkpt lat="49.46133" lon="-1.57334">
        <ele>41.6</ele>
        <time>2019-04-23T14:18:42.000Z</time>
      </trkpt>
      <trkpt lat="49.46133" lon="-1.57332">
        <ele>41.6</ele>
        <time>2019-04-23T14:18:43.000Z</time>
      </trkpt>
      <trkpt lat="49.46133" lon="-1.5733">
        <ele>41.7</ele>
        <time>2019-04-23T14:18:44.000Z</time>
      </trkpt>
      <trkpt lat="49.46132" lon="-1.57328">
        <ele>41.7</ele>
        <time>2019-04-23T14:18:45.000Z</time>
      </trkpt>
      <trkpt lat="49.46132" lon="-1.57326">
        <ele>41.8</ele>
        <time>2019-04-23T14:18:46.000Z</time>
      </trkpt>
      <trkpt lat="49.46132" lon="-1.57324">
        <ele>41.8</ele>
        <time>2019-04-23T14:18:47.000Z</time>
      </trkpt>
      <trkpt lat="49.46132" lon="-1.57322">
        <ele>41.8</ele>
        <time>2019-04-23T14:18:48.000Z</time>
      </trkpt>
      <trkpt lat="49.46132" lon="-1.5732">
        <ele>41.9</ele>
        <time>2019-04-23T14:18:49.000Z</time>
      </trkpt>
      <trkpt lat="49.46131" lon="-1.57319">
        <ele>41.9</ele>
        <time>2019-04-23T14:18:50.000Z</time>
      </trkpt>
      <trkpt lat="49.46131" lon="-1.57317">
        <ele>42</ele>
        <time>2019-04-23T14:18:51.000Z</time>
      </trkpt>
      <trkpt lat="49.46131" lon="-1.57315">
        <ele>42</ele>
        <time>2019-04-23T14:18:52.000Z</time>
      </trkpt>
      <trkpt lat="49.46131" lon="-1.57313">
        <ele>42.1</ele>
        <time>2019-04-23T14:18:53.000Z</time>
      </trkpt>
      <trkpt lat="49.46131" lon="-1.57311">
        <ele>42.1</ele>
        <time>2019-04-23T14:18:54.000Z</time>
      </trkpt>
      <trkpt lat="49.46131" lon="-1.57309">
        <ele>42.2</ele>
        <time>2019-04-23T14:18:55.000Z</time>
      </trkpt>
      <trkpt lat="49.4613" lon="-1.57307">
        <ele>42.2</ele>
        <time>2019-04-23T14:18:56.000Z</time>
      </trkpt>
      <trkpt lat="49.4613" lon="-1.57305">
        <ele>42.2</ele>
        <time>2019-04-23T14:18:57.000Z</time>
      </trkpt>
      <trkpt lat="49.4613" lon="-1.57303">
        <ele>42.3</ele>
        <time>2019-04-23T14:18:58.000Z</time>
      </trkpt>
      <trkpt lat="49.4613" lon="-1.57301">
        <ele>42.3</ele>
        <time>2019-04-23T14:18:59.000Z</time>
      </trkpt>
      <trkpt lat="49.4613" lon="-1.57299">
        <ele>42.4</ele>
        <time>2019-04-23T14:19:00.000Z</time>
      </trkpt>
      <trkpt lat="49.4613" lon="-1.57297">
        <ele>42.4</ele>
        <time>2019-04-23T14:19:01.000Z</time>
      </trkpt>
      <trkpt lat="49.46129" lon="-1.57295">
        <ele>42.5</ele>
        <time>2019-04-23T14:19:02.000Z</time>
      </trkpt>
      <trkpt lat="49.46129" lon="-1.57293">
        <ele>42.5</ele>
        <time>2019-04-23T14:19:03.000Z</time>
      </trkpt>
      <trkpt lat="49.46129" lon="-1.57292">
        <ele>42.6</ele>
        <time>2019-04-23T14:19:04.000Z</time>
      </trkpt>
      <trkpt lat="49.46129" lon="-1.5729">
        <ele>42.6</ele>
        <time>2019-04-23T14:19:05.000Z</time>
      </trkpt>
      <trkpt lat="49.46129" lon="-1.57288">
        <ele>42.6</ele>
        <time>2019-04-23T14:19:06.000Z</time>
      </trkpt>
      <trkpt lat="49.46129" lon="-1.57286">
        <ele>42.7</ele>
        <time>2019-04-23T14:19:07.000Z</time>
      </trkpt>
      <trkpt lat="49.46129" lon="-1.57284">
        <ele>42.7</ele>
        <time>2019-04-23T14:19:08.000Z</time>
      </trkpt>
      <trkpt lat="49.46129" lon="-1.57282">
        <ele>42.8</ele>
        <time>2019-04-23T14:19:09.000Z</time>
      </trkpt>
      <trkpt lat="49.46129" lon="-1.5728">
        <ele>42.8</ele>
        <time>2019-04-23T14:19:10.000Z</time>
      </trkpt>
      <trkpt lat="49.46129" lon="-1.57278">
        <ele>42.9</ele>
        <time>2019-04-23T14:19:11.000Z</time>
      </trkpt>
      <trkpt lat="49.46129" lon="-1.57276">
        <ele>42.9</ele>
        <time>2019-04-23T14:19:12.000Z</time>
      </trkpt>
      <trkpt lat="49.46129" lon="-1.57274">
        <ele>43</ele>
        <time>2019-04-23T14:19:13.000Z</time>
      </trkpt>
      <trkpt lat="49.46129" lon="-1.57272">
        <ele>43</ele>
        <time>2019-04-23T14:19:14.000Z</time>
      </trkpt>
      <trkpt lat="49.46129" lon="-1.5727">
        <ele>43.1</ele>
        <time>2019-04-23T14:19:15.000Z</time>
      </trkpt>
      <trkpt lat="49.46129" lon="-1.57268">
        <ele>43.1</ele>
        <time>2019-04-23T14:19:16.000Z</time>
      </trkpt>
      <trkpt lat="49.46129" lon="-1.57267">
        <ele>43.1</ele>
        <time>2019-04-23T14:19:17.000Z</time>
      </trkpt>
      <trkpt lat="49.46129" lon="-1.57265">
        <ele>43.2</ele>
        <time>2019-04-23T14:19:18.000Z</time>
      </trkpt>
      <trkpt lat="49.46129" lon="-1.57263">
        <ele>43.2</ele>
        <time>2019-04-23T14:19:19.000Z</time>
      </trkpt>
      <trkpt lat="49.46129" lon="-1.57261">
        <ele>43.3</ele>
        <time>2019-04-23T14:19:20.000Z</time>
      </trkpt>
      <trkpt lat="49.46129" lon="-1.57259">
        <ele>43.3</ele>
        <time>2019-04-23T14:19:21.000Z</time>
      </trkpt>
      <trkpt lat="49.46129" lon="-1.57257">
        <ele>43.4</ele>
        <time>2019-04-23T14:19:22.000Z</time>
      </trkpt>
      <trkpt lat="49.46129" lon="-1.57255">
        <ele>43.4</ele>
        <time>2019-04-23T14:19:23.000Z</time>
      </trkpt>
      <trkpt lat="49.46129" lon="-1.57253">
        <ele>43.5</ele>
        <time>2019-04-23T14:19:24.000Z</time>
      </trkpt>
      <trkpt lat="49.46129" lon="-1.57251">
        <ele>43.5</ele>
        <time>2019-04-23T14:19:25.000Z</time>
      </trkpt>
      <trkpt lat="49.46129" lon="-1.57249">
        <ele>43.6</ele>
        <time>2019-04-23T14:19:26.000Z</time>
      </trkpt>
      <trkpt lat="49.46129" lon="-1.57248">
        <ele>43.7</ele>
        <time>2019-04-23T14:19:27.000Z</time>
      </trkpt>
      <trkpt lat="49.46129" lon="-1.57246">
        <ele>43.7</ele>
        <time>2019-04-23T14:19:28.000Z</time>
      </trkpt>
      <trkpt lat="49.46129" lon="-1.57244">
        <ele>43.8</ele>
        <time>2019-04-23T14:19:29.000Z</time>
      </trkpt>
      <trkpt lat="49.46129" lon="-1.57242">
        <ele>43.9</ele>
        <time>2019-04-23T14:19:30.000Z</time>
      </trkpt>
      <trkpt lat="49.46129" lon="-1.5724">
        <ele>44</ele>
        <time>2019-04-23T14:19:31.000Z</time>
      </trkpt>
      <trkpt lat="49.46129" lon="-1.57238">
        <ele>44.1</ele>
        <time>2019-04-23T14:19:32.000Z</time>
      </trkpt>
      <trkpt lat="49.46129" lon="-1.57236">
        <ele>44.1</ele>
        <time>2019-04-23T14:19:33.000Z</time>
      </trkpt>
      <trkpt lat="49.46129" lon="-1.57235">
        <ele>44.2</ele>
        <time>2019-04-23T14:19:34.000Z</time>
      </trkpt>
      <trkpt lat="49.46129" lon="-1.57233">
        <ele>44.3</ele>
        <time>2019-04-23T14:19:35.000Z</time>
      </trkpt>
      <trkpt lat="49.46129" lon="-1.57231">
        <ele>44.4</ele>
        <time>2019-04-23T14:19:36.000Z</time>
      </trkpt>
      <trkpt lat="49.46129" lon="-1.57229">
        <ele>44.4</ele>
        <time>2019-04-23T14:19:37.000Z</time>
      </trkpt>
      <trkpt lat="49.46129" lon="-1.57227">
        <ele>44.5</ele>
        <time>2019-04-23T14:19:38.000Z</time>
      </trkpt>
      <trkpt lat="49.46129" lon="-1.57226">
        <ele>44.6</ele>
        <time>2019-04-23T14:19:39.000Z</time>
      </trkpt>
      <trkpt lat="49.46128" lon="-1.57224">
        <ele>44.7</ele>
        <time>2019-04-23T14:19:40.000Z</time>
      </trkpt>
      <trkpt lat="49.46128" lon="-1.57222">
        <ele>44.7</ele>
        <time>2019-04-23T14:19:41.000Z</time>
      </trkpt>
      <trkpt lat="49.46128" lon="-1.5722">
        <ele>44.8</ele>
        <time>2019-04-23T14:19:42.000Z</time>
      </trkpt>
      <trkpt lat="49.46128" lon="-1.57218">
        <ele>44.9</ele>
        <time>2019-04-23T14:19:43.000Z</time>
      </trkpt>
      <trkpt lat="49.46128" lon="-1.57217">
        <ele>45</ele>
        <time>2019-04-23T14:19:44.000Z</time>
      </trkpt>
      <trkpt lat="49.46127" lon="-1.57215">
        <ele>45</ele>
        <time>2019-04-23T14:19:45.000Z</time>
      </trkpt>
      <trkpt lat="49.46127" lon="-1.57213">
        <ele>45.1</ele>
        <time>2019-04-23T14:19:46.000Z</time>
      </trkpt>
      <trkpt lat="49.46127" lon="-1.57211">
        <ele>45.2</ele>
        <time>2019-04-23T14:19:47.000Z</time>
      </trkpt>
      <trkpt lat="49.46127" lon="-1.57209">
        <ele>45.2</ele>
        <time>2019-04-23T14:19:48.000Z</time>
      </trkpt>
      <trkpt lat="49.46126" lon="-1.57208">
        <ele>45.3</ele>
        <time>2019-04-23T14:19:49.000Z</time>
      </trkpt>
      <trkpt lat="49.46126" lon="-1.57206">
        <ele>45.4</ele>
        <time>2019-04-23T14:19:50.000Z</time>
      </trkpt>
      <trkpt lat="49.46126" lon="-1.57204">
        <ele>45.4</ele>
        <time>2019-04-23T14:19:51.000Z</time>
      </trkpt>
      <trkpt lat="49.46126" lon="-1.57202">
        <ele>45.5</ele>
        <time>2019-04-23T14:19:52.000Z</time>
      </trkpt>
      <trkpt lat="49.46125" lon="-1.572">
        <ele>45.6</ele>
        <time>2019-04-23T14:19:53.000Z</time>
      </trkpt>
      <trkpt lat="49.46125" lon="-1.57199">
        <ele>45.7</ele>
        <time>2019-04-23T14:19:54.000Z</time>
      </trkpt>
      <trkpt lat="49.46125" lon="-1.57197">
        <ele>45.7</ele>
        <time>2019-04-23T14:19:55.000Z</time>
      </trkpt>
      <trkpt lat="49.46125" lon="-1.57195">
        <ele>45.8</ele>
        <time>2019-04-23T14:19:56.000Z</time>
      </trkpt>
      <trkpt lat="49.46124" lon="-1.57193">
        <ele>45.9</ele>
        <time>2019-04-23T14:19:57.000Z</time>
      </trkpt>
      <trkpt lat="49.46124" lon="-1.57192">
        <ele>45.9</ele>
        <time>2019-04-23T14:19:58.000Z</time>
      </trkpt>
      <trkpt lat="49.46124" lon="-1.5719">
        <ele>46</ele>
        <time>2019-04-23T14:19:59.000Z</time>
      </trkpt>
      <trkpt lat="49.46124" lon="-1.57188">
        <ele>46.1</ele>
        <time>2019-04-23T14:20:00.000Z</time>
      </trkpt>
      <trkpt lat="49.46123" lon="-1.57186">
        <ele>46.1</ele>
        <time>2019-04-23T14:20:01.000Z</time>
      </trkpt>
      <trkpt lat="49.46123" lon="-1.57185">
        <ele>46.2</ele>
        <time>2019-04-23T14:20:02.000Z</time>
      </trkpt>
      <trkpt lat="49.46123" lon="-1.57183">
        <ele>46.3</ele>
        <time>2019-04-23T14:20:03.000Z</time>
      </trkpt>
      <trkpt lat="49.46123" lon="-1.57181">
        <ele>46.3</ele>
        <time>2019-04-23T14:20:04.000Z</time>
      </trkpt>
      <trkpt lat="49.46122" lon="-1.5718">
        <ele>46.4</ele>
        <time>2019-04-23T14:20:05.000Z</time>
      </trkpt>
      <trkpt lat="49.46122" lon="-1.57178">
        <ele>46.5</ele>
        <time>2019-04-23T14:20:06.000Z</time>
      </trkpt>
      <trkpt lat="49.46122" lon="-1.57176">
        <ele>46.5</ele>
        <time>2019-04-23T14:20:07.000Z</time>
      </trkpt>
      <trkpt lat="49.46121" lon="-1.57175">
        <ele>46.6</ele>
        <time>2019-04-23T14:20:08.000Z</time>
      </trkpt>
      <trkpt lat="49.46121" lon="-1.57173">
        <ele>46.7</ele>
        <time>2019-04-23T14:20:09.000Z</time>
      </trkpt>
      <trkpt lat="49.46121" lon="-1.57171">
        <ele>46.7</ele>
        <time>2019-04-23T14:20:10.000Z</time>
      </trkpt>
      <trkpt lat="49.46121" lon="-1.5717">
        <ele>46.8</ele>
        <time>2019-04-23T14:20:11.000Z</time>
      </trkpt>
      <trkpt lat="49.4612" lon="-1.57168">
        <ele>46.8</ele>
        <time>2019-04-23T14:20:12.000Z</time>
      </trkpt>
      <trkpt lat="49.4612" lon="-1.57167">
        <ele>46.9</ele>
        <time>2019-04-23T14:20:13.000Z</time>
      </trkpt>
      <trkpt lat="49.4612" lon="-1.57165">
        <ele>46.9</ele>
        <time>2019-04-23T14:20:14.000Z</time>
      </trkpt>
      <trkpt lat="49.4612" lon="-1.57163">
        <ele>47</ele>
        <time>2019-04-23T14:20:15.000Z</time>
      </trkpt>
      <trkpt lat="49.46119" lon="-1.57162">
        <ele>47</ele>
        <time>2019-04-23T14:20:16.000Z</time>
      </trkpt>
      <trkpt lat="49.46119" lon="-1.5716">
        <ele>47.1</ele>
        <time>2019-04-23T14:20:17.000Z</time>
      </trkpt>
      <trkpt lat="49.46119" lon="-1.57159">
        <ele>47.1</ele>
        <time>2019-04-23T14:20:18.000Z</time>
      </trkpt>
      <trkpt lat="49.46118" lon="-1.57157">
        <ele>47.1</ele>
        <time>2019-04-23T14:20:19.000Z</time>
      </trkpt>
      <trkpt lat="49.46118" lon="-1.57155">
        <ele>47.2</ele>
        <time>2019-04-23T14:20:20.000Z</time>
      </trkpt>
      <trkpt lat="49.46117" lon="-1.57154">
        <ele>47.2</ele>
        <time>2019-04-23T14:20:21.000Z</time>
      </trkpt>
      <trkpt lat="49.46117" lon="-1.57152">
        <ele>47.3</ele>
        <time>2019-04-23T14:20:22.000Z</time>
      </trkpt>
      <trkpt lat="49.46117" lon="-1.57151">
        <ele>47.3</ele>
        <time>2019-04-23T14:20:23.000Z</time>
      </trkpt>
      <trkpt lat="49.46116" lon="-1.57149">
        <ele>47.3</ele>
        <time>2019-04-23T14:20:24.000Z</time>
      </trkpt>
      <trkpt lat="49.46116" lon="-1.57147">
        <ele>47.4</ele>
        <time>2019-04-23T14:20:25.000Z</time>
      </trkpt>
      <trkpt lat="49.46115" lon="-1.57146">
        <ele>47.4</ele>
        <time>2019-04-23T14:20:26.000Z</time>
      </trkpt>
      <trkpt lat="49.46115" lon="-1.57144">
        <ele>47.5</ele>
        <time>2019-04-23T14:20:27.000Z</time>
      </trkpt>
      <trkpt lat="49.46114" lon="-1.57142">
        <ele>47.5</ele>
        <time>2019-04-23T14:20:28.000Z</time>
      </trkpt>
      <trkpt lat="49.46114" lon="-1.5714">
        <ele>47.6</ele>
        <time>2019-04-23T14:20:29.000Z</time>
      </trkpt>
      <trkpt lat="49.46113" lon="-1.57139">
        <ele>47.6</ele>
        <time>2019-04-23T14:20:30.000Z</time>
      </trkpt>
      <trkpt lat="49.46113" lon="-1.57137">
        <ele>47.7</ele>
        <time>2019-04-23T14:20:31.000Z</time>
      </trkpt>
      <trkpt lat="49.46112" lon="-1.57135">
        <ele>47.7</ele>
        <time>2019-04-23T14:20:32.000Z</time>
      </trkpt>
      <trkpt lat="49.46112" lon="-1.57134">
        <ele>47.7</ele>
        <time>2019-04-23T14:20:33.000Z</time>
      </trkpt>
      <trkpt lat="49.46111" lon="-1.57132">
        <ele>47.8</ele>
        <time>2019-04-23T14:20:34.000Z</time>
      </trkpt>
      <trkpt lat="49.46111" lon="-1.5713">
        <ele>47.8</ele>
        <time>2019-04-23T14:20:35.000Z</time>
      </trkpt>
      <trkpt lat="49.4611" lon="-1.57128">
        <ele>47.9</ele>
        <time>2019-04-23T14:20:36.000Z</time>
      </trkpt>
      <trkpt lat="49.4611" lon="-1.57127">
        <ele>47.9</ele>
        <time>2019-04-23T14:20:37.000Z</time>
      </trkpt>
      <trkpt lat="49.46109" lon="-1.57125">
        <ele>48</ele>
        <time>2019-04-23T14:20:38.000Z</time>
      </trkpt>
      <trkpt lat="49.46109" lon="-1.57123">
        <ele>48</ele>
        <time>2019-04-23T14:20:39.000Z</time>
      </trkpt>
      <trkpt lat="49.46108" lon="-1.57122">
        <ele>48.1</ele>
        <time>2019-04-23T14:20:40.000Z</time>
      </trkpt>
      <trkpt lat="49.46108" lon="-1.5712">
        <ele>48.1</ele>
        <time>2019-04-23T14:20:41.000Z</time>
      </trkpt>
      <trkpt lat="49.46107" lon="-1.57119">
        <ele>48.1</ele>
        <time>2019-04-23T14:20:42.000Z</time>
      </trkpt>
      <trkpt lat="49.46107" lon="-1.57117">
        <ele>48.2</ele>
        <time>2019-04-23T14:20:43.000Z</time>
      </trkpt>
      <trkpt lat="49.46106" lon="-1.57115">
        <ele>48.2</ele>
        <time>2019-04-23T14:20:44.000Z</time>
      </trkpt>
      <trkpt lat="49.46106" lon="-1.57114">
        <ele>48.3</ele>
        <time>2019-04-23T14:20:45.000Z</time>
      </trkpt>
      <trkpt lat="49.46105" lon="-1.57112">
        <ele>48.3</ele>
        <time>2019-04-23T14:20:46.000Z</time>
      </trkpt>
      <trkpt lat="49.46105" lon="-1.57111">
        <ele>48.4</ele>
        <time>2019-04-23T14:20:47.000Z</time>
      </trkpt>
      <trkpt lat="49.46104" lon="-1.57109">
        <ele>48.4</ele>
        <time>2019-04-23T14:20:48.000Z</time>
      </trkpt>
      <trkpt lat="49.46104" lon="-1.57108">
        <ele>48.4</ele>
        <time>2019-04-23T14:20:49.000Z</time>
      </trkpt>
      <trkpt lat="49.46103" lon="-1.57106">
        <ele>48.5</ele>
        <time>2019-04-23T14:20:50.000Z</time>
      </trkpt>
      <trkpt lat="49.46103" lon="-1.57104">
        <ele>48.5</ele>
        <time>2019-04-23T14:20:51.000Z</time>
      </trkpt>
      <trkpt lat="49.46102" lon="-1.57103">
        <ele>48.6</ele>
        <time>2019-04-23T14:20:52.000Z</time>
      </trkpt>
      <trkpt lat="49.46101" lon="-1.57101">
        <ele>48.6</ele>
        <time>2019-04-23T14:20:53.000Z</time>
      </trkpt>
      <trkpt lat="49.46101" lon="-1.571">
        <ele>48.7</ele>
        <time>2019-04-23T14:20:54.000Z</time>
      </trkpt>
      <trkpt lat="49.461" lon="-1.57098">
        <ele>48.7</ele>
        <time>2019-04-23T14:20:55.000Z</time>
      </trkpt>
      <trkpt lat="49.46099" lon="-1.57096">
        <ele>48.8</ele>
        <time>2019-04-23T14:20:56.000Z</time>
      </trkpt>
      <trkpt lat="49.46099" lon="-1.57095">
        <ele>48.8</ele>
        <time>2019-04-23T14:20:57.000Z</time>
      </trkpt>
      <trkpt lat="49.46098" lon="-1.57093">
        <ele>48.8</ele>
        <time>2019-04-23T14:20:58.000Z</time>
      </trkpt>
      <trkpt lat="49.46097" lon="-1.57091">
        <ele>48.9</ele>
        <time>2019-04-23T14:20:59.000Z</time>
      </trkpt>
      <trkpt lat="49.46097" lon="-1.5709">
        <ele>48.9</ele>
        <time>2019-04-23T14:21:00.000Z</time>
      </trkpt>
      <trkpt lat="49.46096" lon="-1.57088">
        <ele>49</ele>
        <time>2019-04-23T14:21:01.000Z</time>
      </trkpt>
      <trkpt lat="49.46095" lon="-1.57086">
        <ele>49</ele>
        <time>2019-04-23T14:21:02.000Z</time>
      </trkpt>
      <trkpt lat="49.46094" lon="-1.57084">
        <ele>49.1</ele>
        <time>2019-04-23T14:21:03.000Z</time>
      </trkpt>
      <trkpt lat="49.46094" lon="-1.57083">
        <ele>49.1</ele>
        <time>2019-04-23T14:21:04.000Z</time>
      </trkpt>
      <trkpt lat="49.46093" lon="-1.57081">
        <ele>49.2</ele>
        <time>2019-04-23T14:21:05.000Z</time>
      </trkpt>
      <trkpt lat="49.46092" lon="-1.57079">
        <ele>49.2</ele>
        <time>2019-04-23T14:21:06.000Z</time>
      </trkpt>
      <trkpt lat="49.46092" lon="-1.57077">
        <ele>49.2</ele>
        <time>2019-04-23T14:21:07.000Z</time>
      </trkpt>
      <trkpt lat="49.46091" lon="-1.57075">
        <ele>49.2</ele>
        <time>2019-04-23T14:21:08.000Z</time>
      </trkpt>
      <trkpt lat="49.4609" lon="-1.57074">
        <ele>49.2</ele>
        <time>2019-04-23T14:21:09.000Z</time>
      </trkpt>
      <trkpt lat="49.4609" lon="-1.57072">
        <ele>49.2</ele>
        <time>2019-04-23T14:21:10.000Z</time>
      </trkpt>
      <trkpt lat="49.46089" lon="-1.5707">
        <ele>49.2</ele>
        <time>2019-04-23T14:21:11.000Z</time>
      </trkpt>
      <trkpt lat="49.46088" lon="-1.57069">
        <ele>49.2</ele>
        <time>2019-04-23T14:21:12.000Z</time>
      </trkpt>
      <trkpt lat="49.46088" lon="-1.57067">
        <ele>49.3</ele>
        <time>2019-04-23T14:21:13.000Z</time>
      </trkpt>
      <trkpt lat="49.46087" lon="-1.57065">
        <ele>49.3</ele>
        <time>2019-04-23T14:21:14.000Z</time>
      </trkpt>
      <trkpt lat="49.46086" lon="-1.57064">
        <ele>49.3</ele>
        <time>2019-04-23T14:21:15.000Z</time>
      </trkpt>
      <trkpt lat="49.46086" lon="-1.57062">
        <ele>49.3</ele>
        <time>2019-04-23T14:21:16.000Z</time>
      </trkpt>
      <trkpt lat="49.46085" lon="-1.57061">
        <ele>49.3</ele>
        <time>2019-04-23T14:21:17.000Z</time>
      </trkpt>
      <trkpt lat="49.46085" lon="-1.57059">
        <ele>49.3</ele>
        <time>2019-04-23T14:21:18.000Z</time>
      </trkpt>
      <trkpt lat="49.46084" lon="-1.57058">
        <ele>49.3</ele>
        <time>2019-04-23T14:21:19.000Z</time>
      </trkpt>
      <trkpt lat="49.46084" lon="-1.57056">
        <ele>49.3</ele>
        <time>2019-04-23T14:21:20.000Z</time>
      </trkpt>
      <trkpt lat="49.46083" lon="-1.57055">
        <ele>49.3</ele>
        <time>2019-04-23T14:21:21.000Z</time>
      </trkpt>
      <trkpt lat="49.46082" lon="-1.57053">
        <ele>49.3</ele>
        <time>2019-04-23T14:21:22.000Z</time>
      </trkpt>
      <trkpt lat="49.46082" lon="-1.57052">
        <ele>49.3</ele>
        <time>2019-04-23T14:21:23.000Z</time>
      </trkpt>
      <trkpt lat="49.46081" lon="-1.5705">
        <ele>49.3</ele>
        <time>2019-04-23T14:21:24.000Z</time>
      </trkpt>
      <trkpt lat="49.46081" lon="-1.57048">
        <ele>49.3</ele>
        <time>2019-04-23T14:21:25.000Z</time>
      </trkpt>
      <trkpt lat="49.4608" lon="-1.57046">
        <ele>49.3</ele>
        <time>2019-04-23T14:21:26.000Z</time>
      </trkpt>
      <trkpt lat="49.46079" lon="-1.57044">
        <ele>49.3</ele>
        <time>2019-04-23T14:21:27.000Z</time>
      </trkpt>
      <trkpt lat="49.46079" lon="-1.57042">
        <ele>49.3</ele>
        <time>2019-04-23T14:21:28.000Z</time>
      </trkpt>
      <trkpt lat="49.46078" lon="-1.57041">
        <ele>49.3</ele>
        <time>2019-04-23T14:21:29.000Z</time>
      </trkpt>
      <trkpt lat="49.46078" lon="-1.57039">
        <ele>49.3</ele>
        <time>2019-04-23T14:21:30.000Z</time>
      </trkpt>
      <trkpt lat="49.46077" lon="-1.57037">
        <ele>49.3</ele>
        <time>2019-04-23T14:21:31.000Z</time>
      </trkpt>
      <trkpt lat="49.46077" lon="-1.57036">
        <ele>49.3</ele>
        <time>2019-04-23T14:21:32.000Z</time>
      </trkpt>
      <trkpt lat="49.46077" lon="-1.57035">
        <ele>49.3</ele>
        <time>2019-04-23T14:21:33.000Z</time>
      </trkpt>
      <trkpt lat="49.46076" lon="-1.57034">
        <ele>49.3</ele>
        <time>2019-04-23T14:21:34.000Z</time>
      </trkpt>
      <trkpt lat="49.46076" lon="-1.57033">
        <ele>49.3</ele>
        <time>2019-04-23T14:21:35.000Z</time>
      </trkpt>
      <trkpt lat="49.46076" lon="-1.57032">
        <ele>49.4</ele>
        <time>2019-04-23T14:21:36.000Z</time>
      </trkpt>
      <trkpt lat="49.46077" lon="-1.57032">
        <ele>49.4</ele>
        <time>2019-04-23T14:21:37.000Z</time>
      </trkpt>
      <trkpt lat="49.46077" lon="-1.57031">
        <ele>49.4</ele>
        <time>2019-04-23T14:21:38.000Z</time>
      </trkpt>
      <trkpt lat="49.46077" lon="-1.5703">
        <ele>49.4</ele>
        <time>2019-04-23T14:21:39.000Z</time>
      </trkpt>
      <trkpt lat="49.46078" lon="-1.57029">
        <ele>49.4</ele>
        <time>2019-04-23T14:21:40.000Z</time>
      </trkpt>
      <trkpt lat="49.46078" lon="-1.57028">
        <ele>49.5</ele>
        <time>2019-04-23T14:21:41.000Z</time>
      </trkpt>
      <trkpt lat="49.46079" lon="-1.57027">
        <ele>49.5</ele>
        <time>2019-04-23T14:21:42.000Z</time>
      </trkpt>
      <trkpt lat="49.46079" lon="-1.57026">
        <ele>49.5</ele>
        <time>2019-04-23T14:21:43.000Z</time>
      </trkpt>
      <trkpt lat="49.46079" lon="-1.57025">
        <ele>49.6</ele>
        <time>2019-04-23T14:21:44.000Z</time>
      </trkpt>
      <trkpt lat="49.4608" lon="-1.57023">
        <ele>49.6</ele>
        <time>2019-04-23T14:21:45.000Z</time>
      </trkpt>
      <trkpt lat="49.4608" lon="-1.57022">
        <ele>49.6</ele>
        <time>2019-04-23T14:21:46.000Z</time>
      </trkpt>
      <trkpt lat="49.46081" lon="-1.57021">
        <ele>49.7</ele>
        <time>2019-04-23T14:21:47.000Z</time>
      </trkpt>
      <trkpt lat="49.46081" lon="-1.57019">
        <ele>49.7</ele>
        <time>2019-04-23T14:21:48.000Z</time>
      </trkpt>
      <trkpt lat="49.46082" lon="-1.57018">
        <ele>49.7</ele>
        <time>2019-04-23T14:21:49.000Z</time>
      </trkpt>
      <trkpt lat="49.46083" lon="-1.57016">
        <ele>49.8</ele>
        <time>2019-04-23T14:21:50.000Z</time>
      </trkpt>
      <trkpt lat="49.46083" lon="-1.57015">
        <ele>49.8</ele>
        <time>2019-04-23T14:21:51.000Z</time>
      </trkpt>
      <trkpt lat="49.46084" lon="-1.57013">
        <ele>49.8</ele>
        <time>2019-04-23T14:21:52.000Z</time>
      </trkpt>
      <trkpt lat="49.46084" lon="-1.57011">
        <ele>49.9</ele>
        <time>2019-04-23T14:21:53.000Z</time>
      </trkpt>
      <trkpt lat="49.46085" lon="-1.5701">
        <ele>49.9</ele>
        <time>2019-04-23T14:21:54.000Z</time>
      </trkpt>
      <trkpt lat="49.46086" lon="-1.57008">
        <ele>50</ele>
        <time>2019-04-23T14:21:55.000Z</time>
      </trkpt>
      <trkpt lat="49.46086" lon="-1.57006">
        <ele>50</ele>
        <time>2019-04-23T14:21:56.000Z</time>
      </trkpt>
      <trkpt lat="49.46087" lon="-1.57005">
        <ele>50</ele>
        <time>2019-04-23T14:21:57.000Z</time>
      </trkpt>
      <trkpt lat="49.46088" lon="-1.57003">
        <ele>50.1</ele>
        <time>2019-04-23T14:21:58.000Z</time>
      </trkpt>
      <trkpt lat="49.46088" lon="-1.57001">
        <ele>50.1</ele>
        <time>2019-04-23T14:21:59.000Z</time>
      </trkpt>
      <trkpt lat="49.46089" lon="-1.56999">
        <ele>50.1</ele>
        <time>2019-04-23T14:22:00.000Z</time>
      </trkpt>
      <trkpt lat="49.4609" lon="-1.56998">
        <ele>50.2</ele>
        <time>2019-04-23T14:22:01.000Z</time>
      </trkpt>
      <trkpt lat="49.4609" lon="-1.56996">
        <ele>50.2</ele>
        <time>2019-04-23T14:22:02.000Z</time>
      </trkpt>
      <trkpt lat="49.46091" lon="-1.56994">
        <ele>50.2</ele>
        <time>2019-04-23T14:22:03.000Z</time>
      </trkpt>
      <trkpt lat="49.46092" lon="-1.56992">
        <ele>50.2</ele>
        <time>2019-04-23T14:22:04.000Z</time>
      </trkpt>
      <trkpt lat="49.46092" lon="-1.56991">
        <ele>50.2</ele>
        <time>2019-04-23T14:22:05.000Z</time>
      </trkpt>
      <trkpt lat="49.46093" lon="-1.56989">
        <ele>50.2</ele>
        <time>2019-04-23T14:22:06.000Z</time>
      </trkpt>
      <trkpt lat="49.46094" lon="-1.56987">
        <ele>50.2</ele>
        <time>2019-04-23T14:22:07.000Z</time>
      </trkpt>
      <trkpt lat="49.46094" lon="-1.56985">
        <ele>50.3</ele>
        <time>2019-04-23T14:22:08.000Z</time>
      </trkpt>
      <trkpt lat="49.46095" lon="-1.56984">
        <ele>50.3</ele>
        <time>2019-04-23T14:22:09.000Z</time>
      </trkpt>
      <trkpt lat="49.46096" lon="-1.56982">
        <ele>50.3</ele>
        <time>2019-04-23T14:22:10.000Z</time>
      </trkpt>
      <trkpt lat="49.46097" lon="-1.5698">
        <ele>50.3</ele>
        <time>2019-04-23T14:22:11.000Z</time>
      </trkpt>
      <trkpt lat="49.46097" lon="-1.56978">
        <ele>50.3</ele>
        <time>2019-04-23T14:22:12.000Z</time>
      </trkpt>
      <trkpt lat="49.46098" lon="-1.56977">
        <ele>50.3</ele>
        <time>2019-04-23T14:22:13.000Z</time>
      </trkpt>
      <trkpt lat="49.46099" lon="-1.56975">
        <ele>50.4</ele>
        <time>2019-04-23T14:22:14.000Z</time>
      </trkpt>
      <trkpt lat="49.46099" lon="-1.56973">
        <ele>50.4</ele>
        <time>2019-04-23T14:22:15.000Z</time>
      </trkpt>
      <trkpt lat="49.461" lon="-1.56971">
        <ele>50.4</ele>
        <time>2019-04-23T14:22:16.000Z</time>
      </trkpt>
      <trkpt lat="49.46101" lon="-1.56969">
        <ele>50.4</ele>
        <time>2019-04-23T14:22:17.000Z</time>
      </trkpt>
      <trkpt lat="49.46102" lon="-1.56968">
        <ele>50.4</ele>
        <time>2019-04-23T14:22:18.000Z</time>
      </trkpt>
      <trkpt lat="49.46102" lon="-1.56966">
        <ele>50.5</ele>
        <time>2019-04-23T14:22:19.000Z</time>
      </trkpt>
      <trkpt lat="49.46103" lon="-1.56964">
        <ele>50.5</ele>
        <time>2019-04-23T14:22:20.000Z</time>
      </trkpt>
      <trkpt lat="49.46104" lon="-1.56963">
        <ele>50.5</ele>
        <time>2019-04-23T14:22:21.000Z</time>
      </trkpt>
      <trkpt lat="49.46105" lon="-1.56961">
        <ele>50.5</ele>
        <time>2019-04-23T14:22:22.000Z</time>
      </trkpt>
      <trkpt lat="49.46106" lon="-1.5696">
        <ele>50.5</ele>
        <time>2019-04-23T14:22:23.000Z</time>
      </trkpt>
      <trkpt lat="49.46107" lon="-1.56958">
        <ele>50.6</ele>
        <time>2019-04-23T14:22:24.000Z</time>
      </trkpt>
      <trkpt lat="49.46108" lon="-1.56957">
        <ele>50.6</ele>
        <time>2019-04-23T14:22:25.000Z</time>
      </trkpt>
      <trkpt lat="49.46109" lon="-1.56956">
        <ele>50.6</ele>
        <time>2019-04-23T14:22:26.000Z</time>
      </trkpt>
      <trkpt lat="49.4611" lon="-1.56955">
        <ele>50.6</ele>
        <time>2019-04-23T14:22:27.000Z</time>
      </trkpt>
      <trkpt lat="49.46111" lon="-1.56954">
        <ele>50.7</ele>
        <time>2019-04-23T14:22:28.000Z</time>
      </trkpt>
      <trkpt lat="49.46112" lon="-1.56952">
        <ele>50.7</ele>
        <time>2019-04-23T14:22:29.000Z</time>
      </trkpt>
      <trkpt lat="49.46113" lon="-1.56951">
        <ele>50.7</ele>
        <time>2019-04-23T14:22:30.000Z</time>
      </trkpt>
      <trkpt lat="49.46114" lon="-1.5695">
        <ele>50.7</ele>
        <time>2019-04-23T14:22:31.000Z</time>
      </trkpt>
      <trkpt lat="49.46114" lon="-1.56949">
        <ele>50.7</ele>
        <time>2019-04-23T14:22:32.000Z</time>
      </trkpt>
      <trkpt lat="49.46115" lon="-1.56947">
        <ele>50.8</ele>
        <time>2019-04-23T14:22:33.000Z</time>
      </trkpt>
      <trkpt lat="49.46116" lon="-1.56946">
        <ele>50.8</ele>
        <time>2019-04-23T14:22:34.000Z</time>
      </trkpt>
      <trkpt lat="49.46116" lon="-1.56944">
        <ele>50.8</ele>
        <time>2019-04-23T14:22:35.000Z</time>
      </trkpt>
      <trkpt lat="49.46117" lon="-1.56943">
        <ele>50.8</ele>
        <time>2019-04-23T14:22:36.000Z</time>
      </trkpt>
      <trkpt lat="49.46117" lon="-1.56941">
        <ele>50.8</ele>
        <time>2019-04-23T14:22:37.000Z</time>
      </trkpt>
      <trkpt lat="49.46118" lon="-1.56939">
        <ele>50.8</ele>
        <time>2019-04-23T14:22:38.000Z</time>
      </trkpt>
      <trkpt lat="49.46118" lon="-1.56937">
        <ele>50.8</ele>
        <time>2019-04-23T14:22:39.000Z</time>
      </trkpt>
      <trkpt lat="49.46118" lon="-1.56935">
        <ele>50.8</ele>
        <time>2019-04-23T14:22:40.000Z</time>
      </trkpt>
      <trkpt lat="49.46119" lon="-1.56933">
        <ele>50.8</ele>
        <time>2019-04-23T14:22:41.000Z</time>
      </trkpt>
      <trkpt lat="49.46119" lon="-1.56931">
        <ele>50.9</ele>
        <time>2019-04-23T14:22:42.000Z</time>
      </trkpt>
      <trkpt lat="49.46119" lon="-1.56929">
        <ele>50.9</ele>
        <time>2019-04-23T14:22:43.000Z</time>
      </trkpt>
      <trkpt lat="49.46119" lon="-1.56927">
        <ele>50.9</ele>
        <time>2019-04-23T14:22:44.000Z</time>
      </trkpt>
      <trkpt lat="49.4612" lon="-1.56925">
        <ele>50.9</ele>
        <time>2019-04-23T14:22:45.000Z</time>
      </trkpt>
      <trkpt lat="49.4612" lon="-1.56923">
        <ele>50.9</ele>
        <time>2019-04-23T14:22:46.000Z</time>
      </trkpt>
      <trkpt lat="49.4612" lon="-1.56921">
        <ele>50.9</ele>
        <time>2019-04-23T14:22:47.000Z</time>
      </trkpt>
      <trkpt lat="49.4612" lon="-1.56919">
        <ele>50.9</ele>
        <time>2019-04-23T14:22:48.000Z</time>
      </trkpt>
      <trkpt lat="49.4612" lon="-1.56917">
        <ele>50.9</ele>
        <time>2019-04-23T14:22:49.000Z</time>
      </trkpt>
      <trkpt lat="49.4612" lon="-1.56915">
        <ele>50.8</ele>
        <time>2019-04-23T14:22:50.000Z</time>
      </trkpt>
      <trkpt lat="49.46121" lon="-1.56913">
        <ele>50.8</ele>
        <time>2019-04-23T14:22:51.000Z</time>
      </trkpt>
      <trkpt lat="49.46121" lon="-1.56911">
        <ele>50.7</ele>
        <time>2019-04-23T14:22:52.000Z</time>
      </trkpt>
      <trkpt lat="49.46121" lon="-1.56909">
        <ele>50.7</ele>
        <time>2019-04-23T14:22:53.000Z</time>
      </trkpt>
      <trkpt lat="49.46121" lon="-1.56907">
        <ele>50.6</ele>
        <time>2019-04-23T14:22:54.000Z</time>
      </trkpt>
      <trkpt lat="49.46121" lon="-1.56905">
        <ele>50.6</ele>
        <time>2019-04-23T14:22:55.000Z</time>
      </trkpt>
      <trkpt lat="49.46121" lon="-1.56903">
        <ele>50.5</ele>
        <time>2019-04-23T14:22:56.000Z</time>
      </trkpt>
      <trkpt lat="49.46122" lon="-1.56901">
        <ele>50.5</ele>
        <time>2019-04-23T14:22:57.000Z</time>
      </trkpt>
      <trkpt lat="49.46122" lon="-1.56899">
        <ele>50.4</ele>
        <time>2019-04-23T14:22:58.000Z</time>
      </trkpt>
      <trkpt lat="49.46122" lon="-1.56897">
        <ele>50.4</ele>
        <time>2019-04-23T14:22:59.000Z</time>
      </trkpt>
      <trkpt lat="49.46122" lon="-1.56895">
        <ele>50.3</ele>
        <time>2019-04-23T14:23:00.000Z</time>
      </trkpt>
      <trkpt lat="49.46122" lon="-1.56893">
        <ele>50.3</ele>
        <time>2019-04-23T14:23:01.000Z</time>
      </trkpt>
      <trkpt lat="49.46122" lon="-1.56891">
        <ele>50.2</ele>
        <time>2019-04-23T14:23:02.000Z</time>
      </trkpt>
      <trkpt lat="49.46123" lon="-1.56889">
        <ele>50.1</ele>
        <time>2019-04-23T14:23:03.000Z</time>
      </trkpt>
      <trkpt lat="49.46123" lon="-1.56887">
        <ele>50.1</ele>
        <time>2019-04-23T14:23:04.000Z</time>
      </trkpt>
      <trkpt lat="49.46123" lon="-1.56885">
        <ele>50</ele>
        <time>2019-04-23T14:23:05.000Z</time>
      </trkpt>
      <trkpt lat="49.46123" lon="-1.56883">
        <ele>50</ele>
        <time>2019-04-23T14:23:06.000Z</time>
      </trkpt>
      <trkpt lat="49.46123" lon="-1.56881">
        <ele>49.9</ele>
        <time>2019-04-23T14:23:07.000Z</time>
      </trkpt>
      <trkpt lat="49.46123" lon="-1.5688">
        <ele>49.9</ele>
        <time>2019-04-23T14:23:08.000Z</time>
      </trkpt>
      <trkpt lat="49.46123" lon="-1.56878">
        <ele>49.8</ele>
        <time>2019-04-23T14:23:09.000Z</time>
      </trkpt>
      <trkpt lat="49.46124" lon="-1.56876">
        <ele>49.8</ele>
        <time>2019-04-23T14:23:10.000Z</time>
      </trkpt>
      <trkpt lat="49.46124" lon="-1.56874">
        <ele>49.7</ele>
        <time>2019-04-23T14:23:11.000Z</time>
      </trkpt>
      <trkpt lat="49.46124" lon="-1.56872">
        <ele>49.6</ele>
        <time>2019-04-23T14:23:12.000Z</time>
      </trkpt>
      <trkpt lat="49.46124" lon="-1.5687">
        <ele>49.6</ele>
        <time>2019-04-23T14:23:13.000Z</time>
      </trkpt>
      <trkpt lat="49.46124" lon="-1.56868">
        <ele>49.5</ele>
        <time>2019-04-23T14:23:14.000Z</time>
      </trkpt>
      <trkpt lat="49.46124" lon="-1.56866">
        <ele>49.5</ele>
        <time>2019-04-23T14:23:15.000Z</time>
      </trkpt>
      <trkpt lat="49.46124" lon="-1.56864">
        <ele>49.4</ele>
        <time>2019-04-23T14:23:16.000Z</time>
      </trkpt>
      <trkpt lat="49.46125" lon="-1.56862">
        <ele>49.4</ele>
        <time>2019-04-23T14:23:17.000Z</time>
      </trkpt>
      <trkpt lat="49.46125" lon="-1.5686">
        <ele>49.3</ele>
        <time>2019-04-23T14:23:18.000Z</time>
      </trkpt>
      <trkpt lat="49.46125" lon="-1.56858">
        <ele>49.3</ele>
        <time>2019-04-23T14:23:19.000Z</time>
      </trkpt>
      <trkpt lat="49.46125" lon="-1.56856">
        <ele>49.2</ele>
        <time>2019-04-23T14:23:20.000Z</time>
      </trkpt>
      <trkpt lat="49.46125" lon="-1.56855">
        <ele>49.1</ele>
        <time>2019-04-23T14:23:21.000Z</time>
      </trkpt>
      <trkpt lat="49.46126" lon="-1.56853">
        <ele>49.1</ele>
        <time>2019-04-23T14:23:22.000Z</time>
      </trkpt>
      <trkpt lat="49.46126" lon="-1.56851">
        <ele>49</ele>
        <time>2019-04-23T14:23:23.000Z</time>
      </trkpt>
      <trkpt lat="49.46126" lon="-1.56849">
        <ele>49</ele>
        <time>2019-04-23T14:23:24.000Z</time>
      </trkpt>
      <trkpt lat="49.46126" lon="-1.56847">
        <ele>48.9</ele>
        <time>2019-04-23T14:23:25.000Z</time>
      </trkpt>
      <trkpt lat="49.46126" lon="-1.56845">
        <ele>48.8</ele>
        <time>2019-04-23T14:23:26.000Z</time>
      </trkpt>
      <trkpt lat="49.46127" lon="-1.56843">
        <ele>48.8</ele>
        <time>2019-04-23T14:23:27.000Z</time>
      </trkpt>
      <trkpt lat="49.46127" lon="-1.56841">
        <ele>48.7</ele>
        <time>2019-04-23T14:23:28.000Z</time>
      </trkpt>
      <trkpt lat="49.46127" lon="-1.56839">
        <ele>48.7</ele>
        <time>2019-04-23T14:23:29.000Z</time>
      </trkpt>
      <trkpt lat="49.46127" lon="-1.56838">
        <ele>48.6</ele>
        <time>2019-04-23T14:23:30.000Z</time>
      </trkpt>
      <trkpt lat="49.46128" lon="-1.56836">
        <ele>48.5</ele>
        <time>2019-04-23T14:23:31.000Z</time>
      </trkpt>
      <trkpt lat="49.46128" lon="-1.56834">
        <ele>48.5</ele>
        <time>2019-04-23T14:23:32.000Z</time>
      </trkpt>
      <trkpt lat="49.46128" lon="-1.56833">
        <ele>48.4</ele>
        <time>2019-04-23T14:23:33.000Z</time>
      </trkpt>
      <trkpt lat="49.46129" lon="-1.56831">
        <ele>48.4</ele>
        <time>2019-04-23T14:23:34.000Z</time>
      </trkpt>
      <trkpt lat="49.46129" lon="-1.5683">
        <ele>48.4</ele>
        <time>2019-04-23T14:23:35.000Z</time>
      </trkpt>
      <trkpt lat="49.4613" lon="-1.56828">
        <ele>48.3</ele>
        <time>2019-04-23T14:23:36.000Z</time>
      </trkpt>
      <trkpt lat="49.4613" lon="-1.56827">
        <ele>48.3</ele>
        <time>2019-04-23T14:23:37.000Z</time>
      </trkpt>
      <trkpt lat="49.46131" lon="-1.56826">
        <ele>48.2</ele>
        <time>2019-04-23T14:23:38.000Z</time>
      </trkpt>
      <trkpt lat="49.46132" lon="-1.56825">
        <ele>48.2</ele>
        <time>2019-04-23T14:23:39.000Z</time>
      </trkpt>
      <trkpt lat="49.46132" lon="-1.56824">
        <ele>48.2</ele>
        <time>2019-04-23T14:23:40.000Z</time>
      </trkpt>
      <trkpt lat="49.46133" lon="-1.56823">
        <ele>48.1</ele>
        <time>2019-04-23T14:23:41.000Z</time>
      </trkpt>
      <trkpt lat="49.46134" lon="-1.56823">
        <ele>48.1</ele>
        <time>2019-04-23T14:23:42.000Z</time>
      </trkpt>
      <trkpt lat="49.46134" lon="-1.56822">
        <ele>48.1</ele>
        <time>2019-04-23T14:23:43.000Z</time>
      </trkpt>
      <trkpt lat="49.46134" lon="-1.56822">
        <ele>48.1</ele>
        <time>2019-04-23T14:23:44.000Z</time>
      </trkpt>
      <trkpt lat="49.46134" lon="-1.56822">
        <ele>48.1</ele>
        <time>2019-04-23T14:23:45.000Z</time>
      </trkpt>
      <trkpt lat="49.46134" lon="-1.56822">
        <ele>48.1</ele>
        <time>2019-04-23T14:23:46.000Z</time>
      </trkpt>
      <trkpt lat="49.46134" lon="-1.56822">
        <ele>48.1</ele>
        <time>2019-04-23T14:23:47.000Z</time>
      </trkpt>
      <trkpt lat="49.46134" lon="-1.56822">
        <ele>48.1</ele>
        <time>2019-04-23T14:23:48.000Z</time>
      </trkpt>
      <trkpt lat="49.46134" lon="-1.56822">
        <ele>48.1</ele>
        <time>2019-04-23T14:23:49.000Z</time>
      </trkpt>
      <trkpt lat="49.46134" lon="-1.56822">
        <ele>48.1</ele>
        <time>2019-04-23T14:23:50.000Z</time>
      </trkpt>
      <trkpt lat="49.46134" lon="-1.56822">
        <ele>48.1</ele>
        <time>2019-04-23T14:23:51.000Z</time>
      </trkpt>
      <trkpt lat="49.46134" lon="-1.56822">
        <ele>48.1</ele>
        <time>2019-04-23T14:23:52.000Z</time>
      </trkpt>
      <trkpt lat="49.46134" lon="-1.56822">
        <ele>48.1</ele>
        <time>2019-04-23T14:23:53.000Z</time>
      </trkpt>
      <trkpt lat="49.46134" lon="-1.56822">
        <ele>48.1</ele>
        <time>2019-04-23T14:23:54.000Z</time>
      </trkpt>
      <trkpt lat="49.46134" lon="-1.56822">
        <ele>48.1</ele>
        <time>2019-04-23T14:23:55.000Z</time>
      </trkpt>
      <trkpt lat="49.46134" lon="-1.56822">
        <ele>48.1</ele>
        <time>2019-04-23T14:23:56.000Z</time>
      </trkpt>
      <trkpt lat="49.46134" lon="-1.56822">
        <ele>48.1</ele>
        <time>2019-04-23T14:23:57.000Z</time>
      </trkpt>
      <trkpt lat="49.46134" lon="-1.56822">
        <ele>48.1</ele>
        <time>2019-04-23T14:23:58.000Z</time>
      </trkpt>
      <trkpt lat="49.46134" lon="-1.56822">
        <ele>48.1</ele>
        <time>2019-04-23T14:23:59.000Z</time>
      </trkpt>
      <trkpt lat="49.46134" lon="-1.56822">
        <ele>48.1</ele>
        <time>2019-04-23T14:24:00.000Z</time>
      </trkpt>
      <trkpt lat="49.46134" lon="-1.56822">
        <ele>48.1</ele>
        <time>2019-04-23T14:24:01.000Z</time>
      </trkpt>
      <trkpt lat="49.46134" lon="-1.56822">
        <ele>48.1</ele>
        <time>2019-04-23T14:24:02.000Z</time>
      </trkpt>
      <trkpt lat="49.46134" lon="-1.56822">
        <ele>48.1</ele>
        <time>2019-04-23T14:24:03.000Z</time>
      </trkpt>
      <trkpt lat="49.46134" lon="-1.56822">
        <ele>48.1</ele>
        <time>2019-04-23T14:24:04.000Z</time>
      </trkpt>
      <trkpt lat="49.46134" lon="-1.56822">
        <ele>48.1</ele>
        <time>2019-04-23T14:24:05.000Z</time>
      </trkpt>
      <trkpt lat="49.46134" lon="-1.56822">
        <ele>48.1</ele>
        <time>2019-04-23T14:24:06.000Z</time>
      </trkpt>
      <trkpt lat="49.46134" lon="-1.56822">
        <ele>48.1</ele>
        <time>2019-04-23T14:24:07.000Z</time>
      </trkpt>
      <trkpt lat="49.46134" lon="-1.56822">
        <ele>48.1</ele>
        <time>2019-04-23T14:24:08.000Z</time>
      </trkpt>
      <trkpt lat="49.46134" lon="-1.56822">
        <ele>48.1</ele>
        <time>2019-04-23T14:24:09.000Z</time>
      </trkpt>
      <trkpt lat="49.46134" lon="-1.56822">
        <ele>48.1</ele>
        <time>2019-04-23T14:24:10.000Z</time>
      </trkpt>
      <trkpt lat="49.46134" lon="-1.56822">
        <ele>48.1</ele>
        <time>2019-04-23T14:24:11.000Z</time>
      </trkpt>
      <trkpt lat="49.46134" lon="-1.56822">
        <ele>48.1</ele>
        <time>2019-04-23T14:24:12.000Z</time>
      </trkpt>
      <trkpt lat="49.46134" lon="-1.56822">
        <ele>48.1</ele>
        <time>2019-04-23T14:24:13.000Z</time>
      </trkpt>
      <trkpt lat="49.46134" lon="-1.56822">
        <ele>48.1</ele>
        <time>2019-04-23T14:24:14.000Z</time>
      </trkpt>
      <trkpt lat="49.46134" lon="-1.56822">
        <ele>48.1</ele>
        <time>2019-04-23T14:24:15.000Z</time>
      </trkpt>
      <trkpt lat="49.46134" lon="-1.56822">
        <ele>48.1</ele>
        <time>2019-04-23T14:24:16.000Z</time>
      </trkpt>
      <trkpt lat="49.46134" lon="-1.56822">
        <ele>48.1</ele>
        <time>2019-04-23T14:24:17.000Z</time>
      </trkpt>
      <trkpt lat="49.46134" lon="-1.56822">
        <ele>48.1</ele>
        <time>2019-04-23T14:24:18.000Z</time>
      </trkpt>
      <trkpt lat="49.46134" lon="-1.56822">
        <ele>48.1</ele>
        <time>2019-04-23T14:24:19.000Z</time>
      </trkpt>
      <trkpt lat="49.46134" lon="-1.56822">
        <ele>48.1</ele>
        <time>2019-04-23T14:24:20.000Z</time>
      </trkpt>
      <trkpt lat="49.46134" lon="-1.56822">
        <ele>48.1</ele>
        <time>2019-04-23T14:24:21.000Z</time>
      </trkpt>
      <trkpt lat="49.46134" lon="-1.56822">
        <ele>48.1</ele>
        <time>2019-04-23T14:24:22.000Z</time>
      </trkpt>
      <trkpt lat="49.46134" lon="-1.56822">
        <ele>48.1</ele>
        <time>2019-04-23T14:24:23.000Z</time>
      </trkpt>
      <trkpt lat="49.46134" lon="-1.56822">
        <ele>48.1</ele>
        <time>2019-04-23T14:24:24.000Z</time>
      </trkpt>
      <trkpt lat="49.46134" lon="-1.56822">
        <ele>48.1</ele>
        <time>2019-04-23T14:24:25.000Z</time>
      </trkpt>
      <trkpt lat="49.46134" lon="-1.56822">
        <ele>48.1</ele>
        <time>2019-04-23T14:24:26.000Z</time>
      </trkpt>
      <trkpt lat="49.46134" lon="-1.56822">
        <ele>48.1</ele>
        <time>2019-04-23T14:24:27.000Z</time>
      </trkpt>
      <trkpt lat="49.46134" lon="-1.56822">
        <ele>48.1</ele>
        <time>2019-04-23T14:24:28.000Z</time>
      </trkpt>
      <trkpt lat="49.46134" lon="-1.56822">
        <ele>48.1</ele>
        <time>2019-04-23T14:24:29.000Z</time>
      </trkpt>
      <trkpt lat="49.46134" lon="-1.56822">
        <ele>48.1</ele>
        <time>2019-04-23T14:24:30.000Z</time>
      </trkpt>
      <trkpt lat="49.46134" lon="-1.56822">
        <ele>48.1</ele>
        <time>2019-04-23T14:24:31.000Z</time>
      </trkpt>
      <trkpt lat="49.46134" lon="-1.56822">
        <ele>48.1</ele>
        <time>2019-04-23T14:24:32.000Z</time>
      </trkpt>
      <trkpt lat="49.46134" lon="-1.56822">
        <ele>48.1</ele>
        <time>2019-04-23T14:24:33.000Z</time>
      </trkpt>
      <trkpt lat="49.46134" lon="-1.56822">
        <ele>48.1</ele>
        <time>2019-04-23T14:24:34.000Z</time>
      </trkpt>
      <trkpt lat="49.46134" lon="-1.56822">
        <ele>48.1</ele>
        <time>2019-04-23T14:24:35.000Z</time>
      </trkpt>
      <trkpt lat="49.46134" lon="-1.56822">
        <ele>48.1</ele>
        <time>2019-04-23T14:24:36.000Z</time>
      </trkpt>
      <trkpt lat="49.46134" lon="-1.56822">
        <ele>48.1</ele>
        <time>2019-04-23T14:24:37.000Z</time>
      </trkpt>
      <trkpt lat="49.46134" lon="-1.56822">
        <ele>48.1</ele>
        <time>2019-04-23T14:24:38.000Z</time>
      </trkpt>
      <trkpt lat="49.46134" lon="-1.56822">
        <ele>48.1</ele>
        <time>2019-04-23T14:24:39.000Z</time>
      </trkpt>
      <trkpt lat="49.46134" lon="-1.56822">
        <ele>48.1</ele>
        <time>2019-04-23T14:24:40.000Z</time>
      </trkpt>
      <trkpt lat="49.46134" lon="-1.56822">
        <ele>48.1</ele>
        <time>2019-04-23T14:24:41.000Z</time>
      </trkpt>
      <trkpt lat="49.46134" lon="-1.56822">
        <ele>48.1</ele>
        <time>2019-04-23T14:24:42.000Z</time>
      </trkpt>
      <trkpt lat="49.46134" lon="-1.56822">
        <ele>48.1</ele>
        <time>2019-04-23T14:24:43.000Z</time>
      </trkpt>
      <trkpt lat="49.46134" lon="-1.56822">
        <ele>48.1</ele>
        <time>2019-04-23T14:24:44.000Z</time>
      </trkpt>
      <trkpt lat="49.46134" lon="-1.56822">
        <ele>48.1</ele>
        <time>2019-04-23T14:24:45.000Z</time>
      </trkpt>
      <trkpt lat="49.46134" lon="-1.56822">
        <ele>48.1</ele>
        <time>2019-04-23T14:24:46.000Z</time>
      </trkpt>
      <trkpt lat="49.46134" lon="-1.56822">
        <ele>48.1</ele>
        <time>2019-04-23T14:24:47.000Z</time>
      </trkpt>
      <trkpt lat="49.46134" lon="-1.56822">
        <ele>48.1</ele>
        <time>2019-04-23T14:24:48.000Z</time>
      </trkpt>
      <trkpt lat="49.46134" lon="-1.56822">
        <ele>48.1</ele>
        <time>2019-04-23T14:24:49.000Z</time>
      </trkpt>
      <trkpt lat="49.46134" lon="-1.56822">
        <ele>48.1</ele>
        <time>2019-04-23T14:24:50.000Z</time>
      </trkpt>
      <trkpt lat="49.46134" lon="-1.56822">
        <ele>48.1</ele>
        <time>2019-04-23T14:24:51.000Z</time>
      </trkpt>
      <trkpt lat="49.46134" lon="-1.56822">
        <ele>48.1</ele>
        <time>2019-04-23T14:24:52.000Z</time>
      </trkpt>
      <trkpt lat="49.46134" lon="-1.56822">
        <ele>48.1</ele>
        <time>2019-04-23T14:24:53.000Z</time>
      </trkpt>
      <trkpt lat="49.46134" lon="-1.56822">
        <ele>48.1</ele>
        <time>2019-04-23T14:24:54.000Z</time>
      </trkpt>
      <trkpt lat="49.46134" lon="-1.56822">
        <ele>48.1</ele>
        <time>2019-04-23T14:24:55.000Z</time>
      </trkpt>
      <trkpt lat="49.46134" lon="-1.56822">
        <ele>48.1</ele>
        <time>2019-04-23T14:24:56.000Z</time>
      </trkpt>
      <trkpt lat="49.46134" lon="-1.56822">
        <ele>48.1</ele>
        <time>2019-04-23T14:24:57.000Z</time>
      </trkpt>
      <trkpt lat="49.46134" lon="-1.56822">
        <ele>48.1</ele>
        <time>2019-04-23T14:24:58.000Z</time>
      </trkpt>
      <trkpt lat="49.46134" lon="-1.56822">
        <ele>48.1</ele>
        <time>2019-04-23T14:24:59.000Z</time>
      </trkpt>
      <trkpt lat="49.46134" lon="-1.56822">
        <ele>48.1</ele>
        <time>2019-04-23T14:25:00.000Z</time>
      </trkpt>
      <trkpt lat="49.46134" lon="-1.56822">
        <ele>48.1</ele>
        <time>2019-04-23T14:25:01.000Z</time>
      </trkpt>
      <trkpt lat="49.46134" lon="-1.56822">
        <ele>48.1</ele>
        <time>2019-04-23T14:25:02.000Z</time>
      </trkpt>
      <trkpt lat="49.46134" lon="-1.56822">
        <ele>48.1</ele>
        <time>2019-04-23T14:25:03.000Z</time>
      </trkpt>
      <trkpt lat="49.46134" lon="-1.56822">
        <ele>48.1</ele>
        <time>2019-04-23T14:25:04.000Z</time>
      </trkpt>
      <trkpt lat="49.46134" lon="-1.56822">
        <ele>48.1</ele>
        <time>2019-04-23T14:25:05.000Z</time>
      </trkpt>
      <trkpt lat="49.46134" lon="-1.56822">
        <ele>48.1</ele>
        <time>2019-04-23T14:25:06.000Z</time>
      </trkpt>
      <trkpt lat="49.46134" lon="-1.56822">
        <ele>48.1</ele>
        <time>2019-04-23T14:25:07.000Z</time>
      </trkpt>
      <trkpt lat="49.46134" lon="-1.56822">
        <ele>48.1</ele>
        <time>2019-04-23T14:25:08.000Z</time>
      </trkpt>
      <trkpt lat="49.46134" lon="-1.56822">
        <ele>48.1</ele>
        <time>2019-04-23T14:25:09.000Z</time>
      </trkpt>
      <trkpt lat="49.46134" lon="-1.56822">
        <ele>48.1</ele>
        <time>2019-04-23T14:25:10.000Z</time>
      </trkpt>
      <trkpt lat="49.46134" lon="-1.56822">
        <ele>48.1</ele>
        <time>2019-04-23T14:25:11.000Z</time>
      </trkpt>
      <trkpt lat="49.46134" lon="-1.56822">
        <ele>48.1</ele>
        <time>2019-04-23T14:25:12.000Z</time>
      </trkpt>
      <trkpt lat="49.46134" lon="-1.56822">
        <ele>48.1</ele>
        <time>2019-04-23T14:25:13.000Z</time>
      </trkpt>
      <trkpt lat="49.46134" lon="-1.56822">
        <ele>48.1</ele>
        <time>2019-04-23T14:25:14.000Z</time>
      </trkpt>
      <trkpt lat="49.46134" lon="-1.56822">
        <ele>48.1</ele>
        <time>2019-04-23T14:25:15.000Z</time>
      </trkpt>
      <trkpt lat="49.46134" lon="-1.56822">
        <ele>48.1</ele>
        <time>2019-04-23T14:25:16.000Z</time>
      </trkpt>
      <trkpt lat="49.46134" lon="-1.56822">
        <ele>48.1</ele>
        <time>2019-04-23T14:25:17.000Z</time>
      </trkpt>
      <trkpt lat="49.46134" lon="-1.56822">
        <ele>48.1</ele>
        <time>2019-04-23T14:25:18.000Z</time>
      </trkpt>
      <trkpt lat="49.46134" lon="-1.56822">
        <ele>48.1</ele>
        <time>2019-04-23T14:25:19.000Z</time>
      </trkpt>
      <trkpt lat="49.46134" lon="-1.56822">
        <ele>48.1</ele>
        <time>2019-04-23T14:25:20.000Z</time>
      </trkpt>
      <trkpt lat="49.46134" lon="-1.56822">
        <ele>48.1</ele>
        <time>2019-04-23T14:25:21.000Z</time>
      </trkpt>
      <trkpt lat="49.46134" lon="-1.56822">
        <ele>48.1</ele>
        <time>2019-04-23T14:25:22.000Z</time>
      </trkpt>
      <trkpt lat="49.46134" lon="-1.56822">
        <ele>48.1</ele>
        <time>2019-04-23T14:25:23.000Z</time>
      </trkpt>
      <trkpt lat="49.46134" lon="-1.56822">
        <ele>48.1</ele>
        <time>2019-04-23T14:25:24.000Z</time>
      </trkpt>
      <trkpt lat="49.46134" lon="-1.56822">
        <ele>48.1</ele>
        <time>2019-04-23T14:25:25.000Z</time>
      </trkpt>
      <trkpt lat="49.46134" lon="-1.56822">
        <ele>48.1</ele>
        <time>2019-04-23T14:25:26.000Z</time>
      </trkpt>
      <trkpt lat="49.46134" lon="-1.56822">
        <ele>48.1</ele>
        <time>2019-04-23T14:25:27.000Z</time>
      </trkpt>
      <trkpt lat="49.46134" lon="-1.56822">
        <ele>48.1</ele>
        <time>2019-04-23T14:25:28.000Z</time>
      </trkpt>
      <trkpt lat="49.46134" lon="-1.56822">
        <ele>48.1</ele>
        <time>2019-04-23T14:25:29.000Z</time>
      </trkpt>
      <trkpt lat="49.46134" lon="-1.56822">
        <ele>48.1</ele>
        <time>2019-04-23T14:25:30.000Z</time>
      </trkpt>
      <trkpt lat="49.46134" lon="-1.56822">
        <ele>48.1</ele>
        <time>2019-04-23T14:25:31.000Z</time>
      </trkpt>
      <trkpt lat="49.46134" lon="-1.56822">
        <ele>48.1</ele>
        <time>2019-04-23T14:25:32.000Z</time>
      </trkpt>
      <trkpt lat="49.46134" lon="-1.56822">
        <ele>48.1</ele>
        <time>2019-04-23T14:25:33.000Z</time>
      </trkpt>
      <trkpt lat="49.46134" lon="-1.56822">
        <ele>48.1</ele>
        <time>2019-04-23T14:25:34.000Z</time>
      </trkpt>
      <trkpt lat="49.46135" lon="-1.56822">
        <ele>48.1</ele>
        <time>2019-04-23T14:25:35.000Z</time>
      </trkpt>
      <trkpt lat="49.46135" lon="-1.56822">
        <ele>48.1</ele>
        <time>2019-04-23T14:25:36.000Z</time>
      </trkpt>
      <trkpt lat="49.46136" lon="-1.56822">
        <ele>48.1</ele>
        <time>2019-04-23T14:25:37.000Z</time>
      </trkpt>
      <trkpt lat="49.46136" lon="-1.56821">
        <ele>48</ele>
        <time>2019-04-23T14:25:38.000Z</time>
      </trkpt>
      <trkpt lat="49.46137" lon="-1.56821">
        <ele>48</ele>
        <time>2019-04-23T14:25:39.000Z</time>
      </trkpt>
      <trkpt lat="49.46139" lon="-1.56821">
        <ele>48</ele>
        <time>2019-04-23T14:25:40.000Z</time>
      </trkpt>
      <trkpt lat="49.4614" lon="-1.5682">
        <ele>47.9</ele>
        <time>2019-04-23T14:25:41.000Z</time>
      </trkpt>
      <trkpt lat="49.46141" lon="-1.56819">
        <ele>47.9</ele>
        <time>2019-04-23T14:25:42.000Z</time>
      </trkpt>
      <trkpt lat="49.46143" lon="-1.56819">
        <ele>47.9</ele>
        <time>2019-04-23T14:25:43.000Z</time>
      </trkpt>
      <trkpt lat="49.46144" lon="-1.56819">
        <ele>47.8</ele>
        <time>2019-04-23T14:25:44.000Z</time>
      </trkpt>
      <trkpt lat="49.46145" lon="-1.56818">
        <ele>47.8</ele>
        <time>2019-04-23T14:25:45.000Z</time>
      </trkpt>
      <trkpt lat="49.46146" lon="-1.56818">
        <ele>47.8</ele>
        <time>2019-04-23T14:25:46.000Z</time>
      </trkpt>
      <trkpt lat="49.46148" lon="-1.56818">
        <ele>47.8</ele>
        <time>2019-04-23T14:25:47.000Z</time>
      </trkpt>
      <trkpt lat="49.46149" lon="-1.56818">
        <ele>47.7</ele>
        <time>2019-04-23T14:25:48.000Z</time>
      </trkpt>
      <trkpt lat="49.4615" lon="-1.56817">
        <ele>47.7</ele>
        <time>2019-04-23T14:25:49.000Z</time>
      </trkpt>
      <trkpt lat="49.46152" lon="-1.56817">
        <ele>47.7</ele>
        <time>2019-04-23T14:25:50.000Z</time>
      </trkpt>
      <trkpt lat="49.46153" lon="-1.56817">
        <ele>47.6</ele>
        <time>2019-04-23T14:25:51.000Z</time>
      </trkpt>
      <trkpt lat="49.46154" lon="-1.56816">
        <ele>47.6</ele>
        <time>2019-04-23T14:25:52.000Z</time>
      </trkpt>
      <trkpt lat="49.46155" lon="-1.56816">
        <ele>47.6</ele>
        <time>2019-04-23T14:25:53.000Z</time>
      </trkpt>
      <trkpt lat="49.46157" lon="-1.56816">
        <ele>47.5</ele>
        <time>2019-04-23T14:25:54.000Z</time>
      </trkpt>
      <trkpt lat="49.46158" lon="-1.56815">
        <ele>47.5</ele>
        <time>2019-04-23T14:25:55.000Z</time>
      </trkpt>
      <trkpt lat="49.46159" lon="-1.56815">
        <ele>47.5</ele>
        <time>2019-04-23T14:25:56.000Z</time>
      </trkpt>
      <trkpt lat="49.4616" lon="-1.56814">
        <ele>47.4</ele>
        <time>2019-04-23T14:25:57.000Z</time>
      </trkpt>
      <trkpt lat="49.46161" lon="-1.56814">
        <ele>47.4</ele>
        <time>2019-04-23T14:25:58.000Z</time>
      </trkpt>
      <trkpt lat="49.46162" lon="-1.56814">
        <ele>47.4</ele>
        <time>2019-04-23T14:25:59.000Z</time>
      </trkpt>
      <trkpt lat="49.46163" lon="-1.56813">
        <ele>47.3</ele>
        <time>2019-04-23T14:26:00.000Z</time>
      </trkpt>
      <trkpt lat="49.46164" lon="-1.56813">
        <ele>47.3</ele>
        <time>2019-04-23T14:26:01.000Z</time>
      </trkpt>
      <trkpt lat="49.46165" lon="-1.56812">
        <ele>47.3</ele>
        <time>2019-04-23T14:26:02.000Z</time>
      </trkpt>
      <trkpt lat="49.46166" lon="-1.56811">
        <ele>47.2</ele>
        <time>2019-04-23T14:26:03.000Z</time>
      </trkpt>
      <trkpt lat="49.46167" lon="-1.56811">
        <ele>47.2</ele>
        <time>2019-04-23T14:26:04.000Z</time>
      </trkpt>
      <trkpt lat="49.46169" lon="-1.5681">
        <ele>47.1</ele>
        <time>2019-04-23T14:26:05.000Z</time>
      </trkpt>
      <trkpt lat="49.4617" lon="-1.5681">
        <ele>47</ele>
        <time>2019-04-23T14:26:06.000Z</time>
      </trkpt>
      <trkpt lat="49.46171" lon="-1.56809">
        <ele>47</ele>
        <time>2019-04-23T14:26:07.000Z</time>
      </trkpt>
      <trkpt lat="49.46172" lon="-1.56809">
        <ele>46.9</ele>
        <time>2019-04-23T14:26:08.000Z</time>
      </trkpt>
      <trkpt lat="49.46174" lon="-1.56808">
        <ele>46.8</ele>
        <time>2019-04-23T14:26:09.000Z</time>
      </trkpt>
      <trkpt lat="49.46175" lon="-1.56807">
        <ele>46.8</ele>
        <time>2019-04-23T14:26:10.000Z</time>
      </trkpt>
      <trkpt lat="49.46176" lon="-1.56807">
        <ele>46.7</ele>
        <time>2019-04-23T14:26:11.000Z</time>
      </trkpt>
      <trkpt lat="49.46178" lon="-1.56806">
        <ele>46.6</ele>
        <time>2019-04-23T14:26:12.000Z</time>
      </trkpt>
      <trkpt lat="49.46179" lon="-1.56806">
        <ele>46.6</ele>
        <time>2019-04-23T14:26:13.000Z</time>
      </trkpt>
      <trkpt lat="49.4618" lon="-1.56805">
        <ele>46.5</ele>
        <time>2019-04-23T14:26:14.000Z</time>
      </trkpt>
      <trkpt lat="49.46182" lon="-1.56804">
        <ele>46.4</ele>
        <time>2019-04-23T14:26:15.000Z</time>
      </trkpt>
      <trkpt lat="49.46183" lon="-1.56804">
        <ele>46.3</ele>
        <time>2019-04-23T14:26:16.000Z</time>
      </trkpt>
      <trkpt lat="49.46185" lon="-1.56803">
        <ele>46.3</ele>
        <time>2019-04-23T14:26:17.000Z</time>
      </trkpt>
      <trkpt lat="49.46186" lon="-1.56803">
        <ele>46.2</ele>
        <time>2019-04-23T14:26:18.000Z</time>
      </trkpt>
      <trkpt lat="49.46187" lon="-1.56802">
        <ele>46.1</ele>
        <time>2019-04-23T14:26:19.000Z</time>
      </trkpt>
      <trkpt lat="49.46189" lon="-1.56801">
        <ele>46.1</ele>
        <time>2019-04-23T14:26:20.000Z</time>
      </trkpt>
      <trkpt lat="49.4619" lon="-1.56801">
        <ele>46</ele>
        <time>2019-04-23T14:26:21.000Z</time>
      </trkpt>
      <trkpt lat="49.46191" lon="-1.568">
        <ele>45.9</ele>
        <time>2019-04-23T14:26:22.000Z</time>
      </trkpt>
      <trkpt lat="49.46192" lon="-1.568">
        <ele>45.9</ele>
        <time>2019-04-23T14:26:23.000Z</time>
      </trkpt>
      <trkpt lat="49.46194" lon="-1.56799">
        <ele>45.8</ele>
        <time>2019-04-23T14:26:24.000Z</time>
      </trkpt>
      <trkpt lat="49.46195" lon="-1.56799">
        <ele>45.8</ele>
        <time>2019-04-23T14:26:25.000Z</time>
      </trkpt>
      <trkpt lat="49.46196" lon="-1.56798">
        <ele>45.7</ele>
        <time>2019-04-23T14:26:26.000Z</time>
      </trkpt>
      <trkpt lat="49.46197" lon="-1.56798">
        <ele>45.7</ele>
        <time>2019-04-23T14:26:27.000Z</time>
      </trkpt>
      <trkpt lat="49.46198" lon="-1.56798">
        <ele>45.6</ele>
        <time>2019-04-23T14:26:28.000Z</time>
      </trkpt>
      <trkpt lat="49.46199" lon="-1.56798">
        <ele>45.6</ele>
        <time>2019-04-23T14:26:29.000Z</time>
      </trkpt>
      <trkpt lat="49.462" lon="-1.56797">
        <ele>45.5</ele>
        <time>2019-04-23T14:26:30.000Z</time>
      </trkpt>
      <trkpt lat="49.46201" lon="-1.56797">
        <ele>45.5</ele>
        <time>2019-04-23T14:26:31.000Z</time>
      </trkpt>
      <trkpt lat="49.46201" lon="-1.56797">
        <ele>45.4</ele>
        <time>2019-04-23T14:26:32.000Z</time>
      </trkpt>
      <trkpt lat="49.46202" lon="-1.56797">
        <ele>45.4</ele>
        <time>2019-04-23T14:26:33.000Z</time>
      </trkpt>
      <trkpt lat="49.46204" lon="-1.56796">
        <ele>45.3</ele>
        <time>2019-04-23T14:26:34.000Z</time>
      </trkpt>
      <trkpt lat="49.46205" lon="-1.56796">
        <ele>45.3</ele>
        <time>2019-04-23T14:26:35.000Z</time>
      </trkpt>
      <trkpt lat="49.46206" lon="-1.56796">
        <ele>45.2</ele>
        <time>2019-04-23T14:26:36.000Z</time>
      </trkpt>
      <trkpt lat="49.46207" lon="-1.56796">
        <ele>45.2</ele>
        <time>2019-04-23T14:26:37.000Z</time>
      </trkpt>
      <trkpt lat="49.46208" lon="-1.56795">
        <ele>45.1</ele>
        <time>2019-04-23T14:26:38.000Z</time>
      </trkpt>
      <trkpt lat="49.4621" lon="-1.56795">
        <ele>45.1</ele>
        <time>2019-04-23T14:26:39.000Z</time>
      </trkpt>
      <trkpt lat="49.46211" lon="-1.56795">
        <ele>45</ele>
        <time>2019-04-23T14:26:40.000Z</time>
      </trkpt>
      <trkpt lat="49.46213" lon="-1.56794">
        <ele>44.9</ele>
        <time>2019-04-23T14:26:41.000Z</time>
      </trkpt>
      <trkpt lat="49.46214" lon="-1.56794">
        <ele>44.9</ele>
        <time>2019-04-23T14:26:42.000Z</time>
      </trkpt>
      <trkpt lat="49.46216" lon="-1.56794">
        <ele>44.8</ele>
        <time>2019-04-23T14:26:43.000Z</time>
      </trkpt>
      <trkpt lat="49.46217" lon="-1.56793">
        <ele>44.7</ele>
        <time>2019-04-23T14:26:44.000Z</time>
      </trkpt>
      <trkpt lat="49.46219" lon="-1.56793">
        <ele>44.7</ele>
        <time>2019-04-23T14:26:45.000Z</time>
      </trkpt>
      <trkpt lat="49.4622" lon="-1.56792">
        <ele>44.6</ele>
        <time>2019-04-23T14:26:46.000Z</time>
      </trkpt>
      <trkpt lat="49.46221" lon="-1.56792">
        <ele>44.5</ele>
        <time>2019-04-23T14:26:47.000Z</time>
      </trkpt>
      <trkpt lat="49.46223" lon="-1.56792">
        <ele>44.5</ele>
        <time>2019-04-23T14:26:48.000Z</time>
      </trkpt>
      <trkpt lat="49.46224" lon="-1.56791">
        <ele>44.4</ele>
        <time>2019-04-23T14:26:49.000Z</time>
      </trkpt>
      <trkpt lat="49.46226" lon="-1.56791">
        <ele>44.3</ele>
        <time>2019-04-23T14:26:50.000Z</time>
      </trkpt>
      <trkpt lat="49.46227" lon="-1.5679">
        <ele>44.3</ele>
        <time>2019-04-23T14:26:51.000Z</time>
      </trkpt>
      <trkpt lat="49.46228" lon="-1.5679">
        <ele>44.2</ele>
        <time>2019-04-23T14:26:52.000Z</time>
      </trkpt>
      <trkpt lat="49.4623" lon="-1.5679">
        <ele>44.2</ele>
        <time>2019-04-23T14:26:53.000Z</time>
      </trkpt>
      <trkpt lat="49.46231" lon="-1.56789">
        <ele>44.1</ele>
        <time>2019-04-23T14:26:54.000Z</time>
      </trkpt>
      <trkpt lat="49.46232" lon="-1.56789">
        <ele>44</ele>
        <time>2019-04-23T14:26:55.000Z</time>
      </trkpt>
      <trkpt lat="49.46234" lon="-1.56789">
        <ele>44</ele>
        <time>2019-04-23T14:26:56.000Z</time>
      </trkpt>
      <trkpt lat="49.46235" lon="-1.56789">
        <ele>43.9</ele>
        <time>2019-04-23T14:26:57.000Z</time>
      </trkpt>
      <trkpt lat="49.46236" lon="-1.56788">
        <ele>43.9</ele>
        <time>2019-04-23T14:26:58.000Z</time>
      </trkpt>
      <trkpt lat="49.46238" lon="-1.56788">
        <ele>43.8</ele>
        <time>2019-04-23T14:26:59.000Z</time>
      </trkpt>
      <trkpt lat="49.46239" lon="-1.56788">
        <ele>43.8</ele>
        <time>2019-04-23T14:27:00.000Z</time>
      </trkpt>
      <trkpt lat="49.4624" lon="-1.56788">
        <ele>43.7</ele>
        <time>2019-04-23T14:27:01.000Z</time>
      </trkpt>
      <trkpt lat="49.46241" lon="-1.56787">
        <ele>43.7</ele>
        <time>2019-04-23T14:27:02.000Z</time>
      </trkpt>
      <trkpt lat="49.46243" lon="-1.56787">
        <ele>43.6</ele>
        <time>2019-04-23T14:27:03.000Z</time>
      </trkpt>
      <trkpt lat="49.46244" lon="-1.56787">
        <ele>43.6</ele>
        <time>2019-04-23T14:27:04.000Z</time>
      </trkpt>
      <trkpt lat="49.46245" lon="-1.56787">
        <ele>43.5</ele>
        <time>2019-04-23T14:27:05.000Z</time>
      </trkpt>
      <trkpt lat="49.46247" lon="-1.56787">
        <ele>43.4</ele>
        <time>2019-04-23T14:27:06.000Z</time>
      </trkpt>
      <trkpt lat="49.46248" lon="-1.56787">
        <ele>43.4</ele>
        <time>2019-04-23T14:27:07.000Z</time>
      </trkpt>
      <trkpt lat="49.46249" lon="-1.56786">
        <ele>43.3</ele>
        <time>2019-04-23T14:27:08.000Z</time>
      </trkpt>
      <trkpt lat="49.46251" lon="-1.56786">
        <ele>43.3</ele>
        <time>2019-04-23T14:27:09.000Z</time>
      </trkpt>
      <trkpt lat="49.46252" lon="-1.56786">
        <ele>43.2</ele>
        <time>2019-04-23T14:27:10.000Z</time>
      </trkpt>
      <trkpt lat="49.46254" lon="-1.56786">
        <ele>43.2</ele>
        <time>2019-04-23T14:27:11.000Z</time>
      </trkpt>
      <trkpt lat="49.46255" lon="-1.56786">
        <ele>43.1</ele>
        <time>2019-04-23T14:27:12.000Z</time>
      </trkpt>
      <trkpt lat="49.46256" lon="-1.56786">
        <ele>43.1</ele>
        <time>2019-04-23T14:27:13.000Z</time>
      </trkpt>
      <trkpt lat="49.46258" lon="-1.56786">
        <ele>43</ele>
        <time>2019-04-23T14:27:14.000Z</time>
      </trkpt>
      <trkpt lat="49.46259" lon="-1.56785">
        <ele>42.9</ele>
        <time>2019-04-23T14:27:15.000Z</time>
      </trkpt>
      <trkpt lat="49.46261" lon="-1.56785">
        <ele>42.9</ele>
        <time>2019-04-23T14:27:16.000Z</time>
      </trkpt>
      <trkpt lat="49.46262" lon="-1.56785">
        <ele>42.8</ele>
        <time>2019-04-23T14:27:17.000Z</time>
      </trkpt>
      <trkpt lat="49.46263" lon="-1.56785">
        <ele>42.8</ele>
        <time>2019-04-23T14:27:18.000Z</time>
      </trkpt>
      <trkpt lat="49.46265" lon="-1.56785">
        <ele>42.7</ele>
        <time>2019-04-23T14:27:19.000Z</time>
      </trkpt>
      <trkpt lat="49.46266" lon="-1.56784">
        <ele>42.7</ele>
        <time>2019-04-23T14:27:20.000Z</time>
      </trkpt>
      <trkpt lat="49.46267" lon="-1.56784">
        <ele>42.6</ele>
        <time>2019-04-23T14:27:21.000Z</time>
      </trkpt>
      <trkpt lat="49.46269" lon="-1.56784">
        <ele>42.5</ele>
        <time>2019-04-23T14:27:22.000Z</time>
      </trkpt>
      <trkpt lat="49.4627" lon="-1.56783">
        <ele>42.5</ele>
        <time>2019-04-23T14:27:23.000Z</time>
      </trkpt>
      <trkpt lat="49.46272" lon="-1.56783">
        <ele>42.4</ele>
        <time>2019-04-23T14:27:24.000Z</time>
      </trkpt>
      <trkpt lat="49.46273" lon="-1.56783">
        <ele>42.4</ele>
        <time>2019-04-23T14:27:25.000Z</time>
      </trkpt>
      <trkpt lat="49.46274" lon="-1.56783">
        <ele>42.3</ele>
        <time>2019-04-23T14:27:26.000Z</time>
      </trkpt>
      <trkpt lat="49.46276" lon="-1.56782">
        <ele>42.2</ele>
        <time>2019-04-23T14:27:27.000Z</time>
      </trkpt>
      <trkpt lat="49.46277" lon="-1.56782">
        <ele>42.2</ele>
        <time>2019-04-23T14:27:28.000Z</time>
      </trkpt>
      <trkpt lat="49.46278" lon="-1.56782">
        <ele>42.1</ele>
        <time>2019-04-23T14:27:29.000Z</time>
      </trkpt>
      <trkpt lat="49.4628" lon="-1.56781">
        <ele>42.1</ele>
        <time>2019-04-23T14:27:30.000Z</time>
      </trkpt>
      <trkpt lat="49.46281" lon="-1.56781">
        <ele>42</ele>
        <time>2019-04-23T14:27:31.000Z</time>
      </trkpt>
      <trkpt lat="49.46282" lon="-1.56781">
        <ele>41.9</ele>
        <time>2019-04-23T14:27:32.000Z</time>
      </trkpt>
      <trkpt lat="49.46284" lon="-1.56781">
        <ele>41.9</ele>
        <time>2019-04-23T14:27:33.000Z</time>
      </trkpt>
      <trkpt lat="49.46285" lon="-1.5678">
        <ele>41.8</ele>
        <time>2019-04-23T14:27:34.000Z</time>
      </trkpt>
      <trkpt lat="49.46286" lon="-1.5678">
        <ele>41.8</ele>
        <time>2019-04-23T14:27:35.000Z</time>
      </trkpt>
      <trkpt lat="49.46288" lon="-1.5678">
        <ele>41.7</ele>
        <time>2019-04-23T14:27:36.000Z</time>
      </trkpt>
      <trkpt lat="49.46289" lon="-1.5678">
        <ele>41.7</ele>
        <time>2019-04-23T14:27:37.000Z</time>
      </trkpt>
      <trkpt lat="49.4629" lon="-1.5678">
        <ele>41.6</ele>
        <time>2019-04-23T14:27:38.000Z</time>
      </trkpt>
      <trkpt lat="49.46291" lon="-1.56779">
        <ele>41.6</ele>
        <time>2019-04-23T14:27:39.000Z</time>
      </trkpt>
      <trkpt lat="49.46293" lon="-1.56779">
        <ele>41.5</ele>
        <time>2019-04-23T14:27:40.000Z</time>
      </trkpt>
      <trkpt lat="49.46294" lon="-1.56779">
        <ele>41.5</ele>
        <time>2019-04-23T14:27:41.000Z</time>
      </trkpt>
      <trkpt lat="49.46295" lon="-1.56779">
        <ele>41.4</ele>
        <time>2019-04-23T14:27:42.000Z</time>
      </trkpt>
      <trkpt lat="49.46296" lon="-1.56779">
        <ele>41.4</ele>
        <time>2019-04-23T14:27:43.000Z</time>
      </trkpt>
      <trkpt lat="49.46298" lon="-1.56778">
        <ele>41.3</ele>
        <time>2019-04-23T14:27:44.000Z</time>
      </trkpt>
      <trkpt lat="49.46299" lon="-1.56778">
        <ele>41.3</ele>
        <time>2019-04-23T14:27:45.000Z</time>
      </trkpt>
      <trkpt lat="49.463" lon="-1.56778">
        <ele>41.2</ele>
        <time>2019-04-23T14:27:46.000Z</time>
      </trkpt>
      <trkpt lat="49.46301" lon="-1.56778">
        <ele>41.2</ele>
        <time>2019-04-23T14:27:47.000Z</time>
      </trkpt>
      <trkpt lat="49.46303" lon="-1.56778">
        <ele>41.1</ele>
        <time>2019-04-23T14:27:48.000Z</time>
      </trkpt>
      <trkpt lat="49.46304" lon="-1.56777">
        <ele>41</ele>
        <time>2019-04-23T14:27:49.000Z</time>
      </trkpt>
      <trkpt lat="49.46305" lon="-1.56777">
        <ele>41</ele>
        <time>2019-04-23T14:27:50.000Z</time>
      </trkpt>
      <trkpt lat="49.46307" lon="-1.56777">
        <ele>40.9</ele>
        <time>2019-04-23T14:27:51.000Z</time>
      </trkpt>
      <trkpt lat="49.46308" lon="-1.56777">
        <ele>40.9</ele>
        <time>2019-04-23T14:27:52.000Z</time>
      </trkpt>
      <trkpt lat="49.46309" lon="-1.56776">
        <ele>40.8</ele>
        <time>2019-04-23T14:27:53.000Z</time>
      </trkpt>
      <trkpt lat="49.46311" lon="-1.56776">
        <ele>40.8</ele>
        <time>2019-04-23T14:27:54.000Z</time>
      </trkpt>
      <trkpt lat="49.46312" lon="-1.56775">
        <ele>40.7</ele>
        <time>2019-04-23T14:27:55.000Z</time>
      </trkpt>
      <trkpt lat="49.46313" lon="-1.56775">
        <ele>40.6</ele>
        <time>2019-04-23T14:27:56.000Z</time>
      </trkpt>
      <trkpt lat="49.46315" lon="-1.56775">
        <ele>40.6</ele>
        <time>2019-04-23T14:27:57.000Z</time>
      </trkpt>
      <trkpt lat="49.46316" lon="-1.56774">
        <ele>40.5</ele>
        <time>2019-04-23T14:27:58.000Z</time>
      </trkpt>
      <trkpt lat="49.46317" lon="-1.56774">
        <ele>40.4</ele>
        <time>2019-04-23T14:27:59.000Z</time>
      </trkpt>
      <trkpt lat="49.46319" lon="-1.56774">
        <ele>40.4</ele>
        <time>2019-04-23T14:28:00.000Z</time>
      </trkpt>
      <trkpt lat="49.4632" lon="-1.56774">
        <ele>40.3</ele>
        <time>2019-04-23T14:28:01.000Z</time>
      </trkpt>
      <trkpt lat="49.46321" lon="-1.56774">
        <ele>40.3</ele>
        <time>2019-04-23T14:28:02.000Z</time>
      </trkpt>
      <trkpt lat="49.46323" lon="-1.56774">
        <ele>40.2</ele>
        <time>2019-04-23T14:28:03.000Z</time>
      </trkpt>
      <trkpt lat="49.46324" lon="-1.56774">
        <ele>40.2</ele>
        <time>2019-04-23T14:28:04.000Z</time>
      </trkpt>
      <trkpt lat="49.46326" lon="-1.56773">
        <ele>40.1</ele>
        <time>2019-04-23T14:28:05.000Z</time>
      </trkpt>
      <trkpt lat="49.46327" lon="-1.56773">
        <ele>40.1</ele>
        <time>2019-04-23T14:28:06.000Z</time>
      </trkpt>
      <trkpt lat="49.46328" lon="-1.56773">
        <ele>40</ele>
        <time>2019-04-23T14:28:07.000Z</time>
      </trkpt>
      <trkpt lat="49.46329" lon="-1.56773">
        <ele>40</ele>
        <time>2019-04-23T14:28:08.000Z</time>
      </trkpt>
      <trkpt lat="49.4633" lon="-1.56773">
        <ele>40</ele>
        <time>2019-04-23T14:28:09.000Z</time>
      </trkpt>
      <trkpt lat="49.4633" lon="-1.56773">
        <ele>39.9</ele>
        <time>2019-04-23T14:28:10.000Z</time>
      </trkpt>
      <trkpt lat="49.4633" lon="-1.56773">
        <ele>39.9</ele>
        <time>2019-04-23T14:28:11.000Z</time>
      </trkpt>
      <trkpt lat="49.46331" lon="-1.56773">
        <ele>39.9</ele>
        <time>2019-04-23T14:28:12.000Z</time>
      </trkpt>
      <trkpt lat="49.46332" lon="-1.56772">
        <ele>39.8</ele>
        <time>2019-04-23T14:28:13.000Z</time>
      </trkpt>
      <trkpt lat="49.46333" lon="-1.56772">
        <ele>39.8</ele>
        <time>2019-04-23T14:28:14.000Z</time>
      </trkpt>
      <trkpt lat="49.46335" lon="-1.56772">
        <ele>39.8</ele>
        <time>2019-04-23T14:28:15.000Z</time>
      </trkpt>
      <trkpt lat="49.46336" lon="-1.56772">
        <ele>39.7</ele>
        <time>2019-04-23T14:28:16.000Z</time>
      </trkpt>
      <trkpt lat="49.46338" lon="-1.56772">
        <ele>39.7</ele>
        <time>2019-04-23T14:28:17.000Z</time>
      </trkpt>
      <trkpt lat="49.4634" lon="-1.56772">
        <ele>39.7</ele>
        <time>2019-04-23T14:28:18.000Z</time>
      </trkpt>
      <trkpt lat="49.46341" lon="-1.56772">
        <ele>39.6</ele>
        <time>2019-04-23T14:28:19.000Z</time>
      </trkpt>
      <trkpt lat="49.46343" lon="-1.56772">
        <ele>39.6</ele>
        <time>2019-04-23T14:28:20.000Z</time>
      </trkpt>
      <trkpt lat="49.46344" lon="-1.56771">
        <ele>39.5</ele>
        <time>2019-04-23T14:28:21.000Z</time>
      </trkpt>
      <trkpt lat="49.46346" lon="-1.56771">
        <ele>39.5</ele>
        <time>2019-04-23T14:28:22.000Z</time>
      </trkpt>
      <trkpt lat="49.46347" lon="-1.56771">
        <ele>39.5</ele>
        <time>2019-04-23T14:28:23.000Z</time>
      </trkpt>
      <trkpt lat="49.46349" lon="-1.56771">
        <ele>39.4</ele>
        <time>2019-04-23T14:28:24.000Z</time>
      </trkpt>
      <trkpt lat="49.4635" lon="-1.5677">
        <ele>39.4</ele>
        <time>2019-04-23T14:28:25.000Z</time>
      </trkpt>
      <trkpt lat="49.46351" lon="-1.5677">
        <ele>39.4</ele>
        <time>2019-04-23T14:28:26.000Z</time>
      </trkpt>
      <trkpt lat="49.46353" lon="-1.5677">
        <ele>39.3</ele>
        <time>2019-04-23T14:28:27.000Z</time>
      </trkpt>
      <trkpt lat="49.46354" lon="-1.5677">
        <ele>39.3</ele>
        <time>2019-04-23T14:28:28.000Z</time>
      </trkpt>
      <trkpt lat="49.46355" lon="-1.56769">
        <ele>39.2</ele>
        <time>2019-04-23T14:28:29.000Z</time>
      </trkpt>
      <trkpt lat="49.46357" lon="-1.56769">
        <ele>39.2</ele>
        <time>2019-04-23T14:28:30.000Z</time>
      </trkpt>
      <trkpt lat="49.46358" lon="-1.56769">
        <ele>39.2</ele>
        <time>2019-04-23T14:28:31.000Z</time>
      </trkpt>
      <trkpt lat="49.46359" lon="-1.56769">
        <ele>39.1</ele>
        <time>2019-04-23T14:28:32.000Z</time>
      </trkpt>
      <trkpt lat="49.46361" lon="-1.56769">
        <ele>39.1</ele>
        <time>2019-04-23T14:28:33.000Z</time>
      </trkpt>
      <trkpt lat="49.46362" lon="-1.56768">
        <ele>39.1</ele>
        <time>2019-04-23T14:28:34.000Z</time>
      </trkpt>
      <trkpt lat="49.46363" lon="-1.56768">
        <ele>39</ele>
        <time>2019-04-23T14:28:35.000Z</time>
      </trkpt>
      <trkpt lat="49.46365" lon="-1.56768">
        <ele>39</ele>
        <time>2019-04-23T14:28:36.000Z</time>
      </trkpt>
      <trkpt lat="49.46366" lon="-1.56768">
        <ele>38.9</ele>
        <time>2019-04-23T14:28:37.000Z</time>
      </trkpt>
      <trkpt lat="49.46367" lon="-1.56767">
        <ele>38.9</ele>
        <time>2019-04-23T14:28:38.000Z</time>
      </trkpt>
      <trkpt lat="49.46369" lon="-1.56767">
        <ele>38.9</ele>
        <time>2019-04-23T14:28:39.000Z</time>
      </trkpt>
      <trkpt lat="49.4637" lon="-1.56767">
        <ele>38.8</ele>
        <time>2019-04-23T14:28:40.000Z</time>
      </trkpt>
      <trkpt lat="49.46371" lon="-1.56767">
        <ele>38.8</ele>
        <time>2019-04-23T14:28:41.000Z</time>
      </trkpt>
      <trkpt lat="49.46372" lon="-1.56767">
        <ele>38.7</ele>
        <time>2019-04-23T14:28:42.000Z</time>
      </trkpt>
      <trkpt lat="49.46374" lon="-1.56766">
        <ele>38.7</ele>
        <time>2019-04-23T14:28:43.000Z</time>
      </trkpt>
      <trkpt lat="49.46375" lon="-1.56766">
        <ele>38.7</ele>
        <time>2019-04-23T14:28:44.000Z</time>
      </trkpt>
      <trkpt lat="49.46376" lon="-1.56766">
        <ele>38.6</ele>
        <time>2019-04-23T14:28:45.000Z</time>
      </trkpt>
      <trkpt lat="49.46378" lon="-1.56766">
        <ele>38.6</ele>
        <time>2019-04-23T14:28:46.000Z</time>
      </trkpt>
      <trkpt lat="49.46379" lon="-1.56766">
        <ele>38.6</ele>
        <time>2019-04-23T14:28:47.000Z</time>
      </trkpt>
      <trkpt lat="49.4638" lon="-1.56765">
        <ele>38.5</ele>
        <time>2019-04-23T14:28:48.000Z</time>
      </trkpt>
      <trkpt lat="49.46382" lon="-1.56765">
        <ele>38.5</ele>
        <time>2019-04-23T14:28:49.000Z</time>
      </trkpt>
      <trkpt lat="49.46383" lon="-1.56765">
        <ele>38.4</ele>
        <time>2019-04-23T14:28:50.000Z</time>
      </trkpt>
      <trkpt lat="49.46384" lon="-1.56765">
        <ele>38.4</ele>
        <time>2019-04-23T14:28:51.000Z</time>
      </trkpt>
      <trkpt lat="49.46386" lon="-1.56764">
        <ele>38.4</ele>
        <time>2019-04-23T14:28:52.000Z</time>
      </trkpt>
      <trkpt lat="49.46387" lon="-1.56764">
        <ele>38.3</ele>
        <time>2019-04-23T14:28:53.000Z</time>
      </trkpt>
      <trkpt lat="49.46388" lon="-1.56764">
        <ele>38.3</ele>
        <time>2019-04-23T14:28:54.000Z</time>
      </trkpt>
      <trkpt lat="49.46389" lon="-1.56764">
        <ele>38.3</ele>
        <time>2019-04-23T14:28:55.000Z</time>
      </trkpt>
      <trkpt lat="49.46391" lon="-1.56763">
        <ele>38.2</ele>
        <time>2019-04-23T14:28:56.000Z</time>
      </trkpt>
      <trkpt lat="49.46392" lon="-1.56763">
        <ele>38.2</ele>
        <time>2019-04-23T14:28:57.000Z</time>
      </trkpt>
      <trkpt lat="49.46393" lon="-1.56763">
        <ele>38.1</ele>
        <time>2019-04-23T14:28:58.000Z</time>
      </trkpt>
      <trkpt lat="49.46395" lon="-1.56763">
        <ele>38.1</ele>
        <time>2019-04-23T14:28:59.000Z</time>
      </trkpt>
      <trkpt lat="49.46396" lon="-1.56763">
        <ele>38.1</ele>
        <time>2019-04-23T14:29:00.000Z</time>
      </trkpt>
      <trkpt lat="49.46397" lon="-1.56762">
        <ele>38</ele>
        <time>2019-04-23T14:29:01.000Z</time>
      </trkpt>
      <trkpt lat="49.46399" lon="-1.56762">
        <ele>38</ele>
        <time>2019-04-23T14:29:02.000Z</time>
      </trkpt>
      <trkpt lat="49.464" lon="-1.56762">
        <ele>37.9</ele>
        <time>2019-04-23T14:29:03.000Z</time>
      </trkpt>
      <trkpt lat="49.46401" lon="-1.56761">
        <ele>37.9</ele>
        <time>2019-04-23T14:29:04.000Z</time>
      </trkpt>
      <trkpt lat="49.46403" lon="-1.56761">
        <ele>37.9</ele>
        <time>2019-04-23T14:29:05.000Z</time>
      </trkpt>
      <trkpt lat="49.46404" lon="-1.56761">
        <ele>37.8</ele>
        <time>2019-04-23T14:29:06.000Z</time>
      </trkpt>
      <trkpt lat="49.46405" lon="-1.56761">
        <ele>37.8</ele>
        <time>2019-04-23T14:29:07.000Z</time>
      </trkpt>
      <trkpt lat="49.46406" lon="-1.5676">
        <ele>37.7</ele>
        <time>2019-04-23T14:29:08.000Z</time>
      </trkpt>
      <trkpt lat="49.46408" lon="-1.5676">
        <ele>37.7</ele>
        <time>2019-04-23T14:29:09.000Z</time>
      </trkpt>
      <trkpt lat="49.46409" lon="-1.5676">
        <ele>37.6</ele>
        <time>2019-04-23T14:29:10.000Z</time>
      </trkpt>
      <trkpt lat="49.4641" lon="-1.5676">
        <ele>37.6</ele>
        <time>2019-04-23T14:29:11.000Z</time>
      </trkpt>
      <trkpt lat="49.46412" lon="-1.56759">
        <ele>37.6</ele>
        <time>2019-04-23T14:29:12.000Z</time>
      </trkpt>
      <trkpt lat="49.46413" lon="-1.56759">
        <ele>37.5</ele>
        <time>2019-04-23T14:29:13.000Z</time>
      </trkpt>
      <trkpt lat="49.46414" lon="-1.56759">
        <ele>37.5</ele>
        <time>2019-04-23T14:29:14.000Z</time>
      </trkpt>
      <trkpt lat="49.46416" lon="-1.56759">
        <ele>37.4</ele>
        <time>2019-04-23T14:29:15.000Z</time>
      </trkpt>
      <trkpt lat="49.46417" lon="-1.56758">
        <ele>37.4</ele>
        <time>2019-04-23T14:29:16.000Z</time>
      </trkpt>
      <trkpt lat="49.46418" lon="-1.56758">
        <ele>37.4</ele>
        <time>2019-04-23T14:29:17.000Z</time>
      </trkpt>
      <trkpt lat="49.4642" lon="-1.56758">
        <ele>37.4</ele>
        <time>2019-04-23T14:29:18.000Z</time>
      </trkpt>
      <trkpt lat="49.46421" lon="-1.56757">
        <ele>37.4</ele>
        <time>2019-04-23T14:29:19.000Z</time>
      </trkpt>
      <trkpt lat="49.46422" lon="-1.56757">
        <ele>37.4</ele>
        <time>2019-04-23T14:29:20.000Z</time>
      </trkpt>
      <trkpt lat="49.46423" lon="-1.56757">
        <ele>37.4</ele>
        <time>2019-04-23T14:29:21.000Z</time>
      </trkpt>
      <trkpt lat="49.46425" lon="-1.56757">
        <ele>37.4</ele>
        <time>2019-04-23T14:29:22.000Z</time>
      </trkpt>
      <trkpt lat="49.46426" lon="-1.56756">
        <ele>37.4</ele>
        <time>2019-04-23T14:29:23.000Z</time>
      </trkpt>
      <trkpt lat="49.46427" lon="-1.56756">
        <ele>37.4</ele>
        <time>2019-04-23T14:29:24.000Z</time>
      </trkpt>
      <trkpt lat="49.46429" lon="-1.56756">
        <ele>37.4</ele>
        <time>2019-04-23T14:29:25.000Z</time>
      </trkpt>
      <trkpt lat="49.4643" lon="-1.56756">
        <ele>37.4</ele>
        <time>2019-04-23T14:29:26.000Z</time>
      </trkpt>
      <trkpt lat="49.46431" lon="-1.56755">
        <ele>37.4</ele>
        <time>2019-04-23T14:29:27.000Z</time>
      </trkpt>
      <trkpt lat="49.46433" lon="-1.56755">
        <ele>37.4</ele>
        <time>2019-04-23T14:29:28.000Z</time>
      </trkpt>
      <trkpt lat="49.46434" lon="-1.56755">
        <ele>37.4</ele>
        <time>2019-04-23T14:29:29.000Z</time>
      </trkpt>
      <trkpt lat="49.46435" lon="-1.56755">
        <ele>37.4</ele>
        <time>2019-04-23T14:29:30.000Z</time>
      </trkpt>
      <trkpt lat="49.46437" lon="-1.56755">
        <ele>37.4</ele>
        <time>2019-04-23T14:29:31.000Z</time>
      </trkpt>
      <trkpt lat="49.46438" lon="-1.56754">
        <ele>37.4</ele>
        <time>2019-04-23T14:29:32.000Z</time>
      </trkpt>
      <trkpt lat="49.46439" lon="-1.56754">
        <ele>37.4</ele>
        <time>2019-04-23T14:29:33.000Z</time>
      </trkpt>
      <trkpt lat="49.4644" lon="-1.56754">
        <ele>37.4</ele>
        <time>2019-04-23T14:29:34.000Z</time>
      </trkpt>
      <trkpt lat="49.46442" lon="-1.56754">
        <ele>37.5</ele>
        <time>2019-04-23T14:29:35.000Z</time>
      </trkpt>
      <trkpt lat="49.46443" lon="-1.56754">
        <ele>37.5</ele>
        <time>2019-04-23T14:29:36.000Z</time>
      </trkpt>
      <trkpt lat="49.46444" lon="-1.56753">
        <ele>37.5</ele>
        <time>2019-04-23T14:29:37.000Z</time>
      </trkpt>
      <trkpt lat="49.46446" lon="-1.56753">
        <ele>37.5</ele>
        <time>2019-04-23T14:29:38.000Z</time>
      </trkpt>
      <trkpt lat="49.46447" lon="-1.56753">
        <ele>37.5</ele>
        <time>2019-04-23T14:29:39.000Z</time>
      </trkpt>
      <trkpt lat="49.46448" lon="-1.56753">
        <ele>37.5</ele>
        <time>2019-04-23T14:29:40.000Z</time>
      </trkpt>
      <trkpt lat="49.4645" lon="-1.56753">
        <ele>37.5</ele>
        <time>2019-04-23T14:29:41.000Z</time>
      </trkpt>
      <trkpt lat="49.46451" lon="-1.56753">
        <ele>37.5</ele>
        <time>2019-04-23T14:29:42.000Z</time>
      </trkpt>
      <trkpt lat="49.46452" lon="-1.56752">
        <ele>37.5</ele>
        <time>2019-04-23T14:29:43.000Z</time>
      </trkpt>
      <trkpt lat="49.46453" lon="-1.56752">
        <ele>37.5</ele>
        <time>2019-04-23T14:29:44.000Z</time>
      </trkpt>
      <trkpt lat="49.46455" lon="-1.56752">
        <ele>37.5</ele>
        <time>2019-04-23T14:29:45.000Z</time>
      </trkpt>
      <trkpt lat="49.46456" lon="-1.56752">
        <ele>37.5</ele>
        <time>2019-04-23T14:29:46.000Z</time>
      </trkpt>
      <trkpt lat="49.46457" lon="-1.56752">
        <ele>37.5</ele>
        <time>2019-04-23T14:29:47.000Z</time>
      </trkpt>
      <trkpt lat="49.46458" lon="-1.56751">
        <ele>37.5</ele>
        <time>2019-04-23T14:29:48.000Z</time>
      </trkpt>
      <trkpt lat="49.4646" lon="-1.56751">
        <ele>37.6</ele>
        <time>2019-04-23T14:29:49.000Z</time>
      </trkpt>
      <trkpt lat="49.46461" lon="-1.56751">
        <ele>37.6</ele>
        <time>2019-04-23T14:29:50.000Z</time>
      </trkpt>
      <trkpt lat="49.46462" lon="-1.56751">
        <ele>37.6</ele>
        <time>2019-04-23T14:29:51.000Z</time>
      </trkpt>
      <trkpt lat="49.46464" lon="-1.56751">
        <ele>37.6</ele>
        <time>2019-04-23T14:29:52.000Z</time>
      </trkpt>
      <trkpt lat="49.46465" lon="-1.56751">
        <ele>37.6</ele>
        <time>2019-04-23T14:29:53.000Z</time>
      </trkpt>
      <trkpt lat="49.46466" lon="-1.56751">
        <ele>37.6</ele>
        <time>2019-04-23T14:29:54.000Z</time>
      </trkpt>
      <trkpt lat="49.46468" lon="-1.56751">
        <ele>37.6</ele>
        <time>2019-04-23T14:29:55.000Z</time>
      </trkpt>
      <trkpt lat="49.4647" lon="-1.5675">
        <ele>37.6</ele>
        <time>2019-04-23T14:29:56.000Z</time>
      </trkpt>
      <trkpt lat="49.46471" lon="-1.5675">
        <ele>37.7</ele>
        <time>2019-04-23T14:29:57.000Z</time>
      </trkpt>
      <trkpt lat="49.46473" lon="-1.5675">
        <ele>37.7</ele>
        <time>2019-04-23T14:29:58.000Z</time>
      </trkpt>
      <trkpt lat="49.46474" lon="-1.56749">
        <ele>37.7</ele>
        <time>2019-04-23T14:29:59.000Z</time>
      </trkpt>
      <trkpt lat="49.46476" lon="-1.56749">
        <ele>37.7</ele>
        <time>2019-04-23T14:30:00.000Z</time>
      </trkpt>
      <trkpt lat="49.46477" lon="-1.56748">
        <ele>37.7</ele>
        <time>2019-04-23T14:30:01.000Z</time>
      </trkpt>
      <trkpt lat="49.46478" lon="-1.56747">
        <ele>37.7</ele>
        <time>2019-04-23T14:30:02.000Z</time>
      </trkpt>
      <trkpt lat="49.46479" lon="-1.56746">
        <ele>37.7</ele>
        <time>2019-04-23T14:30:03.000Z</time>
      </trkpt>
      <trkpt lat="49.46479" lon="-1.56744">
        <ele>37.6</ele>
        <time>2019-04-23T14:30:04.000Z</time>
      </trkpt>
      <trkpt lat="49.4648" lon="-1.56743">
        <ele>37.6</ele>
        <time>2019-04-23T14:30:05.000Z</time>
      </trkpt>
      <trkpt lat="49.46481" lon="-1.56741">
        <ele>37.6</ele>
        <time>2019-04-23T14:30:06.000Z</time>
      </trkpt>
      <trkpt lat="49.46481" lon="-1.56739">
        <ele>37.6</ele>
        <time>2019-04-23T14:30:07.000Z</time>
      </trkpt>
      <trkpt lat="49.46481" lon="-1.56737">
        <ele>37.5</ele>
        <time>2019-04-23T14:30:08.000Z</time>
      </trkpt>
      <trkpt lat="49.46481" lon="-1.56735">
        <ele>37.5</ele>
        <time>2019-04-23T14:30:09.000Z</time>
      </trkpt>
      <trkpt lat="49.46481" lon="-1.56733">
        <ele>37.5</ele>
        <time>2019-04-23T14:30:10.000Z</time>
      </trkpt>
      <trkpt lat="49.46482" lon="-1.56731">
        <ele>37.4</ele>
        <time>2019-04-23T14:30:11.000Z</time>
      </trkpt>
      <trkpt lat="49.46482" lon="-1.56729">
        <ele>37.4</ele>
        <time>2019-04-23T14:30:12.000Z</time>
      </trkpt>
      <trkpt lat="49.46482" lon="-1.56727">
        <ele>37.4</ele>
        <time>2019-04-23T14:30:13.000Z</time>
      </trkpt>
      <trkpt lat="49.46482" lon="-1.56725">
        <ele>37.3</ele>
        <time>2019-04-23T14:30:14.000Z</time>
      </trkpt>
      <trkpt lat="49.46482" lon="-1.56723">
        <ele>37.3</ele>
        <time>2019-04-23T14:30:15.000Z</time>
      </trkpt>
      <trkpt lat="49.46482" lon="-1.56721">
        <ele>37.3</ele>
        <time>2019-04-23T14:30:16.000Z</time>
      </trkpt>
      <trkpt lat="49.46482" lon="-1.56719">
        <ele>37.2</ele>
        <time>2019-04-23T14:30:17.000Z</time>
      </trkpt>
      <trkpt lat="49.46482" lon="-1.56717">
        <ele>37.2</ele>
        <time>2019-04-23T14:30:18.000Z</time>
      </trkpt>
      <trkpt lat="49.46482" lon="-1.56715">
        <ele>37.2</ele>
        <time>2019-04-23T14:30:19.000Z</time>
      </trkpt>
      <trkpt lat="49.46482" lon="-1.56713">
        <ele>37.1</ele>
        <time>2019-04-23T14:30:20.000Z</time>
      </trkpt>
      <trkpt lat="49.46482" lon="-1.56711">
        <ele>37.1</ele>
        <time>2019-04-23T14:30:21.000Z</time>
      </trkpt>
      <trkpt lat="49.46482" lon="-1.56709">
        <ele>37.1</ele>
        <time>2019-04-23T14:30:22.000Z</time>
      </trkpt>
      <trkpt lat="49.46482" lon="-1.56707">
        <ele>37</ele>
        <time>2019-04-23T14:30:23.000Z</time>
      </trkpt>
      <trkpt lat="49.46483" lon="-1.56705">
        <ele>37</ele>
        <time>2019-04-23T14:30:24.000Z</time>
      </trkpt>
      <trkpt lat="49.46483" lon="-1.56703">
        <ele>37</ele>
        <time>2019-04-23T14:30:25.000Z</time>
      </trkpt>
      <trkpt lat="49.46483" lon="-1.567">
        <ele>37</ele>
        <time>2019-04-23T14:30:26.000Z</time>
      </trkpt>
      <trkpt lat="49.46483" lon="-1.56698">
        <ele>36.9</ele>
        <time>2019-04-23T14:30:27.000Z</time>
      </trkpt>
      <trkpt lat="49.46483" lon="-1.56696">
        <ele>36.9</ele>
        <time>2019-04-23T14:30:28.000Z</time>
      </trkpt>
      <trkpt lat="49.46483" lon="-1.56694">
        <ele>36.9</ele>
        <time>2019-04-23T14:30:29.000Z</time>
      </trkpt>
      <trkpt lat="49.46483" lon="-1.56692">
        <ele>36.8</ele>
        <time>2019-04-23T14:30:30.000Z</time>
      </trkpt>
      <trkpt lat="49.46483" lon="-1.5669">
        <ele>36.8</ele>
        <time>2019-04-23T14:30:31.000Z</time>
      </trkpt>
      <trkpt lat="49.46483" lon="-1.56688">
        <ele>36.8</ele>
        <time>2019-04-23T14:30:32.000Z</time>
      </trkpt>
      <trkpt lat="49.46483" lon="-1.56687">
        <ele>36.7</ele>
        <time>2019-04-23T14:30:33.000Z</time>
      </trkpt>
      <trkpt lat="49.46483" lon="-1.56685">
        <ele>36.7</ele>
        <time>2019-04-23T14:30:34.000Z</time>
      </trkpt>
      <trkpt lat="49.46483" lon="-1.56683">
        <ele>36.7</ele>
        <time>2019-04-23T14:30:35.000Z</time>
      </trkpt>
      <trkpt lat="49.46483" lon="-1.56681">
        <ele>36.6</ele>
        <time>2019-04-23T14:30:36.000Z</time>
      </trkpt>
      <trkpt lat="49.46483" lon="-1.56679">
        <ele>36.6</ele>
        <time>2019-04-23T14:30:37.000Z</time>
      </trkpt>
      <trkpt lat="49.46482" lon="-1.56677">
        <ele>36.5</ele>
        <time>2019-04-23T14:30:38.000Z</time>
      </trkpt>
      <trkpt lat="49.46482" lon="-1.56675">
        <ele>36.5</ele>
        <time>2019-04-23T14:30:39.000Z</time>
      </trkpt>
      <trkpt lat="49.46482" lon="-1.56673">
        <ele>36.5</ele>
        <time>2019-04-23T14:30:40.000Z</time>
      </trkpt>
      <trkpt lat="49.46482" lon="-1.56671">
        <ele>36.4</ele>
        <time>2019-04-23T14:30:41.000Z</time>
      </trkpt>
      <trkpt lat="49.46482" lon="-1.56669">
        <ele>36.4</ele>
        <time>2019-04-23T14:30:42.000Z</time>
      </trkpt>
      <trkpt lat="49.46482" lon="-1.56667">
        <ele>36.4</ele>
        <time>2019-04-23T14:30:43.000Z</time>
      </trkpt>
      <trkpt lat="49.46482" lon="-1.56665">
        <ele>36.3</ele>
        <time>2019-04-23T14:30:44.000Z</time>
      </trkpt>
      <trkpt lat="49.46481" lon="-1.56663">
        <ele>36.3</ele>
        <time>2019-04-23T14:30:45.000Z</time>
      </trkpt>
      <trkpt lat="49.46481" lon="-1.56661">
        <ele>36.4</ele>
        <time>2019-04-23T14:30:46.000Z</time>
      </trkpt>
      <trkpt lat="49.46481" lon="-1.56659">
        <ele>36.4</ele>
        <time>2019-04-23T14:30:47.000Z</time>
      </trkpt>
      <trkpt lat="49.46481" lon="-1.56658">
        <ele>36.4</ele>
        <time>2019-04-23T14:30:48.000Z</time>
      </trkpt>
      <trkpt lat="49.46481" lon="-1.56656">
        <ele>36.4</ele>
        <time>2019-04-23T14:30:49.000Z</time>
      </trkpt>
      <trkpt lat="49.46481" lon="-1.56654">
        <ele>36.4</ele>
        <time>2019-04-23T14:30:50.000Z</time>
      </trkpt>
      <trkpt lat="49.4648" lon="-1.56652">
        <ele>36.4</ele>
        <time>2019-04-23T14:30:51.000Z</time>
      </trkpt>
      <trkpt lat="49.4648" lon="-1.5665">
        <ele>36.4</ele>
        <time>2019-04-23T14:30:52.000Z</time>
      </trkpt>
      <trkpt lat="49.4648" lon="-1.56648">
        <ele>36.4</ele>
        <time>2019-04-23T14:30:53.000Z</time>
      </trkpt>
      <trkpt lat="49.4648" lon="-1.56646">
        <ele>36.4</ele>
        <time>2019-04-23T14:30:54.000Z</time>
      </trkpt>
      <trkpt lat="49.4648" lon="-1.56644">
        <ele>36.4</ele>
        <time>2019-04-23T14:30:55.000Z</time>
      </trkpt>
      <trkpt lat="49.4648" lon="-1.56642">
        <ele>36.4</ele>
        <time>2019-04-23T14:30:56.000Z</time>
      </trkpt>
      <trkpt lat="49.46479" lon="-1.5664">
        <ele>36.4</ele>
        <time>2019-04-23T14:30:57.000Z</time>
      </trkpt>
      <trkpt lat="49.46479" lon="-1.56638">
        <ele>36.4</ele>
        <time>2019-04-23T14:30:58.000Z</time>
      </trkpt>
      <trkpt lat="49.46479" lon="-1.56636">
        <ele>36.4</ele>
        <time>2019-04-23T14:30:59.000Z</time>
      </trkpt>
      <trkpt lat="49.46479" lon="-1.56634">
        <ele>36.4</ele>
        <time>2019-04-23T14:31:00.000Z</time>
      </trkpt>
      <trkpt lat="49.46479" lon="-1.56632">
        <ele>36.4</ele>
        <time>2019-04-23T14:31:01.000Z</time>
      </trkpt>
      <trkpt lat="49.46479" lon="-1.5663">
        <ele>36.4</ele>
        <time>2019-04-23T14:31:02.000Z</time>
      </trkpt>
      <trkpt lat="49.46478" lon="-1.56628">
        <ele>36.4</ele>
        <time>2019-04-23T14:31:03.000Z</time>
      </trkpt>
      <trkpt lat="49.46478" lon="-1.56626">
        <ele>36.5</ele>
        <time>2019-04-23T14:31:04.000Z</time>
      </trkpt>
      <trkpt lat="49.46478" lon="-1.56624">
        <ele>36.5</ele>
        <time>2019-04-23T14:31:05.000Z</time>
      </trkpt>
      <trkpt lat="49.46478" lon="-1.56622">
        <ele>36.5</ele>
        <time>2019-04-23T14:31:06.000Z</time>
      </trkpt>
      <trkpt lat="49.46478" lon="-1.5662">
        <ele>36.5</ele>
        <time>2019-04-23T14:31:07.000Z</time>
      </trkpt>
      <trkpt lat="49.46478" lon="-1.56618">
        <ele>36.5</ele>
        <time>2019-04-23T14:31:08.000Z</time>
      </trkpt>
      <trkpt lat="49.46478" lon="-1.56616">
        <ele>36.5</ele>
        <time>2019-04-23T14:31:09.000Z</time>
      </trkpt>
      <trkpt lat="49.46477" lon="-1.56614">
        <ele>36.5</ele>
        <time>2019-04-23T14:31:10.000Z</time>
      </trkpt>
      <trkpt lat="49.46477" lon="-1.56612">
        <ele>36.5</ele>
        <time>2019-04-23T14:31:11.000Z</time>
      </trkpt>
      <trkpt lat="49.46477" lon="-1.5661">
        <ele>36.5</ele>
        <time>2019-04-23T14:31:12.000Z</time>
      </trkpt>
      <trkpt lat="49.46477" lon="-1.56608">
        <ele>36.5</ele>
        <time>2019-04-23T14:31:13.000Z</time>
      </trkpt>
      <trkpt lat="49.46477" lon="-1.56606">
        <ele>36.5</ele>
        <time>2019-04-23T14:31:14.000Z</time>
      </trkpt>
      <trkpt lat="49.46477" lon="-1.56604">
        <ele>36.5</ele>
        <time>2019-04-23T14:31:15.000Z</time>
      </trkpt>
      <trkpt lat="49.46477" lon="-1.56602">
        <ele>36.5</ele>
        <time>2019-04-23T14:31:16.000Z</time>
      </trkpt>
      <trkpt lat="49.46477" lon="-1.566">
        <ele>36.5</ele>
        <time>2019-04-23T14:31:17.000Z</time>
      </trkpt>
      <trkpt lat="49.46477" lon="-1.56599">
        <ele>36.5</ele>
        <time>2019-04-23T14:31:18.000Z</time>
      </trkpt>
      <trkpt lat="49.46476" lon="-1.56597">
        <ele>36.5</ele>
        <time>2019-04-23T14:31:19.000Z</time>
      </trkpt>
      <trkpt lat="49.46476" lon="-1.56595">
        <ele>36.5</ele>
        <time>2019-04-23T14:31:20.000Z</time>
      </trkpt>
      <trkpt lat="49.46476" lon="-1.56593">
        <ele>36.5</ele>
        <time>2019-04-23T14:31:21.000Z</time>
      </trkpt>
      <trkpt lat="49.46476" lon="-1.56591">
        <ele>36.5</ele>
        <time>2019-04-23T14:31:22.000Z</time>
      </trkpt>
      <trkpt lat="49.46476" lon="-1.56589">
        <ele>36.5</ele>
        <time>2019-04-23T14:31:23.000Z</time>
      </trkpt>
      <trkpt lat="49.46476" lon="-1.56587">
        <ele>36.5</ele>
        <time>2019-04-23T14:31:24.000Z</time>
      </trkpt>
      <trkpt lat="49.46476" lon="-1.56585">
        <ele>36.5</ele>
        <time>2019-04-23T14:31:25.000Z</time>
      </trkpt>
      <trkpt lat="49.46476" lon="-1.56583">
        <ele>36.5</ele>
        <time>2019-04-23T14:31:26.000Z</time>
      </trkpt>
      <trkpt lat="49.46476" lon="-1.56581">
        <ele>36.5</ele>
        <time>2019-04-23T14:31:27.000Z</time>
      </trkpt>
      <trkpt lat="49.46476" lon="-1.56579">
        <ele>36.5</ele>
        <time>2019-04-23T14:31:28.000Z</time>
      </trkpt>
      <trkpt lat="49.46476" lon="-1.56577">
        <ele>36.4</ele>
        <time>2019-04-23T14:31:29.000Z</time>
      </trkpt>
      <trkpt lat="49.46476" lon="-1.56575">
        <ele>36.4</ele>
        <time>2019-04-23T14:31:30.000Z</time>
      </trkpt>
      <trkpt lat="49.46476" lon="-1.56574">
        <ele>36.3</ele>
        <time>2019-04-23T14:31:31.000Z</time>
      </trkpt>
      <trkpt lat="49.46475" lon="-1.56572">
        <ele>36.3</ele>
        <time>2019-04-23T14:31:32.000Z</time>
      </trkpt>
      <trkpt lat="49.46475" lon="-1.5657">
        <ele>36.2</ele>
        <time>2019-04-23T14:31:33.000Z</time>
      </trkpt>
      <trkpt lat="49.46475" lon="-1.56568">
        <ele>36.2</ele>
        <time>2019-04-23T14:31:34.000Z</time>
      </trkpt>
      <trkpt lat="49.46475" lon="-1.56566">
        <ele>36.2</ele>
        <time>2019-04-23T14:31:35.000Z</time>
      </trkpt>
      <trkpt lat="49.46475" lon="-1.56564">
        <ele>36.1</ele>
        <time>2019-04-23T14:31:36.000Z</time>
      </trkpt>
      <trkpt lat="49.46475" lon="-1.56562">
        <ele>36.1</ele>
        <time>2019-04-23T14:31:37.000Z</time>
      </trkpt>
      <trkpt lat="49.46475" lon="-1.5656">
        <ele>36</ele>
        <time>2019-04-23T14:31:38.000Z</time>
      </trkpt>
      <trkpt lat="49.46475" lon="-1.56558">
        <ele>36</ele>
        <time>2019-04-23T14:31:39.000Z</time>
      </trkpt>
      <trkpt lat="49.46475" lon="-1.56556">
        <ele>35.9</ele>
        <time>2019-04-23T14:31:40.000Z</time>
      </trkpt>
      <trkpt lat="49.46475" lon="-1.56554">
        <ele>35.9</ele>
        <time>2019-04-23T14:31:41.000Z</time>
      </trkpt>
      <trkpt lat="49.46475" lon="-1.56552">
        <ele>35.9</ele>
        <time>2019-04-23T14:31:42.000Z</time>
      </trkpt>
      <trkpt lat="49.46475" lon="-1.56551">
        <ele>35.8</ele>
        <time>2019-04-23T14:31:43.000Z</time>
      </trkpt>
      <trkpt lat="49.46475" lon="-1.56549">
        <ele>35.8</ele>
        <time>2019-04-23T14:31:44.000Z</time>
      </trkpt>
      <trkpt lat="49.46475" lon="-1.56547">
        <ele>35.7</ele>
        <time>2019-04-23T14:31:45.000Z</time>
      </trkpt>
      <trkpt lat="49.46475" lon="-1.56545">
        <ele>35.7</ele>
        <time>2019-04-23T14:31:46.000Z</time>
      </trkpt>
      <trkpt lat="49.46475" lon="-1.56543">
        <ele>35.6</ele>
        <time>2019-04-23T14:31:47.000Z</time>
      </trkpt>
      <trkpt lat="49.46475" lon="-1.56541">
        <ele>35.6</ele>
        <time>2019-04-23T14:31:48.000Z</time>
      </trkpt>
      <trkpt lat="49.46475" lon="-1.56539">
        <ele>35.6</ele>
        <time>2019-04-23T14:31:49.000Z</time>
      </trkpt>
      <trkpt lat="49.46475" lon="-1.56537">
        <ele>35.5</ele>
        <time>2019-04-23T14:31:50.000Z</time>
      </trkpt>
      <trkpt lat="49.46475" lon="-1.56535">
        <ele>35.5</ele>
        <time>2019-04-23T14:31:51.000Z</time>
      </trkpt>
      <trkpt lat="49.46475" lon="-1.56533">
        <ele>35.4</ele>
        <time>2019-04-23T14:31:52.000Z</time>
      </trkpt>
      <trkpt lat="49.46475" lon="-1.56531">
        <ele>35.4</ele>
        <time>2019-04-23T14:31:53.000Z</time>
      </trkpt>
      <trkpt lat="49.46475" lon="-1.56528">
        <ele>35.4</ele>
        <time>2019-04-23T14:31:54.000Z</time>
      </trkpt>
      <trkpt lat="49.46475" lon="-1.56526">
        <ele>35.3</ele>
        <time>2019-04-23T14:31:55.000Z</time>
      </trkpt>
      <trkpt lat="49.46475" lon="-1.56524">
        <ele>35.3</ele>
        <time>2019-04-23T14:31:56.000Z</time>
      </trkpt>
      <trkpt lat="49.46475" lon="-1.56522">
        <ele>35.3</ele>
        <time>2019-04-23T14:31:57.000Z</time>
      </trkpt>
      <trkpt lat="49.46476" lon="-1.5652">
        <ele>35.2</ele>
        <time>2019-04-23T14:31:58.000Z</time>
      </trkpt>
      <trkpt lat="49.46476" lon="-1.56518">
        <ele>35.2</ele>
        <time>2019-04-23T14:31:59.000Z</time>
      </trkpt>
      <trkpt lat="49.46476" lon="-1.56516">
        <ele>35.2</ele>
        <time>2019-04-23T14:32:00.000Z</time>
      </trkpt>
      <trkpt lat="49.46476" lon="-1.56513">
        <ele>35.1</ele>
        <time>2019-04-23T14:32:01.000Z</time>
      </trkpt>
      <trkpt lat="49.46477" lon="-1.56511">
        <ele>35.1</ele>
        <time>2019-04-23T14:32:02.000Z</time>
      </trkpt>
      <trkpt lat="49.46477" lon="-1.56509">
        <ele>35.1</ele>
        <time>2019-04-23T14:32:03.000Z</time>
      </trkpt>
      <trkpt lat="49.46477" lon="-1.56507">
        <ele>35</ele>
        <time>2019-04-23T14:32:04.000Z</time>
      </trkpt>
      <trkpt lat="49.46477" lon="-1.56505">
        <ele>35</ele>
        <time>2019-04-23T14:32:05.000Z</time>
      </trkpt>
      <trkpt lat="49.46478" lon="-1.56503">
        <ele>35</ele>
        <time>2019-04-23T14:32:06.000Z</time>
      </trkpt>
      <trkpt lat="49.46478" lon="-1.565">
        <ele>34.9</ele>
        <time>2019-04-23T14:32:07.000Z</time>
      </trkpt>
      <trkpt lat="49.46478" lon="-1.56498">
        <ele>34.9</ele>
        <time>2019-04-23T14:32:08.000Z</time>
      </trkpt>
      <trkpt lat="49.46478" lon="-1.56496">
        <ele>34.9</ele>
        <time>2019-04-23T14:32:09.000Z</time>
      </trkpt>
      <trkpt lat="49.46478" lon="-1.56494">
        <ele>34.8</ele>
        <time>2019-04-23T14:32:10.000Z</time>
      </trkpt>
      <trkpt lat="49.46479" lon="-1.56492">
        <ele>34.8</ele>
        <time>2019-04-23T14:32:11.000Z</time>
      </trkpt>
      <trkpt lat="49.46479" lon="-1.5649">
        <ele>34.7</ele>
        <time>2019-04-23T14:32:12.000Z</time>
      </trkpt>
      <trkpt lat="49.46479" lon="-1.56488">
        <ele>34.7</ele>
        <time>2019-04-23T14:32:13.000Z</time>
      </trkpt>
      <trkpt lat="49.46479" lon="-1.56486">
        <ele>34.6</ele>
        <time>2019-04-23T14:32:14.000Z</time>
      </trkpt>
      <trkpt lat="49.46479" lon="-1.56483">
        <ele>34.6</ele>
        <time>2019-04-23T14:32:15.000Z</time>
      </trkpt>
      <trkpt lat="49.46479" lon="-1.56481">
        <ele>34.5</ele>
        <time>2019-04-23T14:32:16.000Z</time>
      </trkpt>
      <trkpt lat="49.46479" lon="-1.56479">
        <ele>34.5</ele>
        <time>2019-04-23T14:32:17.000Z</time>
      </trkpt>
      <trkpt lat="49.46479" lon="-1.56477">
        <ele>34.5</ele>
        <time>2019-04-23T14:32:18.000Z</time>
      </trkpt>
      <trkpt lat="49.46479" lon="-1.56475">
        <ele>34.4</ele>
        <time>2019-04-23T14:32:19.000Z</time>
      </trkpt>
      <trkpt lat="49.46479" lon="-1.56473">
        <ele>34.4</ele>
        <time>2019-04-23T14:32:20.000Z</time>
      </trkpt>
      <trkpt lat="49.4648" lon="-1.56471">
        <ele>34.3</ele>
        <time>2019-04-23T14:32:21.000Z</time>
      </trkpt>
      <trkpt lat="49.4648" lon="-1.56469">
        <ele>34.3</ele>
        <time>2019-04-23T14:32:22.000Z</time>
      </trkpt>
      <trkpt lat="49.4648" lon="-1.56467">
        <ele>34.2</ele>
        <time>2019-04-23T14:32:23.000Z</time>
      </trkpt>
      <trkpt lat="49.4648" lon="-1.56465">
        <ele>34.2</ele>
        <time>2019-04-23T14:32:24.000Z</time>
      </trkpt>
      <trkpt lat="49.4648" lon="-1.56463">
        <ele>34.1</ele>
        <time>2019-04-23T14:32:25.000Z</time>
      </trkpt>
      <trkpt lat="49.4648" lon="-1.56461">
        <ele>34.1</ele>
        <time>2019-04-23T14:32:26.000Z</time>
      </trkpt>
      <trkpt lat="49.4648" lon="-1.56459">
        <ele>34.1</ele>
        <time>2019-04-23T14:32:27.000Z</time>
      </trkpt>
      <trkpt lat="49.4648" lon="-1.56457">
        <ele>34</ele>
        <time>2019-04-23T14:32:28.000Z</time>
      </trkpt>
      <trkpt lat="49.4648" lon="-1.56456">
        <ele>34</ele>
        <time>2019-04-23T14:32:29.000Z</time>
      </trkpt>
      <trkpt lat="49.4648" lon="-1.56455">
        <ele>33.9</ele>
        <time>2019-04-23T14:32:30.000Z</time>
      </trkpt>
      <trkpt lat="49.4648" lon="-1.56453">
        <ele>33.9</ele>
        <time>2019-04-23T14:32:31.000Z</time>
      </trkpt>
      <trkpt lat="49.4648" lon="-1.56452">
        <ele>33.9</ele>
        <time>2019-04-23T14:32:32.000Z</time>
      </trkpt>
      <trkpt lat="49.4648" lon="-1.5645">
        <ele>33.8</ele>
        <time>2019-04-23T14:32:33.000Z</time>
      </trkpt>
      <trkpt lat="49.4648" lon="-1.56448">
        <ele>33.8</ele>
        <time>2019-04-23T14:32:34.000Z</time>
      </trkpt>
      <trkpt lat="49.4648" lon="-1.56447">
        <ele>33.8</ele>
        <time>2019-04-23T14:32:35.000Z</time>
      </trkpt>
      <trkpt lat="49.4648" lon="-1.56445">
        <ele>33.7</ele>
        <time>2019-04-23T14:32:36.000Z</time>
      </trkpt>
      <trkpt lat="49.46481" lon="-1.56443">
        <ele>33.7</ele>
        <time>2019-04-23T14:32:37.000Z</time>
      </trkpt>
      <trkpt lat="49.46481" lon="-1.56441">
        <ele>33.7</ele>
        <time>2019-04-23T14:32:38.000Z</time>
      </trkpt>
      <trkpt lat="49.46481" lon="-1.56438">
        <ele>33.6</ele>
        <time>2019-04-23T14:32:39.000Z</time>
      </trkpt>
      <trkpt lat="49.46482" lon="-1.56436">
        <ele>33.6</ele>
        <time>2019-04-23T14:32:40.000Z</time>
      </trkpt>
      <trkpt lat="49.46482" lon="-1.56434">
        <ele>33.5</ele>
        <time>2019-04-23T14:32:41.000Z</time>
      </trkpt>
      <trkpt lat="49.46482" lon="-1.56432">
        <ele>33.5</ele>
        <time>2019-04-23T14:32:42.000Z</time>
      </trkpt>
      <trkpt lat="49.46482" lon="-1.5643">
        <ele>33.5</ele>
        <time>2019-04-23T14:32:43.000Z</time>
      </trkpt>
      <trkpt lat="49.46482" lon="-1.56428">
        <ele>33.4</ele>
        <time>2019-04-23T14:32:44.000Z</time>
      </trkpt>
      <trkpt lat="49.46482" lon="-1.56426">
        <ele>33.4</ele>
        <time>2019-04-23T14:32:45.000Z</time>
      </trkpt>
      <trkpt lat="49.46482" lon="-1.56424">
        <ele>33.3</ele>
        <time>2019-04-23T14:32:46.000Z</time>
      </trkpt>
      <trkpt lat="49.46483" lon="-1.56421">
        <ele>33.3</ele>
        <time>2019-04-23T14:32:47.000Z</time>
      </trkpt>
      <trkpt lat="49.46483" lon="-1.56419">
        <ele>33.2</ele>
        <time>2019-04-23T14:32:48.000Z</time>
      </trkpt>
      <trkpt lat="49.46483" lon="-1.56417">
        <ele>33.2</ele>
        <time>2019-04-23T14:32:49.000Z</time>
      </trkpt>
      <trkpt lat="49.46483" lon="-1.56415">
        <ele>33.1</ele>
        <time>2019-04-23T14:32:50.000Z</time>
      </trkpt>
      <trkpt lat="49.46483" lon="-1.56413">
        <ele>33</ele>
        <time>2019-04-23T14:32:51.000Z</time>
      </trkpt>
      <trkpt lat="49.46484" lon="-1.56411">
        <ele>33</ele>
        <time>2019-04-23T14:32:52.000Z</time>
      </trkpt>
      <trkpt lat="49.46484" lon="-1.56409">
        <ele>32.9</ele>
        <time>2019-04-23T14:32:53.000Z</time>
      </trkpt>
      <trkpt lat="49.46484" lon="-1.56407">
        <ele>32.8</ele>
        <time>2019-04-23T14:32:54.000Z</time>
      </trkpt>
      <trkpt lat="49.46484" lon="-1.56404">
        <ele>32.7</ele>
        <time>2019-04-23T14:32:55.000Z</time>
      </trkpt>
      <trkpt lat="49.46485" lon="-1.56402">
        <ele>32.6</ele>
        <time>2019-04-23T14:32:56.000Z</time>
      </trkpt>
      <trkpt lat="49.46485" lon="-1.564">
        <ele>32.5</ele>
        <time>2019-04-23T14:32:57.000Z</time>
      </trkpt>
      <trkpt lat="49.46485" lon="-1.56398">
        <ele>32.5</ele>
        <time>2019-04-23T14:32:58.000Z</time>
      </trkpt>
      <trkpt lat="49.46485" lon="-1.56396">
        <ele>32.4</ele>
        <time>2019-04-23T14:32:59.000Z</time>
      </trkpt>
      <trkpt lat="49.46486" lon="-1.56394">
        <ele>32.3</ele>
        <time>2019-04-23T14:33:00.000Z</time>
      </trkpt>
      <trkpt lat="49.46486" lon="-1.56392">
        <ele>32.2</ele>
        <time>2019-04-23T14:33:01.000Z</time>
      </trkpt>
      <trkpt lat="49.46486" lon="-1.56389">
        <ele>32.1</ele>
        <time>2019-04-23T14:33:02.000Z</time>
      </trkpt>
      <trkpt lat="49.46486" lon="-1.56387">
        <ele>32</ele>
        <time>2019-04-23T14:33:03.000Z</time>
      </trkpt>
      <trkpt lat="49.46487" lon="-1.56385">
        <ele>32</ele>
        <time>2019-04-23T14:33:04.000Z</time>
      </trkpt>
      <trkpt lat="49.46487" lon="-1.56383">
        <ele>31.9</ele>
        <time>2019-04-23T14:33:05.000Z</time>
      </trkpt>
      <trkpt lat="49.46487" lon="-1.56381">
        <ele>31.8</ele>
        <time>2019-04-23T14:33:06.000Z</time>
      </trkpt>
      <trkpt lat="49.46487" lon="-1.56379">
        <ele>31.7</ele>
        <time>2019-04-23T14:33:07.000Z</time>
      </trkpt>
      <trkpt lat="49.46488" lon="-1.56377">
        <ele>31.6</ele>
        <time>2019-04-23T14:33:08.000Z</time>
      </trkpt>
      <trkpt lat="49.46488" lon="-1.56374">
        <ele>31.5</ele>
        <time>2019-04-23T14:33:09.000Z</time>
      </trkpt>
      <trkpt lat="49.46488" lon="-1.56372">
        <ele>31.5</ele>
        <time>2019-04-23T14:33:10.000Z</time>
      </trkpt>
      <trkpt lat="49.46488" lon="-1.5637">
        <ele>31.4</ele>
        <time>2019-04-23T14:33:11.000Z</time>
      </trkpt>
      <trkpt lat="49.46489" lon="-1.56368">
        <ele>31.3</ele>
        <time>2019-04-23T14:33:12.000Z</time>
      </trkpt>
      <trkpt lat="49.46489" lon="-1.56366">
        <ele>31.2</ele>
        <time>2019-04-23T14:33:13.000Z</time>
      </trkpt>
      <trkpt lat="49.46489" lon="-1.56364">
        <ele>31.1</ele>
        <time>2019-04-23T14:33:14.000Z</time>
      </trkpt>
      <trkpt lat="49.4649" lon="-1.56362">
        <ele>31</ele>
        <time>2019-04-23T14:33:15.000Z</time>
      </trkpt>
      <trkpt lat="49.4649" lon="-1.5636">
        <ele>30.9</ele>
        <time>2019-04-23T14:33:16.000Z</time>
      </trkpt>
      <trkpt lat="49.4649" lon="-1.56358">
        <ele>30.9</ele>
        <time>2019-04-23T14:33:17.000Z</time>
      </trkpt>
      <trkpt lat="49.4649" lon="-1.56356">
        <ele>30.8</ele>
        <time>2019-04-23T14:33:18.000Z</time>
      </trkpt>
      <trkpt lat="49.46491" lon="-1.56354">
        <ele>30.7</ele>
        <time>2019-04-23T14:33:19.000Z</time>
      </trkpt>
      <trkpt lat="49.46491" lon="-1.56352">
        <ele>30.6</ele>
        <time>2019-04-23T14:33:20.000Z</time>
      </trkpt>
      <trkpt lat="49.46491" lon="-1.56349">
        <ele>30.5</ele>
        <time>2019-04-23T14:33:21.000Z</time>
      </trkpt>
      <trkpt lat="49.46492" lon="-1.56347">
        <ele>30.4</ele>
        <time>2019-04-23T14:33:22.000Z</time>
      </trkpt>
      <trkpt lat="49.46492" lon="-1.56345">
        <ele>30.4</ele>
        <time>2019-04-23T14:33:23.000Z</time>
      </trkpt>
      <trkpt lat="49.46492" lon="-1.56343">
        <ele>30.3</ele>
        <time>2019-04-23T14:33:24.000Z</time>
      </trkpt>
      <trkpt lat="49.46493" lon="-1.56341">
        <ele>30.2</ele>
        <time>2019-04-23T14:33:25.000Z</time>
      </trkpt>
      <trkpt lat="49.46493" lon="-1.56339">
        <ele>30.1</ele>
        <time>2019-04-23T14:33:26.000Z</time>
      </trkpt>
      <trkpt lat="49.46493" lon="-1.56337">
        <ele>30</ele>
        <time>2019-04-23T14:33:27.000Z</time>
      </trkpt>
      <trkpt lat="49.46494" lon="-1.56335">
        <ele>29.9</ele>
        <time>2019-04-23T14:33:28.000Z</time>
      </trkpt>
      <trkpt lat="49.46494" lon="-1.56333">
        <ele>29.8</ele>
        <time>2019-04-23T14:33:29.000Z</time>
      </trkpt>
      <trkpt lat="49.46494" lon="-1.56331">
        <ele>29.8</ele>
        <time>2019-04-23T14:33:30.000Z</time>
      </trkpt>
      <trkpt lat="49.46494" lon="-1.56329">
        <ele>29.7</ele>
        <time>2019-04-23T14:33:31.000Z</time>
      </trkpt>
      <trkpt lat="49.46494" lon="-1.56326">
        <ele>29.6</ele>
        <time>2019-04-23T14:33:32.000Z</time>
      </trkpt>
      <trkpt lat="49.46494" lon="-1.56324">
        <ele>29.5</ele>
        <time>2019-04-23T14:33:33.000Z</time>
      </trkpt>
      <trkpt lat="49.46494" lon="-1.56322">
        <ele>29.5</ele>
        <time>2019-04-23T14:33:34.000Z</time>
      </trkpt>
      <trkpt lat="49.46494" lon="-1.5632">
        <ele>29.4</ele>
        <time>2019-04-23T14:33:35.000Z</time>
      </trkpt>
      <trkpt lat="49.46494" lon="-1.56318">
        <ele>29.3</ele>
        <time>2019-04-23T14:33:36.000Z</time>
      </trkpt>
      <trkpt lat="49.46495" lon="-1.56315">
        <ele>29.2</ele>
        <time>2019-04-23T14:33:37.000Z</time>
      </trkpt>
      <trkpt lat="49.46495" lon="-1.56313">
        <ele>29.2</ele>
        <time>2019-04-23T14:33:38.000Z</time>
      </trkpt>
      <trkpt lat="49.46495" lon="-1.56311">
        <ele>29.1</ele>
        <time>2019-04-23T14:33:39.000Z</time>
      </trkpt>
      <trkpt lat="49.46495" lon="-1.56309">
        <ele>29</ele>
        <time>2019-04-23T14:33:40.000Z</time>
      </trkpt>
      <trkpt lat="49.46495" lon="-1.56307">
        <ele>28.9</ele>
        <time>2019-04-23T14:33:41.000Z</time>
      </trkpt>
      <trkpt lat="49.46495" lon="-1.56304">
        <ele>28.9</ele>
        <time>2019-04-23T14:33:42.000Z</time>
      </trkpt>
      <trkpt lat="49.46496" lon="-1.56302">
        <ele>28.8</ele>
        <time>2019-04-23T14:33:43.000Z</time>
      </trkpt>
      <trkpt lat="49.46496" lon="-1.563">
        <ele>28.7</ele>
        <time>2019-04-23T14:33:44.000Z</time>
      </trkpt>
      <trkpt lat="49.46496" lon="-1.56298">
        <ele>28.6</ele>
        <time>2019-04-23T14:33:45.000Z</time>
      </trkpt>
      <trkpt lat="49.46496" lon="-1.56296">
        <ele>28.6</ele>
        <time>2019-04-23T14:33:46.000Z</time>
      </trkpt>
      <trkpt lat="49.46495" lon="-1.56294">
        <ele>28.5</ele>
        <time>2019-04-23T14:33:47.000Z</time>
      </trkpt>
      <trkpt lat="49.46494" lon="-1.56293">
        <ele>28.4</ele>
        <time>2019-04-23T14:33:48.000Z</time>
      </trkpt>
      <trkpt lat="49.46493" lon="-1.56292">
        <ele>28.4</ele>
        <time>2019-04-23T14:33:49.000Z</time>
      </trkpt>
      <trkpt lat="49.46492" lon="-1.56292">
        <ele>28.4</ele>
        <time>2019-04-23T14:33:50.000Z</time>
      </trkpt>
      <trkpt lat="49.4649" lon="-1.56291">
        <ele>28.3</ele>
        <time>2019-04-23T14:33:51.000Z</time>
      </trkpt>
      <trkpt lat="49.46488" lon="-1.56291">
        <ele>28.3</ele>
        <time>2019-04-23T14:33:52.000Z</time>
      </trkpt>
      <trkpt lat="49.46486" lon="-1.56291">
        <ele>28.2</ele>
        <time>2019-04-23T14:33:53.000Z</time>
      </trkpt>
      <trkpt lat="49.46485" lon="-1.56291">
        <ele>28.2</ele>
        <time>2019-04-23T14:33:54.000Z</time>
      </trkpt>
      <trkpt lat="49.46483" lon="-1.56291">
        <ele>28.2</ele>
        <time>2019-04-23T14:33:55.000Z</time>
      </trkpt>
      <trkpt lat="49.46481" lon="-1.5629">
        <ele>28.1</ele>
        <time>2019-04-23T14:33:56.000Z</time>
      </trkpt>
      <trkpt lat="49.46479" lon="-1.5629">
        <ele>28.1</ele>
        <time>2019-04-23T14:33:57.000Z</time>
      </trkpt>
      <trkpt lat="49.46478" lon="-1.5629">
        <ele>28</ele>
        <time>2019-04-23T14:33:58.000Z</time>
      </trkpt>
      <trkpt lat="49.46476" lon="-1.56289">
        <ele>28</ele>
        <time>2019-04-23T14:33:59.000Z</time>
      </trkpt>
      <trkpt lat="49.46475" lon="-1.56289">
        <ele>28</ele>
        <time>2019-04-23T14:34:00.000Z</time>
      </trkpt>
      <trkpt lat="49.46474" lon="-1.56288">
        <ele>27.9</ele>
        <time>2019-04-23T14:34:01.000Z</time>
      </trkpt>
      <trkpt lat="49.46472" lon="-1.56288">
        <ele>27.9</ele>
        <time>2019-04-23T14:34:02.000Z</time>
      </trkpt>
      <trkpt lat="49.46471" lon="-1.56288">
        <ele>27.8</ele>
        <time>2019-04-23T14:34:03.000Z</time>
      </trkpt>
      <trkpt lat="49.46469" lon="-1.56287">
        <ele>27.8</ele>
        <time>2019-04-23T14:34:04.000Z</time>
      </trkpt>
      <trkpt lat="49.46468" lon="-1.56287">
        <ele>27.8</ele>
        <time>2019-04-23T14:34:05.000Z</time>
      </trkpt>
      <trkpt lat="49.46467" lon="-1.56287">
        <ele>27.8</ele>
        <time>2019-04-23T14:34:06.000Z</time>
      </trkpt>
      <trkpt lat="49.46466" lon="-1.56287">
        <ele>27.7</ele>
        <time>2019-04-23T14:34:07.000Z</time>
      </trkpt>
      <trkpt lat="49.46464" lon="-1.56286">
        <ele>27.7</ele>
        <time>2019-04-23T14:34:08.000Z</time>
      </trkpt>
      <trkpt lat="49.46463" lon="-1.56286">
        <ele>27.7</ele>
        <time>2019-04-23T14:34:09.000Z</time>
      </trkpt>
      <trkpt lat="49.46462" lon="-1.56286">
        <ele>27.6</ele>
        <time>2019-04-23T14:34:10.000Z</time>
      </trkpt>
      <trkpt lat="49.46461" lon="-1.56286">
        <ele>27.6</ele>
        <time>2019-04-23T14:34:11.000Z</time>
      </trkpt>
      <trkpt lat="49.46459" lon="-1.56286">
        <ele>27.6</ele>
        <time>2019-04-23T14:34:12.000Z</time>
      </trkpt>
      <trkpt lat="49.46458" lon="-1.56286">
        <ele>27.6</ele>
        <time>2019-04-23T14:34:13.000Z</time>
      </trkpt>
      <trkpt lat="49.46457" lon="-1.56286">
        <ele>27.5</ele>
        <time>2019-04-23T14:34:14.000Z</time>
      </trkpt>
      <trkpt lat="49.46456" lon="-1.56285">
        <ele>27.5</ele>
        <time>2019-04-23T14:34:15.000Z</time>
      </trkpt>
      <trkpt lat="49.46455" lon="-1.56286">
        <ele>27.5</ele>
        <time>2019-04-23T14:34:16.000Z</time>
      </trkpt>
      <trkpt lat="49.46454" lon="-1.56286">
        <ele>27.5</ele>
        <time>2019-04-23T14:34:17.000Z</time>
      </trkpt>
      <trkpt lat="49.46453" lon="-1.56287">
        <ele>27.5</ele>
        <time>2019-04-23T14:34:18.000Z</time>
      </trkpt>
      <trkpt lat="49.46452" lon="-1.56288">
        <ele>27.5</ele>
        <time>2019-04-23T14:34:19.000Z</time>
      </trkpt>
      <trkpt lat="49.46451" lon="-1.56289">
        <ele>27.5</ele>
        <time>2019-04-23T14:34:20.000Z</time>
      </trkpt>
      <trkpt lat="49.46451" lon="-1.5629">
        <ele>27.6</ele>
        <time>2019-04-23T14:34:21.000Z</time>
      </trkpt>
      <trkpt lat="49.4645" lon="-1.56291">
        <ele>27.6</ele>
        <time>2019-04-23T14:34:22.000Z</time>
      </trkpt>
      <trkpt lat="49.4645" lon="-1.56291">
        <ele>27.6</ele>
        <time>2019-04-23T14:34:23.000Z</time>
      </trkpt>
      <trkpt lat="49.4645" lon="-1.56292">
        <ele>27.6</ele>
        <time>2019-04-23T14:34:24.000Z</time>
      </trkpt>
      <trkpt lat="49.4645" lon="-1.56293">
        <ele>27.6</ele>
        <time>2019-04-23T14:34:25.000Z</time>
      </trkpt>
      <trkpt lat="49.4645" lon="-1.56293">
        <ele>27.6</ele>
        <time>2019-04-23T14:34:26.000Z</time>
      </trkpt>
      <trkpt lat="49.4645" lon="-1.56293">
        <ele>27.6</ele>
        <time>2019-04-23T14:34:27.000Z</time>
      </trkpt>
      <trkpt lat="49.4645" lon="-1.56294">
        <ele>27.7</ele>
        <time>2019-04-23T14:34:28.000Z</time>
      </trkpt>
      <trkpt lat="49.4645" lon="-1.56294">
        <ele>27.7</ele>
        <time>2019-04-23T14:34:29.000Z</time>
      </trkpt>
      <trkpt lat="49.4645" lon="-1.56294">
        <ele>27.7</ele>
        <time>2019-04-23T14:34:30.000Z</time>
      </trkpt>
      <trkpt lat="49.4645" lon="-1.56294">
        <ele>27.7</ele>
        <time>2019-04-23T14:34:31.000Z</time>
      </trkpt>
      <trkpt lat="49.4645" lon="-1.56294">
        <ele>27.7</ele>
        <time>2019-04-23T14:34:32.000Z</time>
      </trkpt>
      <trkpt lat="49.4645" lon="-1.56295">
        <ele>27.7</ele>
        <time>2019-04-23T14:34:33.000Z</time>
      </trkpt>
      <trkpt lat="49.4645" lon="-1.56295">
        <ele>27.7</ele>
        <time>2019-04-23T14:34:34.000Z</time>
      </trkpt>
      <trkpt lat="49.4645" lon="-1.56295">
        <ele>27.7</ele>
        <time>2019-04-23T14:34:35.000Z</time>
      </trkpt>
      <trkpt lat="49.4645" lon="-1.56295">
        <ele>27.7</ele>
        <time>2019-04-23T14:34:36.000Z</time>
      </trkpt>
      <trkpt lat="49.4645" lon="-1.56294">
        <ele>27.7</ele>
        <time>2019-04-23T14:34:37.000Z</time>
      </trkpt>
      <trkpt lat="49.4645" lon="-1.56294">
        <ele>27.7</ele>
        <time>2019-04-23T14:34:38.000Z</time>
      </trkpt>
      <trkpt lat="49.4645" lon="-1.56294">
        <ele>27.7</ele>
        <time>2019-04-23T14:34:39.000Z</time>
      </trkpt>
      <trkpt lat="49.4645" lon="-1.56294">
        <ele>27.7</ele>
        <time>2019-04-23T14:34:40.000Z</time>
      </trkpt>
      <trkpt lat="49.4645" lon="-1.56294">
        <ele>27.7</ele>
        <time>2019-04-23T14:34:41.000Z</time>
      </trkpt>
      <trkpt lat="49.4645" lon="-1.56294">
        <ele>27.7</ele>
        <time>2019-04-23T14:34:42.000Z</time>
      </trkpt>
      <trkpt lat="49.4645" lon="-1.56294">
        <ele>27.7</ele>
        <time>2019-04-23T14:34:43.000Z</time>
      </trkpt>
      <trkpt lat="49.4645" lon="-1.56294">
        <ele>27.7</ele>
        <time>2019-04-23T14:34:44.000Z</time>
      </trkpt>
      <trkpt lat="49.4645" lon="-1.56294">
        <ele>27.7</ele>
        <time>2019-04-23T14:34:45.000Z</time>
      </trkpt>
      <trkpt lat="49.4645" lon="-1.56294">
        <ele>27.7</ele>
        <time>2019-04-23T14:34:46.000Z</time>
      </trkpt>
    </trkseg>
  </trk>
</gpx>